<?xml version="1.0" encoding="UTF-8" standalone="no" ?>
<gpx xmlns="http://www.topografix.com/GPX/1/1" xmlns:xsi="http://www.w3.org/2001/XMLSchema-instance" xsi:schemaLocation="http://www.topografix.com/GPX/1/1 http://www.topografix.com/GPX/1/1/gpx.xsd" version="1.1" creator="VisuGPX - https://www.visugpx.com">
  <metadata>
    <name>L\\\'automnaise 2012 (ASPTT Saint Herblain)</name>
    <desc><![CDATA[L\'automnaise 2012 organisée par l\'ASPTT Nantes]]></desc>
  </metadata>
  <trk>
    <name><![CDATA[2012-10-28 L'automnaise]]></name>
    <trkseg>
      <trkpt lat="47.23895" lon="-1.63445">
        <ele>34.2</ele>
        <time>2012-10-28T07:34:31Z</time>
      </trkpt>
      <trkpt lat="47.23895" lon="-1.63445">
        <ele>34.2</ele>
        <time>2012-10-28T07:34:31Z</time>
      </trkpt>
      <trkpt lat="47.23895" lon="-1.63445">
        <ele>34.1</ele>
        <time>2012-10-28T07:34:32Z</time>
      </trkpt>
      <trkpt lat="47.23895" lon="-1.63445">
        <ele>34.3</ele>
        <time>2012-10-28T07:34:33Z</time>
      </trkpt>
      <trkpt lat="47.23895" lon="-1.63445">
        <ele>34.6</ele>
        <time>2012-10-28T07:34:34Z</time>
      </trkpt>
      <trkpt lat="47.23895" lon="-1.63445">
        <ele>34.5</ele>
        <time>2012-10-28T07:34:35Z</time>
      </trkpt>
      <trkpt lat="47.23895" lon="-1.63445">
        <ele>34.5</ele>
        <time>2012-10-28T07:34:36Z</time>
      </trkpt>
      <trkpt lat="47.23895" lon="-1.63445">
        <ele>34.8</ele>
        <time>2012-10-28T07:34:37Z</time>
      </trkpt>
      <trkpt lat="47.23895" lon="-1.63446">
        <ele>35</ele>
        <time>2012-10-28T07:34:38Z</time>
      </trkpt>
      <trkpt lat="47.23895" lon="-1.63446">
        <ele>35.1</ele>
        <time>2012-10-28T07:34:39Z</time>
      </trkpt>
      <trkpt lat="47.23895" lon="-1.63446">
        <ele>34.4</ele>
        <time>2012-10-28T07:34:42Z</time>
      </trkpt>
      <trkpt lat="47.23895" lon="-1.63446">
        <ele>34.3</ele>
        <time>2012-10-28T07:34:43Z</time>
      </trkpt>
      <trkpt lat="47.23895" lon="-1.63446">
        <ele>34.1</ele>
        <time>2012-10-28T07:34:44Z</time>
      </trkpt>
      <trkpt lat="47.23895" lon="-1.63446">
        <ele>34.2</ele>
        <time>2012-10-28T07:34:45Z</time>
      </trkpt>
      <trkpt lat="47.23895" lon="-1.63447">
        <ele>34.3</ele>
        <time>2012-10-28T07:34:46Z</time>
      </trkpt>
      <trkpt lat="47.23895" lon="-1.63447">
        <ele>34.5</ele>
        <time>2012-10-28T07:34:47Z</time>
      </trkpt>
      <trkpt lat="47.23895" lon="-1.63446">
        <ele>34.7</ele>
        <time>2012-10-28T07:34:48Z</time>
      </trkpt>
      <trkpt lat="47.23895" lon="-1.63446">
        <ele>34.7</ele>
        <time>2012-10-28T07:34:49Z</time>
      </trkpt>
      <trkpt lat="47.23895" lon="-1.63446">
        <ele>34.6</ele>
        <time>2012-10-28T07:34:50Z</time>
      </trkpt>
      <trkpt lat="47.23895" lon="-1.63447">
        <ele>34.6</ele>
        <time>2012-10-28T07:34:51Z</time>
      </trkpt>
      <trkpt lat="47.23895" lon="-1.63447">
        <ele>34.7</ele>
        <time>2012-10-28T07:34:52Z</time>
      </trkpt>
      <trkpt lat="47.23893" lon="-1.63447">
        <ele>35.2</ele>
        <time>2012-10-28T07:35:00Z</time>
      </trkpt>
      <trkpt lat="47.23893" lon="-1.63446">
        <ele>34.6</ele>
        <time>2012-10-28T07:35:01Z</time>
      </trkpt>
      <trkpt lat="47.23892" lon="-1.63446">
        <ele>34.2</ele>
        <time>2012-10-28T07:35:02Z</time>
      </trkpt>
      <trkpt lat="47.23892" lon="-1.63446">
        <ele>33.9</ele>
        <time>2012-10-28T07:35:03Z</time>
      </trkpt>
      <trkpt lat="47.23892" lon="-1.63446">
        <ele>33.6</ele>
        <time>2012-10-28T07:35:04Z</time>
      </trkpt>
      <trkpt lat="47.23891" lon="-1.63446">
        <ele>33.4</ele>
        <time>2012-10-28T07:35:05Z</time>
      </trkpt>
      <trkpt lat="47.23891" lon="-1.63446">
        <ele>34</ele>
        <time>2012-10-28T07:35:06Z</time>
      </trkpt>
      <trkpt lat="47.23891" lon="-1.63446">
        <ele>34.5</ele>
        <time>2012-10-28T07:35:07Z</time>
      </trkpt>
      <trkpt lat="47.2389" lon="-1.63446">
        <ele>34.3</ele>
        <time>2012-10-28T07:35:08Z</time>
      </trkpt>
      <trkpt lat="47.2389" lon="-1.63447">
        <ele>34.2</ele>
        <time>2012-10-28T07:35:09Z</time>
      </trkpt>
      <trkpt lat="47.2389" lon="-1.63447">
        <ele>34.1</ele>
        <time>2012-10-28T07:35:10Z</time>
      </trkpt>
      <trkpt lat="47.23889" lon="-1.63447">
        <ele>34.2</ele>
        <time>2012-10-28T07:35:11Z</time>
      </trkpt>
      <trkpt lat="47.23889" lon="-1.63447">
        <ele>34.5</ele>
        <time>2012-10-28T07:35:13Z</time>
      </trkpt>
      <trkpt lat="47.23888" lon="-1.63447">
        <ele>34.7</ele>
        <time>2012-10-28T07:35:14Z</time>
      </trkpt>
      <trkpt lat="47.23888" lon="-1.63447">
        <ele>33.3</ele>
        <time>2012-10-28T07:35:15Z</time>
      </trkpt>
      <trkpt lat="47.23888" lon="-1.63447">
        <ele>32.2</ele>
        <time>2012-10-28T07:35:16Z</time>
      </trkpt>
      <trkpt lat="47.23888" lon="-1.63446">
        <ele>31.3</ele>
        <time>2012-10-28T07:35:17Z</time>
      </trkpt>
      <trkpt lat="47.23888" lon="-1.63447">
        <ele>32</ele>
        <time>2012-10-28T07:35:18Z</time>
      </trkpt>
      <trkpt lat="47.23888" lon="-1.63446">
        <ele>32.5</ele>
        <time>2012-10-28T07:35:19Z</time>
      </trkpt>
      <trkpt lat="47.23888" lon="-1.63446">
        <ele>33.2</ele>
        <time>2012-10-28T07:35:20Z</time>
      </trkpt>
      <trkpt lat="47.23888" lon="-1.63446">
        <ele>33.8</ele>
        <time>2012-10-28T07:35:21Z</time>
      </trkpt>
      <trkpt lat="47.23888" lon="-1.63446">
        <ele>34.2</ele>
        <time>2012-10-28T07:35:22Z</time>
      </trkpt>
      <trkpt lat="47.23888" lon="-1.63446">
        <ele>33.9</ele>
        <time>2012-10-28T07:35:23Z</time>
      </trkpt>
      <trkpt lat="47.23888" lon="-1.63446">
        <ele>33.6</ele>
        <time>2012-10-28T07:35:24Z</time>
      </trkpt>
      <trkpt lat="47.23888" lon="-1.63446">
        <ele>33.5</ele>
        <time>2012-10-28T07:35:25Z</time>
      </trkpt>
      <trkpt lat="47.23888" lon="-1.63446">
        <ele>33.4</ele>
        <time>2012-10-28T07:35:26Z</time>
      </trkpt>
      <trkpt lat="47.23888" lon="-1.63446">
        <ele>33.3</ele>
        <time>2012-10-28T07:35:27Z</time>
      </trkpt>
      <trkpt lat="47.23888" lon="-1.63445">
        <ele>33.3</ele>
        <time>2012-10-28T07:35:28Z</time>
      </trkpt>
      <trkpt lat="47.23888" lon="-1.63445">
        <ele>33.3</ele>
        <time>2012-10-28T07:35:29Z</time>
      </trkpt>
      <trkpt lat="47.23888" lon="-1.63445">
        <ele>33.5</ele>
        <time>2012-10-28T07:35:30Z</time>
      </trkpt>
      <trkpt lat="47.23888" lon="-1.63445">
        <ele>33.6</ele>
        <time>2012-10-28T07:35:31Z</time>
      </trkpt>
      <trkpt lat="47.23888" lon="-1.63444">
        <ele>33.8</ele>
        <time>2012-10-28T07:35:32Z</time>
      </trkpt>
      <trkpt lat="47.23889" lon="-1.63444">
        <ele>34</ele>
        <time>2012-10-28T07:35:33Z</time>
      </trkpt>
      <trkpt lat="47.23889" lon="-1.63444">
        <ele>33.7</ele>
        <time>2012-10-28T07:35:34Z</time>
      </trkpt>
      <trkpt lat="47.23889" lon="-1.63443">
        <ele>33.5</ele>
        <time>2012-10-28T07:35:35Z</time>
      </trkpt>
      <trkpt lat="47.23889" lon="-1.63443">
        <ele>33.3</ele>
        <time>2012-10-28T07:35:36Z</time>
      </trkpt>
      <trkpt lat="47.23889" lon="-1.63443">
        <ele>33.7</ele>
        <time>2012-10-28T07:35:37Z</time>
      </trkpt>
      <trkpt lat="47.2389" lon="-1.63442">
        <ele>33.9</ele>
        <time>2012-10-28T07:35:38Z</time>
      </trkpt>
      <trkpt lat="47.2389" lon="-1.63442">
        <ele>34</ele>
        <time>2012-10-28T07:35:39Z</time>
      </trkpt>
      <trkpt lat="47.2389" lon="-1.63442">
        <ele>34.1</ele>
        <time>2012-10-28T07:35:40Z</time>
      </trkpt>
      <trkpt lat="47.2389" lon="-1.63441">
        <ele>34.2</ele>
        <time>2012-10-28T07:35:41Z</time>
      </trkpt>
      <trkpt lat="47.2389" lon="-1.63441">
        <ele>34.1</ele>
        <time>2012-10-28T07:35:42Z</time>
      </trkpt>
      <trkpt lat="47.2389" lon="-1.63441">
        <ele>34.1</ele>
        <time>2012-10-28T07:35:43Z</time>
      </trkpt>
      <trkpt lat="47.23891" lon="-1.6344">
        <ele>33.8</ele>
        <time>2012-10-28T07:35:44Z</time>
      </trkpt>
      <trkpt lat="47.23891" lon="-1.6344">
        <ele>33.6</ele>
        <time>2012-10-28T07:35:45Z</time>
      </trkpt>
      <trkpt lat="47.23891" lon="-1.63439">
        <ele>33.8</ele>
        <time>2012-10-28T07:35:46Z</time>
      </trkpt>
      <trkpt lat="47.23891" lon="-1.63439">
        <ele>33.9</ele>
        <time>2012-10-28T07:35:47Z</time>
      </trkpt>
      <trkpt lat="47.23891" lon="-1.63439">
        <ele>34.1</ele>
        <time>2012-10-28T07:35:48Z</time>
      </trkpt>
      <trkpt lat="47.2389" lon="-1.63439">
        <ele>33.9</ele>
        <time>2012-10-28T07:35:49Z</time>
      </trkpt>
      <trkpt lat="47.23889" lon="-1.63439">
        <ele>33.7</ele>
        <time>2012-10-28T07:35:50Z</time>
      </trkpt>
      <trkpt lat="47.23887" lon="-1.63439">
        <ele>33.9</ele>
        <time>2012-10-28T07:35:51Z</time>
      </trkpt>
      <trkpt lat="47.23885" lon="-1.63442">
        <ele>34.1</ele>
        <time>2012-10-28T07:35:52Z</time>
      </trkpt>
      <trkpt lat="47.23884" lon="-1.63445">
        <ele>34.1</ele>
        <time>2012-10-28T07:35:53Z</time>
      </trkpt>
      <trkpt lat="47.23885" lon="-1.63449">
        <ele>34.2</ele>
        <time>2012-10-28T07:35:54Z</time>
      </trkpt>
      <trkpt lat="47.23886" lon="-1.63452">
        <ele>34.2</ele>
        <time>2012-10-28T07:35:55Z</time>
      </trkpt>
      <trkpt lat="47.23889" lon="-1.63453">
        <ele>34</ele>
        <time>2012-10-28T07:35:56Z</time>
      </trkpt>
      <trkpt lat="47.23899" lon="-1.63455">
        <ele>33.8</ele>
        <time>2012-10-28T07:35:59Z</time>
      </trkpt>
      <trkpt lat="47.23903" lon="-1.63457">
        <ele>33.8</ele>
        <time>2012-10-28T07:36:00Z</time>
      </trkpt>
      <trkpt lat="47.2391" lon="-1.63464">
        <ele>33.6</ele>
        <time>2012-10-28T07:36:02Z</time>
      </trkpt>
      <trkpt lat="47.23914" lon="-1.63466">
        <ele>33.6</ele>
        <time>2012-10-28T07:36:03Z</time>
      </trkpt>
      <trkpt lat="47.23919" lon="-1.63467">
        <ele>33.6</ele>
        <time>2012-10-28T07:36:04Z</time>
      </trkpt>
      <trkpt lat="47.23932" lon="-1.63469">
        <ele>33.2</ele>
        <time>2012-10-28T07:36:07Z</time>
      </trkpt>
      <trkpt lat="47.23937" lon="-1.63468">
        <ele>33</ele>
        <time>2012-10-28T07:36:08Z</time>
      </trkpt>
      <trkpt lat="47.23942" lon="-1.63467">
        <ele>32.9</ele>
        <time>2012-10-28T07:36:09Z</time>
      </trkpt>
      <trkpt lat="47.23957" lon="-1.63462">
        <ele>32.3</ele>
        <time>2012-10-28T07:36:12Z</time>
      </trkpt>
      <trkpt lat="47.23962" lon="-1.63459">
        <ele>31.9</ele>
        <time>2012-10-28T07:36:13Z</time>
      </trkpt>
      <trkpt lat="47.23972" lon="-1.63452">
        <ele>31.6</ele>
        <time>2012-10-28T07:36:15Z</time>
      </trkpt>
      <trkpt lat="47.24002" lon="-1.6343">
        <ele>31</ele>
        <time>2012-10-28T07:36:21Z</time>
      </trkpt>
      <trkpt lat="47.24007" lon="-1.63427">
        <ele>30.8</ele>
        <time>2012-10-28T07:36:22Z</time>
      </trkpt>
      <trkpt lat="47.24018" lon="-1.63423">
        <ele>30.1</ele>
        <time>2012-10-28T07:36:24Z</time>
      </trkpt>
      <trkpt lat="47.24023" lon="-1.63421">
        <ele>29.7</ele>
        <time>2012-10-28T07:36:25Z</time>
      </trkpt>
      <trkpt lat="47.24029" lon="-1.63421">
        <ele>29.4</ele>
        <time>2012-10-28T07:36:26Z</time>
      </trkpt>
      <trkpt lat="47.24034" lon="-1.63421">
        <ele>29.4</ele>
        <time>2012-10-28T07:36:27Z</time>
      </trkpt>
      <trkpt lat="47.24071" lon="-1.63425">
        <ele>27.7</ele>
        <time>2012-10-28T07:36:35Z</time>
      </trkpt>
      <trkpt lat="47.24073" lon="-1.63426">
        <ele>27.7</ele>
        <time>2012-10-28T07:36:36Z</time>
      </trkpt>
      <trkpt lat="47.24074" lon="-1.63425">
        <ele>27.8</ele>
        <time>2012-10-28T07:36:37Z</time>
      </trkpt>
      <trkpt lat="47.24078" lon="-1.63425">
        <ele>27.6</ele>
        <time>2012-10-28T07:36:39Z</time>
      </trkpt>
      <trkpt lat="47.2408" lon="-1.63424">
        <ele>27.5</ele>
        <time>2012-10-28T07:36:40Z</time>
      </trkpt>
      <trkpt lat="47.24085" lon="-1.63422">
        <ele>28.1</ele>
        <time>2012-10-28T07:36:42Z</time>
      </trkpt>
      <trkpt lat="47.24087" lon="-1.63421">
        <ele>28.2</ele>
        <time>2012-10-28T07:36:43Z</time>
      </trkpt>
      <trkpt lat="47.24088" lon="-1.6342">
        <ele>28.3</ele>
        <time>2012-10-28T07:36:44Z</time>
      </trkpt>
      <trkpt lat="47.24088" lon="-1.6342">
        <ele>28.4</ele>
        <time>2012-10-28T07:36:45Z</time>
      </trkpt>
      <trkpt lat="47.24091" lon="-1.63421">
        <ele>28.1</ele>
        <time>2012-10-28T07:36:47Z</time>
      </trkpt>
      <trkpt lat="47.24094" lon="-1.6342">
        <ele>27.7</ele>
        <time>2012-10-28T07:36:48Z</time>
      </trkpt>
      <trkpt lat="47.24096" lon="-1.63418">
        <ele>27.4</ele>
        <time>2012-10-28T07:36:49Z</time>
      </trkpt>
      <trkpt lat="47.24099" lon="-1.63415">
        <ele>27.2</ele>
        <time>2012-10-28T07:36:50Z</time>
      </trkpt>
      <trkpt lat="47.24101" lon="-1.63411">
        <ele>27.1</ele>
        <time>2012-10-28T07:36:51Z</time>
      </trkpt>
      <trkpt lat="47.24104" lon="-1.63408">
        <ele>27</ele>
        <time>2012-10-28T07:36:52Z</time>
      </trkpt>
      <trkpt lat="47.24107" lon="-1.63405">
        <ele>26.6</ele>
        <time>2012-10-28T07:36:53Z</time>
      </trkpt>
      <trkpt lat="47.2411" lon="-1.63403">
        <ele>26.3</ele>
        <time>2012-10-28T07:36:54Z</time>
      </trkpt>
      <trkpt lat="47.24118" lon="-1.634">
        <ele>27</ele>
        <time>2012-10-28T07:36:56Z</time>
      </trkpt>
      <trkpt lat="47.24121" lon="-1.63399">
        <ele>26.8</ele>
        <time>2012-10-28T07:36:57Z</time>
      </trkpt>
      <trkpt lat="47.24124" lon="-1.63399">
        <ele>26.8</ele>
        <time>2012-10-28T07:36:58Z</time>
      </trkpt>
      <trkpt lat="47.24127" lon="-1.634">
        <ele>26.7</ele>
        <time>2012-10-28T07:36:59Z</time>
      </trkpt>
      <trkpt lat="47.24129" lon="-1.63402">
        <ele>26.6</ele>
        <time>2012-10-28T07:37:00Z</time>
      </trkpt>
      <trkpt lat="47.24131" lon="-1.63405">
        <ele>26.6</ele>
        <time>2012-10-28T07:37:01Z</time>
      </trkpt>
      <trkpt lat="47.24137" lon="-1.63417">
        <ele>27.3</ele>
        <time>2012-10-28T07:37:04Z</time>
      </trkpt>
      <trkpt lat="47.24139" lon="-1.63422">
        <ele>27.2</ele>
        <time>2012-10-28T07:37:05Z</time>
      </trkpt>
      <trkpt lat="47.24145" lon="-1.63438">
        <ele>26.9</ele>
        <time>2012-10-28T07:37:08Z</time>
      </trkpt>
      <trkpt lat="47.24155" lon="-1.6347">
        <ele>27.2</ele>
        <time>2012-10-28T07:37:13Z</time>
      </trkpt>
      <trkpt lat="47.24203" lon="-1.636">
        <ele>28.7</ele>
        <time>2012-10-28T07:37:32Z</time>
      </trkpt>
      <trkpt lat="47.24205" lon="-1.63608">
        <ele>28.7</ele>
        <time>2012-10-28T07:37:33Z</time>
      </trkpt>
      <trkpt lat="47.24222" lon="-1.63713">
        <ele>27.7</ele>
        <time>2012-10-28T07:37:44Z</time>
      </trkpt>
      <trkpt lat="47.24223" lon="-1.63723">
        <ele>27.3</ele>
        <time>2012-10-28T07:37:45Z</time>
      </trkpt>
      <trkpt lat="47.24242" lon="-1.63814">
        <ele>25.7</ele>
        <time>2012-10-28T07:37:54Z</time>
      </trkpt>
      <trkpt lat="47.24245" lon="-1.63823">
        <ele>25.5</ele>
        <time>2012-10-28T07:37:55Z</time>
      </trkpt>
      <trkpt lat="47.24291" lon="-1.63948">
        <ele>27</ele>
        <time>2012-10-28T07:38:12Z</time>
      </trkpt>
      <trkpt lat="47.24294" lon="-1.63954">
        <ele>27.3</ele>
        <time>2012-10-28T07:38:13Z</time>
      </trkpt>
      <trkpt lat="47.24298" lon="-1.63957">
        <ele>27.6</ele>
        <time>2012-10-28T07:38:14Z</time>
      </trkpt>
      <trkpt lat="47.24303" lon="-1.63958">
        <ele>27.8</ele>
        <time>2012-10-28T07:38:15Z</time>
      </trkpt>
      <trkpt lat="47.24308" lon="-1.63957">
        <ele>27.5</ele>
        <time>2012-10-28T07:38:16Z</time>
      </trkpt>
      <trkpt lat="47.24312" lon="-1.63955">
        <ele>27.4</ele>
        <time>2012-10-28T07:38:17Z</time>
      </trkpt>
      <trkpt lat="47.24317" lon="-1.63951">
        <ele>27.3</ele>
        <time>2012-10-28T07:38:18Z</time>
      </trkpt>
      <trkpt lat="47.24321" lon="-1.63946">
        <ele>27.2</ele>
        <time>2012-10-28T07:38:19Z</time>
      </trkpt>
      <trkpt lat="47.24362" lon="-1.63895">
        <ele>24.8</ele>
        <time>2012-10-28T07:38:28Z</time>
      </trkpt>
      <trkpt lat="47.24366" lon="-1.63888">
        <ele>25</ele>
        <time>2012-10-28T07:38:29Z</time>
      </trkpt>
      <trkpt lat="47.24369" lon="-1.63881">
        <ele>24.7</ele>
        <time>2012-10-28T07:38:30Z</time>
      </trkpt>
      <trkpt lat="47.24372" lon="-1.63873">
        <ele>24.5</ele>
        <time>2012-10-28T07:38:31Z</time>
      </trkpt>
      <trkpt lat="47.24375" lon="-1.63865">
        <ele>24.5</ele>
        <time>2012-10-28T07:38:32Z</time>
      </trkpt>
      <trkpt lat="47.24377" lon="-1.63857">
        <ele>24.5</ele>
        <time>2012-10-28T07:38:33Z</time>
      </trkpt>
      <trkpt lat="47.24388" lon="-1.63807">
        <ele>23.3</ele>
        <time>2012-10-28T07:38:39Z</time>
      </trkpt>
      <trkpt lat="47.24389" lon="-1.63799">
        <ele>23.1</ele>
        <time>2012-10-28T07:38:40Z</time>
      </trkpt>
      <trkpt lat="47.24389" lon="-1.63791">
        <ele>22.9</ele>
        <time>2012-10-28T07:38:41Z</time>
      </trkpt>
      <trkpt lat="47.24389" lon="-1.63784">
        <ele>23</ele>
        <time>2012-10-28T07:38:42Z</time>
      </trkpt>
      <trkpt lat="47.2439" lon="-1.63777">
        <ele>23.1</ele>
        <time>2012-10-28T07:38:43Z</time>
      </trkpt>
      <trkpt lat="47.24395" lon="-1.63758">
        <ele>23.6</ele>
        <time>2012-10-28T07:38:46Z</time>
      </trkpt>
      <trkpt lat="47.24396" lon="-1.63753">
        <ele>23.3</ele>
        <time>2012-10-28T07:38:47Z</time>
      </trkpt>
      <trkpt lat="47.24399" lon="-1.63748">
        <ele>23.2</ele>
        <time>2012-10-28T07:38:48Z</time>
      </trkpt>
      <trkpt lat="47.24402" lon="-1.63745">
        <ele>23.3</ele>
        <time>2012-10-28T07:38:49Z</time>
      </trkpt>
      <trkpt lat="47.24405" lon="-1.63743">
        <ele>23.4</ele>
        <time>2012-10-28T07:38:50Z</time>
      </trkpt>
      <trkpt lat="47.24409" lon="-1.63742">
        <ele>24.1</ele>
        <time>2012-10-28T07:38:51Z</time>
      </trkpt>
      <trkpt lat="47.24411" lon="-1.63742">
        <ele>24.6</ele>
        <time>2012-10-28T07:38:52Z</time>
      </trkpt>
      <trkpt lat="47.24415" lon="-1.63743">
        <ele>25</ele>
        <time>2012-10-28T07:38:53Z</time>
      </trkpt>
      <trkpt lat="47.24423" lon="-1.63746">
        <ele>25.9</ele>
        <time>2012-10-28T07:38:55Z</time>
      </trkpt>
      <trkpt lat="47.24426" lon="-1.63748">
        <ele>25.6</ele>
        <time>2012-10-28T07:38:56Z</time>
      </trkpt>
      <trkpt lat="47.24428" lon="-1.63751">
        <ele>25.4</ele>
        <time>2012-10-28T07:38:57Z</time>
      </trkpt>
      <trkpt lat="47.2443" lon="-1.63755">
        <ele>25.7</ele>
        <time>2012-10-28T07:38:58Z</time>
      </trkpt>
      <trkpt lat="47.24432" lon="-1.63759">
        <ele>25.8</ele>
        <time>2012-10-28T07:38:59Z</time>
      </trkpt>
      <trkpt lat="47.24433" lon="-1.63764">
        <ele>25.9</ele>
        <time>2012-10-28T07:39:00Z</time>
      </trkpt>
      <trkpt lat="47.24434" lon="-1.63769">
        <ele>25.4</ele>
        <time>2012-10-28T07:39:01Z</time>
      </trkpt>
      <trkpt lat="47.24435" lon="-1.63776">
        <ele>25</ele>
        <time>2012-10-28T07:39:02Z</time>
      </trkpt>
      <trkpt lat="47.24436" lon="-1.63791">
        <ele>24.8</ele>
        <time>2012-10-28T07:39:04Z</time>
      </trkpt>
      <trkpt lat="47.24437" lon="-1.63798">
        <ele>24.8</ele>
        <time>2012-10-28T07:39:05Z</time>
      </trkpt>
      <trkpt lat="47.24436" lon="-1.63806">
        <ele>24</ele>
        <time>2012-10-28T07:39:06Z</time>
      </trkpt>
      <trkpt lat="47.24434" lon="-1.63814">
        <ele>23.4</ele>
        <time>2012-10-28T07:39:07Z</time>
      </trkpt>
      <trkpt lat="47.24433" lon="-1.63821">
        <ele>22.9</ele>
        <time>2012-10-28T07:39:08Z</time>
      </trkpt>
      <trkpt lat="47.24428" lon="-1.63836">
        <ele>22.1</ele>
        <time>2012-10-28T07:39:10Z</time>
      </trkpt>
      <trkpt lat="47.24427" lon="-1.63844">
        <ele>21.9</ele>
        <time>2012-10-28T07:39:11Z</time>
      </trkpt>
      <trkpt lat="47.24429" lon="-1.63851">
        <ele>21.7</ele>
        <time>2012-10-28T07:39:12Z</time>
      </trkpt>
      <trkpt lat="47.2443" lon="-1.63858">
        <ele>21.4</ele>
        <time>2012-10-28T07:39:13Z</time>
      </trkpt>
      <trkpt lat="47.24436" lon="-1.63879">
        <ele>20.8</ele>
        <time>2012-10-28T07:39:16Z</time>
      </trkpt>
      <trkpt lat="47.24471" lon="-1.63991">
        <ele>21.3</ele>
        <time>2012-10-28T07:39:32Z</time>
      </trkpt>
      <trkpt lat="47.2448" lon="-1.64016">
        <ele>20.3</ele>
        <time>2012-10-28T07:39:36Z</time>
      </trkpt>
      <trkpt lat="47.24494" lon="-1.64047">
        <ele>20.3</ele>
        <time>2012-10-28T07:39:41Z</time>
      </trkpt>
      <trkpt lat="47.245" lon="-1.64058">
        <ele>20.2</ele>
        <time>2012-10-28T07:39:43Z</time>
      </trkpt>
      <trkpt lat="47.24504" lon="-1.64064">
        <ele>20.5</ele>
        <time>2012-10-28T07:39:44Z</time>
      </trkpt>
      <trkpt lat="47.24506" lon="-1.64069">
        <ele>20.7</ele>
        <time>2012-10-28T07:39:45Z</time>
      </trkpt>
      <trkpt lat="47.24508" lon="-1.64075">
        <ele>21.1</ele>
        <time>2012-10-28T07:39:46Z</time>
      </trkpt>
      <trkpt lat="47.24523" lon="-1.64119">
        <ele>22.7</ele>
        <time>2012-10-28T07:39:54Z</time>
      </trkpt>
      <trkpt lat="47.24525" lon="-1.64124">
        <ele>23</ele>
        <time>2012-10-28T07:39:55Z</time>
      </trkpt>
      <trkpt lat="47.24553" lon="-1.64194">
        <ele>24.7</ele>
        <time>2012-10-28T07:40:08Z</time>
      </trkpt>
      <trkpt lat="47.24557" lon="-1.642">
        <ele>24.6</ele>
        <time>2012-10-28T07:40:09Z</time>
      </trkpt>
      <trkpt lat="47.24563" lon="-1.64212">
        <ele>24.4</ele>
        <time>2012-10-28T07:40:11Z</time>
      </trkpt>
      <trkpt lat="47.24564" lon="-1.64218">
        <ele>25</ele>
        <time>2012-10-28T07:40:12Z</time>
      </trkpt>
      <trkpt lat="47.2457" lon="-1.64238">
        <ele>24.8</ele>
        <time>2012-10-28T07:40:15Z</time>
      </trkpt>
      <trkpt lat="47.24573" lon="-1.64251">
        <ele>24.9</ele>
        <time>2012-10-28T07:40:17Z</time>
      </trkpt>
      <trkpt lat="47.24575" lon="-1.64257">
        <ele>25.1</ele>
        <time>2012-10-28T07:40:18Z</time>
      </trkpt>
      <trkpt lat="47.24587" lon="-1.64285">
        <ele>24.5</ele>
        <time>2012-10-28T07:40:22Z</time>
      </trkpt>
      <trkpt lat="47.24618" lon="-1.64352">
        <ele>24.5</ele>
        <time>2012-10-28T07:40:31Z</time>
      </trkpt>
      <trkpt lat="47.24621" lon="-1.64358">
        <ele>24.5</ele>
        <time>2012-10-28T07:40:32Z</time>
      </trkpt>
      <trkpt lat="47.24636" lon="-1.64382">
        <ele>23.8</ele>
        <time>2012-10-28T07:40:36Z</time>
      </trkpt>
      <trkpt lat="47.24639" lon="-1.6439">
        <ele>23.5</ele>
        <time>2012-10-28T07:40:37Z</time>
      </trkpt>
      <trkpt lat="47.24641" lon="-1.64397">
        <ele>23.8</ele>
        <time>2012-10-28T07:40:38Z</time>
      </trkpt>
      <trkpt lat="47.24644" lon="-1.64414">
        <ele>24.2</ele>
        <time>2012-10-28T07:40:40Z</time>
      </trkpt>
      <trkpt lat="47.24644" lon="-1.64423">
        <ele>23.9</ele>
        <time>2012-10-28T07:40:41Z</time>
      </trkpt>
      <trkpt lat="47.24643" lon="-1.64441">
        <ele>23.3</ele>
        <time>2012-10-28T07:40:43Z</time>
      </trkpt>
      <trkpt lat="47.24641" lon="-1.64459">
        <ele>23.1</ele>
        <time>2012-10-28T07:40:45Z</time>
      </trkpt>
      <trkpt lat="47.24639" lon="-1.64476">
        <ele>23.3</ele>
        <time>2012-10-28T07:40:47Z</time>
      </trkpt>
      <trkpt lat="47.2464" lon="-1.64485">
        <ele>22.8</ele>
        <time>2012-10-28T07:40:48Z</time>
      </trkpt>
      <trkpt lat="47.24642" lon="-1.64516">
        <ele>22.7</ele>
        <time>2012-10-28T07:40:52Z</time>
      </trkpt>
      <trkpt lat="47.24644" lon="-1.64523">
        <ele>23</ele>
        <time>2012-10-28T07:40:53Z</time>
      </trkpt>
      <trkpt lat="47.24647" lon="-1.64529">
        <ele>23.2</ele>
        <time>2012-10-28T07:40:54Z</time>
      </trkpt>
      <trkpt lat="47.24652" lon="-1.64535">
        <ele>23.2</ele>
        <time>2012-10-28T07:40:55Z</time>
      </trkpt>
      <trkpt lat="47.24656" lon="-1.64539">
        <ele>23.2</ele>
        <time>2012-10-28T07:40:56Z</time>
      </trkpt>
      <trkpt lat="47.24709" lon="-1.64606">
        <ele>23.9</ele>
        <time>2012-10-28T07:41:10Z</time>
      </trkpt>
      <trkpt lat="47.24713" lon="-1.64609">
        <ele>23.4</ele>
        <time>2012-10-28T07:41:11Z</time>
      </trkpt>
      <trkpt lat="47.24717" lon="-1.64612">
        <ele>23.1</ele>
        <time>2012-10-28T07:41:12Z</time>
      </trkpt>
      <trkpt lat="47.24722" lon="-1.64613">
        <ele>22.8</ele>
        <time>2012-10-28T07:41:13Z</time>
      </trkpt>
      <trkpt lat="47.24726" lon="-1.64614">
        <ele>22.9</ele>
        <time>2012-10-28T07:41:14Z</time>
      </trkpt>
      <trkpt lat="47.24744" lon="-1.64618">
        <ele>23.4</ele>
        <time>2012-10-28T07:41:18Z</time>
      </trkpt>
      <trkpt lat="47.24748" lon="-1.64618">
        <ele>23.2</ele>
        <time>2012-10-28T07:41:19Z</time>
      </trkpt>
      <trkpt lat="47.24752" lon="-1.64617">
        <ele>23</ele>
        <time>2012-10-28T07:41:20Z</time>
      </trkpt>
      <trkpt lat="47.24756" lon="-1.64615">
        <ele>22.9</ele>
        <time>2012-10-28T07:41:21Z</time>
      </trkpt>
      <trkpt lat="47.24774" lon="-1.64605">
        <ele>23.9</ele>
        <time>2012-10-28T07:41:27Z</time>
      </trkpt>
      <trkpt lat="47.24776" lon="-1.64604">
        <ele>24</ele>
        <time>2012-10-28T07:41:28Z</time>
      </trkpt>
      <trkpt lat="47.24786" lon="-1.64603">
        <ele>24.6</ele>
        <time>2012-10-28T07:41:31Z</time>
      </trkpt>
      <trkpt lat="47.24789" lon="-1.64603">
        <ele>24.7</ele>
        <time>2012-10-28T07:41:32Z</time>
      </trkpt>
      <trkpt lat="47.24792" lon="-1.64604">
        <ele>25.1</ele>
        <time>2012-10-28T07:41:33Z</time>
      </trkpt>
      <trkpt lat="47.24796" lon="-1.64603">
        <ele>25.4</ele>
        <time>2012-10-28T07:41:34Z</time>
      </trkpt>
      <trkpt lat="47.24799" lon="-1.64602">
        <ele>25.6</ele>
        <time>2012-10-28T07:41:35Z</time>
      </trkpt>
      <trkpt lat="47.24802" lon="-1.64603">
        <ele>25.7</ele>
        <time>2012-10-28T07:41:36Z</time>
      </trkpt>
      <trkpt lat="47.24805" lon="-1.64604">
        <ele>25.7</ele>
        <time>2012-10-28T07:41:37Z</time>
      </trkpt>
      <trkpt lat="47.24807" lon="-1.64606">
        <ele>25.6</ele>
        <time>2012-10-28T07:41:38Z</time>
      </trkpt>
      <trkpt lat="47.24809" lon="-1.64609">
        <ele>25.6</ele>
        <time>2012-10-28T07:41:39Z</time>
      </trkpt>
      <trkpt lat="47.24812" lon="-1.64614">
        <ele>25.7</ele>
        <time>2012-10-28T07:41:40Z</time>
      </trkpt>
      <trkpt lat="47.24812" lon="-1.64619">
        <ele>25.8</ele>
        <time>2012-10-28T07:41:41Z</time>
      </trkpt>
      <trkpt lat="47.24813" lon="-1.64627">
        <ele>25</ele>
        <time>2012-10-28T07:41:43Z</time>
      </trkpt>
      <trkpt lat="47.24814" lon="-1.6463">
        <ele>24.7</ele>
        <time>2012-10-28T07:41:44Z</time>
      </trkpt>
      <trkpt lat="47.24815" lon="-1.64635">
        <ele>24.6</ele>
        <time>2012-10-28T07:41:46Z</time>
      </trkpt>
      <trkpt lat="47.24816" lon="-1.64636">
        <ele>24.9</ele>
        <time>2012-10-28T07:41:47Z</time>
      </trkpt>
      <trkpt lat="47.24818" lon="-1.64637">
        <ele>25.1</ele>
        <time>2012-10-28T07:41:48Z</time>
      </trkpt>
      <trkpt lat="47.24819" lon="-1.64637">
        <ele>25.1</ele>
        <time>2012-10-28T07:41:49Z</time>
      </trkpt>
      <trkpt lat="47.24822" lon="-1.64637">
        <ele>25.2</ele>
        <time>2012-10-28T07:41:50Z</time>
      </trkpt>
      <trkpt lat="47.24827" lon="-1.64637">
        <ele>25.6</ele>
        <time>2012-10-28T07:41:52Z</time>
      </trkpt>
      <trkpt lat="47.24927" lon="-1.64625">
        <ele>31.4</ele>
        <time>2012-10-28T07:42:26Z</time>
      </trkpt>
      <trkpt lat="47.24931" lon="-1.64624">
        <ele>31.8</ele>
        <time>2012-10-28T07:42:27Z</time>
      </trkpt>
      <trkpt lat="47.24969" lon="-1.64616">
        <ele>34.6</ele>
        <time>2012-10-28T07:42:37Z</time>
      </trkpt>
      <trkpt lat="47.24984" lon="-1.64608">
        <ele>36.1</ele>
        <time>2012-10-28T07:42:42Z</time>
      </trkpt>
      <trkpt lat="47.24993" lon="-1.64603">
        <ele>36.3</ele>
        <time>2012-10-28T07:42:45Z</time>
      </trkpt>
      <trkpt lat="47.25004" lon="-1.64596">
        <ele>37.4</ele>
        <time>2012-10-28T07:42:49Z</time>
      </trkpt>
      <trkpt lat="47.25006" lon="-1.64593">
        <ele>37.4</ele>
        <time>2012-10-28T07:42:50Z</time>
      </trkpt>
      <trkpt lat="47.25075" lon="-1.6453">
        <ele>42.1</ele>
        <time>2012-10-28T07:43:20Z</time>
      </trkpt>
      <trkpt lat="47.25077" lon="-1.64528">
        <ele>42.4</ele>
        <time>2012-10-28T07:43:21Z</time>
      </trkpt>
      <trkpt lat="47.2508" lon="-1.64527">
        <ele>42.8</ele>
        <time>2012-10-28T07:43:22Z</time>
      </trkpt>
      <trkpt lat="47.25082" lon="-1.64527">
        <ele>43.2</ele>
        <time>2012-10-28T07:43:23Z</time>
      </trkpt>
      <trkpt lat="47.25085" lon="-1.64527">
        <ele>43.3</ele>
        <time>2012-10-28T07:43:24Z</time>
      </trkpt>
      <trkpt lat="47.25087" lon="-1.64528">
        <ele>43.4</ele>
        <time>2012-10-28T07:43:25Z</time>
      </trkpt>
      <trkpt lat="47.2509" lon="-1.64531">
        <ele>43.5</ele>
        <time>2012-10-28T07:43:26Z</time>
      </trkpt>
      <trkpt lat="47.25091" lon="-1.64534">
        <ele>43.4</ele>
        <time>2012-10-28T07:43:27Z</time>
      </trkpt>
      <trkpt lat="47.25092" lon="-1.64538">
        <ele>43.3</ele>
        <time>2012-10-28T07:43:28Z</time>
      </trkpt>
      <trkpt lat="47.25093" lon="-1.64543">
        <ele>43.6</ele>
        <time>2012-10-28T07:43:29Z</time>
      </trkpt>
      <trkpt lat="47.25095" lon="-1.64552">
        <ele>43.9</ele>
        <time>2012-10-28T07:43:31Z</time>
      </trkpt>
      <trkpt lat="47.251" lon="-1.64593">
        <ele>44.4</ele>
        <time>2012-10-28T07:43:38Z</time>
      </trkpt>
      <trkpt lat="47.25101" lon="-1.64605">
        <ele>44.5</ele>
        <time>2012-10-28T07:43:40Z</time>
      </trkpt>
      <trkpt lat="47.25101" lon="-1.6464">
        <ele>44.5</ele>
        <time>2012-10-28T07:43:46Z</time>
      </trkpt>
      <trkpt lat="47.251" lon="-1.64646">
        <ele>44.8</ele>
        <time>2012-10-28T07:43:47Z</time>
      </trkpt>
      <trkpt lat="47.25099" lon="-1.64651">
        <ele>44.6</ele>
        <time>2012-10-28T07:43:48Z</time>
      </trkpt>
      <trkpt lat="47.25097" lon="-1.64663">
        <ele>44.8</ele>
        <time>2012-10-28T07:43:50Z</time>
      </trkpt>
      <trkpt lat="47.25096" lon="-1.64676">
        <ele>45.2</ele>
        <time>2012-10-28T07:43:52Z</time>
      </trkpt>
      <trkpt lat="47.25085" lon="-1.64773">
        <ele>42.7</ele>
        <time>2012-10-28T07:44:04Z</time>
      </trkpt>
      <trkpt lat="47.2508" lon="-1.64803">
        <ele>41</ele>
        <time>2012-10-28T07:44:08Z</time>
      </trkpt>
      <trkpt lat="47.25081" lon="-1.64808">
        <ele>40.7</ele>
        <time>2012-10-28T07:44:09Z</time>
      </trkpt>
      <trkpt lat="47.25083" lon="-1.64811">
        <ele>40.4</ele>
        <time>2012-10-28T07:44:10Z</time>
      </trkpt>
      <trkpt lat="47.25085" lon="-1.64814">
        <ele>40.2</ele>
        <time>2012-10-28T07:44:11Z</time>
      </trkpt>
      <trkpt lat="47.25087" lon="-1.64816">
        <ele>39.9</ele>
        <time>2012-10-28T07:44:12Z</time>
      </trkpt>
      <trkpt lat="47.2509" lon="-1.64817">
        <ele>39.7</ele>
        <time>2012-10-28T07:44:13Z</time>
      </trkpt>
      <trkpt lat="47.25092" lon="-1.64819">
        <ele>39.5</ele>
        <time>2012-10-28T07:44:14Z</time>
      </trkpt>
      <trkpt lat="47.25094" lon="-1.64821">
        <ele>39.4</ele>
        <time>2012-10-28T07:44:15Z</time>
      </trkpt>
      <trkpt lat="47.25094" lon="-1.64823">
        <ele>39.3</ele>
        <time>2012-10-28T07:44:16Z</time>
      </trkpt>
      <trkpt lat="47.25096" lon="-1.64826">
        <ele>39.1</ele>
        <time>2012-10-28T07:44:18Z</time>
      </trkpt>
      <trkpt lat="47.25098" lon="-1.6483">
        <ele>39.4</ele>
        <time>2012-10-28T07:44:20Z</time>
      </trkpt>
      <trkpt lat="47.25099" lon="-1.64832">
        <ele>39.8</ele>
        <time>2012-10-28T07:44:21Z</time>
      </trkpt>
      <trkpt lat="47.251" lon="-1.64833">
        <ele>40.2</ele>
        <time>2012-10-28T07:44:22Z</time>
      </trkpt>
      <trkpt lat="47.25101" lon="-1.64834">
        <ele>40.4</ele>
        <time>2012-10-28T07:44:23Z</time>
      </trkpt>
      <trkpt lat="47.25102" lon="-1.64836">
        <ele>40.7</ele>
        <time>2012-10-28T07:44:24Z</time>
      </trkpt>
      <trkpt lat="47.25104" lon="-1.64838">
        <ele>40.8</ele>
        <time>2012-10-28T07:44:25Z</time>
      </trkpt>
      <trkpt lat="47.25105" lon="-1.6484">
        <ele>41</ele>
        <time>2012-10-28T07:44:26Z</time>
      </trkpt>
      <trkpt lat="47.25137" lon="-1.64868">
        <ele>44</ele>
        <time>2012-10-28T07:44:41Z</time>
      </trkpt>
      <trkpt lat="47.25139" lon="-1.64871">
        <ele>44.1</ele>
        <time>2012-10-28T07:44:42Z</time>
      </trkpt>
      <trkpt lat="47.25147" lon="-1.64885">
        <ele>44.2</ele>
        <time>2012-10-28T07:44:46Z</time>
      </trkpt>
      <trkpt lat="47.25149" lon="-1.64888">
        <ele>44.3</ele>
        <time>2012-10-28T07:44:47Z</time>
      </trkpt>
      <trkpt lat="47.25151" lon="-1.64891">
        <ele>44.4</ele>
        <time>2012-10-28T07:44:48Z</time>
      </trkpt>
      <trkpt lat="47.25153" lon="-1.64898">
        <ele>44.7</ele>
        <time>2012-10-28T07:44:50Z</time>
      </trkpt>
      <trkpt lat="47.25155" lon="-1.64906">
        <ele>45.1</ele>
        <time>2012-10-28T07:44:52Z</time>
      </trkpt>
      <trkpt lat="47.25161" lon="-1.64934">
        <ele>46.2</ele>
        <time>2012-10-28T07:44:58Z</time>
      </trkpt>
      <trkpt lat="47.25164" lon="-1.64943">
        <ele>46.2</ele>
        <time>2012-10-28T07:45:00Z</time>
      </trkpt>
      <trkpt lat="47.25165" lon="-1.64948">
        <ele>46.3</ele>
        <time>2012-10-28T07:45:01Z</time>
      </trkpt>
      <trkpt lat="47.25165" lon="-1.64953">
        <ele>46.4</ele>
        <time>2012-10-28T07:45:02Z</time>
      </trkpt>
      <trkpt lat="47.25165" lon="-1.64977">
        <ele>46.9</ele>
        <time>2012-10-28T07:45:06Z</time>
      </trkpt>
      <trkpt lat="47.25168" lon="-1.651">
        <ele>46.2</ele>
        <time>2012-10-28T07:45:24Z</time>
      </trkpt>
      <trkpt lat="47.25168" lon="-1.65107">
        <ele>46.4</ele>
        <time>2012-10-28T07:45:25Z</time>
      </trkpt>
      <trkpt lat="47.25166" lon="-1.65121">
        <ele>46.6</ele>
        <time>2012-10-28T07:45:27Z</time>
      </trkpt>
      <trkpt lat="47.25158" lon="-1.65171">
        <ele>45.8</ele>
        <time>2012-10-28T07:45:34Z</time>
      </trkpt>
      <trkpt lat="47.25155" lon="-1.65185">
        <ele>45.4</ele>
        <time>2012-10-28T07:45:36Z</time>
      </trkpt>
      <trkpt lat="47.25155" lon="-1.65194">
        <ele>45.1</ele>
        <time>2012-10-28T07:45:37Z</time>
      </trkpt>
      <trkpt lat="47.25156" lon="-1.65202">
        <ele>45</ele>
        <time>2012-10-28T07:45:38Z</time>
      </trkpt>
      <trkpt lat="47.25158" lon="-1.65211">
        <ele>44.8</ele>
        <time>2012-10-28T07:45:39Z</time>
      </trkpt>
      <trkpt lat="47.2516" lon="-1.6522">
        <ele>44.3</ele>
        <time>2012-10-28T07:45:40Z</time>
      </trkpt>
      <trkpt lat="47.25162" lon="-1.65229">
        <ele>43.9</ele>
        <time>2012-10-28T07:45:41Z</time>
      </trkpt>
      <trkpt lat="47.25162" lon="-1.65239">
        <ele>43.7</ele>
        <time>2012-10-28T07:45:42Z</time>
      </trkpt>
      <trkpt lat="47.25163" lon="-1.65249">
        <ele>43.5</ele>
        <time>2012-10-28T07:45:43Z</time>
      </trkpt>
      <trkpt lat="47.25162" lon="-1.65258">
        <ele>43.6</ele>
        <time>2012-10-28T07:45:44Z</time>
      </trkpt>
      <trkpt lat="47.25161" lon="-1.65277">
        <ele>43.6</ele>
        <time>2012-10-28T07:45:46Z</time>
      </trkpt>
      <trkpt lat="47.25159" lon="-1.65286">
        <ele>42.8</ele>
        <time>2012-10-28T07:45:47Z</time>
      </trkpt>
      <trkpt lat="47.25155" lon="-1.65306">
        <ele>41.8</ele>
        <time>2012-10-28T07:45:49Z</time>
      </trkpt>
      <trkpt lat="47.25148" lon="-1.65335">
        <ele>40.9</ele>
        <time>2012-10-28T07:45:52Z</time>
      </trkpt>
      <trkpt lat="47.25137" lon="-1.65376">
        <ele>39.3</ele>
        <time>2012-10-28T07:45:56Z</time>
      </trkpt>
      <trkpt lat="47.25133" lon="-1.65385">
        <ele>38.9</ele>
        <time>2012-10-28T07:45:57Z</time>
      </trkpt>
      <trkpt lat="47.25116" lon="-1.65423">
        <ele>37.4</ele>
        <time>2012-10-28T07:46:01Z</time>
      </trkpt>
      <trkpt lat="47.25114" lon="-1.65434">
        <ele>37.3</ele>
        <time>2012-10-28T07:46:02Z</time>
      </trkpt>
      <trkpt lat="47.25112" lon="-1.65445">
        <ele>37.2</ele>
        <time>2012-10-28T07:46:03Z</time>
      </trkpt>
      <trkpt lat="47.25102" lon="-1.65513">
        <ele>35.3</ele>
        <time>2012-10-28T07:46:09Z</time>
      </trkpt>
      <trkpt lat="47.25099" lon="-1.65525">
        <ele>34.6</ele>
        <time>2012-10-28T07:46:10Z</time>
      </trkpt>
      <trkpt lat="47.25083" lon="-1.65573">
        <ele>32.2</ele>
        <time>2012-10-28T07:46:14Z</time>
      </trkpt>
      <trkpt lat="47.25081" lon="-1.65586">
        <ele>31.2</ele>
        <time>2012-10-28T07:46:15Z</time>
      </trkpt>
      <trkpt lat="47.25075" lon="-1.65619">
        <ele>29.4</ele>
        <time>2012-10-28T07:46:18Z</time>
      </trkpt>
      <trkpt lat="47.25074" lon="-1.65629">
        <ele>29.1</ele>
        <time>2012-10-28T07:46:19Z</time>
      </trkpt>
      <trkpt lat="47.25074" lon="-1.65637">
        <ele>29</ele>
        <time>2012-10-28T07:46:20Z</time>
      </trkpt>
      <trkpt lat="47.25076" lon="-1.65645">
        <ele>28.9</ele>
        <time>2012-10-28T07:46:21Z</time>
      </trkpt>
      <trkpt lat="47.25078" lon="-1.6565">
        <ele>29.3</ele>
        <time>2012-10-28T07:46:22Z</time>
      </trkpt>
      <trkpt lat="47.25081" lon="-1.65653">
        <ele>29.7</ele>
        <time>2012-10-28T07:46:23Z</time>
      </trkpt>
      <trkpt lat="47.25085" lon="-1.65655">
        <ele>29.9</ele>
        <time>2012-10-28T07:46:24Z</time>
      </trkpt>
      <trkpt lat="47.25114" lon="-1.65672">
        <ele>32.1</ele>
        <time>2012-10-28T07:46:33Z</time>
      </trkpt>
      <trkpt lat="47.25142" lon="-1.65684">
        <ele>34.7</ele>
        <time>2012-10-28T07:46:42Z</time>
      </trkpt>
      <trkpt lat="47.25161" lon="-1.65691">
        <ele>35.9</ele>
        <time>2012-10-28T07:46:48Z</time>
      </trkpt>
      <trkpt lat="47.25164" lon="-1.65693">
        <ele>36.1</ele>
        <time>2012-10-28T07:46:49Z</time>
      </trkpt>
      <trkpt lat="47.25167" lon="-1.65696">
        <ele>36.2</ele>
        <time>2012-10-28T07:46:50Z</time>
      </trkpt>
      <trkpt lat="47.25169" lon="-1.657">
        <ele>36.5</ele>
        <time>2012-10-28T07:46:51Z</time>
      </trkpt>
      <trkpt lat="47.25171" lon="-1.65704">
        <ele>36.8</ele>
        <time>2012-10-28T07:46:52Z</time>
      </trkpt>
      <trkpt lat="47.25173" lon="-1.65709">
        <ele>37.1</ele>
        <time>2012-10-28T07:46:53Z</time>
      </trkpt>
      <trkpt lat="47.25174" lon="-1.65714">
        <ele>37.3</ele>
        <time>2012-10-28T07:46:54Z</time>
      </trkpt>
      <trkpt lat="47.25175" lon="-1.65719">
        <ele>37.8</ele>
        <time>2012-10-28T07:46:55Z</time>
      </trkpt>
      <trkpt lat="47.25178" lon="-1.65727">
        <ele>38.5</ele>
        <time>2012-10-28T07:46:57Z</time>
      </trkpt>
      <trkpt lat="47.25182" lon="-1.6574">
        <ele>39.1</ele>
        <time>2012-10-28T07:47:00Z</time>
      </trkpt>
      <trkpt lat="47.25198" lon="-1.65786">
        <ele>39.8</ele>
        <time>2012-10-28T07:47:10Z</time>
      </trkpt>
      <trkpt lat="47.2521" lon="-1.6583">
        <ele>40.5</ele>
        <time>2012-10-28T07:47:18Z</time>
      </trkpt>
      <trkpt lat="47.25222" lon="-1.6587">
        <ele>40.8</ele>
        <time>2012-10-28T07:47:25Z</time>
      </trkpt>
      <trkpt lat="47.25226" lon="-1.65881">
        <ele>40.4</ele>
        <time>2012-10-28T07:47:27Z</time>
      </trkpt>
      <trkpt lat="47.25258" lon="-1.65966">
        <ele>43.2</ele>
        <time>2012-10-28T07:47:43Z</time>
      </trkpt>
      <trkpt lat="47.25265" lon="-1.65981">
        <ele>43.5</ele>
        <time>2012-10-28T07:47:46Z</time>
      </trkpt>
      <trkpt lat="47.2532" lon="-1.66082">
        <ele>43.2</ele>
        <time>2012-10-28T07:48:06Z</time>
      </trkpt>
      <trkpt lat="47.25321" lon="-1.66088">
        <ele>43.2</ele>
        <time>2012-10-28T07:48:07Z</time>
      </trkpt>
      <trkpt lat="47.25322" lon="-1.66094">
        <ele>43.3</ele>
        <time>2012-10-28T07:48:08Z</time>
      </trkpt>
      <trkpt lat="47.25322" lon="-1.661">
        <ele>42.8</ele>
        <time>2012-10-28T07:48:09Z</time>
      </trkpt>
      <trkpt lat="47.25321" lon="-1.66107">
        <ele>42.4</ele>
        <time>2012-10-28T07:48:10Z</time>
      </trkpt>
      <trkpt lat="47.25319" lon="-1.66119">
        <ele>42.4</ele>
        <time>2012-10-28T07:48:12Z</time>
      </trkpt>
      <trkpt lat="47.2532" lon="-1.66124">
        <ele>42.4</ele>
        <time>2012-10-28T07:48:13Z</time>
      </trkpt>
      <trkpt lat="47.25322" lon="-1.66133">
        <ele>43.1</ele>
        <time>2012-10-28T07:48:15Z</time>
      </trkpt>
      <trkpt lat="47.25322" lon="-1.66139">
        <ele>42.7</ele>
        <time>2012-10-28T07:48:16Z</time>
      </trkpt>
      <trkpt lat="47.25323" lon="-1.66289">
        <ele>41.1</ele>
        <time>2012-10-28T07:48:37Z</time>
      </trkpt>
      <trkpt lat="47.25323" lon="-1.66296">
        <ele>41</ele>
        <time>2012-10-28T07:48:38Z</time>
      </trkpt>
      <trkpt lat="47.25326" lon="-1.6634">
        <ele>40</ele>
        <time>2012-10-28T07:48:45Z</time>
      </trkpt>
      <trkpt lat="47.25326" lon="-1.66358">
        <ele>41.1</ele>
        <time>2012-10-28T07:48:48Z</time>
      </trkpt>
      <trkpt lat="47.25327" lon="-1.66461">
        <ele>38.6</ele>
        <time>2012-10-28T07:49:03Z</time>
      </trkpt>
      <trkpt lat="47.25328" lon="-1.6647">
        <ele>38.4</ele>
        <time>2012-10-28T07:49:04Z</time>
      </trkpt>
      <trkpt lat="47.2533" lon="-1.66486">
        <ele>37.6</ele>
        <time>2012-10-28T07:49:06Z</time>
      </trkpt>
      <trkpt lat="47.2533" lon="-1.66492">
        <ele>37</ele>
        <time>2012-10-28T07:49:07Z</time>
      </trkpt>
      <trkpt lat="47.2533" lon="-1.66496">
        <ele>36.7</ele>
        <time>2012-10-28T07:49:08Z</time>
      </trkpt>
      <trkpt lat="47.2533" lon="-1.665">
        <ele>36.5</ele>
        <time>2012-10-28T07:49:09Z</time>
      </trkpt>
      <trkpt lat="47.25332" lon="-1.66501">
        <ele>36.3</ele>
        <time>2012-10-28T07:49:10Z</time>
      </trkpt>
      <trkpt lat="47.25333" lon="-1.66501">
        <ele>36.1</ele>
        <time>2012-10-28T07:49:11Z</time>
      </trkpt>
      <trkpt lat="47.25332" lon="-1.66501">
        <ele>36</ele>
        <time>2012-10-28T07:49:13Z</time>
      </trkpt>
      <trkpt lat="47.25331" lon="-1.665">
        <ele>36</ele>
        <time>2012-10-28T07:49:14Z</time>
      </trkpt>
      <trkpt lat="47.2533" lon="-1.66501">
        <ele>36</ele>
        <time>2012-10-28T07:49:15Z</time>
      </trkpt>
      <trkpt lat="47.2533" lon="-1.66502">
        <ele>36</ele>
        <time>2012-10-28T07:49:16Z</time>
      </trkpt>
      <trkpt lat="47.25331" lon="-1.66504">
        <ele>36</ele>
        <time>2012-10-28T07:49:17Z</time>
      </trkpt>
      <trkpt lat="47.25333" lon="-1.66504">
        <ele>36.1</ele>
        <time>2012-10-28T07:49:18Z</time>
      </trkpt>
      <trkpt lat="47.25335" lon="-1.66503">
        <ele>36.1</ele>
        <time>2012-10-28T07:49:19Z</time>
      </trkpt>
      <trkpt lat="47.25335" lon="-1.66503">
        <ele>36.4</ele>
        <time>2012-10-28T07:49:20Z</time>
      </trkpt>
      <trkpt lat="47.25335" lon="-1.66502">
        <ele>36.7</ele>
        <time>2012-10-28T07:49:21Z</time>
      </trkpt>
      <trkpt lat="47.25336" lon="-1.66502">
        <ele>36.9</ele>
        <time>2012-10-28T07:49:22Z</time>
      </trkpt>
      <trkpt lat="47.2534" lon="-1.665">
        <ele>37.2</ele>
        <time>2012-10-28T07:49:24Z</time>
      </trkpt>
      <trkpt lat="47.25343" lon="-1.66498">
        <ele>37.8</ele>
        <time>2012-10-28T07:49:25Z</time>
      </trkpt>
      <trkpt lat="47.25365" lon="-1.66492">
        <ele>38.5</ele>
        <time>2012-10-28T07:49:31Z</time>
      </trkpt>
      <trkpt lat="47.25391" lon="-1.66485">
        <ele>39</ele>
        <time>2012-10-28T07:49:38Z</time>
      </trkpt>
      <trkpt lat="47.25394" lon="-1.66483">
        <ele>39.8</ele>
        <time>2012-10-28T07:49:39Z</time>
      </trkpt>
      <trkpt lat="47.25417" lon="-1.66466">
        <ele>41</ele>
        <time>2012-10-28T07:49:46Z</time>
      </trkpt>
      <trkpt lat="47.2542" lon="-1.66462">
        <ele>41</ele>
        <time>2012-10-28T07:49:47Z</time>
      </trkpt>
      <trkpt lat="47.25469" lon="-1.66403">
        <ele>44.2</ele>
        <time>2012-10-28T07:50:02Z</time>
      </trkpt>
      <trkpt lat="47.25472" lon="-1.66398">
        <ele>43.8</ele>
        <time>2012-10-28T07:50:03Z</time>
      </trkpt>
      <trkpt lat="47.25488" lon="-1.66374">
        <ele>43.9</ele>
        <time>2012-10-28T07:50:09Z</time>
      </trkpt>
      <trkpt lat="47.2549" lon="-1.66371">
        <ele>43.9</ele>
        <time>2012-10-28T07:50:10Z</time>
      </trkpt>
      <trkpt lat="47.25494" lon="-1.6637">
        <ele>43.9</ele>
        <time>2012-10-28T07:50:11Z</time>
      </trkpt>
      <trkpt lat="47.25498" lon="-1.66369">
        <ele>44.3</ele>
        <time>2012-10-28T07:50:13Z</time>
      </trkpt>
      <trkpt lat="47.255" lon="-1.66366">
        <ele>44.4</ele>
        <time>2012-10-28T07:50:14Z</time>
      </trkpt>
      <trkpt lat="47.25502" lon="-1.66363">
        <ele>44.7</ele>
        <time>2012-10-28T07:50:15Z</time>
      </trkpt>
      <trkpt lat="47.25504" lon="-1.66359">
        <ele>45</ele>
        <time>2012-10-28T07:50:16Z</time>
      </trkpt>
      <trkpt lat="47.2551" lon="-1.66345">
        <ele>44.5</ele>
        <time>2012-10-28T07:50:19Z</time>
      </trkpt>
      <trkpt lat="47.25538" lon="-1.66288">
        <ele>46</ele>
        <time>2012-10-28T07:50:32Z</time>
      </trkpt>
      <trkpt lat="47.25543" lon="-1.66277">
        <ele>46.5</ele>
        <time>2012-10-28T07:50:35Z</time>
      </trkpt>
      <trkpt lat="47.25552" lon="-1.66261">
        <ele>46.8</ele>
        <time>2012-10-28T07:50:39Z</time>
      </trkpt>
      <trkpt lat="47.25568" lon="-1.6623">
        <ele>47</ele>
        <time>2012-10-28T07:50:46Z</time>
      </trkpt>
      <trkpt lat="47.25571" lon="-1.66225">
        <ele>47.2</ele>
        <time>2012-10-28T07:50:47Z</time>
      </trkpt>
      <trkpt lat="47.25575" lon="-1.6622">
        <ele>47.3</ele>
        <time>2012-10-28T07:50:48Z</time>
      </trkpt>
      <trkpt lat="47.25577" lon="-1.66216">
        <ele>47.4</ele>
        <time>2012-10-28T07:50:49Z</time>
      </trkpt>
      <trkpt lat="47.25581" lon="-1.66208">
        <ele>47.2</ele>
        <time>2012-10-28T07:50:51Z</time>
      </trkpt>
      <trkpt lat="47.25582" lon="-1.66204">
        <ele>47.2</ele>
        <time>2012-10-28T07:50:52Z</time>
      </trkpt>
      <trkpt lat="47.25585" lon="-1.66195">
        <ele>47.7</ele>
        <time>2012-10-28T07:50:54Z</time>
      </trkpt>
      <trkpt lat="47.25589" lon="-1.66186">
        <ele>48</ele>
        <time>2012-10-28T07:50:56Z</time>
      </trkpt>
      <trkpt lat="47.25592" lon="-1.66181">
        <ele>48.2</ele>
        <time>2012-10-28T07:50:57Z</time>
      </trkpt>
      <trkpt lat="47.256" lon="-1.66167">
        <ele>48.5</ele>
        <time>2012-10-28T07:51:00Z</time>
      </trkpt>
      <trkpt lat="47.25627" lon="-1.66107">
        <ele>51</ele>
        <time>2012-10-28T07:51:14Z</time>
      </trkpt>
      <trkpt lat="47.25629" lon="-1.66103">
        <ele>51.1</ele>
        <time>2012-10-28T07:51:15Z</time>
      </trkpt>
      <trkpt lat="47.25783" lon="-1.65801">
        <ele>56.3</ele>
        <time>2012-10-28T07:52:22Z</time>
      </trkpt>
      <trkpt lat="47.25784" lon="-1.65797">
        <ele>56.3</ele>
        <time>2012-10-28T07:52:23Z</time>
      </trkpt>
      <trkpt lat="47.25831" lon="-1.65699">
        <ele>57.8</ele>
        <time>2012-10-28T07:52:46Z</time>
      </trkpt>
      <trkpt lat="47.25857" lon="-1.65644">
        <ele>60</ele>
        <time>2012-10-28T07:52:59Z</time>
      </trkpt>
      <trkpt lat="47.25859" lon="-1.65639">
        <ele>60.3</ele>
        <time>2012-10-28T07:53:00Z</time>
      </trkpt>
      <trkpt lat="47.25867" lon="-1.65626">
        <ele>59.9</ele>
        <time>2012-10-28T07:53:03Z</time>
      </trkpt>
      <trkpt lat="47.25918" lon="-1.65534">
        <ele>62.2</ele>
        <time>2012-10-28T07:53:22Z</time>
      </trkpt>
      <trkpt lat="47.25919" lon="-1.6553">
        <ele>62.7</ele>
        <time>2012-10-28T07:53:23Z</time>
      </trkpt>
      <trkpt lat="47.2592" lon="-1.65526">
        <ele>63.1</ele>
        <time>2012-10-28T07:53:24Z</time>
      </trkpt>
      <trkpt lat="47.2592" lon="-1.65523">
        <ele>63</ele>
        <time>2012-10-28T07:53:25Z</time>
      </trkpt>
      <trkpt lat="47.2592" lon="-1.65518">
        <ele>63</ele>
        <time>2012-10-28T07:53:27Z</time>
      </trkpt>
      <trkpt lat="47.25922" lon="-1.65516">
        <ele>62.9</ele>
        <time>2012-10-28T07:53:28Z</time>
      </trkpt>
      <trkpt lat="47.25923" lon="-1.65516">
        <ele>63.3</ele>
        <time>2012-10-28T07:53:29Z</time>
      </trkpt>
      <trkpt lat="47.25925" lon="-1.65517">
        <ele>63.5</ele>
        <time>2012-10-28T07:53:30Z</time>
      </trkpt>
      <trkpt lat="47.25927" lon="-1.65517">
        <ele>63.7</ele>
        <time>2012-10-28T07:53:31Z</time>
      </trkpt>
      <trkpt lat="47.25929" lon="-1.65515">
        <ele>63.8</ele>
        <time>2012-10-28T07:53:32Z</time>
      </trkpt>
      <trkpt lat="47.25931" lon="-1.65511">
        <ele>63.9</ele>
        <time>2012-10-28T07:53:33Z</time>
      </trkpt>
      <trkpt lat="47.2594" lon="-1.65485">
        <ele>63.4</ele>
        <time>2012-10-28T07:53:39Z</time>
      </trkpt>
      <trkpt lat="47.2594" lon="-1.6548">
        <ele>63.5</ele>
        <time>2012-10-28T07:53:40Z</time>
      </trkpt>
      <trkpt lat="47.2594" lon="-1.65475">
        <ele>63.9</ele>
        <time>2012-10-28T07:53:41Z</time>
      </trkpt>
      <trkpt lat="47.25939" lon="-1.65459">
        <ele>63.8</ele>
        <time>2012-10-28T07:53:45Z</time>
      </trkpt>
      <trkpt lat="47.25939" lon="-1.65455">
        <ele>63.4</ele>
        <time>2012-10-28T07:53:46Z</time>
      </trkpt>
      <trkpt lat="47.25939" lon="-1.6545">
        <ele>63.1</ele>
        <time>2012-10-28T07:53:47Z</time>
      </trkpt>
      <trkpt lat="47.25939" lon="-1.65445">
        <ele>63.2</ele>
        <time>2012-10-28T07:53:48Z</time>
      </trkpt>
      <trkpt lat="47.25938" lon="-1.65438">
        <ele>63.2</ele>
        <time>2012-10-28T07:53:49Z</time>
      </trkpt>
      <trkpt lat="47.25936" lon="-1.65432">
        <ele>63.2</ele>
        <time>2012-10-28T07:53:50Z</time>
      </trkpt>
      <trkpt lat="47.2593" lon="-1.65412">
        <ele>63.9</ele>
        <time>2012-10-28T07:53:53Z</time>
      </trkpt>
      <trkpt lat="47.25929" lon="-1.65405">
        <ele>63.9</ele>
        <time>2012-10-28T07:53:54Z</time>
      </trkpt>
      <trkpt lat="47.25931" lon="-1.65398">
        <ele>63.8</ele>
        <time>2012-10-28T07:53:55Z</time>
      </trkpt>
      <trkpt lat="47.25934" lon="-1.65392">
        <ele>63.8</ele>
        <time>2012-10-28T07:53:56Z</time>
      </trkpt>
      <trkpt lat="47.25938" lon="-1.65388">
        <ele>63.7</ele>
        <time>2012-10-28T07:53:57Z</time>
      </trkpt>
      <trkpt lat="47.25942" lon="-1.65385">
        <ele>63.9</ele>
        <time>2012-10-28T07:53:58Z</time>
      </trkpt>
      <trkpt lat="47.25947" lon="-1.65384">
        <ele>64</ele>
        <time>2012-10-28T07:53:59Z</time>
      </trkpt>
      <trkpt lat="47.25956" lon="-1.65381">
        <ele>64.1</ele>
        <time>2012-10-28T07:54:01Z</time>
      </trkpt>
      <trkpt lat="47.2596" lon="-1.65378">
        <ele>64.1</ele>
        <time>2012-10-28T07:54:02Z</time>
      </trkpt>
      <trkpt lat="47.25968" lon="-1.65373">
        <ele>64.3</ele>
        <time>2012-10-28T07:54:04Z</time>
      </trkpt>
      <trkpt lat="47.2598" lon="-1.65363">
        <ele>64.5</ele>
        <time>2012-10-28T07:54:07Z</time>
      </trkpt>
      <trkpt lat="47.25987" lon="-1.65356">
        <ele>64.5</ele>
        <time>2012-10-28T07:54:09Z</time>
      </trkpt>
      <trkpt lat="47.2599" lon="-1.65352">
        <ele>64.5</ele>
        <time>2012-10-28T07:54:10Z</time>
      </trkpt>
      <trkpt lat="47.25994" lon="-1.65347">
        <ele>64.6</ele>
        <time>2012-10-28T07:54:11Z</time>
      </trkpt>
      <trkpt lat="47.25997" lon="-1.65342">
        <ele>64.7</ele>
        <time>2012-10-28T07:54:12Z</time>
      </trkpt>
      <trkpt lat="47.26014" lon="-1.65309">
        <ele>64.3</ele>
        <time>2012-10-28T07:54:18Z</time>
      </trkpt>
      <trkpt lat="47.26018" lon="-1.65304">
        <ele>64.2</ele>
        <time>2012-10-28T07:54:19Z</time>
      </trkpt>
      <trkpt lat="47.26022" lon="-1.653">
        <ele>64.1</ele>
        <time>2012-10-28T07:54:20Z</time>
      </trkpt>
      <trkpt lat="47.26027" lon="-1.65296">
        <ele>64</ele>
        <time>2012-10-28T07:54:21Z</time>
      </trkpt>
      <trkpt lat="47.26042" lon="-1.65288">
        <ele>63.8</ele>
        <time>2012-10-28T07:54:24Z</time>
      </trkpt>
      <trkpt lat="47.26047" lon="-1.65286">
        <ele>63.7</ele>
        <time>2012-10-28T07:54:25Z</time>
      </trkpt>
      <trkpt lat="47.26192" lon="-1.65229">
        <ele>63</ele>
        <time>2012-10-28T07:54:55Z</time>
      </trkpt>
      <trkpt lat="47.26197" lon="-1.65228">
        <ele>62.8</ele>
        <time>2012-10-28T07:54:56Z</time>
      </trkpt>
      <trkpt lat="47.26201" lon="-1.65228">
        <ele>62.8</ele>
        <time>2012-10-28T07:54:57Z</time>
      </trkpt>
      <trkpt lat="47.26211" lon="-1.6523">
        <ele>62.7</ele>
        <time>2012-10-28T07:54:59Z</time>
      </trkpt>
      <trkpt lat="47.26215" lon="-1.65231">
        <ele>63.2</ele>
        <time>2012-10-28T07:55:00Z</time>
      </trkpt>
      <trkpt lat="47.2622" lon="-1.65233">
        <ele>63.6</ele>
        <time>2012-10-28T07:55:01Z</time>
      </trkpt>
      <trkpt lat="47.26229" lon="-1.65238">
        <ele>63.5</ele>
        <time>2012-10-28T07:55:03Z</time>
      </trkpt>
      <trkpt lat="47.26233" lon="-1.65239">
        <ele>63.8</ele>
        <time>2012-10-28T07:55:04Z</time>
      </trkpt>
      <trkpt lat="47.26237" lon="-1.65238">
        <ele>64</ele>
        <time>2012-10-28T07:55:05Z</time>
      </trkpt>
      <trkpt lat="47.26242" lon="-1.65238">
        <ele>64.2</ele>
        <time>2012-10-28T07:55:06Z</time>
      </trkpt>
      <trkpt lat="47.26247" lon="-1.65236">
        <ele>63.9</ele>
        <time>2012-10-28T07:55:07Z</time>
      </trkpt>
      <trkpt lat="47.26255" lon="-1.65232">
        <ele>64</ele>
        <time>2012-10-28T07:55:09Z</time>
      </trkpt>
      <trkpt lat="47.26259" lon="-1.65232">
        <ele>64.3</ele>
        <time>2012-10-28T07:55:10Z</time>
      </trkpt>
      <trkpt lat="47.26261" lon="-1.65232">
        <ele>63.7</ele>
        <time>2012-10-28T07:55:11Z</time>
      </trkpt>
      <trkpt lat="47.26263" lon="-1.65231">
        <ele>63.4</ele>
        <time>2012-10-28T07:55:12Z</time>
      </trkpt>
      <trkpt lat="47.26268" lon="-1.65229">
        <ele>63</ele>
        <time>2012-10-28T07:55:14Z</time>
      </trkpt>
      <trkpt lat="47.26275" lon="-1.65227">
        <ele>62.7</ele>
        <time>2012-10-28T07:55:16Z</time>
      </trkpt>
      <trkpt lat="47.26285" lon="-1.65225">
        <ele>62.4</ele>
        <time>2012-10-28T07:55:19Z</time>
      </trkpt>
      <trkpt lat="47.26305" lon="-1.65222">
        <ele>61.9</ele>
        <time>2012-10-28T07:55:24Z</time>
      </trkpt>
      <trkpt lat="47.2631" lon="-1.6522">
        <ele>61.8</ele>
        <time>2012-10-28T07:55:25Z</time>
      </trkpt>
      <trkpt lat="47.26314" lon="-1.65219">
        <ele>62</ele>
        <time>2012-10-28T07:55:26Z</time>
      </trkpt>
      <trkpt lat="47.26318" lon="-1.65218">
        <ele>62.1</ele>
        <time>2012-10-28T07:55:27Z</time>
      </trkpt>
      <trkpt lat="47.26322" lon="-1.65218">
        <ele>62.1</ele>
        <time>2012-10-28T07:55:28Z</time>
      </trkpt>
      <trkpt lat="47.26326" lon="-1.65218">
        <ele>62.1</ele>
        <time>2012-10-28T07:55:29Z</time>
      </trkpt>
      <trkpt lat="47.26329" lon="-1.65219">
        <ele>62.2</ele>
        <time>2012-10-28T07:55:30Z</time>
      </trkpt>
      <trkpt lat="47.264" lon="-1.65228">
        <ele>60.5</ele>
        <time>2012-10-28T07:55:44Z</time>
      </trkpt>
      <trkpt lat="47.26546" lon="-1.65253">
        <ele>55.9</ele>
        <time>2012-10-28T07:56:08Z</time>
      </trkpt>
      <trkpt lat="47.26552" lon="-1.65255">
        <ele>55.6</ele>
        <time>2012-10-28T07:56:09Z</time>
      </trkpt>
      <trkpt lat="47.26569" lon="-1.65263">
        <ele>54.8</ele>
        <time>2012-10-28T07:56:12Z</time>
      </trkpt>
      <trkpt lat="47.26573" lon="-1.65266">
        <ele>54.4</ele>
        <time>2012-10-28T07:56:13Z</time>
      </trkpt>
      <trkpt lat="47.26576" lon="-1.65271">
        <ele>54.1</ele>
        <time>2012-10-28T07:56:14Z</time>
      </trkpt>
      <trkpt lat="47.26578" lon="-1.65276">
        <ele>53.9</ele>
        <time>2012-10-28T07:56:15Z</time>
      </trkpt>
      <trkpt lat="47.26579" lon="-1.6528">
        <ele>53.5</ele>
        <time>2012-10-28T07:56:16Z</time>
      </trkpt>
      <trkpt lat="47.2658" lon="-1.65286">
        <ele>53.2</ele>
        <time>2012-10-28T07:56:17Z</time>
      </trkpt>
      <trkpt lat="47.26581" lon="-1.65292">
        <ele>52.9</ele>
        <time>2012-10-28T07:56:18Z</time>
      </trkpt>
      <trkpt lat="47.26581" lon="-1.65327">
        <ele>51.4</ele>
        <time>2012-10-28T07:56:23Z</time>
      </trkpt>
      <trkpt lat="47.26582" lon="-1.65333">
        <ele>51.2</ele>
        <time>2012-10-28T07:56:24Z</time>
      </trkpt>
      <trkpt lat="47.26583" lon="-1.65339">
        <ele>51.2</ele>
        <time>2012-10-28T07:56:25Z</time>
      </trkpt>
      <trkpt lat="47.26582" lon="-1.65345">
        <ele>51.2</ele>
        <time>2012-10-28T07:56:26Z</time>
      </trkpt>
      <trkpt lat="47.26581" lon="-1.6535">
        <ele>51.3</ele>
        <time>2012-10-28T07:56:27Z</time>
      </trkpt>
      <trkpt lat="47.26579" lon="-1.65362">
        <ele>51.3</ele>
        <time>2012-10-28T07:56:29Z</time>
      </trkpt>
      <trkpt lat="47.26579" lon="-1.65368">
        <ele>51.3</ele>
        <time>2012-10-28T07:56:30Z</time>
      </trkpt>
      <trkpt lat="47.26571" lon="-1.65408">
        <ele>50.3</ele>
        <time>2012-10-28T07:56:36Z</time>
      </trkpt>
      <trkpt lat="47.26567" lon="-1.65422">
        <ele>49.4</ele>
        <time>2012-10-28T07:56:38Z</time>
      </trkpt>
      <trkpt lat="47.26565" lon="-1.65431">
        <ele>49.1</ele>
        <time>2012-10-28T07:56:39Z</time>
      </trkpt>
      <trkpt lat="47.26564" lon="-1.65439">
        <ele>48.8</ele>
        <time>2012-10-28T07:56:40Z</time>
      </trkpt>
      <trkpt lat="47.26564" lon="-1.65448">
        <ele>48.6</ele>
        <time>2012-10-28T07:56:41Z</time>
      </trkpt>
      <trkpt lat="47.26564" lon="-1.65458">
        <ele>48.3</ele>
        <time>2012-10-28T07:56:42Z</time>
      </trkpt>
      <trkpt lat="47.26563" lon="-1.65497">
        <ele>46.1</ele>
        <time>2012-10-28T07:56:48Z</time>
      </trkpt>
      <trkpt lat="47.26564" lon="-1.655">
        <ele>45.9</ele>
        <time>2012-10-28T07:56:49Z</time>
      </trkpt>
      <trkpt lat="47.26566" lon="-1.65504">
        <ele>45.7</ele>
        <time>2012-10-28T07:56:50Z</time>
      </trkpt>
      <trkpt lat="47.2657" lon="-1.65514">
        <ele>45</ele>
        <time>2012-10-28T07:56:52Z</time>
      </trkpt>
      <trkpt lat="47.26571" lon="-1.6552">
        <ele>44.8</ele>
        <time>2012-10-28T07:56:53Z</time>
      </trkpt>
      <trkpt lat="47.26575" lon="-1.6554">
        <ele>44.6</ele>
        <time>2012-10-28T07:56:56Z</time>
      </trkpt>
      <trkpt lat="47.26577" lon="-1.65556">
        <ele>44.1</ele>
        <time>2012-10-28T07:56:58Z</time>
      </trkpt>
      <trkpt lat="47.26579" lon="-1.65564">
        <ele>43.8</ele>
        <time>2012-10-28T07:56:59Z</time>
      </trkpt>
      <trkpt lat="47.26587" lon="-1.65588">
        <ele>43.1</ele>
        <time>2012-10-28T07:57:02Z</time>
      </trkpt>
      <trkpt lat="47.26589" lon="-1.65596">
        <ele>42.8</ele>
        <time>2012-10-28T07:57:03Z</time>
      </trkpt>
      <trkpt lat="47.26589" lon="-1.65605">
        <ele>42.6</ele>
        <time>2012-10-28T07:57:04Z</time>
      </trkpt>
      <trkpt lat="47.26589" lon="-1.65621">
        <ele>42.7</ele>
        <time>2012-10-28T07:57:06Z</time>
      </trkpt>
      <trkpt lat="47.26587" lon="-1.65694">
        <ele>42.4</ele>
        <time>2012-10-28T07:57:15Z</time>
      </trkpt>
      <trkpt lat="47.26585" lon="-1.65701">
        <ele>42.2</ele>
        <time>2012-10-28T07:57:16Z</time>
      </trkpt>
      <trkpt lat="47.26582" lon="-1.65706">
        <ele>42.4</ele>
        <time>2012-10-28T07:57:17Z</time>
      </trkpt>
      <trkpt lat="47.26577" lon="-1.65709">
        <ele>42.6</ele>
        <time>2012-10-28T07:57:18Z</time>
      </trkpt>
      <trkpt lat="47.26572" lon="-1.65712">
        <ele>42.7</ele>
        <time>2012-10-28T07:57:19Z</time>
      </trkpt>
      <trkpt lat="47.26539" lon="-1.65727">
        <ele>39.2</ele>
        <time>2012-10-28T07:57:25Z</time>
      </trkpt>
      <trkpt lat="47.26535" lon="-1.65731">
        <ele>38.9</ele>
        <time>2012-10-28T07:57:26Z</time>
      </trkpt>
      <trkpt lat="47.26527" lon="-1.65737">
        <ele>37.7</ele>
        <time>2012-10-28T07:57:28Z</time>
      </trkpt>
      <trkpt lat="47.26524" lon="-1.65742">
        <ele>36.9</ele>
        <time>2012-10-28T07:57:29Z</time>
      </trkpt>
      <trkpt lat="47.2652" lon="-1.6575">
        <ele>36.3</ele>
        <time>2012-10-28T07:57:30Z</time>
      </trkpt>
      <trkpt lat="47.26518" lon="-1.65758">
        <ele>35.1</ele>
        <time>2012-10-28T07:57:31Z</time>
      </trkpt>
      <trkpt lat="47.26516" lon="-1.65766">
        <ele>34.2</ele>
        <time>2012-10-28T07:57:32Z</time>
      </trkpt>
      <trkpt lat="47.26515" lon="-1.65774">
        <ele>33.5</ele>
        <time>2012-10-28T07:57:33Z</time>
      </trkpt>
      <trkpt lat="47.26516" lon="-1.65783">
        <ele>33.5</ele>
        <time>2012-10-28T07:57:34Z</time>
      </trkpt>
      <trkpt lat="47.26521" lon="-1.65848">
        <ele>29.9</ele>
        <time>2012-10-28T07:57:40Z</time>
      </trkpt>
      <trkpt lat="47.2652" lon="-1.65859">
        <ele>28.9</ele>
        <time>2012-10-28T07:57:41Z</time>
      </trkpt>
      <trkpt lat="47.26519" lon="-1.6587">
        <ele>28.1</ele>
        <time>2012-10-28T07:57:42Z</time>
      </trkpt>
      <trkpt lat="47.26517" lon="-1.6588">
        <ele>27.6</ele>
        <time>2012-10-28T07:57:43Z</time>
      </trkpt>
      <trkpt lat="47.26512" lon="-1.65901">
        <ele>26.9</ele>
        <time>2012-10-28T07:57:45Z</time>
      </trkpt>
      <trkpt lat="47.26512" lon="-1.6591">
        <ele>26.5</ele>
        <time>2012-10-28T07:57:46Z</time>
      </trkpt>
      <trkpt lat="47.26512" lon="-1.65925">
        <ele>26.2</ele>
        <time>2012-10-28T07:57:48Z</time>
      </trkpt>
      <trkpt lat="47.26514" lon="-1.65931">
        <ele>26.2</ele>
        <time>2012-10-28T07:57:49Z</time>
      </trkpt>
      <trkpt lat="47.26517" lon="-1.65937">
        <ele>26.1</ele>
        <time>2012-10-28T07:57:50Z</time>
      </trkpt>
      <trkpt lat="47.2652" lon="-1.65942">
        <ele>26.1</ele>
        <time>2012-10-28T07:57:51Z</time>
      </trkpt>
      <trkpt lat="47.26523" lon="-1.65946">
        <ele>26.1</ele>
        <time>2012-10-28T07:57:52Z</time>
      </trkpt>
      <trkpt lat="47.26525" lon="-1.65948">
        <ele>25.9</ele>
        <time>2012-10-28T07:57:53Z</time>
      </trkpt>
      <trkpt lat="47.26527" lon="-1.65948">
        <ele>25.8</ele>
        <time>2012-10-28T07:57:54Z</time>
      </trkpt>
      <trkpt lat="47.26529" lon="-1.65948">
        <ele>26.1</ele>
        <time>2012-10-28T07:57:55Z</time>
      </trkpt>
      <trkpt lat="47.26532" lon="-1.65947">
        <ele>26.5</ele>
        <time>2012-10-28T07:57:57Z</time>
      </trkpt>
      <trkpt lat="47.26533" lon="-1.65947">
        <ele>26.7</ele>
        <time>2012-10-28T07:57:58Z</time>
      </trkpt>
      <trkpt lat="47.26534" lon="-1.65946">
        <ele>26.8</ele>
        <time>2012-10-28T07:57:59Z</time>
      </trkpt>
      <trkpt lat="47.26537" lon="-1.65945">
        <ele>28</ele>
        <time>2012-10-28T07:58:02Z</time>
      </trkpt>
      <trkpt lat="47.26541" lon="-1.65944">
        <ele>29</ele>
        <time>2012-10-28T07:58:05Z</time>
      </trkpt>
      <trkpt lat="47.26542" lon="-1.65944">
        <ele>29.2</ele>
        <time>2012-10-28T07:58:06Z</time>
      </trkpt>
      <trkpt lat="47.26543" lon="-1.65943">
        <ele>29.4</ele>
        <time>2012-10-28T07:58:07Z</time>
      </trkpt>
      <trkpt lat="47.26544" lon="-1.65944">
        <ele>29.5</ele>
        <time>2012-10-28T07:58:08Z</time>
      </trkpt>
      <trkpt lat="47.26545" lon="-1.65944">
        <ele>30.2</ele>
        <time>2012-10-28T07:58:09Z</time>
      </trkpt>
      <trkpt lat="47.26546" lon="-1.65943">
        <ele>30.7</ele>
        <time>2012-10-28T07:58:10Z</time>
      </trkpt>
      <trkpt lat="47.2655" lon="-1.65943">
        <ele>31.5</ele>
        <time>2012-10-28T07:58:12Z</time>
      </trkpt>
      <trkpt lat="47.26553" lon="-1.65942">
        <ele>32.5</ele>
        <time>2012-10-28T07:58:14Z</time>
      </trkpt>
      <trkpt lat="47.26555" lon="-1.65942">
        <ele>33</ele>
        <time>2012-10-28T07:58:15Z</time>
      </trkpt>
      <trkpt lat="47.26557" lon="-1.65942">
        <ele>33.4</ele>
        <time>2012-10-28T07:58:16Z</time>
      </trkpt>
      <trkpt lat="47.26561" lon="-1.65941">
        <ele>33.9</ele>
        <time>2012-10-28T07:58:18Z</time>
      </trkpt>
      <trkpt lat="47.26564" lon="-1.6594">
        <ele>33.9</ele>
        <time>2012-10-28T07:58:20Z</time>
      </trkpt>
      <trkpt lat="47.26566" lon="-1.6594">
        <ele>33.9</ele>
        <time>2012-10-28T07:58:21Z</time>
      </trkpt>
      <trkpt lat="47.26567" lon="-1.65941">
        <ele>33.9</ele>
        <time>2012-10-28T07:58:22Z</time>
      </trkpt>
      <trkpt lat="47.26569" lon="-1.6594">
        <ele>33.8</ele>
        <time>2012-10-28T07:58:23Z</time>
      </trkpt>
      <trkpt lat="47.2657" lon="-1.6594">
        <ele>34.1</ele>
        <time>2012-10-28T07:58:24Z</time>
      </trkpt>
      <trkpt lat="47.26572" lon="-1.6594">
        <ele>34.4</ele>
        <time>2012-10-28T07:58:25Z</time>
      </trkpt>
      <trkpt lat="47.26574" lon="-1.6594">
        <ele>34.8</ele>
        <time>2012-10-28T07:58:26Z</time>
      </trkpt>
      <trkpt lat="47.26577" lon="-1.65939">
        <ele>35.6</ele>
        <time>2012-10-28T07:58:28Z</time>
      </trkpt>
      <trkpt lat="47.2658" lon="-1.65939">
        <ele>36.3</ele>
        <time>2012-10-28T07:58:30Z</time>
      </trkpt>
      <trkpt lat="47.26582" lon="-1.65938">
        <ele>36.4</ele>
        <time>2012-10-28T07:58:31Z</time>
      </trkpt>
      <trkpt lat="47.26583" lon="-1.65938">
        <ele>36.4</ele>
        <time>2012-10-28T07:58:32Z</time>
      </trkpt>
      <trkpt lat="47.26585" lon="-1.65937">
        <ele>36.7</ele>
        <time>2012-10-28T07:58:33Z</time>
      </trkpt>
      <trkpt lat="47.26587" lon="-1.65937">
        <ele>36.8</ele>
        <time>2012-10-28T07:58:34Z</time>
      </trkpt>
      <trkpt lat="47.26595" lon="-1.65933">
        <ele>37.5</ele>
        <time>2012-10-28T07:58:38Z</time>
      </trkpt>
      <trkpt lat="47.26596" lon="-1.65932">
        <ele>37.6</ele>
        <time>2012-10-28T07:58:39Z</time>
      </trkpt>
      <trkpt lat="47.26598" lon="-1.65932">
        <ele>37.9</ele>
        <time>2012-10-28T07:58:40Z</time>
      </trkpt>
      <trkpt lat="47.266" lon="-1.65932">
        <ele>38.2</ele>
        <time>2012-10-28T07:58:41Z</time>
      </trkpt>
      <trkpt lat="47.26602" lon="-1.65931">
        <ele>38.4</ele>
        <time>2012-10-28T07:58:42Z</time>
      </trkpt>
      <trkpt lat="47.26606" lon="-1.6593">
        <ele>38.8</ele>
        <time>2012-10-28T07:58:44Z</time>
      </trkpt>
      <trkpt lat="47.26608" lon="-1.65929">
        <ele>39.5</ele>
        <time>2012-10-28T07:58:45Z</time>
      </trkpt>
      <trkpt lat="47.2661" lon="-1.65929">
        <ele>40</ele>
        <time>2012-10-28T07:58:46Z</time>
      </trkpt>
      <trkpt lat="47.26612" lon="-1.65929">
        <ele>40.4</ele>
        <time>2012-10-28T07:58:47Z</time>
      </trkpt>
      <trkpt lat="47.26614" lon="-1.65928">
        <ele>40.6</ele>
        <time>2012-10-28T07:58:48Z</time>
      </trkpt>
      <trkpt lat="47.26616" lon="-1.65928">
        <ele>40.8</ele>
        <time>2012-10-28T07:58:49Z</time>
      </trkpt>
      <trkpt lat="47.26621" lon="-1.65927">
        <ele>40.3</ele>
        <time>2012-10-28T07:58:51Z</time>
      </trkpt>
      <trkpt lat="47.26623" lon="-1.65926">
        <ele>40.5</ele>
        <time>2012-10-28T07:58:52Z</time>
      </trkpt>
      <trkpt lat="47.26638" lon="-1.65919">
        <ele>41.9</ele>
        <time>2012-10-28T07:58:58Z</time>
      </trkpt>
      <trkpt lat="47.26675" lon="-1.65903">
        <ele>43</ele>
        <time>2012-10-28T07:59:11Z</time>
      </trkpt>
      <trkpt lat="47.26678" lon="-1.65903">
        <ele>43.2</ele>
        <time>2012-10-28T07:59:12Z</time>
      </trkpt>
      <trkpt lat="47.26691" lon="-1.65902">
        <ele>43.6</ele>
        <time>2012-10-28T07:59:16Z</time>
      </trkpt>
      <trkpt lat="47.26694" lon="-1.65902">
        <ele>43.9</ele>
        <time>2012-10-28T07:59:17Z</time>
      </trkpt>
      <trkpt lat="47.26712" lon="-1.65905">
        <ele>43.5</ele>
        <time>2012-10-28T07:59:23Z</time>
      </trkpt>
      <trkpt lat="47.26719" lon="-1.65906">
        <ele>43.7</ele>
        <time>2012-10-28T07:59:26Z</time>
      </trkpt>
      <trkpt lat="47.26722" lon="-1.65906">
        <ele>43.8</ele>
        <time>2012-10-28T07:59:27Z</time>
      </trkpt>
      <trkpt lat="47.2673" lon="-1.65905">
        <ele>43.9</ele>
        <time>2012-10-28T07:59:29Z</time>
      </trkpt>
      <trkpt lat="47.26732" lon="-1.65904">
        <ele>44</ele>
        <time>2012-10-28T07:59:30Z</time>
      </trkpt>
      <trkpt lat="47.26742" lon="-1.65902">
        <ele>43.8</ele>
        <time>2012-10-28T07:59:34Z</time>
      </trkpt>
      <trkpt lat="47.26759" lon="-1.65898">
        <ele>43.9</ele>
        <time>2012-10-28T07:59:39Z</time>
      </trkpt>
      <trkpt lat="47.26762" lon="-1.65898">
        <ele>43.9</ele>
        <time>2012-10-28T07:59:40Z</time>
      </trkpt>
      <trkpt lat="47.26843" lon="-1.65877">
        <ele>39.8</ele>
        <time>2012-10-28T07:59:56Z</time>
      </trkpt>
      <trkpt lat="47.26865" lon="-1.65865">
        <ele>39.4</ele>
        <time>2012-10-28T08:00:00Z</time>
      </trkpt>
      <trkpt lat="47.26869" lon="-1.65862">
        <ele>39.4</ele>
        <time>2012-10-28T08:00:01Z</time>
      </trkpt>
      <trkpt lat="47.26873" lon="-1.65858">
        <ele>39.4</ele>
        <time>2012-10-28T08:00:02Z</time>
      </trkpt>
      <trkpt lat="47.26875" lon="-1.65854">
        <ele>39.6</ele>
        <time>2012-10-28T08:00:03Z</time>
      </trkpt>
      <trkpt lat="47.26877" lon="-1.65851">
        <ele>39.7</ele>
        <time>2012-10-28T08:00:04Z</time>
      </trkpt>
      <trkpt lat="47.26878" lon="-1.65847">
        <ele>39.8</ele>
        <time>2012-10-28T08:00:05Z</time>
      </trkpt>
      <trkpt lat="47.26881" lon="-1.65826">
        <ele>39</ele>
        <time>2012-10-28T08:00:09Z</time>
      </trkpt>
      <trkpt lat="47.26881" lon="-1.65819">
        <ele>38.6</ele>
        <time>2012-10-28T08:00:10Z</time>
      </trkpt>
      <trkpt lat="47.26881" lon="-1.65804">
        <ele>38</ele>
        <time>2012-10-28T08:00:12Z</time>
      </trkpt>
      <trkpt lat="47.26881" lon="-1.65797">
        <ele>37.9</ele>
        <time>2012-10-28T08:00:13Z</time>
      </trkpt>
      <trkpt lat="47.2688" lon="-1.65789">
        <ele>37.8</ele>
        <time>2012-10-28T08:00:14Z</time>
      </trkpt>
      <trkpt lat="47.26876" lon="-1.6576">
        <ele>36.5</ele>
        <time>2012-10-28T08:00:18Z</time>
      </trkpt>
      <trkpt lat="47.26875" lon="-1.65747">
        <ele>36.5</ele>
        <time>2012-10-28T08:00:20Z</time>
      </trkpt>
      <trkpt lat="47.26873" lon="-1.65742">
        <ele>36.5</ele>
        <time>2012-10-28T08:00:21Z</time>
      </trkpt>
      <trkpt lat="47.26869" lon="-1.65737">
        <ele>35.5</ele>
        <time>2012-10-28T08:00:23Z</time>
      </trkpt>
      <trkpt lat="47.26868" lon="-1.65734">
        <ele>35.2</ele>
        <time>2012-10-28T08:00:24Z</time>
      </trkpt>
      <trkpt lat="47.26869" lon="-1.65731">
        <ele>34.3</ele>
        <time>2012-10-28T08:00:25Z</time>
      </trkpt>
      <trkpt lat="47.26875" lon="-1.65705">
        <ele>33.2</ele>
        <time>2012-10-28T08:00:30Z</time>
      </trkpt>
      <trkpt lat="47.26877" lon="-1.65702">
        <ele>33.2</ele>
        <time>2012-10-28T08:00:31Z</time>
      </trkpt>
      <trkpt lat="47.26879" lon="-1.657">
        <ele>32.8</ele>
        <time>2012-10-28T08:00:32Z</time>
      </trkpt>
      <trkpt lat="47.26879" lon="-1.65695">
        <ele>32.5</ele>
        <time>2012-10-28T08:00:33Z</time>
      </trkpt>
      <trkpt lat="47.26882" lon="-1.65685">
        <ele>30.8</ele>
        <time>2012-10-28T08:00:35Z</time>
      </trkpt>
      <trkpt lat="47.26884" lon="-1.65679">
        <ele>30.3</ele>
        <time>2012-10-28T08:00:36Z</time>
      </trkpt>
      <trkpt lat="47.26886" lon="-1.65676">
        <ele>29.8</ele>
        <time>2012-10-28T08:00:37Z</time>
      </trkpt>
      <trkpt lat="47.26892" lon="-1.65666">
        <ele>28.9</ele>
        <time>2012-10-28T08:00:42Z</time>
      </trkpt>
      <trkpt lat="47.26893" lon="-1.65665">
        <ele>28.8</ele>
        <time>2012-10-28T08:00:43Z</time>
      </trkpt>
      <trkpt lat="47.26895" lon="-1.65661">
        <ele>28.4</ele>
        <time>2012-10-28T08:00:45Z</time>
      </trkpt>
      <trkpt lat="47.26896" lon="-1.65656">
        <ele>27.6</ele>
        <time>2012-10-28T08:00:47Z</time>
      </trkpt>
      <trkpt lat="47.26897" lon="-1.65653">
        <ele>27.5</ele>
        <time>2012-10-28T08:00:48Z</time>
      </trkpt>
      <trkpt lat="47.26899" lon="-1.65648">
        <ele>27.6</ele>
        <time>2012-10-28T08:00:52Z</time>
      </trkpt>
      <trkpt lat="47.269" lon="-1.65647">
        <ele>27.7</ele>
        <time>2012-10-28T08:00:53Z</time>
      </trkpt>
      <trkpt lat="47.26901" lon="-1.65645">
        <ele>27.7</ele>
        <time>2012-10-28T08:00:54Z</time>
      </trkpt>
      <trkpt lat="47.26901" lon="-1.65644">
        <ele>27.8</ele>
        <time>2012-10-28T08:00:55Z</time>
      </trkpt>
      <trkpt lat="47.26901" lon="-1.65643">
        <ele>27.9</ele>
        <time>2012-10-28T08:00:56Z</time>
      </trkpt>
      <trkpt lat="47.26902" lon="-1.65643">
        <ele>28</ele>
        <time>2012-10-28T08:00:57Z</time>
      </trkpt>
      <trkpt lat="47.26902" lon="-1.65642">
        <ele>27.6</ele>
        <time>2012-10-28T08:00:58Z</time>
      </trkpt>
      <trkpt lat="47.26902" lon="-1.65642">
        <ele>27.4</ele>
        <time>2012-10-28T08:00:59Z</time>
      </trkpt>
      <trkpt lat="47.26902" lon="-1.65641">
        <ele>27.2</ele>
        <time>2012-10-28T08:01:00Z</time>
      </trkpt>
      <trkpt lat="47.26902" lon="-1.65641">
        <ele>27</ele>
        <time>2012-10-28T08:01:01Z</time>
      </trkpt>
      <trkpt lat="47.26902" lon="-1.6564">
        <ele>26.9</ele>
        <time>2012-10-28T08:01:02Z</time>
      </trkpt>
      <trkpt lat="47.26902" lon="-1.65638">
        <ele>27.5</ele>
        <time>2012-10-28T08:01:03Z</time>
      </trkpt>
      <trkpt lat="47.26901" lon="-1.65636">
        <ele>27.9</ele>
        <time>2012-10-28T08:01:04Z</time>
      </trkpt>
      <trkpt lat="47.269" lon="-1.65634">
        <ele>28.2</ele>
        <time>2012-10-28T08:01:05Z</time>
      </trkpt>
      <trkpt lat="47.26898" lon="-1.65632">
        <ele>28.5</ele>
        <time>2012-10-28T08:01:06Z</time>
      </trkpt>
      <trkpt lat="47.26896" lon="-1.65628">
        <ele>28.4</ele>
        <time>2012-10-28T08:01:07Z</time>
      </trkpt>
      <trkpt lat="47.26895" lon="-1.65625">
        <ele>28.3</ele>
        <time>2012-10-28T08:01:08Z</time>
      </trkpt>
      <trkpt lat="47.26892" lon="-1.65621">
        <ele>28.3</ele>
        <time>2012-10-28T08:01:09Z</time>
      </trkpt>
      <trkpt lat="47.26879" lon="-1.65607">
        <ele>27.2</ele>
        <time>2012-10-28T08:01:13Z</time>
      </trkpt>
      <trkpt lat="47.26878" lon="-1.65603">
        <ele>27</ele>
        <time>2012-10-28T08:01:14Z</time>
      </trkpt>
      <trkpt lat="47.26878" lon="-1.656">
        <ele>26.6</ele>
        <time>2012-10-28T08:01:15Z</time>
      </trkpt>
      <trkpt lat="47.26877" lon="-1.65596">
        <ele>25.8</ele>
        <time>2012-10-28T08:01:17Z</time>
      </trkpt>
      <trkpt lat="47.26877" lon="-1.65595">
        <ele>25.5</ele>
        <time>2012-10-28T08:01:18Z</time>
      </trkpt>
      <trkpt lat="47.26877" lon="-1.65594">
        <ele>25.5</ele>
        <time>2012-10-28T08:01:19Z</time>
      </trkpt>
      <trkpt lat="47.26876" lon="-1.65593">
        <ele>25.5</ele>
        <time>2012-10-28T08:01:21Z</time>
      </trkpt>
      <trkpt lat="47.26876" lon="-1.65592">
        <ele>25.5</ele>
        <time>2012-10-28T08:01:22Z</time>
      </trkpt>
      <trkpt lat="47.26876" lon="-1.65592">
        <ele>25.5</ele>
        <time>2012-10-28T08:01:23Z</time>
      </trkpt>
      <trkpt lat="47.26875" lon="-1.65591">
        <ele>25.3</ele>
        <time>2012-10-28T08:01:24Z</time>
      </trkpt>
      <trkpt lat="47.26875" lon="-1.65591">
        <ele>25.2</ele>
        <time>2012-10-28T08:01:25Z</time>
      </trkpt>
      <trkpt lat="47.26874" lon="-1.65589">
        <ele>24.9</ele>
        <time>2012-10-28T08:01:26Z</time>
      </trkpt>
      <trkpt lat="47.26875" lon="-1.65588">
        <ele>24.7</ele>
        <time>2012-10-28T08:01:27Z</time>
      </trkpt>
      <trkpt lat="47.26874" lon="-1.65587">
        <ele>24.5</ele>
        <time>2012-10-28T08:01:28Z</time>
      </trkpt>
      <trkpt lat="47.26874" lon="-1.65586">
        <ele>24.5</ele>
        <time>2012-10-28T08:01:29Z</time>
      </trkpt>
      <trkpt lat="47.26874" lon="-1.65586">
        <ele>24.5</ele>
        <time>2012-10-28T08:01:30Z</time>
      </trkpt>
      <trkpt lat="47.26874" lon="-1.65586">
        <ele>24.4</ele>
        <time>2012-10-28T08:01:31Z</time>
      </trkpt>
      <trkpt lat="47.26874" lon="-1.65586">
        <ele>24.4</ele>
        <time>2012-10-28T08:01:32Z</time>
      </trkpt>
      <trkpt lat="47.26875" lon="-1.65587">
        <ele>24.3</ele>
        <time>2012-10-28T08:01:33Z</time>
      </trkpt>
      <trkpt lat="47.26875" lon="-1.65587">
        <ele>24.2</ele>
        <time>2012-10-28T08:01:34Z</time>
      </trkpt>
      <trkpt lat="47.26876" lon="-1.65588">
        <ele>24.4</ele>
        <time>2012-10-28T08:01:36Z</time>
      </trkpt>
      <trkpt lat="47.26876" lon="-1.65588">
        <ele>24.6</ele>
        <time>2012-10-28T08:01:37Z</time>
      </trkpt>
      <trkpt lat="47.26877" lon="-1.65588">
        <ele>25</ele>
        <time>2012-10-28T08:01:38Z</time>
      </trkpt>
      <trkpt lat="47.26877" lon="-1.65588">
        <ele>25.4</ele>
        <time>2012-10-28T08:01:39Z</time>
      </trkpt>
      <trkpt lat="47.26877" lon="-1.65588">
        <ele>25.7</ele>
        <time>2012-10-28T08:01:40Z</time>
      </trkpt>
      <trkpt lat="47.26877" lon="-1.65588">
        <ele>25.7</ele>
        <time>2012-10-28T08:01:41Z</time>
      </trkpt>
      <trkpt lat="47.26878" lon="-1.65589">
        <ele>25.7</ele>
        <time>2012-10-28T08:01:42Z</time>
      </trkpt>
      <trkpt lat="47.26878" lon="-1.6559">
        <ele>25.9</ele>
        <time>2012-10-28T08:01:43Z</time>
      </trkpt>
      <trkpt lat="47.26878" lon="-1.6559">
        <ele>26</ele>
        <time>2012-10-28T08:01:44Z</time>
      </trkpt>
      <trkpt lat="47.26879" lon="-1.6559">
        <ele>26.4</ele>
        <time>2012-10-28T08:01:45Z</time>
      </trkpt>
      <trkpt lat="47.2688" lon="-1.6559">
        <ele>26.7</ele>
        <time>2012-10-28T08:01:46Z</time>
      </trkpt>
      <trkpt lat="47.26879" lon="-1.6559">
        <ele>26.9</ele>
        <time>2012-10-28T08:01:47Z</time>
      </trkpt>
      <trkpt lat="47.2688" lon="-1.6559">
        <ele>26.7</ele>
        <time>2012-10-28T08:01:48Z</time>
      </trkpt>
      <trkpt lat="47.2688" lon="-1.6559">
        <ele>26.5</ele>
        <time>2012-10-28T08:01:49Z</time>
      </trkpt>
      <trkpt lat="47.2688" lon="-1.6559">
        <ele>26.8</ele>
        <time>2012-10-28T08:01:50Z</time>
      </trkpt>
      <trkpt lat="47.26881" lon="-1.65591">
        <ele>27</ele>
        <time>2012-10-28T08:01:51Z</time>
      </trkpt>
      <trkpt lat="47.26881" lon="-1.65591">
        <ele>27.2</ele>
        <time>2012-10-28T08:01:52Z</time>
      </trkpt>
      <trkpt lat="47.26881" lon="-1.65592">
        <ele>27.2</ele>
        <time>2012-10-28T08:01:53Z</time>
      </trkpt>
      <trkpt lat="47.26882" lon="-1.65593">
        <ele>27.1</ele>
        <time>2012-10-28T08:01:55Z</time>
      </trkpt>
      <trkpt lat="47.26884" lon="-1.65594">
        <ele>27.4</ele>
        <time>2012-10-28T08:01:57Z</time>
      </trkpt>
      <trkpt lat="47.26885" lon="-1.65594">
        <ele>27.7</ele>
        <time>2012-10-28T08:01:58Z</time>
      </trkpt>
      <trkpt lat="47.26885" lon="-1.65595">
        <ele>27.9</ele>
        <time>2012-10-28T08:01:59Z</time>
      </trkpt>
      <trkpt lat="47.26885" lon="-1.65595">
        <ele>27.9</ele>
        <time>2012-10-28T08:02:00Z</time>
      </trkpt>
      <trkpt lat="47.26886" lon="-1.65596">
        <ele>28</ele>
        <time>2012-10-28T08:02:01Z</time>
      </trkpt>
      <trkpt lat="47.26887" lon="-1.65596">
        <ele>28.2</ele>
        <time>2012-10-28T08:02:02Z</time>
      </trkpt>
      <trkpt lat="47.26887" lon="-1.65596">
        <ele>28.3</ele>
        <time>2012-10-28T08:02:03Z</time>
      </trkpt>
      <trkpt lat="47.26887" lon="-1.65597">
        <ele>28.5</ele>
        <time>2012-10-28T08:02:04Z</time>
      </trkpt>
      <trkpt lat="47.26888" lon="-1.65598">
        <ele>28.6</ele>
        <time>2012-10-28T08:02:05Z</time>
      </trkpt>
      <trkpt lat="47.26888" lon="-1.65598">
        <ele>28.7</ele>
        <time>2012-10-28T08:02:06Z</time>
      </trkpt>
      <trkpt lat="47.26888" lon="-1.65598">
        <ele>29.1</ele>
        <time>2012-10-28T08:02:07Z</time>
      </trkpt>
      <trkpt lat="47.2689" lon="-1.65598">
        <ele>29.5</ele>
        <time>2012-10-28T08:02:09Z</time>
      </trkpt>
      <trkpt lat="47.26891" lon="-1.65598">
        <ele>29.6</ele>
        <time>2012-10-28T08:02:10Z</time>
      </trkpt>
      <trkpt lat="47.26892" lon="-1.65599">
        <ele>29.7</ele>
        <time>2012-10-28T08:02:11Z</time>
      </trkpt>
      <trkpt lat="47.26892" lon="-1.65599">
        <ele>29.8</ele>
        <time>2012-10-28T08:02:12Z</time>
      </trkpt>
      <trkpt lat="47.26893" lon="-1.656">
        <ele>29.8</ele>
        <time>2012-10-28T08:02:13Z</time>
      </trkpt>
      <trkpt lat="47.26894" lon="-1.656">
        <ele>29.7</ele>
        <time>2012-10-28T08:02:14Z</time>
      </trkpt>
      <trkpt lat="47.26894" lon="-1.65601">
        <ele>29.6</ele>
        <time>2012-10-28T08:02:15Z</time>
      </trkpt>
      <trkpt lat="47.26895" lon="-1.65602">
        <ele>29.5</ele>
        <time>2012-10-28T08:02:16Z</time>
      </trkpt>
      <trkpt lat="47.26899" lon="-1.65607">
        <ele>30</ele>
        <time>2012-10-28T08:02:19Z</time>
      </trkpt>
      <trkpt lat="47.269" lon="-1.65608">
        <ele>30.4</ele>
        <time>2012-10-28T08:02:20Z</time>
      </trkpt>
      <trkpt lat="47.26902" lon="-1.65609">
        <ele>30.6</ele>
        <time>2012-10-28T08:02:21Z</time>
      </trkpt>
      <trkpt lat="47.26902" lon="-1.6561">
        <ele>30.7</ele>
        <time>2012-10-28T08:02:22Z</time>
      </trkpt>
      <trkpt lat="47.26904" lon="-1.65611">
        <ele>30.8</ele>
        <time>2012-10-28T08:02:23Z</time>
      </trkpt>
      <trkpt lat="47.26905" lon="-1.65612">
        <ele>30.9</ele>
        <time>2012-10-28T08:02:24Z</time>
      </trkpt>
      <trkpt lat="47.26907" lon="-1.65612">
        <ele>31</ele>
        <time>2012-10-28T08:02:25Z</time>
      </trkpt>
      <trkpt lat="47.26909" lon="-1.65613">
        <ele>31.7</ele>
        <time>2012-10-28T08:02:27Z</time>
      </trkpt>
      <trkpt lat="47.26909" lon="-1.65613">
        <ele>31.9</ele>
        <time>2012-10-28T08:02:28Z</time>
      </trkpt>
      <trkpt lat="47.2691" lon="-1.65613">
        <ele>32</ele>
        <time>2012-10-28T08:02:29Z</time>
      </trkpt>
      <trkpt lat="47.26911" lon="-1.65613">
        <ele>32.3</ele>
        <time>2012-10-28T08:02:30Z</time>
      </trkpt>
      <trkpt lat="47.26912" lon="-1.65614">
        <ele>32.5</ele>
        <time>2012-10-28T08:02:31Z</time>
      </trkpt>
      <trkpt lat="47.26913" lon="-1.65614">
        <ele>32.6</ele>
        <time>2012-10-28T08:02:32Z</time>
      </trkpt>
      <trkpt lat="47.26914" lon="-1.65614">
        <ele>33</ele>
        <time>2012-10-28T08:02:33Z</time>
      </trkpt>
      <trkpt lat="47.26915" lon="-1.65614">
        <ele>33.2</ele>
        <time>2012-10-28T08:02:34Z</time>
      </trkpt>
      <trkpt lat="47.26918" lon="-1.65616">
        <ele>33.7</ele>
        <time>2012-10-28T08:02:36Z</time>
      </trkpt>
      <trkpt lat="47.2692" lon="-1.65616">
        <ele>33.8</ele>
        <time>2012-10-28T08:02:37Z</time>
      </trkpt>
      <trkpt lat="47.26925" lon="-1.65619">
        <ele>34.2</ele>
        <time>2012-10-28T08:02:40Z</time>
      </trkpt>
      <trkpt lat="47.26927" lon="-1.6562">
        <ele>34.1</ele>
        <time>2012-10-28T08:02:41Z</time>
      </trkpt>
      <trkpt lat="47.2693" lon="-1.65623">
        <ele>34.5</ele>
        <time>2012-10-28T08:02:43Z</time>
      </trkpt>
      <trkpt lat="47.26932" lon="-1.65624">
        <ele>34.6</ele>
        <time>2012-10-28T08:02:44Z</time>
      </trkpt>
      <trkpt lat="47.26933" lon="-1.65625">
        <ele>35</ele>
        <time>2012-10-28T08:02:45Z</time>
      </trkpt>
      <trkpt lat="47.26939" lon="-1.65627">
        <ele>35.5</ele>
        <time>2012-10-28T08:02:49Z</time>
      </trkpt>
      <trkpt lat="47.26941" lon="-1.65628">
        <ele>35.9</ele>
        <time>2012-10-28T08:02:50Z</time>
      </trkpt>
      <trkpt lat="47.26942" lon="-1.65628">
        <ele>36.2</ele>
        <time>2012-10-28T08:02:51Z</time>
      </trkpt>
      <trkpt lat="47.26944" lon="-1.65629">
        <ele>36.2</ele>
        <time>2012-10-28T08:02:52Z</time>
      </trkpt>
      <trkpt lat="47.26948" lon="-1.6563">
        <ele>36.6</ele>
        <time>2012-10-28T08:02:54Z</time>
      </trkpt>
      <trkpt lat="47.26951" lon="-1.6563">
        <ele>37.2</ele>
        <time>2012-10-28T08:02:56Z</time>
      </trkpt>
      <trkpt lat="47.26953" lon="-1.65631">
        <ele>37.2</ele>
        <time>2012-10-28T08:02:57Z</time>
      </trkpt>
      <trkpt lat="47.26961" lon="-1.65633">
        <ele>38.5</ele>
        <time>2012-10-28T08:03:01Z</time>
      </trkpt>
      <trkpt lat="47.26963" lon="-1.65634">
        <ele>38.9</ele>
        <time>2012-10-28T08:03:02Z</time>
      </trkpt>
      <trkpt lat="47.26979" lon="-1.65636">
        <ele>40.4</ele>
        <time>2012-10-28T08:03:10Z</time>
      </trkpt>
      <trkpt lat="47.26984" lon="-1.65637">
        <ele>40.4</ele>
        <time>2012-10-28T08:03:13Z</time>
      </trkpt>
      <trkpt lat="47.26988" lon="-1.65638">
        <ele>40.9</ele>
        <time>2012-10-28T08:03:15Z</time>
      </trkpt>
      <trkpt lat="47.27001" lon="-1.6564">
        <ele>42.1</ele>
        <time>2012-10-28T08:03:21Z</time>
      </trkpt>
      <trkpt lat="47.2701" lon="-1.65642">
        <ele>42.9</ele>
        <time>2012-10-28T08:03:25Z</time>
      </trkpt>
      <trkpt lat="47.27021" lon="-1.65645">
        <ele>43.1</ele>
        <time>2012-10-28T08:03:29Z</time>
      </trkpt>
      <trkpt lat="47.27036" lon="-1.6565">
        <ele>43.5</ele>
        <time>2012-10-28T08:03:35Z</time>
      </trkpt>
      <trkpt lat="47.27043" lon="-1.6565">
        <ele>43.5</ele>
        <time>2012-10-28T08:03:37Z</time>
      </trkpt>
      <trkpt lat="47.27046" lon="-1.6565">
        <ele>43.7</ele>
        <time>2012-10-28T08:03:38Z</time>
      </trkpt>
      <trkpt lat="47.27049" lon="-1.65649">
        <ele>44.1</ele>
        <time>2012-10-28T08:03:39Z</time>
      </trkpt>
      <trkpt lat="47.27086" lon="-1.6564">
        <ele>44.6</ele>
        <time>2012-10-28T08:03:52Z</time>
      </trkpt>
      <trkpt lat="47.27088" lon="-1.65639">
        <ele>44.8</ele>
        <time>2012-10-28T08:03:53Z</time>
      </trkpt>
      <trkpt lat="47.27117" lon="-1.65632">
        <ele>45.6</ele>
        <time>2012-10-28T08:04:09Z</time>
      </trkpt>
      <trkpt lat="47.27121" lon="-1.6563">
        <ele>45.8</ele>
        <time>2012-10-28T08:04:11Z</time>
      </trkpt>
      <trkpt lat="47.27122" lon="-1.6563">
        <ele>45.9</ele>
        <time>2012-10-28T08:04:12Z</time>
      </trkpt>
      <trkpt lat="47.27123" lon="-1.6563">
        <ele>46.1</ele>
        <time>2012-10-28T08:04:13Z</time>
      </trkpt>
      <trkpt lat="47.27126" lon="-1.65629">
        <ele>46.5</ele>
        <time>2012-10-28T08:04:15Z</time>
      </trkpt>
      <trkpt lat="47.27128" lon="-1.65629">
        <ele>46.7</ele>
        <time>2012-10-28T08:04:16Z</time>
      </trkpt>
      <trkpt lat="47.27129" lon="-1.6563">
        <ele>46.8</ele>
        <time>2012-10-28T08:04:17Z</time>
      </trkpt>
      <trkpt lat="47.27131" lon="-1.65629">
        <ele>46.8</ele>
        <time>2012-10-28T08:04:18Z</time>
      </trkpt>
      <trkpt lat="47.27135" lon="-1.65629">
        <ele>46.6</ele>
        <time>2012-10-28T08:04:20Z</time>
      </trkpt>
      <trkpt lat="47.27137" lon="-1.65629">
        <ele>46.5</ele>
        <time>2012-10-28T08:04:21Z</time>
      </trkpt>
      <trkpt lat="47.27138" lon="-1.65629">
        <ele>46.6</ele>
        <time>2012-10-28T08:04:22Z</time>
      </trkpt>
      <trkpt lat="47.2714" lon="-1.65628">
        <ele>46.8</ele>
        <time>2012-10-28T08:04:23Z</time>
      </trkpt>
      <trkpt lat="47.27142" lon="-1.65629">
        <ele>47.1</ele>
        <time>2012-10-28T08:04:24Z</time>
      </trkpt>
      <trkpt lat="47.27143" lon="-1.65629">
        <ele>47.3</ele>
        <time>2012-10-28T08:04:25Z</time>
      </trkpt>
      <trkpt lat="47.27145" lon="-1.65629">
        <ele>47.5</ele>
        <time>2012-10-28T08:04:26Z</time>
      </trkpt>
      <trkpt lat="47.27149" lon="-1.6563">
        <ele>47.1</ele>
        <time>2012-10-28T08:04:28Z</time>
      </trkpt>
      <trkpt lat="47.27155" lon="-1.6563">
        <ele>46.8</ele>
        <time>2012-10-28T08:04:31Z</time>
      </trkpt>
      <trkpt lat="47.27161" lon="-1.65631">
        <ele>47.7</ele>
        <time>2012-10-28T08:04:34Z</time>
      </trkpt>
      <trkpt lat="47.27162" lon="-1.65632">
        <ele>47.8</ele>
        <time>2012-10-28T08:04:35Z</time>
      </trkpt>
      <trkpt lat="47.27166" lon="-1.65634">
        <ele>48</ele>
        <time>2012-10-28T08:04:37Z</time>
      </trkpt>
      <trkpt lat="47.27169" lon="-1.65634">
        <ele>48.1</ele>
        <time>2012-10-28T08:04:38Z</time>
      </trkpt>
      <trkpt lat="47.27184" lon="-1.65637">
        <ele>48</ele>
        <time>2012-10-28T08:04:46Z</time>
      </trkpt>
      <trkpt lat="47.27185" lon="-1.65638">
        <ele>48</ele>
        <time>2012-10-28T08:04:47Z</time>
      </trkpt>
      <trkpt lat="47.27187" lon="-1.65638">
        <ele>48.1</ele>
        <time>2012-10-28T08:04:48Z</time>
      </trkpt>
      <trkpt lat="47.27196" lon="-1.65639">
        <ele>48.4</ele>
        <time>2012-10-28T08:04:52Z</time>
      </trkpt>
      <trkpt lat="47.27198" lon="-1.65639">
        <ele>48.4</ele>
        <time>2012-10-28T08:04:53Z</time>
      </trkpt>
      <trkpt lat="47.272" lon="-1.65639">
        <ele>48.4</ele>
        <time>2012-10-28T08:04:54Z</time>
      </trkpt>
      <trkpt lat="47.2721" lon="-1.65637">
        <ele>49.2</ele>
        <time>2012-10-28T08:04:59Z</time>
      </trkpt>
      <trkpt lat="47.27215" lon="-1.65635">
        <ele>49.2</ele>
        <time>2012-10-28T08:05:01Z</time>
      </trkpt>
      <trkpt lat="47.27221" lon="-1.65631">
        <ele>49.4</ele>
        <time>2012-10-28T08:05:04Z</time>
      </trkpt>
      <trkpt lat="47.27223" lon="-1.65632">
        <ele>49.5</ele>
        <time>2012-10-28T08:05:05Z</time>
      </trkpt>
      <trkpt lat="47.27225" lon="-1.65632">
        <ele>49.6</ele>
        <time>2012-10-28T08:05:06Z</time>
      </trkpt>
      <trkpt lat="47.27227" lon="-1.65634">
        <ele>50.1</ele>
        <time>2012-10-28T08:05:07Z</time>
      </trkpt>
      <trkpt lat="47.27229" lon="-1.65636">
        <ele>50.5</ele>
        <time>2012-10-28T08:05:08Z</time>
      </trkpt>
      <trkpt lat="47.27272" lon="-1.65685">
        <ele>52.6</ele>
        <time>2012-10-28T08:05:26Z</time>
      </trkpt>
      <trkpt lat="47.27287" lon="-1.65702">
        <ele>53.3</ele>
        <time>2012-10-28T08:05:31Z</time>
      </trkpt>
      <trkpt lat="47.2729" lon="-1.65706">
        <ele>53.2</ele>
        <time>2012-10-28T08:05:32Z</time>
      </trkpt>
      <trkpt lat="47.2732" lon="-1.65755">
        <ele>52.3</ele>
        <time>2012-10-28T08:05:44Z</time>
      </trkpt>
      <trkpt lat="47.27326" lon="-1.65763">
        <ele>53.5</ele>
        <time>2012-10-28T08:05:46Z</time>
      </trkpt>
      <trkpt lat="47.274" lon="-1.65856">
        <ele>57.5</ele>
        <time>2012-10-28T08:06:19Z</time>
      </trkpt>
      <trkpt lat="47.27401" lon="-1.65859">
        <ele>57.6</ele>
        <time>2012-10-28T08:06:20Z</time>
      </trkpt>
      <trkpt lat="47.27405" lon="-1.65865">
        <ele>57.6</ele>
        <time>2012-10-28T08:06:22Z</time>
      </trkpt>
      <trkpt lat="47.27428" lon="-1.65904">
        <ele>58.2</ele>
        <time>2012-10-28T08:06:34Z</time>
      </trkpt>
      <trkpt lat="47.27439" lon="-1.65921">
        <ele>59.8</ele>
        <time>2012-10-28T08:06:39Z</time>
      </trkpt>
      <trkpt lat="47.27441" lon="-1.65923">
        <ele>59.9</ele>
        <time>2012-10-28T08:06:40Z</time>
      </trkpt>
      <trkpt lat="47.27443" lon="-1.65925">
        <ele>60</ele>
        <time>2012-10-28T08:06:41Z</time>
      </trkpt>
      <trkpt lat="47.27445" lon="-1.65924">
        <ele>60.5</ele>
        <time>2012-10-28T08:06:42Z</time>
      </trkpt>
      <trkpt lat="47.27447" lon="-1.65922">
        <ele>61</ele>
        <time>2012-10-28T08:06:43Z</time>
      </trkpt>
      <trkpt lat="47.27459" lon="-1.65911">
        <ele>61</ele>
        <time>2012-10-28T08:06:48Z</time>
      </trkpt>
      <trkpt lat="47.27461" lon="-1.65909">
        <ele>60.5</ele>
        <time>2012-10-28T08:06:49Z</time>
      </trkpt>
      <trkpt lat="47.27485" lon="-1.65896">
        <ele>60.7</ele>
        <time>2012-10-28T08:06:57Z</time>
      </trkpt>
      <trkpt lat="47.27511" lon="-1.65884">
        <ele>60.9</ele>
        <time>2012-10-28T08:07:05Z</time>
      </trkpt>
      <trkpt lat="47.27524" lon="-1.65879">
        <ele>62</ele>
        <time>2012-10-28T08:07:09Z</time>
      </trkpt>
      <trkpt lat="47.27528" lon="-1.65876">
        <ele>62.2</ele>
        <time>2012-10-28T08:07:10Z</time>
      </trkpt>
      <trkpt lat="47.27531" lon="-1.65874">
        <ele>62.4</ele>
        <time>2012-10-28T08:07:11Z</time>
      </trkpt>
      <trkpt lat="47.27535" lon="-1.65872">
        <ele>62.6</ele>
        <time>2012-10-28T08:07:12Z</time>
      </trkpt>
      <trkpt lat="47.27584" lon="-1.6585">
        <ele>62.7</ele>
        <time>2012-10-28T08:07:24Z</time>
      </trkpt>
      <trkpt lat="47.27589" lon="-1.65847">
        <ele>62.3</ele>
        <time>2012-10-28T08:07:25Z</time>
      </trkpt>
      <trkpt lat="47.27598" lon="-1.65839">
        <ele>61.7</ele>
        <time>2012-10-28T08:07:27Z</time>
      </trkpt>
      <trkpt lat="47.27602" lon="-1.65834">
        <ele>61.6</ele>
        <time>2012-10-28T08:07:28Z</time>
      </trkpt>
      <trkpt lat="47.27606" lon="-1.65827">
        <ele>61.2</ele>
        <time>2012-10-28T08:07:29Z</time>
      </trkpt>
      <trkpt lat="47.27608" lon="-1.6582">
        <ele>61</ele>
        <time>2012-10-28T08:07:30Z</time>
      </trkpt>
      <trkpt lat="47.2761" lon="-1.65811">
        <ele>60.8</ele>
        <time>2012-10-28T08:07:31Z</time>
      </trkpt>
      <trkpt lat="47.27612" lon="-1.65803">
        <ele>60.5</ele>
        <time>2012-10-28T08:07:32Z</time>
      </trkpt>
      <trkpt lat="47.27614" lon="-1.65785">
        <ele>60.2</ele>
        <time>2012-10-28T08:07:34Z</time>
      </trkpt>
      <trkpt lat="47.27618" lon="-1.6573">
        <ele>58.5</ele>
        <time>2012-10-28T08:07:40Z</time>
      </trkpt>
      <trkpt lat="47.27618" lon="-1.65721">
        <ele>58.5</ele>
        <time>2012-10-28T08:07:41Z</time>
      </trkpt>
      <trkpt lat="47.27617" lon="-1.65711">
        <ele>58.5</ele>
        <time>2012-10-28T08:07:42Z</time>
      </trkpt>
      <trkpt lat="47.27616" lon="-1.65702">
        <ele>58.5</ele>
        <time>2012-10-28T08:07:43Z</time>
      </trkpt>
      <trkpt lat="47.27612" lon="-1.65684">
        <ele>57.9</ele>
        <time>2012-10-28T08:07:45Z</time>
      </trkpt>
      <trkpt lat="47.2761" lon="-1.65676">
        <ele>57.4</ele>
        <time>2012-10-28T08:07:46Z</time>
      </trkpt>
      <trkpt lat="47.27574" lon="-1.6555">
        <ele>55.7</ele>
        <time>2012-10-28T08:08:01Z</time>
      </trkpt>
      <trkpt lat="47.27572" lon="-1.65541">
        <ele>55.3</ele>
        <time>2012-10-28T08:08:02Z</time>
      </trkpt>
      <trkpt lat="47.27569" lon="-1.65501">
        <ele>54.4</ele>
        <time>2012-10-28T08:08:06Z</time>
      </trkpt>
      <trkpt lat="47.27566" lon="-1.65469">
        <ele>54.2</ele>
        <time>2012-10-28T08:08:09Z</time>
      </trkpt>
      <trkpt lat="47.27564" lon="-1.65458">
        <ele>53.9</ele>
        <time>2012-10-28T08:08:10Z</time>
      </trkpt>
      <trkpt lat="47.27561" lon="-1.65448">
        <ele>53.7</ele>
        <time>2012-10-28T08:08:11Z</time>
      </trkpt>
      <trkpt lat="47.27557" lon="-1.65438">
        <ele>52.7</ele>
        <time>2012-10-28T08:08:12Z</time>
      </trkpt>
      <trkpt lat="47.27553" lon="-1.65429">
        <ele>51.9</ele>
        <time>2012-10-28T08:08:13Z</time>
      </trkpt>
      <trkpt lat="47.27549" lon="-1.6542">
        <ele>51.3</ele>
        <time>2012-10-28T08:08:14Z</time>
      </trkpt>
      <trkpt lat="47.27522" lon="-1.65371">
        <ele>53.2</ele>
        <time>2012-10-28T08:08:21Z</time>
      </trkpt>
      <trkpt lat="47.2752" lon="-1.65365">
        <ele>52.8</ele>
        <time>2012-10-28T08:08:22Z</time>
      </trkpt>
      <trkpt lat="47.27516" lon="-1.65352">
        <ele>52.8</ele>
        <time>2012-10-28T08:08:24Z</time>
      </trkpt>
      <trkpt lat="47.27515" lon="-1.65345">
        <ele>53.1</ele>
        <time>2012-10-28T08:08:25Z</time>
      </trkpt>
      <trkpt lat="47.27511" lon="-1.65318">
        <ele>53.8</ele>
        <time>2012-10-28T08:08:29Z</time>
      </trkpt>
      <trkpt lat="47.2751" lon="-1.65312">
        <ele>53.9</ele>
        <time>2012-10-28T08:08:30Z</time>
      </trkpt>
      <trkpt lat="47.2751" lon="-1.65298">
        <ele>54.4</ele>
        <time>2012-10-28T08:08:32Z</time>
      </trkpt>
      <trkpt lat="47.2751" lon="-1.65291">
        <ele>54.5</ele>
        <time>2012-10-28T08:08:33Z</time>
      </trkpt>
      <trkpt lat="47.27512" lon="-1.65271">
        <ele>54.6</ele>
        <time>2012-10-28T08:08:36Z</time>
      </trkpt>
      <trkpt lat="47.27513" lon="-1.65264">
        <ele>54.8</ele>
        <time>2012-10-28T08:08:37Z</time>
      </trkpt>
      <trkpt lat="47.27516" lon="-1.65251">
        <ele>54.9</ele>
        <time>2012-10-28T08:08:39Z</time>
      </trkpt>
      <trkpt lat="47.2752" lon="-1.65239">
        <ele>55.2</ele>
        <time>2012-10-28T08:08:41Z</time>
      </trkpt>
      <trkpt lat="47.27526" lon="-1.65221">
        <ele>54.9</ele>
        <time>2012-10-28T08:08:44Z</time>
      </trkpt>
      <trkpt lat="47.27549" lon="-1.65158">
        <ele>56.6</ele>
        <time>2012-10-28T08:08:55Z</time>
      </trkpt>
      <trkpt lat="47.2755" lon="-1.65152">
        <ele>56.5</ele>
        <time>2012-10-28T08:08:56Z</time>
      </trkpt>
      <trkpt lat="47.27554" lon="-1.65134">
        <ele>57.2</ele>
        <time>2012-10-28T08:08:59Z</time>
      </trkpt>
      <trkpt lat="47.27554" lon="-1.65128">
        <ele>57.4</ele>
        <time>2012-10-28T08:09:00Z</time>
      </trkpt>
      <trkpt lat="47.27556" lon="-1.65123">
        <ele>57.6</ele>
        <time>2012-10-28T08:09:01Z</time>
      </trkpt>
      <trkpt lat="47.27559" lon="-1.65121">
        <ele>57.6</ele>
        <time>2012-10-28T08:09:02Z</time>
      </trkpt>
      <trkpt lat="47.27561" lon="-1.65122">
        <ele>57.6</ele>
        <time>2012-10-28T08:09:03Z</time>
      </trkpt>
      <trkpt lat="47.27564" lon="-1.65124">
        <ele>57.8</ele>
        <time>2012-10-28T08:09:04Z</time>
      </trkpt>
      <trkpt lat="47.27566" lon="-1.65126">
        <ele>57.9</ele>
        <time>2012-10-28T08:09:05Z</time>
      </trkpt>
      <trkpt lat="47.27568" lon="-1.6513">
        <ele>58</ele>
        <time>2012-10-28T08:09:06Z</time>
      </trkpt>
      <trkpt lat="47.2757" lon="-1.65134">
        <ele>58</ele>
        <time>2012-10-28T08:09:07Z</time>
      </trkpt>
      <trkpt lat="47.27572" lon="-1.65138">
        <ele>58.1</ele>
        <time>2012-10-28T08:09:08Z</time>
      </trkpt>
      <trkpt lat="47.27577" lon="-1.65152">
        <ele>59.1</ele>
        <time>2012-10-28T08:09:11Z</time>
      </trkpt>
      <trkpt lat="47.27581" lon="-1.65163">
        <ele>58.8</ele>
        <time>2012-10-28T08:09:13Z</time>
      </trkpt>
      <trkpt lat="47.27595" lon="-1.65197">
        <ele>59.7</ele>
        <time>2012-10-28T08:09:20Z</time>
      </trkpt>
      <trkpt lat="47.27605" lon="-1.65217">
        <ele>59.8</ele>
        <time>2012-10-28T08:09:24Z</time>
      </trkpt>
      <trkpt lat="47.27618" lon="-1.65237">
        <ele>60.6</ele>
        <time>2012-10-28T08:09:28Z</time>
      </trkpt>
      <trkpt lat="47.27621" lon="-1.65241">
        <ele>60.7</ele>
        <time>2012-10-28T08:09:29Z</time>
      </trkpt>
      <trkpt lat="47.27627" lon="-1.65249">
        <ele>60.5</ele>
        <time>2012-10-28T08:09:31Z</time>
      </trkpt>
      <trkpt lat="47.27629" lon="-1.65254">
        <ele>60.4</ele>
        <time>2012-10-28T08:09:32Z</time>
      </trkpt>
      <trkpt lat="47.27631" lon="-1.65258">
        <ele>59.8</ele>
        <time>2012-10-28T08:09:33Z</time>
      </trkpt>
      <trkpt lat="47.27632" lon="-1.65263">
        <ele>59.4</ele>
        <time>2012-10-28T08:09:34Z</time>
      </trkpt>
      <trkpt lat="47.27633" lon="-1.65269">
        <ele>58.8</ele>
        <time>2012-10-28T08:09:35Z</time>
      </trkpt>
      <trkpt lat="47.27633" lon="-1.65281">
        <ele>57.9</ele>
        <time>2012-10-28T08:09:37Z</time>
      </trkpt>
      <trkpt lat="47.27634" lon="-1.65295">
        <ele>56.5</ele>
        <time>2012-10-28T08:09:39Z</time>
      </trkpt>
      <trkpt lat="47.27635" lon="-1.65301">
        <ele>55.8</ele>
        <time>2012-10-28T08:09:40Z</time>
      </trkpt>
      <trkpt lat="47.27637" lon="-1.65308">
        <ele>55.3</ele>
        <time>2012-10-28T08:09:41Z</time>
      </trkpt>
      <trkpt lat="47.2764" lon="-1.65314">
        <ele>54.8</ele>
        <time>2012-10-28T08:09:42Z</time>
      </trkpt>
      <trkpt lat="47.27643" lon="-1.65318">
        <ele>54.4</ele>
        <time>2012-10-28T08:09:43Z</time>
      </trkpt>
      <trkpt lat="47.27645" lon="-1.65321">
        <ele>54.1</ele>
        <time>2012-10-28T08:09:44Z</time>
      </trkpt>
      <trkpt lat="47.2765" lon="-1.65324">
        <ele>53.8</ele>
        <time>2012-10-28T08:09:46Z</time>
      </trkpt>
      <trkpt lat="47.27658" lon="-1.65331">
        <ele>52.9</ele>
        <time>2012-10-28T08:09:49Z</time>
      </trkpt>
      <trkpt lat="47.27661" lon="-1.65332">
        <ele>53.1</ele>
        <time>2012-10-28T08:09:50Z</time>
      </trkpt>
      <trkpt lat="47.27663" lon="-1.65332">
        <ele>53.2</ele>
        <time>2012-10-28T08:09:51Z</time>
      </trkpt>
      <trkpt lat="47.27666" lon="-1.65331">
        <ele>53.1</ele>
        <time>2012-10-28T08:09:52Z</time>
      </trkpt>
      <trkpt lat="47.27669" lon="-1.65333">
        <ele>53</ele>
        <time>2012-10-28T08:09:53Z</time>
      </trkpt>
      <trkpt lat="47.27671" lon="-1.65335">
        <ele>52.9</ele>
        <time>2012-10-28T08:09:54Z</time>
      </trkpt>
      <trkpt lat="47.27673" lon="-1.65338">
        <ele>52.8</ele>
        <time>2012-10-28T08:09:55Z</time>
      </trkpt>
      <trkpt lat="47.27677" lon="-1.65349">
        <ele>52.9</ele>
        <time>2012-10-28T08:09:58Z</time>
      </trkpt>
      <trkpt lat="47.27682" lon="-1.65361">
        <ele>54.2</ele>
        <time>2012-10-28T08:10:02Z</time>
      </trkpt>
      <trkpt lat="47.27693" lon="-1.65389">
        <ele>56.1</ele>
        <time>2012-10-28T08:10:09Z</time>
      </trkpt>
      <trkpt lat="47.27697" lon="-1.65402">
        <ele>57.2</ele>
        <time>2012-10-28T08:10:12Z</time>
      </trkpt>
      <trkpt lat="47.27699" lon="-1.6541">
        <ele>57.4</ele>
        <time>2012-10-28T08:10:14Z</time>
      </trkpt>
      <trkpt lat="47.277" lon="-1.65413">
        <ele>57.4</ele>
        <time>2012-10-28T08:10:15Z</time>
      </trkpt>
      <trkpt lat="47.27702" lon="-1.65416">
        <ele>57.9</ele>
        <time>2012-10-28T08:10:16Z</time>
      </trkpt>
      <trkpt lat="47.27705" lon="-1.65419">
        <ele>58.3</ele>
        <time>2012-10-28T08:10:17Z</time>
      </trkpt>
      <trkpt lat="47.27718" lon="-1.65432">
        <ele>57.9</ele>
        <time>2012-10-28T08:10:22Z</time>
      </trkpt>
      <trkpt lat="47.2772" lon="-1.65434">
        <ele>58.5</ele>
        <time>2012-10-28T08:10:23Z</time>
      </trkpt>
      <trkpt lat="47.27723" lon="-1.65436">
        <ele>58.9</ele>
        <time>2012-10-28T08:10:24Z</time>
      </trkpt>
      <trkpt lat="47.27727" lon="-1.65437">
        <ele>58.8</ele>
        <time>2012-10-28T08:10:25Z</time>
      </trkpt>
      <trkpt lat="47.2773" lon="-1.65438">
        <ele>58.8</ele>
        <time>2012-10-28T08:10:26Z</time>
      </trkpt>
      <trkpt lat="47.27734" lon="-1.65438">
        <ele>58.8</ele>
        <time>2012-10-28T08:10:27Z</time>
      </trkpt>
      <trkpt lat="47.27737" lon="-1.65438">
        <ele>58.8</ele>
        <time>2012-10-28T08:10:28Z</time>
      </trkpt>
      <trkpt lat="47.27751" lon="-1.65436">
        <ele>58.9</ele>
        <time>2012-10-28T08:10:32Z</time>
      </trkpt>
      <trkpt lat="47.27755" lon="-1.65437">
        <ele>58.7</ele>
        <time>2012-10-28T08:10:33Z</time>
      </trkpt>
      <trkpt lat="47.27758" lon="-1.65438">
        <ele>58.6</ele>
        <time>2012-10-28T08:10:34Z</time>
      </trkpt>
      <trkpt lat="47.27825" lon="-1.65456">
        <ele>59.8</ele>
        <time>2012-10-28T08:10:51Z</time>
      </trkpt>
      <trkpt lat="47.2783" lon="-1.65457">
        <ele>59.8</ele>
        <time>2012-10-28T08:10:52Z</time>
      </trkpt>
      <trkpt lat="47.27834" lon="-1.65457">
        <ele>59.8</ele>
        <time>2012-10-28T08:10:53Z</time>
      </trkpt>
      <trkpt lat="47.27844" lon="-1.65458">
        <ele>59.2</ele>
        <time>2012-10-28T08:10:55Z</time>
      </trkpt>
      <trkpt lat="47.2785" lon="-1.65459">
        <ele>58.9</ele>
        <time>2012-10-28T08:10:56Z</time>
      </trkpt>
      <trkpt lat="47.27868" lon="-1.65467">
        <ele>57.5</ele>
        <time>2012-10-28T08:11:00Z</time>
      </trkpt>
      <trkpt lat="47.27872" lon="-1.65469">
        <ele>57.4</ele>
        <time>2012-10-28T08:11:01Z</time>
      </trkpt>
      <trkpt lat="47.2788" lon="-1.65476">
        <ele>57.3</ele>
        <time>2012-10-28T08:11:03Z</time>
      </trkpt>
      <trkpt lat="47.27883" lon="-1.65479">
        <ele>57.3</ele>
        <time>2012-10-28T08:11:04Z</time>
      </trkpt>
      <trkpt lat="47.27884" lon="-1.65483">
        <ele>57.2</ele>
        <time>2012-10-28T08:11:05Z</time>
      </trkpt>
      <trkpt lat="47.27892" lon="-1.65501">
        <ele>57.3</ele>
        <time>2012-10-28T08:11:09Z</time>
      </trkpt>
      <trkpt lat="47.27894" lon="-1.65506">
        <ele>57.5</ele>
        <time>2012-10-28T08:11:10Z</time>
      </trkpt>
      <trkpt lat="47.27896" lon="-1.65511">
        <ele>57.7</ele>
        <time>2012-10-28T08:11:11Z</time>
      </trkpt>
      <trkpt lat="47.27896" lon="-1.65516">
        <ele>57.8</ele>
        <time>2012-10-28T08:11:12Z</time>
      </trkpt>
      <trkpt lat="47.27897" lon="-1.65522">
        <ele>58</ele>
        <time>2012-10-28T08:11:13Z</time>
      </trkpt>
      <trkpt lat="47.27907" lon="-1.65601">
        <ele>59</ele>
        <time>2012-10-28T08:11:28Z</time>
      </trkpt>
      <trkpt lat="47.27913" lon="-1.65651">
        <ele>59.5</ele>
        <time>2012-10-28T08:11:37Z</time>
      </trkpt>
      <trkpt lat="47.27913" lon="-1.65656">
        <ele>59.5</ele>
        <time>2012-10-28T08:11:38Z</time>
      </trkpt>
      <trkpt lat="47.27913" lon="-1.65754">
        <ele>61</ele>
        <time>2012-10-28T08:11:54Z</time>
      </trkpt>
      <trkpt lat="47.27915" lon="-1.65822">
        <ele>61.6</ele>
        <time>2012-10-28T08:12:05Z</time>
      </trkpt>
      <trkpt lat="47.27914" lon="-1.65829">
        <ele>61.6</ele>
        <time>2012-10-28T08:12:06Z</time>
      </trkpt>
      <trkpt lat="47.27913" lon="-1.65847">
        <ele>62.2</ele>
        <time>2012-10-28T08:12:09Z</time>
      </trkpt>
      <trkpt lat="47.27913" lon="-1.6586">
        <ele>62.1</ele>
        <time>2012-10-28T08:12:11Z</time>
      </trkpt>
      <trkpt lat="47.27913" lon="-1.65867">
        <ele>62.1</ele>
        <time>2012-10-28T08:12:12Z</time>
      </trkpt>
      <trkpt lat="47.27916" lon="-1.65891">
        <ele>62.5</ele>
        <time>2012-10-28T08:12:16Z</time>
      </trkpt>
      <trkpt lat="47.27924" lon="-1.65952">
        <ele>63.4</ele>
        <time>2012-10-28T08:12:27Z</time>
      </trkpt>
      <trkpt lat="47.27924" lon="-1.65957">
        <ele>63.8</ele>
        <time>2012-10-28T08:12:28Z</time>
      </trkpt>
      <trkpt lat="47.27924" lon="-1.65976">
        <ele>63.7</ele>
        <time>2012-10-28T08:12:31Z</time>
      </trkpt>
      <trkpt lat="47.27923" lon="-1.65994">
        <ele>63.9</ele>
        <time>2012-10-28T08:12:34Z</time>
      </trkpt>
      <trkpt lat="47.27924" lon="-1.65999">
        <ele>64.1</ele>
        <time>2012-10-28T08:12:35Z</time>
      </trkpt>
      <trkpt lat="47.27926" lon="-1.66005">
        <ele>63.9</ele>
        <time>2012-10-28T08:12:36Z</time>
      </trkpt>
      <trkpt lat="47.27928" lon="-1.6601">
        <ele>63.7</ele>
        <time>2012-10-28T08:12:37Z</time>
      </trkpt>
      <trkpt lat="47.27933" lon="-1.6602">
        <ele>63.5</ele>
        <time>2012-10-28T08:12:39Z</time>
      </trkpt>
      <trkpt lat="47.27935" lon="-1.66025">
        <ele>63.6</ele>
        <time>2012-10-28T08:12:40Z</time>
      </trkpt>
      <trkpt lat="47.27938" lon="-1.66035">
        <ele>63.7</ele>
        <time>2012-10-28T08:12:42Z</time>
      </trkpt>
      <trkpt lat="47.27946" lon="-1.66062">
        <ele>64</ele>
        <time>2012-10-28T08:12:47Z</time>
      </trkpt>
      <trkpt lat="47.27949" lon="-1.66067">
        <ele>63.7</ele>
        <time>2012-10-28T08:12:48Z</time>
      </trkpt>
      <trkpt lat="47.27952" lon="-1.6607">
        <ele>63.5</ele>
        <time>2012-10-28T08:12:49Z</time>
      </trkpt>
      <trkpt lat="47.27955" lon="-1.66073">
        <ele>63.4</ele>
        <time>2012-10-28T08:12:50Z</time>
      </trkpt>
      <trkpt lat="47.27959" lon="-1.66075">
        <ele>63.3</ele>
        <time>2012-10-28T08:12:51Z</time>
      </trkpt>
      <trkpt lat="47.27963" lon="-1.66076">
        <ele>63.3</ele>
        <time>2012-10-28T08:12:52Z</time>
      </trkpt>
      <trkpt lat="47.27967" lon="-1.66078">
        <ele>63.3</ele>
        <time>2012-10-28T08:12:53Z</time>
      </trkpt>
      <trkpt lat="47.27972" lon="-1.66078">
        <ele>63.3</ele>
        <time>2012-10-28T08:12:54Z</time>
      </trkpt>
      <trkpt lat="47.27977" lon="-1.66078">
        <ele>63.3</ele>
        <time>2012-10-28T08:12:55Z</time>
      </trkpt>
      <trkpt lat="47.28011" lon="-1.66076">
        <ele>63.5</ele>
        <time>2012-10-28T08:13:02Z</time>
      </trkpt>
      <trkpt lat="47.28016" lon="-1.66076">
        <ele>63.7</ele>
        <time>2012-10-28T08:13:03Z</time>
      </trkpt>
      <trkpt lat="47.28027" lon="-1.66077">
        <ele>62.8</ele>
        <time>2012-10-28T08:13:05Z</time>
      </trkpt>
      <trkpt lat="47.28032" lon="-1.66077">
        <ele>62.9</ele>
        <time>2012-10-28T08:13:06Z</time>
      </trkpt>
      <trkpt lat="47.28043" lon="-1.66077">
        <ele>63</ele>
        <time>2012-10-28T08:13:08Z</time>
      </trkpt>
      <trkpt lat="47.28048" lon="-1.66077">
        <ele>62.7</ele>
        <time>2012-10-28T08:13:09Z</time>
      </trkpt>
      <trkpt lat="47.28068" lon="-1.66078">
        <ele>61.4</ele>
        <time>2012-10-28T08:13:13Z</time>
      </trkpt>
      <trkpt lat="47.28073" lon="-1.66078">
        <ele>61.7</ele>
        <time>2012-10-28T08:13:14Z</time>
      </trkpt>
      <trkpt lat="47.28084" lon="-1.66078">
        <ele>61.9</ele>
        <time>2012-10-28T08:13:16Z</time>
      </trkpt>
      <trkpt lat="47.28089" lon="-1.66078">
        <ele>61.9</ele>
        <time>2012-10-28T08:13:17Z</time>
      </trkpt>
      <trkpt lat="47.28118" lon="-1.6608">
        <ele>61</ele>
        <time>2012-10-28T08:13:23Z</time>
      </trkpt>
      <trkpt lat="47.28123" lon="-1.6608">
        <ele>61</ele>
        <time>2012-10-28T08:13:24Z</time>
      </trkpt>
      <trkpt lat="47.28128" lon="-1.6608">
        <ele>61.1</ele>
        <time>2012-10-28T08:13:25Z</time>
      </trkpt>
      <trkpt lat="47.28133" lon="-1.6608">
        <ele>61.1</ele>
        <time>2012-10-28T08:13:26Z</time>
      </trkpt>
      <trkpt lat="47.28147" lon="-1.66081">
        <ele>60.1</ele>
        <time>2012-10-28T08:13:29Z</time>
      </trkpt>
      <trkpt lat="47.28152" lon="-1.66081">
        <ele>60.6</ele>
        <time>2012-10-28T08:13:30Z</time>
      </trkpt>
      <trkpt lat="47.28157" lon="-1.66081">
        <ele>60.9</ele>
        <time>2012-10-28T08:13:31Z</time>
      </trkpt>
      <trkpt lat="47.28162" lon="-1.66081">
        <ele>61.2</ele>
        <time>2012-10-28T08:13:32Z</time>
      </trkpt>
      <trkpt lat="47.28166" lon="-1.66082">
        <ele>60.9</ele>
        <time>2012-10-28T08:13:33Z</time>
      </trkpt>
      <trkpt lat="47.28171" lon="-1.66082">
        <ele>60.8</ele>
        <time>2012-10-28T08:13:34Z</time>
      </trkpt>
      <trkpt lat="47.28185" lon="-1.66081">
        <ele>61.1</ele>
        <time>2012-10-28T08:13:37Z</time>
      </trkpt>
      <trkpt lat="47.28331" lon="-1.66073">
        <ele>62.5</ele>
        <time>2012-10-28T08:14:09Z</time>
      </trkpt>
      <trkpt lat="47.28335" lon="-1.66073">
        <ele>62.7</ele>
        <time>2012-10-28T08:14:10Z</time>
      </trkpt>
      <trkpt lat="47.28339" lon="-1.66073">
        <ele>62.7</ele>
        <time>2012-10-28T08:14:11Z</time>
      </trkpt>
      <trkpt lat="47.28364" lon="-1.66075">
        <ele>62.9</ele>
        <time>2012-10-28T08:14:17Z</time>
      </trkpt>
      <trkpt lat="47.28368" lon="-1.66074">
        <ele>63</ele>
        <time>2012-10-28T08:14:18Z</time>
      </trkpt>
      <trkpt lat="47.28372" lon="-1.66074">
        <ele>63</ele>
        <time>2012-10-28T08:14:19Z</time>
      </trkpt>
      <trkpt lat="47.28375" lon="-1.66074">
        <ele>63.1</ele>
        <time>2012-10-28T08:14:20Z</time>
      </trkpt>
      <trkpt lat="47.28403" lon="-1.66076">
        <ele>63.7</ele>
        <time>2012-10-28T08:14:27Z</time>
      </trkpt>
      <trkpt lat="47.28408" lon="-1.66076">
        <ele>63.6</ele>
        <time>2012-10-28T08:14:28Z</time>
      </trkpt>
      <trkpt lat="47.28522" lon="-1.66066">
        <ele>64.6</ele>
        <time>2012-10-28T08:14:55Z</time>
      </trkpt>
      <trkpt lat="47.28526" lon="-1.66067">
        <ele>64.7</ele>
        <time>2012-10-28T08:14:56Z</time>
      </trkpt>
      <trkpt lat="47.28529" lon="-1.66069">
        <ele>64.8</ele>
        <time>2012-10-28T08:14:57Z</time>
      </trkpt>
      <trkpt lat="47.28532" lon="-1.66071">
        <ele>64.9</ele>
        <time>2012-10-28T08:14:58Z</time>
      </trkpt>
      <trkpt lat="47.28535" lon="-1.66074">
        <ele>64.9</ele>
        <time>2012-10-28T08:14:59Z</time>
      </trkpt>
      <trkpt lat="47.28537" lon="-1.66079">
        <ele>65.2</ele>
        <time>2012-10-28T08:15:00Z</time>
      </trkpt>
      <trkpt lat="47.28539" lon="-1.66084">
        <ele>65.3</ele>
        <time>2012-10-28T08:15:01Z</time>
      </trkpt>
      <trkpt lat="47.28541" lon="-1.6609">
        <ele>65.5</ele>
        <time>2012-10-28T08:15:02Z</time>
      </trkpt>
      <trkpt lat="47.28542" lon="-1.66095">
        <ele>65</ele>
        <time>2012-10-28T08:15:03Z</time>
      </trkpt>
      <trkpt lat="47.28548" lon="-1.66131">
        <ele>64.4</ele>
        <time>2012-10-28T08:15:09Z</time>
      </trkpt>
      <trkpt lat="47.28564" lon="-1.66243">
        <ele>66.2</ele>
        <time>2012-10-28T08:15:26Z</time>
      </trkpt>
      <trkpt lat="47.28565" lon="-1.66249">
        <ele>66.6</ele>
        <time>2012-10-28T08:15:27Z</time>
      </trkpt>
      <trkpt lat="47.28573" lon="-1.66349">
        <ele>67.9</ele>
        <time>2012-10-28T08:15:43Z</time>
      </trkpt>
      <trkpt lat="47.28573" lon="-1.66362">
        <ele>68.3</ele>
        <time>2012-10-28T08:15:45Z</time>
      </trkpt>
      <trkpt lat="47.28574" lon="-1.66368">
        <ele>68.5</ele>
        <time>2012-10-28T08:15:46Z</time>
      </trkpt>
      <trkpt lat="47.28577" lon="-1.66373">
        <ele>68.6</ele>
        <time>2012-10-28T08:15:47Z</time>
      </trkpt>
      <trkpt lat="47.2858" lon="-1.66375">
        <ele>68.4</ele>
        <time>2012-10-28T08:15:48Z</time>
      </trkpt>
      <trkpt lat="47.28584" lon="-1.66375">
        <ele>68.2</ele>
        <time>2012-10-28T08:15:49Z</time>
      </trkpt>
      <trkpt lat="47.28588" lon="-1.66373">
        <ele>67.9</ele>
        <time>2012-10-28T08:15:50Z</time>
      </trkpt>
      <trkpt lat="47.28601" lon="-1.66369">
        <ele>67.5</ele>
        <time>2012-10-28T08:15:53Z</time>
      </trkpt>
      <trkpt lat="47.28606" lon="-1.66369">
        <ele>67.6</ele>
        <time>2012-10-28T08:15:54Z</time>
      </trkpt>
      <trkpt lat="47.28611" lon="-1.6637">
        <ele>67.5</ele>
        <time>2012-10-28T08:15:55Z</time>
      </trkpt>
      <trkpt lat="47.28616" lon="-1.66372">
        <ele>67.4</ele>
        <time>2012-10-28T08:15:56Z</time>
      </trkpt>
      <trkpt lat="47.28619" lon="-1.66375">
        <ele>67.6</ele>
        <time>2012-10-28T08:15:57Z</time>
      </trkpt>
      <trkpt lat="47.28631" lon="-1.66384">
        <ele>68.1</ele>
        <time>2012-10-28T08:16:00Z</time>
      </trkpt>
      <trkpt lat="47.28636" lon="-1.66383">
        <ele>68.2</ele>
        <time>2012-10-28T08:16:01Z</time>
      </trkpt>
      <trkpt lat="47.2864" lon="-1.66381">
        <ele>68.3</ele>
        <time>2012-10-28T08:16:02Z</time>
      </trkpt>
      <trkpt lat="47.28644" lon="-1.66377">
        <ele>68.4</ele>
        <time>2012-10-28T08:16:03Z</time>
      </trkpt>
      <trkpt lat="47.28647" lon="-1.66373">
        <ele>68.3</ele>
        <time>2012-10-28T08:16:04Z</time>
      </trkpt>
      <trkpt lat="47.28922" lon="-1.65982">
        <ele>66.9</ele>
        <time>2012-10-28T08:17:18Z</time>
      </trkpt>
      <trkpt lat="47.28926" lon="-1.65978">
        <ele>67.1</ele>
        <time>2012-10-28T08:17:19Z</time>
      </trkpt>
      <trkpt lat="47.2893" lon="-1.65977">
        <ele>67.2</ele>
        <time>2012-10-28T08:17:20Z</time>
      </trkpt>
      <trkpt lat="47.28934" lon="-1.65978">
        <ele>67.3</ele>
        <time>2012-10-28T08:17:21Z</time>
      </trkpt>
      <trkpt lat="47.28938" lon="-1.6598">
        <ele>67.3</ele>
        <time>2012-10-28T08:17:22Z</time>
      </trkpt>
      <trkpt lat="47.28941" lon="-1.65984">
        <ele>67</ele>
        <time>2012-10-28T08:17:23Z</time>
      </trkpt>
      <trkpt lat="47.28982" lon="-1.66028">
        <ele>67.5</ele>
        <time>2012-10-28T08:17:36Z</time>
      </trkpt>
      <trkpt lat="47.29001" lon="-1.6605">
        <ele>68.5</ele>
        <time>2012-10-28T08:17:42Z</time>
      </trkpt>
      <trkpt lat="47.29019" lon="-1.66076">
        <ele>67.9</ele>
        <time>2012-10-28T08:17:48Z</time>
      </trkpt>
      <trkpt lat="47.29104" lon="-1.66205">
        <ele>67.7</ele>
        <time>2012-10-28T08:18:13Z</time>
      </trkpt>
      <trkpt lat="47.29108" lon="-1.66209">
        <ele>67.2</ele>
        <time>2012-10-28T08:18:14Z</time>
      </trkpt>
      <trkpt lat="47.29112" lon="-1.6621">
        <ele>66.7</ele>
        <time>2012-10-28T08:18:15Z</time>
      </trkpt>
      <trkpt lat="47.29117" lon="-1.6621">
        <ele>66.2</ele>
        <time>2012-10-28T08:18:16Z</time>
      </trkpt>
      <trkpt lat="47.29131" lon="-1.66206">
        <ele>65.5</ele>
        <time>2012-10-28T08:18:19Z</time>
      </trkpt>
      <trkpt lat="47.2916" lon="-1.66197">
        <ele>66.2</ele>
        <time>2012-10-28T08:18:25Z</time>
      </trkpt>
      <trkpt lat="47.29165" lon="-1.66197">
        <ele>66.4</ele>
        <time>2012-10-28T08:18:26Z</time>
      </trkpt>
      <trkpt lat="47.2917" lon="-1.66199">
        <ele>66.1</ele>
        <time>2012-10-28T08:18:27Z</time>
      </trkpt>
      <trkpt lat="47.29175" lon="-1.66203">
        <ele>65.9</ele>
        <time>2012-10-28T08:18:28Z</time>
      </trkpt>
      <trkpt lat="47.29179" lon="-1.66208">
        <ele>66.1</ele>
        <time>2012-10-28T08:18:29Z</time>
      </trkpt>
      <trkpt lat="47.29218" lon="-1.66261">
        <ele>66.2</ele>
        <time>2012-10-28T08:18:39Z</time>
      </trkpt>
      <trkpt lat="47.29222" lon="-1.66267">
        <ele>66.2</ele>
        <time>2012-10-28T08:18:40Z</time>
      </trkpt>
      <trkpt lat="47.29225" lon="-1.66273">
        <ele>65.7</ele>
        <time>2012-10-28T08:18:41Z</time>
      </trkpt>
      <trkpt lat="47.29227" lon="-1.66279">
        <ele>65.3</ele>
        <time>2012-10-28T08:18:42Z</time>
      </trkpt>
      <trkpt lat="47.29228" lon="-1.66286">
        <ele>65.6</ele>
        <time>2012-10-28T08:18:43Z</time>
      </trkpt>
      <trkpt lat="47.2923" lon="-1.66292">
        <ele>65.9</ele>
        <time>2012-10-28T08:18:44Z</time>
      </trkpt>
      <trkpt lat="47.29239" lon="-1.66349">
        <ele>65.9</ele>
        <time>2012-10-28T08:18:53Z</time>
      </trkpt>
      <trkpt lat="47.29241" lon="-1.66354">
        <ele>66.1</ele>
        <time>2012-10-28T08:18:54Z</time>
      </trkpt>
      <trkpt lat="47.29246" lon="-1.66371">
        <ele>66.3</ele>
        <time>2012-10-28T08:18:57Z</time>
      </trkpt>
      <trkpt lat="47.29249" lon="-1.66376">
        <ele>66.2</ele>
        <time>2012-10-28T08:18:58Z</time>
      </trkpt>
      <trkpt lat="47.29251" lon="-1.66381">
        <ele>66.2</ele>
        <time>2012-10-28T08:18:59Z</time>
      </trkpt>
      <trkpt lat="47.29254" lon="-1.66386">
        <ele>66.1</ele>
        <time>2012-10-28T08:19:00Z</time>
      </trkpt>
      <trkpt lat="47.29322" lon="-1.66486">
        <ele>67.5</ele>
        <time>2012-10-28T08:19:23Z</time>
      </trkpt>
      <trkpt lat="47.29325" lon="-1.66491">
        <ele>67.9</ele>
        <time>2012-10-28T08:19:24Z</time>
      </trkpt>
      <trkpt lat="47.29399" lon="-1.66643">
        <ele>69.7</ele>
        <time>2012-10-28T08:19:53Z</time>
      </trkpt>
      <trkpt lat="47.29401" lon="-1.66649">
        <ele>69.5</ele>
        <time>2012-10-28T08:19:54Z</time>
      </trkpt>
      <trkpt lat="47.29403" lon="-1.66654">
        <ele>69.4</ele>
        <time>2012-10-28T08:19:55Z</time>
      </trkpt>
      <trkpt lat="47.29404" lon="-1.66661">
        <ele>69.3</ele>
        <time>2012-10-28T08:19:56Z</time>
      </trkpt>
      <trkpt lat="47.29405" lon="-1.66667">
        <ele>69.6</ele>
        <time>2012-10-28T08:19:57Z</time>
      </trkpt>
      <trkpt lat="47.29408" lon="-1.66718">
        <ele>69.7</ele>
        <time>2012-10-28T08:20:05Z</time>
      </trkpt>
      <trkpt lat="47.29407" lon="-1.66724">
        <ele>70.5</ele>
        <time>2012-10-28T08:20:06Z</time>
      </trkpt>
      <trkpt lat="47.29407" lon="-1.6673">
        <ele>71</ele>
        <time>2012-10-28T08:20:07Z</time>
      </trkpt>
      <trkpt lat="47.29402" lon="-1.6686">
        <ele>70.5</ele>
        <time>2012-10-28T08:20:29Z</time>
      </trkpt>
      <trkpt lat="47.29403" lon="-1.66908">
        <ele>70.8</ele>
        <time>2012-10-28T08:20:37Z</time>
      </trkpt>
      <trkpt lat="47.29401" lon="-1.66913">
        <ele>71.1</ele>
        <time>2012-10-28T08:20:38Z</time>
      </trkpt>
      <trkpt lat="47.29399" lon="-1.66916">
        <ele>71.3</ele>
        <time>2012-10-28T08:20:39Z</time>
      </trkpt>
      <trkpt lat="47.29395" lon="-1.66918">
        <ele>71</ele>
        <time>2012-10-28T08:20:40Z</time>
      </trkpt>
      <trkpt lat="47.29392" lon="-1.66918">
        <ele>70.7</ele>
        <time>2012-10-28T08:20:41Z</time>
      </trkpt>
      <trkpt lat="47.29175" lon="-1.66926">
        <ele>64.9</ele>
        <time>2012-10-28T08:21:22Z</time>
      </trkpt>
      <trkpt lat="47.29169" lon="-1.66927">
        <ele>64.8</ele>
        <time>2012-10-28T08:21:23Z</time>
      </trkpt>
      <trkpt lat="47.29134" lon="-1.6694">
        <ele>64.2</ele>
        <time>2012-10-28T08:21:29Z</time>
      </trkpt>
      <trkpt lat="47.29111" lon="-1.66948">
        <ele>63.2</ele>
        <time>2012-10-28T08:21:33Z</time>
      </trkpt>
      <trkpt lat="47.29106" lon="-1.66946">
        <ele>63.1</ele>
        <time>2012-10-28T08:21:34Z</time>
      </trkpt>
      <trkpt lat="47.29102" lon="-1.66943">
        <ele>63.1</ele>
        <time>2012-10-28T08:21:35Z</time>
      </trkpt>
      <trkpt lat="47.29097" lon="-1.66938">
        <ele>63</ele>
        <time>2012-10-28T08:21:36Z</time>
      </trkpt>
      <trkpt lat="47.29093" lon="-1.66933">
        <ele>63</ele>
        <time>2012-10-28T08:21:37Z</time>
      </trkpt>
      <trkpt lat="47.2904" lon="-1.66875">
        <ele>60.5</ele>
        <time>2012-10-28T08:21:49Z</time>
      </trkpt>
      <trkpt lat="47.2903" lon="-1.66866">
        <ele>60.3</ele>
        <time>2012-10-28T08:21:51Z</time>
      </trkpt>
      <trkpt lat="47.28922" lon="-1.66766">
        <ele>63.4</ele>
        <time>2012-10-28T08:22:19Z</time>
      </trkpt>
      <trkpt lat="47.28918" lon="-1.66764">
        <ele>63.5</ele>
        <time>2012-10-28T08:22:20Z</time>
      </trkpt>
      <trkpt lat="47.28914" lon="-1.66764">
        <ele>63.5</ele>
        <time>2012-10-28T08:22:21Z</time>
      </trkpt>
      <trkpt lat="47.28905" lon="-1.66765">
        <ele>64.4</ele>
        <time>2012-10-28T08:22:23Z</time>
      </trkpt>
      <trkpt lat="47.28896" lon="-1.66768">
        <ele>63.8</ele>
        <time>2012-10-28T08:22:25Z</time>
      </trkpt>
      <trkpt lat="47.28892" lon="-1.66769">
        <ele>64.2</ele>
        <time>2012-10-28T08:22:26Z</time>
      </trkpt>
      <trkpt lat="47.28453" lon="-1.66885">
        <ele>65.5</ele>
        <time>2012-10-28T08:24:04Z</time>
      </trkpt>
      <trkpt lat="47.28449" lon="-1.66884">
        <ele>65.4</ele>
        <time>2012-10-28T08:24:05Z</time>
      </trkpt>
      <trkpt lat="47.28441" lon="-1.66882">
        <ele>65.4</ele>
        <time>2012-10-28T08:24:07Z</time>
      </trkpt>
      <trkpt lat="47.28424" lon="-1.66874">
        <ele>65.1</ele>
        <time>2012-10-28T08:24:11Z</time>
      </trkpt>
      <trkpt lat="47.28378" lon="-1.66852">
        <ele>65</ele>
        <time>2012-10-28T08:24:21Z</time>
      </trkpt>
      <trkpt lat="47.28373" lon="-1.66853">
        <ele>65</ele>
        <time>2012-10-28T08:24:22Z</time>
      </trkpt>
      <trkpt lat="47.28369" lon="-1.66857">
        <ele>64.9</ele>
        <time>2012-10-28T08:24:23Z</time>
      </trkpt>
      <trkpt lat="47.28366" lon="-1.66863">
        <ele>64.8</ele>
        <time>2012-10-28T08:24:24Z</time>
      </trkpt>
      <trkpt lat="47.28279" lon="-1.67034">
        <ele>63.5</ele>
        <time>2012-10-28T08:24:51Z</time>
      </trkpt>
      <trkpt lat="47.28273" lon="-1.67048">
        <ele>63.7</ele>
        <time>2012-10-28T08:24:53Z</time>
      </trkpt>
      <trkpt lat="47.2822" lon="-1.67169">
        <ele>62.3</ele>
        <time>2012-10-28T08:25:10Z</time>
      </trkpt>
      <trkpt lat="47.28215" lon="-1.67176">
        <ele>62.2</ele>
        <time>2012-10-28T08:25:11Z</time>
      </trkpt>
      <trkpt lat="47.28211" lon="-1.67183">
        <ele>62</ele>
        <time>2012-10-28T08:25:12Z</time>
      </trkpt>
      <trkpt lat="47.28207" lon="-1.6719">
        <ele>62.4</ele>
        <time>2012-10-28T08:25:13Z</time>
      </trkpt>
      <trkpt lat="47.28152" lon="-1.67306">
        <ele>61.8</ele>
        <time>2012-10-28T08:25:30Z</time>
      </trkpt>
      <trkpt lat="47.28149" lon="-1.67312">
        <ele>62</ele>
        <time>2012-10-28T08:25:31Z</time>
      </trkpt>
      <trkpt lat="47.28145" lon="-1.67317">
        <ele>62</ele>
        <time>2012-10-28T08:25:32Z</time>
      </trkpt>
      <trkpt lat="47.28136" lon="-1.67326">
        <ele>62.1</ele>
        <time>2012-10-28T08:25:34Z</time>
      </trkpt>
      <trkpt lat="47.2811" lon="-1.67355">
        <ele>61.3</ele>
        <time>2012-10-28T08:25:40Z</time>
      </trkpt>
      <trkpt lat="47.28107" lon="-1.6736">
        <ele>61.6</ele>
        <time>2012-10-28T08:25:41Z</time>
      </trkpt>
      <trkpt lat="47.28103" lon="-1.67366">
        <ele>61.8</ele>
        <time>2012-10-28T08:25:42Z</time>
      </trkpt>
      <trkpt lat="47.28101" lon="-1.67373">
        <ele>61.8</ele>
        <time>2012-10-28T08:25:43Z</time>
      </trkpt>
      <trkpt lat="47.28061" lon="-1.67482">
        <ele>60.2</ele>
        <time>2012-10-28T08:25:59Z</time>
      </trkpt>
      <trkpt lat="47.28058" lon="-1.67486">
        <ele>60.1</ele>
        <time>2012-10-28T08:26:00Z</time>
      </trkpt>
      <trkpt lat="47.28055" lon="-1.67488">
        <ele>60</ele>
        <time>2012-10-28T08:26:01Z</time>
      </trkpt>
      <trkpt lat="47.2805" lon="-1.67488">
        <ele>59.1</ele>
        <time>2012-10-28T08:26:02Z</time>
      </trkpt>
      <trkpt lat="47.28046" lon="-1.67486">
        <ele>58.4</ele>
        <time>2012-10-28T08:26:03Z</time>
      </trkpt>
      <trkpt lat="47.28028" lon="-1.67476">
        <ele>58.4</ele>
        <time>2012-10-28T08:26:07Z</time>
      </trkpt>
      <trkpt lat="47.28023" lon="-1.67475">
        <ele>59</ele>
        <time>2012-10-28T08:26:08Z</time>
      </trkpt>
      <trkpt lat="47.28019" lon="-1.67476">
        <ele>59.5</ele>
        <time>2012-10-28T08:26:09Z</time>
      </trkpt>
      <trkpt lat="47.28015" lon="-1.67479">
        <ele>59.5</ele>
        <time>2012-10-28T08:26:10Z</time>
      </trkpt>
      <trkpt lat="47.28013" lon="-1.67484">
        <ele>59.5</ele>
        <time>2012-10-28T08:26:11Z</time>
      </trkpt>
      <trkpt lat="47.28012" lon="-1.6749">
        <ele>59.1</ele>
        <time>2012-10-28T08:26:12Z</time>
      </trkpt>
      <trkpt lat="47.28011" lon="-1.67497">
        <ele>58.8</ele>
        <time>2012-10-28T08:26:13Z</time>
      </trkpt>
      <trkpt lat="47.27996" lon="-1.67682">
        <ele>56.7</ele>
        <time>2012-10-28T08:26:37Z</time>
      </trkpt>
      <trkpt lat="47.27994" lon="-1.67698">
        <ele>56.7</ele>
        <time>2012-10-28T08:26:39Z</time>
      </trkpt>
      <trkpt lat="47.27989" lon="-1.67723">
        <ele>55.9</ele>
        <time>2012-10-28T08:26:42Z</time>
      </trkpt>
      <trkpt lat="47.27986" lon="-1.6773">
        <ele>55.5</ele>
        <time>2012-10-28T08:26:43Z</time>
      </trkpt>
      <trkpt lat="47.27981" lon="-1.67736">
        <ele>55.1</ele>
        <time>2012-10-28T08:26:44Z</time>
      </trkpt>
      <trkpt lat="47.27975" lon="-1.67739">
        <ele>54.9</ele>
        <time>2012-10-28T08:26:45Z</time>
      </trkpt>
      <trkpt lat="47.2797" lon="-1.67741">
        <ele>54.7</ele>
        <time>2012-10-28T08:26:46Z</time>
      </trkpt>
      <trkpt lat="47.27964" lon="-1.67741">
        <ele>54.5</ele>
        <time>2012-10-28T08:26:47Z</time>
      </trkpt>
      <trkpt lat="47.27947" lon="-1.67742">
        <ele>54.2</ele>
        <time>2012-10-28T08:26:50Z</time>
      </trkpt>
      <trkpt lat="47.27942" lon="-1.67743">
        <ele>54.3</ele>
        <time>2012-10-28T08:26:51Z</time>
      </trkpt>
      <trkpt lat="47.27918" lon="-1.67751">
        <ele>54.7</ele>
        <time>2012-10-28T08:26:57Z</time>
      </trkpt>
      <trkpt lat="47.27911" lon="-1.67755">
        <ele>55.1</ele>
        <time>2012-10-28T08:26:59Z</time>
      </trkpt>
      <trkpt lat="47.27874" lon="-1.67773">
        <ele>55.5</ele>
        <time>2012-10-28T08:27:09Z</time>
      </trkpt>
      <trkpt lat="47.2787" lon="-1.67774">
        <ele>55.5</ele>
        <time>2012-10-28T08:27:10Z</time>
      </trkpt>
      <trkpt lat="47.27866" lon="-1.67775">
        <ele>56.1</ele>
        <time>2012-10-28T08:27:11Z</time>
      </trkpt>
      <trkpt lat="47.27862" lon="-1.67774">
        <ele>56.5</ele>
        <time>2012-10-28T08:27:12Z</time>
      </trkpt>
      <trkpt lat="47.27859" lon="-1.67772">
        <ele>56.9</ele>
        <time>2012-10-28T08:27:13Z</time>
      </trkpt>
      <trkpt lat="47.27852" lon="-1.67768">
        <ele>56.9</ele>
        <time>2012-10-28T08:27:15Z</time>
      </trkpt>
      <trkpt lat="47.27848" lon="-1.67767">
        <ele>57.1</ele>
        <time>2012-10-28T08:27:16Z</time>
      </trkpt>
      <trkpt lat="47.27844" lon="-1.67768">
        <ele>57.2</ele>
        <time>2012-10-28T08:27:17Z</time>
      </trkpt>
      <trkpt lat="47.2784" lon="-1.67768">
        <ele>57.3</ele>
        <time>2012-10-28T08:27:18Z</time>
      </trkpt>
      <trkpt lat="47.27832" lon="-1.67771">
        <ele>57.4</ele>
        <time>2012-10-28T08:27:20Z</time>
      </trkpt>
      <trkpt lat="47.27824" lon="-1.67774">
        <ele>57.3</ele>
        <time>2012-10-28T08:27:22Z</time>
      </trkpt>
      <trkpt lat="47.2782" lon="-1.67776">
        <ele>57.3</ele>
        <time>2012-10-28T08:27:23Z</time>
      </trkpt>
      <trkpt lat="47.27816" lon="-1.67779">
        <ele>57.2</ele>
        <time>2012-10-28T08:27:24Z</time>
      </trkpt>
      <trkpt lat="47.278" lon="-1.67794">
        <ele>57.8</ele>
        <time>2012-10-28T08:27:28Z</time>
      </trkpt>
      <trkpt lat="47.2776" lon="-1.67836">
        <ele>58.1</ele>
        <time>2012-10-28T08:27:37Z</time>
      </trkpt>
      <trkpt lat="47.27727" lon="-1.67876">
        <ele>57</ele>
        <time>2012-10-28T08:27:45Z</time>
      </trkpt>
      <trkpt lat="47.27678" lon="-1.67946">
        <ele>58.3</ele>
        <time>2012-10-28T08:28:00Z</time>
      </trkpt>
      <trkpt lat="47.2767" lon="-1.67959">
        <ele>58.7</ele>
        <time>2012-10-28T08:28:03Z</time>
      </trkpt>
      <trkpt lat="47.27645" lon="-1.67996">
        <ele>61</ele>
        <time>2012-10-28T08:28:12Z</time>
      </trkpt>
      <trkpt lat="47.27642" lon="-1.67999">
        <ele>60.9</ele>
        <time>2012-10-28T08:28:13Z</time>
      </trkpt>
      <trkpt lat="47.27639" lon="-1.68003">
        <ele>60.7</ele>
        <time>2012-10-28T08:28:14Z</time>
      </trkpt>
      <trkpt lat="47.27632" lon="-1.68016">
        <ele>59.9</ele>
        <time>2012-10-28T08:28:17Z</time>
      </trkpt>
      <trkpt lat="47.27631" lon="-1.68021">
        <ele>59.9</ele>
        <time>2012-10-28T08:28:18Z</time>
      </trkpt>
      <trkpt lat="47.2763" lon="-1.68027">
        <ele>59.9</ele>
        <time>2012-10-28T08:28:19Z</time>
      </trkpt>
      <trkpt lat="47.27631" lon="-1.68034">
        <ele>60</ele>
        <time>2012-10-28T08:28:20Z</time>
      </trkpt>
      <trkpt lat="47.27639" lon="-1.68092">
        <ele>60.1</ele>
        <time>2012-10-28T08:28:29Z</time>
      </trkpt>
      <trkpt lat="47.27639" lon="-1.68099">
        <ele>60.1</ele>
        <time>2012-10-28T08:28:30Z</time>
      </trkpt>
      <trkpt lat="47.27638" lon="-1.68106">
        <ele>60.1</ele>
        <time>2012-10-28T08:28:31Z</time>
      </trkpt>
      <trkpt lat="47.27636" lon="-1.68112">
        <ele>60.1</ele>
        <time>2012-10-28T08:28:32Z</time>
      </trkpt>
      <trkpt lat="47.2763" lon="-1.68134">
        <ele>60.1</ele>
        <time>2012-10-28T08:28:35Z</time>
      </trkpt>
      <trkpt lat="47.27629" lon="-1.68142">
        <ele>60.1</ele>
        <time>2012-10-28T08:28:36Z</time>
      </trkpt>
      <trkpt lat="47.2763" lon="-1.6815">
        <ele>59.6</ele>
        <time>2012-10-28T08:28:37Z</time>
      </trkpt>
      <trkpt lat="47.27632" lon="-1.68157">
        <ele>59.3</ele>
        <time>2012-10-28T08:28:38Z</time>
      </trkpt>
      <trkpt lat="47.27634" lon="-1.68164">
        <ele>59.2</ele>
        <time>2012-10-28T08:28:39Z</time>
      </trkpt>
      <trkpt lat="47.27637" lon="-1.68171">
        <ele>59.2</ele>
        <time>2012-10-28T08:28:40Z</time>
      </trkpt>
      <trkpt lat="47.27649" lon="-1.682">
        <ele>58.8</ele>
        <time>2012-10-28T08:28:44Z</time>
      </trkpt>
      <trkpt lat="47.27651" lon="-1.68208">
        <ele>58.8</ele>
        <time>2012-10-28T08:28:45Z</time>
      </trkpt>
      <trkpt lat="47.27658" lon="-1.68251">
        <ele>57.7</ele>
        <time>2012-10-28T08:28:50Z</time>
      </trkpt>
      <trkpt lat="47.27672" lon="-1.68349">
        <ele>55.4</ele>
        <time>2012-10-28T08:29:02Z</time>
      </trkpt>
      <trkpt lat="47.27673" lon="-1.68356">
        <ele>55.7</ele>
        <time>2012-10-28T08:29:03Z</time>
      </trkpt>
      <trkpt lat="47.27673" lon="-1.68362">
        <ele>55.9</ele>
        <time>2012-10-28T08:29:04Z</time>
      </trkpt>
      <trkpt lat="47.27672" lon="-1.68375">
        <ele>55.7</ele>
        <time>2012-10-28T08:29:06Z</time>
      </trkpt>
      <trkpt lat="47.27673" lon="-1.68381">
        <ele>55.9</ele>
        <time>2012-10-28T08:29:07Z</time>
      </trkpt>
      <trkpt lat="47.27674" lon="-1.68387">
        <ele>56</ele>
        <time>2012-10-28T08:29:08Z</time>
      </trkpt>
      <trkpt lat="47.27676" lon="-1.68393">
        <ele>56.2</ele>
        <time>2012-10-28T08:29:09Z</time>
      </trkpt>
      <trkpt lat="47.27692" lon="-1.68433">
        <ele>56</ele>
        <time>2012-10-28T08:29:16Z</time>
      </trkpt>
      <trkpt lat="47.27696" lon="-1.68438">
        <ele>55.3</ele>
        <time>2012-10-28T08:29:17Z</time>
      </trkpt>
      <trkpt lat="47.27708" lon="-1.68458">
        <ele>55</ele>
        <time>2012-10-28T08:29:22Z</time>
      </trkpt>
      <trkpt lat="47.2771" lon="-1.68462">
        <ele>54.8</ele>
        <time>2012-10-28T08:29:23Z</time>
      </trkpt>
      <trkpt lat="47.27712" lon="-1.68467">
        <ele>54.4</ele>
        <time>2012-10-28T08:29:24Z</time>
      </trkpt>
      <trkpt lat="47.27716" lon="-1.68472">
        <ele>54.2</ele>
        <time>2012-10-28T08:29:25Z</time>
      </trkpt>
      <trkpt lat="47.27719" lon="-1.68476">
        <ele>53.7</ele>
        <time>2012-10-28T08:29:26Z</time>
      </trkpt>
      <trkpt lat="47.27723" lon="-1.68478">
        <ele>53.4</ele>
        <time>2012-10-28T08:29:27Z</time>
      </trkpt>
      <trkpt lat="47.27728" lon="-1.68479">
        <ele>53.1</ele>
        <time>2012-10-28T08:29:28Z</time>
      </trkpt>
      <trkpt lat="47.27732" lon="-1.6848">
        <ele>52.7</ele>
        <time>2012-10-28T08:29:29Z</time>
      </trkpt>
      <trkpt lat="47.27736" lon="-1.68484">
        <ele>52.4</ele>
        <time>2012-10-28T08:29:30Z</time>
      </trkpt>
      <trkpt lat="47.27739" lon="-1.68491">
        <ele>51.7</ele>
        <time>2012-10-28T08:29:31Z</time>
      </trkpt>
      <trkpt lat="47.27744" lon="-1.68507">
        <ele>50.8</ele>
        <time>2012-10-28T08:29:33Z</time>
      </trkpt>
      <trkpt lat="47.27747" lon="-1.68515">
        <ele>50.6</ele>
        <time>2012-10-28T08:29:34Z</time>
      </trkpt>
      <trkpt lat="47.2775" lon="-1.68531">
        <ele>49.3</ele>
        <time>2012-10-28T08:29:36Z</time>
      </trkpt>
      <trkpt lat="47.2775" lon="-1.68538">
        <ele>48.5</ele>
        <time>2012-10-28T08:29:37Z</time>
      </trkpt>
      <trkpt lat="47.2775" lon="-1.68545">
        <ele>47.2</ele>
        <time>2012-10-28T08:29:38Z</time>
      </trkpt>
      <trkpt lat="47.27749" lon="-1.68552">
        <ele>46.2</ele>
        <time>2012-10-28T08:29:39Z</time>
      </trkpt>
      <trkpt lat="47.27745" lon="-1.68557">
        <ele>45.4</ele>
        <time>2012-10-28T08:29:40Z</time>
      </trkpt>
      <trkpt lat="47.27741" lon="-1.68562">
        <ele>44.6</ele>
        <time>2012-10-28T08:29:41Z</time>
      </trkpt>
      <trkpt lat="47.27737" lon="-1.68566">
        <ele>44</ele>
        <time>2012-10-28T08:29:42Z</time>
      </trkpt>
      <trkpt lat="47.27733" lon="-1.6857">
        <ele>43.2</ele>
        <time>2012-10-28T08:29:43Z</time>
      </trkpt>
      <trkpt lat="47.27688" lon="-1.68602">
        <ele>39.6</ele>
        <time>2012-10-28T08:29:52Z</time>
      </trkpt>
      <trkpt lat="47.27685" lon="-1.68607">
        <ele>39</ele>
        <time>2012-10-28T08:29:53Z</time>
      </trkpt>
      <trkpt lat="47.27678" lon="-1.68616">
        <ele>38.3</ele>
        <time>2012-10-28T08:29:55Z</time>
      </trkpt>
      <trkpt lat="47.27673" lon="-1.68621">
        <ele>38.1</ele>
        <time>2012-10-28T08:29:57Z</time>
      </trkpt>
      <trkpt lat="47.27673" lon="-1.68624">
        <ele>38.1</ele>
        <time>2012-10-28T08:29:58Z</time>
      </trkpt>
      <trkpt lat="47.27672" lon="-1.68626">
        <ele>38.1</ele>
        <time>2012-10-28T08:29:59Z</time>
      </trkpt>
      <trkpt lat="47.2767" lon="-1.68628">
        <ele>37.7</ele>
        <time>2012-10-28T08:30:00Z</time>
      </trkpt>
      <trkpt lat="47.27669" lon="-1.68629">
        <ele>37.5</ele>
        <time>2012-10-28T08:30:01Z</time>
      </trkpt>
      <trkpt lat="47.27668" lon="-1.6863">
        <ele>37.7</ele>
        <time>2012-10-28T08:30:02Z</time>
      </trkpt>
      <trkpt lat="47.27662" lon="-1.68637">
        <ele>37.5</ele>
        <time>2012-10-28T08:30:06Z</time>
      </trkpt>
      <trkpt lat="47.2766" lon="-1.6864">
        <ele>37.6</ele>
        <time>2012-10-28T08:30:07Z</time>
      </trkpt>
      <trkpt lat="47.27658" lon="-1.68644">
        <ele>37.7</ele>
        <time>2012-10-28T08:30:09Z</time>
      </trkpt>
      <trkpt lat="47.27656" lon="-1.68646">
        <ele>37.7</ele>
        <time>2012-10-28T08:30:10Z</time>
      </trkpt>
      <trkpt lat="47.27654" lon="-1.68647">
        <ele>37.7</ele>
        <time>2012-10-28T08:30:11Z</time>
      </trkpt>
      <trkpt lat="47.27645" lon="-1.68652">
        <ele>37.6</ele>
        <time>2012-10-28T08:30:15Z</time>
      </trkpt>
      <trkpt lat="47.27641" lon="-1.68656">
        <ele>37.6</ele>
        <time>2012-10-28T08:30:17Z</time>
      </trkpt>
      <trkpt lat="47.27639" lon="-1.68657">
        <ele>37.6</ele>
        <time>2012-10-28T08:30:18Z</time>
      </trkpt>
      <trkpt lat="47.27637" lon="-1.68657">
        <ele>37.8</ele>
        <time>2012-10-28T08:30:19Z</time>
      </trkpt>
      <trkpt lat="47.27631" lon="-1.68661">
        <ele>37.9</ele>
        <time>2012-10-28T08:30:21Z</time>
      </trkpt>
      <trkpt lat="47.27628" lon="-1.68661">
        <ele>37.8</ele>
        <time>2012-10-28T08:30:22Z</time>
      </trkpt>
      <trkpt lat="47.27626" lon="-1.6866">
        <ele>37.5</ele>
        <time>2012-10-28T08:30:23Z</time>
      </trkpt>
      <trkpt lat="47.27621" lon="-1.68659">
        <ele>37.2</ele>
        <time>2012-10-28T08:30:25Z</time>
      </trkpt>
      <trkpt lat="47.27618" lon="-1.68657">
        <ele>36.8</ele>
        <time>2012-10-28T08:30:26Z</time>
      </trkpt>
      <trkpt lat="47.27616" lon="-1.68654">
        <ele>36.6</ele>
        <time>2012-10-28T08:30:27Z</time>
      </trkpt>
      <trkpt lat="47.27614" lon="-1.6865">
        <ele>37.2</ele>
        <time>2012-10-28T08:30:29Z</time>
      </trkpt>
      <trkpt lat="47.27613" lon="-1.6865">
        <ele>37.4</ele>
        <time>2012-10-28T08:30:30Z</time>
      </trkpt>
      <trkpt lat="47.27612" lon="-1.68649">
        <ele>37.3</ele>
        <time>2012-10-28T08:30:31Z</time>
      </trkpt>
      <trkpt lat="47.2761" lon="-1.68647">
        <ele>37</ele>
        <time>2012-10-28T08:30:33Z</time>
      </trkpt>
      <trkpt lat="47.27609" lon="-1.68646">
        <ele>36.7</ele>
        <time>2012-10-28T08:30:34Z</time>
      </trkpt>
      <trkpt lat="47.27608" lon="-1.68645">
        <ele>36.5</ele>
        <time>2012-10-28T08:30:35Z</time>
      </trkpt>
      <trkpt lat="47.27608" lon="-1.68645">
        <ele>36.2</ele>
        <time>2012-10-28T08:30:36Z</time>
      </trkpt>
      <trkpt lat="47.27608" lon="-1.68644">
        <ele>36.1</ele>
        <time>2012-10-28T08:30:37Z</time>
      </trkpt>
      <trkpt lat="47.27608" lon="-1.68643">
        <ele>36.1</ele>
        <time>2012-10-28T08:30:38Z</time>
      </trkpt>
      <trkpt lat="47.27607" lon="-1.68642">
        <ele>36.1</ele>
        <time>2012-10-28T08:30:39Z</time>
      </trkpt>
      <trkpt lat="47.27607" lon="-1.68641">
        <ele>36.1</ele>
        <time>2012-10-28T08:30:40Z</time>
      </trkpt>
      <trkpt lat="47.27606" lon="-1.6864">
        <ele>36.2</ele>
        <time>2012-10-28T08:30:41Z</time>
      </trkpt>
      <trkpt lat="47.27606" lon="-1.68639">
        <ele>36.6</ele>
        <time>2012-10-28T08:30:42Z</time>
      </trkpt>
      <trkpt lat="47.27605" lon="-1.68639">
        <ele>36.9</ele>
        <time>2012-10-28T08:30:43Z</time>
      </trkpt>
      <trkpt lat="47.27605" lon="-1.68638">
        <ele>37.1</ele>
        <time>2012-10-28T08:30:44Z</time>
      </trkpt>
      <trkpt lat="47.27604" lon="-1.68638">
        <ele>37.1</ele>
        <time>2012-10-28T08:30:45Z</time>
      </trkpt>
      <trkpt lat="47.27604" lon="-1.68637">
        <ele>37.1</ele>
        <time>2012-10-28T08:30:46Z</time>
      </trkpt>
      <trkpt lat="47.27603" lon="-1.68635">
        <ele>37</ele>
        <time>2012-10-28T08:30:47Z</time>
      </trkpt>
      <trkpt lat="47.27602" lon="-1.68631">
        <ele>36.8</ele>
        <time>2012-10-28T08:30:49Z</time>
      </trkpt>
      <trkpt lat="47.27601" lon="-1.68629">
        <ele>36.9</ele>
        <time>2012-10-28T08:30:50Z</time>
      </trkpt>
      <trkpt lat="47.276" lon="-1.68627">
        <ele>37.1</ele>
        <time>2012-10-28T08:30:51Z</time>
      </trkpt>
      <trkpt lat="47.27592" lon="-1.68615">
        <ele>37.3</ele>
        <time>2012-10-28T08:30:56Z</time>
      </trkpt>
      <trkpt lat="47.27581" lon="-1.68602">
        <ele>37.1</ele>
        <time>2012-10-28T08:31:02Z</time>
      </trkpt>
      <trkpt lat="47.27572" lon="-1.68591">
        <ele>36.8</ele>
        <time>2012-10-28T08:31:07Z</time>
      </trkpt>
      <trkpt lat="47.2757" lon="-1.68589">
        <ele>36.7</ele>
        <time>2012-10-28T08:31:08Z</time>
      </trkpt>
      <trkpt lat="47.27551" lon="-1.68577">
        <ele>35.9</ele>
        <time>2012-10-28T08:31:15Z</time>
      </trkpt>
      <trkpt lat="47.27547" lon="-1.68573">
        <ele>35.8</ele>
        <time>2012-10-28T08:31:17Z</time>
      </trkpt>
      <trkpt lat="47.27543" lon="-1.68569">
        <ele>36.4</ele>
        <time>2012-10-28T08:31:19Z</time>
      </trkpt>
      <trkpt lat="47.27536" lon="-1.68562">
        <ele>35.9</ele>
        <time>2012-10-28T08:31:22Z</time>
      </trkpt>
      <trkpt lat="47.27533" lon="-1.6856">
        <ele>35.9</ele>
        <time>2012-10-28T08:31:23Z</time>
      </trkpt>
      <trkpt lat="47.27527" lon="-1.68555">
        <ele>36.1</ele>
        <time>2012-10-28T08:31:26Z</time>
      </trkpt>
      <trkpt lat="47.27526" lon="-1.68553">
        <ele>36.2</ele>
        <time>2012-10-28T08:31:27Z</time>
      </trkpt>
      <trkpt lat="47.27523" lon="-1.68549">
        <ele>36</ele>
        <time>2012-10-28T08:31:29Z</time>
      </trkpt>
      <trkpt lat="47.27521" lon="-1.68546">
        <ele>35.9</ele>
        <time>2012-10-28T08:31:30Z</time>
      </trkpt>
      <trkpt lat="47.27519" lon="-1.68545">
        <ele>35.8</ele>
        <time>2012-10-28T08:31:31Z</time>
      </trkpt>
      <trkpt lat="47.27511" lon="-1.68539">
        <ele>37</ele>
        <time>2012-10-28T08:31:34Z</time>
      </trkpt>
      <trkpt lat="47.2751" lon="-1.68537">
        <ele>36.7</ele>
        <time>2012-10-28T08:31:35Z</time>
      </trkpt>
      <trkpt lat="47.27503" lon="-1.68524">
        <ele>36.9</ele>
        <time>2012-10-28T08:31:40Z</time>
      </trkpt>
      <trkpt lat="47.275" lon="-1.68522">
        <ele>37</ele>
        <time>2012-10-28T08:31:41Z</time>
      </trkpt>
      <trkpt lat="47.27497" lon="-1.6852">
        <ele>37.1</ele>
        <time>2012-10-28T08:31:42Z</time>
      </trkpt>
      <trkpt lat="47.27489" lon="-1.68514">
        <ele>37</ele>
        <time>2012-10-28T08:31:45Z</time>
      </trkpt>
      <trkpt lat="47.27486" lon="-1.68513">
        <ele>37</ele>
        <time>2012-10-28T08:31:46Z</time>
      </trkpt>
      <trkpt lat="47.27484" lon="-1.68513">
        <ele>36.6</ele>
        <time>2012-10-28T08:31:47Z</time>
      </trkpt>
      <trkpt lat="47.27481" lon="-1.68514">
        <ele>36.4</ele>
        <time>2012-10-28T08:31:48Z</time>
      </trkpt>
      <trkpt lat="47.27474" lon="-1.68518">
        <ele>36.3</ele>
        <time>2012-10-28T08:31:51Z</time>
      </trkpt>
      <trkpt lat="47.27472" lon="-1.68519">
        <ele>36.2</ele>
        <time>2012-10-28T08:31:52Z</time>
      </trkpt>
      <trkpt lat="47.27469" lon="-1.68519">
        <ele>36.1</ele>
        <time>2012-10-28T08:31:54Z</time>
      </trkpt>
      <trkpt lat="47.27468" lon="-1.68519">
        <ele>36.1</ele>
        <time>2012-10-28T08:31:55Z</time>
      </trkpt>
      <trkpt lat="47.27468" lon="-1.68519">
        <ele>36.1</ele>
        <time>2012-10-28T08:31:56Z</time>
      </trkpt>
      <trkpt lat="47.27467" lon="-1.68518">
        <ele>36</ele>
        <time>2012-10-28T08:31:57Z</time>
      </trkpt>
      <trkpt lat="47.27466" lon="-1.68518">
        <ele>35.8</ele>
        <time>2012-10-28T08:31:58Z</time>
      </trkpt>
      <trkpt lat="47.27465" lon="-1.68517">
        <ele>35.7</ele>
        <time>2012-10-28T08:31:59Z</time>
      </trkpt>
      <trkpt lat="47.27464" lon="-1.68517">
        <ele>35.6</ele>
        <time>2012-10-28T08:32:00Z</time>
      </trkpt>
      <trkpt lat="47.27463" lon="-1.68518">
        <ele>35.2</ele>
        <time>2012-10-28T08:32:01Z</time>
      </trkpt>
      <trkpt lat="47.27462" lon="-1.68518">
        <ele>34.9</ele>
        <time>2012-10-28T08:32:02Z</time>
      </trkpt>
      <trkpt lat="47.27461" lon="-1.68518">
        <ele>34.8</ele>
        <time>2012-10-28T08:32:03Z</time>
      </trkpt>
      <trkpt lat="47.27461" lon="-1.68518">
        <ele>34.7</ele>
        <time>2012-10-28T08:32:04Z</time>
      </trkpt>
      <trkpt lat="47.27459" lon="-1.68519">
        <ele>34.6</ele>
        <time>2012-10-28T08:32:05Z</time>
      </trkpt>
      <trkpt lat="47.27457" lon="-1.6852">
        <ele>35.3</ele>
        <time>2012-10-28T08:32:07Z</time>
      </trkpt>
      <trkpt lat="47.27456" lon="-1.68521">
        <ele>35.5</ele>
        <time>2012-10-28T08:32:08Z</time>
      </trkpt>
      <trkpt lat="47.27455" lon="-1.68522">
        <ele>35.6</ele>
        <time>2012-10-28T08:32:09Z</time>
      </trkpt>
      <trkpt lat="47.27454" lon="-1.68523">
        <ele>35.7</ele>
        <time>2012-10-28T08:32:11Z</time>
      </trkpt>
      <trkpt lat="47.27454" lon="-1.68523">
        <ele>35.7</ele>
        <time>2012-10-28T08:32:12Z</time>
      </trkpt>
      <trkpt lat="47.27453" lon="-1.68523">
        <ele>36</ele>
        <time>2012-10-28T08:32:13Z</time>
      </trkpt>
      <trkpt lat="47.27453" lon="-1.68524">
        <ele>36.1</ele>
        <time>2012-10-28T08:32:14Z</time>
      </trkpt>
      <trkpt lat="47.27452" lon="-1.68525">
        <ele>36.1</ele>
        <time>2012-10-28T08:32:15Z</time>
      </trkpt>
      <trkpt lat="47.27452" lon="-1.68526">
        <ele>36.1</ele>
        <time>2012-10-28T08:32:16Z</time>
      </trkpt>
      <trkpt lat="47.27451" lon="-1.68527">
        <ele>36.2</ele>
        <time>2012-10-28T08:32:17Z</time>
      </trkpt>
      <trkpt lat="47.2745" lon="-1.68528">
        <ele>36.3</ele>
        <time>2012-10-28T08:32:18Z</time>
      </trkpt>
      <trkpt lat="47.27449" lon="-1.6853">
        <ele>36.1</ele>
        <time>2012-10-28T08:32:20Z</time>
      </trkpt>
      <trkpt lat="47.27449" lon="-1.6853">
        <ele>36</ele>
        <time>2012-10-28T08:32:21Z</time>
      </trkpt>
      <trkpt lat="47.27449" lon="-1.6853">
        <ele>36</ele>
        <time>2012-10-28T08:32:22Z</time>
      </trkpt>
      <trkpt lat="47.27449" lon="-1.6853">
        <ele>36</ele>
        <time>2012-10-28T08:32:23Z</time>
      </trkpt>
      <trkpt lat="47.27448" lon="-1.6853">
        <ele>36</ele>
        <time>2012-10-28T08:32:24Z</time>
      </trkpt>
      <trkpt lat="47.27449" lon="-1.6853">
        <ele>35.9</ele>
        <time>2012-10-28T08:32:25Z</time>
      </trkpt>
      <trkpt lat="47.27448" lon="-1.6853">
        <ele>35.9</ele>
        <time>2012-10-28T08:32:26Z</time>
      </trkpt>
      <trkpt lat="47.27448" lon="-1.6853">
        <ele>35.6</ele>
        <time>2012-10-28T08:32:27Z</time>
      </trkpt>
      <trkpt lat="47.27449" lon="-1.68531">
        <ele>35.4</ele>
        <time>2012-10-28T08:32:28Z</time>
      </trkpt>
      <trkpt lat="47.27449" lon="-1.68531">
        <ele>35.6</ele>
        <time>2012-10-28T08:32:29Z</time>
      </trkpt>
      <trkpt lat="47.27449" lon="-1.68532">
        <ele>35.7</ele>
        <time>2012-10-28T08:32:30Z</time>
      </trkpt>
      <trkpt lat="47.27449" lon="-1.68534">
        <ele>35.8</ele>
        <time>2012-10-28T08:32:32Z</time>
      </trkpt>
      <trkpt lat="47.27449" lon="-1.68535">
        <ele>35.8</ele>
        <time>2012-10-28T08:32:33Z</time>
      </trkpt>
      <trkpt lat="47.27449" lon="-1.68535">
        <ele>36.1</ele>
        <time>2012-10-28T08:32:34Z</time>
      </trkpt>
      <trkpt lat="47.27449" lon="-1.68536">
        <ele>36.3</ele>
        <time>2012-10-28T08:32:35Z</time>
      </trkpt>
      <trkpt lat="47.27448" lon="-1.68537">
        <ele>36</ele>
        <time>2012-10-28T08:32:36Z</time>
      </trkpt>
      <trkpt lat="47.27448" lon="-1.68537">
        <ele>35.8</ele>
        <time>2012-10-28T08:32:37Z</time>
      </trkpt>
      <trkpt lat="47.27447" lon="-1.68538">
        <ele>35.7</ele>
        <time>2012-10-28T08:32:38Z</time>
      </trkpt>
      <trkpt lat="47.27446" lon="-1.68538">
        <ele>36</ele>
        <time>2012-10-28T08:32:39Z</time>
      </trkpt>
      <trkpt lat="47.27445" lon="-1.68538">
        <ele>36.3</ele>
        <time>2012-10-28T08:32:40Z</time>
      </trkpt>
      <trkpt lat="47.27444" lon="-1.68539">
        <ele>36.4</ele>
        <time>2012-10-28T08:32:41Z</time>
      </trkpt>
      <trkpt lat="47.27443" lon="-1.68539">
        <ele>36.6</ele>
        <time>2012-10-28T08:32:42Z</time>
      </trkpt>
      <trkpt lat="47.27442" lon="-1.6854">
        <ele>36.7</ele>
        <time>2012-10-28T08:32:44Z</time>
      </trkpt>
      <trkpt lat="47.2744" lon="-1.68542">
        <ele>37</ele>
        <time>2012-10-28T08:32:46Z</time>
      </trkpt>
      <trkpt lat="47.27438" lon="-1.68543">
        <ele>37.8</ele>
        <time>2012-10-28T08:32:48Z</time>
      </trkpt>
      <trkpt lat="47.27437" lon="-1.68544">
        <ele>38.1</ele>
        <time>2012-10-28T08:32:49Z</time>
      </trkpt>
      <trkpt lat="47.27436" lon="-1.68545">
        <ele>38.2</ele>
        <time>2012-10-28T08:32:51Z</time>
      </trkpt>
      <trkpt lat="47.27436" lon="-1.68545">
        <ele>38.1</ele>
        <time>2012-10-28T08:32:52Z</time>
      </trkpt>
      <trkpt lat="47.27436" lon="-1.68546">
        <ele>38.1</ele>
        <time>2012-10-28T08:32:53Z</time>
      </trkpt>
      <trkpt lat="47.27435" lon="-1.68546">
        <ele>38.1</ele>
        <time>2012-10-28T08:32:54Z</time>
      </trkpt>
      <trkpt lat="47.27434" lon="-1.68547">
        <ele>37.9</ele>
        <time>2012-10-28T08:32:55Z</time>
      </trkpt>
      <trkpt lat="47.27434" lon="-1.68548">
        <ele>37.7</ele>
        <time>2012-10-28T08:32:56Z</time>
      </trkpt>
      <trkpt lat="47.27429" lon="-1.68557">
        <ele>38.1</ele>
        <time>2012-10-28T08:33:01Z</time>
      </trkpt>
      <trkpt lat="47.27428" lon="-1.68558">
        <ele>38.5</ele>
        <time>2012-10-28T08:33:02Z</time>
      </trkpt>
      <trkpt lat="47.27427" lon="-1.6856">
        <ele>38.9</ele>
        <time>2012-10-28T08:33:04Z</time>
      </trkpt>
      <trkpt lat="47.27426" lon="-1.68561">
        <ele>39.6</ele>
        <time>2012-10-28T08:33:05Z</time>
      </trkpt>
      <trkpt lat="47.27425" lon="-1.68562">
        <ele>40.1</ele>
        <time>2012-10-28T08:33:06Z</time>
      </trkpt>
      <trkpt lat="47.27424" lon="-1.68563">
        <ele>40.8</ele>
        <time>2012-10-28T08:33:07Z</time>
      </trkpt>
      <trkpt lat="47.27423" lon="-1.68563">
        <ele>41.3</ele>
        <time>2012-10-28T08:33:08Z</time>
      </trkpt>
      <trkpt lat="47.27422" lon="-1.68564">
        <ele>41.6</ele>
        <time>2012-10-28T08:33:09Z</time>
      </trkpt>
      <trkpt lat="47.27418" lon="-1.68566">
        <ele>42.4</ele>
        <time>2012-10-28T08:33:12Z</time>
      </trkpt>
      <trkpt lat="47.27417" lon="-1.68566">
        <ele>42.5</ele>
        <time>2012-10-28T08:33:13Z</time>
      </trkpt>
      <trkpt lat="47.27414" lon="-1.68566">
        <ele>43.1</ele>
        <time>2012-10-28T08:33:15Z</time>
      </trkpt>
      <trkpt lat="47.27413" lon="-1.68566">
        <ele>43.2</ele>
        <time>2012-10-28T08:33:16Z</time>
      </trkpt>
      <trkpt lat="47.27413" lon="-1.68567">
        <ele>43.3</ele>
        <time>2012-10-28T08:33:17Z</time>
      </trkpt>
      <trkpt lat="47.27412" lon="-1.68568">
        <ele>43.3</ele>
        <time>2012-10-28T08:33:18Z</time>
      </trkpt>
      <trkpt lat="47.27411" lon="-1.68569">
        <ele>43.6</ele>
        <time>2012-10-28T08:33:19Z</time>
      </trkpt>
      <trkpt lat="47.27408" lon="-1.68572">
        <ele>43.4</ele>
        <time>2012-10-28T08:33:22Z</time>
      </trkpt>
      <trkpt lat="47.27407" lon="-1.68574">
        <ele>43.3</ele>
        <time>2012-10-28T08:33:23Z</time>
      </trkpt>
      <trkpt lat="47.27405" lon="-1.68579">
        <ele>44.7</ele>
        <time>2012-10-28T08:33:26Z</time>
      </trkpt>
      <trkpt lat="47.27405" lon="-1.68581">
        <ele>45.1</ele>
        <time>2012-10-28T08:33:27Z</time>
      </trkpt>
      <trkpt lat="47.27405" lon="-1.68582">
        <ele>45.4</ele>
        <time>2012-10-28T08:33:28Z</time>
      </trkpt>
      <trkpt lat="47.27404" lon="-1.68582">
        <ele>45.8</ele>
        <time>2012-10-28T08:33:29Z</time>
      </trkpt>
      <trkpt lat="47.27404" lon="-1.68582">
        <ele>46</ele>
        <time>2012-10-28T08:33:30Z</time>
      </trkpt>
      <trkpt lat="47.27404" lon="-1.68582">
        <ele>46.6</ele>
        <time>2012-10-28T08:33:31Z</time>
      </trkpt>
      <trkpt lat="47.27404" lon="-1.68582">
        <ele>47</ele>
        <time>2012-10-28T08:33:32Z</time>
      </trkpt>
      <trkpt lat="47.27403" lon="-1.68583">
        <ele>46.8</ele>
        <time>2012-10-28T08:33:33Z</time>
      </trkpt>
      <trkpt lat="47.27403" lon="-1.68584">
        <ele>46.7</ele>
        <time>2012-10-28T08:33:34Z</time>
      </trkpt>
      <trkpt lat="47.27403" lon="-1.68585">
        <ele>46.6</ele>
        <time>2012-10-28T08:33:35Z</time>
      </trkpt>
      <trkpt lat="47.27402" lon="-1.68586">
        <ele>46.6</ele>
        <time>2012-10-28T08:33:36Z</time>
      </trkpt>
      <trkpt lat="47.27393" lon="-1.68597">
        <ele>47.8</ele>
        <time>2012-10-28T08:33:41Z</time>
      </trkpt>
      <trkpt lat="47.27322" lon="-1.68694">
        <ele>54.8</ele>
        <time>2012-10-28T08:34:26Z</time>
      </trkpt>
      <trkpt lat="47.27319" lon="-1.68696">
        <ele>55.1</ele>
        <time>2012-10-28T08:34:27Z</time>
      </trkpt>
      <trkpt lat="47.27315" lon="-1.68699">
        <ele>55.1</ele>
        <time>2012-10-28T08:34:29Z</time>
      </trkpt>
      <trkpt lat="47.27313" lon="-1.687">
        <ele>55.1</ele>
        <time>2012-10-28T08:34:30Z</time>
      </trkpt>
      <trkpt lat="47.27291" lon="-1.68709">
        <ele>55.7</ele>
        <time>2012-10-28T08:34:39Z</time>
      </trkpt>
      <trkpt lat="47.27288" lon="-1.68711">
        <ele>55.8</ele>
        <time>2012-10-28T08:34:40Z</time>
      </trkpt>
      <trkpt lat="47.27279" lon="-1.68718">
        <ele>57.1</ele>
        <time>2012-10-28T08:34:44Z</time>
      </trkpt>
      <trkpt lat="47.27258" lon="-1.68736">
        <ele>58.8</ele>
        <time>2012-10-28T08:34:54Z</time>
      </trkpt>
      <trkpt lat="47.27252" lon="-1.68742">
        <ele>58.3</ele>
        <time>2012-10-28T08:34:57Z</time>
      </trkpt>
      <trkpt lat="47.27251" lon="-1.68745">
        <ele>58</ele>
        <time>2012-10-28T08:34:58Z</time>
      </trkpt>
      <trkpt lat="47.27207" lon="-1.68813">
        <ele>63.2</ele>
        <time>2012-10-28T08:35:25Z</time>
      </trkpt>
      <trkpt lat="47.27203" lon="-1.68817">
        <ele>63.5</ele>
        <time>2012-10-28T08:35:27Z</time>
      </trkpt>
      <trkpt lat="47.27201" lon="-1.68819">
        <ele>63.5</ele>
        <time>2012-10-28T08:35:28Z</time>
      </trkpt>
      <trkpt lat="47.27199" lon="-1.6882">
        <ele>63.5</ele>
        <time>2012-10-28T08:35:29Z</time>
      </trkpt>
      <trkpt lat="47.27197" lon="-1.68823">
        <ele>63.5</ele>
        <time>2012-10-28T08:35:30Z</time>
      </trkpt>
      <trkpt lat="47.27196" lon="-1.68826">
        <ele>63.5</ele>
        <time>2012-10-28T08:35:31Z</time>
      </trkpt>
      <trkpt lat="47.27191" lon="-1.68835">
        <ele>64.1</ele>
        <time>2012-10-28T08:35:34Z</time>
      </trkpt>
      <trkpt lat="47.27181" lon="-1.68857">
        <ele>64.9</ele>
        <time>2012-10-28T08:35:41Z</time>
      </trkpt>
      <trkpt lat="47.27181" lon="-1.6886">
        <ele>65</ele>
        <time>2012-10-28T08:35:42Z</time>
      </trkpt>
      <trkpt lat="47.2718" lon="-1.68863">
        <ele>65.1</ele>
        <time>2012-10-28T08:35:43Z</time>
      </trkpt>
      <trkpt lat="47.27181" lon="-1.68866">
        <ele>65.3</ele>
        <time>2012-10-28T08:35:44Z</time>
      </trkpt>
      <trkpt lat="47.27183" lon="-1.68868">
        <ele>65.5</ele>
        <time>2012-10-28T08:35:45Z</time>
      </trkpt>
      <trkpt lat="47.27185" lon="-1.68869">
        <ele>65.5</ele>
        <time>2012-10-28T08:35:46Z</time>
      </trkpt>
      <trkpt lat="47.27192" lon="-1.68875">
        <ele>65.5</ele>
        <time>2012-10-28T08:35:49Z</time>
      </trkpt>
      <trkpt lat="47.27288" lon="-1.68931">
        <ele>64.4</ele>
        <time>2012-10-28T08:36:18Z</time>
      </trkpt>
      <trkpt lat="47.27291" lon="-1.68933">
        <ele>64.8</ele>
        <time>2012-10-28T08:36:19Z</time>
      </trkpt>
      <trkpt lat="47.27295" lon="-1.68933">
        <ele>65.1</ele>
        <time>2012-10-28T08:36:20Z</time>
      </trkpt>
      <trkpt lat="47.27299" lon="-1.6893">
        <ele>65.3</ele>
        <time>2012-10-28T08:36:21Z</time>
      </trkpt>
      <trkpt lat="47.27303" lon="-1.68927">
        <ele>65.3</ele>
        <time>2012-10-28T08:36:22Z</time>
      </trkpt>
      <trkpt lat="47.27317" lon="-1.6891">
        <ele>65.1</ele>
        <time>2012-10-28T08:36:26Z</time>
      </trkpt>
      <trkpt lat="47.27413" lon="-1.68783">
        <ele>59.7</ele>
        <time>2012-10-28T08:36:51Z</time>
      </trkpt>
      <trkpt lat="47.27418" lon="-1.6878">
        <ele>59.8</ele>
        <time>2012-10-28T08:36:52Z</time>
      </trkpt>
      <trkpt lat="47.27424" lon="-1.68779">
        <ele>59.4</ele>
        <time>2012-10-28T08:36:53Z</time>
      </trkpt>
      <trkpt lat="47.27429" lon="-1.68781">
        <ele>59.2</ele>
        <time>2012-10-28T08:36:54Z</time>
      </trkpt>
      <trkpt lat="47.27433" lon="-1.68784">
        <ele>58.6</ele>
        <time>2012-10-28T08:36:55Z</time>
      </trkpt>
      <trkpt lat="47.27479" lon="-1.68809">
        <ele>58.6</ele>
        <time>2012-10-28T08:37:06Z</time>
      </trkpt>
      <trkpt lat="47.27506" lon="-1.68822">
        <ele>58.9</ele>
        <time>2012-10-28T08:37:14Z</time>
      </trkpt>
      <trkpt lat="47.27509" lon="-1.68822">
        <ele>58.9</ele>
        <time>2012-10-28T08:37:15Z</time>
      </trkpt>
      <trkpt lat="47.27517" lon="-1.68823">
        <ele>59</ele>
        <time>2012-10-28T08:37:17Z</time>
      </trkpt>
      <trkpt lat="47.27524" lon="-1.68824">
        <ele>59.1</ele>
        <time>2012-10-28T08:37:19Z</time>
      </trkpt>
      <trkpt lat="47.27528" lon="-1.68824">
        <ele>59.1</ele>
        <time>2012-10-28T08:37:20Z</time>
      </trkpt>
      <trkpt lat="47.27532" lon="-1.68823">
        <ele>58.8</ele>
        <time>2012-10-28T08:37:21Z</time>
      </trkpt>
      <trkpt lat="47.27537" lon="-1.6882">
        <ele>58.6</ele>
        <time>2012-10-28T08:37:22Z</time>
      </trkpt>
      <trkpt lat="47.27548" lon="-1.68812">
        <ele>58</ele>
        <time>2012-10-28T08:37:25Z</time>
      </trkpt>
      <trkpt lat="47.27551" lon="-1.68809">
        <ele>58</ele>
        <time>2012-10-28T08:37:26Z</time>
      </trkpt>
      <trkpt lat="47.27551" lon="-1.68806">
        <ele>58.1</ele>
        <time>2012-10-28T08:37:27Z</time>
      </trkpt>
      <trkpt lat="47.27552" lon="-1.68802">
        <ele>57.4</ele>
        <time>2012-10-28T08:37:28Z</time>
      </trkpt>
      <trkpt lat="47.27553" lon="-1.68797">
        <ele>56.9</ele>
        <time>2012-10-28T08:37:29Z</time>
      </trkpt>
      <trkpt lat="47.27555" lon="-1.68792">
        <ele>56.6</ele>
        <time>2012-10-28T08:37:30Z</time>
      </trkpt>
      <trkpt lat="47.27557" lon="-1.68788">
        <ele>56</ele>
        <time>2012-10-28T08:37:31Z</time>
      </trkpt>
      <trkpt lat="47.27563" lon="-1.68777">
        <ele>54.8</ele>
        <time>2012-10-28T08:37:35Z</time>
      </trkpt>
      <trkpt lat="47.27577" lon="-1.6875">
        <ele>45.7</ele>
        <time>2012-10-28T08:37:45Z</time>
      </trkpt>
      <trkpt lat="47.2758" lon="-1.68747">
        <ele>43.1</ele>
        <time>2012-10-28T08:37:47Z</time>
      </trkpt>
      <trkpt lat="47.27582" lon="-1.68746">
        <ele>41.2</ele>
        <time>2012-10-28T08:37:49Z</time>
      </trkpt>
      <trkpt lat="47.27584" lon="-1.68746">
        <ele>40</ele>
        <time>2012-10-28T08:37:50Z</time>
      </trkpt>
      <trkpt lat="47.27596" lon="-1.68748">
        <ele>38.7</ele>
        <time>2012-10-28T08:37:54Z</time>
      </trkpt>
      <trkpt lat="47.276" lon="-1.68748">
        <ele>38.5</ele>
        <time>2012-10-28T08:37:55Z</time>
      </trkpt>
      <trkpt lat="47.27606" lon="-1.68748">
        <ele>38.3</ele>
        <time>2012-10-28T08:37:57Z</time>
      </trkpt>
      <trkpt lat="47.27611" lon="-1.68747">
        <ele>38.2</ele>
        <time>2012-10-28T08:37:59Z</time>
      </trkpt>
      <trkpt lat="47.27614" lon="-1.68746">
        <ele>38.1</ele>
        <time>2012-10-28T08:38:00Z</time>
      </trkpt>
      <trkpt lat="47.27617" lon="-1.68744">
        <ele>38</ele>
        <time>2012-10-28T08:38:01Z</time>
      </trkpt>
      <trkpt lat="47.27619" lon="-1.68744">
        <ele>38.1</ele>
        <time>2012-10-28T08:38:02Z</time>
      </trkpt>
      <trkpt lat="47.2762" lon="-1.68745">
        <ele>38.2</ele>
        <time>2012-10-28T08:38:03Z</time>
      </trkpt>
      <trkpt lat="47.27621" lon="-1.68747">
        <ele>38.1</ele>
        <time>2012-10-28T08:38:04Z</time>
      </trkpt>
      <trkpt lat="47.27622" lon="-1.68748">
        <ele>38.1</ele>
        <time>2012-10-28T08:38:05Z</time>
      </trkpt>
      <trkpt lat="47.27621" lon="-1.6875">
        <ele>38.3</ele>
        <time>2012-10-28T08:38:06Z</time>
      </trkpt>
      <trkpt lat="47.2762" lon="-1.68757">
        <ele>39.8</ele>
        <time>2012-10-28T08:38:10Z</time>
      </trkpt>
      <trkpt lat="47.27621" lon="-1.68758">
        <ele>40.1</ele>
        <time>2012-10-28T08:38:11Z</time>
      </trkpt>
      <trkpt lat="47.27622" lon="-1.68759">
        <ele>40.7</ele>
        <time>2012-10-28T08:38:13Z</time>
      </trkpt>
      <trkpt lat="47.27622" lon="-1.68759">
        <ele>40.9</ele>
        <time>2012-10-28T08:38:14Z</time>
      </trkpt>
      <trkpt lat="47.27623" lon="-1.6876">
        <ele>41.1</ele>
        <time>2012-10-28T08:38:15Z</time>
      </trkpt>
      <trkpt lat="47.27623" lon="-1.6876">
        <ele>41.2</ele>
        <time>2012-10-28T08:38:16Z</time>
      </trkpt>
      <trkpt lat="47.27624" lon="-1.68762">
        <ele>42.5</ele>
        <time>2012-10-28T08:38:19Z</time>
      </trkpt>
      <trkpt lat="47.27625" lon="-1.68764">
        <ele>43.1</ele>
        <time>2012-10-28T08:38:21Z</time>
      </trkpt>
      <trkpt lat="47.27626" lon="-1.68765">
        <ele>43.3</ele>
        <time>2012-10-28T08:38:22Z</time>
      </trkpt>
      <trkpt lat="47.27626" lon="-1.68766">
        <ele>43.7</ele>
        <time>2012-10-28T08:38:23Z</time>
      </trkpt>
      <trkpt lat="47.27626" lon="-1.68767">
        <ele>44</ele>
        <time>2012-10-28T08:38:24Z</time>
      </trkpt>
      <trkpt lat="47.27627" lon="-1.68768">
        <ele>44</ele>
        <time>2012-10-28T08:38:25Z</time>
      </trkpt>
      <trkpt lat="47.27627" lon="-1.6877">
        <ele>44</ele>
        <time>2012-10-28T08:38:27Z</time>
      </trkpt>
      <trkpt lat="47.27627" lon="-1.6877">
        <ele>44.5</ele>
        <time>2012-10-28T08:38:28Z</time>
      </trkpt>
      <trkpt lat="47.27627" lon="-1.6877">
        <ele>44.9</ele>
        <time>2012-10-28T08:38:29Z</time>
      </trkpt>
      <trkpt lat="47.27627" lon="-1.68771">
        <ele>45.1</ele>
        <time>2012-10-28T08:38:30Z</time>
      </trkpt>
      <trkpt lat="47.27628" lon="-1.68772">
        <ele>45.3</ele>
        <time>2012-10-28T08:38:31Z</time>
      </trkpt>
      <trkpt lat="47.27628" lon="-1.68773">
        <ele>45.3</ele>
        <time>2012-10-28T08:38:32Z</time>
      </trkpt>
      <trkpt lat="47.27628" lon="-1.68774">
        <ele>45.3</ele>
        <time>2012-10-28T08:38:33Z</time>
      </trkpt>
      <trkpt lat="47.27628" lon="-1.68776">
        <ele>45.8</ele>
        <time>2012-10-28T08:38:35Z</time>
      </trkpt>
      <trkpt lat="47.27629" lon="-1.68776">
        <ele>46.1</ele>
        <time>2012-10-28T08:38:36Z</time>
      </trkpt>
      <trkpt lat="47.27629" lon="-1.68777">
        <ele>46.1</ele>
        <time>2012-10-28T08:38:37Z</time>
      </trkpt>
      <trkpt lat="47.27629" lon="-1.68778">
        <ele>46.1</ele>
        <time>2012-10-28T08:38:38Z</time>
      </trkpt>
      <trkpt lat="47.27629" lon="-1.68779">
        <ele>46</ele>
        <time>2012-10-28T08:38:39Z</time>
      </trkpt>
      <trkpt lat="47.27629" lon="-1.6878">
        <ele>46</ele>
        <time>2012-10-28T08:38:40Z</time>
      </trkpt>
      <trkpt lat="47.27629" lon="-1.68782">
        <ele>46.4</ele>
        <time>2012-10-28T08:38:42Z</time>
      </trkpt>
      <trkpt lat="47.2763" lon="-1.68784">
        <ele>46.7</ele>
        <time>2012-10-28T08:38:44Z</time>
      </trkpt>
      <trkpt lat="47.2763" lon="-1.68785">
        <ele>46.7</ele>
        <time>2012-10-28T08:38:45Z</time>
      </trkpt>
      <trkpt lat="47.2763" lon="-1.68786">
        <ele>46.6</ele>
        <time>2012-10-28T08:38:46Z</time>
      </trkpt>
      <trkpt lat="47.2763" lon="-1.68787">
        <ele>47.3</ele>
        <time>2012-10-28T08:38:47Z</time>
      </trkpt>
      <trkpt lat="47.2763" lon="-1.68788">
        <ele>47.7</ele>
        <time>2012-10-28T08:38:48Z</time>
      </trkpt>
      <trkpt lat="47.27631" lon="-1.68789">
        <ele>48</ele>
        <time>2012-10-28T08:38:49Z</time>
      </trkpt>
      <trkpt lat="47.27631" lon="-1.6879">
        <ele>48.2</ele>
        <time>2012-10-28T08:38:50Z</time>
      </trkpt>
      <trkpt lat="47.27631" lon="-1.6879">
        <ele>48.3</ele>
        <time>2012-10-28T08:38:51Z</time>
      </trkpt>
      <trkpt lat="47.27631" lon="-1.68791">
        <ele>48.4</ele>
        <time>2012-10-28T08:38:52Z</time>
      </trkpt>
      <trkpt lat="47.27632" lon="-1.6879">
        <ele>48.4</ele>
        <time>2012-10-28T08:38:53Z</time>
      </trkpt>
      <trkpt lat="47.27632" lon="-1.6879">
        <ele>48.3</ele>
        <time>2012-10-28T08:38:54Z</time>
      </trkpt>
      <trkpt lat="47.27633" lon="-1.6879">
        <ele>48.3</ele>
        <time>2012-10-28T08:38:55Z</time>
      </trkpt>
      <trkpt lat="47.27634" lon="-1.6879">
        <ele>48.7</ele>
        <time>2012-10-28T08:38:58Z</time>
      </trkpt>
      <trkpt lat="47.27634" lon="-1.6879">
        <ele>48.8</ele>
        <time>2012-10-28T08:38:59Z</time>
      </trkpt>
      <trkpt lat="47.27634" lon="-1.6879">
        <ele>48.8</ele>
        <time>2012-10-28T08:39:00Z</time>
      </trkpt>
      <trkpt lat="47.27634" lon="-1.6879">
        <ele>48.7</ele>
        <time>2012-10-28T08:39:01Z</time>
      </trkpt>
      <trkpt lat="47.27634" lon="-1.6879">
        <ele>48.6</ele>
        <time>2012-10-28T08:39:02Z</time>
      </trkpt>
      <trkpt lat="47.27635" lon="-1.6879">
        <ele>48.8</ele>
        <time>2012-10-28T08:39:03Z</time>
      </trkpt>
      <trkpt lat="47.27636" lon="-1.68788">
        <ele>48.9</ele>
        <time>2012-10-28T08:39:04Z</time>
      </trkpt>
      <trkpt lat="47.27637" lon="-1.68785">
        <ele>49</ele>
        <time>2012-10-28T08:39:05Z</time>
      </trkpt>
      <trkpt lat="47.27637" lon="-1.68781">
        <ele>49</ele>
        <time>2012-10-28T08:39:06Z</time>
      </trkpt>
      <trkpt lat="47.27638" lon="-1.68777">
        <ele>48.9</ele>
        <time>2012-10-28T08:39:07Z</time>
      </trkpt>
      <trkpt lat="47.27639" lon="-1.68773">
        <ele>48.5</ele>
        <time>2012-10-28T08:39:08Z</time>
      </trkpt>
      <trkpt lat="47.27641" lon="-1.6877">
        <ele>48.2</ele>
        <time>2012-10-28T08:39:09Z</time>
      </trkpt>
      <trkpt lat="47.27642" lon="-1.68768">
        <ele>47.5</ele>
        <time>2012-10-28T08:39:10Z</time>
      </trkpt>
      <trkpt lat="47.27646" lon="-1.68765">
        <ele>46.6</ele>
        <time>2012-10-28T08:39:12Z</time>
      </trkpt>
      <trkpt lat="47.27647" lon="-1.68762">
        <ele>45.7</ele>
        <time>2012-10-28T08:39:13Z</time>
      </trkpt>
      <trkpt lat="47.27648" lon="-1.68758">
        <ele>45.1</ele>
        <time>2012-10-28T08:39:14Z</time>
      </trkpt>
      <trkpt lat="47.27648" lon="-1.68755">
        <ele>44.8</ele>
        <time>2012-10-28T08:39:15Z</time>
      </trkpt>
      <trkpt lat="47.27647" lon="-1.6875">
        <ele>43.8</ele>
        <time>2012-10-28T08:39:17Z</time>
      </trkpt>
      <trkpt lat="47.27647" lon="-1.68748">
        <ele>43.2</ele>
        <time>2012-10-28T08:39:18Z</time>
      </trkpt>
      <trkpt lat="47.27647" lon="-1.68743">
        <ele>42.3</ele>
        <time>2012-10-28T08:39:20Z</time>
      </trkpt>
      <trkpt lat="47.27646" lon="-1.68741">
        <ele>41.8</ele>
        <time>2012-10-28T08:39:21Z</time>
      </trkpt>
      <trkpt lat="47.27646" lon="-1.68738">
        <ele>40.8</ele>
        <time>2012-10-28T08:39:22Z</time>
      </trkpt>
      <trkpt lat="47.27645" lon="-1.68736">
        <ele>40</ele>
        <time>2012-10-28T08:39:23Z</time>
      </trkpt>
      <trkpt lat="47.27645" lon="-1.68735">
        <ele>39.5</ele>
        <time>2012-10-28T08:39:24Z</time>
      </trkpt>
      <trkpt lat="47.27646" lon="-1.68734">
        <ele>39.2</ele>
        <time>2012-10-28T08:39:25Z</time>
      </trkpt>
      <trkpt lat="47.27648" lon="-1.68732">
        <ele>39</ele>
        <time>2012-10-28T08:39:26Z</time>
      </trkpt>
      <trkpt lat="47.2765" lon="-1.68731">
        <ele>38.3</ele>
        <time>2012-10-28T08:39:27Z</time>
      </trkpt>
      <trkpt lat="47.27653" lon="-1.68729">
        <ele>37.5</ele>
        <time>2012-10-28T08:39:29Z</time>
      </trkpt>
      <trkpt lat="47.27654" lon="-1.68728">
        <ele>37.4</ele>
        <time>2012-10-28T08:39:30Z</time>
      </trkpt>
      <trkpt lat="47.27656" lon="-1.68726">
        <ele>37.1</ele>
        <time>2012-10-28T08:39:32Z</time>
      </trkpt>
      <trkpt lat="47.27657" lon="-1.68724">
        <ele>37</ele>
        <time>2012-10-28T08:39:33Z</time>
      </trkpt>
      <trkpt lat="47.27658" lon="-1.68724">
        <ele>36.8</ele>
        <time>2012-10-28T08:39:34Z</time>
      </trkpt>
      <trkpt lat="47.2766" lon="-1.68723">
        <ele>36.7</ele>
        <time>2012-10-28T08:39:35Z</time>
      </trkpt>
      <trkpt lat="47.27661" lon="-1.68723">
        <ele>36.6</ele>
        <time>2012-10-28T08:39:36Z</time>
      </trkpt>
      <trkpt lat="47.27662" lon="-1.68723">
        <ele>36.6</ele>
        <time>2012-10-28T08:39:37Z</time>
      </trkpt>
      <trkpt lat="47.27664" lon="-1.68721">
        <ele>36.5</ele>
        <time>2012-10-28T08:39:38Z</time>
      </trkpt>
      <trkpt lat="47.2767" lon="-1.68717">
        <ele>36.8</ele>
        <time>2012-10-28T08:39:41Z</time>
      </trkpt>
      <trkpt lat="47.27671" lon="-1.68715">
        <ele>36.7</ele>
        <time>2012-10-28T08:39:42Z</time>
      </trkpt>
      <trkpt lat="47.27673" lon="-1.68713">
        <ele>36.6</ele>
        <time>2012-10-28T08:39:43Z</time>
      </trkpt>
      <trkpt lat="47.27674" lon="-1.68711">
        <ele>36.9</ele>
        <time>2012-10-28T08:39:44Z</time>
      </trkpt>
      <trkpt lat="47.27675" lon="-1.68709">
        <ele>37.1</ele>
        <time>2012-10-28T08:39:45Z</time>
      </trkpt>
      <trkpt lat="47.27676" lon="-1.68709">
        <ele>37.2</ele>
        <time>2012-10-28T08:39:46Z</time>
      </trkpt>
      <trkpt lat="47.27676" lon="-1.68708">
        <ele>37.3</ele>
        <time>2012-10-28T08:39:47Z</time>
      </trkpt>
      <trkpt lat="47.27677" lon="-1.68707">
        <ele>37.2</ele>
        <time>2012-10-28T08:39:48Z</time>
      </trkpt>
      <trkpt lat="47.27677" lon="-1.68707">
        <ele>37.2</ele>
        <time>2012-10-28T08:39:49Z</time>
      </trkpt>
      <trkpt lat="47.27677" lon="-1.68707">
        <ele>37.2</ele>
        <time>2012-10-28T08:39:50Z</time>
      </trkpt>
      <trkpt lat="47.27678" lon="-1.68707">
        <ele>37.3</ele>
        <time>2012-10-28T08:39:51Z</time>
      </trkpt>
      <trkpt lat="47.27678" lon="-1.68706">
        <ele>37.4</ele>
        <time>2012-10-28T08:39:52Z</time>
      </trkpt>
      <trkpt lat="47.27678" lon="-1.68706">
        <ele>37.3</ele>
        <time>2012-10-28T08:39:53Z</time>
      </trkpt>
      <trkpt lat="47.27678" lon="-1.68706">
        <ele>37.3</ele>
        <time>2012-10-28T08:39:54Z</time>
      </trkpt>
      <trkpt lat="47.27679" lon="-1.68706">
        <ele>37.4</ele>
        <time>2012-10-28T08:39:55Z</time>
      </trkpt>
      <trkpt lat="47.2768" lon="-1.68706">
        <ele>37.5</ele>
        <time>2012-10-28T08:39:56Z</time>
      </trkpt>
      <trkpt lat="47.27681" lon="-1.68707">
        <ele>37.5</ele>
        <time>2012-10-28T08:39:57Z</time>
      </trkpt>
      <trkpt lat="47.27681" lon="-1.68707">
        <ele>37.6</ele>
        <time>2012-10-28T08:39:59Z</time>
      </trkpt>
      <trkpt lat="47.27681" lon="-1.68707">
        <ele>37.8</ele>
        <time>2012-10-28T08:40:00Z</time>
      </trkpt>
      <trkpt lat="47.27681" lon="-1.6871">
        <ele>38</ele>
        <time>2012-10-28T08:40:03Z</time>
      </trkpt>
      <trkpt lat="47.27681" lon="-1.68711">
        <ele>37.9</ele>
        <time>2012-10-28T08:40:04Z</time>
      </trkpt>
      <trkpt lat="47.27682" lon="-1.68713">
        <ele>37.9</ele>
        <time>2012-10-28T08:40:05Z</time>
      </trkpt>
      <trkpt lat="47.27683" lon="-1.68714">
        <ele>37.9</ele>
        <time>2012-10-28T08:40:06Z</time>
      </trkpt>
      <trkpt lat="47.27684" lon="-1.68714">
        <ele>38.2</ele>
        <time>2012-10-28T08:40:07Z</time>
      </trkpt>
      <trkpt lat="47.27686" lon="-1.68714">
        <ele>38.3</ele>
        <time>2012-10-28T08:40:08Z</time>
      </trkpt>
      <trkpt lat="47.27687" lon="-1.68714">
        <ele>38.5</ele>
        <time>2012-10-28T08:40:09Z</time>
      </trkpt>
      <trkpt lat="47.27688" lon="-1.68714">
        <ele>38.8</ele>
        <time>2012-10-28T08:40:10Z</time>
      </trkpt>
      <trkpt lat="47.27689" lon="-1.68714">
        <ele>39.1</ele>
        <time>2012-10-28T08:40:11Z</time>
      </trkpt>
      <trkpt lat="47.27689" lon="-1.68714">
        <ele>39.9</ele>
        <time>2012-10-28T08:40:12Z</time>
      </trkpt>
      <trkpt lat="47.2769" lon="-1.68713">
        <ele>40.6</ele>
        <time>2012-10-28T08:40:13Z</time>
      </trkpt>
      <trkpt lat="47.27691" lon="-1.68712">
        <ele>40.6</ele>
        <time>2012-10-28T08:40:14Z</time>
      </trkpt>
      <trkpt lat="47.27691" lon="-1.68711">
        <ele>40.7</ele>
        <time>2012-10-28T08:40:15Z</time>
      </trkpt>
      <trkpt lat="47.27692" lon="-1.68709">
        <ele>40.9</ele>
        <time>2012-10-28T08:40:17Z</time>
      </trkpt>
      <trkpt lat="47.27693" lon="-1.68708">
        <ele>41</ele>
        <time>2012-10-28T08:40:18Z</time>
      </trkpt>
      <trkpt lat="47.27693" lon="-1.68708">
        <ele>41.3</ele>
        <time>2012-10-28T08:40:19Z</time>
      </trkpt>
      <trkpt lat="47.27694" lon="-1.68708">
        <ele>41.5</ele>
        <time>2012-10-28T08:40:20Z</time>
      </trkpt>
      <trkpt lat="47.27694" lon="-1.68707">
        <ele>42.1</ele>
        <time>2012-10-28T08:40:21Z</time>
      </trkpt>
      <trkpt lat="47.27695" lon="-1.68706">
        <ele>42.5</ele>
        <time>2012-10-28T08:40:22Z</time>
      </trkpt>
      <trkpt lat="47.27695" lon="-1.68706">
        <ele>42.9</ele>
        <time>2012-10-28T08:40:23Z</time>
      </trkpt>
      <trkpt lat="47.27696" lon="-1.68707">
        <ele>42.8</ele>
        <time>2012-10-28T08:40:24Z</time>
      </trkpt>
      <trkpt lat="47.27697" lon="-1.68707">
        <ele>42.7</ele>
        <time>2012-10-28T08:40:25Z</time>
      </trkpt>
      <trkpt lat="47.27697" lon="-1.68708">
        <ele>43.1</ele>
        <time>2012-10-28T08:40:26Z</time>
      </trkpt>
      <trkpt lat="47.27698" lon="-1.68709">
        <ele>43.4</ele>
        <time>2012-10-28T08:40:27Z</time>
      </trkpt>
      <trkpt lat="47.27699" lon="-1.68711">
        <ele>43.7</ele>
        <time>2012-10-28T08:40:29Z</time>
      </trkpt>
      <trkpt lat="47.27699" lon="-1.68712">
        <ele>44.1</ele>
        <time>2012-10-28T08:40:31Z</time>
      </trkpt>
      <trkpt lat="47.27698" lon="-1.68713">
        <ele>44.3</ele>
        <time>2012-10-28T08:40:32Z</time>
      </trkpt>
      <trkpt lat="47.27698" lon="-1.68714">
        <ele>44.4</ele>
        <time>2012-10-28T08:40:33Z</time>
      </trkpt>
      <trkpt lat="47.27698" lon="-1.68714">
        <ele>44.5</ele>
        <time>2012-10-28T08:40:34Z</time>
      </trkpt>
      <trkpt lat="47.27699" lon="-1.68715">
        <ele>44.6</ele>
        <time>2012-10-28T08:40:35Z</time>
      </trkpt>
      <trkpt lat="47.27699" lon="-1.68716">
        <ele>44.4</ele>
        <time>2012-10-28T08:40:36Z</time>
      </trkpt>
      <trkpt lat="47.277" lon="-1.68717">
        <ele>44.2</ele>
        <time>2012-10-28T08:40:37Z</time>
      </trkpt>
      <trkpt lat="47.277" lon="-1.68718">
        <ele>44.2</ele>
        <time>2012-10-28T08:40:38Z</time>
      </trkpt>
      <trkpt lat="47.277" lon="-1.6872">
        <ele>44.2</ele>
        <time>2012-10-28T08:40:39Z</time>
      </trkpt>
      <trkpt lat="47.27699" lon="-1.68721">
        <ele>44.3</ele>
        <time>2012-10-28T08:40:40Z</time>
      </trkpt>
      <trkpt lat="47.27699" lon="-1.68722">
        <ele>44.3</ele>
        <time>2012-10-28T08:40:41Z</time>
      </trkpt>
      <trkpt lat="47.27699" lon="-1.68722">
        <ele>44.3</ele>
        <time>2012-10-28T08:40:42Z</time>
      </trkpt>
      <trkpt lat="47.27698" lon="-1.68722">
        <ele>43.9</ele>
        <time>2012-10-28T08:40:43Z</time>
      </trkpt>
      <trkpt lat="47.27696" lon="-1.68722">
        <ele>43.6</ele>
        <time>2012-10-28T08:40:44Z</time>
      </trkpt>
      <trkpt lat="47.27683" lon="-1.68721">
        <ele>42.5</ele>
        <time>2012-10-28T08:40:48Z</time>
      </trkpt>
      <trkpt lat="47.27682" lon="-1.68721">
        <ele>42.2</ele>
        <time>2012-10-28T08:40:49Z</time>
      </trkpt>
      <trkpt lat="47.2768" lon="-1.68722">
        <ele>42.2</ele>
        <time>2012-10-28T08:40:50Z</time>
      </trkpt>
      <trkpt lat="47.27679" lon="-1.68723">
        <ele>42.2</ele>
        <time>2012-10-28T08:40:51Z</time>
      </trkpt>
      <trkpt lat="47.27678" lon="-1.68724">
        <ele>42.1</ele>
        <time>2012-10-28T08:40:52Z</time>
      </trkpt>
      <trkpt lat="47.27678" lon="-1.68725">
        <ele>42.1</ele>
        <time>2012-10-28T08:40:53Z</time>
      </trkpt>
      <trkpt lat="47.27677" lon="-1.68727">
        <ele>42</ele>
        <time>2012-10-28T08:40:54Z</time>
      </trkpt>
      <trkpt lat="47.27678" lon="-1.68728">
        <ele>42.2</ele>
        <time>2012-10-28T08:40:55Z</time>
      </trkpt>
      <trkpt lat="47.27678" lon="-1.68728">
        <ele>42.4</ele>
        <time>2012-10-28T08:40:56Z</time>
      </trkpt>
      <trkpt lat="47.27678" lon="-1.68728">
        <ele>42.4</ele>
        <time>2012-10-28T08:40:57Z</time>
      </trkpt>
      <trkpt lat="47.27678" lon="-1.68728">
        <ele>42.5</ele>
        <time>2012-10-28T08:40:58Z</time>
      </trkpt>
      <trkpt lat="47.27678" lon="-1.68728">
        <ele>42.7</ele>
        <time>2012-10-28T08:40:59Z</time>
      </trkpt>
      <trkpt lat="47.27678" lon="-1.68729">
        <ele>42.8</ele>
        <time>2012-10-28T08:41:00Z</time>
      </trkpt>
      <trkpt lat="47.27678" lon="-1.68729">
        <ele>42.9</ele>
        <time>2012-10-28T08:41:01Z</time>
      </trkpt>
      <trkpt lat="47.27678" lon="-1.68729">
        <ele>43.2</ele>
        <time>2012-10-28T08:41:02Z</time>
      </trkpt>
      <trkpt lat="47.27678" lon="-1.6873">
        <ele>43.4</ele>
        <time>2012-10-28T08:41:03Z</time>
      </trkpt>
      <trkpt lat="47.27678" lon="-1.6873">
        <ele>43.9</ele>
        <time>2012-10-28T08:41:04Z</time>
      </trkpt>
      <trkpt lat="47.27678" lon="-1.6873">
        <ele>44.3</ele>
        <time>2012-10-28T08:41:05Z</time>
      </trkpt>
      <trkpt lat="47.27678" lon="-1.68731">
        <ele>44.6</ele>
        <time>2012-10-28T08:41:06Z</time>
      </trkpt>
      <trkpt lat="47.27678" lon="-1.68731">
        <ele>44.6</ele>
        <time>2012-10-28T08:41:07Z</time>
      </trkpt>
      <trkpt lat="47.27679" lon="-1.68732">
        <ele>44.6</ele>
        <time>2012-10-28T08:41:08Z</time>
      </trkpt>
      <trkpt lat="47.27681" lon="-1.68737">
        <ele>44.9</ele>
        <time>2012-10-28T08:41:12Z</time>
      </trkpt>
      <trkpt lat="47.27682" lon="-1.68739">
        <ele>44.8</ele>
        <time>2012-10-28T08:41:13Z</time>
      </trkpt>
      <trkpt lat="47.27682" lon="-1.68739">
        <ele>44.9</ele>
        <time>2012-10-28T08:41:14Z</time>
      </trkpt>
      <trkpt lat="47.27682" lon="-1.6874">
        <ele>45</ele>
        <time>2012-10-28T08:41:15Z</time>
      </trkpt>
      <trkpt lat="47.27682" lon="-1.6874">
        <ele>45.3</ele>
        <time>2012-10-28T08:41:16Z</time>
      </trkpt>
      <trkpt lat="47.27682" lon="-1.6874">
        <ele>45.5</ele>
        <time>2012-10-28T08:41:17Z</time>
      </trkpt>
      <trkpt lat="47.27683" lon="-1.6874">
        <ele>45.6</ele>
        <time>2012-10-28T08:41:18Z</time>
      </trkpt>
      <trkpt lat="47.27683" lon="-1.68741">
        <ele>46</ele>
        <time>2012-10-28T08:41:19Z</time>
      </trkpt>
      <trkpt lat="47.27684" lon="-1.68741">
        <ele>46.1</ele>
        <time>2012-10-28T08:41:21Z</time>
      </trkpt>
      <trkpt lat="47.27685" lon="-1.68741">
        <ele>46.1</ele>
        <time>2012-10-28T08:41:22Z</time>
      </trkpt>
      <trkpt lat="47.27685" lon="-1.68741">
        <ele>46.2</ele>
        <time>2012-10-28T08:41:23Z</time>
      </trkpt>
      <trkpt lat="47.27685" lon="-1.68742">
        <ele>46.2</ele>
        <time>2012-10-28T08:41:24Z</time>
      </trkpt>
      <trkpt lat="47.27685" lon="-1.68742">
        <ele>46.3</ele>
        <time>2012-10-28T08:41:25Z</time>
      </trkpt>
      <trkpt lat="47.27686" lon="-1.68742">
        <ele>46.7</ele>
        <time>2012-10-28T08:41:26Z</time>
      </trkpt>
      <trkpt lat="47.27686" lon="-1.68743">
        <ele>47</ele>
        <time>2012-10-28T08:41:27Z</time>
      </trkpt>
      <trkpt lat="47.27687" lon="-1.68742">
        <ele>47.5</ele>
        <time>2012-10-28T08:41:28Z</time>
      </trkpt>
      <trkpt lat="47.27695" lon="-1.68741">
        <ele>47.1</ele>
        <time>2012-10-28T08:41:32Z</time>
      </trkpt>
      <trkpt lat="47.27698" lon="-1.68742">
        <ele>46.7</ele>
        <time>2012-10-28T08:41:34Z</time>
      </trkpt>
      <trkpt lat="47.277" lon="-1.68742">
        <ele>46.8</ele>
        <time>2012-10-28T08:41:35Z</time>
      </trkpt>
      <trkpt lat="47.27702" lon="-1.68741">
        <ele>47</ele>
        <time>2012-10-28T08:41:36Z</time>
      </trkpt>
      <trkpt lat="47.27703" lon="-1.68741">
        <ele>47</ele>
        <time>2012-10-28T08:41:37Z</time>
      </trkpt>
      <trkpt lat="47.27706" lon="-1.68741">
        <ele>47.1</ele>
        <time>2012-10-28T08:41:39Z</time>
      </trkpt>
      <trkpt lat="47.27708" lon="-1.68741">
        <ele>47.2</ele>
        <time>2012-10-28T08:41:40Z</time>
      </trkpt>
      <trkpt lat="47.27713" lon="-1.68742">
        <ele>47.7</ele>
        <time>2012-10-28T08:41:43Z</time>
      </trkpt>
      <trkpt lat="47.27714" lon="-1.68742">
        <ele>47.9</ele>
        <time>2012-10-28T08:41:44Z</time>
      </trkpt>
      <trkpt lat="47.27716" lon="-1.68742">
        <ele>48.6</ele>
        <time>2012-10-28T08:41:45Z</time>
      </trkpt>
      <trkpt lat="47.27722" lon="-1.6874">
        <ele>50</ele>
        <time>2012-10-28T08:41:49Z</time>
      </trkpt>
      <trkpt lat="47.27724" lon="-1.6874">
        <ele>50.1</ele>
        <time>2012-10-28T08:41:50Z</time>
      </trkpt>
      <trkpt lat="47.27726" lon="-1.68741">
        <ele>50.1</ele>
        <time>2012-10-28T08:41:51Z</time>
      </trkpt>
      <trkpt lat="47.27728" lon="-1.68741">
        <ele>50.1</ele>
        <time>2012-10-28T08:41:52Z</time>
      </trkpt>
      <trkpt lat="47.2773" lon="-1.68742">
        <ele>50.1</ele>
        <time>2012-10-28T08:41:53Z</time>
      </trkpt>
      <trkpt lat="47.27731" lon="-1.68743">
        <ele>49.5</ele>
        <time>2012-10-28T08:41:54Z</time>
      </trkpt>
      <trkpt lat="47.27733" lon="-1.68746">
        <ele>49.1</ele>
        <time>2012-10-28T08:41:55Z</time>
      </trkpt>
      <trkpt lat="47.27737" lon="-1.6875">
        <ele>48.8</ele>
        <time>2012-10-28T08:41:57Z</time>
      </trkpt>
      <trkpt lat="47.27741" lon="-1.68755">
        <ele>48.7</ele>
        <time>2012-10-28T08:41:59Z</time>
      </trkpt>
      <trkpt lat="47.27742" lon="-1.68758">
        <ele>48.7</ele>
        <time>2012-10-28T08:42:00Z</time>
      </trkpt>
      <trkpt lat="47.27743" lon="-1.68762">
        <ele>49.1</ele>
        <time>2012-10-28T08:42:02Z</time>
      </trkpt>
      <trkpt lat="47.27744" lon="-1.68764">
        <ele>49.2</ele>
        <time>2012-10-28T08:42:03Z</time>
      </trkpt>
      <trkpt lat="47.27747" lon="-1.68768">
        <ele>49.2</ele>
        <time>2012-10-28T08:42:05Z</time>
      </trkpt>
      <trkpt lat="47.2775" lon="-1.68771">
        <ele>49.2</ele>
        <time>2012-10-28T08:42:06Z</time>
      </trkpt>
      <trkpt lat="47.27753" lon="-1.68772">
        <ele>49.2</ele>
        <time>2012-10-28T08:42:07Z</time>
      </trkpt>
      <trkpt lat="47.27761" lon="-1.68777">
        <ele>48.9</ele>
        <time>2012-10-28T08:42:09Z</time>
      </trkpt>
      <trkpt lat="47.27764" lon="-1.68778">
        <ele>48.8</ele>
        <time>2012-10-28T08:42:10Z</time>
      </trkpt>
      <trkpt lat="47.27775" lon="-1.68782">
        <ele>48.3</ele>
        <time>2012-10-28T08:42:13Z</time>
      </trkpt>
      <trkpt lat="47.27778" lon="-1.68785">
        <ele>47.8</ele>
        <time>2012-10-28T08:42:14Z</time>
      </trkpt>
      <trkpt lat="47.2778" lon="-1.68788">
        <ele>48.1</ele>
        <time>2012-10-28T08:42:15Z</time>
      </trkpt>
      <trkpt lat="47.27785" lon="-1.68798">
        <ele>48.3</ele>
        <time>2012-10-28T08:42:18Z</time>
      </trkpt>
      <trkpt lat="47.27786" lon="-1.68802">
        <ele>48.2</ele>
        <time>2012-10-28T08:42:19Z</time>
      </trkpt>
      <trkpt lat="47.27787" lon="-1.68805">
        <ele>48.8</ele>
        <time>2012-10-28T08:42:20Z</time>
      </trkpt>
      <trkpt lat="47.27787" lon="-1.68808">
        <ele>49.2</ele>
        <time>2012-10-28T08:42:21Z</time>
      </trkpt>
      <trkpt lat="47.27787" lon="-1.68811">
        <ele>49.5</ele>
        <time>2012-10-28T08:42:22Z</time>
      </trkpt>
      <trkpt lat="47.27787" lon="-1.68815">
        <ele>49.9</ele>
        <time>2012-10-28T08:42:24Z</time>
      </trkpt>
      <trkpt lat="47.27786" lon="-1.68825">
        <ele>50.4</ele>
        <time>2012-10-28T08:42:28Z</time>
      </trkpt>
      <trkpt lat="47.27785" lon="-1.68827">
        <ele>50.5</ele>
        <time>2012-10-28T08:42:29Z</time>
      </trkpt>
      <trkpt lat="47.27784" lon="-1.6883">
        <ele>50.5</ele>
        <time>2012-10-28T08:42:31Z</time>
      </trkpt>
      <trkpt lat="47.27783" lon="-1.68832">
        <ele>50.4</ele>
        <time>2012-10-28T08:42:32Z</time>
      </trkpt>
      <trkpt lat="47.27782" lon="-1.68834">
        <ele>50.3</ele>
        <time>2012-10-28T08:42:33Z</time>
      </trkpt>
      <trkpt lat="47.2778" lon="-1.68836">
        <ele>50.7</ele>
        <time>2012-10-28T08:42:34Z</time>
      </trkpt>
      <trkpt lat="47.27764" lon="-1.68853">
        <ele>52.3</ele>
        <time>2012-10-28T08:42:46Z</time>
      </trkpt>
      <trkpt lat="47.27763" lon="-1.68855">
        <ele>52.1</ele>
        <time>2012-10-28T08:42:47Z</time>
      </trkpt>
      <trkpt lat="47.27762" lon="-1.68858">
        <ele>52</ele>
        <time>2012-10-28T08:42:48Z</time>
      </trkpt>
      <trkpt lat="47.27761" lon="-1.6886">
        <ele>52.3</ele>
        <time>2012-10-28T08:42:49Z</time>
      </trkpt>
      <trkpt lat="47.27761" lon="-1.68863">
        <ele>52.5</ele>
        <time>2012-10-28T08:42:50Z</time>
      </trkpt>
      <trkpt lat="47.2776" lon="-1.68865">
        <ele>52.6</ele>
        <time>2012-10-28T08:42:51Z</time>
      </trkpt>
      <trkpt lat="47.2776" lon="-1.68868">
        <ele>52.8</ele>
        <time>2012-10-28T08:42:52Z</time>
      </trkpt>
      <trkpt lat="47.2776" lon="-1.6887">
        <ele>53.1</ele>
        <time>2012-10-28T08:42:53Z</time>
      </trkpt>
      <trkpt lat="47.27759" lon="-1.68873">
        <ele>53.3</ele>
        <time>2012-10-28T08:42:54Z</time>
      </trkpt>
      <trkpt lat="47.27749" lon="-1.68897">
        <ele>55.2</ele>
        <time>2012-10-28T08:43:04Z</time>
      </trkpt>
      <trkpt lat="47.27747" lon="-1.689">
        <ele>55.7</ele>
        <time>2012-10-28T08:43:05Z</time>
      </trkpt>
      <trkpt lat="47.27746" lon="-1.68902">
        <ele>56</ele>
        <time>2012-10-28T08:43:06Z</time>
      </trkpt>
      <trkpt lat="47.27742" lon="-1.68907">
        <ele>55.9</ele>
        <time>2012-10-28T08:43:08Z</time>
      </trkpt>
      <trkpt lat="47.2774" lon="-1.68909">
        <ele>55.6</ele>
        <time>2012-10-28T08:43:09Z</time>
      </trkpt>
      <trkpt lat="47.27738" lon="-1.68912">
        <ele>55.6</ele>
        <time>2012-10-28T08:43:10Z</time>
      </trkpt>
      <trkpt lat="47.27733" lon="-1.68919">
        <ele>55.4</ele>
        <time>2012-10-28T08:43:13Z</time>
      </trkpt>
      <trkpt lat="47.27731" lon="-1.68921">
        <ele>55.3</ele>
        <time>2012-10-28T08:43:14Z</time>
      </trkpt>
      <trkpt lat="47.27729" lon="-1.68923">
        <ele>55.4</ele>
        <time>2012-10-28T08:43:15Z</time>
      </trkpt>
      <trkpt lat="47.2771" lon="-1.68935">
        <ele>55.7</ele>
        <time>2012-10-28T08:43:22Z</time>
      </trkpt>
      <trkpt lat="47.27692" lon="-1.68946">
        <ele>56.4</ele>
        <time>2012-10-28T08:43:28Z</time>
      </trkpt>
      <trkpt lat="47.27689" lon="-1.68949">
        <ele>56.9</ele>
        <time>2012-10-28T08:43:29Z</time>
      </trkpt>
      <trkpt lat="47.27668" lon="-1.68968">
        <ele>59.2</ele>
        <time>2012-10-28T08:43:37Z</time>
      </trkpt>
      <trkpt lat="47.27642" lon="-1.68993">
        <ele>58.8</ele>
        <time>2012-10-28T08:43:48Z</time>
      </trkpt>
      <trkpt lat="47.27638" lon="-1.68995">
        <ele>58.3</ele>
        <time>2012-10-28T08:43:49Z</time>
      </trkpt>
      <trkpt lat="47.27635" lon="-1.68996">
        <ele>58.3</ele>
        <time>2012-10-28T08:43:50Z</time>
      </trkpt>
      <trkpt lat="47.27631" lon="-1.68996">
        <ele>58.3</ele>
        <time>2012-10-28T08:43:51Z</time>
      </trkpt>
      <trkpt lat="47.27627" lon="-1.68996">
        <ele>58.3</ele>
        <time>2012-10-28T08:43:52Z</time>
      </trkpt>
      <trkpt lat="47.27599" lon="-1.6899">
        <ele>59.5</ele>
        <time>2012-10-28T08:44:00Z</time>
      </trkpt>
      <trkpt lat="47.27575" lon="-1.68983">
        <ele>59.9</ele>
        <time>2012-10-28T08:44:06Z</time>
      </trkpt>
      <trkpt lat="47.27572" lon="-1.68983">
        <ele>60</ele>
        <time>2012-10-28T08:44:07Z</time>
      </trkpt>
      <trkpt lat="47.27553" lon="-1.68986">
        <ele>60.4</ele>
        <time>2012-10-28T08:44:12Z</time>
      </trkpt>
      <trkpt lat="47.27487" lon="-1.69002">
        <ele>61</ele>
        <time>2012-10-28T08:44:29Z</time>
      </trkpt>
      <trkpt lat="47.27483" lon="-1.69004">
        <ele>61.1</ele>
        <time>2012-10-28T08:44:30Z</time>
      </trkpt>
      <trkpt lat="47.27441" lon="-1.69016">
        <ele>61</ele>
        <time>2012-10-28T08:44:42Z</time>
      </trkpt>
      <trkpt lat="47.27439" lon="-1.6902">
        <ele>60.9</ele>
        <time>2012-10-28T08:44:43Z</time>
      </trkpt>
      <trkpt lat="47.27439" lon="-1.69024">
        <ele>60.8</ele>
        <time>2012-10-28T08:44:44Z</time>
      </trkpt>
      <trkpt lat="47.27441" lon="-1.69027">
        <ele>61.1</ele>
        <time>2012-10-28T08:44:45Z</time>
      </trkpt>
      <trkpt lat="47.27444" lon="-1.6903">
        <ele>61.2</ele>
        <time>2012-10-28T08:44:46Z</time>
      </trkpt>
      <trkpt lat="47.27447" lon="-1.69033">
        <ele>61.3</ele>
        <time>2012-10-28T08:44:47Z</time>
      </trkpt>
      <trkpt lat="47.27517" lon="-1.69111">
        <ele>58.4</ele>
        <time>2012-10-28T08:45:05Z</time>
      </trkpt>
      <trkpt lat="47.27522" lon="-1.69114">
        <ele>57.9</ele>
        <time>2012-10-28T08:45:06Z</time>
      </trkpt>
      <trkpt lat="47.27526" lon="-1.69116">
        <ele>57.5</ele>
        <time>2012-10-28T08:45:07Z</time>
      </trkpt>
      <trkpt lat="47.27535" lon="-1.6912">
        <ele>57.1</ele>
        <time>2012-10-28T08:45:09Z</time>
      </trkpt>
      <trkpt lat="47.27539" lon="-1.69122">
        <ele>57.1</ele>
        <time>2012-10-28T08:45:10Z</time>
      </trkpt>
      <trkpt lat="47.27541" lon="-1.69126">
        <ele>56.4</ele>
        <time>2012-10-28T08:45:11Z</time>
      </trkpt>
      <trkpt lat="47.27543" lon="-1.69132">
        <ele>55.9</ele>
        <time>2012-10-28T08:45:12Z</time>
      </trkpt>
      <trkpt lat="47.27543" lon="-1.69138">
        <ele>55.9</ele>
        <time>2012-10-28T08:45:13Z</time>
      </trkpt>
      <trkpt lat="47.27542" lon="-1.69145">
        <ele>55.8</ele>
        <time>2012-10-28T08:45:14Z</time>
      </trkpt>
      <trkpt lat="47.27542" lon="-1.69151">
        <ele>55.8</ele>
        <time>2012-10-28T08:45:15Z</time>
      </trkpt>
      <trkpt lat="47.27544" lon="-1.69158">
        <ele>55.8</ele>
        <time>2012-10-28T08:45:16Z</time>
      </trkpt>
      <trkpt lat="47.27548" lon="-1.69162">
        <ele>55.7</ele>
        <time>2012-10-28T08:45:17Z</time>
      </trkpt>
      <trkpt lat="47.27552" lon="-1.69165">
        <ele>55.3</ele>
        <time>2012-10-28T08:45:18Z</time>
      </trkpt>
      <trkpt lat="47.27557" lon="-1.69167">
        <ele>55</ele>
        <time>2012-10-28T08:45:19Z</time>
      </trkpt>
      <trkpt lat="47.27568" lon="-1.69171">
        <ele>54.7</ele>
        <time>2012-10-28T08:45:21Z</time>
      </trkpt>
      <trkpt lat="47.27573" lon="-1.69174">
        <ele>54.5</ele>
        <time>2012-10-28T08:45:22Z</time>
      </trkpt>
      <trkpt lat="47.27598" lon="-1.69192">
        <ele>51.9</ele>
        <time>2012-10-28T08:45:27Z</time>
      </trkpt>
      <trkpt lat="47.27613" lon="-1.69205">
        <ele>51.4</ele>
        <time>2012-10-28T08:45:30Z</time>
      </trkpt>
      <trkpt lat="47.27623" lon="-1.69216">
        <ele>51</ele>
        <time>2012-10-28T08:45:32Z</time>
      </trkpt>
      <trkpt lat="47.27628" lon="-1.69222">
        <ele>50.8</ele>
        <time>2012-10-28T08:45:33Z</time>
      </trkpt>
      <trkpt lat="47.27667" lon="-1.6926">
        <ele>48.7</ele>
        <time>2012-10-28T08:45:41Z</time>
      </trkpt>
      <trkpt lat="47.27672" lon="-1.69262">
        <ele>48.6</ele>
        <time>2012-10-28T08:45:42Z</time>
      </trkpt>
      <trkpt lat="47.27686" lon="-1.69265">
        <ele>48.2</ele>
        <time>2012-10-28T08:45:45Z</time>
      </trkpt>
      <trkpt lat="47.27692" lon="-1.69266">
        <ele>48.1</ele>
        <time>2012-10-28T08:45:46Z</time>
      </trkpt>
      <trkpt lat="47.27697" lon="-1.69266">
        <ele>47.7</ele>
        <time>2012-10-28T08:45:47Z</time>
      </trkpt>
      <trkpt lat="47.27703" lon="-1.69265">
        <ele>47.4</ele>
        <time>2012-10-28T08:45:48Z</time>
      </trkpt>
      <trkpt lat="47.27716" lon="-1.69263">
        <ele>47.2</ele>
        <time>2012-10-28T08:45:50Z</time>
      </trkpt>
      <trkpt lat="47.27723" lon="-1.69264">
        <ele>46.5</ele>
        <time>2012-10-28T08:45:51Z</time>
      </trkpt>
      <trkpt lat="47.27728" lon="-1.69265">
        <ele>45.9</ele>
        <time>2012-10-28T08:45:52Z</time>
      </trkpt>
      <trkpt lat="47.27731" lon="-1.69267">
        <ele>45.5</ele>
        <time>2012-10-28T08:45:53Z</time>
      </trkpt>
      <trkpt lat="47.27735" lon="-1.69269">
        <ele>45</ele>
        <time>2012-10-28T08:45:55Z</time>
      </trkpt>
      <trkpt lat="47.27737" lon="-1.69269">
        <ele>44.7</ele>
        <time>2012-10-28T08:45:56Z</time>
      </trkpt>
      <trkpt lat="47.27737" lon="-1.6927">
        <ele>44.5</ele>
        <time>2012-10-28T08:45:57Z</time>
      </trkpt>
      <trkpt lat="47.27739" lon="-1.69271">
        <ele>44.4</ele>
        <time>2012-10-28T08:45:58Z</time>
      </trkpt>
      <trkpt lat="47.27741" lon="-1.69272">
        <ele>44.1</ele>
        <time>2012-10-28T08:45:59Z</time>
      </trkpt>
      <trkpt lat="47.27743" lon="-1.69274">
        <ele>43.8</ele>
        <time>2012-10-28T08:46:00Z</time>
      </trkpt>
      <trkpt lat="47.27744" lon="-1.69277">
        <ele>43.8</ele>
        <time>2012-10-28T08:46:01Z</time>
      </trkpt>
      <trkpt lat="47.27745" lon="-1.69279">
        <ele>43.8</ele>
        <time>2012-10-28T08:46:02Z</time>
      </trkpt>
      <trkpt lat="47.27755" lon="-1.69293">
        <ele>45.4</ele>
        <time>2012-10-28T08:46:08Z</time>
      </trkpt>
      <trkpt lat="47.27759" lon="-1.69298">
        <ele>46.1</ele>
        <time>2012-10-28T08:46:10Z</time>
      </trkpt>
      <trkpt lat="47.27761" lon="-1.69301">
        <ele>46.4</ele>
        <time>2012-10-28T08:46:11Z</time>
      </trkpt>
      <trkpt lat="47.2777" lon="-1.69322">
        <ele>47.7</ele>
        <time>2012-10-28T08:46:18Z</time>
      </trkpt>
      <trkpt lat="47.27776" lon="-1.69341">
        <ele>48.9</ele>
        <time>2012-10-28T08:46:24Z</time>
      </trkpt>
      <trkpt lat="47.27777" lon="-1.69347">
        <ele>50</ele>
        <time>2012-10-28T08:46:26Z</time>
      </trkpt>
      <trkpt lat="47.2778" lon="-1.69363">
        <ele>51.4</ele>
        <time>2012-10-28T08:46:30Z</time>
      </trkpt>
      <trkpt lat="47.2778" lon="-1.69367">
        <ele>51.7</ele>
        <time>2012-10-28T08:46:31Z</time>
      </trkpt>
      <trkpt lat="47.2778" lon="-1.69371">
        <ele>51.7</ele>
        <time>2012-10-28T08:46:32Z</time>
      </trkpt>
      <trkpt lat="47.27779" lon="-1.6939">
        <ele>52.8</ele>
        <time>2012-10-28T08:46:36Z</time>
      </trkpt>
      <trkpt lat="47.27778" lon="-1.69394">
        <ele>53</ele>
        <time>2012-10-28T08:46:37Z</time>
      </trkpt>
      <trkpt lat="47.27776" lon="-1.69486">
        <ele>56.1</ele>
        <time>2012-10-28T08:46:57Z</time>
      </trkpt>
      <trkpt lat="47.27776" lon="-1.69492">
        <ele>56.1</ele>
        <time>2012-10-28T08:46:58Z</time>
      </trkpt>
      <trkpt lat="47.27784" lon="-1.69573">
        <ele>56.7</ele>
        <time>2012-10-28T08:47:13Z</time>
      </trkpt>
      <trkpt lat="47.27785" lon="-1.69578">
        <ele>56.5</ele>
        <time>2012-10-28T08:47:14Z</time>
      </trkpt>
      <trkpt lat="47.27787" lon="-1.69589">
        <ele>56.2</ele>
        <time>2012-10-28T08:47:16Z</time>
      </trkpt>
      <trkpt lat="47.27788" lon="-1.69594">
        <ele>56.6</ele>
        <time>2012-10-28T08:47:17Z</time>
      </trkpt>
      <trkpt lat="47.278" lon="-1.69626">
        <ele>57.5</ele>
        <time>2012-10-28T08:47:24Z</time>
      </trkpt>
      <trkpt lat="47.27802" lon="-1.69629">
        <ele>57.6</ele>
        <time>2012-10-28T08:47:25Z</time>
      </trkpt>
      <trkpt lat="47.27804" lon="-1.69631">
        <ele>58.2</ele>
        <time>2012-10-28T08:47:26Z</time>
      </trkpt>
      <trkpt lat="47.27806" lon="-1.69631">
        <ele>58.6</ele>
        <time>2012-10-28T08:47:27Z</time>
      </trkpt>
      <trkpt lat="47.27817" lon="-1.69629">
        <ele>59.4</ele>
        <time>2012-10-28T08:47:32Z</time>
      </trkpt>
      <trkpt lat="47.27818" lon="-1.69629">
        <ele>59.6</ele>
        <time>2012-10-28T08:47:33Z</time>
      </trkpt>
      <trkpt lat="47.2782" lon="-1.6963">
        <ele>59.7</ele>
        <time>2012-10-28T08:47:34Z</time>
      </trkpt>
      <trkpt lat="47.27821" lon="-1.69631">
        <ele>59.9</ele>
        <time>2012-10-28T08:47:35Z</time>
      </trkpt>
      <trkpt lat="47.27823" lon="-1.69633">
        <ele>59.9</ele>
        <time>2012-10-28T08:47:36Z</time>
      </trkpt>
      <trkpt lat="47.27827" lon="-1.69638">
        <ele>59.7</ele>
        <time>2012-10-28T08:47:38Z</time>
      </trkpt>
      <trkpt lat="47.27828" lon="-1.6964">
        <ele>59.6</ele>
        <time>2012-10-28T08:47:39Z</time>
      </trkpt>
      <trkpt lat="47.27829" lon="-1.69642">
        <ele>59.5</ele>
        <time>2012-10-28T08:47:40Z</time>
      </trkpt>
      <trkpt lat="47.27832" lon="-1.69647">
        <ele>59.6</ele>
        <time>2012-10-28T08:47:44Z</time>
      </trkpt>
      <trkpt lat="47.27832" lon="-1.69647">
        <ele>59.7</ele>
        <time>2012-10-28T08:47:45Z</time>
      </trkpt>
      <trkpt lat="47.27832" lon="-1.69647">
        <ele>59.8</ele>
        <time>2012-10-28T08:47:46Z</time>
      </trkpt>
      <trkpt lat="47.27832" lon="-1.69648">
        <ele>59.9</ele>
        <time>2012-10-28T08:47:47Z</time>
      </trkpt>
      <trkpt lat="47.27832" lon="-1.69648">
        <ele>60</ele>
        <time>2012-10-28T08:47:48Z</time>
      </trkpt>
      <trkpt lat="47.27832" lon="-1.69649">
        <ele>60</ele>
        <time>2012-10-28T08:47:49Z</time>
      </trkpt>
      <trkpt lat="47.27831" lon="-1.69649">
        <ele>59.9</ele>
        <time>2012-10-28T08:47:50Z</time>
      </trkpt>
      <trkpt lat="47.2783" lon="-1.6965">
        <ele>59.8</ele>
        <time>2012-10-28T08:47:51Z</time>
      </trkpt>
      <trkpt lat="47.27829" lon="-1.69651">
        <ele>60.1</ele>
        <time>2012-10-28T08:47:53Z</time>
      </trkpt>
      <trkpt lat="47.27828" lon="-1.69652">
        <ele>60.1</ele>
        <time>2012-10-28T08:47:54Z</time>
      </trkpt>
      <trkpt lat="47.27828" lon="-1.69653">
        <ele>60.1</ele>
        <time>2012-10-28T08:47:55Z</time>
      </trkpt>
      <trkpt lat="47.27828" lon="-1.69654">
        <ele>60</ele>
        <time>2012-10-28T08:47:56Z</time>
      </trkpt>
      <trkpt lat="47.27828" lon="-1.69654">
        <ele>59.9</ele>
        <time>2012-10-28T08:47:57Z</time>
      </trkpt>
      <trkpt lat="47.27828" lon="-1.69654">
        <ele>59.7</ele>
        <time>2012-10-28T08:47:58Z</time>
      </trkpt>
      <trkpt lat="47.27828" lon="-1.69654">
        <ele>59.6</ele>
        <time>2012-10-28T08:47:59Z</time>
      </trkpt>
      <trkpt lat="47.27828" lon="-1.69654">
        <ele>59.6</ele>
        <time>2012-10-28T08:48:00Z</time>
      </trkpt>
      <trkpt lat="47.27828" lon="-1.69654">
        <ele>59.7</ele>
        <time>2012-10-28T08:48:01Z</time>
      </trkpt>
      <trkpt lat="47.27828" lon="-1.69654">
        <ele>59.5</ele>
        <time>2012-10-28T08:48:02Z</time>
      </trkpt>
      <trkpt lat="47.27828" lon="-1.69654">
        <ele>59.4</ele>
        <time>2012-10-28T08:48:03Z</time>
      </trkpt>
      <trkpt lat="47.27828" lon="-1.69654">
        <ele>59.6</ele>
        <time>2012-10-28T08:48:04Z</time>
      </trkpt>
      <trkpt lat="47.27828" lon="-1.69655">
        <ele>59.7</ele>
        <time>2012-10-28T08:48:05Z</time>
      </trkpt>
      <trkpt lat="47.27828" lon="-1.69655">
        <ele>59.7</ele>
        <time>2012-10-28T08:48:06Z</time>
      </trkpt>
      <trkpt lat="47.27828" lon="-1.69655">
        <ele>59.6</ele>
        <time>2012-10-28T08:48:07Z</time>
      </trkpt>
      <trkpt lat="47.27827" lon="-1.69655">
        <ele>59.6</ele>
        <time>2012-10-28T08:48:08Z</time>
      </trkpt>
      <trkpt lat="47.27827" lon="-1.69655">
        <ele>59.7</ele>
        <time>2012-10-28T08:48:09Z</time>
      </trkpt>
      <trkpt lat="47.27827" lon="-1.69655">
        <ele>59.9</ele>
        <time>2012-10-28T08:48:10Z</time>
      </trkpt>
      <trkpt lat="47.27827" lon="-1.69655">
        <ele>60</ele>
        <time>2012-10-28T08:48:11Z</time>
      </trkpt>
      <trkpt lat="47.27827" lon="-1.69655">
        <ele>60</ele>
        <time>2012-10-28T08:48:12Z</time>
      </trkpt>
      <trkpt lat="47.27827" lon="-1.69655">
        <ele>60.1</ele>
        <time>2012-10-28T08:48:13Z</time>
      </trkpt>
      <trkpt lat="47.27827" lon="-1.69655">
        <ele>59.9</ele>
        <time>2012-10-28T08:48:14Z</time>
      </trkpt>
      <trkpt lat="47.27827" lon="-1.69655">
        <ele>59.8</ele>
        <time>2012-10-28T08:48:15Z</time>
      </trkpt>
      <trkpt lat="47.27827" lon="-1.69655">
        <ele>59.5</ele>
        <time>2012-10-28T08:48:16Z</time>
      </trkpt>
      <trkpt lat="47.27826" lon="-1.69655">
        <ele>59.3</ele>
        <time>2012-10-28T08:48:17Z</time>
      </trkpt>
      <trkpt lat="47.27826" lon="-1.69655">
        <ele>59.4</ele>
        <time>2012-10-28T08:48:18Z</time>
      </trkpt>
      <trkpt lat="47.27826" lon="-1.69655">
        <ele>59.5</ele>
        <time>2012-10-28T08:48:19Z</time>
      </trkpt>
      <trkpt lat="47.27826" lon="-1.69655">
        <ele>59.5</ele>
        <time>2012-10-28T08:48:20Z</time>
      </trkpt>
      <trkpt lat="47.27826" lon="-1.69655">
        <ele>59.9</ele>
        <time>2012-10-28T08:48:21Z</time>
      </trkpt>
      <trkpt lat="47.27826" lon="-1.69655">
        <ele>60.2</ele>
        <time>2012-10-28T08:48:22Z</time>
      </trkpt>
      <trkpt lat="47.27826" lon="-1.69655">
        <ele>60.2</ele>
        <time>2012-10-28T08:48:23Z</time>
      </trkpt>
      <trkpt lat="47.27826" lon="-1.69655">
        <ele>60.1</ele>
        <time>2012-10-28T08:48:24Z</time>
      </trkpt>
      <trkpt lat="47.27825" lon="-1.69655">
        <ele>60.1</ele>
        <time>2012-10-28T08:48:25Z</time>
      </trkpt>
      <trkpt lat="47.27825" lon="-1.69655">
        <ele>59.8</ele>
        <time>2012-10-28T08:48:26Z</time>
      </trkpt>
      <trkpt lat="47.27825" lon="-1.69655">
        <ele>59.6</ele>
        <time>2012-10-28T08:48:27Z</time>
      </trkpt>
      <trkpt lat="47.27825" lon="-1.69655">
        <ele>59.8</ele>
        <time>2012-10-28T08:48:28Z</time>
      </trkpt>
      <trkpt lat="47.27825" lon="-1.69655">
        <ele>59.9</ele>
        <time>2012-10-28T08:48:29Z</time>
      </trkpt>
      <trkpt lat="47.27825" lon="-1.69655">
        <ele>59.8</ele>
        <time>2012-10-28T08:48:30Z</time>
      </trkpt>
      <trkpt lat="47.27825" lon="-1.69655">
        <ele>59.8</ele>
        <time>2012-10-28T08:48:31Z</time>
      </trkpt>
      <trkpt lat="47.27825" lon="-1.69655">
        <ele>59.7</ele>
        <time>2012-10-28T08:48:32Z</time>
      </trkpt>
      <trkpt lat="47.27825" lon="-1.69655">
        <ele>59.7</ele>
        <time>2012-10-28T08:48:33Z</time>
      </trkpt>
      <trkpt lat="47.27825" lon="-1.69655">
        <ele>59.6</ele>
        <time>2012-10-28T08:48:34Z</time>
      </trkpt>
      <trkpt lat="47.27824" lon="-1.69655">
        <ele>59.8</ele>
        <time>2012-10-28T08:48:35Z</time>
      </trkpt>
      <trkpt lat="47.27824" lon="-1.69655">
        <ele>60</ele>
        <time>2012-10-28T08:48:36Z</time>
      </trkpt>
      <trkpt lat="47.27824" lon="-1.69655">
        <ele>60.1</ele>
        <time>2012-10-28T08:48:37Z</time>
      </trkpt>
      <trkpt lat="47.27824" lon="-1.69656">
        <ele>60.2</ele>
        <time>2012-10-28T08:48:38Z</time>
      </trkpt>
      <trkpt lat="47.27823" lon="-1.69656">
        <ele>60.2</ele>
        <time>2012-10-28T08:48:39Z</time>
      </trkpt>
      <trkpt lat="47.27823" lon="-1.69656">
        <ele>60.6</ele>
        <time>2012-10-28T08:48:40Z</time>
      </trkpt>
      <trkpt lat="47.27823" lon="-1.69656">
        <ele>60.9</ele>
        <time>2012-10-28T08:48:41Z</time>
      </trkpt>
      <trkpt lat="47.27822" lon="-1.69656">
        <ele>60.9</ele>
        <time>2012-10-28T08:48:42Z</time>
      </trkpt>
      <trkpt lat="47.27822" lon="-1.69657">
        <ele>60.9</ele>
        <time>2012-10-28T08:48:43Z</time>
      </trkpt>
      <trkpt lat="47.27822" lon="-1.69657">
        <ele>60.9</ele>
        <time>2012-10-28T08:48:44Z</time>
      </trkpt>
      <trkpt lat="47.27821" lon="-1.69657">
        <ele>60.5</ele>
        <time>2012-10-28T08:48:45Z</time>
      </trkpt>
      <trkpt lat="47.27821" lon="-1.69657">
        <ele>60.1</ele>
        <time>2012-10-28T08:48:46Z</time>
      </trkpt>
      <trkpt lat="47.27821" lon="-1.69657">
        <ele>60.3</ele>
        <time>2012-10-28T08:48:47Z</time>
      </trkpt>
      <trkpt lat="47.27821" lon="-1.69657">
        <ele>60.4</ele>
        <time>2012-10-28T08:48:48Z</time>
      </trkpt>
      <trkpt lat="47.27821" lon="-1.69657">
        <ele>60</ele>
        <time>2012-10-28T08:48:49Z</time>
      </trkpt>
      <trkpt lat="47.2782" lon="-1.69658">
        <ele>59.7</ele>
        <time>2012-10-28T08:48:50Z</time>
      </trkpt>
      <trkpt lat="47.2782" lon="-1.69658">
        <ele>59.5</ele>
        <time>2012-10-28T08:48:51Z</time>
      </trkpt>
      <trkpt lat="47.2782" lon="-1.69658">
        <ele>59.8</ele>
        <time>2012-10-28T08:48:52Z</time>
      </trkpt>
      <trkpt lat="47.2782" lon="-1.69658">
        <ele>60.1</ele>
        <time>2012-10-28T08:48:53Z</time>
      </trkpt>
      <trkpt lat="47.2782" lon="-1.69658">
        <ele>60.2</ele>
        <time>2012-10-28T08:48:54Z</time>
      </trkpt>
      <trkpt lat="47.2782" lon="-1.69658">
        <ele>60.2</ele>
        <time>2012-10-28T08:48:55Z</time>
      </trkpt>
      <trkpt lat="47.2782" lon="-1.69658">
        <ele>60.3</ele>
        <time>2012-10-28T08:48:56Z</time>
      </trkpt>
      <trkpt lat="47.2782" lon="-1.69658">
        <ele>60.4</ele>
        <time>2012-10-28T08:48:57Z</time>
      </trkpt>
      <trkpt lat="47.2782" lon="-1.69658">
        <ele>60.4</ele>
        <time>2012-10-28T08:48:58Z</time>
      </trkpt>
      <trkpt lat="47.27819" lon="-1.69658">
        <ele>60.4</ele>
        <time>2012-10-28T08:48:59Z</time>
      </trkpt>
      <trkpt lat="47.27819" lon="-1.69658">
        <ele>60.4</ele>
        <time>2012-10-28T08:49:00Z</time>
      </trkpt>
      <trkpt lat="47.27819" lon="-1.69658">
        <ele>60.3</ele>
        <time>2012-10-28T08:49:01Z</time>
      </trkpt>
      <trkpt lat="47.27819" lon="-1.69658">
        <ele>60.3</ele>
        <time>2012-10-28T08:49:02Z</time>
      </trkpt>
      <trkpt lat="47.27819" lon="-1.69658">
        <ele>60.2</ele>
        <time>2012-10-28T08:49:03Z</time>
      </trkpt>
      <trkpt lat="47.27819" lon="-1.69658">
        <ele>60.6</ele>
        <time>2012-10-28T08:49:04Z</time>
      </trkpt>
      <trkpt lat="47.27819" lon="-1.69658">
        <ele>60.8</ele>
        <time>2012-10-28T08:49:05Z</time>
      </trkpt>
      <trkpt lat="47.27819" lon="-1.69658">
        <ele>60.6</ele>
        <time>2012-10-28T08:49:06Z</time>
      </trkpt>
      <trkpt lat="47.27818" lon="-1.69658">
        <ele>60.4</ele>
        <time>2012-10-28T08:49:07Z</time>
      </trkpt>
      <trkpt lat="47.27818" lon="-1.69658">
        <ele>60.5</ele>
        <time>2012-10-28T08:49:08Z</time>
      </trkpt>
      <trkpt lat="47.27818" lon="-1.69658">
        <ele>60.5</ele>
        <time>2012-10-28T08:49:09Z</time>
      </trkpt>
      <trkpt lat="47.27818" lon="-1.69658">
        <ele>60.5</ele>
        <time>2012-10-28T08:49:10Z</time>
      </trkpt>
      <trkpt lat="47.27818" lon="-1.69658">
        <ele>60</ele>
        <time>2012-10-28T08:49:11Z</time>
      </trkpt>
      <trkpt lat="47.27818" lon="-1.69659">
        <ele>59.7</ele>
        <time>2012-10-28T08:49:12Z</time>
      </trkpt>
      <trkpt lat="47.27818" lon="-1.69659">
        <ele>60</ele>
        <time>2012-10-28T08:49:13Z</time>
      </trkpt>
      <trkpt lat="47.27818" lon="-1.69659">
        <ele>60.3</ele>
        <time>2012-10-28T08:49:14Z</time>
      </trkpt>
      <trkpt lat="47.27817" lon="-1.69659">
        <ele>60.2</ele>
        <time>2012-10-28T08:49:15Z</time>
      </trkpt>
      <trkpt lat="47.27817" lon="-1.69659">
        <ele>60.1</ele>
        <time>2012-10-28T08:49:16Z</time>
      </trkpt>
      <trkpt lat="47.27817" lon="-1.69659">
        <ele>60</ele>
        <time>2012-10-28T08:49:17Z</time>
      </trkpt>
      <trkpt lat="47.27817" lon="-1.69659">
        <ele>59.9</ele>
        <time>2012-10-28T08:49:18Z</time>
      </trkpt>
      <trkpt lat="47.27817" lon="-1.69659">
        <ele>59.9</ele>
        <time>2012-10-28T08:49:19Z</time>
      </trkpt>
      <trkpt lat="47.27817" lon="-1.69659">
        <ele>60.3</ele>
        <time>2012-10-28T08:49:20Z</time>
      </trkpt>
      <trkpt lat="47.27817" lon="-1.69659">
        <ele>60.6</ele>
        <time>2012-10-28T08:49:21Z</time>
      </trkpt>
      <trkpt lat="47.27817" lon="-1.69659">
        <ele>60.9</ele>
        <time>2012-10-28T08:49:22Z</time>
      </trkpt>
      <trkpt lat="47.27817" lon="-1.69659">
        <ele>60.7</ele>
        <time>2012-10-28T08:49:23Z</time>
      </trkpt>
      <trkpt lat="47.27816" lon="-1.69659">
        <ele>60.5</ele>
        <time>2012-10-28T08:49:24Z</time>
      </trkpt>
      <trkpt lat="47.27816" lon="-1.69659">
        <ele>60.3</ele>
        <time>2012-10-28T08:49:25Z</time>
      </trkpt>
      <trkpt lat="47.27816" lon="-1.69659">
        <ele>60.2</ele>
        <time>2012-10-28T08:49:26Z</time>
      </trkpt>
      <trkpt lat="47.27816" lon="-1.6966">
        <ele>60</ele>
        <time>2012-10-28T08:49:27Z</time>
      </trkpt>
      <trkpt lat="47.27816" lon="-1.6966">
        <ele>59.9</ele>
        <time>2012-10-28T08:49:28Z</time>
      </trkpt>
      <trkpt lat="47.27816" lon="-1.6966">
        <ele>59.8</ele>
        <time>2012-10-28T08:49:29Z</time>
      </trkpt>
      <trkpt lat="47.27816" lon="-1.6966">
        <ele>59.6</ele>
        <time>2012-10-28T08:49:30Z</time>
      </trkpt>
      <trkpt lat="47.27816" lon="-1.6966">
        <ele>59.5</ele>
        <time>2012-10-28T08:49:31Z</time>
      </trkpt>
      <trkpt lat="47.27816" lon="-1.6966">
        <ele>59.5</ele>
        <time>2012-10-28T08:49:32Z</time>
      </trkpt>
      <trkpt lat="47.27816" lon="-1.6966">
        <ele>59.5</ele>
        <time>2012-10-28T08:49:33Z</time>
      </trkpt>
      <trkpt lat="47.27816" lon="-1.6966">
        <ele>59.8</ele>
        <time>2012-10-28T08:49:34Z</time>
      </trkpt>
      <trkpt lat="47.27815" lon="-1.6966">
        <ele>60</ele>
        <time>2012-10-28T08:49:35Z</time>
      </trkpt>
      <trkpt lat="47.27815" lon="-1.6966">
        <ele>60.2</ele>
        <time>2012-10-28T08:49:36Z</time>
      </trkpt>
      <trkpt lat="47.27815" lon="-1.6966">
        <ele>60.4</ele>
        <time>2012-10-28T08:49:37Z</time>
      </trkpt>
      <trkpt lat="47.27815" lon="-1.6966">
        <ele>60.5</ele>
        <time>2012-10-28T08:49:38Z</time>
      </trkpt>
      <trkpt lat="47.27815" lon="-1.6966">
        <ele>60.3</ele>
        <time>2012-10-28T08:49:39Z</time>
      </trkpt>
      <trkpt lat="47.27815" lon="-1.6966">
        <ele>60.2</ele>
        <time>2012-10-28T08:49:40Z</time>
      </trkpt>
      <trkpt lat="47.27815" lon="-1.6966">
        <ele>60.1</ele>
        <time>2012-10-28T08:49:41Z</time>
      </trkpt>
      <trkpt lat="47.27815" lon="-1.6966">
        <ele>60.2</ele>
        <time>2012-10-28T08:49:42Z</time>
      </trkpt>
      <trkpt lat="47.27815" lon="-1.6966">
        <ele>60.4</ele>
        <time>2012-10-28T08:49:43Z</time>
      </trkpt>
      <trkpt lat="47.27815" lon="-1.6966">
        <ele>60.3</ele>
        <time>2012-10-28T08:49:44Z</time>
      </trkpt>
      <trkpt lat="47.27815" lon="-1.6966">
        <ele>60.3</ele>
        <time>2012-10-28T08:49:45Z</time>
      </trkpt>
      <trkpt lat="47.27815" lon="-1.6966">
        <ele>59.9</ele>
        <time>2012-10-28T08:49:46Z</time>
      </trkpt>
      <trkpt lat="47.27815" lon="-1.6966">
        <ele>59.7</ele>
        <time>2012-10-28T08:49:47Z</time>
      </trkpt>
      <trkpt lat="47.27815" lon="-1.6966">
        <ele>59.5</ele>
        <time>2012-10-28T08:49:48Z</time>
      </trkpt>
      <trkpt lat="47.27815" lon="-1.6966">
        <ele>59.7</ele>
        <time>2012-10-28T08:49:49Z</time>
      </trkpt>
      <trkpt lat="47.27815" lon="-1.6966">
        <ele>59.9</ele>
        <time>2012-10-28T08:49:50Z</time>
      </trkpt>
      <trkpt lat="47.27815" lon="-1.6966">
        <ele>60.2</ele>
        <time>2012-10-28T08:49:51Z</time>
      </trkpt>
      <trkpt lat="47.27815" lon="-1.6966">
        <ele>60.4</ele>
        <time>2012-10-28T08:49:52Z</time>
      </trkpt>
      <trkpt lat="47.27815" lon="-1.6966">
        <ele>60.6</ele>
        <time>2012-10-28T08:49:53Z</time>
      </trkpt>
      <trkpt lat="47.27815" lon="-1.6966">
        <ele>60.8</ele>
        <time>2012-10-28T08:49:54Z</time>
      </trkpt>
      <trkpt lat="47.27815" lon="-1.6966">
        <ele>61</ele>
        <time>2012-10-28T08:49:55Z</time>
      </trkpt>
      <trkpt lat="47.27815" lon="-1.6966">
        <ele>60.7</ele>
        <time>2012-10-28T08:49:56Z</time>
      </trkpt>
      <trkpt lat="47.27815" lon="-1.6966">
        <ele>60.5</ele>
        <time>2012-10-28T08:49:57Z</time>
      </trkpt>
      <trkpt lat="47.27815" lon="-1.6966">
        <ele>60.1</ele>
        <time>2012-10-28T08:49:58Z</time>
      </trkpt>
      <trkpt lat="47.27815" lon="-1.6966">
        <ele>59.8</ele>
        <time>2012-10-28T08:49:59Z</time>
      </trkpt>
      <trkpt lat="47.27815" lon="-1.6966">
        <ele>59.5</ele>
        <time>2012-10-28T08:50:00Z</time>
      </trkpt>
      <trkpt lat="47.27815" lon="-1.6966">
        <ele>59.3</ele>
        <time>2012-10-28T08:50:01Z</time>
      </trkpt>
      <trkpt lat="47.27815" lon="-1.6966">
        <ele>59.1</ele>
        <time>2012-10-28T08:50:02Z</time>
      </trkpt>
      <trkpt lat="47.27815" lon="-1.6966">
        <ele>59</ele>
        <time>2012-10-28T08:50:03Z</time>
      </trkpt>
      <trkpt lat="47.27815" lon="-1.6966">
        <ele>58.9</ele>
        <time>2012-10-28T08:50:04Z</time>
      </trkpt>
      <trkpt lat="47.27815" lon="-1.6966">
        <ele>59.2</ele>
        <time>2012-10-28T08:50:05Z</time>
      </trkpt>
      <trkpt lat="47.27815" lon="-1.6966">
        <ele>59.5</ele>
        <time>2012-10-28T08:50:06Z</time>
      </trkpt>
      <trkpt lat="47.27815" lon="-1.6966">
        <ele>59.6</ele>
        <time>2012-10-28T08:50:07Z</time>
      </trkpt>
      <trkpt lat="47.27815" lon="-1.6966">
        <ele>59.9</ele>
        <time>2012-10-28T08:50:08Z</time>
      </trkpt>
      <trkpt lat="47.27815" lon="-1.6966">
        <ele>60.2</ele>
        <time>2012-10-28T08:50:09Z</time>
      </trkpt>
      <trkpt lat="47.27815" lon="-1.6966">
        <ele>60.2</ele>
        <time>2012-10-28T08:50:10Z</time>
      </trkpt>
      <trkpt lat="47.27815" lon="-1.6966">
        <ele>60.2</ele>
        <time>2012-10-28T08:50:11Z</time>
      </trkpt>
      <trkpt lat="47.27815" lon="-1.6966">
        <ele>60</ele>
        <time>2012-10-28T08:50:12Z</time>
      </trkpt>
      <trkpt lat="47.27815" lon="-1.6966">
        <ele>59.9</ele>
        <time>2012-10-28T08:50:13Z</time>
      </trkpt>
      <trkpt lat="47.27815" lon="-1.6966">
        <ele>59.8</ele>
        <time>2012-10-28T08:50:14Z</time>
      </trkpt>
      <trkpt lat="47.27815" lon="-1.6966">
        <ele>59.6</ele>
        <time>2012-10-28T08:50:15Z</time>
      </trkpt>
      <trkpt lat="47.27815" lon="-1.6966">
        <ele>59.5</ele>
        <time>2012-10-28T08:50:16Z</time>
      </trkpt>
      <trkpt lat="47.27815" lon="-1.6966">
        <ele>59.9</ele>
        <time>2012-10-28T08:50:17Z</time>
      </trkpt>
      <trkpt lat="47.27815" lon="-1.6966">
        <ele>60.1</ele>
        <time>2012-10-28T08:50:18Z</time>
      </trkpt>
      <trkpt lat="47.27815" lon="-1.6966">
        <ele>60.4</ele>
        <time>2012-10-28T08:50:19Z</time>
      </trkpt>
      <trkpt lat="47.27815" lon="-1.6966">
        <ele>60.5</ele>
        <time>2012-10-28T08:50:20Z</time>
      </trkpt>
      <trkpt lat="47.27815" lon="-1.6966">
        <ele>60.7</ele>
        <time>2012-10-28T08:50:21Z</time>
      </trkpt>
      <trkpt lat="47.27815" lon="-1.6966">
        <ele>60.9</ele>
        <time>2012-10-28T08:50:22Z</time>
      </trkpt>
      <trkpt lat="47.27815" lon="-1.69659">
        <ele>61.2</ele>
        <time>2012-10-28T08:50:23Z</time>
      </trkpt>
      <trkpt lat="47.27815" lon="-1.69659">
        <ele>60.7</ele>
        <time>2012-10-28T08:50:24Z</time>
      </trkpt>
      <trkpt lat="47.27815" lon="-1.69659">
        <ele>60.4</ele>
        <time>2012-10-28T08:50:25Z</time>
      </trkpt>
      <trkpt lat="47.27815" lon="-1.69659">
        <ele>60.2</ele>
        <time>2012-10-28T08:50:26Z</time>
      </trkpt>
      <trkpt lat="47.27815" lon="-1.69659">
        <ele>59.9</ele>
        <time>2012-10-28T08:50:27Z</time>
      </trkpt>
      <trkpt lat="47.27815" lon="-1.69659">
        <ele>59.6</ele>
        <time>2012-10-28T08:50:28Z</time>
      </trkpt>
      <trkpt lat="47.27815" lon="-1.69659">
        <ele>59.9</ele>
        <time>2012-10-28T08:50:29Z</time>
      </trkpt>
      <trkpt lat="47.27815" lon="-1.69659">
        <ele>60.2</ele>
        <time>2012-10-28T08:50:30Z</time>
      </trkpt>
      <trkpt lat="47.27815" lon="-1.69659">
        <ele>60.5</ele>
        <time>2012-10-28T08:50:31Z</time>
      </trkpt>
      <trkpt lat="47.27815" lon="-1.69659">
        <ele>60.8</ele>
        <time>2012-10-28T08:50:32Z</time>
      </trkpt>
      <trkpt lat="47.27815" lon="-1.69659">
        <ele>61</ele>
        <time>2012-10-28T08:50:33Z</time>
      </trkpt>
      <trkpt lat="47.27815" lon="-1.69659">
        <ele>60.6</ele>
        <time>2012-10-28T08:50:34Z</time>
      </trkpt>
      <trkpt lat="47.27815" lon="-1.69659">
        <ele>60.4</ele>
        <time>2012-10-28T08:50:35Z</time>
      </trkpt>
      <trkpt lat="47.27815" lon="-1.69659">
        <ele>60.1</ele>
        <time>2012-10-28T08:50:36Z</time>
      </trkpt>
      <trkpt lat="47.27816" lon="-1.69659">
        <ele>59.9</ele>
        <time>2012-10-28T08:50:37Z</time>
      </trkpt>
      <trkpt lat="47.27816" lon="-1.69659">
        <ele>60</ele>
        <time>2012-10-28T08:50:38Z</time>
      </trkpt>
      <trkpt lat="47.27816" lon="-1.69659">
        <ele>60</ele>
        <time>2012-10-28T08:50:39Z</time>
      </trkpt>
      <trkpt lat="47.27816" lon="-1.69659">
        <ele>60</ele>
        <time>2012-10-28T08:50:40Z</time>
      </trkpt>
      <trkpt lat="47.27816" lon="-1.69659">
        <ele>60.1</ele>
        <time>2012-10-28T08:50:41Z</time>
      </trkpt>
      <trkpt lat="47.27816" lon="-1.69659">
        <ele>60.1</ele>
        <time>2012-10-28T08:50:42Z</time>
      </trkpt>
      <trkpt lat="47.27816" lon="-1.69659">
        <ele>60.1</ele>
        <time>2012-10-28T08:50:43Z</time>
      </trkpt>
      <trkpt lat="47.27816" lon="-1.69659">
        <ele>60.2</ele>
        <time>2012-10-28T08:50:44Z</time>
      </trkpt>
      <trkpt lat="47.27816" lon="-1.69659">
        <ele>60.2</ele>
        <time>2012-10-28T08:50:45Z</time>
      </trkpt>
      <trkpt lat="47.27816" lon="-1.69659">
        <ele>60.4</ele>
        <time>2012-10-28T08:50:46Z</time>
      </trkpt>
      <trkpt lat="47.27816" lon="-1.69659">
        <ele>60.5</ele>
        <time>2012-10-28T08:50:47Z</time>
      </trkpt>
      <trkpt lat="47.27816" lon="-1.69659">
        <ele>60.6</ele>
        <time>2012-10-28T08:50:48Z</time>
      </trkpt>
      <trkpt lat="47.27816" lon="-1.69659">
        <ele>60.6</ele>
        <time>2012-10-28T08:50:49Z</time>
      </trkpt>
      <trkpt lat="47.27816" lon="-1.69659">
        <ele>60.3</ele>
        <time>2012-10-28T08:50:50Z</time>
      </trkpt>
      <trkpt lat="47.27816" lon="-1.69659">
        <ele>60.1</ele>
        <time>2012-10-28T08:50:51Z</time>
      </trkpt>
      <trkpt lat="47.27816" lon="-1.69659">
        <ele>60</ele>
        <time>2012-10-28T08:50:52Z</time>
      </trkpt>
      <trkpt lat="47.27816" lon="-1.69659">
        <ele>60.1</ele>
        <time>2012-10-28T08:50:53Z</time>
      </trkpt>
      <trkpt lat="47.27816" lon="-1.69659">
        <ele>60.1</ele>
        <time>2012-10-28T08:50:54Z</time>
      </trkpt>
      <trkpt lat="47.27816" lon="-1.69659">
        <ele>60.4</ele>
        <time>2012-10-28T08:50:55Z</time>
      </trkpt>
      <trkpt lat="47.27816" lon="-1.69659">
        <ele>60.7</ele>
        <time>2012-10-28T08:50:56Z</time>
      </trkpt>
      <trkpt lat="47.27816" lon="-1.69659">
        <ele>60.6</ele>
        <time>2012-10-28T08:50:57Z</time>
      </trkpt>
      <trkpt lat="47.27816" lon="-1.69659">
        <ele>60.6</ele>
        <time>2012-10-28T08:50:58Z</time>
      </trkpt>
      <trkpt lat="47.27816" lon="-1.69659">
        <ele>60.5</ele>
        <time>2012-10-28T08:50:59Z</time>
      </trkpt>
      <trkpt lat="47.27816" lon="-1.69659">
        <ele>60.8</ele>
        <time>2012-10-28T08:51:00Z</time>
      </trkpt>
      <trkpt lat="47.27816" lon="-1.69659">
        <ele>61</ele>
        <time>2012-10-28T08:51:01Z</time>
      </trkpt>
      <trkpt lat="47.27816" lon="-1.69659">
        <ele>60.7</ele>
        <time>2012-10-28T08:51:02Z</time>
      </trkpt>
      <trkpt lat="47.27816" lon="-1.69659">
        <ele>60.6</ele>
        <time>2012-10-28T08:51:03Z</time>
      </trkpt>
      <trkpt lat="47.27816" lon="-1.69659">
        <ele>60.5</ele>
        <time>2012-10-28T08:51:04Z</time>
      </trkpt>
      <trkpt lat="47.27816" lon="-1.69659">
        <ele>60.6</ele>
        <time>2012-10-28T08:51:05Z</time>
      </trkpt>
      <trkpt lat="47.27816" lon="-1.69659">
        <ele>60.8</ele>
        <time>2012-10-28T08:51:06Z</time>
      </trkpt>
      <trkpt lat="47.27816" lon="-1.69659">
        <ele>60.8</ele>
        <time>2012-10-28T08:51:07Z</time>
      </trkpt>
      <trkpt lat="47.27816" lon="-1.69659">
        <ele>60.8</ele>
        <time>2012-10-28T08:51:08Z</time>
      </trkpt>
      <trkpt lat="47.27816" lon="-1.69659">
        <ele>61</ele>
        <time>2012-10-28T08:51:09Z</time>
      </trkpt>
      <trkpt lat="47.27817" lon="-1.69659">
        <ele>61.1</ele>
        <time>2012-10-28T08:51:10Z</time>
      </trkpt>
      <trkpt lat="47.27817" lon="-1.69659">
        <ele>61.2</ele>
        <time>2012-10-28T08:51:11Z</time>
      </trkpt>
      <trkpt lat="47.27817" lon="-1.69659">
        <ele>61.2</ele>
        <time>2012-10-28T08:51:12Z</time>
      </trkpt>
      <trkpt lat="47.27817" lon="-1.69659">
        <ele>61.2</ele>
        <time>2012-10-28T08:51:13Z</time>
      </trkpt>
      <trkpt lat="47.27817" lon="-1.69659">
        <ele>60.9</ele>
        <time>2012-10-28T08:51:14Z</time>
      </trkpt>
      <trkpt lat="47.27817" lon="-1.69658">
        <ele>60.7</ele>
        <time>2012-10-28T08:51:15Z</time>
      </trkpt>
      <trkpt lat="47.27817" lon="-1.69658">
        <ele>60.7</ele>
        <time>2012-10-28T08:51:16Z</time>
      </trkpt>
      <trkpt lat="47.27817" lon="-1.69658">
        <ele>60.6</ele>
        <time>2012-10-28T08:51:17Z</time>
      </trkpt>
      <trkpt lat="47.27817" lon="-1.69658">
        <ele>60.6</ele>
        <time>2012-10-28T08:51:18Z</time>
      </trkpt>
      <trkpt lat="47.27817" lon="-1.69658">
        <ele>60.6</ele>
        <time>2012-10-28T08:51:19Z</time>
      </trkpt>
      <trkpt lat="47.27817" lon="-1.69658">
        <ele>60.6</ele>
        <time>2012-10-28T08:51:20Z</time>
      </trkpt>
      <trkpt lat="47.27817" lon="-1.69658">
        <ele>60.5</ele>
        <time>2012-10-28T08:51:21Z</time>
      </trkpt>
      <trkpt lat="47.27817" lon="-1.69658">
        <ele>60.5</ele>
        <time>2012-10-28T08:51:22Z</time>
      </trkpt>
      <trkpt lat="47.27817" lon="-1.69658">
        <ele>60.4</ele>
        <time>2012-10-28T08:51:23Z</time>
      </trkpt>
      <trkpt lat="47.27817" lon="-1.69658">
        <ele>60</ele>
        <time>2012-10-28T08:51:24Z</time>
      </trkpt>
      <trkpt lat="47.27817" lon="-1.69658">
        <ele>59.7</ele>
        <time>2012-10-28T08:51:25Z</time>
      </trkpt>
      <trkpt lat="47.27817" lon="-1.69658">
        <ele>59.8</ele>
        <time>2012-10-28T08:51:26Z</time>
      </trkpt>
      <trkpt lat="47.27817" lon="-1.69658">
        <ele>60</ele>
        <time>2012-10-28T08:51:27Z</time>
      </trkpt>
      <trkpt lat="47.27818" lon="-1.69658">
        <ele>59.6</ele>
        <time>2012-10-28T08:51:28Z</time>
      </trkpt>
      <trkpt lat="47.27818" lon="-1.69658">
        <ele>59.4</ele>
        <time>2012-10-28T08:51:29Z</time>
      </trkpt>
      <trkpt lat="47.27818" lon="-1.69658">
        <ele>59.2</ele>
        <time>2012-10-28T08:51:30Z</time>
      </trkpt>
      <trkpt lat="47.27818" lon="-1.69658">
        <ele>59.5</ele>
        <time>2012-10-28T08:51:31Z</time>
      </trkpt>
      <trkpt lat="47.27818" lon="-1.69658">
        <ele>59.7</ele>
        <time>2012-10-28T08:51:32Z</time>
      </trkpt>
      <trkpt lat="47.27818" lon="-1.69658">
        <ele>59.8</ele>
        <time>2012-10-28T08:51:33Z</time>
      </trkpt>
      <trkpt lat="47.27818" lon="-1.69658">
        <ele>59.8</ele>
        <time>2012-10-28T08:51:34Z</time>
      </trkpt>
      <trkpt lat="47.27818" lon="-1.69658">
        <ele>59.8</ele>
        <time>2012-10-28T08:51:35Z</time>
      </trkpt>
      <trkpt lat="47.27818" lon="-1.69658">
        <ele>59.8</ele>
        <time>2012-10-28T08:51:36Z</time>
      </trkpt>
      <trkpt lat="47.27818" lon="-1.69658">
        <ele>59.8</ele>
        <time>2012-10-28T08:51:37Z</time>
      </trkpt>
      <trkpt lat="47.27818" lon="-1.69658">
        <ele>59.9</ele>
        <time>2012-10-28T08:51:38Z</time>
      </trkpt>
      <trkpt lat="47.27818" lon="-1.69658">
        <ele>60</ele>
        <time>2012-10-28T08:51:39Z</time>
      </trkpt>
      <trkpt lat="47.27818" lon="-1.69658">
        <ele>60</ele>
        <time>2012-10-28T08:51:40Z</time>
      </trkpt>
      <trkpt lat="47.27818" lon="-1.69658">
        <ele>59.9</ele>
        <time>2012-10-28T08:51:41Z</time>
      </trkpt>
      <trkpt lat="47.27818" lon="-1.69658">
        <ele>59.9</ele>
        <time>2012-10-28T08:51:42Z</time>
      </trkpt>
      <trkpt lat="47.27818" lon="-1.69658">
        <ele>59.7</ele>
        <time>2012-10-28T08:51:43Z</time>
      </trkpt>
      <trkpt lat="47.27818" lon="-1.69658">
        <ele>59.7</ele>
        <time>2012-10-28T08:51:44Z</time>
      </trkpt>
      <trkpt lat="47.27818" lon="-1.69658">
        <ele>59.6</ele>
        <time>2012-10-28T08:51:45Z</time>
      </trkpt>
      <trkpt lat="47.27818" lon="-1.69658">
        <ele>59.6</ele>
        <time>2012-10-28T08:51:46Z</time>
      </trkpt>
      <trkpt lat="47.27818" lon="-1.69658">
        <ele>59.6</ele>
        <time>2012-10-28T08:51:47Z</time>
      </trkpt>
      <trkpt lat="47.27818" lon="-1.69658">
        <ele>59.6</ele>
        <time>2012-10-28T08:51:48Z</time>
      </trkpt>
      <trkpt lat="47.27818" lon="-1.69658">
        <ele>59.6</ele>
        <time>2012-10-28T08:51:49Z</time>
      </trkpt>
      <trkpt lat="47.27818" lon="-1.69658">
        <ele>59.8</ele>
        <time>2012-10-28T08:51:50Z</time>
      </trkpt>
      <trkpt lat="47.27818" lon="-1.69658">
        <ele>59.9</ele>
        <time>2012-10-28T08:51:51Z</time>
      </trkpt>
      <trkpt lat="47.27818" lon="-1.69658">
        <ele>60</ele>
        <time>2012-10-28T08:51:52Z</time>
      </trkpt>
      <trkpt lat="47.27818" lon="-1.69658">
        <ele>60</ele>
        <time>2012-10-28T08:51:53Z</time>
      </trkpt>
      <trkpt lat="47.27818" lon="-1.69658">
        <ele>59.8</ele>
        <time>2012-10-28T08:51:54Z</time>
      </trkpt>
      <trkpt lat="47.27818" lon="-1.69658">
        <ele>59.7</ele>
        <time>2012-10-28T08:51:55Z</time>
      </trkpt>
      <trkpt lat="47.27818" lon="-1.69658">
        <ele>59.5</ele>
        <time>2012-10-28T08:51:56Z</time>
      </trkpt>
      <trkpt lat="47.27818" lon="-1.69658">
        <ele>59.5</ele>
        <time>2012-10-28T08:51:57Z</time>
      </trkpt>
      <trkpt lat="47.27818" lon="-1.69658">
        <ele>59.4</ele>
        <time>2012-10-28T08:51:58Z</time>
      </trkpt>
      <trkpt lat="47.27818" lon="-1.69658">
        <ele>59.6</ele>
        <time>2012-10-28T08:51:59Z</time>
      </trkpt>
      <trkpt lat="47.27818" lon="-1.69658">
        <ele>59.7</ele>
        <time>2012-10-28T08:52:00Z</time>
      </trkpt>
      <trkpt lat="47.27818" lon="-1.69658">
        <ele>59.7</ele>
        <time>2012-10-28T08:52:01Z</time>
      </trkpt>
      <trkpt lat="47.27818" lon="-1.69658">
        <ele>60.3</ele>
        <time>2012-10-28T08:52:02Z</time>
      </trkpt>
      <trkpt lat="47.27818" lon="-1.69658">
        <ele>60.7</ele>
        <time>2012-10-28T08:52:03Z</time>
      </trkpt>
      <trkpt lat="47.27818" lon="-1.69658">
        <ele>61</ele>
        <time>2012-10-28T08:52:04Z</time>
      </trkpt>
      <trkpt lat="47.27818" lon="-1.69658">
        <ele>61.2</ele>
        <time>2012-10-28T08:52:05Z</time>
      </trkpt>
      <trkpt lat="47.27819" lon="-1.69658">
        <ele>61</ele>
        <time>2012-10-28T08:52:06Z</time>
      </trkpt>
      <trkpt lat="47.27819" lon="-1.69658">
        <ele>60.8</ele>
        <time>2012-10-28T08:52:07Z</time>
      </trkpt>
      <trkpt lat="47.27819" lon="-1.69658">
        <ele>60.7</ele>
        <time>2012-10-28T08:52:08Z</time>
      </trkpt>
      <trkpt lat="47.27819" lon="-1.69658">
        <ele>60.6</ele>
        <time>2012-10-28T08:52:09Z</time>
      </trkpt>
      <trkpt lat="47.27819" lon="-1.69658">
        <ele>60.5</ele>
        <time>2012-10-28T08:52:10Z</time>
      </trkpt>
      <trkpt lat="47.27819" lon="-1.69658">
        <ele>60.3</ele>
        <time>2012-10-28T08:52:11Z</time>
      </trkpt>
      <trkpt lat="47.27819" lon="-1.69658">
        <ele>60.2</ele>
        <time>2012-10-28T08:52:12Z</time>
      </trkpt>
      <trkpt lat="47.27819" lon="-1.69658">
        <ele>60.2</ele>
        <time>2012-10-28T08:52:13Z</time>
      </trkpt>
      <trkpt lat="47.27819" lon="-1.69658">
        <ele>60.3</ele>
        <time>2012-10-28T08:52:14Z</time>
      </trkpt>
      <trkpt lat="47.27819" lon="-1.69658">
        <ele>60.3</ele>
        <time>2012-10-28T08:52:15Z</time>
      </trkpt>
      <trkpt lat="47.27819" lon="-1.69658">
        <ele>60.2</ele>
        <time>2012-10-28T08:52:16Z</time>
      </trkpt>
      <trkpt lat="47.27819" lon="-1.69658">
        <ele>60.1</ele>
        <time>2012-10-28T08:52:17Z</time>
      </trkpt>
      <trkpt lat="47.27819" lon="-1.69658">
        <ele>60.3</ele>
        <time>2012-10-28T08:52:18Z</time>
      </trkpt>
      <trkpt lat="47.27819" lon="-1.69658">
        <ele>60.4</ele>
        <time>2012-10-28T08:52:19Z</time>
      </trkpt>
      <trkpt lat="47.27819" lon="-1.69658">
        <ele>60.5</ele>
        <time>2012-10-28T08:52:20Z</time>
      </trkpt>
      <trkpt lat="47.27819" lon="-1.69658">
        <ele>60.4</ele>
        <time>2012-10-28T08:52:21Z</time>
      </trkpt>
      <trkpt lat="47.27819" lon="-1.69658">
        <ele>60.4</ele>
        <time>2012-10-28T08:52:22Z</time>
      </trkpt>
      <trkpt lat="47.27819" lon="-1.69658">
        <ele>60</ele>
        <time>2012-10-28T08:52:23Z</time>
      </trkpt>
      <trkpt lat="47.27819" lon="-1.69658">
        <ele>59.7</ele>
        <time>2012-10-28T08:52:24Z</time>
      </trkpt>
      <trkpt lat="47.27819" lon="-1.69658">
        <ele>59.8</ele>
        <time>2012-10-28T08:52:25Z</time>
      </trkpt>
      <trkpt lat="47.27819" lon="-1.69658">
        <ele>59.9</ele>
        <time>2012-10-28T08:52:26Z</time>
      </trkpt>
      <trkpt lat="47.27819" lon="-1.69658">
        <ele>60</ele>
        <time>2012-10-28T08:52:27Z</time>
      </trkpt>
      <trkpt lat="47.27819" lon="-1.69658">
        <ele>59.9</ele>
        <time>2012-10-28T08:52:28Z</time>
      </trkpt>
      <trkpt lat="47.27819" lon="-1.69658">
        <ele>59.7</ele>
        <time>2012-10-28T08:52:29Z</time>
      </trkpt>
      <trkpt lat="47.27819" lon="-1.69658">
        <ele>60.1</ele>
        <time>2012-10-28T08:52:30Z</time>
      </trkpt>
      <trkpt lat="47.27819" lon="-1.69658">
        <ele>60.4</ele>
        <time>2012-10-28T08:52:31Z</time>
      </trkpt>
      <trkpt lat="47.2782" lon="-1.69658">
        <ele>60.2</ele>
        <time>2012-10-28T08:52:32Z</time>
      </trkpt>
      <trkpt lat="47.2782" lon="-1.69658">
        <ele>60.2</ele>
        <time>2012-10-28T08:52:33Z</time>
      </trkpt>
      <trkpt lat="47.2782" lon="-1.69658">
        <ele>60.1</ele>
        <time>2012-10-28T08:52:34Z</time>
      </trkpt>
      <trkpt lat="47.2782" lon="-1.69658">
        <ele>60.2</ele>
        <time>2012-10-28T08:52:35Z</time>
      </trkpt>
      <trkpt lat="47.2782" lon="-1.69658">
        <ele>60.2</ele>
        <time>2012-10-28T08:52:36Z</time>
      </trkpt>
      <trkpt lat="47.2782" lon="-1.69658">
        <ele>60.2</ele>
        <time>2012-10-28T08:52:37Z</time>
      </trkpt>
      <trkpt lat="47.2782" lon="-1.69658">
        <ele>60.1</ele>
        <time>2012-10-28T08:52:38Z</time>
      </trkpt>
      <trkpt lat="47.2782" lon="-1.69658">
        <ele>60.1</ele>
        <time>2012-10-28T08:52:39Z</time>
      </trkpt>
      <trkpt lat="47.2782" lon="-1.69658">
        <ele>60.2</ele>
        <time>2012-10-28T08:52:40Z</time>
      </trkpt>
      <trkpt lat="47.2782" lon="-1.69658">
        <ele>60.2</ele>
        <time>2012-10-28T08:52:41Z</time>
      </trkpt>
      <trkpt lat="47.2782" lon="-1.69658">
        <ele>60</ele>
        <time>2012-10-28T08:52:42Z</time>
      </trkpt>
      <trkpt lat="47.27821" lon="-1.69658">
        <ele>59.9</ele>
        <time>2012-10-28T08:52:43Z</time>
      </trkpt>
      <trkpt lat="47.27821" lon="-1.69658">
        <ele>60.3</ele>
        <time>2012-10-28T08:52:44Z</time>
      </trkpt>
      <trkpt lat="47.27821" lon="-1.69658">
        <ele>60.6</ele>
        <time>2012-10-28T08:52:45Z</time>
      </trkpt>
      <trkpt lat="47.27821" lon="-1.69658">
        <ele>60.8</ele>
        <time>2012-10-28T08:52:46Z</time>
      </trkpt>
      <trkpt lat="47.27821" lon="-1.69658">
        <ele>60.8</ele>
        <time>2012-10-28T08:52:47Z</time>
      </trkpt>
      <trkpt lat="47.27821" lon="-1.69658">
        <ele>60.9</ele>
        <time>2012-10-28T08:52:48Z</time>
      </trkpt>
      <trkpt lat="47.27821" lon="-1.69658">
        <ele>60.6</ele>
        <time>2012-10-28T08:52:49Z</time>
      </trkpt>
      <trkpt lat="47.27821" lon="-1.69658">
        <ele>60.4</ele>
        <time>2012-10-28T08:52:50Z</time>
      </trkpt>
      <trkpt lat="47.27823" lon="-1.69659">
        <ele>60.2</ele>
        <time>2012-10-28T08:53:08Z</time>
      </trkpt>
      <trkpt lat="47.27823" lon="-1.69659">
        <ele>60.1</ele>
        <time>2012-10-28T08:53:09Z</time>
      </trkpt>
      <trkpt lat="47.27824" lon="-1.69659">
        <ele>59.9</ele>
        <time>2012-10-28T08:53:10Z</time>
      </trkpt>
      <trkpt lat="47.27824" lon="-1.69659">
        <ele>59.7</ele>
        <time>2012-10-28T08:53:11Z</time>
      </trkpt>
      <trkpt lat="47.27824" lon="-1.69659">
        <ele>59.6</ele>
        <time>2012-10-28T08:53:12Z</time>
      </trkpt>
      <trkpt lat="47.27824" lon="-1.69659">
        <ele>59.8</ele>
        <time>2012-10-28T08:53:13Z</time>
      </trkpt>
      <trkpt lat="47.27825" lon="-1.6966">
        <ele>61.2</ele>
        <time>2012-10-28T08:53:23Z</time>
      </trkpt>
      <trkpt lat="47.27825" lon="-1.6966">
        <ele>61.3</ele>
        <time>2012-10-28T08:53:24Z</time>
      </trkpt>
      <trkpt lat="47.27825" lon="-1.6966">
        <ele>61.2</ele>
        <time>2012-10-28T08:53:25Z</time>
      </trkpt>
      <trkpt lat="47.27825" lon="-1.6966">
        <ele>61.1</ele>
        <time>2012-10-28T08:53:26Z</time>
      </trkpt>
      <trkpt lat="47.27825" lon="-1.6966">
        <ele>61.3</ele>
        <time>2012-10-28T08:53:27Z</time>
      </trkpt>
      <trkpt lat="47.27825" lon="-1.6966">
        <ele>61.4</ele>
        <time>2012-10-28T08:53:28Z</time>
      </trkpt>
      <trkpt lat="47.27825" lon="-1.6966">
        <ele>61.5</ele>
        <time>2012-10-28T08:53:29Z</time>
      </trkpt>
      <trkpt lat="47.27825" lon="-1.6966">
        <ele>60.6</ele>
        <time>2012-10-28T08:53:36Z</time>
      </trkpt>
      <trkpt lat="47.27825" lon="-1.6966">
        <ele>60.6</ele>
        <time>2012-10-28T08:53:37Z</time>
      </trkpt>
      <trkpt lat="47.27825" lon="-1.6966">
        <ele>60.5</ele>
        <time>2012-10-28T08:53:38Z</time>
      </trkpt>
      <trkpt lat="47.27825" lon="-1.6966">
        <ele>60.9</ele>
        <time>2012-10-28T08:53:39Z</time>
      </trkpt>
      <trkpt lat="47.27825" lon="-1.69659">
        <ele>61.2</ele>
        <time>2012-10-28T08:53:40Z</time>
      </trkpt>
      <trkpt lat="47.27825" lon="-1.69659">
        <ele>61.1</ele>
        <time>2012-10-28T08:53:41Z</time>
      </trkpt>
      <trkpt lat="47.27825" lon="-1.69659">
        <ele>61</ele>
        <time>2012-10-28T08:53:42Z</time>
      </trkpt>
      <trkpt lat="47.27825" lon="-1.69659">
        <ele>60.9</ele>
        <time>2012-10-28T08:53:43Z</time>
      </trkpt>
      <trkpt lat="47.27825" lon="-1.69659">
        <ele>60.9</ele>
        <time>2012-10-28T08:53:44Z</time>
      </trkpt>
      <trkpt lat="47.27825" lon="-1.69659">
        <ele>60.9</ele>
        <time>2012-10-28T08:53:45Z</time>
      </trkpt>
      <trkpt lat="47.27825" lon="-1.69659">
        <ele>60.6</ele>
        <time>2012-10-28T08:53:46Z</time>
      </trkpt>
      <trkpt lat="47.27825" lon="-1.69659">
        <ele>60.4</ele>
        <time>2012-10-28T08:53:47Z</time>
      </trkpt>
      <trkpt lat="47.27825" lon="-1.69659">
        <ele>60.4</ele>
        <time>2012-10-28T08:53:48Z</time>
      </trkpt>
      <trkpt lat="47.27825" lon="-1.69659">
        <ele>60.5</ele>
        <time>2012-10-28T08:53:49Z</time>
      </trkpt>
      <trkpt lat="47.27825" lon="-1.69659">
        <ele>60.5</ele>
        <time>2012-10-28T08:53:50Z</time>
      </trkpt>
      <trkpt lat="47.27825" lon="-1.69659">
        <ele>60.6</ele>
        <time>2012-10-28T08:53:51Z</time>
      </trkpt>
      <trkpt lat="47.27825" lon="-1.69659">
        <ele>60.6</ele>
        <time>2012-10-28T08:53:52Z</time>
      </trkpt>
      <trkpt lat="47.27825" lon="-1.69659">
        <ele>60.6</ele>
        <time>2012-10-28T08:53:53Z</time>
      </trkpt>
      <trkpt lat="47.27825" lon="-1.69659">
        <ele>60.5</ele>
        <time>2012-10-28T08:53:54Z</time>
      </trkpt>
      <trkpt lat="47.27825" lon="-1.69659">
        <ele>60.8</ele>
        <time>2012-10-28T08:53:55Z</time>
      </trkpt>
      <trkpt lat="47.27825" lon="-1.69658">
        <ele>61</ele>
        <time>2012-10-28T08:53:56Z</time>
      </trkpt>
      <trkpt lat="47.27825" lon="-1.69658">
        <ele>61.2</ele>
        <time>2012-10-28T08:53:57Z</time>
      </trkpt>
      <trkpt lat="47.27824" lon="-1.69658">
        <ele>60.8</ele>
        <time>2012-10-28T08:53:58Z</time>
      </trkpt>
      <trkpt lat="47.27824" lon="-1.69658">
        <ele>60.6</ele>
        <time>2012-10-28T08:53:59Z</time>
      </trkpt>
      <trkpt lat="47.27824" lon="-1.69658">
        <ele>60.7</ele>
        <time>2012-10-28T08:54:00Z</time>
      </trkpt>
      <trkpt lat="47.27824" lon="-1.69658">
        <ele>60.8</ele>
        <time>2012-10-28T08:54:01Z</time>
      </trkpt>
      <trkpt lat="47.27824" lon="-1.69658">
        <ele>60.9</ele>
        <time>2012-10-28T08:54:02Z</time>
      </trkpt>
      <trkpt lat="47.27824" lon="-1.69658">
        <ele>60.9</ele>
        <time>2012-10-28T08:54:03Z</time>
      </trkpt>
      <trkpt lat="47.27824" lon="-1.69658">
        <ele>60.9</ele>
        <time>2012-10-28T08:54:04Z</time>
      </trkpt>
      <trkpt lat="47.27824" lon="-1.69658">
        <ele>60.8</ele>
        <time>2012-10-28T08:54:05Z</time>
      </trkpt>
      <trkpt lat="47.27824" lon="-1.69658">
        <ele>60.7</ele>
        <time>2012-10-28T08:54:06Z</time>
      </trkpt>
      <trkpt lat="47.27824" lon="-1.69658">
        <ele>60.9</ele>
        <time>2012-10-28T08:54:07Z</time>
      </trkpt>
      <trkpt lat="47.27824" lon="-1.69658">
        <ele>61.1</ele>
        <time>2012-10-28T08:54:08Z</time>
      </trkpt>
      <trkpt lat="47.27824" lon="-1.69658">
        <ele>61.2</ele>
        <time>2012-10-28T08:54:09Z</time>
      </trkpt>
      <trkpt lat="47.27824" lon="-1.69658">
        <ele>61.1</ele>
        <time>2012-10-28T08:54:10Z</time>
      </trkpt>
      <trkpt lat="47.27824" lon="-1.69658">
        <ele>61.1</ele>
        <time>2012-10-28T08:54:11Z</time>
      </trkpt>
      <trkpt lat="47.27824" lon="-1.69658">
        <ele>60.8</ele>
        <time>2012-10-28T08:54:12Z</time>
      </trkpt>
      <trkpt lat="47.27824" lon="-1.69658">
        <ele>60.6</ele>
        <time>2012-10-28T08:54:13Z</time>
      </trkpt>
      <trkpt lat="47.27824" lon="-1.69658">
        <ele>60.8</ele>
        <time>2012-10-28T08:54:14Z</time>
      </trkpt>
      <trkpt lat="47.27824" lon="-1.69658">
        <ele>61</ele>
        <time>2012-10-28T08:54:15Z</time>
      </trkpt>
      <trkpt lat="47.27824" lon="-1.69658">
        <ele>61.1</ele>
        <time>2012-10-28T08:54:16Z</time>
      </trkpt>
      <trkpt lat="47.27824" lon="-1.69658">
        <ele>60.8</ele>
        <time>2012-10-28T08:54:17Z</time>
      </trkpt>
      <trkpt lat="47.27824" lon="-1.69657">
        <ele>60.5</ele>
        <time>2012-10-28T08:54:18Z</time>
      </trkpt>
      <trkpt lat="47.27824" lon="-1.69657">
        <ele>61</ele>
        <time>2012-10-28T08:54:19Z</time>
      </trkpt>
      <trkpt lat="47.27824" lon="-1.69657">
        <ele>61.5</ele>
        <time>2012-10-28T08:54:20Z</time>
      </trkpt>
      <trkpt lat="47.27824" lon="-1.69657">
        <ele>61.8</ele>
        <time>2012-10-28T08:54:21Z</time>
      </trkpt>
      <trkpt lat="47.27824" lon="-1.69657">
        <ele>61.7</ele>
        <time>2012-10-28T08:54:22Z</time>
      </trkpt>
      <trkpt lat="47.27824" lon="-1.69657">
        <ele>61.6</ele>
        <time>2012-10-28T08:54:23Z</time>
      </trkpt>
      <trkpt lat="47.27824" lon="-1.69657">
        <ele>61.3</ele>
        <time>2012-10-28T08:54:24Z</time>
      </trkpt>
      <trkpt lat="47.27824" lon="-1.69657">
        <ele>61</ele>
        <time>2012-10-28T08:54:25Z</time>
      </trkpt>
      <trkpt lat="47.27824" lon="-1.69657">
        <ele>60.8</ele>
        <time>2012-10-28T08:54:26Z</time>
      </trkpt>
      <trkpt lat="47.27824" lon="-1.69657">
        <ele>60.6</ele>
        <time>2012-10-28T08:54:27Z</time>
      </trkpt>
      <trkpt lat="47.27824" lon="-1.69657">
        <ele>60.5</ele>
        <time>2012-10-28T08:54:28Z</time>
      </trkpt>
      <trkpt lat="47.27824" lon="-1.69657">
        <ele>60.5</ele>
        <time>2012-10-28T08:54:29Z</time>
      </trkpt>
      <trkpt lat="47.27824" lon="-1.69657">
        <ele>60.5</ele>
        <time>2012-10-28T08:54:30Z</time>
      </trkpt>
      <trkpt lat="47.27824" lon="-1.69657">
        <ele>60.6</ele>
        <time>2012-10-28T08:54:31Z</time>
      </trkpt>
      <trkpt lat="47.27824" lon="-1.69657">
        <ele>60.6</ele>
        <time>2012-10-28T08:54:32Z</time>
      </trkpt>
      <trkpt lat="47.27824" lon="-1.69657">
        <ele>60.8</ele>
        <time>2012-10-28T08:54:33Z</time>
      </trkpt>
      <trkpt lat="47.27824" lon="-1.69657">
        <ele>61</ele>
        <time>2012-10-28T08:54:34Z</time>
      </trkpt>
      <trkpt lat="47.27824" lon="-1.69657">
        <ele>61.1</ele>
        <time>2012-10-28T08:54:35Z</time>
      </trkpt>
      <trkpt lat="47.27824" lon="-1.69657">
        <ele>60.8</ele>
        <time>2012-10-28T08:54:36Z</time>
      </trkpt>
      <trkpt lat="47.27824" lon="-1.69657">
        <ele>60.6</ele>
        <time>2012-10-28T08:54:37Z</time>
      </trkpt>
      <trkpt lat="47.27824" lon="-1.69657">
        <ele>60.7</ele>
        <time>2012-10-28T08:54:38Z</time>
      </trkpt>
      <trkpt lat="47.27824" lon="-1.69657">
        <ele>60.8</ele>
        <time>2012-10-28T08:54:39Z</time>
      </trkpt>
      <trkpt lat="47.27824" lon="-1.69657">
        <ele>60.9</ele>
        <time>2012-10-28T08:54:40Z</time>
      </trkpt>
      <trkpt lat="47.27824" lon="-1.69657">
        <ele>60.9</ele>
        <time>2012-10-28T08:54:41Z</time>
      </trkpt>
      <trkpt lat="47.27824" lon="-1.69657">
        <ele>60.9</ele>
        <time>2012-10-28T08:54:42Z</time>
      </trkpt>
      <trkpt lat="47.27824" lon="-1.69657">
        <ele>60.9</ele>
        <time>2012-10-28T08:54:43Z</time>
      </trkpt>
      <trkpt lat="47.27824" lon="-1.69657">
        <ele>60.9</ele>
        <time>2012-10-28T08:54:44Z</time>
      </trkpt>
      <trkpt lat="47.27824" lon="-1.69657">
        <ele>61</ele>
        <time>2012-10-28T08:54:45Z</time>
      </trkpt>
      <trkpt lat="47.27824" lon="-1.69657">
        <ele>61.1</ele>
        <time>2012-10-28T08:54:46Z</time>
      </trkpt>
      <trkpt lat="47.27824" lon="-1.69657">
        <ele>61.1</ele>
        <time>2012-10-28T08:54:47Z</time>
      </trkpt>
      <trkpt lat="47.27824" lon="-1.69657">
        <ele>60.9</ele>
        <time>2012-10-28T08:54:48Z</time>
      </trkpt>
      <trkpt lat="47.27824" lon="-1.69657">
        <ele>60.8</ele>
        <time>2012-10-28T08:54:49Z</time>
      </trkpt>
      <trkpt lat="47.27824" lon="-1.69657">
        <ele>61.1</ele>
        <time>2012-10-28T08:54:50Z</time>
      </trkpt>
      <trkpt lat="47.27824" lon="-1.69657">
        <ele>61.3</ele>
        <time>2012-10-28T08:54:51Z</time>
      </trkpt>
      <trkpt lat="47.27824" lon="-1.69657">
        <ele>61.1</ele>
        <time>2012-10-28T08:54:52Z</time>
      </trkpt>
      <trkpt lat="47.27824" lon="-1.69657">
        <ele>60.9</ele>
        <time>2012-10-28T08:54:53Z</time>
      </trkpt>
      <trkpt lat="47.27824" lon="-1.69657">
        <ele>60.8</ele>
        <time>2012-10-28T08:54:54Z</time>
      </trkpt>
      <trkpt lat="47.27824" lon="-1.69657">
        <ele>60.9</ele>
        <time>2012-10-28T08:54:55Z</time>
      </trkpt>
      <trkpt lat="47.27824" lon="-1.69657">
        <ele>60.9</ele>
        <time>2012-10-28T08:54:56Z</time>
      </trkpt>
      <trkpt lat="47.27824" lon="-1.69657">
        <ele>60.8</ele>
        <time>2012-10-28T08:54:57Z</time>
      </trkpt>
      <trkpt lat="47.27824" lon="-1.69657">
        <ele>60.7</ele>
        <time>2012-10-28T08:54:58Z</time>
      </trkpt>
      <trkpt lat="47.27824" lon="-1.69657">
        <ele>60.6</ele>
        <time>2012-10-28T08:54:59Z</time>
      </trkpt>
      <trkpt lat="47.27824" lon="-1.69657">
        <ele>60.9</ele>
        <time>2012-10-28T08:55:00Z</time>
      </trkpt>
      <trkpt lat="47.27824" lon="-1.69657">
        <ele>61.1</ele>
        <time>2012-10-28T08:55:01Z</time>
      </trkpt>
      <trkpt lat="47.27824" lon="-1.69657">
        <ele>61.2</ele>
        <time>2012-10-28T08:55:02Z</time>
      </trkpt>
      <trkpt lat="47.27824" lon="-1.69657">
        <ele>61.4</ele>
        <time>2012-10-28T08:55:03Z</time>
      </trkpt>
      <trkpt lat="47.27824" lon="-1.69656">
        <ele>61.1</ele>
        <time>2012-10-28T08:55:04Z</time>
      </trkpt>
      <trkpt lat="47.27824" lon="-1.69656">
        <ele>60.9</ele>
        <time>2012-10-28T08:55:05Z</time>
      </trkpt>
      <trkpt lat="47.27824" lon="-1.69656">
        <ele>60.8</ele>
        <time>2012-10-28T08:55:06Z</time>
      </trkpt>
      <trkpt lat="47.27824" lon="-1.69656">
        <ele>61.1</ele>
        <time>2012-10-28T08:55:07Z</time>
      </trkpt>
      <trkpt lat="47.27824" lon="-1.69656">
        <ele>61.3</ele>
        <time>2012-10-28T08:55:08Z</time>
      </trkpt>
      <trkpt lat="47.27824" lon="-1.69656">
        <ele>61.4</ele>
        <time>2012-10-28T08:55:09Z</time>
      </trkpt>
      <trkpt lat="47.27824" lon="-1.69656">
        <ele>61.4</ele>
        <time>2012-10-28T08:55:10Z</time>
      </trkpt>
      <trkpt lat="47.27824" lon="-1.69656">
        <ele>61.2</ele>
        <time>2012-10-28T08:55:11Z</time>
      </trkpt>
      <trkpt lat="47.27824" lon="-1.69656">
        <ele>61.1</ele>
        <time>2012-10-28T08:55:12Z</time>
      </trkpt>
      <trkpt lat="47.27824" lon="-1.69656">
        <ele>61</ele>
        <time>2012-10-28T08:55:13Z</time>
      </trkpt>
      <trkpt lat="47.27823" lon="-1.69656">
        <ele>61.1</ele>
        <time>2012-10-28T08:55:14Z</time>
      </trkpt>
      <trkpt lat="47.27823" lon="-1.69656">
        <ele>61.1</ele>
        <time>2012-10-28T08:55:15Z</time>
      </trkpt>
      <trkpt lat="47.27823" lon="-1.69656">
        <ele>60.9</ele>
        <time>2012-10-28T08:55:16Z</time>
      </trkpt>
      <trkpt lat="47.27823" lon="-1.69656">
        <ele>60.8</ele>
        <time>2012-10-28T08:55:17Z</time>
      </trkpt>
      <trkpt lat="47.27823" lon="-1.69656">
        <ele>60.7</ele>
        <time>2012-10-28T08:55:18Z</time>
      </trkpt>
      <trkpt lat="47.27823" lon="-1.69656">
        <ele>60.9</ele>
        <time>2012-10-28T08:55:19Z</time>
      </trkpt>
      <trkpt lat="47.27823" lon="-1.69656">
        <ele>61</ele>
        <time>2012-10-28T08:55:20Z</time>
      </trkpt>
      <trkpt lat="47.27823" lon="-1.69656">
        <ele>61</ele>
        <time>2012-10-28T08:55:21Z</time>
      </trkpt>
      <trkpt lat="47.27823" lon="-1.69656">
        <ele>61</ele>
        <time>2012-10-28T08:55:22Z</time>
      </trkpt>
      <trkpt lat="47.27823" lon="-1.69656">
        <ele>61</ele>
        <time>2012-10-28T08:55:23Z</time>
      </trkpt>
      <trkpt lat="47.27823" lon="-1.69656">
        <ele>61</ele>
        <time>2012-10-28T08:55:24Z</time>
      </trkpt>
      <trkpt lat="47.27823" lon="-1.69656">
        <ele>61.1</ele>
        <time>2012-10-28T08:55:25Z</time>
      </trkpt>
      <trkpt lat="47.27823" lon="-1.69656">
        <ele>61.2</ele>
        <time>2012-10-28T08:55:26Z</time>
      </trkpt>
      <trkpt lat="47.27823" lon="-1.69656">
        <ele>61.3</ele>
        <time>2012-10-28T08:55:27Z</time>
      </trkpt>
      <trkpt lat="47.27823" lon="-1.69656">
        <ele>61.2</ele>
        <time>2012-10-28T08:55:28Z</time>
      </trkpt>
      <trkpt lat="47.27823" lon="-1.69656">
        <ele>61.1</ele>
        <time>2012-10-28T08:55:29Z</time>
      </trkpt>
      <trkpt lat="47.27823" lon="-1.69656">
        <ele>61.3</ele>
        <time>2012-10-28T08:55:30Z</time>
      </trkpt>
      <trkpt lat="47.27823" lon="-1.69656">
        <ele>61.3</ele>
        <time>2012-10-28T08:55:31Z</time>
      </trkpt>
      <trkpt lat="47.27823" lon="-1.69656">
        <ele>61.4</ele>
        <time>2012-10-28T08:55:32Z</time>
      </trkpt>
      <trkpt lat="47.27823" lon="-1.69656">
        <ele>61.2</ele>
        <time>2012-10-28T08:55:33Z</time>
      </trkpt>
      <trkpt lat="47.27823" lon="-1.69656">
        <ele>61.1</ele>
        <time>2012-10-28T08:55:34Z</time>
      </trkpt>
      <trkpt lat="47.27823" lon="-1.69656">
        <ele>61.3</ele>
        <time>2012-10-28T08:55:35Z</time>
      </trkpt>
      <trkpt lat="47.27823" lon="-1.69656">
        <ele>61.4</ele>
        <time>2012-10-28T08:55:36Z</time>
      </trkpt>
      <trkpt lat="47.27823" lon="-1.69656">
        <ele>61.5</ele>
        <time>2012-10-28T08:55:37Z</time>
      </trkpt>
      <trkpt lat="47.27823" lon="-1.69656">
        <ele>61.6</ele>
        <time>2012-10-28T08:55:38Z</time>
      </trkpt>
      <trkpt lat="47.27823" lon="-1.69656">
        <ele>61.6</ele>
        <time>2012-10-28T08:55:39Z</time>
      </trkpt>
      <trkpt lat="47.27823" lon="-1.69656">
        <ele>61.7</ele>
        <time>2012-10-28T08:55:40Z</time>
      </trkpt>
      <trkpt lat="47.27823" lon="-1.69656">
        <ele>61.7</ele>
        <time>2012-10-28T08:55:41Z</time>
      </trkpt>
      <trkpt lat="47.27823" lon="-1.69656">
        <ele>61.9</ele>
        <time>2012-10-28T08:55:42Z</time>
      </trkpt>
      <trkpt lat="47.27823" lon="-1.69656">
        <ele>62</ele>
        <time>2012-10-28T08:55:43Z</time>
      </trkpt>
      <trkpt lat="47.27823" lon="-1.69656">
        <ele>62.1</ele>
        <time>2012-10-28T08:55:44Z</time>
      </trkpt>
      <trkpt lat="47.27823" lon="-1.69656">
        <ele>62</ele>
        <time>2012-10-28T08:55:45Z</time>
      </trkpt>
      <trkpt lat="47.27823" lon="-1.69656">
        <ele>61.9</ele>
        <time>2012-10-28T08:55:46Z</time>
      </trkpt>
      <trkpt lat="47.27823" lon="-1.69656">
        <ele>61.8</ele>
        <time>2012-10-28T08:55:47Z</time>
      </trkpt>
      <trkpt lat="47.27823" lon="-1.69656">
        <ele>61.7</ele>
        <time>2012-10-28T08:55:48Z</time>
      </trkpt>
      <trkpt lat="47.27823" lon="-1.69656">
        <ele>61.7</ele>
        <time>2012-10-28T08:55:49Z</time>
      </trkpt>
      <trkpt lat="47.27823" lon="-1.69655">
        <ele>61.7</ele>
        <time>2012-10-28T08:55:50Z</time>
      </trkpt>
      <trkpt lat="47.27823" lon="-1.69655">
        <ele>61.7</ele>
        <time>2012-10-28T08:55:51Z</time>
      </trkpt>
      <trkpt lat="47.27823" lon="-1.69655">
        <ele>61.3</ele>
        <time>2012-10-28T08:55:52Z</time>
      </trkpt>
      <trkpt lat="47.27823" lon="-1.69655">
        <ele>61.1</ele>
        <time>2012-10-28T08:55:53Z</time>
      </trkpt>
      <trkpt lat="47.27823" lon="-1.69655">
        <ele>61.3</ele>
        <time>2012-10-28T08:55:54Z</time>
      </trkpt>
      <trkpt lat="47.27823" lon="-1.69655">
        <ele>61.4</ele>
        <time>2012-10-28T08:55:55Z</time>
      </trkpt>
      <trkpt lat="47.27823" lon="-1.69655">
        <ele>61.5</ele>
        <time>2012-10-28T08:55:56Z</time>
      </trkpt>
      <trkpt lat="47.27823" lon="-1.69655">
        <ele>61.5</ele>
        <time>2012-10-28T08:55:57Z</time>
      </trkpt>
      <trkpt lat="47.27823" lon="-1.69655">
        <ele>61.5</ele>
        <time>2012-10-28T08:55:58Z</time>
      </trkpt>
      <trkpt lat="47.27823" lon="-1.69655">
        <ele>61.3</ele>
        <time>2012-10-28T08:55:59Z</time>
      </trkpt>
      <trkpt lat="47.27823" lon="-1.69655">
        <ele>61.2</ele>
        <time>2012-10-28T08:56:00Z</time>
      </trkpt>
      <trkpt lat="47.27823" lon="-1.69655">
        <ele>61</ele>
        <time>2012-10-28T08:56:01Z</time>
      </trkpt>
      <trkpt lat="47.27823" lon="-1.69655">
        <ele>60.9</ele>
        <time>2012-10-28T08:56:02Z</time>
      </trkpt>
      <trkpt lat="47.27823" lon="-1.69655">
        <ele>60.8</ele>
        <time>2012-10-28T08:56:03Z</time>
      </trkpt>
      <trkpt lat="47.27823" lon="-1.69655">
        <ele>61.1</ele>
        <time>2012-10-28T08:56:04Z</time>
      </trkpt>
      <trkpt lat="47.27823" lon="-1.69655">
        <ele>61.3</ele>
        <time>2012-10-28T08:56:05Z</time>
      </trkpt>
      <trkpt lat="47.27823" lon="-1.69655">
        <ele>61.5</ele>
        <time>2012-10-28T08:56:06Z</time>
      </trkpt>
      <trkpt lat="47.27823" lon="-1.69655">
        <ele>61.7</ele>
        <time>2012-10-28T08:56:07Z</time>
      </trkpt>
      <trkpt lat="47.27823" lon="-1.69655">
        <ele>61.7</ele>
        <time>2012-10-28T08:56:08Z</time>
      </trkpt>
      <trkpt lat="47.27823" lon="-1.69655">
        <ele>61.8</ele>
        <time>2012-10-28T08:56:09Z</time>
      </trkpt>
      <trkpt lat="47.27823" lon="-1.69655">
        <ele>61.8</ele>
        <time>2012-10-28T08:56:10Z</time>
      </trkpt>
      <trkpt lat="47.27823" lon="-1.69655">
        <ele>61.8</ele>
        <time>2012-10-28T08:56:11Z</time>
      </trkpt>
      <trkpt lat="47.27823" lon="-1.69655">
        <ele>61.8</ele>
        <time>2012-10-28T08:56:12Z</time>
      </trkpt>
      <trkpt lat="47.27823" lon="-1.69655">
        <ele>62</ele>
        <time>2012-10-28T08:56:13Z</time>
      </trkpt>
      <trkpt lat="47.27823" lon="-1.69655">
        <ele>62.2</ele>
        <time>2012-10-28T08:56:14Z</time>
      </trkpt>
      <trkpt lat="47.27823" lon="-1.69655">
        <ele>62.1</ele>
        <time>2012-10-28T08:56:15Z</time>
      </trkpt>
      <trkpt lat="47.27823" lon="-1.69655">
        <ele>62</ele>
        <time>2012-10-28T08:56:16Z</time>
      </trkpt>
      <trkpt lat="47.27823" lon="-1.69655">
        <ele>62</ele>
        <time>2012-10-28T08:56:17Z</time>
      </trkpt>
      <trkpt lat="47.27823" lon="-1.69655">
        <ele>62.1</ele>
        <time>2012-10-28T08:56:18Z</time>
      </trkpt>
      <trkpt lat="47.27823" lon="-1.69655">
        <ele>62.3</ele>
        <time>2012-10-28T08:56:19Z</time>
      </trkpt>
      <trkpt lat="47.27823" lon="-1.69655">
        <ele>62</ele>
        <time>2012-10-28T08:56:20Z</time>
      </trkpt>
      <trkpt lat="47.27823" lon="-1.69655">
        <ele>61.8</ele>
        <time>2012-10-28T08:56:21Z</time>
      </trkpt>
      <trkpt lat="47.27823" lon="-1.69655">
        <ele>61.7</ele>
        <time>2012-10-28T08:56:22Z</time>
      </trkpt>
      <trkpt lat="47.27823" lon="-1.69655">
        <ele>61.7</ele>
        <time>2012-10-28T08:56:23Z</time>
      </trkpt>
      <trkpt lat="47.27823" lon="-1.69655">
        <ele>61.7</ele>
        <time>2012-10-28T08:56:24Z</time>
      </trkpt>
      <trkpt lat="47.27823" lon="-1.69655">
        <ele>61.9</ele>
        <time>2012-10-28T08:56:25Z</time>
      </trkpt>
      <trkpt lat="47.27823" lon="-1.69655">
        <ele>62</ele>
        <time>2012-10-28T08:56:26Z</time>
      </trkpt>
      <trkpt lat="47.27823" lon="-1.69655">
        <ele>61.9</ele>
        <time>2012-10-28T08:56:27Z</time>
      </trkpt>
      <trkpt lat="47.27823" lon="-1.69655">
        <ele>61.8</ele>
        <time>2012-10-28T08:56:28Z</time>
      </trkpt>
      <trkpt lat="47.27823" lon="-1.69655">
        <ele>61.7</ele>
        <time>2012-10-28T08:56:29Z</time>
      </trkpt>
      <trkpt lat="47.27823" lon="-1.69655">
        <ele>61.3</ele>
        <time>2012-10-28T08:56:30Z</time>
      </trkpt>
      <trkpt lat="47.27823" lon="-1.69655">
        <ele>60.9</ele>
        <time>2012-10-28T08:56:31Z</time>
      </trkpt>
      <trkpt lat="47.27823" lon="-1.69655">
        <ele>61</ele>
        <time>2012-10-28T08:56:32Z</time>
      </trkpt>
      <trkpt lat="47.27823" lon="-1.69655">
        <ele>61</ele>
        <time>2012-10-28T08:56:33Z</time>
      </trkpt>
      <trkpt lat="47.27823" lon="-1.69655">
        <ele>60.9</ele>
        <time>2012-10-28T08:56:34Z</time>
      </trkpt>
      <trkpt lat="47.27823" lon="-1.69655">
        <ele>60.8</ele>
        <time>2012-10-28T08:56:35Z</time>
      </trkpt>
      <trkpt lat="47.27823" lon="-1.69655">
        <ele>60.7</ele>
        <time>2012-10-28T08:56:36Z</time>
      </trkpt>
      <trkpt lat="47.27823" lon="-1.69655">
        <ele>60.6</ele>
        <time>2012-10-28T08:56:37Z</time>
      </trkpt>
      <trkpt lat="47.27823" lon="-1.69655">
        <ele>60.4</ele>
        <time>2012-10-28T08:56:38Z</time>
      </trkpt>
      <trkpt lat="47.27823" lon="-1.69655">
        <ele>60.2</ele>
        <time>2012-10-28T08:56:39Z</time>
      </trkpt>
      <trkpt lat="47.27823" lon="-1.69655">
        <ele>60.1</ele>
        <time>2012-10-28T08:56:40Z</time>
      </trkpt>
      <trkpt lat="47.27823" lon="-1.69655">
        <ele>60</ele>
        <time>2012-10-28T08:56:41Z</time>
      </trkpt>
      <trkpt lat="47.27823" lon="-1.69655">
        <ele>60.4</ele>
        <time>2012-10-28T08:56:42Z</time>
      </trkpt>
      <trkpt lat="47.27823" lon="-1.69655">
        <ele>60.7</ele>
        <time>2012-10-28T08:56:43Z</time>
      </trkpt>
      <trkpt lat="47.27823" lon="-1.69655">
        <ele>60.9</ele>
        <time>2012-10-28T08:56:44Z</time>
      </trkpt>
      <trkpt lat="47.27823" lon="-1.69655">
        <ele>61.1</ele>
        <time>2012-10-28T08:56:45Z</time>
      </trkpt>
      <trkpt lat="47.27823" lon="-1.69655">
        <ele>61.2</ele>
        <time>2012-10-28T08:56:46Z</time>
      </trkpt>
      <trkpt lat="47.27823" lon="-1.69655">
        <ele>61.3</ele>
        <time>2012-10-28T08:56:47Z</time>
      </trkpt>
      <trkpt lat="47.27823" lon="-1.69655">
        <ele>61.4</ele>
        <time>2012-10-28T08:56:48Z</time>
      </trkpt>
      <trkpt lat="47.27823" lon="-1.69655">
        <ele>61.6</ele>
        <time>2012-10-28T08:56:49Z</time>
      </trkpt>
      <trkpt lat="47.27823" lon="-1.69655">
        <ele>61.8</ele>
        <time>2012-10-28T08:56:50Z</time>
      </trkpt>
      <trkpt lat="47.27823" lon="-1.69655">
        <ele>61.6</ele>
        <time>2012-10-28T08:56:51Z</time>
      </trkpt>
      <trkpt lat="47.27823" lon="-1.69655">
        <ele>61.5</ele>
        <time>2012-10-28T08:56:52Z</time>
      </trkpt>
      <trkpt lat="47.27823" lon="-1.69655">
        <ele>61.6</ele>
        <time>2012-10-28T08:56:53Z</time>
      </trkpt>
      <trkpt lat="47.27823" lon="-1.69655">
        <ele>61.7</ele>
        <time>2012-10-28T08:56:54Z</time>
      </trkpt>
      <trkpt lat="47.27823" lon="-1.69655">
        <ele>61.7</ele>
        <time>2012-10-28T08:56:55Z</time>
      </trkpt>
      <trkpt lat="47.27823" lon="-1.69655">
        <ele>62</ele>
        <time>2012-10-28T08:56:56Z</time>
      </trkpt>
      <trkpt lat="47.27823" lon="-1.69655">
        <ele>62.2</ele>
        <time>2012-10-28T08:56:57Z</time>
      </trkpt>
      <trkpt lat="47.27824" lon="-1.69655">
        <ele>62</ele>
        <time>2012-10-28T08:56:58Z</time>
      </trkpt>
      <trkpt lat="47.27825" lon="-1.69654">
        <ele>61.9</ele>
        <time>2012-10-28T08:56:59Z</time>
      </trkpt>
      <trkpt lat="47.27825" lon="-1.69654">
        <ele>61.8</ele>
        <time>2012-10-28T08:57:00Z</time>
      </trkpt>
      <trkpt lat="47.27826" lon="-1.69655">
        <ele>61.7</ele>
        <time>2012-10-28T08:57:01Z</time>
      </trkpt>
      <trkpt lat="47.27826" lon="-1.69655">
        <ele>61.7</ele>
        <time>2012-10-28T08:57:02Z</time>
      </trkpt>
      <trkpt lat="47.27827" lon="-1.69655">
        <ele>61.7</ele>
        <time>2012-10-28T08:57:03Z</time>
      </trkpt>
      <trkpt lat="47.27827" lon="-1.69655">
        <ele>61.7</ele>
        <time>2012-10-28T08:57:04Z</time>
      </trkpt>
      <trkpt lat="47.27827" lon="-1.69656">
        <ele>61.7</ele>
        <time>2012-10-28T08:57:05Z</time>
      </trkpt>
      <trkpt lat="47.27827" lon="-1.69656">
        <ele>61.6</ele>
        <time>2012-10-28T08:57:06Z</time>
      </trkpt>
      <trkpt lat="47.27827" lon="-1.69656">
        <ele>61.6</ele>
        <time>2012-10-28T08:57:07Z</time>
      </trkpt>
      <trkpt lat="47.27827" lon="-1.69656">
        <ele>61.6</ele>
        <time>2012-10-28T08:57:08Z</time>
      </trkpt>
      <trkpt lat="47.27827" lon="-1.69656">
        <ele>61.6</ele>
        <time>2012-10-28T08:57:09Z</time>
      </trkpt>
      <trkpt lat="47.27827" lon="-1.69656">
        <ele>62</ele>
        <time>2012-10-28T08:57:10Z</time>
      </trkpt>
      <trkpt lat="47.27827" lon="-1.69656">
        <ele>62.3</ele>
        <time>2012-10-28T08:57:11Z</time>
      </trkpt>
      <trkpt lat="47.27827" lon="-1.69656">
        <ele>62</ele>
        <time>2012-10-28T08:57:12Z</time>
      </trkpt>
      <trkpt lat="47.27827" lon="-1.69656">
        <ele>61.8</ele>
        <time>2012-10-28T08:57:13Z</time>
      </trkpt>
      <trkpt lat="47.27827" lon="-1.69656">
        <ele>61.6</ele>
        <time>2012-10-28T08:57:14Z</time>
      </trkpt>
      <trkpt lat="47.27827" lon="-1.69656">
        <ele>61.6</ele>
        <time>2012-10-28T08:57:15Z</time>
      </trkpt>
      <trkpt lat="47.27826" lon="-1.69656">
        <ele>61.6</ele>
        <time>2012-10-28T08:57:16Z</time>
      </trkpt>
      <trkpt lat="47.27826" lon="-1.69656">
        <ele>61.6</ele>
        <time>2012-10-28T08:57:17Z</time>
      </trkpt>
      <trkpt lat="47.27826" lon="-1.69656">
        <ele>61.5</ele>
        <time>2012-10-28T08:57:18Z</time>
      </trkpt>
      <trkpt lat="47.27826" lon="-1.69656">
        <ele>61.4</ele>
        <time>2012-10-28T08:57:19Z</time>
      </trkpt>
      <trkpt lat="47.27826" lon="-1.69656">
        <ele>61.3</ele>
        <time>2012-10-28T08:57:20Z</time>
      </trkpt>
      <trkpt lat="47.27826" lon="-1.69656">
        <ele>61.1</ele>
        <time>2012-10-28T08:57:21Z</time>
      </trkpt>
      <trkpt lat="47.27826" lon="-1.69656">
        <ele>61.2</ele>
        <time>2012-10-28T08:57:22Z</time>
      </trkpt>
      <trkpt lat="47.27826" lon="-1.69656">
        <ele>61.2</ele>
        <time>2012-10-28T08:57:23Z</time>
      </trkpt>
      <trkpt lat="47.27826" lon="-1.69656">
        <ele>61.5</ele>
        <time>2012-10-28T08:57:24Z</time>
      </trkpt>
      <trkpt lat="47.27826" lon="-1.69656">
        <ele>61.7</ele>
        <time>2012-10-28T08:57:25Z</time>
      </trkpt>
      <trkpt lat="47.27826" lon="-1.69656">
        <ele>61.8</ele>
        <time>2012-10-28T08:57:26Z</time>
      </trkpt>
      <trkpt lat="47.27826" lon="-1.69655">
        <ele>61.6</ele>
        <time>2012-10-28T08:57:27Z</time>
      </trkpt>
      <trkpt lat="47.27825" lon="-1.69655">
        <ele>61.4</ele>
        <time>2012-10-28T08:57:28Z</time>
      </trkpt>
      <trkpt lat="47.27825" lon="-1.69655">
        <ele>61.6</ele>
        <time>2012-10-28T08:57:29Z</time>
      </trkpt>
      <trkpt lat="47.27825" lon="-1.69655">
        <ele>61.7</ele>
        <time>2012-10-28T08:57:30Z</time>
      </trkpt>
      <trkpt lat="47.27825" lon="-1.69655">
        <ele>61.6</ele>
        <time>2012-10-28T08:57:31Z</time>
      </trkpt>
      <trkpt lat="47.27825" lon="-1.69655">
        <ele>61.6</ele>
        <time>2012-10-28T08:57:32Z</time>
      </trkpt>
      <trkpt lat="47.27825" lon="-1.69655">
        <ele>61.6</ele>
        <time>2012-10-28T08:57:33Z</time>
      </trkpt>
      <trkpt lat="47.27825" lon="-1.69655">
        <ele>61.8</ele>
        <time>2012-10-28T08:57:34Z</time>
      </trkpt>
      <trkpt lat="47.27825" lon="-1.69655">
        <ele>62</ele>
        <time>2012-10-28T08:57:35Z</time>
      </trkpt>
      <trkpt lat="47.27825" lon="-1.69655">
        <ele>62.1</ele>
        <time>2012-10-28T08:57:36Z</time>
      </trkpt>
      <trkpt lat="47.27825" lon="-1.69656">
        <ele>62.1</ele>
        <time>2012-10-28T08:57:37Z</time>
      </trkpt>
      <trkpt lat="47.27824" lon="-1.69656">
        <ele>62</ele>
        <time>2012-10-28T08:57:38Z</time>
      </trkpt>
      <trkpt lat="47.27825" lon="-1.69656">
        <ele>61.9</ele>
        <time>2012-10-28T08:57:39Z</time>
      </trkpt>
      <trkpt lat="47.27826" lon="-1.69656">
        <ele>61.8</ele>
        <time>2012-10-28T08:57:40Z</time>
      </trkpt>
      <trkpt lat="47.27826" lon="-1.69656">
        <ele>61.8</ele>
        <time>2012-10-28T08:57:41Z</time>
      </trkpt>
      <trkpt lat="47.27828" lon="-1.69656">
        <ele>61.8</ele>
        <time>2012-10-28T08:57:42Z</time>
      </trkpt>
      <trkpt lat="47.27833" lon="-1.69658">
        <ele>62</ele>
        <time>2012-10-28T08:57:44Z</time>
      </trkpt>
      <trkpt lat="47.27835" lon="-1.6966">
        <ele>62.1</ele>
        <time>2012-10-28T08:57:45Z</time>
      </trkpt>
      <trkpt lat="47.27837" lon="-1.69662">
        <ele>62.7</ele>
        <time>2012-10-28T08:57:46Z</time>
      </trkpt>
      <trkpt lat="47.2784" lon="-1.69664">
        <ele>63</ele>
        <time>2012-10-28T08:57:47Z</time>
      </trkpt>
      <trkpt lat="47.27842" lon="-1.69668">
        <ele>63.1</ele>
        <time>2012-10-28T08:57:48Z</time>
      </trkpt>
      <trkpt lat="47.27844" lon="-1.69671">
        <ele>63.1</ele>
        <time>2012-10-28T08:57:49Z</time>
      </trkpt>
      <trkpt lat="47.27846" lon="-1.69675">
        <ele>62.9</ele>
        <time>2012-10-28T08:57:50Z</time>
      </trkpt>
      <trkpt lat="47.27849" lon="-1.69678">
        <ele>62.7</ele>
        <time>2012-10-28T08:57:51Z</time>
      </trkpt>
      <trkpt lat="47.27852" lon="-1.6968">
        <ele>62.5</ele>
        <time>2012-10-28T08:57:52Z</time>
      </trkpt>
      <trkpt lat="47.27856" lon="-1.69681">
        <ele>62.3</ele>
        <time>2012-10-28T08:57:53Z</time>
      </trkpt>
      <trkpt lat="47.2786" lon="-1.69681">
        <ele>62.1</ele>
        <time>2012-10-28T08:57:54Z</time>
      </trkpt>
      <trkpt lat="47.2787" lon="-1.69678">
        <ele>62.4</ele>
        <time>2012-10-28T08:57:57Z</time>
      </trkpt>
      <trkpt lat="47.27874" lon="-1.69677">
        <ele>62.6</ele>
        <time>2012-10-28T08:57:58Z</time>
      </trkpt>
      <trkpt lat="47.27922" lon="-1.69658">
        <ele>60.9</ele>
        <time>2012-10-28T08:58:09Z</time>
      </trkpt>
      <trkpt lat="47.27926" lon="-1.69658">
        <ele>60.8</ele>
        <time>2012-10-28T08:58:10Z</time>
      </trkpt>
      <trkpt lat="47.27931" lon="-1.6966">
        <ele>60.7</ele>
        <time>2012-10-28T08:58:11Z</time>
      </trkpt>
      <trkpt lat="47.27934" lon="-1.69664">
        <ele>60.5</ele>
        <time>2012-10-28T08:58:12Z</time>
      </trkpt>
      <trkpt lat="47.27937" lon="-1.69669">
        <ele>60.4</ele>
        <time>2012-10-28T08:58:13Z</time>
      </trkpt>
      <trkpt lat="47.27939" lon="-1.69675">
        <ele>60.4</ele>
        <time>2012-10-28T08:58:14Z</time>
      </trkpt>
      <trkpt lat="47.27952" lon="-1.69707">
        <ele>60.6</ele>
        <time>2012-10-28T08:58:20Z</time>
      </trkpt>
      <trkpt lat="47.27955" lon="-1.6971">
        <ele>60.3</ele>
        <time>2012-10-28T08:58:21Z</time>
      </trkpt>
      <trkpt lat="47.27958" lon="-1.69712">
        <ele>60.1</ele>
        <time>2012-10-28T08:58:22Z</time>
      </trkpt>
      <trkpt lat="47.27962" lon="-1.69712">
        <ele>60</ele>
        <time>2012-10-28T08:58:23Z</time>
      </trkpt>
      <trkpt lat="47.27984" lon="-1.69715">
        <ele>60.9</ele>
        <time>2012-10-28T08:58:28Z</time>
      </trkpt>
      <trkpt lat="47.27988" lon="-1.69717">
        <ele>61</ele>
        <time>2012-10-28T08:58:29Z</time>
      </trkpt>
      <trkpt lat="47.27991" lon="-1.69719">
        <ele>61</ele>
        <time>2012-10-28T08:58:30Z</time>
      </trkpt>
      <trkpt lat="47.27995" lon="-1.69724">
        <ele>61.2</ele>
        <time>2012-10-28T08:58:31Z</time>
      </trkpt>
      <trkpt lat="47.27997" lon="-1.69728">
        <ele>61.3</ele>
        <time>2012-10-28T08:58:32Z</time>
      </trkpt>
      <trkpt lat="47.28008" lon="-1.69754">
        <ele>61.7</ele>
        <time>2012-10-28T08:58:37Z</time>
      </trkpt>
      <trkpt lat="47.28016" lon="-1.69777">
        <ele>61.7</ele>
        <time>2012-10-28T08:58:41Z</time>
      </trkpt>
      <trkpt lat="47.28072" lon="-1.69958">
        <ele>64.9</ele>
        <time>2012-10-28T08:59:15Z</time>
      </trkpt>
      <trkpt lat="47.28073" lon="-1.69963">
        <ele>65.1</ele>
        <time>2012-10-28T08:59:16Z</time>
      </trkpt>
      <trkpt lat="47.28087" lon="-1.70042">
        <ele>66.5</ele>
        <time>2012-10-28T08:59:30Z</time>
      </trkpt>
      <trkpt lat="47.28089" lon="-1.70047">
        <ele>66.7</ele>
        <time>2012-10-28T08:59:31Z</time>
      </trkpt>
      <trkpt lat="47.28092" lon="-1.70051">
        <ele>67</ele>
        <time>2012-10-28T08:59:32Z</time>
      </trkpt>
      <trkpt lat="47.28096" lon="-1.70054">
        <ele>67.2</ele>
        <time>2012-10-28T08:59:33Z</time>
      </trkpt>
      <trkpt lat="47.28099" lon="-1.70057">
        <ele>67.4</ele>
        <time>2012-10-28T08:59:34Z</time>
      </trkpt>
      <trkpt lat="47.2811" lon="-1.70062">
        <ele>67.7</ele>
        <time>2012-10-28T08:59:37Z</time>
      </trkpt>
      <trkpt lat="47.28214" lon="-1.70102">
        <ele>65.3</ele>
        <time>2012-10-28T08:59:59Z</time>
      </trkpt>
      <trkpt lat="47.28219" lon="-1.70102">
        <ele>65</ele>
        <time>2012-10-28T09:00:00Z</time>
      </trkpt>
      <trkpt lat="47.28223" lon="-1.70098">
        <ele>64.9</ele>
        <time>2012-10-28T09:00:01Z</time>
      </trkpt>
      <trkpt lat="47.28226" lon="-1.70093">
        <ele>64.8</ele>
        <time>2012-10-28T09:00:02Z</time>
      </trkpt>
      <trkpt lat="47.28227" lon="-1.70087">
        <ele>64.5</ele>
        <time>2012-10-28T09:00:03Z</time>
      </trkpt>
      <trkpt lat="47.28267" lon="-1.6996">
        <ele>63.8</ele>
        <time>2012-10-28T09:00:23Z</time>
      </trkpt>
      <trkpt lat="47.2827" lon="-1.69953">
        <ele>63.8</ele>
        <time>2012-10-28T09:00:24Z</time>
      </trkpt>
      <trkpt lat="47.28313" lon="-1.69851">
        <ele>61.7</ele>
        <time>2012-10-28T09:00:38Z</time>
      </trkpt>
      <trkpt lat="47.28315" lon="-1.69843">
        <ele>61.5</ele>
        <time>2012-10-28T09:00:39Z</time>
      </trkpt>
      <trkpt lat="47.28317" lon="-1.69834">
        <ele>61.3</ele>
        <time>2012-10-28T09:00:40Z</time>
      </trkpt>
      <trkpt lat="47.28322" lon="-1.69807">
        <ele>60.6</ele>
        <time>2012-10-28T09:00:43Z</time>
      </trkpt>
      <trkpt lat="47.28325" lon="-1.69798">
        <ele>60.3</ele>
        <time>2012-10-28T09:00:44Z</time>
      </trkpt>
      <trkpt lat="47.28381" lon="-1.69647">
        <ele>58.5</ele>
        <time>2012-10-28T09:01:02Z</time>
      </trkpt>
      <trkpt lat="47.28382" lon="-1.69638">
        <ele>58.3</ele>
        <time>2012-10-28T09:01:03Z</time>
      </trkpt>
      <trkpt lat="47.28384" lon="-1.69629">
        <ele>58.1</ele>
        <time>2012-10-28T09:01:04Z</time>
      </trkpt>
      <trkpt lat="47.28385" lon="-1.6962">
        <ele>57.7</ele>
        <time>2012-10-28T09:01:05Z</time>
      </trkpt>
      <trkpt lat="47.28386" lon="-1.69601">
        <ele>57.3</ele>
        <time>2012-10-28T09:01:07Z</time>
      </trkpt>
      <trkpt lat="47.28388" lon="-1.69531">
        <ele>56</ele>
        <time>2012-10-28T09:01:14Z</time>
      </trkpt>
      <trkpt lat="47.28389" lon="-1.69521">
        <ele>56</ele>
        <time>2012-10-28T09:01:15Z</time>
      </trkpt>
      <trkpt lat="47.28399" lon="-1.69457">
        <ele>55.3</ele>
        <time>2012-10-28T09:01:22Z</time>
      </trkpt>
      <trkpt lat="47.28428" lon="-1.69268">
        <ele>53.9</ele>
        <time>2012-10-28T09:01:46Z</time>
      </trkpt>
      <trkpt lat="47.28429" lon="-1.69264">
        <ele>53.8</ele>
        <time>2012-10-28T09:01:47Z</time>
      </trkpt>
      <trkpt lat="47.28432" lon="-1.69261">
        <ele>54.1</ele>
        <time>2012-10-28T09:01:48Z</time>
      </trkpt>
      <trkpt lat="47.28435" lon="-1.69259">
        <ele>54.3</ele>
        <time>2012-10-28T09:01:49Z</time>
      </trkpt>
      <trkpt lat="47.28438" lon="-1.69259">
        <ele>55</ele>
        <time>2012-10-28T09:01:50Z</time>
      </trkpt>
      <trkpt lat="47.28441" lon="-1.69259">
        <ele>55.5</ele>
        <time>2012-10-28T09:01:51Z</time>
      </trkpt>
      <trkpt lat="47.28453" lon="-1.6926">
        <ele>55.1</ele>
        <time>2012-10-28T09:01:54Z</time>
      </trkpt>
      <trkpt lat="47.28465" lon="-1.69262">
        <ele>55.3</ele>
        <time>2012-10-28T09:01:57Z</time>
      </trkpt>
      <trkpt lat="47.28493" lon="-1.69267">
        <ele>57.4</ele>
        <time>2012-10-28T09:02:05Z</time>
      </trkpt>
      <trkpt lat="47.28523" lon="-1.69272">
        <ele>59.1</ele>
        <time>2012-10-28T09:02:14Z</time>
      </trkpt>
      <trkpt lat="47.28558" lon="-1.69276">
        <ele>60.3</ele>
        <time>2012-10-28T09:02:24Z</time>
      </trkpt>
      <trkpt lat="47.28561" lon="-1.69276">
        <ele>60.4</ele>
        <time>2012-10-28T09:02:25Z</time>
      </trkpt>
      <trkpt lat="47.28579" lon="-1.69272">
        <ele>60.5</ele>
        <time>2012-10-28T09:02:30Z</time>
      </trkpt>
      <trkpt lat="47.28583" lon="-1.69271">
        <ele>60.6</ele>
        <time>2012-10-28T09:02:31Z</time>
      </trkpt>
      <trkpt lat="47.28601" lon="-1.69265">
        <ele>60.9</ele>
        <time>2012-10-28T09:02:36Z</time>
      </trkpt>
      <trkpt lat="47.28605" lon="-1.69263">
        <ele>60.9</ele>
        <time>2012-10-28T09:02:37Z</time>
      </trkpt>
      <trkpt lat="47.28609" lon="-1.69261">
        <ele>60.6</ele>
        <time>2012-10-28T09:02:38Z</time>
      </trkpt>
      <trkpt lat="47.28613" lon="-1.6926">
        <ele>60.3</ele>
        <time>2012-10-28T09:02:39Z</time>
      </trkpt>
      <trkpt lat="47.28618" lon="-1.69258">
        <ele>60.3</ele>
        <time>2012-10-28T09:02:40Z</time>
      </trkpt>
      <trkpt lat="47.28631" lon="-1.69252">
        <ele>59.9</ele>
        <time>2012-10-28T09:02:43Z</time>
      </trkpt>
      <trkpt lat="47.28635" lon="-1.6925">
        <ele>59.7</ele>
        <time>2012-10-28T09:02:44Z</time>
      </trkpt>
      <trkpt lat="47.28639" lon="-1.69245">
        <ele>59.5</ele>
        <time>2012-10-28T09:02:45Z</time>
      </trkpt>
      <trkpt lat="47.28641" lon="-1.6924">
        <ele>59.3</ele>
        <time>2012-10-28T09:02:46Z</time>
      </trkpt>
      <trkpt lat="47.28642" lon="-1.69233">
        <ele>59</ele>
        <time>2012-10-28T09:02:47Z</time>
      </trkpt>
      <trkpt lat="47.28643" lon="-1.69227">
        <ele>58.7</ele>
        <time>2012-10-28T09:02:48Z</time>
      </trkpt>
      <trkpt lat="47.28646" lon="-1.69222">
        <ele>58.2</ele>
        <time>2012-10-28T09:02:49Z</time>
      </trkpt>
      <trkpt lat="47.2865" lon="-1.69218">
        <ele>57.9</ele>
        <time>2012-10-28T09:02:50Z</time>
      </trkpt>
      <trkpt lat="47.28655" lon="-1.69216">
        <ele>57.6</ele>
        <time>2012-10-28T09:02:51Z</time>
      </trkpt>
      <trkpt lat="47.28676" lon="-1.69205">
        <ele>56.2</ele>
        <time>2012-10-28T09:02:56Z</time>
      </trkpt>
      <trkpt lat="47.28711" lon="-1.69183">
        <ele>54.3</ele>
        <time>2012-10-28T09:03:04Z</time>
      </trkpt>
      <trkpt lat="47.28716" lon="-1.69182">
        <ele>54</ele>
        <time>2012-10-28T09:03:05Z</time>
      </trkpt>
      <trkpt lat="47.28726" lon="-1.69182">
        <ele>53.6</ele>
        <time>2012-10-28T09:03:07Z</time>
      </trkpt>
      <trkpt lat="47.2873" lon="-1.6918">
        <ele>53.1</ele>
        <time>2012-10-28T09:03:08Z</time>
      </trkpt>
      <trkpt lat="47.28733" lon="-1.69178">
        <ele>52.7</ele>
        <time>2012-10-28T09:03:09Z</time>
      </trkpt>
      <trkpt lat="47.28735" lon="-1.69174">
        <ele>52.4</ele>
        <time>2012-10-28T09:03:10Z</time>
      </trkpt>
      <trkpt lat="47.28749" lon="-1.69151">
        <ele>51.5</ele>
        <time>2012-10-28T09:03:15Z</time>
      </trkpt>
      <trkpt lat="47.28752" lon="-1.69148">
        <ele>51.3</ele>
        <time>2012-10-28T09:03:16Z</time>
      </trkpt>
      <trkpt lat="47.28755" lon="-1.69144">
        <ele>51.2</ele>
        <time>2012-10-28T09:03:17Z</time>
      </trkpt>
      <trkpt lat="47.2877" lon="-1.69124">
        <ele>50.6</ele>
        <time>2012-10-28T09:03:22Z</time>
      </trkpt>
      <trkpt lat="47.28773" lon="-1.69118">
        <ele>50.4</ele>
        <time>2012-10-28T09:03:23Z</time>
      </trkpt>
      <trkpt lat="47.28779" lon="-1.69107">
        <ele>50.3</ele>
        <time>2012-10-28T09:03:25Z</time>
      </trkpt>
      <trkpt lat="47.28783" lon="-1.69101">
        <ele>50.3</ele>
        <time>2012-10-28T09:03:26Z</time>
      </trkpt>
      <trkpt lat="47.28796" lon="-1.69084">
        <ele>49.2</ele>
        <time>2012-10-28T09:03:29Z</time>
      </trkpt>
      <trkpt lat="47.28799" lon="-1.69078">
        <ele>48.6</ele>
        <time>2012-10-28T09:03:30Z</time>
      </trkpt>
      <trkpt lat="47.2881" lon="-1.69055">
        <ele>47.8</ele>
        <time>2012-10-28T09:03:33Z</time>
      </trkpt>
      <trkpt lat="47.28815" lon="-1.69048">
        <ele>47.4</ele>
        <time>2012-10-28T09:03:34Z</time>
      </trkpt>
      <trkpt lat="47.28821" lon="-1.69043">
        <ele>47.1</ele>
        <time>2012-10-28T09:03:35Z</time>
      </trkpt>
      <trkpt lat="47.28832" lon="-1.69034">
        <ele>46.5</ele>
        <time>2012-10-28T09:03:37Z</time>
      </trkpt>
      <trkpt lat="47.28837" lon="-1.69032">
        <ele>46.3</ele>
        <time>2012-10-28T09:03:38Z</time>
      </trkpt>
      <trkpt lat="47.28846" lon="-1.69028">
        <ele>45.8</ele>
        <time>2012-10-28T09:03:40Z</time>
      </trkpt>
      <trkpt lat="47.2885" lon="-1.69029">
        <ele>45.6</ele>
        <time>2012-10-28T09:03:41Z</time>
      </trkpt>
      <trkpt lat="47.28853" lon="-1.69033">
        <ele>44.6</ele>
        <time>2012-10-28T09:03:42Z</time>
      </trkpt>
      <trkpt lat="47.2886" lon="-1.69039">
        <ele>43.7</ele>
        <time>2012-10-28T09:03:44Z</time>
      </trkpt>
      <trkpt lat="47.28864" lon="-1.69042">
        <ele>43.7</ele>
        <time>2012-10-28T09:03:45Z</time>
      </trkpt>
      <trkpt lat="47.28867" lon="-1.69043">
        <ele>43.3</ele>
        <time>2012-10-28T09:03:46Z</time>
      </trkpt>
      <trkpt lat="47.28871" lon="-1.69042">
        <ele>43.1</ele>
        <time>2012-10-28T09:03:47Z</time>
      </trkpt>
      <trkpt lat="47.28884" lon="-1.69039">
        <ele>42.3</ele>
        <time>2012-10-28T09:03:51Z</time>
      </trkpt>
      <trkpt lat="47.28888" lon="-1.69038">
        <ele>42.1</ele>
        <time>2012-10-28T09:03:52Z</time>
      </trkpt>
      <trkpt lat="47.28895" lon="-1.69034">
        <ele>42.5</ele>
        <time>2012-10-28T09:03:54Z</time>
      </trkpt>
      <trkpt lat="47.28898" lon="-1.69032">
        <ele>42.6</ele>
        <time>2012-10-28T09:03:55Z</time>
      </trkpt>
      <trkpt lat="47.28901" lon="-1.69029">
        <ele>42.4</ele>
        <time>2012-10-28T09:03:56Z</time>
      </trkpt>
      <trkpt lat="47.28904" lon="-1.69026">
        <ele>42.2</ele>
        <time>2012-10-28T09:03:57Z</time>
      </trkpt>
      <trkpt lat="47.28906" lon="-1.69022">
        <ele>42.2</ele>
        <time>2012-10-28T09:03:58Z</time>
      </trkpt>
      <trkpt lat="47.28917" lon="-1.69003">
        <ele>42.7</ele>
        <time>2012-10-28T09:04:03Z</time>
      </trkpt>
      <trkpt lat="47.28919" lon="-1.69001">
        <ele>42.8</ele>
        <time>2012-10-28T09:04:04Z</time>
      </trkpt>
      <trkpt lat="47.28921" lon="-1.68999">
        <ele>43.1</ele>
        <time>2012-10-28T09:04:05Z</time>
      </trkpt>
      <trkpt lat="47.28924" lon="-1.68998">
        <ele>43.4</ele>
        <time>2012-10-28T09:04:06Z</time>
      </trkpt>
      <trkpt lat="47.28926" lon="-1.68997">
        <ele>43.6</ele>
        <time>2012-10-28T09:04:07Z</time>
      </trkpt>
      <trkpt lat="47.28928" lon="-1.68997">
        <ele>43.6</ele>
        <time>2012-10-28T09:04:08Z</time>
      </trkpt>
      <trkpt lat="47.2893" lon="-1.68998">
        <ele>43.7</ele>
        <time>2012-10-28T09:04:09Z</time>
      </trkpt>
      <trkpt lat="47.2894" lon="-1.69003">
        <ele>45.1</ele>
        <time>2012-10-28T09:04:13Z</time>
      </trkpt>
      <trkpt lat="47.28946" lon="-1.69005">
        <ele>45.4</ele>
        <time>2012-10-28T09:04:15Z</time>
      </trkpt>
      <trkpt lat="47.28956" lon="-1.69007">
        <ele>46</ele>
        <time>2012-10-28T09:04:19Z</time>
      </trkpt>
      <trkpt lat="47.28965" lon="-1.69008">
        <ele>46.9</ele>
        <time>2012-10-28T09:04:23Z</time>
      </trkpt>
      <trkpt lat="47.28967" lon="-1.69008">
        <ele>47.3</ele>
        <time>2012-10-28T09:04:24Z</time>
      </trkpt>
      <trkpt lat="47.28978" lon="-1.69006">
        <ele>47.9</ele>
        <time>2012-10-28T09:04:28Z</time>
      </trkpt>
      <trkpt lat="47.28983" lon="-1.69005">
        <ele>47.9</ele>
        <time>2012-10-28T09:04:30Z</time>
      </trkpt>
      <trkpt lat="47.28995" lon="-1.69003">
        <ele>48.7</ele>
        <time>2012-10-28T09:04:36Z</time>
      </trkpt>
      <trkpt lat="47.29021" lon="-1.68999">
        <ele>50.4</ele>
        <time>2012-10-28T09:04:46Z</time>
      </trkpt>
      <trkpt lat="47.29054" lon="-1.68995">
        <ele>52.3</ele>
        <time>2012-10-28T09:04:58Z</time>
      </trkpt>
      <trkpt lat="47.29057" lon="-1.68995">
        <ele>52.4</ele>
        <time>2012-10-28T09:04:59Z</time>
      </trkpt>
      <trkpt lat="47.29062" lon="-1.68996">
        <ele>52.3</ele>
        <time>2012-10-28T09:05:01Z</time>
      </trkpt>
      <trkpt lat="47.29064" lon="-1.68995">
        <ele>52.3</ele>
        <time>2012-10-28T09:05:02Z</time>
      </trkpt>
      <trkpt lat="47.29069" lon="-1.68995">
        <ele>52.3</ele>
        <time>2012-10-28T09:05:04Z</time>
      </trkpt>
      <trkpt lat="47.29072" lon="-1.68996">
        <ele>52.4</ele>
        <time>2012-10-28T09:05:05Z</time>
      </trkpt>
      <trkpt lat="47.29076" lon="-1.68997">
        <ele>52.4</ele>
        <time>2012-10-28T09:05:07Z</time>
      </trkpt>
      <trkpt lat="47.29096" lon="-1.69">
        <ele>52.5</ele>
        <time>2012-10-28T09:05:14Z</time>
      </trkpt>
      <trkpt lat="47.29104" lon="-1.69004">
        <ele>53</ele>
        <time>2012-10-28T09:05:17Z</time>
      </trkpt>
      <trkpt lat="47.29123" lon="-1.69011">
        <ele>52.9</ele>
        <time>2012-10-28T09:05:23Z</time>
      </trkpt>
      <trkpt lat="47.29136" lon="-1.69016">
        <ele>53.6</ele>
        <time>2012-10-28T09:05:28Z</time>
      </trkpt>
      <trkpt lat="47.29139" lon="-1.69017">
        <ele>53.5</ele>
        <time>2012-10-28T09:05:29Z</time>
      </trkpt>
      <trkpt lat="47.29142" lon="-1.69017">
        <ele>53.5</ele>
        <time>2012-10-28T09:05:30Z</time>
      </trkpt>
      <trkpt lat="47.29144" lon="-1.69017">
        <ele>53.8</ele>
        <time>2012-10-28T09:05:31Z</time>
      </trkpt>
      <trkpt lat="47.29147" lon="-1.69017">
        <ele>54</ele>
        <time>2012-10-28T09:05:32Z</time>
      </trkpt>
      <trkpt lat="47.2915" lon="-1.69017">
        <ele>54.4</ele>
        <time>2012-10-28T09:05:33Z</time>
      </trkpt>
      <trkpt lat="47.29153" lon="-1.69017">
        <ele>54.6</ele>
        <time>2012-10-28T09:05:34Z</time>
      </trkpt>
      <trkpt lat="47.29181" lon="-1.69012">
        <ele>55.2</ele>
        <time>2012-10-28T09:05:43Z</time>
      </trkpt>
      <trkpt lat="47.29184" lon="-1.69011">
        <ele>55.5</ele>
        <time>2012-10-28T09:05:44Z</time>
      </trkpt>
      <trkpt lat="47.29219" lon="-1.69001">
        <ele>57</ele>
        <time>2012-10-28T09:05:57Z</time>
      </trkpt>
      <trkpt lat="47.2923" lon="-1.68998">
        <ele>57.6</ele>
        <time>2012-10-28T09:06:01Z</time>
      </trkpt>
      <trkpt lat="47.29233" lon="-1.68996">
        <ele>57.8</ele>
        <time>2012-10-28T09:06:02Z</time>
      </trkpt>
      <trkpt lat="47.29247" lon="-1.68987">
        <ele>58.9</ele>
        <time>2012-10-28T09:06:07Z</time>
      </trkpt>
      <trkpt lat="47.29266" lon="-1.68972">
        <ele>59.3</ele>
        <time>2012-10-28T09:06:14Z</time>
      </trkpt>
      <trkpt lat="47.29319" lon="-1.68924">
        <ele>60.8</ele>
        <time>2012-10-28T09:06:33Z</time>
      </trkpt>
      <trkpt lat="47.29335" lon="-1.68908">
        <ele>62</ele>
        <time>2012-10-28T09:06:40Z</time>
      </trkpt>
      <trkpt lat="47.29369" lon="-1.68874">
        <ele>62.4</ele>
        <time>2012-10-28T09:06:54Z</time>
      </trkpt>
      <trkpt lat="47.29378" lon="-1.68867">
        <ele>62.5</ele>
        <time>2012-10-28T09:06:57Z</time>
      </trkpt>
      <trkpt lat="47.29384" lon="-1.68861">
        <ele>63.3</ele>
        <time>2012-10-28T09:06:59Z</time>
      </trkpt>
      <trkpt lat="47.29389" lon="-1.68854">
        <ele>63.2</ele>
        <time>2012-10-28T09:07:01Z</time>
      </trkpt>
      <trkpt lat="47.29426" lon="-1.68819">
        <ele>63.4</ele>
        <time>2012-10-28T09:07:12Z</time>
      </trkpt>
      <trkpt lat="47.29429" lon="-1.68816">
        <ele>63.6</ele>
        <time>2012-10-28T09:07:13Z</time>
      </trkpt>
      <trkpt lat="47.2954" lon="-1.68709">
        <ele>63.3</ele>
        <time>2012-10-28T09:07:43Z</time>
      </trkpt>
      <trkpt lat="47.29544" lon="-1.68708">
        <ele>63.4</ele>
        <time>2012-10-28T09:07:44Z</time>
      </trkpt>
      <trkpt lat="47.29548" lon="-1.6871">
        <ele>63.5</ele>
        <time>2012-10-28T09:07:45Z</time>
      </trkpt>
      <trkpt lat="47.29553" lon="-1.68712">
        <ele>63.8</ele>
        <time>2012-10-28T09:07:46Z</time>
      </trkpt>
      <trkpt lat="47.2956" lon="-1.68717">
        <ele>64.1</ele>
        <time>2012-10-28T09:07:48Z</time>
      </trkpt>
      <trkpt lat="47.29608" lon="-1.68757">
        <ele>65.7</ele>
        <time>2012-10-28T09:08:00Z</time>
      </trkpt>
      <trkpt lat="47.29648" lon="-1.68794">
        <ele>63.9</ele>
        <time>2012-10-28T09:08:08Z</time>
      </trkpt>
      <trkpt lat="47.29654" lon="-1.68797">
        <ele>63.8</ele>
        <time>2012-10-28T09:08:09Z</time>
      </trkpt>
      <trkpt lat="47.2966" lon="-1.688">
        <ele>63.4</ele>
        <time>2012-10-28T09:08:10Z</time>
      </trkpt>
      <trkpt lat="47.29666" lon="-1.68801">
        <ele>63.2</ele>
        <time>2012-10-28T09:08:11Z</time>
      </trkpt>
      <trkpt lat="47.29671" lon="-1.68801">
        <ele>62.9</ele>
        <time>2012-10-28T09:08:12Z</time>
      </trkpt>
      <trkpt lat="47.29677" lon="-1.68798">
        <ele>62.7</ele>
        <time>2012-10-28T09:08:13Z</time>
      </trkpt>
      <trkpt lat="47.29682" lon="-1.68795">
        <ele>62.5</ele>
        <time>2012-10-28T09:08:14Z</time>
      </trkpt>
      <trkpt lat="47.29687" lon="-1.68792">
        <ele>62.3</ele>
        <time>2012-10-28T09:08:15Z</time>
      </trkpt>
      <trkpt lat="47.29746" lon="-1.68748">
        <ele>62.9</ele>
        <time>2012-10-28T09:08:29Z</time>
      </trkpt>
      <trkpt lat="47.29749" lon="-1.68745">
        <ele>63</ele>
        <time>2012-10-28T09:08:30Z</time>
      </trkpt>
      <trkpt lat="47.29778" lon="-1.68717">
        <ele>63.9</ele>
        <time>2012-10-28T09:08:40Z</time>
      </trkpt>
      <trkpt lat="47.29787" lon="-1.68709">
        <ele>63.6</ele>
        <time>2012-10-28T09:08:43Z</time>
      </trkpt>
      <trkpt lat="47.2979" lon="-1.68708">
        <ele>63.5</ele>
        <time>2012-10-28T09:08:44Z</time>
      </trkpt>
      <trkpt lat="47.29796" lon="-1.68704">
        <ele>62.6</ele>
        <time>2012-10-28T09:08:46Z</time>
      </trkpt>
      <trkpt lat="47.29803" lon="-1.68702">
        <ele>62.1</ele>
        <time>2012-10-28T09:08:48Z</time>
      </trkpt>
      <trkpt lat="47.29807" lon="-1.68699">
        <ele>61.9</ele>
        <time>2012-10-28T09:08:49Z</time>
      </trkpt>
      <trkpt lat="47.29815" lon="-1.68693">
        <ele>61.4</ele>
        <time>2012-10-28T09:08:51Z</time>
      </trkpt>
      <trkpt lat="47.29819" lon="-1.68692">
        <ele>61.4</ele>
        <time>2012-10-28T09:08:52Z</time>
      </trkpt>
      <trkpt lat="47.29823" lon="-1.68691">
        <ele>61.4</ele>
        <time>2012-10-28T09:08:53Z</time>
      </trkpt>
      <trkpt lat="47.29825" lon="-1.6869">
        <ele>61.4</ele>
        <time>2012-10-28T09:08:54Z</time>
      </trkpt>
      <trkpt lat="47.29836" lon="-1.68682">
        <ele>60.5</ele>
        <time>2012-10-28T09:08:59Z</time>
      </trkpt>
      <trkpt lat="47.29839" lon="-1.68679">
        <ele>60.3</ele>
        <time>2012-10-28T09:09:00Z</time>
      </trkpt>
      <trkpt lat="47.29847" lon="-1.68668">
        <ele>60.2</ele>
        <time>2012-10-28T09:09:03Z</time>
      </trkpt>
      <trkpt lat="47.2985" lon="-1.68665">
        <ele>60</ele>
        <time>2012-10-28T09:09:04Z</time>
      </trkpt>
      <trkpt lat="47.29862" lon="-1.68642">
        <ele>59.3</ele>
        <time>2012-10-28T09:09:09Z</time>
      </trkpt>
      <trkpt lat="47.29891" lon="-1.68594">
        <ele>60.3</ele>
        <time>2012-10-28T09:09:19Z</time>
      </trkpt>
      <trkpt lat="47.29895" lon="-1.68591">
        <ele>60.4</ele>
        <time>2012-10-28T09:09:20Z</time>
      </trkpt>
      <trkpt lat="47.29899" lon="-1.6859">
        <ele>60.2</ele>
        <time>2012-10-28T09:09:21Z</time>
      </trkpt>
      <trkpt lat="47.29903" lon="-1.6859">
        <ele>60.1</ele>
        <time>2012-10-28T09:09:22Z</time>
      </trkpt>
      <trkpt lat="47.29907" lon="-1.68593">
        <ele>59.9</ele>
        <time>2012-10-28T09:09:23Z</time>
      </trkpt>
      <trkpt lat="47.2991" lon="-1.68595">
        <ele>59.8</ele>
        <time>2012-10-28T09:09:24Z</time>
      </trkpt>
      <trkpt lat="47.29914" lon="-1.68598">
        <ele>59.7</ele>
        <time>2012-10-28T09:09:25Z</time>
      </trkpt>
      <trkpt lat="47.29917" lon="-1.686">
        <ele>59.8</ele>
        <time>2012-10-28T09:09:26Z</time>
      </trkpt>
      <trkpt lat="47.29948" lon="-1.68615">
        <ele>60.3</ele>
        <time>2012-10-28T09:09:34Z</time>
      </trkpt>
      <trkpt lat="47.29951" lon="-1.68616">
        <ele>60.6</ele>
        <time>2012-10-28T09:09:35Z</time>
      </trkpt>
      <trkpt lat="47.29958" lon="-1.68617">
        <ele>60.9</ele>
        <time>2012-10-28T09:09:37Z</time>
      </trkpt>
      <trkpt lat="47.29962" lon="-1.68617">
        <ele>60.8</ele>
        <time>2012-10-28T09:09:38Z</time>
      </trkpt>
      <trkpt lat="47.29965" lon="-1.68617">
        <ele>60.8</ele>
        <time>2012-10-28T09:09:39Z</time>
      </trkpt>
      <trkpt lat="47.29969" lon="-1.68617">
        <ele>60.8</ele>
        <time>2012-10-28T09:09:40Z</time>
      </trkpt>
      <trkpt lat="47.29985" lon="-1.68619">
        <ele>61.6</ele>
        <time>2012-10-28T09:09:45Z</time>
      </trkpt>
      <trkpt lat="47.29987" lon="-1.6862">
        <ele>61.7</ele>
        <time>2012-10-28T09:09:46Z</time>
      </trkpt>
      <trkpt lat="47.30009" lon="-1.68628">
        <ele>62.1</ele>
        <time>2012-10-28T09:09:54Z</time>
      </trkpt>
      <trkpt lat="47.30011" lon="-1.68627">
        <ele>62.1</ele>
        <time>2012-10-28T09:09:55Z</time>
      </trkpt>
      <trkpt lat="47.30012" lon="-1.68625">
        <ele>62.1</ele>
        <time>2012-10-28T09:09:56Z</time>
      </trkpt>
      <trkpt lat="47.30013" lon="-1.68623">
        <ele>62.1</ele>
        <time>2012-10-28T09:09:57Z</time>
      </trkpt>
      <trkpt lat="47.30013" lon="-1.6862">
        <ele>62.2</ele>
        <time>2012-10-28T09:09:58Z</time>
      </trkpt>
      <trkpt lat="47.30012" lon="-1.68616">
        <ele>62.5</ele>
        <time>2012-10-28T09:09:59Z</time>
      </trkpt>
      <trkpt lat="47.3001" lon="-1.68612">
        <ele>62.7</ele>
        <time>2012-10-28T09:10:00Z</time>
      </trkpt>
      <trkpt lat="47.30005" lon="-1.68603">
        <ele>62.7</ele>
        <time>2012-10-28T09:10:02Z</time>
      </trkpt>
      <trkpt lat="47.29987" lon="-1.68562">
        <ele>62.5</ele>
        <time>2012-10-28T09:10:10Z</time>
      </trkpt>
      <trkpt lat="47.29985" lon="-1.68556">
        <ele>62.4</ele>
        <time>2012-10-28T09:10:11Z</time>
      </trkpt>
      <trkpt lat="47.29985" lon="-1.68551">
        <ele>62.2</ele>
        <time>2012-10-28T09:10:12Z</time>
      </trkpt>
      <trkpt lat="47.29987" lon="-1.68547">
        <ele>62.1</ele>
        <time>2012-10-28T09:10:13Z</time>
      </trkpt>
      <trkpt lat="47.2999" lon="-1.68544">
        <ele>62</ele>
        <time>2012-10-28T09:10:14Z</time>
      </trkpt>
      <trkpt lat="47.29994" lon="-1.68542">
        <ele>61.9</ele>
        <time>2012-10-28T09:10:15Z</time>
      </trkpt>
      <trkpt lat="47.29998" lon="-1.6854">
        <ele>61.8</ele>
        <time>2012-10-28T09:10:16Z</time>
      </trkpt>
      <trkpt lat="47.30034" lon="-1.68522">
        <ele>63.6</ele>
        <time>2012-10-28T09:10:26Z</time>
      </trkpt>
      <trkpt lat="47.30036" lon="-1.6852">
        <ele>63.8</ele>
        <time>2012-10-28T09:10:27Z</time>
      </trkpt>
      <trkpt lat="47.30045" lon="-1.68514">
        <ele>64.3</ele>
        <time>2012-10-28T09:10:30Z</time>
      </trkpt>
      <trkpt lat="47.30054" lon="-1.68507">
        <ele>64.7</ele>
        <time>2012-10-28T09:10:33Z</time>
      </trkpt>
      <trkpt lat="47.30107" lon="-1.68468">
        <ele>66.6</ele>
        <time>2012-10-28T09:10:51Z</time>
      </trkpt>
      <trkpt lat="47.3011" lon="-1.68466">
        <ele>66.4</ele>
        <time>2012-10-28T09:10:52Z</time>
      </trkpt>
      <trkpt lat="47.30126" lon="-1.68445">
        <ele>66.6</ele>
        <time>2012-10-28T09:10:58Z</time>
      </trkpt>
      <trkpt lat="47.30136" lon="-1.6843">
        <ele>67.4</ele>
        <time>2012-10-28T09:11:02Z</time>
      </trkpt>
      <trkpt lat="47.30148" lon="-1.68412">
        <ele>67.6</ele>
        <time>2012-10-28T09:11:07Z</time>
      </trkpt>
      <trkpt lat="47.30151" lon="-1.68409">
        <ele>67.8</ele>
        <time>2012-10-28T09:11:08Z</time>
      </trkpt>
      <trkpt lat="47.30154" lon="-1.68407">
        <ele>67.9</ele>
        <time>2012-10-28T09:11:09Z</time>
      </trkpt>
      <trkpt lat="47.30157" lon="-1.68405">
        <ele>68.1</ele>
        <time>2012-10-28T09:11:10Z</time>
      </trkpt>
      <trkpt lat="47.3016" lon="-1.68405">
        <ele>68.3</ele>
        <time>2012-10-28T09:11:11Z</time>
      </trkpt>
      <trkpt lat="47.30163" lon="-1.68405">
        <ele>68.5</ele>
        <time>2012-10-28T09:11:12Z</time>
      </trkpt>
      <trkpt lat="47.30176" lon="-1.6841">
        <ele>68.7</ele>
        <time>2012-10-28T09:11:16Z</time>
      </trkpt>
      <trkpt lat="47.30185" lon="-1.68414">
        <ele>68.9</ele>
        <time>2012-10-28T09:11:19Z</time>
      </trkpt>
      <trkpt lat="47.30233" lon="-1.68439">
        <ele>70.1</ele>
        <time>2012-10-28T09:11:34Z</time>
      </trkpt>
      <trkpt lat="47.30236" lon="-1.68441">
        <ele>69.7</ele>
        <time>2012-10-28T09:11:35Z</time>
      </trkpt>
      <trkpt lat="47.30242" lon="-1.68447">
        <ele>70.1</ele>
        <time>2012-10-28T09:11:37Z</time>
      </trkpt>
      <trkpt lat="47.30247" lon="-1.68452">
        <ele>70.5</ele>
        <time>2012-10-28T09:11:39Z</time>
      </trkpt>
      <trkpt lat="47.30326" lon="-1.68558">
        <ele>72.9</ele>
        <time>2012-10-28T09:12:09Z</time>
      </trkpt>
      <trkpt lat="47.30328" lon="-1.68562">
        <ele>73</ele>
        <time>2012-10-28T09:12:10Z</time>
      </trkpt>
      <trkpt lat="47.30331" lon="-1.68567">
        <ele>73</ele>
        <time>2012-10-28T09:12:11Z</time>
      </trkpt>
      <trkpt lat="47.30333" lon="-1.68572">
        <ele>73.4</ele>
        <time>2012-10-28T09:12:12Z</time>
      </trkpt>
      <trkpt lat="47.30337" lon="-1.68582">
        <ele>73.6</ele>
        <time>2012-10-28T09:12:14Z</time>
      </trkpt>
      <trkpt lat="47.30338" lon="-1.68588">
        <ele>73.5</ele>
        <time>2012-10-28T09:12:15Z</time>
      </trkpt>
      <trkpt lat="47.30344" lon="-1.68616">
        <ele>73.6</ele>
        <time>2012-10-28T09:12:20Z</time>
      </trkpt>
      <trkpt lat="47.30347" lon="-1.68638">
        <ele>73</ele>
        <time>2012-10-28T09:12:24Z</time>
      </trkpt>
      <trkpt lat="47.30367" lon="-1.68839">
        <ele>71.4</ele>
        <time>2012-10-28T09:12:51Z</time>
      </trkpt>
      <trkpt lat="47.3037" lon="-1.68847">
        <ele>71.2</ele>
        <time>2012-10-28T09:12:52Z</time>
      </trkpt>
      <trkpt lat="47.30403" lon="-1.68943">
        <ele>70</ele>
        <time>2012-10-28T09:13:06Z</time>
      </trkpt>
      <trkpt lat="47.30406" lon="-1.68945">
        <ele>70.1</ele>
        <time>2012-10-28T09:13:07Z</time>
      </trkpt>
      <trkpt lat="47.30409" lon="-1.68944">
        <ele>70.1</ele>
        <time>2012-10-28T09:13:08Z</time>
      </trkpt>
      <trkpt lat="47.30411" lon="-1.68941">
        <ele>70.1</ele>
        <time>2012-10-28T09:13:09Z</time>
      </trkpt>
      <trkpt lat="47.30432" lon="-1.68916">
        <ele>70</ele>
        <time>2012-10-28T09:13:16Z</time>
      </trkpt>
      <trkpt lat="47.30435" lon="-1.68912">
        <ele>70.2</ele>
        <time>2012-10-28T09:13:17Z</time>
      </trkpt>
      <trkpt lat="47.30443" lon="-1.68899">
        <ele>70.1</ele>
        <time>2012-10-28T09:13:20Z</time>
      </trkpt>
      <trkpt lat="47.30447" lon="-1.68889">
        <ele>70.5</ele>
        <time>2012-10-28T09:13:22Z</time>
      </trkpt>
      <trkpt lat="47.30465" lon="-1.68854">
        <ele>70.4</ele>
        <time>2012-10-28T09:13:29Z</time>
      </trkpt>
      <trkpt lat="47.30469" lon="-1.68849">
        <ele>70.2</ele>
        <time>2012-10-28T09:13:30Z</time>
      </trkpt>
      <trkpt lat="47.30491" lon="-1.68825">
        <ele>70.4</ele>
        <time>2012-10-28T09:13:36Z</time>
      </trkpt>
      <trkpt lat="47.30499" lon="-1.68817">
        <ele>70.2</ele>
        <time>2012-10-28T09:13:38Z</time>
      </trkpt>
      <trkpt lat="47.30503" lon="-1.68814">
        <ele>70.1</ele>
        <time>2012-10-28T09:13:39Z</time>
      </trkpt>
      <trkpt lat="47.30512" lon="-1.68809">
        <ele>69.8</ele>
        <time>2012-10-28T09:13:41Z</time>
      </trkpt>
      <trkpt lat="47.30523" lon="-1.68801">
        <ele>69.3</ele>
        <time>2012-10-28T09:13:44Z</time>
      </trkpt>
      <trkpt lat="47.30645" lon="-1.68715">
        <ele>71.6</ele>
        <time>2012-10-28T09:14:19Z</time>
      </trkpt>
      <trkpt lat="47.30648" lon="-1.68711">
        <ele>71.9</ele>
        <time>2012-10-28T09:14:20Z</time>
      </trkpt>
      <trkpt lat="47.30683" lon="-1.68677">
        <ele>72.8</ele>
        <time>2012-10-28T09:14:31Z</time>
      </trkpt>
      <trkpt lat="47.30686" lon="-1.68676">
        <ele>72.7</ele>
        <time>2012-10-28T09:14:32Z</time>
      </trkpt>
      <trkpt lat="47.30689" lon="-1.68676">
        <ele>72.6</ele>
        <time>2012-10-28T09:14:33Z</time>
      </trkpt>
      <trkpt lat="47.30692" lon="-1.68677">
        <ele>72.6</ele>
        <time>2012-10-28T09:14:34Z</time>
      </trkpt>
      <trkpt lat="47.30694" lon="-1.6868">
        <ele>72.5</ele>
        <time>2012-10-28T09:14:35Z</time>
      </trkpt>
      <trkpt lat="47.30696" lon="-1.68684">
        <ele>72.5</ele>
        <time>2012-10-28T09:14:36Z</time>
      </trkpt>
      <trkpt lat="47.30698" lon="-1.68688">
        <ele>72.8</ele>
        <time>2012-10-28T09:14:37Z</time>
      </trkpt>
      <trkpt lat="47.307" lon="-1.68693">
        <ele>73</ele>
        <time>2012-10-28T09:14:38Z</time>
      </trkpt>
      <trkpt lat="47.30725" lon="-1.6877">
        <ele>70.7</ele>
        <time>2012-10-28T09:14:51Z</time>
      </trkpt>
      <trkpt lat="47.30803" lon="-1.69004">
        <ele>70.1</ele>
        <time>2012-10-28T09:15:23Z</time>
      </trkpt>
      <trkpt lat="47.30806" lon="-1.6901">
        <ele>70.6</ele>
        <time>2012-10-28T09:15:24Z</time>
      </trkpt>
      <trkpt lat="47.30812" lon="-1.69021">
        <ele>71.2</ele>
        <time>2012-10-28T09:15:26Z</time>
      </trkpt>
      <trkpt lat="47.30816" lon="-1.69025">
        <ele>71.3</ele>
        <time>2012-10-28T09:15:27Z</time>
      </trkpt>
      <trkpt lat="47.30819" lon="-1.69029">
        <ele>71.4</ele>
        <time>2012-10-28T09:15:28Z</time>
      </trkpt>
      <trkpt lat="47.30821" lon="-1.69033">
        <ele>71.5</ele>
        <time>2012-10-28T09:15:29Z</time>
      </trkpt>
      <trkpt lat="47.30822" lon="-1.69038">
        <ele>71.5</ele>
        <time>2012-10-28T09:15:30Z</time>
      </trkpt>
      <trkpt lat="47.30821" lon="-1.69043">
        <ele>71.5</ele>
        <time>2012-10-28T09:15:31Z</time>
      </trkpt>
      <trkpt lat="47.30819" lon="-1.69047">
        <ele>71.6</ele>
        <time>2012-10-28T09:15:32Z</time>
      </trkpt>
      <trkpt lat="47.30816" lon="-1.69051">
        <ele>71.3</ele>
        <time>2012-10-28T09:15:33Z</time>
      </trkpt>
      <trkpt lat="47.30812" lon="-1.69055">
        <ele>71.1</ele>
        <time>2012-10-28T09:15:34Z</time>
      </trkpt>
      <trkpt lat="47.30809" lon="-1.69058">
        <ele>70.9</ele>
        <time>2012-10-28T09:15:35Z</time>
      </trkpt>
      <trkpt lat="47.30806" lon="-1.69063">
        <ele>71.1</ele>
        <time>2012-10-28T09:15:36Z</time>
      </trkpt>
      <trkpt lat="47.30794" lon="-1.6908">
        <ele>71.2</ele>
        <time>2012-10-28T09:15:40Z</time>
      </trkpt>
      <trkpt lat="47.30791" lon="-1.69085">
        <ele>71.2</ele>
        <time>2012-10-28T09:15:41Z</time>
      </trkpt>
      <trkpt lat="47.30769" lon="-1.69131">
        <ele>69.9</ele>
        <time>2012-10-28T09:15:49Z</time>
      </trkpt>
      <trkpt lat="47.30722" lon="-1.69222">
        <ele>68.9</ele>
        <time>2012-10-28T09:16:05Z</time>
      </trkpt>
      <trkpt lat="47.30696" lon="-1.6927">
        <ele>68.8</ele>
        <time>2012-10-28T09:16:13Z</time>
      </trkpt>
      <trkpt lat="47.30692" lon="-1.69276">
        <ele>69</ele>
        <time>2012-10-28T09:16:14Z</time>
      </trkpt>
      <trkpt lat="47.30656" lon="-1.69324">
        <ele>68.6</ele>
        <time>2012-10-28T09:16:23Z</time>
      </trkpt>
      <trkpt lat="47.30653" lon="-1.69331">
        <ele>68.6</ele>
        <time>2012-10-28T09:16:24Z</time>
      </trkpt>
      <trkpt lat="47.30643" lon="-1.69349">
        <ele>68.1</ele>
        <time>2012-10-28T09:16:27Z</time>
      </trkpt>
      <trkpt lat="47.30639" lon="-1.69354">
        <ele>67.9</ele>
        <time>2012-10-28T09:16:28Z</time>
      </trkpt>
      <trkpt lat="47.30635" lon="-1.69359">
        <ele>67.7</ele>
        <time>2012-10-28T09:16:29Z</time>
      </trkpt>
      <trkpt lat="47.30622" lon="-1.69373">
        <ele>67.6</ele>
        <time>2012-10-28T09:16:32Z</time>
      </trkpt>
      <trkpt lat="47.30607" lon="-1.69393">
        <ele>67.3</ele>
        <time>2012-10-28T09:16:36Z</time>
      </trkpt>
      <trkpt lat="47.30603" lon="-1.69396">
        <ele>67.3</ele>
        <time>2012-10-28T09:16:37Z</time>
      </trkpt>
      <trkpt lat="47.30594" lon="-1.69402">
        <ele>66.7</ele>
        <time>2012-10-28T09:16:39Z</time>
      </trkpt>
      <trkpt lat="47.30589" lon="-1.69404">
        <ele>66.5</ele>
        <time>2012-10-28T09:16:40Z</time>
      </trkpt>
      <trkpt lat="47.3058" lon="-1.69408">
        <ele>66.1</ele>
        <time>2012-10-28T09:16:42Z</time>
      </trkpt>
      <trkpt lat="47.30576" lon="-1.69411">
        <ele>65.8</ele>
        <time>2012-10-28T09:16:43Z</time>
      </trkpt>
      <trkpt lat="47.30537" lon="-1.69438">
        <ele>62.3</ele>
        <time>2012-10-28T09:16:54Z</time>
      </trkpt>
      <trkpt lat="47.30533" lon="-1.69442">
        <ele>62.1</ele>
        <time>2012-10-28T09:16:55Z</time>
      </trkpt>
      <trkpt lat="47.30515" lon="-1.69466">
        <ele>61.7</ele>
        <time>2012-10-28T09:17:00Z</time>
      </trkpt>
      <trkpt lat="47.30506" lon="-1.69482">
        <ele>61.4</ele>
        <time>2012-10-28T09:17:03Z</time>
      </trkpt>
      <trkpt lat="47.30503" lon="-1.69488">
        <ele>61.1</ele>
        <time>2012-10-28T09:17:04Z</time>
      </trkpt>
      <trkpt lat="47.30475" lon="-1.69534">
        <ele>60.5</ele>
        <time>2012-10-28T09:17:13Z</time>
      </trkpt>
      <trkpt lat="47.30471" lon="-1.69538">
        <ele>60.3</ele>
        <time>2012-10-28T09:17:14Z</time>
      </trkpt>
      <trkpt lat="47.30464" lon="-1.69548">
        <ele>60.1</ele>
        <time>2012-10-28T09:17:16Z</time>
      </trkpt>
      <trkpt lat="47.30461" lon="-1.69554">
        <ele>60.1</ele>
        <time>2012-10-28T09:17:17Z</time>
      </trkpt>
      <trkpt lat="47.30455" lon="-1.69568">
        <ele>59.7</ele>
        <time>2012-10-28T09:17:19Z</time>
      </trkpt>
      <trkpt lat="47.30451" lon="-1.69574">
        <ele>59.3</ele>
        <time>2012-10-28T09:17:20Z</time>
      </trkpt>
      <trkpt lat="47.30443" lon="-1.69585">
        <ele>58.8</ele>
        <time>2012-10-28T09:17:22Z</time>
      </trkpt>
      <trkpt lat="47.3044" lon="-1.69591">
        <ele>58.2</ele>
        <time>2012-10-28T09:17:23Z</time>
      </trkpt>
      <trkpt lat="47.30437" lon="-1.69598">
        <ele>57.7</ele>
        <time>2012-10-28T09:17:24Z</time>
      </trkpt>
      <trkpt lat="47.30433" lon="-1.69603">
        <ele>57.2</ele>
        <time>2012-10-28T09:17:25Z</time>
      </trkpt>
      <trkpt lat="47.30428" lon="-1.69606">
        <ele>56.8</ele>
        <time>2012-10-28T09:17:26Z</time>
      </trkpt>
      <trkpt lat="47.30422" lon="-1.69608">
        <ele>56.2</ele>
        <time>2012-10-28T09:17:27Z</time>
      </trkpt>
      <trkpt lat="47.30416" lon="-1.69609">
        <ele>55.7</ele>
        <time>2012-10-28T09:17:28Z</time>
      </trkpt>
      <trkpt lat="47.30375" lon="-1.69615">
        <ele>54.1</ele>
        <time>2012-10-28T09:17:35Z</time>
      </trkpt>
      <trkpt lat="47.30371" lon="-1.69618">
        <ele>53.9</ele>
        <time>2012-10-28T09:17:36Z</time>
      </trkpt>
      <trkpt lat="47.30368" lon="-1.69623">
        <ele>54</ele>
        <time>2012-10-28T09:17:37Z</time>
      </trkpt>
      <trkpt lat="47.30367" lon="-1.69629">
        <ele>54.1</ele>
        <time>2012-10-28T09:17:38Z</time>
      </trkpt>
      <trkpt lat="47.30367" lon="-1.69635">
        <ele>54</ele>
        <time>2012-10-28T09:17:39Z</time>
      </trkpt>
      <trkpt lat="47.30365" lon="-1.69661">
        <ele>53.7</ele>
        <time>2012-10-28T09:17:43Z</time>
      </trkpt>
      <trkpt lat="47.30364" lon="-1.69667">
        <ele>53.7</ele>
        <time>2012-10-28T09:17:44Z</time>
      </trkpt>
      <trkpt lat="47.30353" lon="-1.69722">
        <ele>56.2</ele>
        <time>2012-10-28T09:17:54Z</time>
      </trkpt>
      <trkpt lat="47.30345" lon="-1.69754">
        <ele>57.7</ele>
        <time>2012-10-28T09:18:00Z</time>
      </trkpt>
      <trkpt lat="47.30341" lon="-1.69767">
        <ele>58.7</ele>
        <time>2012-10-28T09:18:03Z</time>
      </trkpt>
      <trkpt lat="47.30324" lon="-1.69814">
        <ele>61.2</ele>
        <time>2012-10-28T09:18:15Z</time>
      </trkpt>
      <trkpt lat="47.30317" lon="-1.69828">
        <ele>61.7</ele>
        <time>2012-10-28T09:18:19Z</time>
      </trkpt>
      <trkpt lat="47.30314" lon="-1.69835">
        <ele>62.1</ele>
        <time>2012-10-28T09:18:21Z</time>
      </trkpt>
      <trkpt lat="47.30301" lon="-1.69856">
        <ele>63.1</ele>
        <time>2012-10-28T09:18:27Z</time>
      </trkpt>
      <trkpt lat="47.30298" lon="-1.69859">
        <ele>63.4</ele>
        <time>2012-10-28T09:18:28Z</time>
      </trkpt>
      <trkpt lat="47.30227" lon="-1.69947">
        <ele>63</ele>
        <time>2012-10-28T09:18:52Z</time>
      </trkpt>
      <trkpt lat="47.30224" lon="-1.6995">
        <ele>63.1</ele>
        <time>2012-10-28T09:18:53Z</time>
      </trkpt>
      <trkpt lat="47.30221" lon="-1.69953">
        <ele>63.2</ele>
        <time>2012-10-28T09:18:54Z</time>
      </trkpt>
      <trkpt lat="47.30218" lon="-1.69956">
        <ele>63.2</ele>
        <time>2012-10-28T09:18:55Z</time>
      </trkpt>
      <trkpt lat="47.30145" lon="-1.7005">
        <ele>62.5</ele>
        <time>2012-10-28T09:19:16Z</time>
      </trkpt>
      <trkpt lat="47.30143" lon="-1.70055">
        <ele>62.4</ele>
        <time>2012-10-28T09:19:17Z</time>
      </trkpt>
      <trkpt lat="47.30135" lon="-1.7007">
        <ele>62.2</ele>
        <time>2012-10-28T09:19:20Z</time>
      </trkpt>
      <trkpt lat="47.30078" lon="-1.70183">
        <ele>64</ele>
        <time>2012-10-28T09:19:42Z</time>
      </trkpt>
      <trkpt lat="47.30065" lon="-1.70213">
        <ele>65.9</ele>
        <time>2012-10-28T09:19:49Z</time>
      </trkpt>
      <trkpt lat="47.30049" lon="-1.70245">
        <ele>68.3</ele>
        <time>2012-10-28T09:19:58Z</time>
      </trkpt>
      <trkpt lat="47.30048" lon="-1.70249">
        <ele>68.6</ele>
        <time>2012-10-28T09:19:59Z</time>
      </trkpt>
      <trkpt lat="47.30046" lon="-1.70257">
        <ele>69.1</ele>
        <time>2012-10-28T09:20:01Z</time>
      </trkpt>
      <trkpt lat="47.30045" lon="-1.70261">
        <ele>69.3</ele>
        <time>2012-10-28T09:20:02Z</time>
      </trkpt>
      <trkpt lat="47.30045" lon="-1.70265">
        <ele>69.4</ele>
        <time>2012-10-28T09:20:03Z</time>
      </trkpt>
      <trkpt lat="47.30044" lon="-1.70281">
        <ele>69.4</ele>
        <time>2012-10-28T09:20:07Z</time>
      </trkpt>
      <trkpt lat="47.30045" lon="-1.70285">
        <ele>69.3</ele>
        <time>2012-10-28T09:20:08Z</time>
      </trkpt>
      <trkpt lat="47.30046" lon="-1.70289">
        <ele>69.8</ele>
        <time>2012-10-28T09:20:09Z</time>
      </trkpt>
      <trkpt lat="47.30047" lon="-1.70296">
        <ele>70.3</ele>
        <time>2012-10-28T09:20:11Z</time>
      </trkpt>
      <trkpt lat="47.30049" lon="-1.70299">
        <ele>70.3</ele>
        <time>2012-10-28T09:20:12Z</time>
      </trkpt>
      <trkpt lat="47.3005" lon="-1.70303">
        <ele>70.6</ele>
        <time>2012-10-28T09:20:13Z</time>
      </trkpt>
      <trkpt lat="47.30067" lon="-1.70333">
        <ele>71.8</ele>
        <time>2012-10-28T09:20:21Z</time>
      </trkpt>
      <trkpt lat="47.3007" lon="-1.70336">
        <ele>72.1</ele>
        <time>2012-10-28T09:20:22Z</time>
      </trkpt>
      <trkpt lat="47.30089" lon="-1.70367">
        <ele>72.1</ele>
        <time>2012-10-28T09:20:30Z</time>
      </trkpt>
      <trkpt lat="47.30091" lon="-1.70372">
        <ele>72.2</ele>
        <time>2012-10-28T09:20:31Z</time>
      </trkpt>
      <trkpt lat="47.30092" lon="-1.70378">
        <ele>72.2</ele>
        <time>2012-10-28T09:20:32Z</time>
      </trkpt>
      <trkpt lat="47.30092" lon="-1.70383">
        <ele>71.9</ele>
        <time>2012-10-28T09:20:33Z</time>
      </trkpt>
      <trkpt lat="47.30091" lon="-1.70389">
        <ele>71.7</ele>
        <time>2012-10-28T09:20:34Z</time>
      </trkpt>
      <trkpt lat="47.30089" lon="-1.70393">
        <ele>71.7</ele>
        <time>2012-10-28T09:20:35Z</time>
      </trkpt>
      <trkpt lat="47.30087" lon="-1.70397">
        <ele>71.7</ele>
        <time>2012-10-28T09:20:36Z</time>
      </trkpt>
      <trkpt lat="47.30059" lon="-1.70438">
        <ele>72.1</ele>
        <time>2012-10-28T09:20:46Z</time>
      </trkpt>
      <trkpt lat="47.30056" lon="-1.70441">
        <ele>72.2</ele>
        <time>2012-10-28T09:20:47Z</time>
      </trkpt>
      <trkpt lat="47.30053" lon="-1.70444">
        <ele>72.3</ele>
        <time>2012-10-28T09:20:48Z</time>
      </trkpt>
      <trkpt lat="47.30039" lon="-1.70454">
        <ele>72.1</ele>
        <time>2012-10-28T09:20:52Z</time>
      </trkpt>
      <trkpt lat="47.30035" lon="-1.70457">
        <ele>72.2</ele>
        <time>2012-10-28T09:20:53Z</time>
      </trkpt>
      <trkpt lat="47.30031" lon="-1.70458">
        <ele>72.5</ele>
        <time>2012-10-28T09:20:54Z</time>
      </trkpt>
      <trkpt lat="47.30026" lon="-1.70459">
        <ele>72.8</ele>
        <time>2012-10-28T09:20:55Z</time>
      </trkpt>
      <trkpt lat="47.29965" lon="-1.70472">
        <ele>72.5</ele>
        <time>2012-10-28T09:21:08Z</time>
      </trkpt>
      <trkpt lat="47.2996" lon="-1.70475">
        <ele>72.3</ele>
        <time>2012-10-28T09:21:09Z</time>
      </trkpt>
      <trkpt lat="47.29947" lon="-1.70482">
        <ele>71.8</ele>
        <time>2012-10-28T09:21:12Z</time>
      </trkpt>
      <trkpt lat="47.29942" lon="-1.70482">
        <ele>71.7</ele>
        <time>2012-10-28T09:21:13Z</time>
      </trkpt>
      <trkpt lat="47.29937" lon="-1.70481">
        <ele>71.7</ele>
        <time>2012-10-28T09:21:14Z</time>
      </trkpt>
      <trkpt lat="47.29933" lon="-1.70478">
        <ele>71.9</ele>
        <time>2012-10-28T09:21:15Z</time>
      </trkpt>
      <trkpt lat="47.29928" lon="-1.70475">
        <ele>72</ele>
        <time>2012-10-28T09:21:16Z</time>
      </trkpt>
      <trkpt lat="47.29911" lon="-1.70459">
        <ele>72.4</ele>
        <time>2012-10-28T09:21:20Z</time>
      </trkpt>
      <trkpt lat="47.29898" lon="-1.70446">
        <ele>72.3</ele>
        <time>2012-10-28T09:21:23Z</time>
      </trkpt>
      <trkpt lat="47.29895" lon="-1.7044">
        <ele>72.2</ele>
        <time>2012-10-28T09:21:24Z</time>
      </trkpt>
      <trkpt lat="47.29879" lon="-1.70411">
        <ele>72.9</ele>
        <time>2012-10-28T09:21:29Z</time>
      </trkpt>
      <trkpt lat="47.29867" lon="-1.70386">
        <ele>72.5</ele>
        <time>2012-10-28T09:21:33Z</time>
      </trkpt>
      <trkpt lat="47.29865" lon="-1.7038">
        <ele>72.7</ele>
        <time>2012-10-28T09:21:34Z</time>
      </trkpt>
      <trkpt lat="47.29837" lon="-1.70292">
        <ele>71.3</ele>
        <time>2012-10-28T09:21:47Z</time>
      </trkpt>
      <trkpt lat="47.29836" lon="-1.70285">
        <ele>71.3</ele>
        <time>2012-10-28T09:21:48Z</time>
      </trkpt>
      <trkpt lat="47.29834" lon="-1.70279">
        <ele>71.3</ele>
        <time>2012-10-28T09:21:49Z</time>
      </trkpt>
      <trkpt lat="47.29831" lon="-1.70254">
        <ele>71.2</ele>
        <time>2012-10-28T09:21:53Z</time>
      </trkpt>
      <trkpt lat="47.29831" lon="-1.70248">
        <ele>71</ele>
        <time>2012-10-28T09:21:54Z</time>
      </trkpt>
      <trkpt lat="47.29831" lon="-1.70243">
        <ele>70.8</ele>
        <time>2012-10-28T09:21:55Z</time>
      </trkpt>
      <trkpt lat="47.29835" lon="-1.70229">
        <ele>72.3</ele>
        <time>2012-10-28T09:21:58Z</time>
      </trkpt>
      <trkpt lat="47.29835" lon="-1.70225">
        <ele>73</ele>
        <time>2012-10-28T09:21:59Z</time>
      </trkpt>
      <trkpt lat="47.29835" lon="-1.70221">
        <ele>73.3</ele>
        <time>2012-10-28T09:22:00Z</time>
      </trkpt>
      <trkpt lat="47.29836" lon="-1.70216">
        <ele>73.6</ele>
        <time>2012-10-28T09:22:01Z</time>
      </trkpt>
      <trkpt lat="47.29836" lon="-1.70212">
        <ele>73.8</ele>
        <time>2012-10-28T09:22:02Z</time>
      </trkpt>
      <trkpt lat="47.29837" lon="-1.70207">
        <ele>74.3</ele>
        <time>2012-10-28T09:22:03Z</time>
      </trkpt>
      <trkpt lat="47.29836" lon="-1.70202">
        <ele>74.7</ele>
        <time>2012-10-28T09:22:04Z</time>
      </trkpt>
      <trkpt lat="47.29834" lon="-1.70197">
        <ele>75</ele>
        <time>2012-10-28T09:22:05Z</time>
      </trkpt>
      <trkpt lat="47.29832" lon="-1.70192">
        <ele>75.3</ele>
        <time>2012-10-28T09:22:06Z</time>
      </trkpt>
      <trkpt lat="47.2983" lon="-1.70188">
        <ele>75.3</ele>
        <time>2012-10-28T09:22:07Z</time>
      </trkpt>
      <trkpt lat="47.29827" lon="-1.70184">
        <ele>75.3</ele>
        <time>2012-10-28T09:22:08Z</time>
      </trkpt>
      <trkpt lat="47.29823" lon="-1.70181">
        <ele>75.3</ele>
        <time>2012-10-28T09:22:09Z</time>
      </trkpt>
      <trkpt lat="47.29819" lon="-1.70178">
        <ele>75</ele>
        <time>2012-10-28T09:22:10Z</time>
      </trkpt>
      <trkpt lat="47.29816" lon="-1.70175">
        <ele>74.8</ele>
        <time>2012-10-28T09:22:11Z</time>
      </trkpt>
      <trkpt lat="47.29772" lon="-1.70148">
        <ele>74</ele>
        <time>2012-10-28T09:22:22Z</time>
      </trkpt>
      <trkpt lat="47.29768" lon="-1.70147">
        <ele>74.1</ele>
        <time>2012-10-28T09:22:23Z</time>
      </trkpt>
      <trkpt lat="47.29763" lon="-1.70147">
        <ele>73.4</ele>
        <time>2012-10-28T09:22:24Z</time>
      </trkpt>
      <trkpt lat="47.29753" lon="-1.70148">
        <ele>72.5</ele>
        <time>2012-10-28T09:22:26Z</time>
      </trkpt>
      <trkpt lat="47.29749" lon="-1.70146">
        <ele>72.2</ele>
        <time>2012-10-28T09:22:27Z</time>
      </trkpt>
      <trkpt lat="47.2973" lon="-1.70141">
        <ele>71.3</ele>
        <time>2012-10-28T09:22:31Z</time>
      </trkpt>
      <trkpt lat="47.29725" lon="-1.70141">
        <ele>71.5</ele>
        <time>2012-10-28T09:22:32Z</time>
      </trkpt>
      <trkpt lat="47.2972" lon="-1.70142">
        <ele>71.4</ele>
        <time>2012-10-28T09:22:33Z</time>
      </trkpt>
      <trkpt lat="47.2971" lon="-1.70144">
        <ele>71.3</ele>
        <time>2012-10-28T09:22:35Z</time>
      </trkpt>
      <trkpt lat="47.29706" lon="-1.70147">
        <ele>71.2</ele>
        <time>2012-10-28T09:22:36Z</time>
      </trkpt>
      <trkpt lat="47.29702" lon="-1.7015">
        <ele>71.1</ele>
        <time>2012-10-28T09:22:37Z</time>
      </trkpt>
      <trkpt lat="47.29698" lon="-1.70154">
        <ele>71</ele>
        <time>2012-10-28T09:22:38Z</time>
      </trkpt>
      <trkpt lat="47.29694" lon="-1.70159">
        <ele>70.9</ele>
        <time>2012-10-28T09:22:39Z</time>
      </trkpt>
      <trkpt lat="47.29692" lon="-1.70165">
        <ele>70.9</ele>
        <time>2012-10-28T09:22:40Z</time>
      </trkpt>
      <trkpt lat="47.29687" lon="-1.70176">
        <ele>71.3</ele>
        <time>2012-10-28T09:22:42Z</time>
      </trkpt>
      <trkpt lat="47.29683" lon="-1.70181">
        <ele>70.7</ele>
        <time>2012-10-28T09:22:43Z</time>
      </trkpt>
      <trkpt lat="47.29679" lon="-1.70185">
        <ele>70.2</ele>
        <time>2012-10-28T09:22:44Z</time>
      </trkpt>
      <trkpt lat="47.29674" lon="-1.70188">
        <ele>69.8</ele>
        <time>2012-10-28T09:22:45Z</time>
      </trkpt>
      <trkpt lat="47.29642" lon="-1.70212">
        <ele>68.7</ele>
        <time>2012-10-28T09:22:53Z</time>
      </trkpt>
      <trkpt lat="47.29639" lon="-1.70215">
        <ele>68.5</ele>
        <time>2012-10-28T09:22:54Z</time>
      </trkpt>
      <trkpt lat="47.29636" lon="-1.70219">
        <ele>68.5</ele>
        <time>2012-10-28T09:22:55Z</time>
      </trkpt>
      <trkpt lat="47.29635" lon="-1.70223">
        <ele>68.4</ele>
        <time>2012-10-28T09:22:56Z</time>
      </trkpt>
      <trkpt lat="47.29634" lon="-1.70228">
        <ele>68.6</ele>
        <time>2012-10-28T09:22:57Z</time>
      </trkpt>
      <trkpt lat="47.29634" lon="-1.70233">
        <ele>68.8</ele>
        <time>2012-10-28T09:22:58Z</time>
      </trkpt>
      <trkpt lat="47.29633" lon="-1.70242">
        <ele>68.8</ele>
        <time>2012-10-28T09:23:00Z</time>
      </trkpt>
      <trkpt lat="47.29632" lon="-1.70247">
        <ele>68.7</ele>
        <time>2012-10-28T09:23:01Z</time>
      </trkpt>
      <trkpt lat="47.29631" lon="-1.70251">
        <ele>68.4</ele>
        <time>2012-10-28T09:23:02Z</time>
      </trkpt>
      <trkpt lat="47.29629" lon="-1.70255">
        <ele>68.1</ele>
        <time>2012-10-28T09:23:03Z</time>
      </trkpt>
      <trkpt lat="47.29624" lon="-1.70265">
        <ele>68.7</ele>
        <time>2012-10-28T09:23:06Z</time>
      </trkpt>
      <trkpt lat="47.29615" lon="-1.7028">
        <ele>68</ele>
        <time>2012-10-28T09:23:10Z</time>
      </trkpt>
      <trkpt lat="47.29614" lon="-1.70285">
        <ele>68.3</ele>
        <time>2012-10-28T09:23:11Z</time>
      </trkpt>
      <trkpt lat="47.29613" lon="-1.7029">
        <ele>68.4</ele>
        <time>2012-10-28T09:23:12Z</time>
      </trkpt>
      <trkpt lat="47.29613" lon="-1.70294">
        <ele>68.6</ele>
        <time>2012-10-28T09:23:13Z</time>
      </trkpt>
      <trkpt lat="47.29614" lon="-1.70304">
        <ele>67.4</ele>
        <time>2012-10-28T09:23:15Z</time>
      </trkpt>
      <trkpt lat="47.29626" lon="-1.70514">
        <ele>65.9</ele>
        <time>2012-10-28T09:23:47Z</time>
      </trkpt>
      <trkpt lat="47.29625" lon="-1.70522">
        <ele>65.4</ele>
        <time>2012-10-28T09:23:48Z</time>
      </trkpt>
      <trkpt lat="47.29623" lon="-1.70537">
        <ele>65.4</ele>
        <time>2012-10-28T09:23:50Z</time>
      </trkpt>
      <trkpt lat="47.29621" lon="-1.70544">
        <ele>65.5</ele>
        <time>2012-10-28T09:23:51Z</time>
      </trkpt>
      <trkpt lat="47.29617" lon="-1.70549">
        <ele>64.7</ele>
        <time>2012-10-28T09:23:52Z</time>
      </trkpt>
      <trkpt lat="47.29601" lon="-1.70569">
        <ele>62.5</ele>
        <time>2012-10-28T09:23:56Z</time>
      </trkpt>
      <trkpt lat="47.29599" lon="-1.70575">
        <ele>62</ele>
        <time>2012-10-28T09:23:57Z</time>
      </trkpt>
      <trkpt lat="47.29592" lon="-1.70606">
        <ele>59.6</ele>
        <time>2012-10-28T09:24:03Z</time>
      </trkpt>
      <trkpt lat="47.29591" lon="-1.70609">
        <ele>59</ele>
        <time>2012-10-28T09:24:04Z</time>
      </trkpt>
      <trkpt lat="47.29587" lon="-1.70614">
        <ele>57.9</ele>
        <time>2012-10-28T09:24:06Z</time>
      </trkpt>
      <trkpt lat="47.29587" lon="-1.70618">
        <ele>57.4</ele>
        <time>2012-10-28T09:24:07Z</time>
      </trkpt>
      <trkpt lat="47.29586" lon="-1.70622">
        <ele>57.4</ele>
        <time>2012-10-28T09:24:08Z</time>
      </trkpt>
      <trkpt lat="47.29584" lon="-1.70625">
        <ele>57.4</ele>
        <time>2012-10-28T09:24:09Z</time>
      </trkpt>
      <trkpt lat="47.29579" lon="-1.70633">
        <ele>57</ele>
        <time>2012-10-28T09:24:11Z</time>
      </trkpt>
      <trkpt lat="47.29579" lon="-1.70637">
        <ele>56.7</ele>
        <time>2012-10-28T09:24:12Z</time>
      </trkpt>
      <trkpt lat="47.29578" lon="-1.70643">
        <ele>56.1</ele>
        <time>2012-10-28T09:24:13Z</time>
      </trkpt>
      <trkpt lat="47.29577" lon="-1.70655">
        <ele>54.9</ele>
        <time>2012-10-28T09:24:15Z</time>
      </trkpt>
      <trkpt lat="47.29578" lon="-1.70662">
        <ele>54.4</ele>
        <time>2012-10-28T09:24:16Z</time>
      </trkpt>
      <trkpt lat="47.29579" lon="-1.70667">
        <ele>53.9</ele>
        <time>2012-10-28T09:24:17Z</time>
      </trkpt>
      <trkpt lat="47.29581" lon="-1.70671">
        <ele>53.2</ele>
        <time>2012-10-28T09:24:18Z</time>
      </trkpt>
      <trkpt lat="47.29583" lon="-1.70675">
        <ele>53.1</ele>
        <time>2012-10-28T09:24:20Z</time>
      </trkpt>
      <trkpt lat="47.29585" lon="-1.7068">
        <ele>54.1</ele>
        <time>2012-10-28T09:24:23Z</time>
      </trkpt>
      <trkpt lat="47.29585" lon="-1.70683">
        <ele>54.3</ele>
        <time>2012-10-28T09:24:24Z</time>
      </trkpt>
      <trkpt lat="47.29589" lon="-1.707">
        <ele>55.5</ele>
        <time>2012-10-28T09:24:30Z</time>
      </trkpt>
      <trkpt lat="47.29589" lon="-1.70702">
        <ele>55.7</ele>
        <time>2012-10-28T09:24:31Z</time>
      </trkpt>
      <trkpt lat="47.29588" lon="-1.70705">
        <ele>55.7</ele>
        <time>2012-10-28T09:24:32Z</time>
      </trkpt>
      <trkpt lat="47.29588" lon="-1.70706">
        <ele>55.6</ele>
        <time>2012-10-28T09:24:33Z</time>
      </trkpt>
      <trkpt lat="47.29587" lon="-1.70708">
        <ele>55.5</ele>
        <time>2012-10-28T09:24:34Z</time>
      </trkpt>
      <trkpt lat="47.29587" lon="-1.70709">
        <ele>55.5</ele>
        <time>2012-10-28T09:24:35Z</time>
      </trkpt>
      <trkpt lat="47.29586" lon="-1.70711">
        <ele>55.5</ele>
        <time>2012-10-28T09:24:36Z</time>
      </trkpt>
      <trkpt lat="47.29586" lon="-1.70713">
        <ele>55.5</ele>
        <time>2012-10-28T09:24:37Z</time>
      </trkpt>
      <trkpt lat="47.29587" lon="-1.70716">
        <ele>55.4</ele>
        <time>2012-10-28T09:24:38Z</time>
      </trkpt>
      <trkpt lat="47.29589" lon="-1.70724">
        <ele>55.7</ele>
        <time>2012-10-28T09:24:40Z</time>
      </trkpt>
      <trkpt lat="47.2959" lon="-1.70731">
        <ele>55.8</ele>
        <time>2012-10-28T09:24:42Z</time>
      </trkpt>
      <trkpt lat="47.29594" lon="-1.70753">
        <ele>52.9</ele>
        <time>2012-10-28T09:24:47Z</time>
      </trkpt>
      <trkpt lat="47.29598" lon="-1.70772">
        <ele>50.7</ele>
        <time>2012-10-28T09:24:51Z</time>
      </trkpt>
      <trkpt lat="47.29603" lon="-1.70787">
        <ele>49.8</ele>
        <time>2012-10-28T09:24:56Z</time>
      </trkpt>
      <trkpt lat="47.29606" lon="-1.70797">
        <ele>50.8</ele>
        <time>2012-10-28T09:24:59Z</time>
      </trkpt>
      <trkpt lat="47.29608" lon="-1.708">
        <ele>50.9</ele>
        <time>2012-10-28T09:25:00Z</time>
      </trkpt>
      <trkpt lat="47.29609" lon="-1.70802">
        <ele>50.9</ele>
        <time>2012-10-28T09:25:01Z</time>
      </trkpt>
      <trkpt lat="47.29611" lon="-1.70804">
        <ele>50.8</ele>
        <time>2012-10-28T09:25:02Z</time>
      </trkpt>
      <trkpt lat="47.29614" lon="-1.70806">
        <ele>51.7</ele>
        <time>2012-10-28T09:25:04Z</time>
      </trkpt>
      <trkpt lat="47.29615" lon="-1.70808">
        <ele>52.3</ele>
        <time>2012-10-28T09:25:05Z</time>
      </trkpt>
      <trkpt lat="47.29615" lon="-1.70809">
        <ele>52.6</ele>
        <time>2012-10-28T09:25:06Z</time>
      </trkpt>
      <trkpt lat="47.29616" lon="-1.70812">
        <ele>52.9</ele>
        <time>2012-10-28T09:25:07Z</time>
      </trkpt>
      <trkpt lat="47.29618" lon="-1.70847">
        <ele>52.7</ele>
        <time>2012-10-28T09:25:14Z</time>
      </trkpt>
      <trkpt lat="47.2962" lon="-1.70862">
        <ele>52.1</ele>
        <time>2012-10-28T09:25:17Z</time>
      </trkpt>
      <trkpt lat="47.2962" lon="-1.70866">
        <ele>51.8</ele>
        <time>2012-10-28T09:25:18Z</time>
      </trkpt>
      <trkpt lat="47.29621" lon="-1.70868">
        <ele>51.7</ele>
        <time>2012-10-28T09:25:19Z</time>
      </trkpt>
      <trkpt lat="47.29623" lon="-1.70874">
        <ele>51.6</ele>
        <time>2012-10-28T09:25:21Z</time>
      </trkpt>
      <trkpt lat="47.29624" lon="-1.70877">
        <ele>51.8</ele>
        <time>2012-10-28T09:25:22Z</time>
      </trkpt>
      <trkpt lat="47.29627" lon="-1.70885">
        <ele>51.5</ele>
        <time>2012-10-28T09:25:24Z</time>
      </trkpt>
      <trkpt lat="47.29628" lon="-1.70889">
        <ele>51.1</ele>
        <time>2012-10-28T09:25:25Z</time>
      </trkpt>
      <trkpt lat="47.2963" lon="-1.70897">
        <ele>51.2</ele>
        <time>2012-10-28T09:25:27Z</time>
      </trkpt>
      <trkpt lat="47.29632" lon="-1.70901">
        <ele>51.4</ele>
        <time>2012-10-28T09:25:28Z</time>
      </trkpt>
      <trkpt lat="47.29634" lon="-1.70905">
        <ele>51.2</ele>
        <time>2012-10-28T09:25:29Z</time>
      </trkpt>
      <trkpt lat="47.29636" lon="-1.70908">
        <ele>51.1</ele>
        <time>2012-10-28T09:25:30Z</time>
      </trkpt>
      <trkpt lat="47.29638" lon="-1.70909">
        <ele>51.1</ele>
        <time>2012-10-28T09:25:31Z</time>
      </trkpt>
      <trkpt lat="47.2964" lon="-1.70911">
        <ele>51.1</ele>
        <time>2012-10-28T09:25:32Z</time>
      </trkpt>
      <trkpt lat="47.29641" lon="-1.70915">
        <ele>51.1</ele>
        <time>2012-10-28T09:25:33Z</time>
      </trkpt>
      <trkpt lat="47.29643" lon="-1.70921">
        <ele>50.9</ele>
        <time>2012-10-28T09:25:35Z</time>
      </trkpt>
      <trkpt lat="47.29644" lon="-1.70924">
        <ele>51.2</ele>
        <time>2012-10-28T09:25:36Z</time>
      </trkpt>
      <trkpt lat="47.29646" lon="-1.70932">
        <ele>50.9</ele>
        <time>2012-10-28T09:25:39Z</time>
      </trkpt>
      <trkpt lat="47.29646" lon="-1.70934">
        <ele>50.5</ele>
        <time>2012-10-28T09:25:40Z</time>
      </trkpt>
      <trkpt lat="47.29646" lon="-1.70937">
        <ele>50.9</ele>
        <time>2012-10-28T09:25:41Z</time>
      </trkpt>
      <trkpt lat="47.29647" lon="-1.7094">
        <ele>51.1</ele>
        <time>2012-10-28T09:25:42Z</time>
      </trkpt>
      <trkpt lat="47.29648" lon="-1.70945">
        <ele>51.5</ele>
        <time>2012-10-28T09:25:44Z</time>
      </trkpt>
      <trkpt lat="47.29648" lon="-1.70947">
        <ele>51.6</ele>
        <time>2012-10-28T09:25:45Z</time>
      </trkpt>
      <trkpt lat="47.29649" lon="-1.70949">
        <ele>52</ele>
        <time>2012-10-28T09:25:46Z</time>
      </trkpt>
      <trkpt lat="47.29653" lon="-1.70967">
        <ele>52.9</ele>
        <time>2012-10-28T09:25:53Z</time>
      </trkpt>
      <trkpt lat="47.29653" lon="-1.70971">
        <ele>53.2</ele>
        <time>2012-10-28T09:25:54Z</time>
      </trkpt>
      <trkpt lat="47.29655" lon="-1.70983">
        <ele>53.5</ele>
        <time>2012-10-28T09:25:57Z</time>
      </trkpt>
      <trkpt lat="47.29655" lon="-1.70986">
        <ele>53.4</ele>
        <time>2012-10-28T09:25:58Z</time>
      </trkpt>
      <trkpt lat="47.2966" lon="-1.71003">
        <ele>53.2</ele>
        <time>2012-10-28T09:26:03Z</time>
      </trkpt>
      <trkpt lat="47.29661" lon="-1.71006">
        <ele>53.2</ele>
        <time>2012-10-28T09:26:04Z</time>
      </trkpt>
      <trkpt lat="47.29668" lon="-1.71019">
        <ele>53.6</ele>
        <time>2012-10-28T09:26:09Z</time>
      </trkpt>
      <trkpt lat="47.29669" lon="-1.71021">
        <ele>53.7</ele>
        <time>2012-10-28T09:26:10Z</time>
      </trkpt>
      <trkpt lat="47.29673" lon="-1.71025">
        <ele>54</ele>
        <time>2012-10-28T09:26:12Z</time>
      </trkpt>
      <trkpt lat="47.29674" lon="-1.71028">
        <ele>54.2</ele>
        <time>2012-10-28T09:26:13Z</time>
      </trkpt>
      <trkpt lat="47.29675" lon="-1.71031">
        <ele>54.5</ele>
        <time>2012-10-28T09:26:14Z</time>
      </trkpt>
      <trkpt lat="47.29676" lon="-1.71036">
        <ele>54.7</ele>
        <time>2012-10-28T09:26:15Z</time>
      </trkpt>
      <trkpt lat="47.29677" lon="-1.71046">
        <ele>54.6</ele>
        <time>2012-10-28T09:26:17Z</time>
      </trkpt>
      <trkpt lat="47.29678" lon="-1.71049">
        <ele>54.4</ele>
        <time>2012-10-28T09:26:18Z</time>
      </trkpt>
      <trkpt lat="47.29679" lon="-1.71054">
        <ele>54.3</ele>
        <time>2012-10-28T09:26:19Z</time>
      </trkpt>
      <trkpt lat="47.2968" lon="-1.71057">
        <ele>54.3</ele>
        <time>2012-10-28T09:26:20Z</time>
      </trkpt>
      <trkpt lat="47.29682" lon="-1.7106">
        <ele>54</ele>
        <time>2012-10-28T09:26:21Z</time>
      </trkpt>
      <trkpt lat="47.29684" lon="-1.71062">
        <ele>53.8</ele>
        <time>2012-10-28T09:26:22Z</time>
      </trkpt>
      <trkpt lat="47.29686" lon="-1.71065">
        <ele>53.6</ele>
        <time>2012-10-28T09:26:23Z</time>
      </trkpt>
      <trkpt lat="47.29689" lon="-1.71067">
        <ele>53.7</ele>
        <time>2012-10-28T09:26:24Z</time>
      </trkpt>
      <trkpt lat="47.29696" lon="-1.71073">
        <ele>54</ele>
        <time>2012-10-28T09:26:27Z</time>
      </trkpt>
      <trkpt lat="47.297" lon="-1.71078">
        <ele>53.5</ele>
        <time>2012-10-28T09:26:29Z</time>
      </trkpt>
      <trkpt lat="47.29704" lon="-1.71083">
        <ele>53.5</ele>
        <time>2012-10-28T09:26:31Z</time>
      </trkpt>
      <trkpt lat="47.29706" lon="-1.71086">
        <ele>53.6</ele>
        <time>2012-10-28T09:26:32Z</time>
      </trkpt>
      <trkpt lat="47.29707" lon="-1.71088">
        <ele>53.6</ele>
        <time>2012-10-28T09:26:33Z</time>
      </trkpt>
      <trkpt lat="47.29709" lon="-1.71093">
        <ele>53.6</ele>
        <time>2012-10-28T09:26:35Z</time>
      </trkpt>
      <trkpt lat="47.29711" lon="-1.71097">
        <ele>53.9</ele>
        <time>2012-10-28T09:26:37Z</time>
      </trkpt>
      <trkpt lat="47.29711" lon="-1.71099">
        <ele>54</ele>
        <time>2012-10-28T09:26:38Z</time>
      </trkpt>
      <trkpt lat="47.29709" lon="-1.71101">
        <ele>54.1</ele>
        <time>2012-10-28T09:26:39Z</time>
      </trkpt>
      <trkpt lat="47.29707" lon="-1.71103">
        <ele>54.1</ele>
        <time>2012-10-28T09:26:40Z</time>
      </trkpt>
      <trkpt lat="47.29697" lon="-1.71111">
        <ele>53.7</ele>
        <time>2012-10-28T09:26:43Z</time>
      </trkpt>
      <trkpt lat="47.29694" lon="-1.71117">
        <ele>53.5</ele>
        <time>2012-10-28T09:26:44Z</time>
      </trkpt>
      <trkpt lat="47.29693" lon="-1.71122">
        <ele>53.1</ele>
        <time>2012-10-28T09:26:45Z</time>
      </trkpt>
      <trkpt lat="47.29691" lon="-1.71133">
        <ele>52.4</ele>
        <time>2012-10-28T09:26:47Z</time>
      </trkpt>
      <trkpt lat="47.29688" lon="-1.71149">
        <ele>51.2</ele>
        <time>2012-10-28T09:26:51Z</time>
      </trkpt>
      <trkpt lat="47.29686" lon="-1.71156">
        <ele>51.7</ele>
        <time>2012-10-28T09:26:53Z</time>
      </trkpt>
      <trkpt lat="47.29685" lon="-1.71165">
        <ele>51.8</ele>
        <time>2012-10-28T09:26:55Z</time>
      </trkpt>
      <trkpt lat="47.29685" lon="-1.71175">
        <ele>51.7</ele>
        <time>2012-10-28T09:26:57Z</time>
      </trkpt>
      <trkpt lat="47.29685" lon="-1.71192">
        <ele>51.7</ele>
        <time>2012-10-28T09:27:01Z</time>
      </trkpt>
      <trkpt lat="47.29684" lon="-1.71194">
        <ele>51.8</ele>
        <time>2012-10-28T09:27:02Z</time>
      </trkpt>
      <trkpt lat="47.29684" lon="-1.71196">
        <ele>51.9</ele>
        <time>2012-10-28T09:27:03Z</time>
      </trkpt>
      <trkpt lat="47.29685" lon="-1.71198">
        <ele>51.8</ele>
        <time>2012-10-28T09:27:04Z</time>
      </trkpt>
      <trkpt lat="47.29685" lon="-1.712">
        <ele>51.8</ele>
        <time>2012-10-28T09:27:05Z</time>
      </trkpt>
      <trkpt lat="47.29685" lon="-1.71202">
        <ele>51.7</ele>
        <time>2012-10-28T09:27:06Z</time>
      </trkpt>
      <trkpt lat="47.29684" lon="-1.71204">
        <ele>51.6</ele>
        <time>2012-10-28T09:27:07Z</time>
      </trkpt>
      <trkpt lat="47.29684" lon="-1.71205">
        <ele>51.5</ele>
        <time>2012-10-28T09:27:08Z</time>
      </trkpt>
      <trkpt lat="47.29684" lon="-1.71206">
        <ele>51.3</ele>
        <time>2012-10-28T09:27:09Z</time>
      </trkpt>
      <trkpt lat="47.29683" lon="-1.71208">
        <ele>51.3</ele>
        <time>2012-10-28T09:27:11Z</time>
      </trkpt>
      <trkpt lat="47.29682" lon="-1.71209">
        <ele>51.4</ele>
        <time>2012-10-28T09:27:12Z</time>
      </trkpt>
      <trkpt lat="47.29682" lon="-1.7121">
        <ele>51.5</ele>
        <time>2012-10-28T09:27:13Z</time>
      </trkpt>
      <trkpt lat="47.29682" lon="-1.71211">
        <ele>51.7</ele>
        <time>2012-10-28T09:27:14Z</time>
      </trkpt>
      <trkpt lat="47.29681" lon="-1.71212">
        <ele>51.9</ele>
        <time>2012-10-28T09:27:15Z</time>
      </trkpt>
      <trkpt lat="47.29681" lon="-1.71213">
        <ele>51.6</ele>
        <time>2012-10-28T09:27:16Z</time>
      </trkpt>
      <trkpt lat="47.29681" lon="-1.71213">
        <ele>51.4</ele>
        <time>2012-10-28T09:27:17Z</time>
      </trkpt>
      <trkpt lat="47.2968" lon="-1.71215">
        <ele>50.9</ele>
        <time>2012-10-28T09:27:18Z</time>
      </trkpt>
      <trkpt lat="47.2968" lon="-1.71216">
        <ele>50.6</ele>
        <time>2012-10-28T09:27:19Z</time>
      </trkpt>
      <trkpt lat="47.2968" lon="-1.71216">
        <ele>50.4</ele>
        <time>2012-10-28T09:27:20Z</time>
      </trkpt>
      <trkpt lat="47.29679" lon="-1.71217">
        <ele>50.4</ele>
        <time>2012-10-28T09:27:21Z</time>
      </trkpt>
      <trkpt lat="47.29679" lon="-1.71218">
        <ele>50.4</ele>
        <time>2012-10-28T09:27:22Z</time>
      </trkpt>
      <trkpt lat="47.29679" lon="-1.71218">
        <ele>50.5</ele>
        <time>2012-10-28T09:27:23Z</time>
      </trkpt>
      <trkpt lat="47.29679" lon="-1.71219">
        <ele>50.5</ele>
        <time>2012-10-28T09:27:24Z</time>
      </trkpt>
      <trkpt lat="47.29678" lon="-1.7122">
        <ele>50.7</ele>
        <time>2012-10-28T09:27:25Z</time>
      </trkpt>
      <trkpt lat="47.29678" lon="-1.71221">
        <ele>50.8</ele>
        <time>2012-10-28T09:27:26Z</time>
      </trkpt>
      <trkpt lat="47.29678" lon="-1.71221">
        <ele>50.9</ele>
        <time>2012-10-28T09:27:27Z</time>
      </trkpt>
      <trkpt lat="47.29678" lon="-1.71222">
        <ele>50.7</ele>
        <time>2012-10-28T09:27:28Z</time>
      </trkpt>
      <trkpt lat="47.29677" lon="-1.71223">
        <ele>50.5</ele>
        <time>2012-10-28T09:27:29Z</time>
      </trkpt>
      <trkpt lat="47.29677" lon="-1.71224">
        <ele>50.4</ele>
        <time>2012-10-28T09:27:30Z</time>
      </trkpt>
      <trkpt lat="47.29677" lon="-1.71225">
        <ele>50.4</ele>
        <time>2012-10-28T09:27:31Z</time>
      </trkpt>
      <trkpt lat="47.29677" lon="-1.71227">
        <ele>50.9</ele>
        <time>2012-10-28T09:27:33Z</time>
      </trkpt>
      <trkpt lat="47.29677" lon="-1.71227">
        <ele>51</ele>
        <time>2012-10-28T09:27:34Z</time>
      </trkpt>
      <trkpt lat="47.29676" lon="-1.71228">
        <ele>51</ele>
        <time>2012-10-28T09:27:35Z</time>
      </trkpt>
      <trkpt lat="47.29676" lon="-1.71229">
        <ele>51</ele>
        <time>2012-10-28T09:27:36Z</time>
      </trkpt>
      <trkpt lat="47.29676" lon="-1.71229">
        <ele>50.9</ele>
        <time>2012-10-28T09:27:37Z</time>
      </trkpt>
      <trkpt lat="47.29675" lon="-1.7123">
        <ele>50.8</ele>
        <time>2012-10-28T09:27:38Z</time>
      </trkpt>
      <trkpt lat="47.29675" lon="-1.71231">
        <ele>50.8</ele>
        <time>2012-10-28T09:27:39Z</time>
      </trkpt>
      <trkpt lat="47.29674" lon="-1.71232">
        <ele>50.8</ele>
        <time>2012-10-28T09:27:40Z</time>
      </trkpt>
      <trkpt lat="47.29674" lon="-1.71233">
        <ele>50.8</ele>
        <time>2012-10-28T09:27:41Z</time>
      </trkpt>
      <trkpt lat="47.29673" lon="-1.71234">
        <ele>50.7</ele>
        <time>2012-10-28T09:27:42Z</time>
      </trkpt>
      <trkpt lat="47.29672" lon="-1.71236">
        <ele>50.7</ele>
        <time>2012-10-28T09:27:44Z</time>
      </trkpt>
      <trkpt lat="47.29672" lon="-1.71237">
        <ele>50.7</ele>
        <time>2012-10-28T09:27:45Z</time>
      </trkpt>
      <trkpt lat="47.29671" lon="-1.71237">
        <ele>50.7</ele>
        <time>2012-10-28T09:27:46Z</time>
      </trkpt>
      <trkpt lat="47.29671" lon="-1.71239">
        <ele>50.4</ele>
        <time>2012-10-28T09:27:47Z</time>
      </trkpt>
      <trkpt lat="47.2967" lon="-1.71239">
        <ele>50.2</ele>
        <time>2012-10-28T09:27:48Z</time>
      </trkpt>
      <trkpt lat="47.2967" lon="-1.7124">
        <ele>50.2</ele>
        <time>2012-10-28T09:27:49Z</time>
      </trkpt>
      <trkpt lat="47.29669" lon="-1.7124">
        <ele>50.2</ele>
        <time>2012-10-28T09:27:50Z</time>
      </trkpt>
      <trkpt lat="47.29669" lon="-1.7124">
        <ele>50.1</ele>
        <time>2012-10-28T09:27:51Z</time>
      </trkpt>
      <trkpt lat="47.29664" lon="-1.71242">
        <ele>49.8</ele>
        <time>2012-10-28T09:27:54Z</time>
      </trkpt>
      <trkpt lat="47.29657" lon="-1.71246">
        <ele>49.9</ele>
        <time>2012-10-28T09:27:57Z</time>
      </trkpt>
      <trkpt lat="47.29643" lon="-1.71254">
        <ele>50.7</ele>
        <time>2012-10-28T09:28:03Z</time>
      </trkpt>
      <trkpt lat="47.29635" lon="-1.71258">
        <ele>51</ele>
        <time>2012-10-28T09:28:06Z</time>
      </trkpt>
      <trkpt lat="47.29633" lon="-1.7126">
        <ele>51.2</ele>
        <time>2012-10-28T09:28:07Z</time>
      </trkpt>
      <trkpt lat="47.29631" lon="-1.71262">
        <ele>50.9</ele>
        <time>2012-10-28T09:28:08Z</time>
      </trkpt>
      <trkpt lat="47.29629" lon="-1.71265">
        <ele>50.6</ele>
        <time>2012-10-28T09:28:09Z</time>
      </trkpt>
      <trkpt lat="47.29628" lon="-1.71268">
        <ele>50.7</ele>
        <time>2012-10-28T09:28:10Z</time>
      </trkpt>
      <trkpt lat="47.29627" lon="-1.7127">
        <ele>50.7</ele>
        <time>2012-10-28T09:28:11Z</time>
      </trkpt>
      <trkpt lat="47.29627" lon="-1.71272">
        <ele>50.8</ele>
        <time>2012-10-28T09:28:12Z</time>
      </trkpt>
      <trkpt lat="47.29626" lon="-1.71275">
        <ele>51.2</ele>
        <time>2012-10-28T09:28:13Z</time>
      </trkpt>
      <trkpt lat="47.29625" lon="-1.7128">
        <ele>51.9</ele>
        <time>2012-10-28T09:28:15Z</time>
      </trkpt>
      <trkpt lat="47.29624" lon="-1.71282">
        <ele>52.2</ele>
        <time>2012-10-28T09:28:16Z</time>
      </trkpt>
      <trkpt lat="47.29609" lon="-1.71313">
        <ele>55</ele>
        <time>2012-10-28T09:28:29Z</time>
      </trkpt>
      <trkpt lat="47.29608" lon="-1.71316">
        <ele>55.3</ele>
        <time>2012-10-28T09:28:30Z</time>
      </trkpt>
      <trkpt lat="47.29606" lon="-1.71322">
        <ele>56.8</ele>
        <time>2012-10-28T09:28:32Z</time>
      </trkpt>
      <trkpt lat="47.29606" lon="-1.71324">
        <ele>57.3</ele>
        <time>2012-10-28T09:28:33Z</time>
      </trkpt>
      <trkpt lat="47.29606" lon="-1.71327">
        <ele>57.4</ele>
        <time>2012-10-28T09:28:34Z</time>
      </trkpt>
      <trkpt lat="47.29605" lon="-1.7133">
        <ele>57.4</ele>
        <time>2012-10-28T09:28:35Z</time>
      </trkpt>
      <trkpt lat="47.29603" lon="-1.71335">
        <ele>58</ele>
        <time>2012-10-28T09:28:37Z</time>
      </trkpt>
      <trkpt lat="47.29603" lon="-1.71338">
        <ele>58.4</ele>
        <time>2012-10-28T09:28:38Z</time>
      </trkpt>
      <trkpt lat="47.29601" lon="-1.71343">
        <ele>58.4</ele>
        <time>2012-10-28T09:28:40Z</time>
      </trkpt>
      <trkpt lat="47.296" lon="-1.71348">
        <ele>58.5</ele>
        <time>2012-10-28T09:28:42Z</time>
      </trkpt>
      <trkpt lat="47.29594" lon="-1.71363">
        <ele>59.5</ele>
        <time>2012-10-28T09:28:48Z</time>
      </trkpt>
      <trkpt lat="47.29594" lon="-1.71366">
        <ele>59.6</ele>
        <time>2012-10-28T09:28:49Z</time>
      </trkpt>
      <trkpt lat="47.29591" lon="-1.71389">
        <ele>60.8</ele>
        <time>2012-10-28T09:28:56Z</time>
      </trkpt>
      <trkpt lat="47.29589" lon="-1.714">
        <ele>61.1</ele>
        <time>2012-10-28T09:28:59Z</time>
      </trkpt>
      <trkpt lat="47.29589" lon="-1.71403">
        <ele>61.2</ele>
        <time>2012-10-28T09:29:00Z</time>
      </trkpt>
      <trkpt lat="47.29589" lon="-1.71416">
        <ele>62</ele>
        <time>2012-10-28T09:29:04Z</time>
      </trkpt>
      <trkpt lat="47.2959" lon="-1.71423">
        <ele>62.1</ele>
        <time>2012-10-28T09:29:06Z</time>
      </trkpt>
      <trkpt lat="47.2959" lon="-1.71426">
        <ele>62.2</ele>
        <time>2012-10-28T09:29:07Z</time>
      </trkpt>
      <trkpt lat="47.29587" lon="-1.7144">
        <ele>62.3</ele>
        <time>2012-10-28T09:29:11Z</time>
      </trkpt>
      <trkpt lat="47.29586" lon="-1.71447">
        <ele>62.3</ele>
        <time>2012-10-28T09:29:13Z</time>
      </trkpt>
      <trkpt lat="47.29585" lon="-1.71451">
        <ele>62.3</ele>
        <time>2012-10-28T09:29:14Z</time>
      </trkpt>
      <trkpt lat="47.29584" lon="-1.71455">
        <ele>62.4</ele>
        <time>2012-10-28T09:29:15Z</time>
      </trkpt>
      <trkpt lat="47.29579" lon="-1.71498">
        <ele>63.7</ele>
        <time>2012-10-28T09:29:26Z</time>
      </trkpt>
      <trkpt lat="47.29578" lon="-1.71502">
        <ele>63.4</ele>
        <time>2012-10-28T09:29:27Z</time>
      </trkpt>
      <trkpt lat="47.29572" lon="-1.71522">
        <ele>64.4</ele>
        <time>2012-10-28T09:29:32Z</time>
      </trkpt>
      <trkpt lat="47.29571" lon="-1.71526">
        <ele>64.5</ele>
        <time>2012-10-28T09:29:33Z</time>
      </trkpt>
      <trkpt lat="47.29566" lon="-1.71546">
        <ele>65.6</ele>
        <time>2012-10-28T09:29:38Z</time>
      </trkpt>
      <trkpt lat="47.29566" lon="-1.71551">
        <ele>65.8</ele>
        <time>2012-10-28T09:29:39Z</time>
      </trkpt>
      <trkpt lat="47.29566" lon="-1.71556">
        <ele>66</ele>
        <time>2012-10-28T09:29:40Z</time>
      </trkpt>
      <trkpt lat="47.29567" lon="-1.7156">
        <ele>66</ele>
        <time>2012-10-28T09:29:41Z</time>
      </trkpt>
      <trkpt lat="47.29589" lon="-1.71641">
        <ele>67.2</ele>
        <time>2012-10-28T09:30:00Z</time>
      </trkpt>
      <trkpt lat="47.2959" lon="-1.71645">
        <ele>67</ele>
        <time>2012-10-28T09:30:01Z</time>
      </trkpt>
      <trkpt lat="47.2959" lon="-1.71648">
        <ele>66.7</ele>
        <time>2012-10-28T09:30:02Z</time>
      </trkpt>
      <trkpt lat="47.29589" lon="-1.71652">
        <ele>66.4</ele>
        <time>2012-10-28T09:30:03Z</time>
      </trkpt>
      <trkpt lat="47.29587" lon="-1.71655">
        <ele>66.5</ele>
        <time>2012-10-28T09:30:04Z</time>
      </trkpt>
      <trkpt lat="47.29584" lon="-1.71656">
        <ele>66.6</ele>
        <time>2012-10-28T09:30:05Z</time>
      </trkpt>
      <trkpt lat="47.29581" lon="-1.71656">
        <ele>66.7</ele>
        <time>2012-10-28T09:30:06Z</time>
      </trkpt>
      <trkpt lat="47.29557" lon="-1.71661">
        <ele>67.2</ele>
        <time>2012-10-28T09:30:13Z</time>
      </trkpt>
      <trkpt lat="47.29553" lon="-1.71662">
        <ele>67.2</ele>
        <time>2012-10-28T09:30:14Z</time>
      </trkpt>
      <trkpt lat="47.29523" lon="-1.71675">
        <ele>66.9</ele>
        <time>2012-10-28T09:30:21Z</time>
      </trkpt>
      <trkpt lat="47.2952" lon="-1.71677">
        <ele>66.4</ele>
        <time>2012-10-28T09:30:22Z</time>
      </trkpt>
      <trkpt lat="47.29518" lon="-1.71681">
        <ele>66.3</ele>
        <time>2012-10-28T09:30:23Z</time>
      </trkpt>
      <trkpt lat="47.29517" lon="-1.71685">
        <ele>66.2</ele>
        <time>2012-10-28T09:30:24Z</time>
      </trkpt>
      <trkpt lat="47.29518" lon="-1.7169">
        <ele>66.2</ele>
        <time>2012-10-28T09:30:25Z</time>
      </trkpt>
      <trkpt lat="47.2952" lon="-1.71693">
        <ele>66.5</ele>
        <time>2012-10-28T09:30:26Z</time>
      </trkpt>
      <trkpt lat="47.2955" lon="-1.71762">
        <ele>69</ele>
        <time>2012-10-28T09:30:43Z</time>
      </trkpt>
      <trkpt lat="47.29551" lon="-1.71766">
        <ele>69.1</ele>
        <time>2012-10-28T09:30:44Z</time>
      </trkpt>
      <trkpt lat="47.29585" lon="-1.71865">
        <ele>70.1</ele>
        <time>2012-10-28T09:31:03Z</time>
      </trkpt>
      <trkpt lat="47.29587" lon="-1.71872">
        <ele>69.9</ele>
        <time>2012-10-28T09:31:04Z</time>
      </trkpt>
      <trkpt lat="47.2959" lon="-1.71892">
        <ele>70</ele>
        <time>2012-10-28T09:31:07Z</time>
      </trkpt>
      <trkpt lat="47.29593" lon="-1.71918">
        <ele>69.8</ele>
        <time>2012-10-28T09:31:11Z</time>
      </trkpt>
      <trkpt lat="47.29593" lon="-1.71925">
        <ele>69.7</ele>
        <time>2012-10-28T09:31:12Z</time>
      </trkpt>
      <trkpt lat="47.29592" lon="-1.71951">
        <ele>69.9</ele>
        <time>2012-10-28T09:31:16Z</time>
      </trkpt>
      <trkpt lat="47.29589" lon="-1.72085">
        <ele>70.2</ele>
        <time>2012-10-28T09:31:37Z</time>
      </trkpt>
      <trkpt lat="47.29587" lon="-1.72091">
        <ele>69.8</ele>
        <time>2012-10-28T09:31:38Z</time>
      </trkpt>
      <trkpt lat="47.29585" lon="-1.72097">
        <ele>70.2</ele>
        <time>2012-10-28T09:31:39Z</time>
      </trkpt>
      <trkpt lat="47.29575" lon="-1.7212">
        <ele>70.9</ele>
        <time>2012-10-28T09:31:43Z</time>
      </trkpt>
      <trkpt lat="47.29573" lon="-1.72125">
        <ele>70.3</ele>
        <time>2012-10-28T09:31:44Z</time>
      </trkpt>
      <trkpt lat="47.29564" lon="-1.72139">
        <ele>69.8</ele>
        <time>2012-10-28T09:31:47Z</time>
      </trkpt>
      <trkpt lat="47.29561" lon="-1.72143">
        <ele>69.7</ele>
        <time>2012-10-28T09:31:48Z</time>
      </trkpt>
      <trkpt lat="47.29506" lon="-1.72219">
        <ele>71.3</ele>
        <time>2012-10-28T09:32:05Z</time>
      </trkpt>
      <trkpt lat="47.29504" lon="-1.72224">
        <ele>71.5</ele>
        <time>2012-10-28T09:32:06Z</time>
      </trkpt>
      <trkpt lat="47.29484" lon="-1.72266">
        <ele>72.1</ele>
        <time>2012-10-28T09:32:15Z</time>
      </trkpt>
      <trkpt lat="47.29482" lon="-1.72271">
        <ele>72.3</ele>
        <time>2012-10-28T09:32:16Z</time>
      </trkpt>
      <trkpt lat="47.29457" lon="-1.72338">
        <ele>74.3</ele>
        <time>2012-10-28T09:32:30Z</time>
      </trkpt>
      <trkpt lat="47.29455" lon="-1.72342">
        <ele>74.3</ele>
        <time>2012-10-28T09:32:31Z</time>
      </trkpt>
      <trkpt lat="47.29453" lon="-1.72346">
        <ele>74.8</ele>
        <time>2012-10-28T09:32:32Z</time>
      </trkpt>
      <trkpt lat="47.29447" lon="-1.72354">
        <ele>75</ele>
        <time>2012-10-28T09:32:34Z</time>
      </trkpt>
      <trkpt lat="47.29441" lon="-1.72361">
        <ele>74.9</ele>
        <time>2012-10-28T09:32:36Z</time>
      </trkpt>
      <trkpt lat="47.29438" lon="-1.72364">
        <ele>74.9</ele>
        <time>2012-10-28T09:32:37Z</time>
      </trkpt>
      <trkpt lat="47.29427" lon="-1.72371">
        <ele>74.8</ele>
        <time>2012-10-28T09:32:40Z</time>
      </trkpt>
      <trkpt lat="47.29424" lon="-1.72372">
        <ele>75</ele>
        <time>2012-10-28T09:32:41Z</time>
      </trkpt>
      <trkpt lat="47.2942" lon="-1.72374">
        <ele>75.1</ele>
        <time>2012-10-28T09:32:42Z</time>
      </trkpt>
      <trkpt lat="47.29408" lon="-1.72377">
        <ele>75.9</ele>
        <time>2012-10-28T09:32:45Z</time>
      </trkpt>
      <trkpt lat="47.29404" lon="-1.72377">
        <ele>75.8</ele>
        <time>2012-10-28T09:32:46Z</time>
      </trkpt>
      <trkpt lat="47.29393" lon="-1.72379">
        <ele>76.1</ele>
        <time>2012-10-28T09:32:49Z</time>
      </trkpt>
      <trkpt lat="47.29389" lon="-1.72381">
        <ele>76.2</ele>
        <time>2012-10-28T09:32:50Z</time>
      </trkpt>
      <trkpt lat="47.29353" lon="-1.72407">
        <ele>76.3</ele>
        <time>2012-10-28T09:32:59Z</time>
      </trkpt>
      <trkpt lat="47.29348" lon="-1.72409">
        <ele>76.3</ele>
        <time>2012-10-28T09:33:00Z</time>
      </trkpt>
      <trkpt lat="47.29343" lon="-1.72409">
        <ele>76.3</ele>
        <time>2012-10-28T09:33:01Z</time>
      </trkpt>
      <trkpt lat="47.29339" lon="-1.72405">
        <ele>76.2</ele>
        <time>2012-10-28T09:33:02Z</time>
      </trkpt>
      <trkpt lat="47.29337" lon="-1.724">
        <ele>76.2</ele>
        <time>2012-10-28T09:33:03Z</time>
      </trkpt>
      <trkpt lat="47.29336" lon="-1.72393">
        <ele>76.2</ele>
        <time>2012-10-28T09:33:04Z</time>
      </trkpt>
      <trkpt lat="47.29334" lon="-1.72373">
        <ele>76.2</ele>
        <time>2012-10-28T09:33:07Z</time>
      </trkpt>
      <trkpt lat="47.29332" lon="-1.72366">
        <ele>76.2</ele>
        <time>2012-10-28T09:33:08Z</time>
      </trkpt>
      <trkpt lat="47.29329" lon="-1.7236">
        <ele>76.2</ele>
        <time>2012-10-28T09:33:09Z</time>
      </trkpt>
      <trkpt lat="47.29325" lon="-1.72356">
        <ele>76.2</ele>
        <time>2012-10-28T09:33:10Z</time>
      </trkpt>
      <trkpt lat="47.29314" lon="-1.72346">
        <ele>75.6</ele>
        <time>2012-10-28T09:33:13Z</time>
      </trkpt>
      <trkpt lat="47.29311" lon="-1.72344">
        <ele>75.2</ele>
        <time>2012-10-28T09:33:14Z</time>
      </trkpt>
      <trkpt lat="47.29305" lon="-1.72339">
        <ele>74.6</ele>
        <time>2012-10-28T09:33:16Z</time>
      </trkpt>
      <trkpt lat="47.29298" lon="-1.72333">
        <ele>74.3</ele>
        <time>2012-10-28T09:33:18Z</time>
      </trkpt>
      <trkpt lat="47.29293" lon="-1.72328">
        <ele>74.1</ele>
        <time>2012-10-28T09:33:20Z</time>
      </trkpt>
      <trkpt lat="47.29288" lon="-1.72325">
        <ele>73.3</ele>
        <time>2012-10-28T09:33:22Z</time>
      </trkpt>
      <trkpt lat="47.29287" lon="-1.72321">
        <ele>73.1</ele>
        <time>2012-10-28T09:33:23Z</time>
      </trkpt>
      <trkpt lat="47.29286" lon="-1.72316">
        <ele>72.9</ele>
        <time>2012-10-28T09:33:24Z</time>
      </trkpt>
      <trkpt lat="47.29285" lon="-1.7231">
        <ele>72.8</ele>
        <time>2012-10-28T09:33:25Z</time>
      </trkpt>
      <trkpt lat="47.29284" lon="-1.72278">
        <ele>73</ele>
        <time>2012-10-28T09:33:30Z</time>
      </trkpt>
      <trkpt lat="47.29283" lon="-1.72271">
        <ele>72.5</ele>
        <time>2012-10-28T09:33:31Z</time>
      </trkpt>
      <trkpt lat="47.29281" lon="-1.72264">
        <ele>72.2</ele>
        <time>2012-10-28T09:33:32Z</time>
      </trkpt>
      <trkpt lat="47.29279" lon="-1.72258">
        <ele>72.3</ele>
        <time>2012-10-28T09:33:33Z</time>
      </trkpt>
      <trkpt lat="47.29276" lon="-1.72253">
        <ele>72.3</ele>
        <time>2012-10-28T09:33:34Z</time>
      </trkpt>
      <trkpt lat="47.29273" lon="-1.72247">
        <ele>72.3</ele>
        <time>2012-10-28T09:33:35Z</time>
      </trkpt>
      <trkpt lat="47.29269" lon="-1.72243">
        <ele>71.9</ele>
        <time>2012-10-28T09:33:36Z</time>
      </trkpt>
      <trkpt lat="47.29265" lon="-1.72239">
        <ele>71.6</ele>
        <time>2012-10-28T09:33:37Z</time>
      </trkpt>
      <trkpt lat="47.29253" lon="-1.72228">
        <ele>71.6</ele>
        <time>2012-10-28T09:33:40Z</time>
      </trkpt>
      <trkpt lat="47.29249" lon="-1.72223">
        <ele>71.7</ele>
        <time>2012-10-28T09:33:41Z</time>
      </trkpt>
      <trkpt lat="47.29246" lon="-1.72218">
        <ele>71.7</ele>
        <time>2012-10-28T09:33:42Z</time>
      </trkpt>
      <trkpt lat="47.29233" lon="-1.7219">
        <ele>72.9</ele>
        <time>2012-10-28T09:33:47Z</time>
      </trkpt>
      <trkpt lat="47.29218" lon="-1.72153">
        <ele>72.3</ele>
        <time>2012-10-28T09:33:53Z</time>
      </trkpt>
      <trkpt lat="47.29216" lon="-1.72147">
        <ele>72.2</ele>
        <time>2012-10-28T09:33:54Z</time>
      </trkpt>
      <trkpt lat="47.29197" lon="-1.72085">
        <ele>72.1</ele>
        <time>2012-10-28T09:34:04Z</time>
      </trkpt>
      <trkpt lat="47.29169" lon="-1.71976">
        <ele>72.8</ele>
        <time>2012-10-28T09:34:20Z</time>
      </trkpt>
      <trkpt lat="47.29166" lon="-1.71969">
        <ele>72.4</ele>
        <time>2012-10-28T09:34:21Z</time>
      </trkpt>
      <trkpt lat="47.2916" lon="-1.71956">
        <ele>72.1</ele>
        <time>2012-10-28T09:34:23Z</time>
      </trkpt>
      <trkpt lat="47.29157" lon="-1.7195">
        <ele>72.1</ele>
        <time>2012-10-28T09:34:24Z</time>
      </trkpt>
      <trkpt lat="47.29149" lon="-1.71938">
        <ele>71.4</ele>
        <time>2012-10-28T09:34:26Z</time>
      </trkpt>
      <trkpt lat="47.29144" lon="-1.71932">
        <ele>71.2</ele>
        <time>2012-10-28T09:34:27Z</time>
      </trkpt>
      <trkpt lat="47.29139" lon="-1.71928">
        <ele>70.5</ele>
        <time>2012-10-28T09:34:28Z</time>
      </trkpt>
      <trkpt lat="47.29133" lon="-1.71924">
        <ele>70.1</ele>
        <time>2012-10-28T09:34:29Z</time>
      </trkpt>
      <trkpt lat="47.29127" lon="-1.71922">
        <ele>69.6</ele>
        <time>2012-10-28T09:34:30Z</time>
      </trkpt>
      <trkpt lat="47.29121" lon="-1.71922">
        <ele>69.2</ele>
        <time>2012-10-28T09:34:31Z</time>
      </trkpt>
      <trkpt lat="47.29114" lon="-1.71923">
        <ele>68.9</ele>
        <time>2012-10-28T09:34:32Z</time>
      </trkpt>
      <trkpt lat="47.29108" lon="-1.71925">
        <ele>68.7</ele>
        <time>2012-10-28T09:34:33Z</time>
      </trkpt>
      <trkpt lat="47.29086" lon="-1.71937">
        <ele>67.8</ele>
        <time>2012-10-28T09:34:37Z</time>
      </trkpt>
      <trkpt lat="47.29081" lon="-1.71937">
        <ele>67.6</ele>
        <time>2012-10-28T09:34:38Z</time>
      </trkpt>
      <trkpt lat="47.29075" lon="-1.71937">
        <ele>67.5</ele>
        <time>2012-10-28T09:34:39Z</time>
      </trkpt>
      <trkpt lat="47.29071" lon="-1.71935">
        <ele>67.3</ele>
        <time>2012-10-28T09:34:40Z</time>
      </trkpt>
      <trkpt lat="47.29067" lon="-1.7193">
        <ele>67.1</ele>
        <time>2012-10-28T09:34:41Z</time>
      </trkpt>
      <trkpt lat="47.29065" lon="-1.71924">
        <ele>67.4</ele>
        <time>2012-10-28T09:34:42Z</time>
      </trkpt>
      <trkpt lat="47.29065" lon="-1.71917">
        <ele>67.7</ele>
        <time>2012-10-28T09:34:43Z</time>
      </trkpt>
      <trkpt lat="47.29067" lon="-1.71911">
        <ele>67.9</ele>
        <time>2012-10-28T09:34:44Z</time>
      </trkpt>
      <trkpt lat="47.29086" lon="-1.71855">
        <ele>67.5</ele>
        <time>2012-10-28T09:34:53Z</time>
      </trkpt>
      <trkpt lat="47.29087" lon="-1.71848">
        <ele>67.5</ele>
        <time>2012-10-28T09:34:54Z</time>
      </trkpt>
      <trkpt lat="47.29088" lon="-1.71841">
        <ele>67.6</ele>
        <time>2012-10-28T09:34:55Z</time>
      </trkpt>
      <trkpt lat="47.29089" lon="-1.71834">
        <ele>67.5</ele>
        <time>2012-10-28T09:34:56Z</time>
      </trkpt>
      <trkpt lat="47.29089" lon="-1.71826">
        <ele>67.5</ele>
        <time>2012-10-28T09:34:57Z</time>
      </trkpt>
      <trkpt lat="47.29088" lon="-1.71819">
        <ele>67.4</ele>
        <time>2012-10-28T09:34:58Z</time>
      </trkpt>
      <trkpt lat="47.29086" lon="-1.71798">
        <ele>67.3</ele>
        <time>2012-10-28T09:35:01Z</time>
      </trkpt>
      <trkpt lat="47.29082" lon="-1.71771">
        <ele>67</ele>
        <time>2012-10-28T09:35:05Z</time>
      </trkpt>
      <trkpt lat="47.29082" lon="-1.71764">
        <ele>67.2</ele>
        <time>2012-10-28T09:35:06Z</time>
      </trkpt>
      <trkpt lat="47.29083" lon="-1.71757">
        <ele>67.3</ele>
        <time>2012-10-28T09:35:07Z</time>
      </trkpt>
      <trkpt lat="47.29084" lon="-1.71751">
        <ele>67.2</ele>
        <time>2012-10-28T09:35:08Z</time>
      </trkpt>
      <trkpt lat="47.29086" lon="-1.71744">
        <ele>67.2</ele>
        <time>2012-10-28T09:35:09Z</time>
      </trkpt>
      <trkpt lat="47.29088" lon="-1.71738">
        <ele>67.5</ele>
        <time>2012-10-28T09:35:10Z</time>
      </trkpt>
      <trkpt lat="47.29091" lon="-1.71733">
        <ele>67.8</ele>
        <time>2012-10-28T09:35:11Z</time>
      </trkpt>
      <trkpt lat="47.29094" lon="-1.71727">
        <ele>68</ele>
        <time>2012-10-28T09:35:12Z</time>
      </trkpt>
      <trkpt lat="47.29097" lon="-1.71723">
        <ele>68.1</ele>
        <time>2012-10-28T09:35:13Z</time>
      </trkpt>
      <trkpt lat="47.29126" lon="-1.71683">
        <ele>68.6</ele>
        <time>2012-10-28T09:35:22Z</time>
      </trkpt>
      <trkpt lat="47.29129" lon="-1.71677">
        <ele>68.9</ele>
        <time>2012-10-28T09:35:23Z</time>
      </trkpt>
      <trkpt lat="47.29138" lon="-1.71655">
        <ele>69.9</ele>
        <time>2012-10-28T09:35:27Z</time>
      </trkpt>
      <trkpt lat="47.29139" lon="-1.71649">
        <ele>69.9</ele>
        <time>2012-10-28T09:35:28Z</time>
      </trkpt>
      <trkpt lat="47.29138" lon="-1.71643">
        <ele>70.1</ele>
        <time>2012-10-28T09:35:29Z</time>
      </trkpt>
      <trkpt lat="47.29136" lon="-1.71638">
        <ele>70.2</ele>
        <time>2012-10-28T09:35:30Z</time>
      </trkpt>
      <trkpt lat="47.29133" lon="-1.71634">
        <ele>70.3</ele>
        <time>2012-10-28T09:35:31Z</time>
      </trkpt>
      <trkpt lat="47.29129" lon="-1.71632">
        <ele>69.9</ele>
        <time>2012-10-28T09:35:32Z</time>
      </trkpt>
      <trkpt lat="47.29127" lon="-1.71629">
        <ele>69.6</ele>
        <time>2012-10-28T09:35:33Z</time>
      </trkpt>
      <trkpt lat="47.29124" lon="-1.71625">
        <ele>69.7</ele>
        <time>2012-10-28T09:35:34Z</time>
      </trkpt>
      <trkpt lat="47.29123" lon="-1.71621">
        <ele>69.7</ele>
        <time>2012-10-28T09:35:35Z</time>
      </trkpt>
      <trkpt lat="47.29122" lon="-1.71617">
        <ele>69.7</ele>
        <time>2012-10-28T09:35:36Z</time>
      </trkpt>
      <trkpt lat="47.29121" lon="-1.71613">
        <ele>69.7</ele>
        <time>2012-10-28T09:35:37Z</time>
      </trkpt>
      <trkpt lat="47.29121" lon="-1.71608">
        <ele>69.7</ele>
        <time>2012-10-28T09:35:38Z</time>
      </trkpt>
      <trkpt lat="47.2912" lon="-1.71605">
        <ele>69.5</ele>
        <time>2012-10-28T09:35:39Z</time>
      </trkpt>
      <trkpt lat="47.29111" lon="-1.71579">
        <ele>69.9</ele>
        <time>2012-10-28T09:35:45Z</time>
      </trkpt>
      <trkpt lat="47.29109" lon="-1.71574">
        <ele>70.4</ele>
        <time>2012-10-28T09:35:46Z</time>
      </trkpt>
      <trkpt lat="47.29079" lon="-1.71509">
        <ele>70.5</ele>
        <time>2012-10-28T09:36:02Z</time>
      </trkpt>
      <trkpt lat="47.29078" lon="-1.71506">
        <ele>70.1</ele>
        <time>2012-10-28T09:36:03Z</time>
      </trkpt>
      <trkpt lat="47.29064" lon="-1.71473">
        <ele>68.3</ele>
        <time>2012-10-28T09:36:15Z</time>
      </trkpt>
      <trkpt lat="47.29061" lon="-1.71463">
        <ele>68</ele>
        <time>2012-10-28T09:36:19Z</time>
      </trkpt>
      <trkpt lat="47.2906" lon="-1.71457">
        <ele>68.4</ele>
        <time>2012-10-28T09:36:21Z</time>
      </trkpt>
      <trkpt lat="47.29059" lon="-1.71452">
        <ele>68.1</ele>
        <time>2012-10-28T09:36:23Z</time>
      </trkpt>
      <trkpt lat="47.29058" lon="-1.71449">
        <ele>68.2</ele>
        <time>2012-10-28T09:36:25Z</time>
      </trkpt>
      <trkpt lat="47.29057" lon="-1.71449">
        <ele>68.1</ele>
        <time>2012-10-28T09:36:26Z</time>
      </trkpt>
      <trkpt lat="47.29057" lon="-1.71446">
        <ele>67.9</ele>
        <time>2012-10-28T09:36:28Z</time>
      </trkpt>
      <trkpt lat="47.29056" lon="-1.71442">
        <ele>68.1</ele>
        <time>2012-10-28T09:36:30Z</time>
      </trkpt>
      <trkpt lat="47.29055" lon="-1.71441">
        <ele>68.4</ele>
        <time>2012-10-28T09:36:31Z</time>
      </trkpt>
      <trkpt lat="47.29055" lon="-1.71438">
        <ele>68.8</ele>
        <time>2012-10-28T09:36:33Z</time>
      </trkpt>
      <trkpt lat="47.29055" lon="-1.71437">
        <ele>68.7</ele>
        <time>2012-10-28T09:36:34Z</time>
      </trkpt>
      <trkpt lat="47.29055" lon="-1.71437">
        <ele>68.7</ele>
        <time>2012-10-28T09:36:35Z</time>
      </trkpt>
      <trkpt lat="47.29052" lon="-1.71425">
        <ele>67.8</ele>
        <time>2012-10-28T09:36:41Z</time>
      </trkpt>
      <trkpt lat="47.29051" lon="-1.71421">
        <ele>67.7</ele>
        <time>2012-10-28T09:36:43Z</time>
      </trkpt>
      <trkpt lat="47.29051" lon="-1.71418">
        <ele>67.9</ele>
        <time>2012-10-28T09:36:44Z</time>
      </trkpt>
      <trkpt lat="47.2905" lon="-1.71415">
        <ele>68.3</ele>
        <time>2012-10-28T09:36:45Z</time>
      </trkpt>
      <trkpt lat="47.29049" lon="-1.71413">
        <ele>68.6</ele>
        <time>2012-10-28T09:36:46Z</time>
      </trkpt>
      <trkpt lat="47.29048" lon="-1.7141">
        <ele>68.8</ele>
        <time>2012-10-28T09:36:47Z</time>
      </trkpt>
      <trkpt lat="47.29039" lon="-1.71393">
        <ele>68.5</ele>
        <time>2012-10-28T09:36:53Z</time>
      </trkpt>
      <trkpt lat="47.29037" lon="-1.71391">
        <ele>68.5</ele>
        <time>2012-10-28T09:36:54Z</time>
      </trkpt>
      <trkpt lat="47.29035" lon="-1.71391">
        <ele>68.7</ele>
        <time>2012-10-28T09:36:55Z</time>
      </trkpt>
      <trkpt lat="47.29033" lon="-1.7139">
        <ele>68.8</ele>
        <time>2012-10-28T09:36:56Z</time>
      </trkpt>
      <trkpt lat="47.2903" lon="-1.7139">
        <ele>68.6</ele>
        <time>2012-10-28T09:36:58Z</time>
      </trkpt>
      <trkpt lat="47.29029" lon="-1.7139">
        <ele>68.6</ele>
        <time>2012-10-28T09:36:59Z</time>
      </trkpt>
      <trkpt lat="47.29026" lon="-1.71391">
        <ele>68.2</ele>
        <time>2012-10-28T09:37:01Z</time>
      </trkpt>
      <trkpt lat="47.29024" lon="-1.71392">
        <ele>68.3</ele>
        <time>2012-10-28T09:37:02Z</time>
      </trkpt>
      <trkpt lat="47.29023" lon="-1.71393">
        <ele>68.4</ele>
        <time>2012-10-28T09:37:03Z</time>
      </trkpt>
      <trkpt lat="47.2902" lon="-1.71396">
        <ele>68.9</ele>
        <time>2012-10-28T09:37:05Z</time>
      </trkpt>
      <trkpt lat="47.2902" lon="-1.71396">
        <ele>69</ele>
        <time>2012-10-28T09:37:06Z</time>
      </trkpt>
      <trkpt lat="47.29019" lon="-1.71397">
        <ele>69.2</ele>
        <time>2012-10-28T09:37:07Z</time>
      </trkpt>
      <trkpt lat="47.29019" lon="-1.71397">
        <ele>69.3</ele>
        <time>2012-10-28T09:37:08Z</time>
      </trkpt>
      <trkpt lat="47.29018" lon="-1.71397">
        <ele>69.1</ele>
        <time>2012-10-28T09:37:09Z</time>
      </trkpt>
      <trkpt lat="47.29018" lon="-1.71397">
        <ele>68.9</ele>
        <time>2012-10-28T09:37:10Z</time>
      </trkpt>
      <trkpt lat="47.29017" lon="-1.71397">
        <ele>68.7</ele>
        <time>2012-10-28T09:37:11Z</time>
      </trkpt>
      <trkpt lat="47.29017" lon="-1.71398">
        <ele>69.1</ele>
        <time>2012-10-28T09:37:12Z</time>
      </trkpt>
      <trkpt lat="47.29016" lon="-1.71398">
        <ele>69.3</ele>
        <time>2012-10-28T09:37:13Z</time>
      </trkpt>
      <trkpt lat="47.29015" lon="-1.71398">
        <ele>69.3</ele>
        <time>2012-10-28T09:37:14Z</time>
      </trkpt>
      <trkpt lat="47.29008" lon="-1.71397">
        <ele>69.3</ele>
        <time>2012-10-28T09:37:18Z</time>
      </trkpt>
      <trkpt lat="47.29006" lon="-1.71396">
        <ele>69.5</ele>
        <time>2012-10-28T09:37:19Z</time>
      </trkpt>
      <trkpt lat="47.29004" lon="-1.71395">
        <ele>69.6</ele>
        <time>2012-10-28T09:37:20Z</time>
      </trkpt>
      <trkpt lat="47.29001" lon="-1.71393">
        <ele>69.6</ele>
        <time>2012-10-28T09:37:22Z</time>
      </trkpt>
      <trkpt lat="47.29" lon="-1.71392">
        <ele>69.7</ele>
        <time>2012-10-28T09:37:23Z</time>
      </trkpt>
      <trkpt lat="47.28996" lon="-1.71391">
        <ele>69.9</ele>
        <time>2012-10-28T09:37:25Z</time>
      </trkpt>
      <trkpt lat="47.28987" lon="-1.71389">
        <ele>69.8</ele>
        <time>2012-10-28T09:37:30Z</time>
      </trkpt>
      <trkpt lat="47.28985" lon="-1.71388">
        <ele>69.6</ele>
        <time>2012-10-28T09:37:31Z</time>
      </trkpt>
      <trkpt lat="47.28982" lon="-1.71385">
        <ele>69.5</ele>
        <time>2012-10-28T09:37:33Z</time>
      </trkpt>
      <trkpt lat="47.28979" lon="-1.71383">
        <ele>69.7</ele>
        <time>2012-10-28T09:37:35Z</time>
      </trkpt>
      <trkpt lat="47.28975" lon="-1.71379">
        <ele>69.6</ele>
        <time>2012-10-28T09:37:38Z</time>
      </trkpt>
      <trkpt lat="47.28974" lon="-1.71378">
        <ele>69.5</ele>
        <time>2012-10-28T09:37:39Z</time>
      </trkpt>
      <trkpt lat="47.28974" lon="-1.71378">
        <ele>69.3</ele>
        <time>2012-10-28T09:37:40Z</time>
      </trkpt>
      <trkpt lat="47.28973" lon="-1.71377">
        <ele>69.1</ele>
        <time>2012-10-28T09:37:41Z</time>
      </trkpt>
      <trkpt lat="47.28973" lon="-1.71377">
        <ele>69.6</ele>
        <time>2012-10-28T09:37:42Z</time>
      </trkpt>
      <trkpt lat="47.28972" lon="-1.71376">
        <ele>70.1</ele>
        <time>2012-10-28T09:37:43Z</time>
      </trkpt>
      <trkpt lat="47.28971" lon="-1.71376">
        <ele>70.4</ele>
        <time>2012-10-28T09:37:44Z</time>
      </trkpt>
      <trkpt lat="47.2897" lon="-1.71375">
        <ele>70</ele>
        <time>2012-10-28T09:37:45Z</time>
      </trkpt>
      <trkpt lat="47.28969" lon="-1.71374">
        <ele>69.8</ele>
        <time>2012-10-28T09:37:46Z</time>
      </trkpt>
      <trkpt lat="47.28968" lon="-1.71373">
        <ele>69.9</ele>
        <time>2012-10-28T09:37:47Z</time>
      </trkpt>
      <trkpt lat="47.28967" lon="-1.71372">
        <ele>69.9</ele>
        <time>2012-10-28T09:37:48Z</time>
      </trkpt>
      <trkpt lat="47.28967" lon="-1.71371">
        <ele>70</ele>
        <time>2012-10-28T09:37:49Z</time>
      </trkpt>
      <trkpt lat="47.28966" lon="-1.7137">
        <ele>69.7</ele>
        <time>2012-10-28T09:37:50Z</time>
      </trkpt>
      <trkpt lat="47.28965" lon="-1.71369">
        <ele>69.5</ele>
        <time>2012-10-28T09:37:51Z</time>
      </trkpt>
      <trkpt lat="47.28963" lon="-1.71367">
        <ele>69.8</ele>
        <time>2012-10-28T09:37:53Z</time>
      </trkpt>
      <trkpt lat="47.28962" lon="-1.71366">
        <ele>69.9</ele>
        <time>2012-10-28T09:37:54Z</time>
      </trkpt>
      <trkpt lat="47.2896" lon="-1.71364">
        <ele>70</ele>
        <time>2012-10-28T09:37:56Z</time>
      </trkpt>
      <trkpt lat="47.28959" lon="-1.71363">
        <ele>70</ele>
        <time>2012-10-28T09:37:57Z</time>
      </trkpt>
      <trkpt lat="47.28954" lon="-1.71359">
        <ele>70.1</ele>
        <time>2012-10-28T09:38:01Z</time>
      </trkpt>
      <trkpt lat="47.28952" lon="-1.71356">
        <ele>69.8</ele>
        <time>2012-10-28T09:38:03Z</time>
      </trkpt>
      <trkpt lat="47.28944" lon="-1.71349">
        <ele>70.1</ele>
        <time>2012-10-28T09:38:08Z</time>
      </trkpt>
      <trkpt lat="47.28943" lon="-1.71347">
        <ele>70</ele>
        <time>2012-10-28T09:38:09Z</time>
      </trkpt>
      <trkpt lat="47.2894" lon="-1.71345">
        <ele>70</ele>
        <time>2012-10-28T09:38:11Z</time>
      </trkpt>
      <trkpt lat="47.28939" lon="-1.71344">
        <ele>70.1</ele>
        <time>2012-10-28T09:38:12Z</time>
      </trkpt>
      <trkpt lat="47.28932" lon="-1.71339">
        <ele>70.1</ele>
        <time>2012-10-28T09:38:17Z</time>
      </trkpt>
      <trkpt lat="47.28931" lon="-1.71338">
        <ele>70.2</ele>
        <time>2012-10-28T09:38:18Z</time>
      </trkpt>
      <trkpt lat="47.2893" lon="-1.71338">
        <ele>70.3</ele>
        <time>2012-10-28T09:38:19Z</time>
      </trkpt>
      <trkpt lat="47.2893" lon="-1.71338">
        <ele>70.5</ele>
        <time>2012-10-28T09:38:20Z</time>
      </trkpt>
      <trkpt lat="47.28929" lon="-1.71337">
        <ele>70.6</ele>
        <time>2012-10-28T09:38:21Z</time>
      </trkpt>
      <trkpt lat="47.28928" lon="-1.71337">
        <ele>70.7</ele>
        <time>2012-10-28T09:38:22Z</time>
      </trkpt>
      <trkpt lat="47.28926" lon="-1.71335">
        <ele>70.9</ele>
        <time>2012-10-28T09:38:24Z</time>
      </trkpt>
      <trkpt lat="47.28925" lon="-1.71334">
        <ele>71</ele>
        <time>2012-10-28T09:38:25Z</time>
      </trkpt>
      <trkpt lat="47.28925" lon="-1.71333">
        <ele>71.1</ele>
        <time>2012-10-28T09:38:26Z</time>
      </trkpt>
      <trkpt lat="47.28924" lon="-1.71333">
        <ele>71.2</ele>
        <time>2012-10-28T09:38:27Z</time>
      </trkpt>
      <trkpt lat="47.28924" lon="-1.71333">
        <ele>71.2</ele>
        <time>2012-10-28T09:38:28Z</time>
      </trkpt>
      <trkpt lat="47.28924" lon="-1.71333">
        <ele>71.2</ele>
        <time>2012-10-28T09:38:29Z</time>
      </trkpt>
      <trkpt lat="47.28923" lon="-1.71332">
        <ele>71.2</ele>
        <time>2012-10-28T09:38:30Z</time>
      </trkpt>
      <trkpt lat="47.28923" lon="-1.71332">
        <ele>71.1</ele>
        <time>2012-10-28T09:38:31Z</time>
      </trkpt>
      <trkpt lat="47.28922" lon="-1.71331">
        <ele>71.1</ele>
        <time>2012-10-28T09:38:32Z</time>
      </trkpt>
      <trkpt lat="47.28922" lon="-1.71331">
        <ele>71.1</ele>
        <time>2012-10-28T09:38:33Z</time>
      </trkpt>
      <trkpt lat="47.2892" lon="-1.7133">
        <ele>71.2</ele>
        <time>2012-10-28T09:38:35Z</time>
      </trkpt>
      <trkpt lat="47.28919" lon="-1.71329">
        <ele>71.3</ele>
        <time>2012-10-28T09:38:36Z</time>
      </trkpt>
      <trkpt lat="47.28918" lon="-1.71329">
        <ele>71.3</ele>
        <time>2012-10-28T09:38:37Z</time>
      </trkpt>
      <trkpt lat="47.28917" lon="-1.71328">
        <ele>71.4</ele>
        <time>2012-10-28T09:38:38Z</time>
      </trkpt>
      <trkpt lat="47.28916" lon="-1.71328">
        <ele>71.2</ele>
        <time>2012-10-28T09:38:39Z</time>
      </trkpt>
      <trkpt lat="47.28913" lon="-1.71325">
        <ele>70.5</ele>
        <time>2012-10-28T09:38:42Z</time>
      </trkpt>
      <trkpt lat="47.28913" lon="-1.71325">
        <ele>70.2</ele>
        <time>2012-10-28T09:38:43Z</time>
      </trkpt>
      <trkpt lat="47.28912" lon="-1.71325">
        <ele>70.7</ele>
        <time>2012-10-28T09:38:44Z</time>
      </trkpt>
      <trkpt lat="47.28911" lon="-1.71324">
        <ele>71</ele>
        <time>2012-10-28T09:38:45Z</time>
      </trkpt>
      <trkpt lat="47.2891" lon="-1.71324">
        <ele>71</ele>
        <time>2012-10-28T09:38:46Z</time>
      </trkpt>
      <trkpt lat="47.2891" lon="-1.71323">
        <ele>71</ele>
        <time>2012-10-28T09:38:47Z</time>
      </trkpt>
      <trkpt lat="47.28909" lon="-1.71323">
        <ele>71</ele>
        <time>2012-10-28T09:38:48Z</time>
      </trkpt>
      <trkpt lat="47.28906" lon="-1.71321">
        <ele>70.6</ele>
        <time>2012-10-28T09:38:51Z</time>
      </trkpt>
      <trkpt lat="47.28905" lon="-1.71319">
        <ele>70.4</ele>
        <time>2012-10-28T09:38:53Z</time>
      </trkpt>
      <trkpt lat="47.28904" lon="-1.71319">
        <ele>70.4</ele>
        <time>2012-10-28T09:38:54Z</time>
      </trkpt>
      <trkpt lat="47.28903" lon="-1.71319">
        <ele>70.4</ele>
        <time>2012-10-28T09:38:55Z</time>
      </trkpt>
      <trkpt lat="47.28903" lon="-1.71318">
        <ele>70.5</ele>
        <time>2012-10-28T09:38:56Z</time>
      </trkpt>
      <trkpt lat="47.28902" lon="-1.71317">
        <ele>70.6</ele>
        <time>2012-10-28T09:38:57Z</time>
      </trkpt>
      <trkpt lat="47.28901" lon="-1.71317">
        <ele>70.6</ele>
        <time>2012-10-28T09:38:58Z</time>
      </trkpt>
      <trkpt lat="47.289" lon="-1.71316">
        <ele>70.7</ele>
        <time>2012-10-28T09:38:59Z</time>
      </trkpt>
      <trkpt lat="47.28899" lon="-1.71316">
        <ele>70.7</ele>
        <time>2012-10-28T09:39:00Z</time>
      </trkpt>
      <trkpt lat="47.28897" lon="-1.71316">
        <ele>70.5</ele>
        <time>2012-10-28T09:39:01Z</time>
      </trkpt>
      <trkpt lat="47.28893" lon="-1.71313">
        <ele>71.2</ele>
        <time>2012-10-28T09:39:04Z</time>
      </trkpt>
      <trkpt lat="47.28892" lon="-1.71312">
        <ele>71.4</ele>
        <time>2012-10-28T09:39:05Z</time>
      </trkpt>
      <trkpt lat="47.2889" lon="-1.71311">
        <ele>71.6</ele>
        <time>2012-10-28T09:39:07Z</time>
      </trkpt>
      <trkpt lat="47.28889" lon="-1.7131">
        <ele>71.8</ele>
        <time>2012-10-28T09:39:08Z</time>
      </trkpt>
      <trkpt lat="47.28887" lon="-1.71308">
        <ele>71.6</ele>
        <time>2012-10-28T09:39:10Z</time>
      </trkpt>
      <trkpt lat="47.28886" lon="-1.71308">
        <ele>71.3</ele>
        <time>2012-10-28T09:39:11Z</time>
      </trkpt>
      <trkpt lat="47.28885" lon="-1.71307">
        <ele>71.1</ele>
        <time>2012-10-28T09:39:12Z</time>
      </trkpt>
      <trkpt lat="47.28884" lon="-1.71306">
        <ele>71.6</ele>
        <time>2012-10-28T09:39:13Z</time>
      </trkpt>
      <trkpt lat="47.28879" lon="-1.71303">
        <ele>72.5</ele>
        <time>2012-10-28T09:39:18Z</time>
      </trkpt>
      <trkpt lat="47.28879" lon="-1.71303">
        <ele>72.7</ele>
        <time>2012-10-28T09:39:19Z</time>
      </trkpt>
      <trkpt lat="47.28878" lon="-1.71303">
        <ele>72.3</ele>
        <time>2012-10-28T09:39:20Z</time>
      </trkpt>
      <trkpt lat="47.28877" lon="-1.71302">
        <ele>72</ele>
        <time>2012-10-28T09:39:21Z</time>
      </trkpt>
      <trkpt lat="47.28877" lon="-1.71302">
        <ele>72.2</ele>
        <time>2012-10-28T09:39:22Z</time>
      </trkpt>
      <trkpt lat="47.28876" lon="-1.71301">
        <ele>72.4</ele>
        <time>2012-10-28T09:39:23Z</time>
      </trkpt>
      <trkpt lat="47.28872" lon="-1.71296">
        <ele>72.3</ele>
        <time>2012-10-28T09:39:26Z</time>
      </trkpt>
      <trkpt lat="47.2887" lon="-1.71296">
        <ele>72.6</ele>
        <time>2012-10-28T09:39:27Z</time>
      </trkpt>
      <trkpt lat="47.28868" lon="-1.71295">
        <ele>72.9</ele>
        <time>2012-10-28T09:39:28Z</time>
      </trkpt>
      <trkpt lat="47.28867" lon="-1.71295">
        <ele>73</ele>
        <time>2012-10-28T09:39:29Z</time>
      </trkpt>
      <trkpt lat="47.28865" lon="-1.71296">
        <ele>73</ele>
        <time>2012-10-28T09:39:30Z</time>
      </trkpt>
      <trkpt lat="47.28863" lon="-1.71296">
        <ele>73</ele>
        <time>2012-10-28T09:39:31Z</time>
      </trkpt>
      <trkpt lat="47.28862" lon="-1.71297">
        <ele>73.4</ele>
        <time>2012-10-28T09:39:32Z</time>
      </trkpt>
      <trkpt lat="47.28861" lon="-1.71298">
        <ele>73.7</ele>
        <time>2012-10-28T09:39:33Z</time>
      </trkpt>
      <trkpt lat="47.28859" lon="-1.71299">
        <ele>73.6</ele>
        <time>2012-10-28T09:39:34Z</time>
      </trkpt>
      <trkpt lat="47.28856" lon="-1.713">
        <ele>73.5</ele>
        <time>2012-10-28T09:39:36Z</time>
      </trkpt>
      <trkpt lat="47.28855" lon="-1.71301">
        <ele>73.5</ele>
        <time>2012-10-28T09:39:37Z</time>
      </trkpt>
      <trkpt lat="47.28853" lon="-1.71303">
        <ele>73.5</ele>
        <time>2012-10-28T09:39:39Z</time>
      </trkpt>
      <trkpt lat="47.28852" lon="-1.71303">
        <ele>73.5</ele>
        <time>2012-10-28T09:39:40Z</time>
      </trkpt>
      <trkpt lat="47.28851" lon="-1.71304">
        <ele>73.6</ele>
        <time>2012-10-28T09:39:41Z</time>
      </trkpt>
      <trkpt lat="47.2885" lon="-1.71304">
        <ele>73.7</ele>
        <time>2012-10-28T09:39:42Z</time>
      </trkpt>
      <trkpt lat="47.28849" lon="-1.71305">
        <ele>73.9</ele>
        <time>2012-10-28T09:39:43Z</time>
      </trkpt>
      <trkpt lat="47.28848" lon="-1.71306">
        <ele>74</ele>
        <time>2012-10-28T09:39:44Z</time>
      </trkpt>
      <trkpt lat="47.28848" lon="-1.71306">
        <ele>74.2</ele>
        <time>2012-10-28T09:39:45Z</time>
      </trkpt>
      <trkpt lat="47.28847" lon="-1.71307">
        <ele>74.3</ele>
        <time>2012-10-28T09:39:46Z</time>
      </trkpt>
      <trkpt lat="47.28846" lon="-1.71308">
        <ele>74.4</ele>
        <time>2012-10-28T09:39:47Z</time>
      </trkpt>
      <trkpt lat="47.28845" lon="-1.71309">
        <ele>74.5</ele>
        <time>2012-10-28T09:39:48Z</time>
      </trkpt>
      <trkpt lat="47.28844" lon="-1.7131">
        <ele>74.6</ele>
        <time>2012-10-28T09:39:49Z</time>
      </trkpt>
      <trkpt lat="47.28844" lon="-1.71311">
        <ele>74.7</ele>
        <time>2012-10-28T09:39:50Z</time>
      </trkpt>
      <trkpt lat="47.28843" lon="-1.71312">
        <ele>75</ele>
        <time>2012-10-28T09:39:51Z</time>
      </trkpt>
      <trkpt lat="47.28843" lon="-1.71312">
        <ele>75.2</ele>
        <time>2012-10-28T09:39:52Z</time>
      </trkpt>
      <trkpt lat="47.28843" lon="-1.71313">
        <ele>75.4</ele>
        <time>2012-10-28T09:39:53Z</time>
      </trkpt>
      <trkpt lat="47.28842" lon="-1.71314">
        <ele>75.6</ele>
        <time>2012-10-28T09:39:54Z</time>
      </trkpt>
      <trkpt lat="47.28841" lon="-1.71314">
        <ele>75.5</ele>
        <time>2012-10-28T09:39:55Z</time>
      </trkpt>
      <trkpt lat="47.28841" lon="-1.71315">
        <ele>75.4</ele>
        <time>2012-10-28T09:39:56Z</time>
      </trkpt>
      <trkpt lat="47.2884" lon="-1.71316">
        <ele>75.3</ele>
        <time>2012-10-28T09:39:57Z</time>
      </trkpt>
      <trkpt lat="47.2884" lon="-1.71317">
        <ele>75.5</ele>
        <time>2012-10-28T09:39:58Z</time>
      </trkpt>
      <trkpt lat="47.2884" lon="-1.71317">
        <ele>75.7</ele>
        <time>2012-10-28T09:39:59Z</time>
      </trkpt>
      <trkpt lat="47.28839" lon="-1.71317">
        <ele>75.6</ele>
        <time>2012-10-28T09:40:00Z</time>
      </trkpt>
      <trkpt lat="47.28839" lon="-1.71317">
        <ele>75.5</ele>
        <time>2012-10-28T09:40:01Z</time>
      </trkpt>
      <trkpt lat="47.28838" lon="-1.71317">
        <ele>75.8</ele>
        <time>2012-10-28T09:40:02Z</time>
      </trkpt>
      <trkpt lat="47.28838" lon="-1.71317">
        <ele>76</ele>
        <time>2012-10-28T09:40:03Z</time>
      </trkpt>
      <trkpt lat="47.28838" lon="-1.71317">
        <ele>76.1</ele>
        <time>2012-10-28T09:40:04Z</time>
      </trkpt>
      <trkpt lat="47.28838" lon="-1.71317">
        <ele>76</ele>
        <time>2012-10-28T09:40:05Z</time>
      </trkpt>
      <trkpt lat="47.28838" lon="-1.71317">
        <ele>76</ele>
        <time>2012-10-28T09:40:06Z</time>
      </trkpt>
      <trkpt lat="47.28837" lon="-1.71317">
        <ele>75.9</ele>
        <time>2012-10-28T09:40:07Z</time>
      </trkpt>
      <trkpt lat="47.28837" lon="-1.71317">
        <ele>75.8</ele>
        <time>2012-10-28T09:40:08Z</time>
      </trkpt>
      <trkpt lat="47.28837" lon="-1.71317">
        <ele>75.8</ele>
        <time>2012-10-28T09:40:09Z</time>
      </trkpt>
      <trkpt lat="47.28836" lon="-1.71317">
        <ele>75.4</ele>
        <time>2012-10-28T09:40:10Z</time>
      </trkpt>
      <trkpt lat="47.28835" lon="-1.7132">
        <ele>75.5</ele>
        <time>2012-10-28T09:40:12Z</time>
      </trkpt>
      <trkpt lat="47.28833" lon="-1.71322">
        <ele>75.7</ele>
        <time>2012-10-28T09:40:13Z</time>
      </trkpt>
      <trkpt lat="47.28827" lon="-1.71329">
        <ele>75.5</ele>
        <time>2012-10-28T09:40:16Z</time>
      </trkpt>
      <trkpt lat="47.28824" lon="-1.71333">
        <ele>75.7</ele>
        <time>2012-10-28T09:40:18Z</time>
      </trkpt>
      <trkpt lat="47.28822" lon="-1.71335">
        <ele>75.7</ele>
        <time>2012-10-28T09:40:19Z</time>
      </trkpt>
      <trkpt lat="47.2882" lon="-1.71341">
        <ele>75.6</ele>
        <time>2012-10-28T09:40:21Z</time>
      </trkpt>
      <trkpt lat="47.28817" lon="-1.71343">
        <ele>75.5</ele>
        <time>2012-10-28T09:40:22Z</time>
      </trkpt>
      <trkpt lat="47.28756" lon="-1.71424">
        <ele>76.9</ele>
        <time>2012-10-28T09:40:45Z</time>
      </trkpt>
      <trkpt lat="47.28721" lon="-1.71473">
        <ele>77.9</ele>
        <time>2012-10-28T09:40:58Z</time>
      </trkpt>
      <trkpt lat="47.2868" lon="-1.71529">
        <ele>78.9</ele>
        <time>2012-10-28T09:41:15Z</time>
      </trkpt>
      <trkpt lat="47.28677" lon="-1.71532">
        <ele>79.2</ele>
        <time>2012-10-28T09:41:16Z</time>
      </trkpt>
      <trkpt lat="47.28672" lon="-1.7154">
        <ele>79.4</ele>
        <time>2012-10-28T09:41:18Z</time>
      </trkpt>
      <trkpt lat="47.28671" lon="-1.71545">
        <ele>79.5</ele>
        <time>2012-10-28T09:41:19Z</time>
      </trkpt>
      <trkpt lat="47.2867" lon="-1.71551">
        <ele>79.5</ele>
        <time>2012-10-28T09:41:20Z</time>
      </trkpt>
      <trkpt lat="47.28671" lon="-1.71558">
        <ele>79.5</ele>
        <time>2012-10-28T09:41:21Z</time>
      </trkpt>
      <trkpt lat="47.28672" lon="-1.71565">
        <ele>79.5</ele>
        <time>2012-10-28T09:41:22Z</time>
      </trkpt>
      <trkpt lat="47.28687" lon="-1.7166">
        <ele>78.8</ele>
        <time>2012-10-28T09:41:36Z</time>
      </trkpt>
      <trkpt lat="47.28687" lon="-1.71667">
        <ele>78.7</ele>
        <time>2012-10-28T09:41:37Z</time>
      </trkpt>
      <trkpt lat="47.28685" lon="-1.71697">
        <ele>78.3</ele>
        <time>2012-10-28T09:41:41Z</time>
      </trkpt>
      <trkpt lat="47.28677" lon="-1.71766">
        <ele>78.2</ele>
        <time>2012-10-28T09:41:50Z</time>
      </trkpt>
      <trkpt lat="47.28657" lon="-1.71939">
        <ele>77.8</ele>
        <time>2012-10-28T09:42:13Z</time>
      </trkpt>
      <trkpt lat="47.28658" lon="-1.71947">
        <ele>77.6</ele>
        <time>2012-10-28T09:42:14Z</time>
      </trkpt>
      <trkpt lat="47.28658" lon="-1.71954">
        <ele>77.3</ele>
        <time>2012-10-28T09:42:15Z</time>
      </trkpt>
      <trkpt lat="47.28659" lon="-1.71968">
        <ele>76.8</ele>
        <time>2012-10-28T09:42:17Z</time>
      </trkpt>
      <trkpt lat="47.28658" lon="-1.71975">
        <ele>76.6</ele>
        <time>2012-10-28T09:42:18Z</time>
      </trkpt>
      <trkpt lat="47.28656" lon="-1.71982">
        <ele>76.4</ele>
        <time>2012-10-28T09:42:19Z</time>
      </trkpt>
      <trkpt lat="47.28653" lon="-1.71989">
        <ele>76.8</ele>
        <time>2012-10-28T09:42:20Z</time>
      </trkpt>
      <trkpt lat="47.28652" lon="-1.71996">
        <ele>77</ele>
        <time>2012-10-28T09:42:21Z</time>
      </trkpt>
      <trkpt lat="47.28651" lon="-1.72004">
        <ele>76.9</ele>
        <time>2012-10-28T09:42:22Z</time>
      </trkpt>
      <trkpt lat="47.28651" lon="-1.72012">
        <ele>76.9</ele>
        <time>2012-10-28T09:42:23Z</time>
      </trkpt>
      <trkpt lat="47.28648" lon="-1.72058">
        <ele>77</ele>
        <time>2012-10-28T09:42:29Z</time>
      </trkpt>
      <trkpt lat="47.28629" lon="-1.72414">
        <ele>79</ele>
        <time>2012-10-28T09:43:19Z</time>
      </trkpt>
      <trkpt lat="47.28628" lon="-1.72419">
        <ele>79.1</ele>
        <time>2012-10-28T09:43:20Z</time>
      </trkpt>
      <trkpt lat="47.28624" lon="-1.72535">
        <ele>79.1</ele>
        <time>2012-10-28T09:43:39Z</time>
      </trkpt>
      <trkpt lat="47.28625" lon="-1.72541">
        <ele>79</ele>
        <time>2012-10-28T09:43:40Z</time>
      </trkpt>
      <trkpt lat="47.28626" lon="-1.72547">
        <ele>78.9</ele>
        <time>2012-10-28T09:43:41Z</time>
      </trkpt>
      <trkpt lat="47.28629" lon="-1.72558">
        <ele>79.1</ele>
        <time>2012-10-28T09:43:43Z</time>
      </trkpt>
      <trkpt lat="47.28656" lon="-1.7266">
        <ele>80</ele>
        <time>2012-10-28T09:44:01Z</time>
      </trkpt>
      <trkpt lat="47.28656" lon="-1.72665">
        <ele>80.1</ele>
        <time>2012-10-28T09:44:02Z</time>
      </trkpt>
      <trkpt lat="47.28664" lon="-1.72731">
        <ele>80.7</ele>
        <time>2012-10-28T09:44:15Z</time>
      </trkpt>
      <trkpt lat="47.28665" lon="-1.7274">
        <ele>80.1</ele>
        <time>2012-10-28T09:44:17Z</time>
      </trkpt>
      <trkpt lat="47.28666" lon="-1.72743">
        <ele>79.9</ele>
        <time>2012-10-28T09:44:18Z</time>
      </trkpt>
      <trkpt lat="47.28667" lon="-1.72746">
        <ele>79.7</ele>
        <time>2012-10-28T09:44:19Z</time>
      </trkpt>
      <trkpt lat="47.28668" lon="-1.72749">
        <ele>79.5</ele>
        <time>2012-10-28T09:44:20Z</time>
      </trkpt>
      <trkpt lat="47.28668" lon="-1.72752">
        <ele>79.9</ele>
        <time>2012-10-28T09:44:21Z</time>
      </trkpt>
      <trkpt lat="47.28668" lon="-1.7276">
        <ele>80.4</ele>
        <time>2012-10-28T09:44:23Z</time>
      </trkpt>
      <trkpt lat="47.28668" lon="-1.72769">
        <ele>80.6</ele>
        <time>2012-10-28T09:44:26Z</time>
      </trkpt>
      <trkpt lat="47.28669" lon="-1.72771">
        <ele>80.5</ele>
        <time>2012-10-28T09:44:27Z</time>
      </trkpt>
      <trkpt lat="47.28669" lon="-1.72771">
        <ele>80.6</ele>
        <time>2012-10-28T09:44:28Z</time>
      </trkpt>
      <trkpt lat="47.2867" lon="-1.7277">
        <ele>80.6</ele>
        <time>2012-10-28T09:44:29Z</time>
      </trkpt>
      <trkpt lat="47.28669" lon="-1.7277">
        <ele>80.7</ele>
        <time>2012-10-28T09:44:30Z</time>
      </trkpt>
      <trkpt lat="47.28669" lon="-1.72769">
        <ele>80.8</ele>
        <time>2012-10-28T09:44:31Z</time>
      </trkpt>
      <trkpt lat="47.28671" lon="-1.72764">
        <ele>80.5</ele>
        <time>2012-10-28T09:44:35Z</time>
      </trkpt>
      <trkpt lat="47.28672" lon="-1.72762">
        <ele>80.3</ele>
        <time>2012-10-28T09:44:36Z</time>
      </trkpt>
      <trkpt lat="47.28671" lon="-1.7276">
        <ele>80.2</ele>
        <time>2012-10-28T09:44:37Z</time>
      </trkpt>
      <trkpt lat="47.2867" lon="-1.72758">
        <ele>80.1</ele>
        <time>2012-10-28T09:44:38Z</time>
      </trkpt>
      <trkpt lat="47.28669" lon="-1.72757">
        <ele>79.9</ele>
        <time>2012-10-28T09:44:39Z</time>
      </trkpt>
      <trkpt lat="47.28668" lon="-1.72757">
        <ele>80.1</ele>
        <time>2012-10-28T09:44:40Z</time>
      </trkpt>
      <trkpt lat="47.28666" lon="-1.72755">
        <ele>80.2</ele>
        <time>2012-10-28T09:44:42Z</time>
      </trkpt>
      <trkpt lat="47.28665" lon="-1.72754">
        <ele>80.2</ele>
        <time>2012-10-28T09:44:43Z</time>
      </trkpt>
      <trkpt lat="47.28663" lon="-1.72752">
        <ele>80.2</ele>
        <time>2012-10-28T09:44:44Z</time>
      </trkpt>
      <trkpt lat="47.28662" lon="-1.7275">
        <ele>80.1</ele>
        <time>2012-10-28T09:44:45Z</time>
      </trkpt>
      <trkpt lat="47.28662" lon="-1.72747">
        <ele>80</ele>
        <time>2012-10-28T09:44:46Z</time>
      </trkpt>
      <trkpt lat="47.28662" lon="-1.72744">
        <ele>80</ele>
        <time>2012-10-28T09:44:47Z</time>
      </trkpt>
      <trkpt lat="47.28662" lon="-1.72739">
        <ele>80</ele>
        <time>2012-10-28T09:44:49Z</time>
      </trkpt>
      <trkpt lat="47.28662" lon="-1.72735">
        <ele>79.8</ele>
        <time>2012-10-28T09:44:50Z</time>
      </trkpt>
      <trkpt lat="47.28654" lon="-1.72664">
        <ele>80.1</ele>
        <time>2012-10-28T09:45:02Z</time>
      </trkpt>
      <trkpt lat="47.28653" lon="-1.72658">
        <ele>80</ele>
        <time>2012-10-28T09:45:03Z</time>
      </trkpt>
      <trkpt lat="47.28648" lon="-1.72638">
        <ele>79.6</ele>
        <time>2012-10-28T09:45:06Z</time>
      </trkpt>
      <trkpt lat="47.28624" lon="-1.7256">
        <ele>78.8</ele>
        <time>2012-10-28T09:45:18Z</time>
      </trkpt>
      <trkpt lat="47.28624" lon="-1.72553">
        <ele>78.8</ele>
        <time>2012-10-28T09:45:19Z</time>
      </trkpt>
      <trkpt lat="47.28623" lon="-1.72546">
        <ele>78.8</ele>
        <time>2012-10-28T09:45:20Z</time>
      </trkpt>
      <trkpt lat="47.28623" lon="-1.72531">
        <ele>78.8</ele>
        <time>2012-10-28T09:45:22Z</time>
      </trkpt>
      <trkpt lat="47.28623" lon="-1.72524">
        <ele>78.6</ele>
        <time>2012-10-28T09:45:23Z</time>
      </trkpt>
      <trkpt lat="47.28648" lon="-1.72012">
        <ele>76.3</ele>
        <time>2012-10-28T09:46:35Z</time>
      </trkpt>
      <trkpt lat="47.28647" lon="-1.72007">
        <ele>76.3</ele>
        <time>2012-10-28T09:46:36Z</time>
      </trkpt>
      <trkpt lat="47.28646" lon="-1.72003">
        <ele>76.3</ele>
        <time>2012-10-28T09:46:37Z</time>
      </trkpt>
      <trkpt lat="47.28643" lon="-1.72001">
        <ele>76.3</ele>
        <time>2012-10-28T09:46:38Z</time>
      </trkpt>
      <trkpt lat="47.2864" lon="-1.72001">
        <ele>76.2</ele>
        <time>2012-10-28T09:46:39Z</time>
      </trkpt>
      <trkpt lat="47.28631" lon="-1.72002">
        <ele>76.1</ele>
        <time>2012-10-28T09:46:41Z</time>
      </trkpt>
      <trkpt lat="47.28256" lon="-1.72066">
        <ele>77.8</ele>
        <time>2012-10-28T09:48:04Z</time>
      </trkpt>
      <trkpt lat="47.28252" lon="-1.72067">
        <ele>77.6</ele>
        <time>2012-10-28T09:48:05Z</time>
      </trkpt>
      <trkpt lat="47.28181" lon="-1.72082">
        <ele>77.3</ele>
        <time>2012-10-28T09:48:23Z</time>
      </trkpt>
      <trkpt lat="47.28178" lon="-1.72085">
        <ele>77.4</ele>
        <time>2012-10-28T09:48:24Z</time>
      </trkpt>
      <trkpt lat="47.28176" lon="-1.7209">
        <ele>77.6</ele>
        <time>2012-10-28T09:48:25Z</time>
      </trkpt>
      <trkpt lat="47.28176" lon="-1.72095">
        <ele>77.8</ele>
        <time>2012-10-28T09:48:26Z</time>
      </trkpt>
      <trkpt lat="47.28177" lon="-1.72108">
        <ele>77.6</ele>
        <time>2012-10-28T09:48:28Z</time>
      </trkpt>
      <trkpt lat="47.28184" lon="-1.72218">
        <ele>77.8</ele>
        <time>2012-10-28T09:48:45Z</time>
      </trkpt>
      <trkpt lat="47.28196" lon="-1.72356">
        <ele>78.5</ele>
        <time>2012-10-28T09:49:09Z</time>
      </trkpt>
      <trkpt lat="47.28197" lon="-1.72362">
        <ele>78.4</ele>
        <time>2012-10-28T09:49:10Z</time>
      </trkpt>
      <trkpt lat="47.28199" lon="-1.72366">
        <ele>78.3</ele>
        <time>2012-10-28T09:49:11Z</time>
      </trkpt>
      <trkpt lat="47.28202" lon="-1.72371">
        <ele>78.2</ele>
        <time>2012-10-28T09:49:12Z</time>
      </trkpt>
      <trkpt lat="47.28207" lon="-1.72378">
        <ele>78.2</ele>
        <time>2012-10-28T09:49:14Z</time>
      </trkpt>
      <trkpt lat="47.2821" lon="-1.72381">
        <ele>78.5</ele>
        <time>2012-10-28T09:49:15Z</time>
      </trkpt>
      <trkpt lat="47.28224" lon="-1.72394">
        <ele>78.3</ele>
        <time>2012-10-28T09:49:19Z</time>
      </trkpt>
      <trkpt lat="47.28227" lon="-1.72398">
        <ele>78.3</ele>
        <time>2012-10-28T09:49:20Z</time>
      </trkpt>
      <trkpt lat="47.28236" lon="-1.72411">
        <ele>78.6</ele>
        <time>2012-10-28T09:49:23Z</time>
      </trkpt>
      <trkpt lat="47.28244" lon="-1.72427">
        <ele>78.9</ele>
        <time>2012-10-28T09:49:27Z</time>
      </trkpt>
      <trkpt lat="47.28247" lon="-1.7243">
        <ele>78.9</ele>
        <time>2012-10-28T09:49:28Z</time>
      </trkpt>
      <trkpt lat="47.2825" lon="-1.72432">
        <ele>79</ele>
        <time>2012-10-28T09:49:29Z</time>
      </trkpt>
      <trkpt lat="47.28279" lon="-1.72456">
        <ele>78.2</ele>
        <time>2012-10-28T09:49:37Z</time>
      </trkpt>
      <trkpt lat="47.28289" lon="-1.72467">
        <ele>78.2</ele>
        <time>2012-10-28T09:49:40Z</time>
      </trkpt>
      <trkpt lat="47.2831" lon="-1.72489">
        <ele>78</ele>
        <time>2012-10-28T09:49:46Z</time>
      </trkpt>
      <trkpt lat="47.28323" lon="-1.72506">
        <ele>78</ele>
        <time>2012-10-28T09:49:50Z</time>
      </trkpt>
      <trkpt lat="47.28349" lon="-1.72538">
        <ele>77.2</ele>
        <time>2012-10-28T09:49:58Z</time>
      </trkpt>
      <trkpt lat="47.28357" lon="-1.72548">
        <ele>77.5</ele>
        <time>2012-10-28T09:50:01Z</time>
      </trkpt>
      <trkpt lat="47.28361" lon="-1.72549">
        <ele>77.6</ele>
        <time>2012-10-28T09:50:02Z</time>
      </trkpt>
      <trkpt lat="47.28365" lon="-1.72552">
        <ele>77.8</ele>
        <time>2012-10-28T09:50:03Z</time>
      </trkpt>
      <trkpt lat="47.28367" lon="-1.72557">
        <ele>78</ele>
        <time>2012-10-28T09:50:04Z</time>
      </trkpt>
      <trkpt lat="47.2837" lon="-1.72562">
        <ele>77.9</ele>
        <time>2012-10-28T09:50:05Z</time>
      </trkpt>
      <trkpt lat="47.28373" lon="-1.72565">
        <ele>77.9</ele>
        <time>2012-10-28T09:50:06Z</time>
      </trkpt>
      <trkpt lat="47.28379" lon="-1.7257">
        <ele>77.9</ele>
        <time>2012-10-28T09:50:08Z</time>
      </trkpt>
      <trkpt lat="47.28387" lon="-1.72579">
        <ele>77.5</ele>
        <time>2012-10-28T09:50:12Z</time>
      </trkpt>
      <trkpt lat="47.2839" lon="-1.72579">
        <ele>77.7</ele>
        <time>2012-10-28T09:50:13Z</time>
      </trkpt>
      <trkpt lat="47.28391" lon="-1.72579">
        <ele>77.8</ele>
        <time>2012-10-28T09:50:14Z</time>
      </trkpt>
      <trkpt lat="47.28393" lon="-1.7258">
        <ele>77.4</ele>
        <time>2012-10-28T09:50:15Z</time>
      </trkpt>
      <trkpt lat="47.28394" lon="-1.72581">
        <ele>77.1</ele>
        <time>2012-10-28T09:50:16Z</time>
      </trkpt>
      <trkpt lat="47.28402" lon="-1.72588">
        <ele>76.9</ele>
        <time>2012-10-28T09:50:19Z</time>
      </trkpt>
      <trkpt lat="47.28404" lon="-1.72591">
        <ele>76.9</ele>
        <time>2012-10-28T09:50:20Z</time>
      </trkpt>
      <trkpt lat="47.28406" lon="-1.72594">
        <ele>76.9</ele>
        <time>2012-10-28T09:50:21Z</time>
      </trkpt>
      <trkpt lat="47.28408" lon="-1.72598">
        <ele>77</ele>
        <time>2012-10-28T09:50:22Z</time>
      </trkpt>
      <trkpt lat="47.2841" lon="-1.72601">
        <ele>77</ele>
        <time>2012-10-28T09:50:23Z</time>
      </trkpt>
      <trkpt lat="47.28413" lon="-1.72604">
        <ele>76.9</ele>
        <time>2012-10-28T09:50:24Z</time>
      </trkpt>
      <trkpt lat="47.28419" lon="-1.72608">
        <ele>76.9</ele>
        <time>2012-10-28T09:50:26Z</time>
      </trkpt>
      <trkpt lat="47.28448" lon="-1.7263">
        <ele>76.7</ele>
        <time>2012-10-28T09:50:35Z</time>
      </trkpt>
      <trkpt lat="47.28471" lon="-1.72651">
        <ele>76.8</ele>
        <time>2012-10-28T09:50:43Z</time>
      </trkpt>
      <trkpt lat="47.28474" lon="-1.72653">
        <ele>76.9</ele>
        <time>2012-10-28T09:50:44Z</time>
      </trkpt>
      <trkpt lat="47.28506" lon="-1.72688">
        <ele>77.6</ele>
        <time>2012-10-28T09:50:56Z</time>
      </trkpt>
      <trkpt lat="47.28511" lon="-1.72692">
        <ele>77.8</ele>
        <time>2012-10-28T09:50:58Z</time>
      </trkpt>
      <trkpt lat="47.28516" lon="-1.72695">
        <ele>77.8</ele>
        <time>2012-10-28T09:51:00Z</time>
      </trkpt>
      <trkpt lat="47.28518" lon="-1.72697">
        <ele>77.7</ele>
        <time>2012-10-28T09:51:01Z</time>
      </trkpt>
      <trkpt lat="47.2852" lon="-1.727">
        <ele>78</ele>
        <time>2012-10-28T09:51:02Z</time>
      </trkpt>
      <trkpt lat="47.28522" lon="-1.72703">
        <ele>78.1</ele>
        <time>2012-10-28T09:51:03Z</time>
      </trkpt>
      <trkpt lat="47.28522" lon="-1.72706">
        <ele>77.9</ele>
        <time>2012-10-28T09:51:04Z</time>
      </trkpt>
      <trkpt lat="47.28522" lon="-1.72709">
        <ele>77.6</ele>
        <time>2012-10-28T09:51:05Z</time>
      </trkpt>
      <trkpt lat="47.2852" lon="-1.72711">
        <ele>77.5</ele>
        <time>2012-10-28T09:51:06Z</time>
      </trkpt>
      <trkpt lat="47.28518" lon="-1.72712">
        <ele>77.6</ele>
        <time>2012-10-28T09:51:07Z</time>
      </trkpt>
      <trkpt lat="47.28516" lon="-1.72712">
        <ele>77.7</ele>
        <time>2012-10-28T09:51:08Z</time>
      </trkpt>
      <trkpt lat="47.28513" lon="-1.72711">
        <ele>78.1</ele>
        <time>2012-10-28T09:51:09Z</time>
      </trkpt>
      <trkpt lat="47.28496" lon="-1.72706">
        <ele>78.5</ele>
        <time>2012-10-28T09:51:14Z</time>
      </trkpt>
      <trkpt lat="47.28492" lon="-1.72705">
        <ele>78.5</ele>
        <time>2012-10-28T09:51:15Z</time>
      </trkpt>
      <trkpt lat="47.28479" lon="-1.72705">
        <ele>78</ele>
        <time>2012-10-28T09:51:18Z</time>
      </trkpt>
      <trkpt lat="47.2845" lon="-1.72699">
        <ele>77.4</ele>
        <time>2012-10-28T09:51:25Z</time>
      </trkpt>
      <trkpt lat="47.28446" lon="-1.727">
        <ele>77.4</ele>
        <time>2012-10-28T09:51:26Z</time>
      </trkpt>
      <trkpt lat="47.28444" lon="-1.72703">
        <ele>77.4</ele>
        <time>2012-10-28T09:51:27Z</time>
      </trkpt>
      <trkpt lat="47.28442" lon="-1.72708">
        <ele>77.4</ele>
        <time>2012-10-28T09:51:28Z</time>
      </trkpt>
      <trkpt lat="47.28442" lon="-1.72714">
        <ele>77.5</ele>
        <time>2012-10-28T09:51:29Z</time>
      </trkpt>
      <trkpt lat="47.28443" lon="-1.72718">
        <ele>77.5</ele>
        <time>2012-10-28T09:51:30Z</time>
      </trkpt>
      <trkpt lat="47.28444" lon="-1.72722">
        <ele>77.4</ele>
        <time>2012-10-28T09:51:31Z</time>
      </trkpt>
      <trkpt lat="47.28445" lon="-1.72724">
        <ele>77.3</ele>
        <time>2012-10-28T09:51:32Z</time>
      </trkpt>
      <trkpt lat="47.28445" lon="-1.72731">
        <ele>77.2</ele>
        <time>2012-10-28T09:51:34Z</time>
      </trkpt>
      <trkpt lat="47.28445" lon="-1.72735">
        <ele>77</ele>
        <time>2012-10-28T09:51:35Z</time>
      </trkpt>
      <trkpt lat="47.28446" lon="-1.7274">
        <ele>76.8</ele>
        <time>2012-10-28T09:51:36Z</time>
      </trkpt>
      <trkpt lat="47.28448" lon="-1.72755">
        <ele>76.8</ele>
        <time>2012-10-28T09:51:39Z</time>
      </trkpt>
      <trkpt lat="47.2847" lon="-1.729">
        <ele>79</ele>
        <time>2012-10-28T09:52:08Z</time>
      </trkpt>
      <trkpt lat="47.28491" lon="-1.73046">
        <ele>80</ele>
        <time>2012-10-28T09:52:38Z</time>
      </trkpt>
      <trkpt lat="47.28492" lon="-1.7305">
        <ele>80.3</ele>
        <time>2012-10-28T09:52:39Z</time>
      </trkpt>
      <trkpt lat="47.28507" lon="-1.73147">
        <ele>79.9</ele>
        <time>2012-10-28T09:52:55Z</time>
      </trkpt>
      <trkpt lat="47.28509" lon="-1.73153">
        <ele>79.9</ele>
        <time>2012-10-28T09:52:56Z</time>
      </trkpt>
      <trkpt lat="47.28511" lon="-1.73158">
        <ele>79.9</ele>
        <time>2012-10-28T09:52:57Z</time>
      </trkpt>
      <trkpt lat="47.28514" lon="-1.73161">
        <ele>79.7</ele>
        <time>2012-10-28T09:52:58Z</time>
      </trkpt>
      <trkpt lat="47.28517" lon="-1.73161">
        <ele>79.5</ele>
        <time>2012-10-28T09:52:59Z</time>
      </trkpt>
      <trkpt lat="47.2852" lon="-1.73161">
        <ele>79.4</ele>
        <time>2012-10-28T09:53:00Z</time>
      </trkpt>
      <trkpt lat="47.28522" lon="-1.7316">
        <ele>79.1</ele>
        <time>2012-10-28T09:53:01Z</time>
      </trkpt>
      <trkpt lat="47.28523" lon="-1.7316">
        <ele>78.8</ele>
        <time>2012-10-28T09:53:02Z</time>
      </trkpt>
      <trkpt lat="47.28525" lon="-1.73161">
        <ele>79.2</ele>
        <time>2012-10-28T09:53:03Z</time>
      </trkpt>
      <trkpt lat="47.28526" lon="-1.7316">
        <ele>79.4</ele>
        <time>2012-10-28T09:53:04Z</time>
      </trkpt>
      <trkpt lat="47.28528" lon="-1.7316">
        <ele>79.1</ele>
        <time>2012-10-28T09:53:05Z</time>
      </trkpt>
      <trkpt lat="47.2853" lon="-1.7316">
        <ele>78.8</ele>
        <time>2012-10-28T09:53:06Z</time>
      </trkpt>
      <trkpt lat="47.28532" lon="-1.73161">
        <ele>79</ele>
        <time>2012-10-28T09:53:08Z</time>
      </trkpt>
      <trkpt lat="47.28533" lon="-1.73161">
        <ele>79.2</ele>
        <time>2012-10-28T09:53:09Z</time>
      </trkpt>
      <trkpt lat="47.28535" lon="-1.73161">
        <ele>78.8</ele>
        <time>2012-10-28T09:53:10Z</time>
      </trkpt>
      <trkpt lat="47.28536" lon="-1.73161">
        <ele>78.5</ele>
        <time>2012-10-28T09:53:11Z</time>
      </trkpt>
      <trkpt lat="47.28537" lon="-1.73161">
        <ele>78.3</ele>
        <time>2012-10-28T09:53:12Z</time>
      </trkpt>
      <trkpt lat="47.2854" lon="-1.7316">
        <ele>78.3</ele>
        <time>2012-10-28T09:53:14Z</time>
      </trkpt>
      <trkpt lat="47.28542" lon="-1.73161">
        <ele>78.2</ele>
        <time>2012-10-28T09:53:15Z</time>
      </trkpt>
      <trkpt lat="47.28544" lon="-1.7316">
        <ele>78.2</ele>
        <time>2012-10-28T09:53:16Z</time>
      </trkpt>
      <trkpt lat="47.28546" lon="-1.73158">
        <ele>78.1</ele>
        <time>2012-10-28T09:53:17Z</time>
      </trkpt>
      <trkpt lat="47.28549" lon="-1.73158">
        <ele>78</ele>
        <time>2012-10-28T09:53:18Z</time>
      </trkpt>
      <trkpt lat="47.28552" lon="-1.73158">
        <ele>77.9</ele>
        <time>2012-10-28T09:53:19Z</time>
      </trkpt>
      <trkpt lat="47.28554" lon="-1.73158">
        <ele>78.1</ele>
        <time>2012-10-28T09:53:20Z</time>
      </trkpt>
      <trkpt lat="47.2856" lon="-1.73158">
        <ele>78.4</ele>
        <time>2012-10-28T09:53:22Z</time>
      </trkpt>
      <trkpt lat="47.28563" lon="-1.73158">
        <ele>78.6</ele>
        <time>2012-10-28T09:53:23Z</time>
      </trkpt>
      <trkpt lat="47.28565" lon="-1.73157">
        <ele>78.6</ele>
        <time>2012-10-28T09:53:24Z</time>
      </trkpt>
      <trkpt lat="47.28568" lon="-1.73155">
        <ele>78.6</ele>
        <time>2012-10-28T09:53:25Z</time>
      </trkpt>
      <trkpt lat="47.28571" lon="-1.73154">
        <ele>78.6</ele>
        <time>2012-10-28T09:53:26Z</time>
      </trkpt>
      <trkpt lat="47.2858" lon="-1.73154">
        <ele>78.9</ele>
        <time>2012-10-28T09:53:29Z</time>
      </trkpt>
      <trkpt lat="47.28583" lon="-1.73152">
        <ele>79</ele>
        <time>2012-10-28T09:53:30Z</time>
      </trkpt>
      <trkpt lat="47.28586" lon="-1.7315">
        <ele>79</ele>
        <time>2012-10-28T09:53:31Z</time>
      </trkpt>
      <trkpt lat="47.28588" lon="-1.73149">
        <ele>79</ele>
        <time>2012-10-28T09:53:32Z</time>
      </trkpt>
      <trkpt lat="47.28591" lon="-1.73149">
        <ele>79</ele>
        <time>2012-10-28T09:53:33Z</time>
      </trkpt>
      <trkpt lat="47.28598" lon="-1.73148">
        <ele>78.4</ele>
        <time>2012-10-28T09:53:35Z</time>
      </trkpt>
      <trkpt lat="47.28601" lon="-1.73147">
        <ele>78.7</ele>
        <time>2012-10-28T09:53:36Z</time>
      </trkpt>
      <trkpt lat="47.28604" lon="-1.73144">
        <ele>78.9</ele>
        <time>2012-10-28T09:53:37Z</time>
      </trkpt>
      <trkpt lat="47.28608" lon="-1.73142">
        <ele>79</ele>
        <time>2012-10-28T09:53:38Z</time>
      </trkpt>
      <trkpt lat="47.28611" lon="-1.7314">
        <ele>79.1</ele>
        <time>2012-10-28T09:53:39Z</time>
      </trkpt>
      <trkpt lat="47.28615" lon="-1.73139">
        <ele>79.2</ele>
        <time>2012-10-28T09:53:40Z</time>
      </trkpt>
      <trkpt lat="47.28621" lon="-1.73138">
        <ele>78.7</ele>
        <time>2012-10-28T09:53:42Z</time>
      </trkpt>
      <trkpt lat="47.28664" lon="-1.73128">
        <ele>78.5</ele>
        <time>2012-10-28T09:53:53Z</time>
      </trkpt>
      <trkpt lat="47.28698" lon="-1.73118">
        <ele>77.5</ele>
        <time>2012-10-28T09:54:03Z</time>
      </trkpt>
      <trkpt lat="47.2871" lon="-1.73115">
        <ele>77.7</ele>
        <time>2012-10-28T09:54:08Z</time>
      </trkpt>
      <trkpt lat="47.28713" lon="-1.73113">
        <ele>77.8</ele>
        <time>2012-10-28T09:54:09Z</time>
      </trkpt>
      <trkpt lat="47.28718" lon="-1.7311">
        <ele>77.7</ele>
        <time>2012-10-28T09:54:11Z</time>
      </trkpt>
      <trkpt lat="47.28721" lon="-1.73109">
        <ele>77.9</ele>
        <time>2012-10-28T09:54:12Z</time>
      </trkpt>
      <trkpt lat="47.28724" lon="-1.73108">
        <ele>78.1</ele>
        <time>2012-10-28T09:54:13Z</time>
      </trkpt>
      <trkpt lat="47.28727" lon="-1.73108">
        <ele>78.2</ele>
        <time>2012-10-28T09:54:14Z</time>
      </trkpt>
      <trkpt lat="47.28732" lon="-1.73108">
        <ele>78.3</ele>
        <time>2012-10-28T09:54:16Z</time>
      </trkpt>
      <trkpt lat="47.28735" lon="-1.73107">
        <ele>78.1</ele>
        <time>2012-10-28T09:54:17Z</time>
      </trkpt>
      <trkpt lat="47.28737" lon="-1.73106">
        <ele>77.9</ele>
        <time>2012-10-28T09:54:18Z</time>
      </trkpt>
      <trkpt lat="47.28745" lon="-1.73103">
        <ele>78.7</ele>
        <time>2012-10-28T09:54:21Z</time>
      </trkpt>
      <trkpt lat="47.28749" lon="-1.73102">
        <ele>78.5</ele>
        <time>2012-10-28T09:54:22Z</time>
      </trkpt>
      <trkpt lat="47.28761" lon="-1.731">
        <ele>78.2</ele>
        <time>2012-10-28T09:54:26Z</time>
      </trkpt>
      <trkpt lat="47.28767" lon="-1.731">
        <ele>78.1</ele>
        <time>2012-10-28T09:54:28Z</time>
      </trkpt>
      <trkpt lat="47.2877" lon="-1.73098">
        <ele>78.3</ele>
        <time>2012-10-28T09:54:29Z</time>
      </trkpt>
      <trkpt lat="47.28773" lon="-1.73097">
        <ele>78.5</ele>
        <time>2012-10-28T09:54:30Z</time>
      </trkpt>
      <trkpt lat="47.28776" lon="-1.73097">
        <ele>78.2</ele>
        <time>2012-10-28T09:54:31Z</time>
      </trkpt>
      <trkpt lat="47.2878" lon="-1.73097">
        <ele>77.9</ele>
        <time>2012-10-28T09:54:32Z</time>
      </trkpt>
      <trkpt lat="47.28804" lon="-1.73096">
        <ele>77.7</ele>
        <time>2012-10-28T09:54:39Z</time>
      </trkpt>
      <trkpt lat="47.28807" lon="-1.73096">
        <ele>77.9</ele>
        <time>2012-10-28T09:54:40Z</time>
      </trkpt>
      <trkpt lat="47.2881" lon="-1.73096">
        <ele>78</ele>
        <time>2012-10-28T09:54:41Z</time>
      </trkpt>
      <trkpt lat="47.28812" lon="-1.73096">
        <ele>78</ele>
        <time>2012-10-28T09:54:42Z</time>
      </trkpt>
      <trkpt lat="47.28826" lon="-1.73095">
        <ele>77.7</ele>
        <time>2012-10-28T09:54:46Z</time>
      </trkpt>
      <trkpt lat="47.28829" lon="-1.73093">
        <ele>77.6</ele>
        <time>2012-10-28T09:54:47Z</time>
      </trkpt>
      <trkpt lat="47.28837" lon="-1.7309">
        <ele>77.2</ele>
        <time>2012-10-28T09:54:49Z</time>
      </trkpt>
      <trkpt lat="47.28841" lon="-1.7309">
        <ele>77.2</ele>
        <time>2012-10-28T09:54:50Z</time>
      </trkpt>
      <trkpt lat="47.28845" lon="-1.73091">
        <ele>77.2</ele>
        <time>2012-10-28T09:54:51Z</time>
      </trkpt>
      <trkpt lat="47.28849" lon="-1.73091">
        <ele>77.2</ele>
        <time>2012-10-28T09:54:52Z</time>
      </trkpt>
      <trkpt lat="47.28854" lon="-1.7309">
        <ele>77.1</ele>
        <time>2012-10-28T09:54:53Z</time>
      </trkpt>
      <trkpt lat="47.28897" lon="-1.73086">
        <ele>76.1</ele>
        <time>2012-10-28T09:55:03Z</time>
      </trkpt>
      <trkpt lat="47.28901" lon="-1.73084">
        <ele>76.1</ele>
        <time>2012-10-28T09:55:04Z</time>
      </trkpt>
      <trkpt lat="47.28913" lon="-1.73078">
        <ele>75.7</ele>
        <time>2012-10-28T09:55:07Z</time>
      </trkpt>
      <trkpt lat="47.28918" lon="-1.73077">
        <ele>75.6</ele>
        <time>2012-10-28T09:55:08Z</time>
      </trkpt>
      <trkpt lat="47.28922" lon="-1.73078">
        <ele>75.7</ele>
        <time>2012-10-28T09:55:09Z</time>
      </trkpt>
      <trkpt lat="47.28927" lon="-1.73079">
        <ele>75.7</ele>
        <time>2012-10-28T09:55:10Z</time>
      </trkpt>
      <trkpt lat="47.28931" lon="-1.7308">
        <ele>75.9</ele>
        <time>2012-10-28T09:55:11Z</time>
      </trkpt>
      <trkpt lat="47.28935" lon="-1.73082">
        <ele>76</ele>
        <time>2012-10-28T09:55:12Z</time>
      </trkpt>
      <trkpt lat="47.28938" lon="-1.73085">
        <ele>76</ele>
        <time>2012-10-28T09:55:13Z</time>
      </trkpt>
      <trkpt lat="47.2894" lon="-1.73089">
        <ele>75.5</ele>
        <time>2012-10-28T09:55:14Z</time>
      </trkpt>
      <trkpt lat="47.28942" lon="-1.73094">
        <ele>75.2</ele>
        <time>2012-10-28T09:55:15Z</time>
      </trkpt>
      <trkpt lat="47.28945" lon="-1.73103">
        <ele>75.2</ele>
        <time>2012-10-28T09:55:17Z</time>
      </trkpt>
      <trkpt lat="47.28948" lon="-1.73113">
        <ele>74.5</ele>
        <time>2012-10-28T09:55:19Z</time>
      </trkpt>
      <trkpt lat="47.2895" lon="-1.73118">
        <ele>74.3</ele>
        <time>2012-10-28T09:55:20Z</time>
      </trkpt>
      <trkpt lat="47.28959" lon="-1.7314">
        <ele>73.9</ele>
        <time>2012-10-28T09:55:24Z</time>
      </trkpt>
      <trkpt lat="47.28965" lon="-1.73158">
        <ele>74.2</ele>
        <time>2012-10-28T09:55:27Z</time>
      </trkpt>
      <trkpt lat="47.28972" lon="-1.73182">
        <ele>74.9</ele>
        <time>2012-10-28T09:55:31Z</time>
      </trkpt>
      <trkpt lat="47.28985" lon="-1.73234">
        <ele>73.6</ele>
        <time>2012-10-28T09:55:39Z</time>
      </trkpt>
      <trkpt lat="47.28987" lon="-1.7324">
        <ele>73.8</ele>
        <time>2012-10-28T09:55:40Z</time>
      </trkpt>
      <trkpt lat="47.28993" lon="-1.73251">
        <ele>73.9</ele>
        <time>2012-10-28T09:55:42Z</time>
      </trkpt>
      <trkpt lat="47.28996" lon="-1.73256">
        <ele>73.9</ele>
        <time>2012-10-28T09:55:43Z</time>
      </trkpt>
      <trkpt lat="47.29002" lon="-1.73264">
        <ele>74</ele>
        <time>2012-10-28T09:55:45Z</time>
      </trkpt>
      <trkpt lat="47.29005" lon="-1.73268">
        <ele>74.1</ele>
        <time>2012-10-28T09:55:46Z</time>
      </trkpt>
      <trkpt lat="47.29019" lon="-1.73281">
        <ele>73.4</ele>
        <time>2012-10-28T09:55:50Z</time>
      </trkpt>
      <trkpt lat="47.29093" lon="-1.73355">
        <ele>73.6</ele>
        <time>2012-10-28T09:56:11Z</time>
      </trkpt>
      <trkpt lat="47.29146" lon="-1.73411">
        <ele>73.8</ele>
        <time>2012-10-28T09:56:25Z</time>
      </trkpt>
      <trkpt lat="47.2915" lon="-1.73413">
        <ele>74</ele>
        <time>2012-10-28T09:56:26Z</time>
      </trkpt>
      <trkpt lat="47.29154" lon="-1.73412">
        <ele>73.8</ele>
        <time>2012-10-28T09:56:27Z</time>
      </trkpt>
      <trkpt lat="47.29158" lon="-1.73408">
        <ele>73.7</ele>
        <time>2012-10-28T09:56:28Z</time>
      </trkpt>
      <trkpt lat="47.2916" lon="-1.73403">
        <ele>73.6</ele>
        <time>2012-10-28T09:56:29Z</time>
      </trkpt>
      <trkpt lat="47.2918" lon="-1.73361">
        <ele>72.5</ele>
        <time>2012-10-28T09:56:37Z</time>
      </trkpt>
      <trkpt lat="47.29199" lon="-1.73319">
        <ele>73.1</ele>
        <time>2012-10-28T09:56:47Z</time>
      </trkpt>
      <trkpt lat="47.292" lon="-1.73314">
        <ele>73.1</ele>
        <time>2012-10-28T09:56:48Z</time>
      </trkpt>
      <trkpt lat="47.29245" lon="-1.73208">
        <ele>74.5</ele>
        <time>2012-10-28T09:57:13Z</time>
      </trkpt>
      <trkpt lat="47.29269" lon="-1.73151">
        <ele>75.2</ele>
        <time>2012-10-28T09:57:26Z</time>
      </trkpt>
      <trkpt lat="47.29272" lon="-1.73147">
        <ele>75.1</ele>
        <time>2012-10-28T09:57:27Z</time>
      </trkpt>
      <trkpt lat="47.29291" lon="-1.73111">
        <ele>74.7</ele>
        <time>2012-10-28T09:57:36Z</time>
      </trkpt>
      <trkpt lat="47.29313" lon="-1.73067">
        <ele>75.7</ele>
        <time>2012-10-28T09:57:47Z</time>
      </trkpt>
      <trkpt lat="47.29315" lon="-1.73063">
        <ele>75.5</ele>
        <time>2012-10-28T09:57:48Z</time>
      </trkpt>
      <trkpt lat="47.29316" lon="-1.7306">
        <ele>75.4</ele>
        <time>2012-10-28T09:57:49Z</time>
      </trkpt>
      <trkpt lat="47.29321" lon="-1.7305">
        <ele>75.7</ele>
        <time>2012-10-28T09:57:52Z</time>
      </trkpt>
      <trkpt lat="47.29328" lon="-1.73039">
        <ele>75.3</ele>
        <time>2012-10-28T09:57:55Z</time>
      </trkpt>
      <trkpt lat="47.29345" lon="-1.73008">
        <ele>76.5</ele>
        <time>2012-10-28T09:58:05Z</time>
      </trkpt>
      <trkpt lat="47.29357" lon="-1.72984">
        <ele>76.2</ele>
        <time>2012-10-28T09:58:11Z</time>
      </trkpt>
      <trkpt lat="47.2936" lon="-1.72981">
        <ele>76.3</ele>
        <time>2012-10-28T09:58:12Z</time>
      </trkpt>
      <trkpt lat="47.29362" lon="-1.72979">
        <ele>76.3</ele>
        <time>2012-10-28T09:58:13Z</time>
      </trkpt>
      <trkpt lat="47.29365" lon="-1.72976">
        <ele>76.6</ele>
        <time>2012-10-28T09:58:14Z</time>
      </trkpt>
      <trkpt lat="47.29371" lon="-1.72973">
        <ele>76.6</ele>
        <time>2012-10-28T09:58:16Z</time>
      </trkpt>
      <trkpt lat="47.29374" lon="-1.72972">
        <ele>76.5</ele>
        <time>2012-10-28T09:58:17Z</time>
      </trkpt>
      <trkpt lat="47.29436" lon="-1.72948">
        <ele>79</ele>
        <time>2012-10-28T09:58:39Z</time>
      </trkpt>
      <trkpt lat="47.29438" lon="-1.72947">
        <ele>79</ele>
        <time>2012-10-28T09:58:40Z</time>
      </trkpt>
      <trkpt lat="47.29441" lon="-1.72948">
        <ele>79</ele>
        <time>2012-10-28T09:58:41Z</time>
      </trkpt>
      <trkpt lat="47.29444" lon="-1.72948">
        <ele>79</ele>
        <time>2012-10-28T09:58:42Z</time>
      </trkpt>
      <trkpt lat="47.29447" lon="-1.72947">
        <ele>79</ele>
        <time>2012-10-28T09:58:43Z</time>
      </trkpt>
      <trkpt lat="47.2945" lon="-1.72947">
        <ele>79.1</ele>
        <time>2012-10-28T09:58:44Z</time>
      </trkpt>
      <trkpt lat="47.29453" lon="-1.72947">
        <ele>79.3</ele>
        <time>2012-10-28T09:58:45Z</time>
      </trkpt>
      <trkpt lat="47.29457" lon="-1.72948">
        <ele>79.5</ele>
        <time>2012-10-28T09:58:46Z</time>
      </trkpt>
      <trkpt lat="47.2946" lon="-1.72948">
        <ele>79.6</ele>
        <time>2012-10-28T09:58:47Z</time>
      </trkpt>
      <trkpt lat="47.29464" lon="-1.72948">
        <ele>79.7</ele>
        <time>2012-10-28T09:58:48Z</time>
      </trkpt>
      <trkpt lat="47.29474" lon="-1.72948">
        <ele>79.3</ele>
        <time>2012-10-28T09:58:51Z</time>
      </trkpt>
      <trkpt lat="47.29477" lon="-1.72948">
        <ele>79.8</ele>
        <time>2012-10-28T09:58:52Z</time>
      </trkpt>
      <trkpt lat="47.29484" lon="-1.72949">
        <ele>80.2</ele>
        <time>2012-10-28T09:58:54Z</time>
      </trkpt>
      <trkpt lat="47.29488" lon="-1.72948">
        <ele>80.1</ele>
        <time>2012-10-28T09:58:55Z</time>
      </trkpt>
      <trkpt lat="47.29504" lon="-1.72946">
        <ele>80.1</ele>
        <time>2012-10-28T09:59:00Z</time>
      </trkpt>
      <trkpt lat="47.29528" lon="-1.72941">
        <ele>80.1</ele>
        <time>2012-10-28T09:59:07Z</time>
      </trkpt>
      <trkpt lat="47.29532" lon="-1.72939">
        <ele>80.4</ele>
        <time>2012-10-28T09:59:08Z</time>
      </trkpt>
      <trkpt lat="47.29552" lon="-1.72925">
        <ele>79.4</ele>
        <time>2012-10-28T09:59:14Z</time>
      </trkpt>
      <trkpt lat="47.29588" lon="-1.72902">
        <ele>77.5</ele>
        <time>2012-10-28T09:59:24Z</time>
      </trkpt>
      <trkpt lat="47.29648" lon="-1.72859">
        <ele>74.5</ele>
        <time>2012-10-28T09:59:42Z</time>
      </trkpt>
      <trkpt lat="47.29665" lon="-1.72845">
        <ele>74.9</ele>
        <time>2012-10-28T09:59:49Z</time>
      </trkpt>
      <trkpt lat="47.29703" lon="-1.72815">
        <ele>74.6</ele>
        <time>2012-10-28T10:00:06Z</time>
      </trkpt>
      <trkpt lat="47.29705" lon="-1.72813">
        <ele>74.4</ele>
        <time>2012-10-28T10:00:07Z</time>
      </trkpt>
      <trkpt lat="47.29711" lon="-1.72808">
        <ele>74.1</ele>
        <time>2012-10-28T10:00:10Z</time>
      </trkpt>
      <trkpt lat="47.2972" lon="-1.72798">
        <ele>73.6</ele>
        <time>2012-10-28T10:00:14Z</time>
      </trkpt>
      <trkpt lat="47.29722" lon="-1.72795">
        <ele>73.9</ele>
        <time>2012-10-28T10:00:15Z</time>
      </trkpt>
      <trkpt lat="47.29724" lon="-1.72793">
        <ele>74.1</ele>
        <time>2012-10-28T10:00:16Z</time>
      </trkpt>
      <trkpt lat="47.29726" lon="-1.7279">
        <ele>74.1</ele>
        <time>2012-10-28T10:00:17Z</time>
      </trkpt>
      <trkpt lat="47.29728" lon="-1.72783">
        <ele>74.1</ele>
        <time>2012-10-28T10:00:19Z</time>
      </trkpt>
      <trkpt lat="47.2973" lon="-1.72781">
        <ele>73.8</ele>
        <time>2012-10-28T10:00:20Z</time>
      </trkpt>
      <trkpt lat="47.29733" lon="-1.72779">
        <ele>73.6</ele>
        <time>2012-10-28T10:00:21Z</time>
      </trkpt>
      <trkpt lat="47.29737" lon="-1.72778">
        <ele>73.7</ele>
        <time>2012-10-28T10:00:22Z</time>
      </trkpt>
      <trkpt lat="47.29843" lon="-1.72751">
        <ele>70.9</ele>
        <time>2012-10-28T10:00:47Z</time>
      </trkpt>
      <trkpt lat="47.2989" lon="-1.72737">
        <ele>71.1</ele>
        <time>2012-10-28T10:00:58Z</time>
      </trkpt>
      <trkpt lat="47.29894" lon="-1.72737">
        <ele>71.3</ele>
        <time>2012-10-28T10:00:59Z</time>
      </trkpt>
      <trkpt lat="47.29898" lon="-1.72738">
        <ele>71.4</ele>
        <time>2012-10-28T10:01:00Z</time>
      </trkpt>
      <trkpt lat="47.29901" lon="-1.7274">
        <ele>71.5</ele>
        <time>2012-10-28T10:01:01Z</time>
      </trkpt>
      <trkpt lat="47.29904" lon="-1.72744">
        <ele>71.4</ele>
        <time>2012-10-28T10:01:02Z</time>
      </trkpt>
      <trkpt lat="47.29906" lon="-1.72748">
        <ele>71.3</ele>
        <time>2012-10-28T10:01:03Z</time>
      </trkpt>
      <trkpt lat="47.2991" lon="-1.72756">
        <ele>71.6</ele>
        <time>2012-10-28T10:01:05Z</time>
      </trkpt>
      <trkpt lat="47.29911" lon="-1.72761">
        <ele>71.9</ele>
        <time>2012-10-28T10:01:06Z</time>
      </trkpt>
      <trkpt lat="47.29922" lon="-1.728">
        <ele>72.2</ele>
        <time>2012-10-28T10:01:14Z</time>
      </trkpt>
      <trkpt lat="47.29923" lon="-1.72804">
        <ele>72.2</ele>
        <time>2012-10-28T10:01:15Z</time>
      </trkpt>
      <trkpt lat="47.30036" lon="-1.73171">
        <ele>75.5</ele>
        <time>2012-10-28T10:02:24Z</time>
      </trkpt>
      <trkpt lat="47.30089" lon="-1.73317">
        <ele>73.5</ele>
        <time>2012-10-28T10:02:49Z</time>
      </trkpt>
      <trkpt lat="47.3009" lon="-1.73324">
        <ele>73.3</ele>
        <time>2012-10-28T10:02:50Z</time>
      </trkpt>
      <trkpt lat="47.30106" lon="-1.7339">
        <ele>72.6</ele>
        <time>2012-10-28T10:03:00Z</time>
      </trkpt>
      <trkpt lat="47.30106" lon="-1.73396">
        <ele>72.6</ele>
        <time>2012-10-28T10:03:01Z</time>
      </trkpt>
      <trkpt lat="47.30108" lon="-1.73414">
        <ele>72</ele>
        <time>2012-10-28T10:03:04Z</time>
      </trkpt>
      <trkpt lat="47.30109" lon="-1.73419">
        <ele>71.8</ele>
        <time>2012-10-28T10:03:05Z</time>
      </trkpt>
      <trkpt lat="47.30111" lon="-1.73437">
        <ele>71.9</ele>
        <time>2012-10-28T10:03:09Z</time>
      </trkpt>
      <trkpt lat="47.30111" lon="-1.73441">
        <ele>71.8</ele>
        <time>2012-10-28T10:03:10Z</time>
      </trkpt>
      <trkpt lat="47.30111" lon="-1.73445">
        <ele>71.7</ele>
        <time>2012-10-28T10:03:11Z</time>
      </trkpt>
      <trkpt lat="47.30112" lon="-1.73449">
        <ele>71.6</ele>
        <time>2012-10-28T10:03:12Z</time>
      </trkpt>
      <trkpt lat="47.30112" lon="-1.73457">
        <ele>72.2</ele>
        <time>2012-10-28T10:03:14Z</time>
      </trkpt>
      <trkpt lat="47.30112" lon="-1.73461">
        <ele>72.2</ele>
        <time>2012-10-28T10:03:15Z</time>
      </trkpt>
      <trkpt lat="47.30112" lon="-1.73465">
        <ele>72.1</ele>
        <time>2012-10-28T10:03:16Z</time>
      </trkpt>
      <trkpt lat="47.30109" lon="-1.73511">
        <ele>72.7</ele>
        <time>2012-10-28T10:03:28Z</time>
      </trkpt>
      <trkpt lat="47.30108" lon="-1.73514">
        <ele>73</ele>
        <time>2012-10-28T10:03:29Z</time>
      </trkpt>
      <trkpt lat="47.30107" lon="-1.73517">
        <ele>72.8</ele>
        <time>2012-10-28T10:03:30Z</time>
      </trkpt>
      <trkpt lat="47.30106" lon="-1.7352">
        <ele>72.6</ele>
        <time>2012-10-28T10:03:31Z</time>
      </trkpt>
      <trkpt lat="47.30105" lon="-1.73523">
        <ele>72.6</ele>
        <time>2012-10-28T10:03:32Z</time>
      </trkpt>
      <trkpt lat="47.30103" lon="-1.73525">
        <ele>72.7</ele>
        <time>2012-10-28T10:03:33Z</time>
      </trkpt>
      <trkpt lat="47.30102" lon="-1.73527">
        <ele>72.8</ele>
        <time>2012-10-28T10:03:34Z</time>
      </trkpt>
      <trkpt lat="47.301" lon="-1.73528">
        <ele>72.9</ele>
        <time>2012-10-28T10:03:35Z</time>
      </trkpt>
      <trkpt lat="47.30094" lon="-1.73532">
        <ele>73.5</ele>
        <time>2012-10-28T10:03:38Z</time>
      </trkpt>
      <trkpt lat="47.30001" lon="-1.73601">
        <ele>75.6</ele>
        <time>2012-10-28T10:04:13Z</time>
      </trkpt>
      <trkpt lat="47.29993" lon="-1.73609">
        <ele>75.8</ele>
        <time>2012-10-28T10:04:16Z</time>
      </trkpt>
      <trkpt lat="47.29988" lon="-1.73615">
        <ele>75.3</ele>
        <time>2012-10-28T10:04:18Z</time>
      </trkpt>
      <trkpt lat="47.29986" lon="-1.73618">
        <ele>75.4</ele>
        <time>2012-10-28T10:04:19Z</time>
      </trkpt>
      <trkpt lat="47.29981" lon="-1.73624">
        <ele>75.5</ele>
        <time>2012-10-28T10:04:21Z</time>
      </trkpt>
      <trkpt lat="47.29979" lon="-1.73627">
        <ele>75.9</ele>
        <time>2012-10-28T10:04:22Z</time>
      </trkpt>
      <trkpt lat="47.2997" lon="-1.73635">
        <ele>75.8</ele>
        <time>2012-10-28T10:04:25Z</time>
      </trkpt>
      <trkpt lat="47.29962" lon="-1.73645">
        <ele>75.5</ele>
        <time>2012-10-28T10:04:28Z</time>
      </trkpt>
      <trkpt lat="47.29867" lon="-1.73772">
        <ele>77.5</ele>
        <time>2012-10-28T10:05:03Z</time>
      </trkpt>
      <trkpt lat="47.29864" lon="-1.73776">
        <ele>77.5</ele>
        <time>2012-10-28T10:05:04Z</time>
      </trkpt>
      <trkpt lat="47.29856" lon="-1.73785">
        <ele>77.9</ele>
        <time>2012-10-28T10:05:07Z</time>
      </trkpt>
      <trkpt lat="47.29853" lon="-1.73788">
        <ele>78.1</ele>
        <time>2012-10-28T10:05:08Z</time>
      </trkpt>
      <trkpt lat="47.29848" lon="-1.73795">
        <ele>78.6</ele>
        <time>2012-10-28T10:05:10Z</time>
      </trkpt>
      <trkpt lat="47.2976" lon="-1.73915">
        <ele>79.3</ele>
        <time>2012-10-28T10:05:40Z</time>
      </trkpt>
      <trkpt lat="47.29458" lon="-1.7431">
        <ele>78.1</ele>
        <time>2012-10-28T10:07:17Z</time>
      </trkpt>
      <trkpt lat="47.29455" lon="-1.74313">
        <ele>78.5</ele>
        <time>2012-10-28T10:07:18Z</time>
      </trkpt>
      <trkpt lat="47.29382" lon="-1.74409">
        <ele>78.8</ele>
        <time>2012-10-28T10:07:45Z</time>
      </trkpt>
      <trkpt lat="47.29379" lon="-1.74412">
        <ele>78.7</ele>
        <time>2012-10-28T10:07:46Z</time>
      </trkpt>
      <trkpt lat="47.2937" lon="-1.7442">
        <ele>78.6</ele>
        <time>2012-10-28T10:07:49Z</time>
      </trkpt>
      <trkpt lat="47.29367" lon="-1.74424">
        <ele>78.5</ele>
        <time>2012-10-28T10:07:50Z</time>
      </trkpt>
      <trkpt lat="47.29363" lon="-1.74431">
        <ele>78.8</ele>
        <time>2012-10-28T10:07:52Z</time>
      </trkpt>
      <trkpt lat="47.29361" lon="-1.74436">
        <ele>78.9</ele>
        <time>2012-10-28T10:07:53Z</time>
      </trkpt>
      <trkpt lat="47.29361" lon="-1.74441">
        <ele>79</ele>
        <time>2012-10-28T10:07:54Z</time>
      </trkpt>
      <trkpt lat="47.29361" lon="-1.74446">
        <ele>79</ele>
        <time>2012-10-28T10:07:55Z</time>
      </trkpt>
      <trkpt lat="47.29362" lon="-1.7445">
        <ele>79.1</ele>
        <time>2012-10-28T10:07:56Z</time>
      </trkpt>
      <trkpt lat="47.29364" lon="-1.74454">
        <ele>79.1</ele>
        <time>2012-10-28T10:07:57Z</time>
      </trkpt>
      <trkpt lat="47.2938" lon="-1.7448">
        <ele>78.8</ele>
        <time>2012-10-28T10:08:04Z</time>
      </trkpt>
      <trkpt lat="47.29401" lon="-1.74512">
        <ele>80.2</ele>
        <time>2012-10-28T10:08:13Z</time>
      </trkpt>
      <trkpt lat="47.29415" lon="-1.74531">
        <ele>79.8</ele>
        <time>2012-10-28T10:08:19Z</time>
      </trkpt>
      <trkpt lat="47.29418" lon="-1.74534">
        <ele>79.8</ele>
        <time>2012-10-28T10:08:20Z</time>
      </trkpt>
      <trkpt lat="47.29425" lon="-1.74539">
        <ele>80</ele>
        <time>2012-10-28T10:08:22Z</time>
      </trkpt>
      <trkpt lat="47.29428" lon="-1.74541">
        <ele>80.1</ele>
        <time>2012-10-28T10:08:23Z</time>
      </trkpt>
      <trkpt lat="47.29432" lon="-1.74543">
        <ele>80.1</ele>
        <time>2012-10-28T10:08:24Z</time>
      </trkpt>
      <trkpt lat="47.29447" lon="-1.74547">
        <ele>80.3</ele>
        <time>2012-10-28T10:08:28Z</time>
      </trkpt>
      <trkpt lat="47.29451" lon="-1.74549">
        <ele>80.3</ele>
        <time>2012-10-28T10:08:29Z</time>
      </trkpt>
      <trkpt lat="47.29454" lon="-1.74552">
        <ele>80.3</ele>
        <time>2012-10-28T10:08:30Z</time>
      </trkpt>
      <trkpt lat="47.29456" lon="-1.74557">
        <ele>80.3</ele>
        <time>2012-10-28T10:08:31Z</time>
      </trkpt>
      <trkpt lat="47.29456" lon="-1.74564">
        <ele>80.3</ele>
        <time>2012-10-28T10:08:32Z</time>
      </trkpt>
      <trkpt lat="47.29454" lon="-1.74569">
        <ele>80.3</ele>
        <time>2012-10-28T10:08:33Z</time>
      </trkpt>
      <trkpt lat="47.29452" lon="-1.74575">
        <ele>80.2</ele>
        <time>2012-10-28T10:08:34Z</time>
      </trkpt>
      <trkpt lat="47.29426" lon="-1.74633">
        <ele>78</ele>
        <time>2012-10-28T10:08:43Z</time>
      </trkpt>
      <trkpt lat="47.29429" lon="-1.74652">
        <ele>78.3</ele>
        <time>2012-10-28T10:08:47Z</time>
      </trkpt>
      <trkpt lat="47.29432" lon="-1.74656">
        <ele>78.4</ele>
        <time>2012-10-28T10:08:48Z</time>
      </trkpt>
      <trkpt lat="47.29439" lon="-1.74665">
        <ele>79.2</ele>
        <time>2012-10-28T10:08:51Z</time>
      </trkpt>
      <trkpt lat="47.29498" lon="-1.74743">
        <ele>79.8</ele>
        <time>2012-10-28T10:09:11Z</time>
      </trkpt>
      <trkpt lat="47.295" lon="-1.74748">
        <ele>79.6</ele>
        <time>2012-10-28T10:09:12Z</time>
      </trkpt>
      <trkpt lat="47.29505" lon="-1.74758">
        <ele>79.6</ele>
        <time>2012-10-28T10:09:14Z</time>
      </trkpt>
      <trkpt lat="47.29506" lon="-1.74763">
        <ele>79.7</ele>
        <time>2012-10-28T10:09:15Z</time>
      </trkpt>
      <trkpt lat="47.29506" lon="-1.74768">
        <ele>79.9</ele>
        <time>2012-10-28T10:09:16Z</time>
      </trkpt>
      <trkpt lat="47.29506" lon="-1.74774">
        <ele>79.9</ele>
        <time>2012-10-28T10:09:17Z</time>
      </trkpt>
      <trkpt lat="47.29504" lon="-1.74779">
        <ele>80.1</ele>
        <time>2012-10-28T10:09:18Z</time>
      </trkpt>
      <trkpt lat="47.29498" lon="-1.74795">
        <ele>80.4</ele>
        <time>2012-10-28T10:09:21Z</time>
      </trkpt>
      <trkpt lat="47.29495" lon="-1.748">
        <ele>80.4</ele>
        <time>2012-10-28T10:09:22Z</time>
      </trkpt>
      <trkpt lat="47.29323" lon="-1.75209">
        <ele>82.4</ele>
        <time>2012-10-28T10:10:39Z</time>
      </trkpt>
      <trkpt lat="47.2932" lon="-1.75214">
        <ele>82.2</ele>
        <time>2012-10-28T10:10:40Z</time>
      </trkpt>
      <trkpt lat="47.29032" lon="-1.75795">
        <ele>83.4</ele>
        <time>2012-10-28T10:12:27Z</time>
      </trkpt>
      <trkpt lat="47.29029" lon="-1.758">
        <ele>83.7</ele>
        <time>2012-10-28T10:12:28Z</time>
      </trkpt>
      <trkpt lat="47.28986" lon="-1.75875">
        <ele>85</ele>
        <time>2012-10-28T10:12:44Z</time>
      </trkpt>
      <trkpt lat="47.2898" lon="-1.75883">
        <ele>84.7</ele>
        <time>2012-10-28T10:12:46Z</time>
      </trkpt>
      <trkpt lat="47.28962" lon="-1.75902">
        <ele>84.3</ele>
        <time>2012-10-28T10:12:51Z</time>
      </trkpt>
      <trkpt lat="47.28867" lon="-1.75998">
        <ele>83.8</ele>
        <time>2012-10-28T10:13:15Z</time>
      </trkpt>
      <trkpt lat="47.28863" lon="-1.76001">
        <ele>84.2</ele>
        <time>2012-10-28T10:13:16Z</time>
      </trkpt>
      <trkpt lat="47.2886" lon="-1.76002">
        <ele>84.5</ele>
        <time>2012-10-28T10:13:17Z</time>
      </trkpt>
      <trkpt lat="47.28856" lon="-1.76002">
        <ele>84.5</ele>
        <time>2012-10-28T10:13:18Z</time>
      </trkpt>
      <trkpt lat="47.28852" lon="-1.76">
        <ele>84.5</ele>
        <time>2012-10-28T10:13:19Z</time>
      </trkpt>
      <trkpt lat="47.28849" lon="-1.75998">
        <ele>84.3</ele>
        <time>2012-10-28T10:13:20Z</time>
      </trkpt>
      <trkpt lat="47.28846" lon="-1.75994">
        <ele>84.2</ele>
        <time>2012-10-28T10:13:21Z</time>
      </trkpt>
      <trkpt lat="47.28844" lon="-1.7599">
        <ele>84.2</ele>
        <time>2012-10-28T10:13:22Z</time>
      </trkpt>
      <trkpt lat="47.2884" lon="-1.75981">
        <ele>84.5</ele>
        <time>2012-10-28T10:13:24Z</time>
      </trkpt>
      <trkpt lat="47.28838" lon="-1.75976">
        <ele>84.5</ele>
        <time>2012-10-28T10:13:25Z</time>
      </trkpt>
      <trkpt lat="47.28837" lon="-1.7597">
        <ele>84.5</ele>
        <time>2012-10-28T10:13:26Z</time>
      </trkpt>
      <trkpt lat="47.28814" lon="-1.75884">
        <ele>83.5</ele>
        <time>2012-10-28T10:13:41Z</time>
      </trkpt>
      <trkpt lat="47.28813" lon="-1.75878">
        <ele>83.8</ele>
        <time>2012-10-28T10:13:42Z</time>
      </trkpt>
      <trkpt lat="47.28804" lon="-1.75851">
        <ele>84</ele>
        <time>2012-10-28T10:13:47Z</time>
      </trkpt>
      <trkpt lat="47.28798" lon="-1.75834">
        <ele>84.2</ele>
        <time>2012-10-28T10:13:50Z</time>
      </trkpt>
      <trkpt lat="47.28786" lon="-1.75792">
        <ele>84</ele>
        <time>2012-10-28T10:13:57Z</time>
      </trkpt>
      <trkpt lat="47.28755" lon="-1.75677">
        <ele>84.1</ele>
        <time>2012-10-28T10:14:15Z</time>
      </trkpt>
      <trkpt lat="47.28754" lon="-1.75672">
        <ele>84.1</ele>
        <time>2012-10-28T10:14:16Z</time>
      </trkpt>
      <trkpt lat="47.28753" lon="-1.75666">
        <ele>84.5</ele>
        <time>2012-10-28T10:14:17Z</time>
      </trkpt>
      <trkpt lat="47.28752" lon="-1.75662">
        <ele>84.7</ele>
        <time>2012-10-28T10:14:18Z</time>
      </trkpt>
      <trkpt lat="47.28749" lon="-1.75659">
        <ele>84.9</ele>
        <time>2012-10-28T10:14:19Z</time>
      </trkpt>
      <trkpt lat="47.28746" lon="-1.75658">
        <ele>84.6</ele>
        <time>2012-10-28T10:14:20Z</time>
      </trkpt>
      <trkpt lat="47.28742" lon="-1.7566">
        <ele>84.4</ele>
        <time>2012-10-28T10:14:21Z</time>
      </trkpt>
      <trkpt lat="47.28738" lon="-1.75662">
        <ele>84.3</ele>
        <time>2012-10-28T10:14:22Z</time>
      </trkpt>
      <trkpt lat="47.28653" lon="-1.75723">
        <ele>82.1</ele>
        <time>2012-10-28T10:14:40Z</time>
      </trkpt>
      <trkpt lat="47.28454" lon="-1.75867">
        <ele>77.6</ele>
        <time>2012-10-28T10:15:19Z</time>
      </trkpt>
      <trkpt lat="47.2845" lon="-1.75871">
        <ele>77.5</ele>
        <time>2012-10-28T10:15:20Z</time>
      </trkpt>
      <trkpt lat="47.28448" lon="-1.75875">
        <ele>77.1</ele>
        <time>2012-10-28T10:15:21Z</time>
      </trkpt>
      <trkpt lat="47.28449" lon="-1.75879">
        <ele>76.9</ele>
        <time>2012-10-28T10:15:22Z</time>
      </trkpt>
      <trkpt lat="47.28451" lon="-1.75881">
        <ele>76.7</ele>
        <time>2012-10-28T10:15:23Z</time>
      </trkpt>
      <trkpt lat="47.28452" lon="-1.75883">
        <ele>76.6</ele>
        <time>2012-10-28T10:15:24Z</time>
      </trkpt>
      <trkpt lat="47.28454" lon="-1.75884">
        <ele>76.6</ele>
        <time>2012-10-28T10:15:25Z</time>
      </trkpt>
      <trkpt lat="47.28457" lon="-1.75886">
        <ele>76.6</ele>
        <time>2012-10-28T10:15:27Z</time>
      </trkpt>
      <trkpt lat="47.28458" lon="-1.75887">
        <ele>76.6</ele>
        <time>2012-10-28T10:15:28Z</time>
      </trkpt>
      <trkpt lat="47.2846" lon="-1.75889">
        <ele>77.6</ele>
        <time>2012-10-28T10:15:30Z</time>
      </trkpt>
      <trkpt lat="47.28462" lon="-1.7589">
        <ele>77.3</ele>
        <time>2012-10-28T10:15:31Z</time>
      </trkpt>
      <trkpt lat="47.28464" lon="-1.75891">
        <ele>77.1</ele>
        <time>2012-10-28T10:15:32Z</time>
      </trkpt>
      <trkpt lat="47.28465" lon="-1.75892">
        <ele>77.1</ele>
        <time>2012-10-28T10:15:33Z</time>
      </trkpt>
      <trkpt lat="47.28467" lon="-1.75893">
        <ele>77.1</ele>
        <time>2012-10-28T10:15:34Z</time>
      </trkpt>
      <trkpt lat="47.28469" lon="-1.75894">
        <ele>77.1</ele>
        <time>2012-10-28T10:15:35Z</time>
      </trkpt>
      <trkpt lat="47.28491" lon="-1.75904">
        <ele>77.4</ele>
        <time>2012-10-28T10:15:44Z</time>
      </trkpt>
      <trkpt lat="47.28504" lon="-1.75912">
        <ele>77.9</ele>
        <time>2012-10-28T10:15:49Z</time>
      </trkpt>
      <trkpt lat="47.28507" lon="-1.75914">
        <ele>77.8</ele>
        <time>2012-10-28T10:15:50Z</time>
      </trkpt>
      <trkpt lat="47.28509" lon="-1.75916">
        <ele>77.7</ele>
        <time>2012-10-28T10:15:51Z</time>
      </trkpt>
      <trkpt lat="47.28581" lon="-1.76004">
        <ele>79.9</ele>
        <time>2012-10-28T10:16:19Z</time>
      </trkpt>
      <trkpt lat="47.28604" lon="-1.76034">
        <ele>80</ele>
        <time>2012-10-28T10:16:29Z</time>
      </trkpt>
      <trkpt lat="47.28606" lon="-1.76038">
        <ele>79.7</ele>
        <time>2012-10-28T10:16:30Z</time>
      </trkpt>
      <trkpt lat="47.28608" lon="-1.76042">
        <ele>79.4</ele>
        <time>2012-10-28T10:16:31Z</time>
      </trkpt>
      <trkpt lat="47.2861" lon="-1.76047">
        <ele>79.3</ele>
        <time>2012-10-28T10:16:32Z</time>
      </trkpt>
      <trkpt lat="47.28615" lon="-1.76062">
        <ele>79.7</ele>
        <time>2012-10-28T10:16:35Z</time>
      </trkpt>
      <trkpt lat="47.28616" lon="-1.76067">
        <ele>79.6</ele>
        <time>2012-10-28T10:16:36Z</time>
      </trkpt>
      <trkpt lat="47.28617" lon="-1.76073">
        <ele>79.5</ele>
        <time>2012-10-28T10:16:37Z</time>
      </trkpt>
      <trkpt lat="47.28618" lon="-1.76084">
        <ele>79.4</ele>
        <time>2012-10-28T10:16:39Z</time>
      </trkpt>
      <trkpt lat="47.28618" lon="-1.7609">
        <ele>79.4</ele>
        <time>2012-10-28T10:16:40Z</time>
      </trkpt>
      <trkpt lat="47.28619" lon="-1.76159">
        <ele>79.9</ele>
        <time>2012-10-28T10:16:52Z</time>
      </trkpt>
      <trkpt lat="47.28617" lon="-1.7619">
        <ele>79.5</ele>
        <time>2012-10-28T10:16:58Z</time>
      </trkpt>
      <trkpt lat="47.28611" lon="-1.76274">
        <ele>79.3</ele>
        <time>2012-10-28T10:17:13Z</time>
      </trkpt>
      <trkpt lat="47.28605" lon="-1.76333">
        <ele>78.7</ele>
        <time>2012-10-28T10:17:24Z</time>
      </trkpt>
      <trkpt lat="47.28604" lon="-1.76338">
        <ele>78.7</ele>
        <time>2012-10-28T10:17:25Z</time>
      </trkpt>
      <trkpt lat="47.28602" lon="-1.7635">
        <ele>78.5</ele>
        <time>2012-10-28T10:17:27Z</time>
      </trkpt>
      <trkpt lat="47.28602" lon="-1.76355">
        <ele>78.4</ele>
        <time>2012-10-28T10:17:28Z</time>
      </trkpt>
      <trkpt lat="47.28601" lon="-1.76366">
        <ele>78.5</ele>
        <time>2012-10-28T10:17:30Z</time>
      </trkpt>
      <trkpt lat="47.28602" lon="-1.76371">
        <ele>78.6</ele>
        <time>2012-10-28T10:17:31Z</time>
      </trkpt>
      <trkpt lat="47.28603" lon="-1.76376">
        <ele>78.4</ele>
        <time>2012-10-28T10:17:32Z</time>
      </trkpt>
      <trkpt lat="47.28604" lon="-1.7638">
        <ele>78.2</ele>
        <time>2012-10-28T10:17:33Z</time>
      </trkpt>
      <trkpt lat="47.28611" lon="-1.764">
        <ele>78.1</ele>
        <time>2012-10-28T10:17:37Z</time>
      </trkpt>
      <trkpt lat="47.28613" lon="-1.76404">
        <ele>78.2</ele>
        <time>2012-10-28T10:17:38Z</time>
      </trkpt>
      <trkpt lat="47.28626" lon="-1.7643">
        <ele>77</ele>
        <time>2012-10-28T10:17:44Z</time>
      </trkpt>
      <trkpt lat="47.28639" lon="-1.76457">
        <ele>77.1</ele>
        <time>2012-10-28T10:17:51Z</time>
      </trkpt>
      <trkpt lat="47.28641" lon="-1.76462">
        <ele>77.1</ele>
        <time>2012-10-28T10:17:52Z</time>
      </trkpt>
      <trkpt lat="47.28654" lon="-1.76507">
        <ele>76.6</ele>
        <time>2012-10-28T10:18:01Z</time>
      </trkpt>
      <trkpt lat="47.28656" lon="-1.76511">
        <ele>76.3</ele>
        <time>2012-10-28T10:18:02Z</time>
      </trkpt>
      <trkpt lat="47.28658" lon="-1.76514">
        <ele>76.9</ele>
        <time>2012-10-28T10:18:03Z</time>
      </trkpt>
      <trkpt lat="47.28659" lon="-1.76519">
        <ele>77.4</ele>
        <time>2012-10-28T10:18:04Z</time>
      </trkpt>
      <trkpt lat="47.28668" lon="-1.76558">
        <ele>78.8</ele>
        <time>2012-10-28T10:18:13Z</time>
      </trkpt>
      <trkpt lat="47.28669" lon="-1.76568">
        <ele>78.4</ele>
        <time>2012-10-28T10:18:15Z</time>
      </trkpt>
      <trkpt lat="47.28669" lon="-1.76572">
        <ele>78</ele>
        <time>2012-10-28T10:18:16Z</time>
      </trkpt>
      <trkpt lat="47.28669" lon="-1.76577">
        <ele>78.2</ele>
        <time>2012-10-28T10:18:17Z</time>
      </trkpt>
      <trkpt lat="47.28667" lon="-1.76586">
        <ele>78.3</ele>
        <time>2012-10-28T10:18:19Z</time>
      </trkpt>
      <trkpt lat="47.28667" lon="-1.76591">
        <ele>78.3</ele>
        <time>2012-10-28T10:18:20Z</time>
      </trkpt>
      <trkpt lat="47.28667" lon="-1.76597">
        <ele>78.3</ele>
        <time>2012-10-28T10:18:21Z</time>
      </trkpt>
      <trkpt lat="47.28668" lon="-1.76607">
        <ele>78.4</ele>
        <time>2012-10-28T10:18:23Z</time>
      </trkpt>
      <trkpt lat="47.28669" lon="-1.76612">
        <ele>78.4</ele>
        <time>2012-10-28T10:18:24Z</time>
      </trkpt>
      <trkpt lat="47.28674" lon="-1.76636">
        <ele>77.9</ele>
        <time>2012-10-28T10:18:29Z</time>
      </trkpt>
      <trkpt lat="47.28677" lon="-1.76658">
        <ele>78.4</ele>
        <time>2012-10-28T10:18:33Z</time>
      </trkpt>
      <trkpt lat="47.28677" lon="-1.76662">
        <ele>78.5</ele>
        <time>2012-10-28T10:18:34Z</time>
      </trkpt>
      <trkpt lat="47.28677" lon="-1.76667">
        <ele>78.5</ele>
        <time>2012-10-28T10:18:35Z</time>
      </trkpt>
      <trkpt lat="47.28676" lon="-1.76671">
        <ele>78.5</ele>
        <time>2012-10-28T10:18:36Z</time>
      </trkpt>
      <trkpt lat="47.28675" lon="-1.76675">
        <ele>78.5</ele>
        <time>2012-10-28T10:18:37Z</time>
      </trkpt>
      <trkpt lat="47.28674" lon="-1.76679">
        <ele>78.9</ele>
        <time>2012-10-28T10:18:38Z</time>
      </trkpt>
      <trkpt lat="47.28671" lon="-1.76684">
        <ele>79.1</ele>
        <time>2012-10-28T10:18:39Z</time>
      </trkpt>
      <trkpt lat="47.28666" lon="-1.76692">
        <ele>79</ele>
        <time>2012-10-28T10:18:41Z</time>
      </trkpt>
      <trkpt lat="47.2864" lon="-1.76732">
        <ele>78.3</ele>
        <time>2012-10-28T10:18:50Z</time>
      </trkpt>
      <trkpt lat="47.28638" lon="-1.76737">
        <ele>78.3</ele>
        <time>2012-10-28T10:18:51Z</time>
      </trkpt>
      <trkpt lat="47.28636" lon="-1.76744">
        <ele>78.3</ele>
        <time>2012-10-28T10:18:52Z</time>
      </trkpt>
      <trkpt lat="47.28636" lon="-1.7675">
        <ele>77.8</ele>
        <time>2012-10-28T10:18:53Z</time>
      </trkpt>
      <trkpt lat="47.28637" lon="-1.76766">
        <ele>77.2</ele>
        <time>2012-10-28T10:18:56Z</time>
      </trkpt>
      <trkpt lat="47.28636" lon="-1.7677">
        <ele>77.7</ele>
        <time>2012-10-28T10:18:57Z</time>
      </trkpt>
      <trkpt lat="47.28635" lon="-1.76774">
        <ele>78.1</ele>
        <time>2012-10-28T10:18:58Z</time>
      </trkpt>
      <trkpt lat="47.28633" lon="-1.76777">
        <ele>78.4</ele>
        <time>2012-10-28T10:18:59Z</time>
      </trkpt>
      <trkpt lat="47.2863" lon="-1.76781">
        <ele>78.2</ele>
        <time>2012-10-28T10:19:00Z</time>
      </trkpt>
      <trkpt lat="47.28624" lon="-1.76788">
        <ele>77.7</ele>
        <time>2012-10-28T10:19:02Z</time>
      </trkpt>
      <trkpt lat="47.28612" lon="-1.76799">
        <ele>76.9</ele>
        <time>2012-10-28T10:19:05Z</time>
      </trkpt>
      <trkpt lat="47.28603" lon="-1.76806">
        <ele>76.9</ele>
        <time>2012-10-28T10:19:07Z</time>
      </trkpt>
      <trkpt lat="47.28539" lon="-1.76848">
        <ele>76.2</ele>
        <time>2012-10-28T10:19:20Z</time>
      </trkpt>
      <trkpt lat="47.28478" lon="-1.76883">
        <ele>75.5</ele>
        <time>2012-10-28T10:19:32Z</time>
      </trkpt>
      <trkpt lat="47.28474" lon="-1.76888">
        <ele>75.5</ele>
        <time>2012-10-28T10:19:33Z</time>
      </trkpt>
      <trkpt lat="47.28471" lon="-1.76895">
        <ele>75.6</ele>
        <time>2012-10-28T10:19:34Z</time>
      </trkpt>
      <trkpt lat="47.28469" lon="-1.76903">
        <ele>75.5</ele>
        <time>2012-10-28T10:19:35Z</time>
      </trkpt>
      <trkpt lat="47.28468" lon="-1.7691">
        <ele>75.4</ele>
        <time>2012-10-28T10:19:36Z</time>
      </trkpt>
      <trkpt lat="47.28458" lon="-1.7703">
        <ele>74.3</ele>
        <time>2012-10-28T10:19:51Z</time>
      </trkpt>
      <trkpt lat="47.28457" lon="-1.77038">
        <ele>74.2</ele>
        <time>2012-10-28T10:19:52Z</time>
      </trkpt>
      <trkpt lat="47.28454" lon="-1.77044">
        <ele>74.2</ele>
        <time>2012-10-28T10:19:53Z</time>
      </trkpt>
      <trkpt lat="47.28451" lon="-1.77051">
        <ele>74.2</ele>
        <time>2012-10-28T10:19:54Z</time>
      </trkpt>
      <trkpt lat="47.28448" lon="-1.77057">
        <ele>74.3</ele>
        <time>2012-10-28T10:19:55Z</time>
      </trkpt>
      <trkpt lat="47.28444" lon="-1.77062">
        <ele>74.3</ele>
        <time>2012-10-28T10:19:56Z</time>
      </trkpt>
      <trkpt lat="47.28441" lon="-1.77067">
        <ele>73.7</ele>
        <time>2012-10-28T10:19:57Z</time>
      </trkpt>
      <trkpt lat="47.28436" lon="-1.77071">
        <ele>73.3</ele>
        <time>2012-10-28T10:19:58Z</time>
      </trkpt>
      <trkpt lat="47.28432" lon="-1.77073">
        <ele>73.5</ele>
        <time>2012-10-28T10:19:59Z</time>
      </trkpt>
      <trkpt lat="47.28408" lon="-1.77084">
        <ele>73.1</ele>
        <time>2012-10-28T10:20:04Z</time>
      </trkpt>
      <trkpt lat="47.28403" lon="-1.77086">
        <ele>73</ele>
        <time>2012-10-28T10:20:05Z</time>
      </trkpt>
      <trkpt lat="47.28398" lon="-1.77087">
        <ele>73</ele>
        <time>2012-10-28T10:20:06Z</time>
      </trkpt>
      <trkpt lat="47.28373" lon="-1.77091">
        <ele>73.3</ele>
        <time>2012-10-28T10:20:11Z</time>
      </trkpt>
      <trkpt lat="47.28368" lon="-1.77091">
        <ele>73.2</ele>
        <time>2012-10-28T10:20:12Z</time>
      </trkpt>
      <trkpt lat="47.28363" lon="-1.7709">
        <ele>73</ele>
        <time>2012-10-28T10:20:13Z</time>
      </trkpt>
      <trkpt lat="47.28353" lon="-1.77088">
        <ele>72.6</ele>
        <time>2012-10-28T10:20:15Z</time>
      </trkpt>
      <trkpt lat="47.28349" lon="-1.77089">
        <ele>72.4</ele>
        <time>2012-10-28T10:20:16Z</time>
      </trkpt>
      <trkpt lat="47.28323" lon="-1.77096">
        <ele>71.3</ele>
        <time>2012-10-28T10:20:21Z</time>
      </trkpt>
      <trkpt lat="47.28222" lon="-1.77136">
        <ele>69.6</ele>
        <time>2012-10-28T10:20:40Z</time>
      </trkpt>
      <trkpt lat="47.28217" lon="-1.77138">
        <ele>69.6</ele>
        <time>2012-10-28T10:20:41Z</time>
      </trkpt>
      <trkpt lat="47.28196" lon="-1.77149">
        <ele>68.4</ele>
        <time>2012-10-28T10:20:45Z</time>
      </trkpt>
      <trkpt lat="47.28186" lon="-1.77155">
        <ele>68.1</ele>
        <time>2012-10-28T10:20:47Z</time>
      </trkpt>
      <trkpt lat="47.28181" lon="-1.77155">
        <ele>68.1</ele>
        <time>2012-10-28T10:20:48Z</time>
      </trkpt>
      <trkpt lat="47.28173" lon="-1.77155">
        <ele>67.9</ele>
        <time>2012-10-28T10:20:50Z</time>
      </trkpt>
      <trkpt lat="47.28169" lon="-1.77156">
        <ele>67.6</ele>
        <time>2012-10-28T10:20:51Z</time>
      </trkpt>
      <trkpt lat="47.28155" lon="-1.77161">
        <ele>67.7</ele>
        <time>2012-10-28T10:20:54Z</time>
      </trkpt>
      <trkpt lat="47.28002" lon="-1.77239">
        <ele>69.7</ele>
        <time>2012-10-28T10:21:27Z</time>
      </trkpt>
      <trkpt lat="47.27895" lon="-1.77286">
        <ele>63.6</ele>
        <time>2012-10-28T10:21:43Z</time>
      </trkpt>
      <trkpt lat="47.27891" lon="-1.77286">
        <ele>63.1</ele>
        <time>2012-10-28T10:21:44Z</time>
      </trkpt>
      <trkpt lat="47.27888" lon="-1.77285">
        <ele>62.7</ele>
        <time>2012-10-28T10:21:45Z</time>
      </trkpt>
      <trkpt lat="47.27886" lon="-1.77282">
        <ele>62.5</ele>
        <time>2012-10-28T10:21:46Z</time>
      </trkpt>
      <trkpt lat="47.27886" lon="-1.77278">
        <ele>62.3</ele>
        <time>2012-10-28T10:21:47Z</time>
      </trkpt>
      <trkpt lat="47.27886" lon="-1.77274">
        <ele>62.2</ele>
        <time>2012-10-28T10:21:48Z</time>
      </trkpt>
      <trkpt lat="47.27888" lon="-1.77269">
        <ele>62.1</ele>
        <time>2012-10-28T10:21:49Z</time>
      </trkpt>
      <trkpt lat="47.27911" lon="-1.77191">
        <ele>63.4</ele>
        <time>2012-10-28T10:22:06Z</time>
      </trkpt>
      <trkpt lat="47.27912" lon="-1.77186">
        <ele>63.9</ele>
        <time>2012-10-28T10:22:07Z</time>
      </trkpt>
      <trkpt lat="47.27928" lon="-1.77044">
        <ele>60.8</ele>
        <time>2012-10-28T10:22:32Z</time>
      </trkpt>
      <trkpt lat="47.27927" lon="-1.77039">
        <ele>60.6</ele>
        <time>2012-10-28T10:22:33Z</time>
      </trkpt>
      <trkpt lat="47.27924" lon="-1.77035">
        <ele>60.4</ele>
        <time>2012-10-28T10:22:34Z</time>
      </trkpt>
      <trkpt lat="47.27889" lon="-1.76976">
        <ele>57.2</ele>
        <time>2012-10-28T10:22:43Z</time>
      </trkpt>
      <trkpt lat="47.27886" lon="-1.76973">
        <ele>56.9</ele>
        <time>2012-10-28T10:22:44Z</time>
      </trkpt>
      <trkpt lat="47.27882" lon="-1.76971">
        <ele>56.7</ele>
        <time>2012-10-28T10:22:45Z</time>
      </trkpt>
      <trkpt lat="47.27879" lon="-1.7697">
        <ele>56.6</ele>
        <time>2012-10-28T10:22:46Z</time>
      </trkpt>
      <trkpt lat="47.27865" lon="-1.76965">
        <ele>57.3</ele>
        <time>2012-10-28T10:22:50Z</time>
      </trkpt>
      <trkpt lat="47.27862" lon="-1.76963">
        <ele>57.7</ele>
        <time>2012-10-28T10:22:51Z</time>
      </trkpt>
      <trkpt lat="47.2786" lon="-1.7696">
        <ele>57.7</ele>
        <time>2012-10-28T10:22:52Z</time>
      </trkpt>
      <trkpt lat="47.27857" lon="-1.76957">
        <ele>57.6</ele>
        <time>2012-10-28T10:22:53Z</time>
      </trkpt>
      <trkpt lat="47.27856" lon="-1.76954">
        <ele>57.6</ele>
        <time>2012-10-28T10:22:54Z</time>
      </trkpt>
      <trkpt lat="47.27854" lon="-1.76951">
        <ele>57.9</ele>
        <time>2012-10-28T10:22:55Z</time>
      </trkpt>
      <trkpt lat="47.27852" lon="-1.76943">
        <ele>58.9</ele>
        <time>2012-10-28T10:22:57Z</time>
      </trkpt>
      <trkpt lat="47.27849" lon="-1.76934">
        <ele>59.9</ele>
        <time>2012-10-28T10:23:00Z</time>
      </trkpt>
      <trkpt lat="47.27847" lon="-1.76931">
        <ele>60.1</ele>
        <time>2012-10-28T10:23:01Z</time>
      </trkpt>
      <trkpt lat="47.27846" lon="-1.76927">
        <ele>60.1</ele>
        <time>2012-10-28T10:23:02Z</time>
      </trkpt>
      <trkpt lat="47.27844" lon="-1.76924">
        <ele>60.1</ele>
        <time>2012-10-28T10:23:03Z</time>
      </trkpt>
      <trkpt lat="47.27842" lon="-1.76922">
        <ele>60.7</ele>
        <time>2012-10-28T10:23:04Z</time>
      </trkpt>
      <trkpt lat="47.2784" lon="-1.76921">
        <ele>61.1</ele>
        <time>2012-10-28T10:23:05Z</time>
      </trkpt>
      <trkpt lat="47.27838" lon="-1.76919">
        <ele>61.4</ele>
        <time>2012-10-28T10:23:06Z</time>
      </trkpt>
      <trkpt lat="47.27835" lon="-1.76918">
        <ele>61.5</ele>
        <time>2012-10-28T10:23:07Z</time>
      </trkpt>
      <trkpt lat="47.27819" lon="-1.76913">
        <ele>62.4</ele>
        <time>2012-10-28T10:23:12Z</time>
      </trkpt>
      <trkpt lat="47.27804" lon="-1.76909">
        <ele>62.1</ele>
        <time>2012-10-28T10:23:16Z</time>
      </trkpt>
      <trkpt lat="47.278" lon="-1.76906">
        <ele>62</ele>
        <time>2012-10-28T10:23:17Z</time>
      </trkpt>
      <trkpt lat="47.27796" lon="-1.76904">
        <ele>61.8</ele>
        <time>2012-10-28T10:23:18Z</time>
      </trkpt>
      <trkpt lat="47.27793" lon="-1.76901">
        <ele>61.6</ele>
        <time>2012-10-28T10:23:19Z</time>
      </trkpt>
      <trkpt lat="47.27766" lon="-1.76877">
        <ele>61.2</ele>
        <time>2012-10-28T10:23:27Z</time>
      </trkpt>
      <trkpt lat="47.27762" lon="-1.76875">
        <ele>61.2</ele>
        <time>2012-10-28T10:23:28Z</time>
      </trkpt>
      <trkpt lat="47.27729" lon="-1.7686">
        <ele>59.8</ele>
        <time>2012-10-28T10:23:35Z</time>
      </trkpt>
      <trkpt lat="47.27724" lon="-1.76858">
        <ele>59.5</ele>
        <time>2012-10-28T10:23:36Z</time>
      </trkpt>
      <trkpt lat="47.27719" lon="-1.76857">
        <ele>59.6</ele>
        <time>2012-10-28T10:23:37Z</time>
      </trkpt>
      <trkpt lat="47.27714" lon="-1.76857">
        <ele>59.6</ele>
        <time>2012-10-28T10:23:38Z</time>
      </trkpt>
      <trkpt lat="47.27709" lon="-1.76858">
        <ele>59.7</ele>
        <time>2012-10-28T10:23:39Z</time>
      </trkpt>
      <trkpt lat="47.27693" lon="-1.76863">
        <ele>59.1</ele>
        <time>2012-10-28T10:23:42Z</time>
      </trkpt>
      <trkpt lat="47.27688" lon="-1.76866">
        <ele>58.8</ele>
        <time>2012-10-28T10:23:43Z</time>
      </trkpt>
      <trkpt lat="47.27666" lon="-1.76884">
        <ele>56.9</ele>
        <time>2012-10-28T10:23:48Z</time>
      </trkpt>
      <trkpt lat="47.27662" lon="-1.76889">
        <ele>56.7</ele>
        <time>2012-10-28T10:23:49Z</time>
      </trkpt>
      <trkpt lat="47.27653" lon="-1.76902">
        <ele>56.5</ele>
        <time>2012-10-28T10:23:51Z</time>
      </trkpt>
      <trkpt lat="47.27638" lon="-1.76926">
        <ele>54.7</ele>
        <time>2012-10-28T10:23:55Z</time>
      </trkpt>
      <trkpt lat="47.27636" lon="-1.76932">
        <ele>53.8</ele>
        <time>2012-10-28T10:23:56Z</time>
      </trkpt>
      <trkpt lat="47.27634" lon="-1.76939">
        <ele>53.2</ele>
        <time>2012-10-28T10:23:57Z</time>
      </trkpt>
      <trkpt lat="47.27633" lon="-1.76946">
        <ele>52.8</ele>
        <time>2012-10-28T10:23:58Z</time>
      </trkpt>
      <trkpt lat="47.27631" lon="-1.76952">
        <ele>52</ele>
        <time>2012-10-28T10:23:59Z</time>
      </trkpt>
      <trkpt lat="47.27628" lon="-1.76958">
        <ele>51.4</ele>
        <time>2012-10-28T10:24:00Z</time>
      </trkpt>
      <trkpt lat="47.27624" lon="-1.76964">
        <ele>50.4</ele>
        <time>2012-10-28T10:24:01Z</time>
      </trkpt>
      <trkpt lat="47.27619" lon="-1.7697">
        <ele>49.7</ele>
        <time>2012-10-28T10:24:02Z</time>
      </trkpt>
      <trkpt lat="47.27614" lon="-1.76975">
        <ele>48.4</ele>
        <time>2012-10-28T10:24:03Z</time>
      </trkpt>
      <trkpt lat="47.27609" lon="-1.76979">
        <ele>47.4</ele>
        <time>2012-10-28T10:24:04Z</time>
      </trkpt>
      <trkpt lat="47.27597" lon="-1.76986">
        <ele>46.2</ele>
        <time>2012-10-28T10:24:06Z</time>
      </trkpt>
      <trkpt lat="47.27592" lon="-1.7699">
        <ele>45.8</ele>
        <time>2012-10-28T10:24:07Z</time>
      </trkpt>
      <trkpt lat="47.27585" lon="-1.76997">
        <ele>44.4</ele>
        <time>2012-10-28T10:24:09Z</time>
      </trkpt>
      <trkpt lat="47.27581" lon="-1.77">
        <ele>43.9</ele>
        <time>2012-10-28T10:24:10Z</time>
      </trkpt>
      <trkpt lat="47.27578" lon="-1.77001">
        <ele>43.3</ele>
        <time>2012-10-28T10:24:11Z</time>
      </trkpt>
      <trkpt lat="47.27575" lon="-1.77">
        <ele>42.9</ele>
        <time>2012-10-28T10:24:12Z</time>
      </trkpt>
      <trkpt lat="47.27573" lon="-1.76999">
        <ele>41.7</ele>
        <time>2012-10-28T10:24:13Z</time>
      </trkpt>
      <trkpt lat="47.27572" lon="-1.76996">
        <ele>40.9</ele>
        <time>2012-10-28T10:24:14Z</time>
      </trkpt>
      <trkpt lat="47.27559" lon="-1.76971">
        <ele>40.6</ele>
        <time>2012-10-28T10:24:22Z</time>
      </trkpt>
      <trkpt lat="47.27558" lon="-1.76967">
        <ele>40.9</ele>
        <time>2012-10-28T10:24:23Z</time>
      </trkpt>
      <trkpt lat="47.27543" lon="-1.76928">
        <ele>42.8</ele>
        <time>2012-10-28T10:24:34Z</time>
      </trkpt>
      <trkpt lat="47.27522" lon="-1.76875">
        <ele>44.8</ele>
        <time>2012-10-28T10:24:48Z</time>
      </trkpt>
      <trkpt lat="47.27514" lon="-1.76849">
        <ele>44.5</ele>
        <time>2012-10-28T10:24:54Z</time>
      </trkpt>
      <trkpt lat="47.27512" lon="-1.76845">
        <ele>44.6</ele>
        <time>2012-10-28T10:24:55Z</time>
      </trkpt>
      <trkpt lat="47.27512" lon="-1.76841">
        <ele>44.5</ele>
        <time>2012-10-28T10:24:56Z</time>
      </trkpt>
      <trkpt lat="47.27511" lon="-1.76837">
        <ele>44.5</ele>
        <time>2012-10-28T10:24:57Z</time>
      </trkpt>
      <trkpt lat="47.27511" lon="-1.76833">
        <ele>44.6</ele>
        <time>2012-10-28T10:24:58Z</time>
      </trkpt>
      <trkpt lat="47.27511" lon="-1.76828">
        <ele>44.5</ele>
        <time>2012-10-28T10:25:01Z</time>
      </trkpt>
      <trkpt lat="47.27511" lon="-1.76827">
        <ele>44.5</ele>
        <time>2012-10-28T10:25:02Z</time>
      </trkpt>
      <trkpt lat="47.27511" lon="-1.76826">
        <ele>44.8</ele>
        <time>2012-10-28T10:25:03Z</time>
      </trkpt>
      <trkpt lat="47.27511" lon="-1.76824">
        <ele>44.9</ele>
        <time>2012-10-28T10:25:04Z</time>
      </trkpt>
      <trkpt lat="47.27511" lon="-1.7682">
        <ele>45.3</ele>
        <time>2012-10-28T10:25:06Z</time>
      </trkpt>
      <trkpt lat="47.27512" lon="-1.76818">
        <ele>45.4</ele>
        <time>2012-10-28T10:25:07Z</time>
      </trkpt>
      <trkpt lat="47.27512" lon="-1.76816">
        <ele>45.4</ele>
        <time>2012-10-28T10:25:08Z</time>
      </trkpt>
      <trkpt lat="47.27513" lon="-1.7681">
        <ele>45.4</ele>
        <time>2012-10-28T10:25:11Z</time>
      </trkpt>
      <trkpt lat="47.27513" lon="-1.76809">
        <ele>45.2</ele>
        <time>2012-10-28T10:25:12Z</time>
      </trkpt>
      <trkpt lat="47.27515" lon="-1.76805">
        <ele>44.9</ele>
        <time>2012-10-28T10:25:14Z</time>
      </trkpt>
      <trkpt lat="47.27517" lon="-1.76801">
        <ele>45.7</ele>
        <time>2012-10-28T10:25:17Z</time>
      </trkpt>
      <trkpt lat="47.27517" lon="-1.76799">
        <ele>45.9</ele>
        <time>2012-10-28T10:25:18Z</time>
      </trkpt>
      <trkpt lat="47.27518" lon="-1.76795">
        <ele>46.2</ele>
        <time>2012-10-28T10:25:20Z</time>
      </trkpt>
      <trkpt lat="47.27518" lon="-1.76791">
        <ele>46.1</ele>
        <time>2012-10-28T10:25:22Z</time>
      </trkpt>
      <trkpt lat="47.27519" lon="-1.76789">
        <ele>46</ele>
        <time>2012-10-28T10:25:23Z</time>
      </trkpt>
      <trkpt lat="47.27519" lon="-1.76788">
        <ele>45.9</ele>
        <time>2012-10-28T10:25:24Z</time>
      </trkpt>
      <trkpt lat="47.27519" lon="-1.76787">
        <ele>45.8</ele>
        <time>2012-10-28T10:25:25Z</time>
      </trkpt>
      <trkpt lat="47.2752" lon="-1.76786">
        <ele>45.8</ele>
        <time>2012-10-28T10:25:26Z</time>
      </trkpt>
      <trkpt lat="47.2752" lon="-1.76786">
        <ele>46.5</ele>
        <time>2012-10-28T10:25:27Z</time>
      </trkpt>
      <trkpt lat="47.27519" lon="-1.76786">
        <ele>47.1</ele>
        <time>2012-10-28T10:25:28Z</time>
      </trkpt>
      <trkpt lat="47.27519" lon="-1.76786">
        <ele>46.9</ele>
        <time>2012-10-28T10:25:29Z</time>
      </trkpt>
      <trkpt lat="47.27519" lon="-1.76786">
        <ele>46.8</ele>
        <time>2012-10-28T10:25:30Z</time>
      </trkpt>
      <trkpt lat="47.27519" lon="-1.76785">
        <ele>46.2</ele>
        <time>2012-10-28T10:25:31Z</time>
      </trkpt>
      <trkpt lat="47.27519" lon="-1.76785">
        <ele>45.8</ele>
        <time>2012-10-28T10:25:32Z</time>
      </trkpt>
      <trkpt lat="47.27519" lon="-1.76785">
        <ele>45.5</ele>
        <time>2012-10-28T10:25:33Z</time>
      </trkpt>
      <trkpt lat="47.27519" lon="-1.76785">
        <ele>45.6</ele>
        <time>2012-10-28T10:25:34Z</time>
      </trkpt>
      <trkpt lat="47.27519" lon="-1.76784">
        <ele>45.6</ele>
        <time>2012-10-28T10:25:35Z</time>
      </trkpt>
      <trkpt lat="47.27519" lon="-1.76784">
        <ele>45.7</ele>
        <time>2012-10-28T10:25:36Z</time>
      </trkpt>
      <trkpt lat="47.27519" lon="-1.76784">
        <ele>45.7</ele>
        <time>2012-10-28T10:25:37Z</time>
      </trkpt>
      <trkpt lat="47.27519" lon="-1.76783">
        <ele>45.7</ele>
        <time>2012-10-28T10:25:38Z</time>
      </trkpt>
      <trkpt lat="47.27519" lon="-1.76783">
        <ele>45.7</ele>
        <time>2012-10-28T10:25:39Z</time>
      </trkpt>
      <trkpt lat="47.27519" lon="-1.76783">
        <ele>45.7</ele>
        <time>2012-10-28T10:25:40Z</time>
      </trkpt>
      <trkpt lat="47.27519" lon="-1.76783">
        <ele>45.9</ele>
        <time>2012-10-28T10:25:41Z</time>
      </trkpt>
      <trkpt lat="47.27519" lon="-1.76782">
        <ele>46</ele>
        <time>2012-10-28T10:25:42Z</time>
      </trkpt>
      <trkpt lat="47.27519" lon="-1.76782">
        <ele>46.7</ele>
        <time>2012-10-28T10:25:43Z</time>
      </trkpt>
      <trkpt lat="47.27519" lon="-1.76782">
        <ele>47.2</ele>
        <time>2012-10-28T10:25:44Z</time>
      </trkpt>
      <trkpt lat="47.27519" lon="-1.76782">
        <ele>47.6</ele>
        <time>2012-10-28T10:25:45Z</time>
      </trkpt>
      <trkpt lat="47.27519" lon="-1.76782">
        <ele>47.4</ele>
        <time>2012-10-28T10:25:46Z</time>
      </trkpt>
      <trkpt lat="47.27519" lon="-1.76781">
        <ele>47.2</ele>
        <time>2012-10-28T10:25:47Z</time>
      </trkpt>
      <trkpt lat="47.27518" lon="-1.76781">
        <ele>47.1</ele>
        <time>2012-10-28T10:25:48Z</time>
      </trkpt>
      <trkpt lat="47.27518" lon="-1.76781">
        <ele>47.1</ele>
        <time>2012-10-28T10:25:49Z</time>
      </trkpt>
      <trkpt lat="47.27518" lon="-1.76781">
        <ele>47.2</ele>
        <time>2012-10-28T10:25:50Z</time>
      </trkpt>
      <trkpt lat="47.27518" lon="-1.7678">
        <ele>47.3</ele>
        <time>2012-10-28T10:25:51Z</time>
      </trkpt>
      <trkpt lat="47.27518" lon="-1.7678">
        <ele>47.4</ele>
        <time>2012-10-28T10:25:52Z</time>
      </trkpt>
      <trkpt lat="47.27518" lon="-1.7678">
        <ele>47</ele>
        <time>2012-10-28T10:25:53Z</time>
      </trkpt>
      <trkpt lat="47.27518" lon="-1.7678">
        <ele>46.7</ele>
        <time>2012-10-28T10:25:54Z</time>
      </trkpt>
      <trkpt lat="47.27518" lon="-1.7678">
        <ele>46.6</ele>
        <time>2012-10-28T10:25:55Z</time>
      </trkpt>
      <trkpt lat="47.27518" lon="-1.7678">
        <ele>46.5</ele>
        <time>2012-10-28T10:25:56Z</time>
      </trkpt>
      <trkpt lat="47.27518" lon="-1.76779">
        <ele>46.2</ele>
        <time>2012-10-28T10:25:57Z</time>
      </trkpt>
      <trkpt lat="47.27518" lon="-1.76779">
        <ele>46</ele>
        <time>2012-10-28T10:25:58Z</time>
      </trkpt>
      <trkpt lat="47.27518" lon="-1.76779">
        <ele>45.9</ele>
        <time>2012-10-28T10:25:59Z</time>
      </trkpt>
      <trkpt lat="47.27518" lon="-1.76779">
        <ele>46</ele>
        <time>2012-10-28T10:26:00Z</time>
      </trkpt>
      <trkpt lat="47.27518" lon="-1.76779">
        <ele>46.1</ele>
        <time>2012-10-28T10:26:01Z</time>
      </trkpt>
      <trkpt lat="47.27518" lon="-1.76779">
        <ele>46</ele>
        <time>2012-10-28T10:26:02Z</time>
      </trkpt>
      <trkpt lat="47.27518" lon="-1.76779">
        <ele>45.9</ele>
        <time>2012-10-28T10:26:03Z</time>
      </trkpt>
      <trkpt lat="47.27518" lon="-1.76778">
        <ele>45.8</ele>
        <time>2012-10-28T10:26:04Z</time>
      </trkpt>
      <trkpt lat="47.27518" lon="-1.76778">
        <ele>45.8</ele>
        <time>2012-10-28T10:26:05Z</time>
      </trkpt>
      <trkpt lat="47.27518" lon="-1.76778">
        <ele>45.8</ele>
        <time>2012-10-28T10:26:06Z</time>
      </trkpt>
      <trkpt lat="47.27518" lon="-1.76778">
        <ele>45.9</ele>
        <time>2012-10-28T10:26:07Z</time>
      </trkpt>
      <trkpt lat="47.27518" lon="-1.76778">
        <ele>46.1</ele>
        <time>2012-10-28T10:26:08Z</time>
      </trkpt>
      <trkpt lat="47.27518" lon="-1.76778">
        <ele>46</ele>
        <time>2012-10-28T10:26:09Z</time>
      </trkpt>
      <trkpt lat="47.27518" lon="-1.76778">
        <ele>46</ele>
        <time>2012-10-28T10:26:10Z</time>
      </trkpt>
      <trkpt lat="47.27518" lon="-1.76778">
        <ele>46</ele>
        <time>2012-10-28T10:26:11Z</time>
      </trkpt>
      <trkpt lat="47.27518" lon="-1.76778">
        <ele>45.9</ele>
        <time>2012-10-28T10:26:12Z</time>
      </trkpt>
      <trkpt lat="47.27518" lon="-1.76778">
        <ele>45.8</ele>
        <time>2012-10-28T10:26:13Z</time>
      </trkpt>
      <trkpt lat="47.27518" lon="-1.76778">
        <ele>46</ele>
        <time>2012-10-28T10:26:14Z</time>
      </trkpt>
      <trkpt lat="47.27518" lon="-1.76778">
        <ele>46.1</ele>
        <time>2012-10-28T10:26:15Z</time>
      </trkpt>
      <trkpt lat="47.27518" lon="-1.76778">
        <ele>46</ele>
        <time>2012-10-28T10:26:16Z</time>
      </trkpt>
      <trkpt lat="47.27518" lon="-1.76777">
        <ele>45.9</ele>
        <time>2012-10-28T10:26:17Z</time>
      </trkpt>
      <trkpt lat="47.27518" lon="-1.76777">
        <ele>45.9</ele>
        <time>2012-10-28T10:26:18Z</time>
      </trkpt>
      <trkpt lat="47.27518" lon="-1.76777">
        <ele>45.9</ele>
        <time>2012-10-28T10:26:19Z</time>
      </trkpt>
      <trkpt lat="47.27518" lon="-1.76777">
        <ele>46</ele>
        <time>2012-10-28T10:26:20Z</time>
      </trkpt>
      <trkpt lat="47.27518" lon="-1.76777">
        <ele>45.9</ele>
        <time>2012-10-28T10:26:21Z</time>
      </trkpt>
      <trkpt lat="47.27518" lon="-1.76777">
        <ele>45.8</ele>
        <time>2012-10-28T10:26:22Z</time>
      </trkpt>
      <trkpt lat="47.27518" lon="-1.76777">
        <ele>46</ele>
        <time>2012-10-28T10:26:23Z</time>
      </trkpt>
      <trkpt lat="47.27518" lon="-1.76777">
        <ele>46.2</ele>
        <time>2012-10-28T10:26:24Z</time>
      </trkpt>
      <trkpt lat="47.27518" lon="-1.76777">
        <ele>46.3</ele>
        <time>2012-10-28T10:26:25Z</time>
      </trkpt>
      <trkpt lat="47.27518" lon="-1.76777">
        <ele>46.4</ele>
        <time>2012-10-28T10:26:26Z</time>
      </trkpt>
      <trkpt lat="47.27518" lon="-1.76777">
        <ele>46.5</ele>
        <time>2012-10-28T10:26:27Z</time>
      </trkpt>
      <trkpt lat="47.27518" lon="-1.76777">
        <ele>46.7</ele>
        <time>2012-10-28T10:26:28Z</time>
      </trkpt>
      <trkpt lat="47.27518" lon="-1.76777">
        <ele>46.8</ele>
        <time>2012-10-28T10:26:29Z</time>
      </trkpt>
      <trkpt lat="47.27518" lon="-1.76777">
        <ele>46.9</ele>
        <time>2012-10-28T10:26:30Z</time>
      </trkpt>
      <trkpt lat="47.27518" lon="-1.76777">
        <ele>46.6</ele>
        <time>2012-10-28T10:26:31Z</time>
      </trkpt>
      <trkpt lat="47.27518" lon="-1.76777">
        <ele>46.4</ele>
        <time>2012-10-28T10:26:32Z</time>
      </trkpt>
      <trkpt lat="47.27518" lon="-1.76777">
        <ele>46.3</ele>
        <time>2012-10-28T10:26:33Z</time>
      </trkpt>
      <trkpt lat="47.27518" lon="-1.76777">
        <ele>46.2</ele>
        <time>2012-10-28T10:26:34Z</time>
      </trkpt>
      <trkpt lat="47.27518" lon="-1.76777">
        <ele>46.5</ele>
        <time>2012-10-28T10:26:35Z</time>
      </trkpt>
      <trkpt lat="47.27518" lon="-1.76777">
        <ele>46.8</ele>
        <time>2012-10-28T10:26:36Z</time>
      </trkpt>
      <trkpt lat="47.27518" lon="-1.76777">
        <ele>46.9</ele>
        <time>2012-10-28T10:26:37Z</time>
      </trkpt>
      <trkpt lat="47.27518" lon="-1.76777">
        <ele>47</ele>
        <time>2012-10-28T10:26:38Z</time>
      </trkpt>
      <trkpt lat="47.27518" lon="-1.76776">
        <ele>47</ele>
        <time>2012-10-28T10:26:39Z</time>
      </trkpt>
      <trkpt lat="47.27518" lon="-1.76776">
        <ele>46.7</ele>
        <time>2012-10-28T10:26:40Z</time>
      </trkpt>
      <trkpt lat="47.27518" lon="-1.76776">
        <ele>46.4</ele>
        <time>2012-10-28T10:26:41Z</time>
      </trkpt>
      <trkpt lat="47.27518" lon="-1.76776">
        <ele>46.2</ele>
        <time>2012-10-28T10:26:42Z</time>
      </trkpt>
      <trkpt lat="47.27518" lon="-1.76776">
        <ele>46</ele>
        <time>2012-10-28T10:26:43Z</time>
      </trkpt>
      <trkpt lat="47.27518" lon="-1.76776">
        <ele>45.9</ele>
        <time>2012-10-28T10:26:44Z</time>
      </trkpt>
      <trkpt lat="47.27518" lon="-1.76776">
        <ele>46</ele>
        <time>2012-10-28T10:26:45Z</time>
      </trkpt>
      <trkpt lat="47.27518" lon="-1.76776">
        <ele>46.1</ele>
        <time>2012-10-28T10:26:46Z</time>
      </trkpt>
      <trkpt lat="47.27518" lon="-1.76776">
        <ele>46.4</ele>
        <time>2012-10-28T10:26:47Z</time>
      </trkpt>
      <trkpt lat="47.27518" lon="-1.76776">
        <ele>46.6</ele>
        <time>2012-10-28T10:26:48Z</time>
      </trkpt>
      <trkpt lat="47.27518" lon="-1.76776">
        <ele>46.7</ele>
        <time>2012-10-28T10:26:49Z</time>
      </trkpt>
      <trkpt lat="47.27518" lon="-1.76776">
        <ele>46.6</ele>
        <time>2012-10-28T10:26:50Z</time>
      </trkpt>
      <trkpt lat="47.27518" lon="-1.76776">
        <ele>46.5</ele>
        <time>2012-10-28T10:26:51Z</time>
      </trkpt>
      <trkpt lat="47.27518" lon="-1.76776">
        <ele>46.4</ele>
        <time>2012-10-28T10:26:52Z</time>
      </trkpt>
      <trkpt lat="47.27518" lon="-1.76776">
        <ele>46.3</ele>
        <time>2012-10-28T10:26:53Z</time>
      </trkpt>
      <trkpt lat="47.27518" lon="-1.76776">
        <ele>46.1</ele>
        <time>2012-10-28T10:26:54Z</time>
      </trkpt>
      <trkpt lat="47.27518" lon="-1.76776">
        <ele>46</ele>
        <time>2012-10-28T10:26:55Z</time>
      </trkpt>
      <trkpt lat="47.27518" lon="-1.76776">
        <ele>45.9</ele>
        <time>2012-10-28T10:26:56Z</time>
      </trkpt>
      <trkpt lat="47.27518" lon="-1.76776">
        <ele>45.9</ele>
        <time>2012-10-28T10:26:57Z</time>
      </trkpt>
      <trkpt lat="47.27518" lon="-1.76776">
        <ele>45.9</ele>
        <time>2012-10-28T10:26:58Z</time>
      </trkpt>
      <trkpt lat="47.27518" lon="-1.76776">
        <ele>46.1</ele>
        <time>2012-10-28T10:26:59Z</time>
      </trkpt>
      <trkpt lat="47.27518" lon="-1.76776">
        <ele>46.2</ele>
        <time>2012-10-28T10:27:00Z</time>
      </trkpt>
      <trkpt lat="47.27518" lon="-1.76776">
        <ele>46.4</ele>
        <time>2012-10-28T10:27:01Z</time>
      </trkpt>
      <trkpt lat="47.27518" lon="-1.76776">
        <ele>46.6</ele>
        <time>2012-10-28T10:27:02Z</time>
      </trkpt>
      <trkpt lat="47.27518" lon="-1.76776">
        <ele>46.7</ele>
        <time>2012-10-28T10:27:03Z</time>
      </trkpt>
      <trkpt lat="47.27518" lon="-1.76776">
        <ele>46.5</ele>
        <time>2012-10-28T10:27:04Z</time>
      </trkpt>
      <trkpt lat="47.27518" lon="-1.76776">
        <ele>46.4</ele>
        <time>2012-10-28T10:27:05Z</time>
      </trkpt>
      <trkpt lat="47.27518" lon="-1.76776">
        <ele>46.5</ele>
        <time>2012-10-28T10:27:06Z</time>
      </trkpt>
      <trkpt lat="47.27518" lon="-1.76776">
        <ele>46.5</ele>
        <time>2012-10-28T10:27:07Z</time>
      </trkpt>
      <trkpt lat="47.27518" lon="-1.76776">
        <ele>46.6</ele>
        <time>2012-10-28T10:27:08Z</time>
      </trkpt>
      <trkpt lat="47.27518" lon="-1.76776">
        <ele>46.3</ele>
        <time>2012-10-28T10:27:09Z</time>
      </trkpt>
      <trkpt lat="47.27518" lon="-1.76776">
        <ele>46.2</ele>
        <time>2012-10-28T10:27:10Z</time>
      </trkpt>
      <trkpt lat="47.27518" lon="-1.76776">
        <ele>46.2</ele>
        <time>2012-10-28T10:27:11Z</time>
      </trkpt>
      <trkpt lat="47.27518" lon="-1.76776">
        <ele>46.3</ele>
        <time>2012-10-28T10:27:12Z</time>
      </trkpt>
      <trkpt lat="47.27518" lon="-1.76776">
        <ele>46.1</ele>
        <time>2012-10-28T10:27:13Z</time>
      </trkpt>
      <trkpt lat="47.27518" lon="-1.76776">
        <ele>45.9</ele>
        <time>2012-10-28T10:27:14Z</time>
      </trkpt>
      <trkpt lat="47.27518" lon="-1.76775">
        <ele>45.8</ele>
        <time>2012-10-28T10:27:15Z</time>
      </trkpt>
      <trkpt lat="47.27518" lon="-1.76772">
        <ele>46.4</ele>
        <time>2012-10-28T10:27:17Z</time>
      </trkpt>
      <trkpt lat="47.27518" lon="-1.76771">
        <ele>46.6</ele>
        <time>2012-10-28T10:27:18Z</time>
      </trkpt>
      <trkpt lat="47.27519" lon="-1.7677">
        <ele>46.6</ele>
        <time>2012-10-28T10:27:19Z</time>
      </trkpt>
      <trkpt lat="47.2752" lon="-1.76768">
        <ele>46.8</ele>
        <time>2012-10-28T10:27:21Z</time>
      </trkpt>
      <trkpt lat="47.27521" lon="-1.76767">
        <ele>46.8</ele>
        <time>2012-10-28T10:27:22Z</time>
      </trkpt>
      <trkpt lat="47.27522" lon="-1.76766">
        <ele>47.1</ele>
        <time>2012-10-28T10:27:23Z</time>
      </trkpt>
      <trkpt lat="47.27524" lon="-1.76764">
        <ele>47</ele>
        <time>2012-10-28T10:27:26Z</time>
      </trkpt>
      <trkpt lat="47.27526" lon="-1.76762">
        <ele>47</ele>
        <time>2012-10-28T10:27:28Z</time>
      </trkpt>
      <trkpt lat="47.27527" lon="-1.76761">
        <ele>47</ele>
        <time>2012-10-28T10:27:29Z</time>
      </trkpt>
      <trkpt lat="47.27528" lon="-1.7676">
        <ele>47.5</ele>
        <time>2012-10-28T10:27:30Z</time>
      </trkpt>
      <trkpt lat="47.27529" lon="-1.76759">
        <ele>48.2</ele>
        <time>2012-10-28T10:27:32Z</time>
      </trkpt>
      <trkpt lat="47.2753" lon="-1.76759">
        <ele>48.4</ele>
        <time>2012-10-28T10:27:33Z</time>
      </trkpt>
      <trkpt lat="47.2753" lon="-1.76759">
        <ele>48.5</ele>
        <time>2012-10-28T10:27:34Z</time>
      </trkpt>
      <trkpt lat="47.2753" lon="-1.76759">
        <ele>48.4</ele>
        <time>2012-10-28T10:27:35Z</time>
      </trkpt>
      <trkpt lat="47.27531" lon="-1.76758">
        <ele>48.4</ele>
        <time>2012-10-28T10:27:36Z</time>
      </trkpt>
      <trkpt lat="47.27531" lon="-1.76758">
        <ele>48.7</ele>
        <time>2012-10-28T10:27:37Z</time>
      </trkpt>
      <trkpt lat="47.27532" lon="-1.76757">
        <ele>49</ele>
        <time>2012-10-28T10:27:38Z</time>
      </trkpt>
      <trkpt lat="47.27534" lon="-1.76755">
        <ele>49.1</ele>
        <time>2012-10-28T10:27:40Z</time>
      </trkpt>
      <trkpt lat="47.27535" lon="-1.76754">
        <ele>49.1</ele>
        <time>2012-10-28T10:27:41Z</time>
      </trkpt>
      <trkpt lat="47.27536" lon="-1.76753">
        <ele>49.2</ele>
        <time>2012-10-28T10:27:42Z</time>
      </trkpt>
      <trkpt lat="47.27538" lon="-1.76753">
        <ele>49.3</ele>
        <time>2012-10-28T10:27:43Z</time>
      </trkpt>
      <trkpt lat="47.27539" lon="-1.76752">
        <ele>49.7</ele>
        <time>2012-10-28T10:27:44Z</time>
      </trkpt>
      <trkpt lat="47.27542" lon="-1.7675">
        <ele>50.1</ele>
        <time>2012-10-28T10:27:46Z</time>
      </trkpt>
      <trkpt lat="47.27547" lon="-1.76747">
        <ele>51.2</ele>
        <time>2012-10-28T10:27:50Z</time>
      </trkpt>
      <trkpt lat="47.2755" lon="-1.76744">
        <ele>51.5</ele>
        <time>2012-10-28T10:27:53Z</time>
      </trkpt>
      <trkpt lat="47.27553" lon="-1.76741">
        <ele>51.7</ele>
        <time>2012-10-28T10:27:56Z</time>
      </trkpt>
      <trkpt lat="47.27554" lon="-1.76741">
        <ele>51.8</ele>
        <time>2012-10-28T10:27:57Z</time>
      </trkpt>
      <trkpt lat="47.27555" lon="-1.7674">
        <ele>52.1</ele>
        <time>2012-10-28T10:27:58Z</time>
      </trkpt>
      <trkpt lat="47.27557" lon="-1.76739">
        <ele>52.4</ele>
        <time>2012-10-28T10:27:59Z</time>
      </trkpt>
      <trkpt lat="47.27558" lon="-1.76738">
        <ele>52.6</ele>
        <time>2012-10-28T10:28:00Z</time>
      </trkpt>
      <trkpt lat="47.27559" lon="-1.76737">
        <ele>52.9</ele>
        <time>2012-10-28T10:28:01Z</time>
      </trkpt>
      <trkpt lat="47.27562" lon="-1.76732">
        <ele>53.2</ele>
        <time>2012-10-28T10:28:04Z</time>
      </trkpt>
      <trkpt lat="47.27563" lon="-1.7673">
        <ele>53.2</ele>
        <time>2012-10-28T10:28:05Z</time>
      </trkpt>
      <trkpt lat="47.27565" lon="-1.76724">
        <ele>54.1</ele>
        <time>2012-10-28T10:28:08Z</time>
      </trkpt>
      <trkpt lat="47.27565" lon="-1.76721">
        <ele>54.3</ele>
        <time>2012-10-28T10:28:09Z</time>
      </trkpt>
      <trkpt lat="47.27565" lon="-1.76719">
        <ele>54</ele>
        <time>2012-10-28T10:28:10Z</time>
      </trkpt>
      <trkpt lat="47.27566" lon="-1.76717">
        <ele>53.9</ele>
        <time>2012-10-28T10:28:11Z</time>
      </trkpt>
      <trkpt lat="47.27567" lon="-1.76716">
        <ele>53.7</ele>
        <time>2012-10-28T10:28:12Z</time>
      </trkpt>
      <trkpt lat="47.27569" lon="-1.7671">
        <ele>54</ele>
        <time>2012-10-28T10:28:15Z</time>
      </trkpt>
      <trkpt lat="47.2757" lon="-1.76708">
        <ele>54.3</ele>
        <time>2012-10-28T10:28:16Z</time>
      </trkpt>
      <trkpt lat="47.27571" lon="-1.76703">
        <ele>54.4</ele>
        <time>2012-10-28T10:28:18Z</time>
      </trkpt>
      <trkpt lat="47.27572" lon="-1.76699">
        <ele>54.8</ele>
        <time>2012-10-28T10:28:20Z</time>
      </trkpt>
      <trkpt lat="47.27573" lon="-1.76688">
        <ele>55.4</ele>
        <time>2012-10-28T10:28:24Z</time>
      </trkpt>
      <trkpt lat="47.27574" lon="-1.76682">
        <ele>55.7</ele>
        <time>2012-10-28T10:28:26Z</time>
      </trkpt>
      <trkpt lat="47.27575" lon="-1.76679">
        <ele>55.8</ele>
        <time>2012-10-28T10:28:27Z</time>
      </trkpt>
      <trkpt lat="47.27575" lon="-1.76676">
        <ele>55.9</ele>
        <time>2012-10-28T10:28:28Z</time>
      </trkpt>
      <trkpt lat="47.27575" lon="-1.7667">
        <ele>56</ele>
        <time>2012-10-28T10:28:31Z</time>
      </trkpt>
      <trkpt lat="47.27574" lon="-1.76662">
        <ele>56.5</ele>
        <time>2012-10-28T10:28:34Z</time>
      </trkpt>
      <trkpt lat="47.27574" lon="-1.76659">
        <ele>56.9</ele>
        <time>2012-10-28T10:28:35Z</time>
      </trkpt>
      <trkpt lat="47.27573" lon="-1.76657">
        <ele>57.3</ele>
        <time>2012-10-28T10:28:36Z</time>
      </trkpt>
      <trkpt lat="47.27573" lon="-1.76654">
        <ele>57.6</ele>
        <time>2012-10-28T10:28:37Z</time>
      </trkpt>
      <trkpt lat="47.2757" lon="-1.76643">
        <ele>58.1</ele>
        <time>2012-10-28T10:28:41Z</time>
      </trkpt>
      <trkpt lat="47.27566" lon="-1.76631">
        <ele>58.4</ele>
        <time>2012-10-28T10:28:47Z</time>
      </trkpt>
      <trkpt lat="47.27566" lon="-1.76628">
        <ele>58.4</ele>
        <time>2012-10-28T10:28:48Z</time>
      </trkpt>
      <trkpt lat="47.27566" lon="-1.76621">
        <ele>58.3</ele>
        <time>2012-10-28T10:28:51Z</time>
      </trkpt>
      <trkpt lat="47.27565" lon="-1.76619">
        <ele>58.3</ele>
        <time>2012-10-28T10:28:52Z</time>
      </trkpt>
      <trkpt lat="47.27551" lon="-1.76584">
        <ele>59.7</ele>
        <time>2012-10-28T10:29:03Z</time>
      </trkpt>
      <trkpt lat="47.27549" lon="-1.76582">
        <ele>60</ele>
        <time>2012-10-28T10:29:04Z</time>
      </trkpt>
      <trkpt lat="47.27547" lon="-1.76576">
        <ele>59.8</ele>
        <time>2012-10-28T10:29:06Z</time>
      </trkpt>
      <trkpt lat="47.27541" lon="-1.76551">
        <ele>60.9</ele>
        <time>2012-10-28T10:29:13Z</time>
      </trkpt>
      <trkpt lat="47.27541" lon="-1.76547">
        <ele>61.1</ele>
        <time>2012-10-28T10:29:14Z</time>
      </trkpt>
      <trkpt lat="47.27542" lon="-1.76543">
        <ele>61.3</ele>
        <time>2012-10-28T10:29:15Z</time>
      </trkpt>
      <trkpt lat="47.27543" lon="-1.7654">
        <ele>61.4</ele>
        <time>2012-10-28T10:29:16Z</time>
      </trkpt>
      <trkpt lat="47.27545" lon="-1.76532">
        <ele>61.1</ele>
        <time>2012-10-28T10:29:19Z</time>
      </trkpt>
      <trkpt lat="47.27546" lon="-1.76526">
        <ele>61.2</ele>
        <time>2012-10-28T10:29:21Z</time>
      </trkpt>
      <trkpt lat="47.27547" lon="-1.76524">
        <ele>61.4</ele>
        <time>2012-10-28T10:29:22Z</time>
      </trkpt>
      <trkpt lat="47.27549" lon="-1.76499">
        <ele>63.2</ele>
        <time>2012-10-28T10:29:31Z</time>
      </trkpt>
      <trkpt lat="47.27549" lon="-1.76499">
        <ele>63.3</ele>
        <time>2012-10-28T10:29:32Z</time>
      </trkpt>
      <trkpt lat="47.27549" lon="-1.76498">
        <ele>63.2</ele>
        <time>2012-10-28T10:29:33Z</time>
      </trkpt>
      <trkpt lat="47.27549" lon="-1.76498">
        <ele>63.2</ele>
        <time>2012-10-28T10:29:34Z</time>
      </trkpt>
      <trkpt lat="47.27549" lon="-1.76497">
        <ele>63.2</ele>
        <time>2012-10-28T10:29:35Z</time>
      </trkpt>
      <trkpt lat="47.27549" lon="-1.76497">
        <ele>63.2</ele>
        <time>2012-10-28T10:29:36Z</time>
      </trkpt>
      <trkpt lat="47.27549" lon="-1.76496">
        <ele>63.3</ele>
        <time>2012-10-28T10:29:37Z</time>
      </trkpt>
      <trkpt lat="47.27549" lon="-1.76496">
        <ele>63.6</ele>
        <time>2012-10-28T10:29:38Z</time>
      </trkpt>
      <trkpt lat="47.27549" lon="-1.76495">
        <ele>63.9</ele>
        <time>2012-10-28T10:29:39Z</time>
      </trkpt>
      <trkpt lat="47.27548" lon="-1.76495">
        <ele>63.7</ele>
        <time>2012-10-28T10:29:40Z</time>
      </trkpt>
      <trkpt lat="47.27549" lon="-1.76494">
        <ele>63.6</ele>
        <time>2012-10-28T10:29:41Z</time>
      </trkpt>
      <trkpt lat="47.27548" lon="-1.76493">
        <ele>63.1</ele>
        <time>2012-10-28T10:29:45Z</time>
      </trkpt>
      <trkpt lat="47.27548" lon="-1.76492">
        <ele>63.1</ele>
        <time>2012-10-28T10:29:46Z</time>
      </trkpt>
      <trkpt lat="47.27548" lon="-1.76492">
        <ele>63.1</ele>
        <time>2012-10-28T10:29:47Z</time>
      </trkpt>
      <trkpt lat="47.27548" lon="-1.76491">
        <ele>63.2</ele>
        <time>2012-10-28T10:29:48Z</time>
      </trkpt>
      <trkpt lat="47.27548" lon="-1.7649">
        <ele>63.2</ele>
        <time>2012-10-28T10:29:49Z</time>
      </trkpt>
      <trkpt lat="47.27548" lon="-1.7649">
        <ele>63.1</ele>
        <time>2012-10-28T10:29:50Z</time>
      </trkpt>
      <trkpt lat="47.27548" lon="-1.7649">
        <ele>62.9</ele>
        <time>2012-10-28T10:29:51Z</time>
      </trkpt>
      <trkpt lat="47.27548" lon="-1.76489">
        <ele>62.8</ele>
        <time>2012-10-28T10:29:52Z</time>
      </trkpt>
      <trkpt lat="47.27547" lon="-1.76488">
        <ele>62.7</ele>
        <time>2012-10-28T10:29:53Z</time>
      </trkpt>
      <trkpt lat="47.27547" lon="-1.76487">
        <ele>62.6</ele>
        <time>2012-10-28T10:29:54Z</time>
      </trkpt>
      <trkpt lat="47.27547" lon="-1.76487">
        <ele>62.8</ele>
        <time>2012-10-28T10:29:55Z</time>
      </trkpt>
      <trkpt lat="47.27547" lon="-1.76487">
        <ele>62.9</ele>
        <time>2012-10-28T10:29:56Z</time>
      </trkpt>
      <trkpt lat="47.27547" lon="-1.76486">
        <ele>63.2</ele>
        <time>2012-10-28T10:29:57Z</time>
      </trkpt>
      <trkpt lat="47.27548" lon="-1.76485">
        <ele>63.4</ele>
        <time>2012-10-28T10:29:58Z</time>
      </trkpt>
      <trkpt lat="47.27548" lon="-1.76484">
        <ele>63.4</ele>
        <time>2012-10-28T10:29:59Z</time>
      </trkpt>
      <trkpt lat="47.27547" lon="-1.76482">
        <ele>63.5</ele>
        <time>2012-10-28T10:30:00Z</time>
      </trkpt>
      <trkpt lat="47.27547" lon="-1.76475">
        <ele>63.8</ele>
        <time>2012-10-28T10:30:03Z</time>
      </trkpt>
      <trkpt lat="47.27547" lon="-1.76473">
        <ele>63.8</ele>
        <time>2012-10-28T10:30:04Z</time>
      </trkpt>
      <trkpt lat="47.27547" lon="-1.76471">
        <ele>63.8</ele>
        <time>2012-10-28T10:30:05Z</time>
      </trkpt>
      <trkpt lat="47.27548" lon="-1.76465">
        <ele>63.8</ele>
        <time>2012-10-28T10:30:08Z</time>
      </trkpt>
      <trkpt lat="47.27548" lon="-1.76463">
        <ele>64</ele>
        <time>2012-10-28T10:30:09Z</time>
      </trkpt>
      <trkpt lat="47.27549" lon="-1.76459">
        <ele>64.4</ele>
        <time>2012-10-28T10:30:11Z</time>
      </trkpt>
      <trkpt lat="47.2755" lon="-1.76457">
        <ele>64.6</ele>
        <time>2012-10-28T10:30:12Z</time>
      </trkpt>
      <trkpt lat="47.27553" lon="-1.76449">
        <ele>65.6</ele>
        <time>2012-10-28T10:30:16Z</time>
      </trkpt>
      <trkpt lat="47.27553" lon="-1.76447">
        <ele>65.7</ele>
        <time>2012-10-28T10:30:17Z</time>
      </trkpt>
      <trkpt lat="47.27554" lon="-1.76445">
        <ele>65.7</ele>
        <time>2012-10-28T10:30:18Z</time>
      </trkpt>
      <trkpt lat="47.27554" lon="-1.76442">
        <ele>65.7</ele>
        <time>2012-10-28T10:30:19Z</time>
      </trkpt>
      <trkpt lat="47.27555" lon="-1.7644">
        <ele>65.7</ele>
        <time>2012-10-28T10:30:20Z</time>
      </trkpt>
      <trkpt lat="47.27555" lon="-1.76438">
        <ele>66.1</ele>
        <time>2012-10-28T10:30:21Z</time>
      </trkpt>
      <trkpt lat="47.27555" lon="-1.76436">
        <ele>66.4</ele>
        <time>2012-10-28T10:30:22Z</time>
      </trkpt>
      <trkpt lat="47.27555" lon="-1.76433">
        <ele>66.6</ele>
        <time>2012-10-28T10:30:23Z</time>
      </trkpt>
      <trkpt lat="47.27556" lon="-1.76429">
        <ele>66.9</ele>
        <time>2012-10-28T10:30:25Z</time>
      </trkpt>
      <trkpt lat="47.27555" lon="-1.76426">
        <ele>66.9</ele>
        <time>2012-10-28T10:30:26Z</time>
      </trkpt>
      <trkpt lat="47.27555" lon="-1.76419">
        <ele>67.1</ele>
        <time>2012-10-28T10:30:29Z</time>
      </trkpt>
      <trkpt lat="47.27554" lon="-1.76412">
        <ele>68.2</ele>
        <time>2012-10-28T10:30:32Z</time>
      </trkpt>
      <trkpt lat="47.27554" lon="-1.76409">
        <ele>68.4</ele>
        <time>2012-10-28T10:30:33Z</time>
      </trkpt>
      <trkpt lat="47.27553" lon="-1.76405">
        <ele>68.6</ele>
        <time>2012-10-28T10:30:34Z</time>
      </trkpt>
      <trkpt lat="47.27553" lon="-1.76398">
        <ele>69.2</ele>
        <time>2012-10-28T10:30:36Z</time>
      </trkpt>
      <trkpt lat="47.27552" lon="-1.76391">
        <ele>68.8</ele>
        <time>2012-10-28T10:30:38Z</time>
      </trkpt>
      <trkpt lat="47.27548" lon="-1.76373">
        <ele>68.2</ele>
        <time>2012-10-28T10:30:42Z</time>
      </trkpt>
      <trkpt lat="47.27547" lon="-1.76368">
        <ele>68.2</ele>
        <time>2012-10-28T10:30:43Z</time>
      </trkpt>
      <trkpt lat="47.27545" lon="-1.76364">
        <ele>68.2</ele>
        <time>2012-10-28T10:30:44Z</time>
      </trkpt>
      <trkpt lat="47.27543" lon="-1.7636">
        <ele>68.7</ele>
        <time>2012-10-28T10:30:45Z</time>
      </trkpt>
      <trkpt lat="47.27536" lon="-1.76344">
        <ele>68.5</ele>
        <time>2012-10-28T10:30:49Z</time>
      </trkpt>
      <trkpt lat="47.27534" lon="-1.76339">
        <ele>68.6</ele>
        <time>2012-10-28T10:30:50Z</time>
      </trkpt>
      <trkpt lat="47.27515" lon="-1.76284">
        <ele>66.8</ele>
        <time>2012-10-28T10:31:01Z</time>
      </trkpt>
      <trkpt lat="47.27514" lon="-1.76278">
        <ele>66.9</ele>
        <time>2012-10-28T10:31:02Z</time>
      </trkpt>
      <trkpt lat="47.27515" lon="-1.76271">
        <ele>67</ele>
        <time>2012-10-28T10:31:03Z</time>
      </trkpt>
      <trkpt lat="47.27517" lon="-1.7626">
        <ele>67.1</ele>
        <time>2012-10-28T10:31:05Z</time>
      </trkpt>
      <trkpt lat="47.27518" lon="-1.76255">
        <ele>67</ele>
        <time>2012-10-28T10:31:06Z</time>
      </trkpt>
      <trkpt lat="47.27518" lon="-1.76246">
        <ele>66.8</ele>
        <time>2012-10-28T10:31:08Z</time>
      </trkpt>
      <trkpt lat="47.27515" lon="-1.76244">
        <ele>66.6</ele>
        <time>2012-10-28T10:31:09Z</time>
      </trkpt>
      <trkpt lat="47.27512" lon="-1.76244">
        <ele>66.4</ele>
        <time>2012-10-28T10:31:10Z</time>
      </trkpt>
      <trkpt lat="47.27509" lon="-1.76244">
        <ele>66.1</ele>
        <time>2012-10-28T10:31:11Z</time>
      </trkpt>
      <trkpt lat="47.27502" lon="-1.76245">
        <ele>65.1</ele>
        <time>2012-10-28T10:31:13Z</time>
      </trkpt>
      <trkpt lat="47.27499" lon="-1.76244">
        <ele>64.4</ele>
        <time>2012-10-28T10:31:14Z</time>
      </trkpt>
      <trkpt lat="47.27495" lon="-1.7624">
        <ele>64.3</ele>
        <time>2012-10-28T10:31:15Z</time>
      </trkpt>
      <trkpt lat="47.27493" lon="-1.76236">
        <ele>64.3</ele>
        <time>2012-10-28T10:31:16Z</time>
      </trkpt>
      <trkpt lat="47.27491" lon="-1.7623">
        <ele>64.2</ele>
        <time>2012-10-28T10:31:17Z</time>
      </trkpt>
      <trkpt lat="47.27485" lon="-1.76213">
        <ele>63.8</ele>
        <time>2012-10-28T10:31:20Z</time>
      </trkpt>
      <trkpt lat="47.27475" lon="-1.76189">
        <ele>63.8</ele>
        <time>2012-10-28T10:31:25Z</time>
      </trkpt>
      <trkpt lat="47.27474" lon="-1.76184">
        <ele>64</ele>
        <time>2012-10-28T10:31:26Z</time>
      </trkpt>
      <trkpt lat="47.27473" lon="-1.76178">
        <ele>63.8</ele>
        <time>2012-10-28T10:31:27Z</time>
      </trkpt>
      <trkpt lat="47.27473" lon="-1.76173">
        <ele>63.7</ele>
        <time>2012-10-28T10:31:28Z</time>
      </trkpt>
      <trkpt lat="47.27473" lon="-1.76167">
        <ele>63.6</ele>
        <time>2012-10-28T10:31:29Z</time>
      </trkpt>
      <trkpt lat="47.27475" lon="-1.7615">
        <ele>64.1</ele>
        <time>2012-10-28T10:31:32Z</time>
      </trkpt>
      <trkpt lat="47.27476" lon="-1.76145">
        <ele>64</ele>
        <time>2012-10-28T10:31:33Z</time>
      </trkpt>
      <trkpt lat="47.27477" lon="-1.76139">
        <ele>64.4</ele>
        <time>2012-10-28T10:31:34Z</time>
      </trkpt>
      <trkpt lat="47.27477" lon="-1.76133">
        <ele>64.7</ele>
        <time>2012-10-28T10:31:35Z</time>
      </trkpt>
      <trkpt lat="47.27476" lon="-1.76128">
        <ele>64.9</ele>
        <time>2012-10-28T10:31:36Z</time>
      </trkpt>
      <trkpt lat="47.27475" lon="-1.76117">
        <ele>64.8</ele>
        <time>2012-10-28T10:31:38Z</time>
      </trkpt>
      <trkpt lat="47.27473" lon="-1.76098">
        <ele>65.3</ele>
        <time>2012-10-28T10:31:42Z</time>
      </trkpt>
      <trkpt lat="47.27473" lon="-1.76094">
        <ele>65.3</ele>
        <time>2012-10-28T10:31:43Z</time>
      </trkpt>
      <trkpt lat="47.27473" lon="-1.76086">
        <ele>65.4</ele>
        <time>2012-10-28T10:31:45Z</time>
      </trkpt>
      <trkpt lat="47.27474" lon="-1.76082">
        <ele>65.4</ele>
        <time>2012-10-28T10:31:46Z</time>
      </trkpt>
      <trkpt lat="47.27477" lon="-1.76072">
        <ele>65.4</ele>
        <time>2012-10-28T10:31:48Z</time>
      </trkpt>
      <trkpt lat="47.27478" lon="-1.76069">
        <ele>64.8</ele>
        <time>2012-10-28T10:31:49Z</time>
      </trkpt>
      <trkpt lat="47.27483" lon="-1.76057">
        <ele>64.5</ele>
        <time>2012-10-28T10:31:52Z</time>
      </trkpt>
      <trkpt lat="47.27484" lon="-1.76053">
        <ele>64.6</ele>
        <time>2012-10-28T10:31:53Z</time>
      </trkpt>
      <trkpt lat="47.27485" lon="-1.76048">
        <ele>64.6</ele>
        <time>2012-10-28T10:31:54Z</time>
      </trkpt>
      <trkpt lat="47.27486" lon="-1.76043">
        <ele>64.7</ele>
        <time>2012-10-28T10:31:55Z</time>
      </trkpt>
      <trkpt lat="47.27486" lon="-1.76033">
        <ele>65.9</ele>
        <time>2012-10-28T10:31:57Z</time>
      </trkpt>
      <trkpt lat="47.27487" lon="-1.76015">
        <ele>66.2</ele>
        <time>2012-10-28T10:32:01Z</time>
      </trkpt>
      <trkpt lat="47.27488" lon="-1.76009">
        <ele>66.1</ele>
        <time>2012-10-28T10:32:02Z</time>
      </trkpt>
      <trkpt lat="47.27489" lon="-1.76004">
        <ele>66</ele>
        <time>2012-10-28T10:32:03Z</time>
      </trkpt>
      <trkpt lat="47.27511" lon="-1.75878">
        <ele>66.1</ele>
        <time>2012-10-28T10:32:24Z</time>
      </trkpt>
      <trkpt lat="47.27512" lon="-1.75872">
        <ele>65.9</ele>
        <time>2012-10-28T10:32:25Z</time>
      </trkpt>
      <trkpt lat="47.27511" lon="-1.75866">
        <ele>65.9</ele>
        <time>2012-10-28T10:32:26Z</time>
      </trkpt>
      <trkpt lat="47.27509" lon="-1.75861">
        <ele>65.5</ele>
        <time>2012-10-28T10:32:27Z</time>
      </trkpt>
      <trkpt lat="47.27507" lon="-1.75858">
        <ele>65.3</ele>
        <time>2012-10-28T10:32:28Z</time>
      </trkpt>
      <trkpt lat="47.27503" lon="-1.75857">
        <ele>65.5</ele>
        <time>2012-10-28T10:32:29Z</time>
      </trkpt>
      <trkpt lat="47.275" lon="-1.75858">
        <ele>65.6</ele>
        <time>2012-10-28T10:32:30Z</time>
      </trkpt>
      <trkpt lat="47.27497" lon="-1.75859">
        <ele>66</ele>
        <time>2012-10-28T10:32:31Z</time>
      </trkpt>
      <trkpt lat="47.27412" lon="-1.75882">
        <ele>66.5</ele>
        <time>2012-10-28T10:32:56Z</time>
      </trkpt>
      <trkpt lat="47.27408" lon="-1.75882">
        <ele>66.4</ele>
        <time>2012-10-28T10:32:57Z</time>
      </trkpt>
      <trkpt lat="47.27404" lon="-1.75879">
        <ele>66.3</ele>
        <time>2012-10-28T10:32:58Z</time>
      </trkpt>
      <trkpt lat="47.27402" lon="-1.75875">
        <ele>66.2</ele>
        <time>2012-10-28T10:32:59Z</time>
      </trkpt>
      <trkpt lat="47.27399" lon="-1.7587">
        <ele>66</ele>
        <time>2012-10-28T10:33:00Z</time>
      </trkpt>
      <trkpt lat="47.27394" lon="-1.75855">
        <ele>66.1</ele>
        <time>2012-10-28T10:33:03Z</time>
      </trkpt>
      <trkpt lat="47.27385" lon="-1.75834">
        <ele>66</ele>
        <time>2012-10-28T10:33:08Z</time>
      </trkpt>
      <trkpt lat="47.27383" lon="-1.75831">
        <ele>66.3</ele>
        <time>2012-10-28T10:33:09Z</time>
      </trkpt>
      <trkpt lat="47.27381" lon="-1.75831">
        <ele>66.5</ele>
        <time>2012-10-28T10:33:10Z</time>
      </trkpt>
      <trkpt lat="47.27379" lon="-1.75832">
        <ele>66.7</ele>
        <time>2012-10-28T10:33:11Z</time>
      </trkpt>
      <trkpt lat="47.27377" lon="-1.75834">
        <ele>66.5</ele>
        <time>2012-10-28T10:33:12Z</time>
      </trkpt>
      <trkpt lat="47.27375" lon="-1.75837">
        <ele>66.4</ele>
        <time>2012-10-28T10:33:13Z</time>
      </trkpt>
      <trkpt lat="47.27373" lon="-1.75841">
        <ele>66.1</ele>
        <time>2012-10-28T10:33:14Z</time>
      </trkpt>
      <trkpt lat="47.27367" lon="-1.75857">
        <ele>65.3</ele>
        <time>2012-10-28T10:33:17Z</time>
      </trkpt>
      <trkpt lat="47.27325" lon="-1.75949">
        <ele>61.7</ele>
        <time>2012-10-28T10:33:30Z</time>
      </trkpt>
      <trkpt lat="47.2732" lon="-1.75957">
        <ele>61.5</ele>
        <time>2012-10-28T10:33:31Z</time>
      </trkpt>
      <trkpt lat="47.27266" lon="-1.76025">
        <ele>58.4</ele>
        <time>2012-10-28T10:33:40Z</time>
      </trkpt>
      <trkpt lat="47.27259" lon="-1.76032">
        <ele>57.8</ele>
        <time>2012-10-28T10:33:41Z</time>
      </trkpt>
      <trkpt lat="47.27243" lon="-1.76044">
        <ele>56.9</ele>
        <time>2012-10-28T10:33:43Z</time>
      </trkpt>
      <trkpt lat="47.27206" lon="-1.76066">
        <ele>53.4</ele>
        <time>2012-10-28T10:33:47Z</time>
      </trkpt>
      <trkpt lat="47.27146" lon="-1.76104">
        <ele>46.9</ele>
        <time>2012-10-28T10:33:53Z</time>
      </trkpt>
      <trkpt lat="47.27095" lon="-1.76149">
        <ele>41.2</ele>
        <time>2012-10-28T10:33:58Z</time>
      </trkpt>
      <trkpt lat="47.27022" lon="-1.76222">
        <ele>33.5</ele>
        <time>2012-10-28T10:34:07Z</time>
      </trkpt>
      <trkpt lat="47.27017" lon="-1.76229">
        <ele>32.9</ele>
        <time>2012-10-28T10:34:08Z</time>
      </trkpt>
      <trkpt lat="47.27008" lon="-1.76243">
        <ele>31.7</ele>
        <time>2012-10-28T10:34:10Z</time>
      </trkpt>
      <trkpt lat="47.27002" lon="-1.76247">
        <ele>31</ele>
        <time>2012-10-28T10:34:11Z</time>
      </trkpt>
      <trkpt lat="47.26995" lon="-1.76248">
        <ele>30.5</ele>
        <time>2012-10-28T10:34:12Z</time>
      </trkpt>
      <trkpt lat="47.26866" lon="-1.76275">
        <ele>23.3</ele>
        <time>2012-10-28T10:34:30Z</time>
      </trkpt>
      <trkpt lat="47.2686" lon="-1.76275">
        <ele>23.1</ele>
        <time>2012-10-28T10:34:31Z</time>
      </trkpt>
      <trkpt lat="47.26853" lon="-1.76273">
        <ele>22.8</ele>
        <time>2012-10-28T10:34:32Z</time>
      </trkpt>
      <trkpt lat="47.26846" lon="-1.76269">
        <ele>22.6</ele>
        <time>2012-10-28T10:34:33Z</time>
      </trkpt>
      <trkpt lat="47.2684" lon="-1.76265">
        <ele>22.4</ele>
        <time>2012-10-28T10:34:34Z</time>
      </trkpt>
      <trkpt lat="47.26668" lon="-1.76149">
        <ele>16.5</ele>
        <time>2012-10-28T10:35:04Z</time>
      </trkpt>
      <trkpt lat="47.26663" lon="-1.76144">
        <ele>16.4</ele>
        <time>2012-10-28T10:35:05Z</time>
      </trkpt>
      <trkpt lat="47.26653" lon="-1.76134">
        <ele>15.9</ele>
        <time>2012-10-28T10:35:07Z</time>
      </trkpt>
      <trkpt lat="47.26647" lon="-1.7613">
        <ele>15.7</ele>
        <time>2012-10-28T10:35:08Z</time>
      </trkpt>
      <trkpt lat="47.26635" lon="-1.76123">
        <ele>15.3</ele>
        <time>2012-10-28T10:35:10Z</time>
      </trkpt>
      <trkpt lat="47.26622" lon="-1.76118">
        <ele>14.8</ele>
        <time>2012-10-28T10:35:12Z</time>
      </trkpt>
      <trkpt lat="47.26609" lon="-1.76114">
        <ele>14.5</ele>
        <time>2012-10-28T10:35:14Z</time>
      </trkpt>
      <trkpt lat="47.26575" lon="-1.76103">
        <ele>13.5</ele>
        <time>2012-10-28T10:35:19Z</time>
      </trkpt>
      <trkpt lat="47.26543" lon="-1.76091">
        <ele>12.5</ele>
        <time>2012-10-28T10:35:24Z</time>
      </trkpt>
      <trkpt lat="47.26537" lon="-1.7609">
        <ele>12.5</ele>
        <time>2012-10-28T10:35:25Z</time>
      </trkpt>
      <trkpt lat="47.26508" lon="-1.76086">
        <ele>11.4</ele>
        <time>2012-10-28T10:35:31Z</time>
      </trkpt>
      <trkpt lat="47.26503" lon="-1.76084">
        <ele>11.9</ele>
        <time>2012-10-28T10:35:32Z</time>
      </trkpt>
      <trkpt lat="47.26498" lon="-1.76082">
        <ele>12.2</ele>
        <time>2012-10-28T10:35:33Z</time>
      </trkpt>
      <trkpt lat="47.26443" lon="-1.76066">
        <ele>11</ele>
        <time>2012-10-28T10:35:43Z</time>
      </trkpt>
      <trkpt lat="47.26438" lon="-1.76066">
        <ele>10.7</ele>
        <time>2012-10-28T10:35:44Z</time>
      </trkpt>
      <trkpt lat="47.26426" lon="-1.76066">
        <ele>10.4</ele>
        <time>2012-10-28T10:35:46Z</time>
      </trkpt>
      <trkpt lat="47.26421" lon="-1.76065">
        <ele>10.3</ele>
        <time>2012-10-28T10:35:47Z</time>
      </trkpt>
      <trkpt lat="47.2635" lon="-1.76047">
        <ele>8.6</ele>
        <time>2012-10-28T10:36:03Z</time>
      </trkpt>
      <trkpt lat="47.26347" lon="-1.76045">
        <ele>8.7</ele>
        <time>2012-10-28T10:36:04Z</time>
      </trkpt>
      <trkpt lat="47.26341" lon="-1.76041">
        <ele>8.9</ele>
        <time>2012-10-28T10:36:06Z</time>
      </trkpt>
      <trkpt lat="47.26338" lon="-1.76039">
        <ele>8.7</ele>
        <time>2012-10-28T10:36:07Z</time>
      </trkpt>
      <trkpt lat="47.26328" lon="-1.76031">
        <ele>8.6</ele>
        <time>2012-10-28T10:36:10Z</time>
      </trkpt>
      <trkpt lat="47.26325" lon="-1.76027">
        <ele>8.7</ele>
        <time>2012-10-28T10:36:11Z</time>
      </trkpt>
      <trkpt lat="47.26125" lon="-1.75812">
        <ele>12.4</ele>
        <time>2012-10-28T10:37:26Z</time>
      </trkpt>
      <trkpt lat="47.26124" lon="-1.7581">
        <ele>12.4</ele>
        <time>2012-10-28T10:37:27Z</time>
      </trkpt>
      <trkpt lat="47.26123" lon="-1.75807">
        <ele>12.8</ele>
        <time>2012-10-28T10:37:28Z</time>
      </trkpt>
      <trkpt lat="47.26123" lon="-1.75803">
        <ele>13.1</ele>
        <time>2012-10-28T10:37:29Z</time>
      </trkpt>
      <trkpt lat="47.26124" lon="-1.75799">
        <ele>13.3</ele>
        <time>2012-10-28T10:37:30Z</time>
      </trkpt>
      <trkpt lat="47.26125" lon="-1.75795">
        <ele>13.4</ele>
        <time>2012-10-28T10:37:31Z</time>
      </trkpt>
      <trkpt lat="47.26141" lon="-1.75748">
        <ele>13.5</ele>
        <time>2012-10-28T10:37:41Z</time>
      </trkpt>
      <trkpt lat="47.26143" lon="-1.75743">
        <ele>13.9</ele>
        <time>2012-10-28T10:37:42Z</time>
      </trkpt>
      <trkpt lat="47.26148" lon="-1.75734">
        <ele>14.1</ele>
        <time>2012-10-28T10:37:44Z</time>
      </trkpt>
      <trkpt lat="47.26157" lon="-1.75709">
        <ele>14</ele>
        <time>2012-10-28T10:37:49Z</time>
      </trkpt>
      <trkpt lat="47.26162" lon="-1.75694">
        <ele>14.5</ele>
        <time>2012-10-28T10:37:52Z</time>
      </trkpt>
      <trkpt lat="47.26166" lon="-1.75678">
        <ele>14.4</ele>
        <time>2012-10-28T10:37:55Z</time>
      </trkpt>
      <trkpt lat="47.26167" lon="-1.75673">
        <ele>14.6</ele>
        <time>2012-10-28T10:37:56Z</time>
      </trkpt>
      <trkpt lat="47.26174" lon="-1.75622">
        <ele>15.5</ele>
        <time>2012-10-28T10:38:05Z</time>
      </trkpt>
      <trkpt lat="47.26178" lon="-1.75569">
        <ele>16.2</ele>
        <time>2012-10-28T10:38:15Z</time>
      </trkpt>
      <trkpt lat="47.26185" lon="-1.75514">
        <ele>16.8</ele>
        <time>2012-10-28T10:38:26Z</time>
      </trkpt>
      <trkpt lat="47.26186" lon="-1.7551">
        <ele>17.1</ele>
        <time>2012-10-28T10:38:27Z</time>
      </trkpt>
      <trkpt lat="47.26188" lon="-1.75506">
        <ele>17.3</ele>
        <time>2012-10-28T10:38:28Z</time>
      </trkpt>
      <trkpt lat="47.26198" lon="-1.75471">
        <ele>18.3</ele>
        <time>2012-10-28T10:38:36Z</time>
      </trkpt>
      <trkpt lat="47.26201" lon="-1.75464">
        <ele>18.1</ele>
        <time>2012-10-28T10:38:38Z</time>
      </trkpt>
      <trkpt lat="47.26217" lon="-1.75421">
        <ele>18.5</ele>
        <time>2012-10-28T10:38:49Z</time>
      </trkpt>
      <trkpt lat="47.26218" lon="-1.75418">
        <ele>18.6</ele>
        <time>2012-10-28T10:38:50Z</time>
      </trkpt>
      <trkpt lat="47.26223" lon="-1.75396">
        <ele>19.2</ele>
        <time>2012-10-28T10:38:55Z</time>
      </trkpt>
      <trkpt lat="47.26224" lon="-1.75393">
        <ele>19.4</ele>
        <time>2012-10-28T10:38:56Z</time>
      </trkpt>
      <trkpt lat="47.26229" lon="-1.75378">
        <ele>20.6</ele>
        <time>2012-10-28T10:39:01Z</time>
      </trkpt>
      <trkpt lat="47.2623" lon="-1.75376">
        <ele>20.7</ele>
        <time>2012-10-28T10:39:02Z</time>
      </trkpt>
      <trkpt lat="47.26231" lon="-1.75374">
        <ele>20.6</ele>
        <time>2012-10-28T10:39:03Z</time>
      </trkpt>
      <trkpt lat="47.26234" lon="-1.75371">
        <ele>20.7</ele>
        <time>2012-10-28T10:39:05Z</time>
      </trkpt>
      <trkpt lat="47.26235" lon="-1.7537">
        <ele>20.9</ele>
        <time>2012-10-28T10:39:06Z</time>
      </trkpt>
      <trkpt lat="47.26235" lon="-1.75369">
        <ele>21.1</ele>
        <time>2012-10-28T10:39:07Z</time>
      </trkpt>
      <trkpt lat="47.26236" lon="-1.75369">
        <ele>20.8</ele>
        <time>2012-10-28T10:39:08Z</time>
      </trkpt>
      <trkpt lat="47.26237" lon="-1.75366">
        <ele>20.6</ele>
        <time>2012-10-28T10:39:12Z</time>
      </trkpt>
      <trkpt lat="47.26235" lon="-1.75367">
        <ele>20.1</ele>
        <time>2012-10-28T10:43:18Z</time>
      </trkpt>
      <trkpt lat="47.26236" lon="-1.75367">
        <ele>19.8</ele>
        <time>2012-10-28T10:43:19Z</time>
      </trkpt>
      <trkpt lat="47.26236" lon="-1.75368">
        <ele>19.5</ele>
        <time>2012-10-28T10:43:20Z</time>
      </trkpt>
      <trkpt lat="47.26236" lon="-1.75369">
        <ele>19.2</ele>
        <time>2012-10-28T10:43:21Z</time>
      </trkpt>
      <trkpt lat="47.26236" lon="-1.75369">
        <ele>19.8</ele>
        <time>2012-10-28T10:43:22Z</time>
      </trkpt>
      <trkpt lat="47.26237" lon="-1.75369">
        <ele>20.2</ele>
        <time>2012-10-28T10:43:23Z</time>
      </trkpt>
      <trkpt lat="47.26238" lon="-1.75369">
        <ele>20.4</ele>
        <time>2012-10-28T10:43:24Z</time>
      </trkpt>
      <trkpt lat="47.26238" lon="-1.75369">
        <ele>20.6</ele>
        <time>2012-10-28T10:43:25Z</time>
      </trkpt>
      <trkpt lat="47.26238" lon="-1.75369">
        <ele>20.5</ele>
        <time>2012-10-28T10:43:26Z</time>
      </trkpt>
      <trkpt lat="47.26239" lon="-1.75368">
        <ele>20.4</ele>
        <time>2012-10-28T10:43:27Z</time>
      </trkpt>
      <trkpt lat="47.2624" lon="-1.75368">
        <ele>20.3</ele>
        <time>2012-10-28T10:43:28Z</time>
      </trkpt>
      <trkpt lat="47.26244" lon="-1.75364">
        <ele>20.8</ele>
        <time>2012-10-28T10:43:31Z</time>
      </trkpt>
      <trkpt lat="47.26246" lon="-1.75361">
        <ele>20.9</ele>
        <time>2012-10-28T10:43:32Z</time>
      </trkpt>
      <trkpt lat="47.26247" lon="-1.75359">
        <ele>20.9</ele>
        <time>2012-10-28T10:43:33Z</time>
      </trkpt>
      <trkpt lat="47.26256" lon="-1.75345">
        <ele>20.9</ele>
        <time>2012-10-28T10:43:38Z</time>
      </trkpt>
      <trkpt lat="47.26271" lon="-1.75327">
        <ele>20.8</ele>
        <time>2012-10-28T10:43:43Z</time>
      </trkpt>
      <trkpt lat="47.26281" lon="-1.75316">
        <ele>21.1</ele>
        <time>2012-10-28T10:43:46Z</time>
      </trkpt>
      <trkpt lat="47.26317" lon="-1.7528">
        <ele>19.7</ele>
        <time>2012-10-28T10:43:55Z</time>
      </trkpt>
      <trkpt lat="47.2632" lon="-1.75275">
        <ele>19.8</ele>
        <time>2012-10-28T10:43:56Z</time>
      </trkpt>
      <trkpt lat="47.26323" lon="-1.75271">
        <ele>19.5</ele>
        <time>2012-10-28T10:43:57Z</time>
      </trkpt>
      <trkpt lat="47.26326" lon="-1.75267">
        <ele>19.2</ele>
        <time>2012-10-28T10:43:58Z</time>
      </trkpt>
      <trkpt lat="47.26349" lon="-1.7524">
        <ele>19.6</ele>
        <time>2012-10-28T10:44:06Z</time>
      </trkpt>
      <trkpt lat="47.26352" lon="-1.75236">
        <ele>19.4</ele>
        <time>2012-10-28T10:44:07Z</time>
      </trkpt>
      <trkpt lat="47.26354" lon="-1.75232">
        <ele>19.3</ele>
        <time>2012-10-28T10:44:08Z</time>
      </trkpt>
      <trkpt lat="47.26356" lon="-1.75228">
        <ele>18.9</ele>
        <time>2012-10-28T10:44:09Z</time>
      </trkpt>
      <trkpt lat="47.26362" lon="-1.75215">
        <ele>19.3</ele>
        <time>2012-10-28T10:44:12Z</time>
      </trkpt>
      <trkpt lat="47.26364" lon="-1.75212">
        <ele>19.5</ele>
        <time>2012-10-28T10:44:13Z</time>
      </trkpt>
      <trkpt lat="47.2637" lon="-1.75203">
        <ele>19.7</ele>
        <time>2012-10-28T10:44:16Z</time>
      </trkpt>
      <trkpt lat="47.26399" lon="-1.75165">
        <ele>20.4</ele>
        <time>2012-10-28T10:44:28Z</time>
      </trkpt>
      <trkpt lat="47.26401" lon="-1.75162">
        <ele>20.7</ele>
        <time>2012-10-28T10:44:29Z</time>
      </trkpt>
      <trkpt lat="47.26402" lon="-1.75158">
        <ele>20.7</ele>
        <time>2012-10-28T10:44:30Z</time>
      </trkpt>
      <trkpt lat="47.26423" lon="-1.75112">
        <ele>21.3</ele>
        <time>2012-10-28T10:44:43Z</time>
      </trkpt>
      <trkpt lat="47.26431" lon="-1.75095">
        <ele>22.2</ele>
        <time>2012-10-28T10:44:49Z</time>
      </trkpt>
      <trkpt lat="47.26443" lon="-1.75072">
        <ele>24.1</ele>
        <time>2012-10-28T10:44:59Z</time>
      </trkpt>
      <trkpt lat="47.26444" lon="-1.75069">
        <ele>24.3</ele>
        <time>2012-10-28T10:45:00Z</time>
      </trkpt>
      <trkpt lat="47.26446" lon="-1.75065">
        <ele>24.7</ele>
        <time>2012-10-28T10:45:02Z</time>
      </trkpt>
      <trkpt lat="47.26459" lon="-1.75038">
        <ele>26.3</ele>
        <time>2012-10-28T10:45:14Z</time>
      </trkpt>
      <trkpt lat="47.26463" lon="-1.7503">
        <ele>26.8</ele>
        <time>2012-10-28T10:45:17Z</time>
      </trkpt>
      <trkpt lat="47.26466" lon="-1.75026">
        <ele>27.4</ele>
        <time>2012-10-28T10:45:19Z</time>
      </trkpt>
      <trkpt lat="47.26468" lon="-1.75024">
        <ele>27.7</ele>
        <time>2012-10-28T10:45:20Z</time>
      </trkpt>
      <trkpt lat="47.26469" lon="-1.75021">
        <ele>27.9</ele>
        <time>2012-10-28T10:45:21Z</time>
      </trkpt>
      <trkpt lat="47.26477" lon="-1.75007">
        <ele>28.1</ele>
        <time>2012-10-28T10:45:27Z</time>
      </trkpt>
      <trkpt lat="47.26492" lon="-1.74982">
        <ele>29.2</ele>
        <time>2012-10-28T10:45:37Z</time>
      </trkpt>
      <trkpt lat="47.26494" lon="-1.74979">
        <ele>29.1</ele>
        <time>2012-10-28T10:45:38Z</time>
      </trkpt>
      <trkpt lat="47.26526" lon="-1.74936">
        <ele>31</ele>
        <time>2012-10-28T10:46:00Z</time>
      </trkpt>
      <trkpt lat="47.26526" lon="-1.74935">
        <ele>31.1</ele>
        <time>2012-10-28T10:46:01Z</time>
      </trkpt>
      <trkpt lat="47.26526" lon="-1.74935">
        <ele>31.2</ele>
        <time>2012-10-28T10:46:02Z</time>
      </trkpt>
      <trkpt lat="47.26526" lon="-1.74934">
        <ele>31</ele>
        <time>2012-10-28T10:46:03Z</time>
      </trkpt>
      <trkpt lat="47.26527" lon="-1.74934">
        <ele>30.8</ele>
        <time>2012-10-28T10:46:04Z</time>
      </trkpt>
      <trkpt lat="47.26527" lon="-1.74933">
        <ele>31</ele>
        <time>2012-10-28T10:46:05Z</time>
      </trkpt>
      <trkpt lat="47.26528" lon="-1.74932">
        <ele>31.1</ele>
        <time>2012-10-28T10:46:06Z</time>
      </trkpt>
      <trkpt lat="47.26529" lon="-1.74931">
        <ele>31.2</ele>
        <time>2012-10-28T10:46:07Z</time>
      </trkpt>
      <trkpt lat="47.2653" lon="-1.74929">
        <ele>31.7</ele>
        <time>2012-10-28T10:46:08Z</time>
      </trkpt>
      <trkpt lat="47.2653" lon="-1.74928">
        <ele>32.1</ele>
        <time>2012-10-28T10:46:09Z</time>
      </trkpt>
      <trkpt lat="47.26531" lon="-1.74927">
        <ele>32.3</ele>
        <time>2012-10-28T10:46:10Z</time>
      </trkpt>
      <trkpt lat="47.26531" lon="-1.74926">
        <ele>32.4</ele>
        <time>2012-10-28T10:46:11Z</time>
      </trkpt>
      <trkpt lat="47.26532" lon="-1.74925">
        <ele>32.7</ele>
        <time>2012-10-28T10:46:12Z</time>
      </trkpt>
      <trkpt lat="47.26533" lon="-1.74924">
        <ele>32.9</ele>
        <time>2012-10-28T10:46:13Z</time>
      </trkpt>
      <trkpt lat="47.26533" lon="-1.74923">
        <ele>33</ele>
        <time>2012-10-28T10:46:14Z</time>
      </trkpt>
      <trkpt lat="47.26536" lon="-1.7492">
        <ele>32.8</ele>
        <time>2012-10-28T10:46:17Z</time>
      </trkpt>
      <trkpt lat="47.26544" lon="-1.74912">
        <ele>33.3</ele>
        <time>2012-10-28T10:46:24Z</time>
      </trkpt>
      <trkpt lat="47.26545" lon="-1.74911">
        <ele>33.4</ele>
        <time>2012-10-28T10:46:25Z</time>
      </trkpt>
      <trkpt lat="47.26548" lon="-1.74907">
        <ele>34.2</ele>
        <time>2012-10-28T10:46:28Z</time>
      </trkpt>
      <trkpt lat="47.26548" lon="-1.74906">
        <ele>34.4</ele>
        <time>2012-10-28T10:46:29Z</time>
      </trkpt>
      <trkpt lat="47.2655" lon="-1.74903">
        <ele>34.6</ele>
        <time>2012-10-28T10:46:31Z</time>
      </trkpt>
      <trkpt lat="47.2655" lon="-1.74902">
        <ele>34.7</ele>
        <time>2012-10-28T10:46:32Z</time>
      </trkpt>
      <trkpt lat="47.26551" lon="-1.74898">
        <ele>34.5</ele>
        <time>2012-10-28T10:46:34Z</time>
      </trkpt>
      <trkpt lat="47.26551" lon="-1.74896">
        <ele>34.3</ele>
        <time>2012-10-28T10:46:35Z</time>
      </trkpt>
      <trkpt lat="47.26551" lon="-1.74895">
        <ele>34.9</ele>
        <time>2012-10-28T10:46:36Z</time>
      </trkpt>
      <trkpt lat="47.26552" lon="-1.74895">
        <ele>35.3</ele>
        <time>2012-10-28T10:46:37Z</time>
      </trkpt>
      <trkpt lat="47.26552" lon="-1.74894">
        <ele>35.3</ele>
        <time>2012-10-28T10:46:38Z</time>
      </trkpt>
      <trkpt lat="47.26552" lon="-1.74894">
        <ele>35.3</ele>
        <time>2012-10-28T10:46:39Z</time>
      </trkpt>
      <trkpt lat="47.26552" lon="-1.74893">
        <ele>35.3</ele>
        <time>2012-10-28T10:46:40Z</time>
      </trkpt>
      <trkpt lat="47.26551" lon="-1.74892">
        <ele>35.3</ele>
        <time>2012-10-28T10:46:41Z</time>
      </trkpt>
      <trkpt lat="47.26551" lon="-1.7489">
        <ele>35.3</ele>
        <time>2012-10-28T10:46:42Z</time>
      </trkpt>
      <trkpt lat="47.26547" lon="-1.74882">
        <ele>36.2</ele>
        <time>2012-10-28T10:46:46Z</time>
      </trkpt>
      <trkpt lat="47.26545" lon="-1.74881">
        <ele>36.1</ele>
        <time>2012-10-28T10:46:47Z</time>
      </trkpt>
      <trkpt lat="47.26544" lon="-1.74878">
        <ele>36</ele>
        <time>2012-10-28T10:46:48Z</time>
      </trkpt>
      <trkpt lat="47.26535" lon="-1.74863">
        <ele>35.7</ele>
        <time>2012-10-28T10:46:53Z</time>
      </trkpt>
      <trkpt lat="47.26511" lon="-1.74822">
        <ele>36.4</ele>
        <time>2012-10-28T10:47:04Z</time>
      </trkpt>
      <trkpt lat="47.26506" lon="-1.74812">
        <ele>36.2</ele>
        <time>2012-10-28T10:47:06Z</time>
      </trkpt>
      <trkpt lat="47.26504" lon="-1.74807">
        <ele>36.2</ele>
        <time>2012-10-28T10:47:07Z</time>
      </trkpt>
      <trkpt lat="47.26503" lon="-1.74801">
        <ele>36.2</ele>
        <time>2012-10-28T10:47:08Z</time>
      </trkpt>
      <trkpt lat="47.26504" lon="-1.74796">
        <ele>36</ele>
        <time>2012-10-28T10:47:09Z</time>
      </trkpt>
      <trkpt lat="47.26506" lon="-1.74792">
        <ele>35.9</ele>
        <time>2012-10-28T10:47:10Z</time>
      </trkpt>
      <trkpt lat="47.26508" lon="-1.74789">
        <ele>35.9</ele>
        <time>2012-10-28T10:47:11Z</time>
      </trkpt>
      <trkpt lat="47.2651" lon="-1.74787">
        <ele>36</ele>
        <time>2012-10-28T10:47:12Z</time>
      </trkpt>
      <trkpt lat="47.26515" lon="-1.74783">
        <ele>36.6</ele>
        <time>2012-10-28T10:47:14Z</time>
      </trkpt>
      <trkpt lat="47.26519" lon="-1.7478">
        <ele>37.2</ele>
        <time>2012-10-28T10:47:16Z</time>
      </trkpt>
      <trkpt lat="47.26609" lon="-1.74715">
        <ele>44.4</ele>
        <time>2012-10-28T10:47:58Z</time>
      </trkpt>
      <trkpt lat="47.2661" lon="-1.74714">
        <ele>44.1</ele>
        <time>2012-10-28T10:47:59Z</time>
      </trkpt>
      <trkpt lat="47.26614" lon="-1.7471">
        <ele>43.9</ele>
        <time>2012-10-28T10:48:01Z</time>
      </trkpt>
      <trkpt lat="47.26616" lon="-1.74708">
        <ele>43.9</ele>
        <time>2012-10-28T10:48:02Z</time>
      </trkpt>
      <trkpt lat="47.26676" lon="-1.74663">
        <ele>48.3</ele>
        <time>2012-10-28T10:48:33Z</time>
      </trkpt>
      <trkpt lat="47.26683" lon="-1.74657">
        <ele>48.5</ele>
        <time>2012-10-28T10:48:37Z</time>
      </trkpt>
      <trkpt lat="47.26702" lon="-1.74644">
        <ele>50.6</ele>
        <time>2012-10-28T10:48:48Z</time>
      </trkpt>
      <trkpt lat="47.26703" lon="-1.74643">
        <ele>50.9</ele>
        <time>2012-10-28T10:48:49Z</time>
      </trkpt>
      <trkpt lat="47.26705" lon="-1.74642">
        <ele>51</ele>
        <time>2012-10-28T10:48:50Z</time>
      </trkpt>
      <trkpt lat="47.26706" lon="-1.74642">
        <ele>51.1</ele>
        <time>2012-10-28T10:48:51Z</time>
      </trkpt>
      <trkpt lat="47.26708" lon="-1.74641">
        <ele>51.1</ele>
        <time>2012-10-28T10:48:52Z</time>
      </trkpt>
      <trkpt lat="47.26709" lon="-1.7464">
        <ele>51.1</ele>
        <time>2012-10-28T10:48:53Z</time>
      </trkpt>
      <trkpt lat="47.2671" lon="-1.74638">
        <ele>51.4</ele>
        <time>2012-10-28T10:48:54Z</time>
      </trkpt>
      <trkpt lat="47.26712" lon="-1.74635">
        <ele>51.7</ele>
        <time>2012-10-28T10:48:56Z</time>
      </trkpt>
      <trkpt lat="47.26714" lon="-1.74634">
        <ele>51.8</ele>
        <time>2012-10-28T10:48:57Z</time>
      </trkpt>
      <trkpt lat="47.26719" lon="-1.74631">
        <ele>52.6</ele>
        <time>2012-10-28T10:49:00Z</time>
      </trkpt>
      <trkpt lat="47.2672" lon="-1.7463">
        <ele>52.7</ele>
        <time>2012-10-28T10:49:01Z</time>
      </trkpt>
      <trkpt lat="47.26721" lon="-1.74628">
        <ele>52.8</ele>
        <time>2012-10-28T10:49:02Z</time>
      </trkpt>
      <trkpt lat="47.26723" lon="-1.74627">
        <ele>52.7</ele>
        <time>2012-10-28T10:49:03Z</time>
      </trkpt>
      <trkpt lat="47.26732" lon="-1.74621">
        <ele>53.4</ele>
        <time>2012-10-28T10:49:09Z</time>
      </trkpt>
      <trkpt lat="47.26733" lon="-1.7462">
        <ele>53.8</ele>
        <time>2012-10-28T10:49:10Z</time>
      </trkpt>
      <trkpt lat="47.26746" lon="-1.74615">
        <ele>54.7</ele>
        <time>2012-10-28T10:49:18Z</time>
      </trkpt>
      <trkpt lat="47.26747" lon="-1.74614">
        <ele>54.6</ele>
        <time>2012-10-28T10:49:19Z</time>
      </trkpt>
      <trkpt lat="47.26749" lon="-1.74612">
        <ele>54.7</ele>
        <time>2012-10-28T10:49:20Z</time>
      </trkpt>
      <trkpt lat="47.26751" lon="-1.7461">
        <ele>55.1</ele>
        <time>2012-10-28T10:49:22Z</time>
      </trkpt>
      <trkpt lat="47.26755" lon="-1.74605">
        <ele>55.8</ele>
        <time>2012-10-28T10:49:25Z</time>
      </trkpt>
      <trkpt lat="47.26758" lon="-1.746">
        <ele>55.7</ele>
        <time>2012-10-28T10:49:28Z</time>
      </trkpt>
      <trkpt lat="47.2676" lon="-1.74597">
        <ele>55.7</ele>
        <time>2012-10-28T10:49:30Z</time>
      </trkpt>
      <trkpt lat="47.26768" lon="-1.74583">
        <ele>57.5</ele>
        <time>2012-10-28T10:49:39Z</time>
      </trkpt>
      <trkpt lat="47.26771" lon="-1.7458">
        <ele>57.7</ele>
        <time>2012-10-28T10:49:41Z</time>
      </trkpt>
      <trkpt lat="47.26774" lon="-1.74576">
        <ele>58</ele>
        <time>2012-10-28T10:49:44Z</time>
      </trkpt>
      <trkpt lat="47.26775" lon="-1.74575">
        <ele>58</ele>
        <time>2012-10-28T10:49:45Z</time>
      </trkpt>
      <trkpt lat="47.26776" lon="-1.74575">
        <ele>58.3</ele>
        <time>2012-10-28T10:49:46Z</time>
      </trkpt>
      <trkpt lat="47.26778" lon="-1.74573">
        <ele>58.5</ele>
        <time>2012-10-28T10:49:47Z</time>
      </trkpt>
      <trkpt lat="47.2678" lon="-1.7457">
        <ele>58.2</ele>
        <time>2012-10-28T10:49:49Z</time>
      </trkpt>
      <trkpt lat="47.26787" lon="-1.74561">
        <ele>59</ele>
        <time>2012-10-28T10:49:54Z</time>
      </trkpt>
      <trkpt lat="47.2679" lon="-1.74555">
        <ele>60.4</ele>
        <time>2012-10-28T10:49:57Z</time>
      </trkpt>
      <trkpt lat="47.26795" lon="-1.74547">
        <ele>60.7</ele>
        <time>2012-10-28T10:50:01Z</time>
      </trkpt>
      <trkpt lat="47.26797" lon="-1.74545">
        <ele>60.8</ele>
        <time>2012-10-28T10:50:02Z</time>
      </trkpt>
      <trkpt lat="47.26815" lon="-1.74521">
        <ele>61.9</ele>
        <time>2012-10-28T10:50:15Z</time>
      </trkpt>
      <trkpt lat="47.26817" lon="-1.74519">
        <ele>61.9</ele>
        <time>2012-10-28T10:50:16Z</time>
      </trkpt>
      <trkpt lat="47.26818" lon="-1.74518">
        <ele>62</ele>
        <time>2012-10-28T10:50:17Z</time>
      </trkpt>
      <trkpt lat="47.2682" lon="-1.74517">
        <ele>62</ele>
        <time>2012-10-28T10:50:18Z</time>
      </trkpt>
      <trkpt lat="47.26825" lon="-1.74513">
        <ele>63.1</ele>
        <time>2012-10-28T10:50:21Z</time>
      </trkpt>
      <trkpt lat="47.26828" lon="-1.7451">
        <ele>63.1</ele>
        <time>2012-10-28T10:50:23Z</time>
      </trkpt>
      <trkpt lat="47.2683" lon="-1.7451">
        <ele>63.2</ele>
        <time>2012-10-28T10:50:24Z</time>
      </trkpt>
      <trkpt lat="47.26832" lon="-1.74509">
        <ele>63.3</ele>
        <time>2012-10-28T10:50:25Z</time>
      </trkpt>
      <trkpt lat="47.26833" lon="-1.74508">
        <ele>63.5</ele>
        <time>2012-10-28T10:50:26Z</time>
      </trkpt>
      <trkpt lat="47.26856" lon="-1.74497">
        <ele>64.9</ele>
        <time>2012-10-28T10:50:39Z</time>
      </trkpt>
      <trkpt lat="47.26858" lon="-1.74496">
        <ele>65.3</ele>
        <time>2012-10-28T10:50:40Z</time>
      </trkpt>
      <trkpt lat="47.26859" lon="-1.74494">
        <ele>65.6</ele>
        <time>2012-10-28T10:50:41Z</time>
      </trkpt>
      <trkpt lat="47.26864" lon="-1.74486">
        <ele>66.1</ele>
        <time>2012-10-28T10:50:45Z</time>
      </trkpt>
      <trkpt lat="47.26865" lon="-1.74484">
        <ele>65.8</ele>
        <time>2012-10-28T10:50:46Z</time>
      </trkpt>
      <trkpt lat="47.26865" lon="-1.74481">
        <ele>65.6</ele>
        <time>2012-10-28T10:50:47Z</time>
      </trkpt>
      <trkpt lat="47.26865" lon="-1.74478">
        <ele>66</ele>
        <time>2012-10-28T10:50:48Z</time>
      </trkpt>
      <trkpt lat="47.26875" lon="-1.74414">
        <ele>67.1</ele>
        <time>2012-10-28T10:51:03Z</time>
      </trkpt>
      <trkpt lat="47.26875" lon="-1.74409">
        <ele>67.2</ele>
        <time>2012-10-28T10:51:04Z</time>
      </trkpt>
      <trkpt lat="47.26874" lon="-1.74389">
        <ele>66.7</ele>
        <time>2012-10-28T10:51:08Z</time>
      </trkpt>
      <trkpt lat="47.26874" lon="-1.74378">
        <ele>66.4</ele>
        <time>2012-10-28T10:51:10Z</time>
      </trkpt>
      <trkpt lat="47.26875" lon="-1.74372">
        <ele>66.4</ele>
        <time>2012-10-28T10:51:11Z</time>
      </trkpt>
      <trkpt lat="47.26877" lon="-1.74361">
        <ele>66.4</ele>
        <time>2012-10-28T10:51:13Z</time>
      </trkpt>
      <trkpt lat="47.26884" lon="-1.74336">
        <ele>66.8</ele>
        <time>2012-10-28T10:51:18Z</time>
      </trkpt>
      <trkpt lat="47.26888" lon="-1.74322">
        <ele>67.4</ele>
        <time>2012-10-28T10:51:21Z</time>
      </trkpt>
      <trkpt lat="47.2689" lon="-1.74318">
        <ele>67.6</ele>
        <time>2012-10-28T10:51:22Z</time>
      </trkpt>
      <trkpt lat="47.26892" lon="-1.74314">
        <ele>67.9</ele>
        <time>2012-10-28T10:51:23Z</time>
      </trkpt>
      <trkpt lat="47.26895" lon="-1.74311">
        <ele>68</ele>
        <time>2012-10-28T10:51:24Z</time>
      </trkpt>
      <trkpt lat="47.26902" lon="-1.74301">
        <ele>68.1</ele>
        <time>2012-10-28T10:51:27Z</time>
      </trkpt>
      <trkpt lat="47.26904" lon="-1.74296">
        <ele>68.1</ele>
        <time>2012-10-28T10:51:28Z</time>
      </trkpt>
      <trkpt lat="47.26904" lon="-1.74292">
        <ele>68.2</ele>
        <time>2012-10-28T10:51:29Z</time>
      </trkpt>
      <trkpt lat="47.26903" lon="-1.74287">
        <ele>68.3</ele>
        <time>2012-10-28T10:51:30Z</time>
      </trkpt>
      <trkpt lat="47.26902" lon="-1.74282">
        <ele>68.4</ele>
        <time>2012-10-28T10:51:31Z</time>
      </trkpt>
      <trkpt lat="47.26891" lon="-1.74253">
        <ele>68.8</ele>
        <time>2012-10-28T10:51:37Z</time>
      </trkpt>
      <trkpt lat="47.26872" lon="-1.74199">
        <ele>67.7</ele>
        <time>2012-10-28T10:51:47Z</time>
      </trkpt>
      <trkpt lat="47.26863" lon="-1.74168">
        <ele>67.8</ele>
        <time>2012-10-28T10:51:52Z</time>
      </trkpt>
      <trkpt lat="47.26856" lon="-1.74138">
        <ele>67.3</ele>
        <time>2012-10-28T10:51:57Z</time>
      </trkpt>
      <trkpt lat="47.26855" lon="-1.74131">
        <ele>67.2</ele>
        <time>2012-10-28T10:51:58Z</time>
      </trkpt>
      <trkpt lat="47.26855" lon="-1.74125">
        <ele>67.4</ele>
        <time>2012-10-28T10:51:59Z</time>
      </trkpt>
      <trkpt lat="47.26855" lon="-1.74119">
        <ele>67.7</ele>
        <time>2012-10-28T10:52:00Z</time>
      </trkpt>
      <trkpt lat="47.26855" lon="-1.74112">
        <ele>67.3</ele>
        <time>2012-10-28T10:52:01Z</time>
      </trkpt>
      <trkpt lat="47.26858" lon="-1.74074">
        <ele>66.9</ele>
        <time>2012-10-28T10:52:07Z</time>
      </trkpt>
      <trkpt lat="47.26858" lon="-1.74067">
        <ele>66.9</ele>
        <time>2012-10-28T10:52:08Z</time>
      </trkpt>
      <trkpt lat="47.26856" lon="-1.74049">
        <ele>67.3</ele>
        <time>2012-10-28T10:52:11Z</time>
      </trkpt>
      <trkpt lat="47.26854" lon="-1.74037">
        <ele>67.5</ele>
        <time>2012-10-28T10:52:13Z</time>
      </trkpt>
      <trkpt lat="47.26851" lon="-1.74016">
        <ele>67</ele>
        <time>2012-10-28T10:52:17Z</time>
      </trkpt>
      <trkpt lat="47.26827" lon="-1.73871">
        <ele>71.4</ele>
        <time>2012-10-28T10:52:47Z</time>
      </trkpt>
      <trkpt lat="47.26825" lon="-1.73867">
        <ele>71.4</ele>
        <time>2012-10-28T10:52:48Z</time>
      </trkpt>
      <trkpt lat="47.2682" lon="-1.73844">
        <ele>71.3</ele>
        <time>2012-10-28T10:52:52Z</time>
      </trkpt>
      <trkpt lat="47.26817" lon="-1.73826">
        <ele>70.1</ele>
        <time>2012-10-28T10:52:55Z</time>
      </trkpt>
      <trkpt lat="47.2681" lon="-1.73785">
        <ele>70.4</ele>
        <time>2012-10-28T10:53:02Z</time>
      </trkpt>
      <trkpt lat="47.26808" lon="-1.73779">
        <ele>70.4</ele>
        <time>2012-10-28T10:53:03Z</time>
      </trkpt>
      <trkpt lat="47.268" lon="-1.73754">
        <ele>69.5</ele>
        <time>2012-10-28T10:53:07Z</time>
      </trkpt>
      <trkpt lat="47.26797" lon="-1.73749">
        <ele>69.4</ele>
        <time>2012-10-28T10:53:08Z</time>
      </trkpt>
      <trkpt lat="47.26795" lon="-1.73743">
        <ele>69.2</ele>
        <time>2012-10-28T10:53:09Z</time>
      </trkpt>
      <trkpt lat="47.26789" lon="-1.73735">
        <ele>68.9</ele>
        <time>2012-10-28T10:53:11Z</time>
      </trkpt>
      <trkpt lat="47.26785" lon="-1.73732">
        <ele>68.8</ele>
        <time>2012-10-28T10:53:12Z</time>
      </trkpt>
      <trkpt lat="47.26782" lon="-1.73729">
        <ele>68.7</ele>
        <time>2012-10-28T10:53:13Z</time>
      </trkpt>
      <trkpt lat="47.26774" lon="-1.73725">
        <ele>68.6</ele>
        <time>2012-10-28T10:53:15Z</time>
      </trkpt>
      <trkpt lat="47.2677" lon="-1.73721">
        <ele>68.5</ele>
        <time>2012-10-28T10:53:16Z</time>
      </trkpt>
      <trkpt lat="47.26767" lon="-1.73716">
        <ele>68</ele>
        <time>2012-10-28T10:53:17Z</time>
      </trkpt>
      <trkpt lat="47.26749" lon="-1.73691">
        <ele>68</ele>
        <time>2012-10-28T10:53:23Z</time>
      </trkpt>
      <trkpt lat="47.2673" lon="-1.73667">
        <ele>67.9</ele>
        <time>2012-10-28T10:53:29Z</time>
      </trkpt>
      <trkpt lat="47.26727" lon="-1.73662">
        <ele>67.9</ele>
        <time>2012-10-28T10:53:30Z</time>
      </trkpt>
      <trkpt lat="47.26717" lon="-1.73639">
        <ele>68</ele>
        <time>2012-10-28T10:53:35Z</time>
      </trkpt>
      <trkpt lat="47.26711" lon="-1.73631">
        <ele>68.5</ele>
        <time>2012-10-28T10:53:37Z</time>
      </trkpt>
      <trkpt lat="47.26687" lon="-1.73592">
        <ele>68.3</ele>
        <time>2012-10-28T10:53:46Z</time>
      </trkpt>
      <trkpt lat="47.26683" lon="-1.73589">
        <ele>67.9</ele>
        <time>2012-10-28T10:53:47Z</time>
      </trkpt>
      <trkpt lat="47.2668" lon="-1.73586">
        <ele>67.5</ele>
        <time>2012-10-28T10:53:48Z</time>
      </trkpt>
      <trkpt lat="47.26669" lon="-1.73579">
        <ele>67.7</ele>
        <time>2012-10-28T10:53:51Z</time>
      </trkpt>
      <trkpt lat="47.26664" lon="-1.73577">
        <ele>67.8</ele>
        <time>2012-10-28T10:53:52Z</time>
      </trkpt>
      <trkpt lat="47.2666" lon="-1.73576">
        <ele>67.8</ele>
        <time>2012-10-28T10:53:53Z</time>
      </trkpt>
      <trkpt lat="47.26656" lon="-1.73577">
        <ele>67.8</ele>
        <time>2012-10-28T10:53:54Z</time>
      </trkpt>
      <trkpt lat="47.26652" lon="-1.73579">
        <ele>67.9</ele>
        <time>2012-10-28T10:53:55Z</time>
      </trkpt>
      <trkpt lat="47.26644" lon="-1.73583">
        <ele>67.7</ele>
        <time>2012-10-28T10:53:57Z</time>
      </trkpt>
      <trkpt lat="47.26641" lon="-1.73583">
        <ele>67.4</ele>
        <time>2012-10-28T10:53:58Z</time>
      </trkpt>
      <trkpt lat="47.26639" lon="-1.73582">
        <ele>67.3</ele>
        <time>2012-10-28T10:53:59Z</time>
      </trkpt>
      <trkpt lat="47.26637" lon="-1.73579">
        <ele>67.2</ele>
        <time>2012-10-28T10:54:00Z</time>
      </trkpt>
      <trkpt lat="47.26636" lon="-1.73576">
        <ele>67.1</ele>
        <time>2012-10-28T10:54:01Z</time>
      </trkpt>
      <trkpt lat="47.26637" lon="-1.73572">
        <ele>66.9</ele>
        <time>2012-10-28T10:54:02Z</time>
      </trkpt>
      <trkpt lat="47.26641" lon="-1.73545">
        <ele>66.8</ele>
        <time>2012-10-28T10:54:08Z</time>
      </trkpt>
      <trkpt lat="47.26643" lon="-1.73536">
        <ele>66.9</ele>
        <time>2012-10-28T10:54:10Z</time>
      </trkpt>
      <trkpt lat="47.26643" lon="-1.73531">
        <ele>67</ele>
        <time>2012-10-28T10:54:11Z</time>
      </trkpt>
      <trkpt lat="47.26654" lon="-1.73474">
        <ele>68.2</ele>
        <time>2012-10-28T10:54:22Z</time>
      </trkpt>
      <trkpt lat="47.26653" lon="-1.73469">
        <ele>68.2</ele>
        <time>2012-10-28T10:54:23Z</time>
      </trkpt>
      <trkpt lat="47.26653" lon="-1.73453">
        <ele>68.5</ele>
        <time>2012-10-28T10:54:26Z</time>
      </trkpt>
      <trkpt lat="47.26651" lon="-1.73442">
        <ele>68.7</ele>
        <time>2012-10-28T10:54:28Z</time>
      </trkpt>
      <trkpt lat="47.26649" lon="-1.73431">
        <ele>68.9</ele>
        <time>2012-10-28T10:54:30Z</time>
      </trkpt>
      <trkpt lat="47.26645" lon="-1.73411">
        <ele>69.7</ele>
        <time>2012-10-28T10:54:34Z</time>
      </trkpt>
      <trkpt lat="47.26641" lon="-1.73396">
        <ele>69.5</ele>
        <time>2012-10-28T10:54:37Z</time>
      </trkpt>
      <trkpt lat="47.26635" lon="-1.73375">
        <ele>70.1</ele>
        <time>2012-10-28T10:54:41Z</time>
      </trkpt>
      <trkpt lat="47.26621" lon="-1.73337">
        <ele>70.4</ele>
        <time>2012-10-28T10:54:49Z</time>
      </trkpt>
      <trkpt lat="47.26613" lon="-1.73317">
        <ele>71.4</ele>
        <time>2012-10-28T10:54:54Z</time>
      </trkpt>
      <trkpt lat="47.26605" lon="-1.73299">
        <ele>71.8</ele>
        <time>2012-10-28T10:54:59Z</time>
      </trkpt>
      <trkpt lat="47.26603" lon="-1.73296">
        <ele>72.2</ele>
        <time>2012-10-28T10:55:00Z</time>
      </trkpt>
      <trkpt lat="47.26597" lon="-1.73287">
        <ele>72.4</ele>
        <time>2012-10-28T10:55:03Z</time>
      </trkpt>
      <trkpt lat="47.26595" lon="-1.73284">
        <ele>72.4</ele>
        <time>2012-10-28T10:55:04Z</time>
      </trkpt>
      <trkpt lat="47.26584" lon="-1.73268">
        <ele>72.9</ele>
        <time>2012-10-28T10:55:09Z</time>
      </trkpt>
      <trkpt lat="47.26581" lon="-1.73262">
        <ele>73.7</ele>
        <time>2012-10-28T10:55:11Z</time>
      </trkpt>
      <trkpt lat="47.26579" lon="-1.73258">
        <ele>73.9</ele>
        <time>2012-10-28T10:55:12Z</time>
      </trkpt>
      <trkpt lat="47.26566" lon="-1.73235">
        <ele>73.7</ele>
        <time>2012-10-28T10:55:19Z</time>
      </trkpt>
      <trkpt lat="47.26563" lon="-1.73235">
        <ele>73.5</ele>
        <time>2012-10-28T10:55:20Z</time>
      </trkpt>
      <trkpt lat="47.26548" lon="-1.73234">
        <ele>73.7</ele>
        <time>2012-10-28T10:55:24Z</time>
      </trkpt>
      <trkpt lat="47.26544" lon="-1.73233">
        <ele>73.7</ele>
        <time>2012-10-28T10:55:25Z</time>
      </trkpt>
      <trkpt lat="47.26541" lon="-1.7323">
        <ele>73.7</ele>
        <time>2012-10-28T10:55:26Z</time>
      </trkpt>
      <trkpt lat="47.26538" lon="-1.73226">
        <ele>73.7</ele>
        <time>2012-10-28T10:55:27Z</time>
      </trkpt>
      <trkpt lat="47.26536" lon="-1.73222">
        <ele>73.7</ele>
        <time>2012-10-28T10:55:28Z</time>
      </trkpt>
      <trkpt lat="47.26529" lon="-1.73211">
        <ele>73.3</ele>
        <time>2012-10-28T10:55:31Z</time>
      </trkpt>
      <trkpt lat="47.26526" lon="-1.73208">
        <ele>73.1</ele>
        <time>2012-10-28T10:55:32Z</time>
      </trkpt>
      <trkpt lat="47.26523" lon="-1.73207">
        <ele>73</ele>
        <time>2012-10-28T10:55:33Z</time>
      </trkpt>
      <trkpt lat="47.26519" lon="-1.73207">
        <ele>72.9</ele>
        <time>2012-10-28T10:55:34Z</time>
      </trkpt>
      <trkpt lat="47.26515" lon="-1.73207">
        <ele>72.9</ele>
        <time>2012-10-28T10:55:35Z</time>
      </trkpt>
      <trkpt lat="47.26483" lon="-1.73212">
        <ele>72.5</ele>
        <time>2012-10-28T10:55:43Z</time>
      </trkpt>
      <trkpt lat="47.2648" lon="-1.73209">
        <ele>72.2</ele>
        <time>2012-10-28T10:55:44Z</time>
      </trkpt>
      <trkpt lat="47.26479" lon="-1.73207">
        <ele>71.9</ele>
        <time>2012-10-28T10:55:45Z</time>
      </trkpt>
      <trkpt lat="47.26478" lon="-1.73202">
        <ele>71.6</ele>
        <time>2012-10-28T10:55:46Z</time>
      </trkpt>
      <trkpt lat="47.26477" lon="-1.73198">
        <ele>71.6</ele>
        <time>2012-10-28T10:55:47Z</time>
      </trkpt>
      <trkpt lat="47.26476" lon="-1.73188">
        <ele>71.6</ele>
        <time>2012-10-28T10:55:49Z</time>
      </trkpt>
      <trkpt lat="47.26474" lon="-1.73168">
        <ele>72.4</ele>
        <time>2012-10-28T10:55:53Z</time>
      </trkpt>
      <trkpt lat="47.26471" lon="-1.73157">
        <ele>72.2</ele>
        <time>2012-10-28T10:55:55Z</time>
      </trkpt>
      <trkpt lat="47.26454" lon="-1.73086">
        <ele>71.5</ele>
        <time>2012-10-28T10:56:06Z</time>
      </trkpt>
      <trkpt lat="47.26452" lon="-1.73079">
        <ele>71.4</ele>
        <time>2012-10-28T10:56:07Z</time>
      </trkpt>
      <trkpt lat="47.26449" lon="-1.73072">
        <ele>71.1</ele>
        <time>2012-10-28T10:56:08Z</time>
      </trkpt>
      <trkpt lat="47.26423" lon="-1.73008">
        <ele>71.3</ele>
        <time>2012-10-28T10:56:19Z</time>
      </trkpt>
      <trkpt lat="47.26422" lon="-1.73002">
        <ele>71.5</ele>
        <time>2012-10-28T10:56:20Z</time>
      </trkpt>
      <trkpt lat="47.26418" lon="-1.72991">
        <ele>71.6</ele>
        <time>2012-10-28T10:56:22Z</time>
      </trkpt>
      <trkpt lat="47.26417" lon="-1.72985">
        <ele>71.5</ele>
        <time>2012-10-28T10:56:23Z</time>
      </trkpt>
      <trkpt lat="47.26417" lon="-1.72979">
        <ele>71.5</ele>
        <time>2012-10-28T10:56:24Z</time>
      </trkpt>
      <trkpt lat="47.26417" lon="-1.72973">
        <ele>71.5</ele>
        <time>2012-10-28T10:56:25Z</time>
      </trkpt>
      <trkpt lat="47.26419" lon="-1.72968">
        <ele>71.6</ele>
        <time>2012-10-28T10:56:26Z</time>
      </trkpt>
      <trkpt lat="47.2642" lon="-1.72964">
        <ele>71.4</ele>
        <time>2012-10-28T10:56:27Z</time>
      </trkpt>
      <trkpt lat="47.26422" lon="-1.7296">
        <ele>71.3</ele>
        <time>2012-10-28T10:56:28Z</time>
      </trkpt>
      <trkpt lat="47.26425" lon="-1.72956">
        <ele>71.6</ele>
        <time>2012-10-28T10:56:29Z</time>
      </trkpt>
      <trkpt lat="47.26434" lon="-1.72943">
        <ele>72</ele>
        <time>2012-10-28T10:56:33Z</time>
      </trkpt>
      <trkpt lat="47.26471" lon="-1.72898">
        <ele>74.5</ele>
        <time>2012-10-28T10:56:48Z</time>
      </trkpt>
      <trkpt lat="47.265" lon="-1.72864">
        <ele>75.2</ele>
        <time>2012-10-28T10:57:00Z</time>
      </trkpt>
      <trkpt lat="47.2653" lon="-1.72828">
        <ele>76.7</ele>
        <time>2012-10-28T10:57:12Z</time>
      </trkpt>
      <trkpt lat="47.26549" lon="-1.72805">
        <ele>77.2</ele>
        <time>2012-10-28T10:57:20Z</time>
      </trkpt>
      <trkpt lat="47.26551" lon="-1.72802">
        <ele>76.9</ele>
        <time>2012-10-28T10:57:21Z</time>
      </trkpt>
      <trkpt lat="47.26555" lon="-1.72796">
        <ele>76.6</ele>
        <time>2012-10-28T10:57:23Z</time>
      </trkpt>
      <trkpt lat="47.26556" lon="-1.72792">
        <ele>76.4</ele>
        <time>2012-10-28T10:57:24Z</time>
      </trkpt>
      <trkpt lat="47.26557" lon="-1.72787">
        <ele>76.3</ele>
        <time>2012-10-28T10:57:25Z</time>
      </trkpt>
      <trkpt lat="47.26556" lon="-1.72782">
        <ele>76.3</ele>
        <time>2012-10-28T10:57:26Z</time>
      </trkpt>
      <trkpt lat="47.26556" lon="-1.72778">
        <ele>76.3</ele>
        <time>2012-10-28T10:57:27Z</time>
      </trkpt>
      <trkpt lat="47.26554" lon="-1.72768">
        <ele>76.6</ele>
        <time>2012-10-28T10:57:29Z</time>
      </trkpt>
      <trkpt lat="47.26553" lon="-1.72763">
        <ele>76.8</ele>
        <time>2012-10-28T10:57:30Z</time>
      </trkpt>
      <trkpt lat="47.26552" lon="-1.72758">
        <ele>77.2</ele>
        <time>2012-10-28T10:57:31Z</time>
      </trkpt>
      <trkpt lat="47.26549" lon="-1.72749">
        <ele>77.7</ele>
        <time>2012-10-28T10:57:33Z</time>
      </trkpt>
      <trkpt lat="47.26548" lon="-1.72744">
        <ele>77.9</ele>
        <time>2012-10-28T10:57:34Z</time>
      </trkpt>
      <trkpt lat="47.26541" lon="-1.72709">
        <ele>77.9</ele>
        <time>2012-10-28T10:57:40Z</time>
      </trkpt>
      <trkpt lat="47.26534" lon="-1.72679">
        <ele>77.4</ele>
        <time>2012-10-28T10:57:45Z</time>
      </trkpt>
      <trkpt lat="47.26526" lon="-1.72654">
        <ele>77.4</ele>
        <time>2012-10-28T10:57:49Z</time>
      </trkpt>
      <trkpt lat="47.26522" lon="-1.72642">
        <ele>77.6</ele>
        <time>2012-10-28T10:57:51Z</time>
      </trkpt>
      <trkpt lat="47.26516" lon="-1.72631">
        <ele>77.1</ele>
        <time>2012-10-28T10:57:53Z</time>
      </trkpt>
      <trkpt lat="47.26507" lon="-1.72615">
        <ele>76.5</ele>
        <time>2012-10-28T10:57:56Z</time>
      </trkpt>
      <trkpt lat="47.26503" lon="-1.7261">
        <ele>76.3</ele>
        <time>2012-10-28T10:57:57Z</time>
      </trkpt>
      <trkpt lat="47.26496" lon="-1.726">
        <ele>75.9</ele>
        <time>2012-10-28T10:57:59Z</time>
      </trkpt>
      <trkpt lat="47.26493" lon="-1.72594">
        <ele>75.7</ele>
        <time>2012-10-28T10:58:00Z</time>
      </trkpt>
      <trkpt lat="47.26438" lon="-1.72474">
        <ele>74.4</ele>
        <time>2012-10-28T10:58:19Z</time>
      </trkpt>
      <trkpt lat="47.26438" lon="-1.72468">
        <ele>74.4</ele>
        <time>2012-10-28T10:58:20Z</time>
      </trkpt>
      <trkpt lat="47.2644" lon="-1.72463">
        <ele>74.2</ele>
        <time>2012-10-28T10:58:21Z</time>
      </trkpt>
      <trkpt lat="47.26443" lon="-1.72458">
        <ele>74</ele>
        <time>2012-10-28T10:58:22Z</time>
      </trkpt>
      <trkpt lat="47.26446" lon="-1.72454">
        <ele>74.1</ele>
        <time>2012-10-28T10:58:23Z</time>
      </trkpt>
      <trkpt lat="47.26453" lon="-1.72447">
        <ele>74.3</ele>
        <time>2012-10-28T10:58:25Z</time>
      </trkpt>
      <trkpt lat="47.26453" lon="-1.72441">
        <ele>74.1</ele>
        <time>2012-10-28T10:58:26Z</time>
      </trkpt>
      <trkpt lat="47.26453" lon="-1.72434">
        <ele>74</ele>
        <time>2012-10-28T10:58:27Z</time>
      </trkpt>
      <trkpt lat="47.26452" lon="-1.72427">
        <ele>74</ele>
        <time>2012-10-28T10:58:28Z</time>
      </trkpt>
      <trkpt lat="47.26436" lon="-1.72345">
        <ele>73.9</ele>
        <time>2012-10-28T10:58:40Z</time>
      </trkpt>
      <trkpt lat="47.26436" lon="-1.72339">
        <ele>73.7</ele>
        <time>2012-10-28T10:58:41Z</time>
      </trkpt>
      <trkpt lat="47.26432" lon="-1.72283">
        <ele>73.1</ele>
        <time>2012-10-28T10:58:49Z</time>
      </trkpt>
      <trkpt lat="47.26431" lon="-1.72276">
        <ele>73.4</ele>
        <time>2012-10-28T10:58:50Z</time>
      </trkpt>
      <trkpt lat="47.2643" lon="-1.7227">
        <ele>73.5</ele>
        <time>2012-10-28T10:58:51Z</time>
      </trkpt>
      <trkpt lat="47.26428" lon="-1.72265">
        <ele>73.5</ele>
        <time>2012-10-28T10:58:52Z</time>
      </trkpt>
      <trkpt lat="47.26425" lon="-1.7226">
        <ele>73.5</ele>
        <time>2012-10-28T10:58:53Z</time>
      </trkpt>
      <trkpt lat="47.26412" lon="-1.72236">
        <ele>73</ele>
        <time>2012-10-28T10:58:58Z</time>
      </trkpt>
      <trkpt lat="47.26403" lon="-1.72223">
        <ele>73.6</ele>
        <time>2012-10-28T10:59:01Z</time>
      </trkpt>
      <trkpt lat="47.264" lon="-1.72219">
        <ele>73.6</ele>
        <time>2012-10-28T10:59:02Z</time>
      </trkpt>
      <trkpt lat="47.26397" lon="-1.72215">
        <ele>73.7</ele>
        <time>2012-10-28T10:59:03Z</time>
      </trkpt>
      <trkpt lat="47.26394" lon="-1.72212">
        <ele>73.9</ele>
        <time>2012-10-28T10:59:04Z</time>
      </trkpt>
      <trkpt lat="47.26387" lon="-1.72208">
        <ele>74.1</ele>
        <time>2012-10-28T10:59:06Z</time>
      </trkpt>
      <trkpt lat="47.26384" lon="-1.72207">
        <ele>74</ele>
        <time>2012-10-28T10:59:07Z</time>
      </trkpt>
      <trkpt lat="47.26374" lon="-1.72203">
        <ele>73.7</ele>
        <time>2012-10-28T10:59:10Z</time>
      </trkpt>
      <trkpt lat="47.26361" lon="-1.72196">
        <ele>74.7</ele>
        <time>2012-10-28T10:59:14Z</time>
      </trkpt>
      <trkpt lat="47.26355" lon="-1.72192">
        <ele>75.1</ele>
        <time>2012-10-28T10:59:16Z</time>
      </trkpt>
      <trkpt lat="47.26308" lon="-1.72153">
        <ele>76.8</ele>
        <time>2012-10-28T10:59:33Z</time>
      </trkpt>
      <trkpt lat="47.26306" lon="-1.72151">
        <ele>77</ele>
        <time>2012-10-28T10:59:34Z</time>
      </trkpt>
      <trkpt lat="47.26276" lon="-1.72117">
        <ele>78.1</ele>
        <time>2012-10-28T10:59:45Z</time>
      </trkpt>
      <trkpt lat="47.26274" lon="-1.72113">
        <ele>78</ele>
        <time>2012-10-28T10:59:46Z</time>
      </trkpt>
      <trkpt lat="47.26272" lon="-1.72109">
        <ele>78</ele>
        <time>2012-10-28T10:59:47Z</time>
      </trkpt>
      <trkpt lat="47.26267" lon="-1.721">
        <ele>77.7</ele>
        <time>2012-10-28T10:59:49Z</time>
      </trkpt>
      <trkpt lat="47.26265" lon="-1.72095">
        <ele>77.5</ele>
        <time>2012-10-28T10:59:50Z</time>
      </trkpt>
      <trkpt lat="47.26234" lon="-1.72005">
        <ele>77.5</ele>
        <time>2012-10-28T11:00:06Z</time>
      </trkpt>
      <trkpt lat="47.26222" lon="-1.71973">
        <ele>76.9</ele>
        <time>2012-10-28T11:00:11Z</time>
      </trkpt>
      <trkpt lat="47.26217" lon="-1.71961">
        <ele>76.6</ele>
        <time>2012-10-28T11:00:13Z</time>
      </trkpt>
      <trkpt lat="47.26209" lon="-1.71944">
        <ele>77.5</ele>
        <time>2012-10-28T11:00:16Z</time>
      </trkpt>
      <trkpt lat="47.26205" lon="-1.71939">
        <ele>77.5</ele>
        <time>2012-10-28T11:00:17Z</time>
      </trkpt>
      <trkpt lat="47.26195" lon="-1.71925">
        <ele>77.5</ele>
        <time>2012-10-28T11:00:20Z</time>
      </trkpt>
      <trkpt lat="47.26176" lon="-1.71904">
        <ele>77.3</ele>
        <time>2012-10-28T11:00:25Z</time>
      </trkpt>
      <trkpt lat="47.26173" lon="-1.71898">
        <ele>77.2</ele>
        <time>2012-10-28T11:00:26Z</time>
      </trkpt>
      <trkpt lat="47.2617" lon="-1.71892">
        <ele>77</ele>
        <time>2012-10-28T11:00:27Z</time>
      </trkpt>
      <trkpt lat="47.26169" lon="-1.71884">
        <ele>76.9</ele>
        <time>2012-10-28T11:00:28Z</time>
      </trkpt>
      <trkpt lat="47.26157" lon="-1.71829">
        <ele>75.1</ele>
        <time>2012-10-28T11:00:36Z</time>
      </trkpt>
      <trkpt lat="47.26154" lon="-1.71823">
        <ele>74.9</ele>
        <time>2012-10-28T11:00:37Z</time>
      </trkpt>
      <trkpt lat="47.2615" lon="-1.71811">
        <ele>74.6</ele>
        <time>2012-10-28T11:00:39Z</time>
      </trkpt>
      <trkpt lat="47.26148" lon="-1.71805">
        <ele>74.5</ele>
        <time>2012-10-28T11:00:40Z</time>
      </trkpt>
      <trkpt lat="47.26149" lon="-1.718">
        <ele>74.6</ele>
        <time>2012-10-28T11:00:41Z</time>
      </trkpt>
      <trkpt lat="47.2615" lon="-1.71796">
        <ele>74.6</ele>
        <time>2012-10-28T11:00:42Z</time>
      </trkpt>
      <trkpt lat="47.26152" lon="-1.71792">
        <ele>74.5</ele>
        <time>2012-10-28T11:00:43Z</time>
      </trkpt>
      <trkpt lat="47.26154" lon="-1.71789">
        <ele>74.5</ele>
        <time>2012-10-28T11:00:44Z</time>
      </trkpt>
      <trkpt lat="47.26157" lon="-1.71786">
        <ele>74.4</ele>
        <time>2012-10-28T11:00:45Z</time>
      </trkpt>
      <trkpt lat="47.2616" lon="-1.71784">
        <ele>74.5</ele>
        <time>2012-10-28T11:00:46Z</time>
      </trkpt>
      <trkpt lat="47.26166" lon="-1.71779">
        <ele>74.4</ele>
        <time>2012-10-28T11:00:48Z</time>
      </trkpt>
      <trkpt lat="47.2617" lon="-1.71775">
        <ele>74.2</ele>
        <time>2012-10-28T11:00:49Z</time>
      </trkpt>
      <trkpt lat="47.26172" lon="-1.71769">
        <ele>74.3</ele>
        <time>2012-10-28T11:00:50Z</time>
      </trkpt>
      <trkpt lat="47.26173" lon="-1.71763">
        <ele>74.3</ele>
        <time>2012-10-28T11:00:51Z</time>
      </trkpt>
      <trkpt lat="47.26172" lon="-1.71757">
        <ele>74.4</ele>
        <time>2012-10-28T11:00:52Z</time>
      </trkpt>
      <trkpt lat="47.26171" lon="-1.71751">
        <ele>74.5</ele>
        <time>2012-10-28T11:00:53Z</time>
      </trkpt>
      <trkpt lat="47.26166" lon="-1.71732">
        <ele>74.7</ele>
        <time>2012-10-28T11:00:56Z</time>
      </trkpt>
      <trkpt lat="47.26163" lon="-1.71727">
        <ele>74.4</ele>
        <time>2012-10-28T11:00:57Z</time>
      </trkpt>
      <trkpt lat="47.26148" lon="-1.71687">
        <ele>75.5</ele>
        <time>2012-10-28T11:01:04Z</time>
      </trkpt>
      <trkpt lat="47.2613" lon="-1.71639">
        <ele>74.7</ele>
        <time>2012-10-28T11:01:12Z</time>
      </trkpt>
      <trkpt lat="47.26129" lon="-1.71632">
        <ele>74.7</ele>
        <time>2012-10-28T11:01:13Z</time>
      </trkpt>
      <trkpt lat="47.26125" lon="-1.71613">
        <ele>74.6</ele>
        <time>2012-10-28T11:01:16Z</time>
      </trkpt>
      <trkpt lat="47.26124" lon="-1.71606">
        <ele>74.5</ele>
        <time>2012-10-28T11:01:17Z</time>
      </trkpt>
      <trkpt lat="47.26124" lon="-1.716">
        <ele>74.5</ele>
        <time>2012-10-28T11:01:18Z</time>
      </trkpt>
      <trkpt lat="47.26125" lon="-1.71593">
        <ele>74.5</ele>
        <time>2012-10-28T11:01:19Z</time>
      </trkpt>
      <trkpt lat="47.26125" lon="-1.71587">
        <ele>74.6</ele>
        <time>2012-10-28T11:01:20Z</time>
      </trkpt>
      <trkpt lat="47.26126" lon="-1.71581">
        <ele>74.7</ele>
        <time>2012-10-28T11:01:21Z</time>
      </trkpt>
      <trkpt lat="47.26128" lon="-1.71576">
        <ele>74.7</ele>
        <time>2012-10-28T11:01:22Z</time>
      </trkpt>
      <trkpt lat="47.2613" lon="-1.71572">
        <ele>74.8</ele>
        <time>2012-10-28T11:01:23Z</time>
      </trkpt>
      <trkpt lat="47.26136" lon="-1.71563">
        <ele>74.3</ele>
        <time>2012-10-28T11:01:25Z</time>
      </trkpt>
      <trkpt lat="47.26148" lon="-1.71545">
        <ele>74</ele>
        <time>2012-10-28T11:01:29Z</time>
      </trkpt>
      <trkpt lat="47.26159" lon="-1.71532">
        <ele>74.3</ele>
        <time>2012-10-28T11:01:32Z</time>
      </trkpt>
      <trkpt lat="47.26199" lon="-1.71481">
        <ele>73.9</ele>
        <time>2012-10-28T11:01:42Z</time>
      </trkpt>
      <trkpt lat="47.26203" lon="-1.71473">
        <ele>73.4</ele>
        <time>2012-10-28T11:01:43Z</time>
      </trkpt>
      <trkpt lat="47.26209" lon="-1.71457">
        <ele>72.7</ele>
        <time>2012-10-28T11:01:45Z</time>
      </trkpt>
      <trkpt lat="47.26212" lon="-1.71447">
        <ele>72.3</ele>
        <time>2012-10-28T11:01:46Z</time>
      </trkpt>
      <trkpt lat="47.26217" lon="-1.71427">
        <ele>71.5</ele>
        <time>2012-10-28T11:01:48Z</time>
      </trkpt>
      <trkpt lat="47.26324" lon="-1.70787">
        <ele>58.2</ele>
        <time>2012-10-28T11:02:48Z</time>
      </trkpt>
      <trkpt lat="47.26325" lon="-1.70778">
        <ele>57.9</ele>
        <time>2012-10-28T11:02:49Z</time>
      </trkpt>
      <trkpt lat="47.26326" lon="-1.70769">
        <ele>57.6</ele>
        <time>2012-10-28T11:02:50Z</time>
      </trkpt>
      <trkpt lat="47.26326" lon="-1.70741">
        <ele>58.3</ele>
        <time>2012-10-28T11:02:53Z</time>
      </trkpt>
      <trkpt lat="47.26325" lon="-1.70725">
        <ele>57.2</ele>
        <time>2012-10-28T11:02:55Z</time>
      </trkpt>
      <trkpt lat="47.26323" lon="-1.70698">
        <ele>57.6</ele>
        <time>2012-10-28T11:02:59Z</time>
      </trkpt>
      <trkpt lat="47.26318" lon="-1.7067">
        <ele>58.1</ele>
        <time>2012-10-28T11:03:04Z</time>
      </trkpt>
      <trkpt lat="47.26297" lon="-1.70571">
        <ele>61.6</ele>
        <time>2012-10-28T11:03:21Z</time>
      </trkpt>
      <trkpt lat="47.26286" lon="-1.70525">
        <ele>62.1</ele>
        <time>2012-10-28T11:03:29Z</time>
      </trkpt>
      <trkpt lat="47.26284" lon="-1.70519">
        <ele>62.2</ele>
        <time>2012-10-28T11:03:30Z</time>
      </trkpt>
      <trkpt lat="47.2627" lon="-1.70486">
        <ele>62.9</ele>
        <time>2012-10-28T11:03:36Z</time>
      </trkpt>
      <trkpt lat="47.2626" lon="-1.70465">
        <ele>62.4</ele>
        <time>2012-10-28T11:03:40Z</time>
      </trkpt>
      <trkpt lat="47.26232" lon="-1.70413">
        <ele>63.6</ele>
        <time>2012-10-28T11:03:52Z</time>
      </trkpt>
      <trkpt lat="47.26231" lon="-1.70408">
        <ele>63.7</ele>
        <time>2012-10-28T11:03:53Z</time>
      </trkpt>
      <trkpt lat="47.26214" lon="-1.70377">
        <ele>64.3</ele>
        <time>2012-10-28T11:04:02Z</time>
      </trkpt>
      <trkpt lat="47.26211" lon="-1.70375">
        <ele>64.6</ele>
        <time>2012-10-28T11:04:03Z</time>
      </trkpt>
      <trkpt lat="47.26208" lon="-1.70375">
        <ele>64.8</ele>
        <time>2012-10-28T11:04:04Z</time>
      </trkpt>
      <trkpt lat="47.26206" lon="-1.70375">
        <ele>64.8</ele>
        <time>2012-10-28T11:04:05Z</time>
      </trkpt>
      <trkpt lat="47.26203" lon="-1.70377">
        <ele>64.7</ele>
        <time>2012-10-28T11:04:06Z</time>
      </trkpt>
      <trkpt lat="47.2619" lon="-1.70386">
        <ele>65</ele>
        <time>2012-10-28T11:04:10Z</time>
      </trkpt>
      <trkpt lat="47.26021" lon="-1.70518">
        <ele>56.1</ele>
        <time>2012-10-28T11:04:38Z</time>
      </trkpt>
      <trkpt lat="47.25981" lon="-1.70555">
        <ele>56.4</ele>
        <time>2012-10-28T11:04:46Z</time>
      </trkpt>
      <trkpt lat="47.2593" lon="-1.70609">
        <ele>59.1</ele>
        <time>2012-10-28T11:05:00Z</time>
      </trkpt>
      <trkpt lat="47.25927" lon="-1.70613">
        <ele>59.4</ele>
        <time>2012-10-28T11:05:01Z</time>
      </trkpt>
      <trkpt lat="47.25903" lon="-1.70642">
        <ele>60.6</ele>
        <time>2012-10-28T11:05:09Z</time>
      </trkpt>
      <trkpt lat="47.259" lon="-1.70645">
        <ele>60.6</ele>
        <time>2012-10-28T11:05:10Z</time>
      </trkpt>
      <trkpt lat="47.25884" lon="-1.70658">
        <ele>60.3</ele>
        <time>2012-10-28T11:05:15Z</time>
      </trkpt>
      <trkpt lat="47.25878" lon="-1.70665">
        <ele>61.1</ele>
        <time>2012-10-28T11:05:17Z</time>
      </trkpt>
      <trkpt lat="47.25865" lon="-1.70678">
        <ele>61.9</ele>
        <time>2012-10-28T11:05:21Z</time>
      </trkpt>
      <trkpt lat="47.25862" lon="-1.70681">
        <ele>61.9</ele>
        <time>2012-10-28T11:05:22Z</time>
      </trkpt>
      <trkpt lat="47.25789" lon="-1.70744">
        <ele>61.6</ele>
        <time>2012-10-28T11:05:42Z</time>
      </trkpt>
      <trkpt lat="47.25785" lon="-1.70746">
        <ele>61.7</ele>
        <time>2012-10-28T11:05:43Z</time>
      </trkpt>
      <trkpt lat="47.25781" lon="-1.70747">
        <ele>61.7</ele>
        <time>2012-10-28T11:05:44Z</time>
      </trkpt>
      <trkpt lat="47.25777" lon="-1.70748">
        <ele>62</ele>
        <time>2012-10-28T11:05:45Z</time>
      </trkpt>
      <trkpt lat="47.25758" lon="-1.70752">
        <ele>62.9</ele>
        <time>2012-10-28T11:05:50Z</time>
      </trkpt>
      <trkpt lat="47.25745" lon="-1.70752">
        <ele>62.9</ele>
        <time>2012-10-28T11:05:53Z</time>
      </trkpt>
      <trkpt lat="47.25613" lon="-1.70746">
        <ele>65.1</ele>
        <time>2012-10-28T11:06:21Z</time>
      </trkpt>
      <trkpt lat="47.25608" lon="-1.70745">
        <ele>65</ele>
        <time>2012-10-28T11:06:22Z</time>
      </trkpt>
      <trkpt lat="47.25604" lon="-1.70743">
        <ele>65.1</ele>
        <time>2012-10-28T11:06:23Z</time>
      </trkpt>
      <trkpt lat="47.25601" lon="-1.70739">
        <ele>65.1</ele>
        <time>2012-10-28T11:06:24Z</time>
      </trkpt>
      <trkpt lat="47.25598" lon="-1.70735">
        <ele>65.2</ele>
        <time>2012-10-28T11:06:25Z</time>
      </trkpt>
      <trkpt lat="47.25596" lon="-1.70729">
        <ele>65.3</ele>
        <time>2012-10-28T11:06:26Z</time>
      </trkpt>
      <trkpt lat="47.25568" lon="-1.70601">
        <ele>65.8</ele>
        <time>2012-10-28T11:06:47Z</time>
      </trkpt>
      <trkpt lat="47.25567" lon="-1.70596">
        <ele>65.9</ele>
        <time>2012-10-28T11:06:48Z</time>
      </trkpt>
      <trkpt lat="47.25566" lon="-1.70584">
        <ele>66.7</ele>
        <time>2012-10-28T11:06:50Z</time>
      </trkpt>
      <trkpt lat="47.25567" lon="-1.70578">
        <ele>66.9</ele>
        <time>2012-10-28T11:06:51Z</time>
      </trkpt>
      <trkpt lat="47.25567" lon="-1.70572">
        <ele>67.1</ele>
        <time>2012-10-28T11:06:52Z</time>
      </trkpt>
      <trkpt lat="47.25569" lon="-1.70567">
        <ele>66.8</ele>
        <time>2012-10-28T11:06:53Z</time>
      </trkpt>
      <trkpt lat="47.25579" lon="-1.70539">
        <ele>67.5</ele>
        <time>2012-10-28T11:06:58Z</time>
      </trkpt>
      <trkpt lat="47.25581" lon="-1.70533">
        <ele>67.6</ele>
        <time>2012-10-28T11:06:59Z</time>
      </trkpt>
      <trkpt lat="47.25599" lon="-1.70496">
        <ele>66.7</ele>
        <time>2012-10-28T11:07:07Z</time>
      </trkpt>
      <trkpt lat="47.25602" lon="-1.70491">
        <ele>66.6</ele>
        <time>2012-10-28T11:07:08Z</time>
      </trkpt>
      <trkpt lat="47.25615" lon="-1.70473">
        <ele>67.2</ele>
        <time>2012-10-28T11:07:12Z</time>
      </trkpt>
      <trkpt lat="47.25626" lon="-1.70461">
        <ele>67.6</ele>
        <time>2012-10-28T11:07:15Z</time>
      </trkpt>
      <trkpt lat="47.25669" lon="-1.70419">
        <ele>66.2</ele>
        <time>2012-10-28T11:07:26Z</time>
      </trkpt>
      <trkpt lat="47.25673" lon="-1.70415">
        <ele>66.2</ele>
        <time>2012-10-28T11:07:27Z</time>
      </trkpt>
      <trkpt lat="47.25756" lon="-1.70353">
        <ele>63</ele>
        <time>2012-10-28T11:07:45Z</time>
      </trkpt>
      <trkpt lat="47.25785" lon="-1.70331">
        <ele>61.5</ele>
        <time>2012-10-28T11:07:50Z</time>
      </trkpt>
      <trkpt lat="47.2579" lon="-1.70325">
        <ele>61.6</ele>
        <time>2012-10-28T11:07:51Z</time>
      </trkpt>
      <trkpt lat="47.25793" lon="-1.70317">
        <ele>61.7</ele>
        <time>2012-10-28T11:07:52Z</time>
      </trkpt>
      <trkpt lat="47.25795" lon="-1.70307">
        <ele>61.2</ele>
        <time>2012-10-28T11:07:53Z</time>
      </trkpt>
      <trkpt lat="47.25795" lon="-1.70299">
        <ele>60.7</ele>
        <time>2012-10-28T11:07:54Z</time>
      </trkpt>
      <trkpt lat="47.25793" lon="-1.70291">
        <ele>60.8</ele>
        <time>2012-10-28T11:07:55Z</time>
      </trkpt>
      <trkpt lat="47.25791" lon="-1.70283">
        <ele>60.8</ele>
        <time>2012-10-28T11:07:56Z</time>
      </trkpt>
      <trkpt lat="47.25763" lon="-1.70183">
        <ele>61.4</ele>
        <time>2012-10-28T11:08:13Z</time>
      </trkpt>
      <trkpt lat="47.25752" lon="-1.70143">
        <ele>62.5</ele>
        <time>2012-10-28T11:08:21Z</time>
      </trkpt>
      <trkpt lat="47.25719" lon="-1.70032">
        <ele>65.8</ele>
        <time>2012-10-28T11:08:44Z</time>
      </trkpt>
      <trkpt lat="47.25717" lon="-1.70025">
        <ele>65</ele>
        <time>2012-10-28T11:08:45Z</time>
      </trkpt>
      <trkpt lat="47.25712" lon="-1.70014">
        <ele>64.7</ele>
        <time>2012-10-28T11:08:47Z</time>
      </trkpt>
      <trkpt lat="47.25708" lon="-1.70012">
        <ele>65</ele>
        <time>2012-10-28T11:08:48Z</time>
      </trkpt>
      <trkpt lat="47.25704" lon="-1.70011">
        <ele>65.2</ele>
        <time>2012-10-28T11:08:49Z</time>
      </trkpt>
      <trkpt lat="47.257" lon="-1.70012">
        <ele>65</ele>
        <time>2012-10-28T11:08:50Z</time>
      </trkpt>
      <trkpt lat="47.25693" lon="-1.70013">
        <ele>64.8</ele>
        <time>2012-10-28T11:08:52Z</time>
      </trkpt>
      <trkpt lat="47.2568" lon="-1.70018">
        <ele>64.6</ele>
        <time>2012-10-28T11:08:56Z</time>
      </trkpt>
      <trkpt lat="47.25668" lon="-1.70022">
        <ele>65.4</ele>
        <time>2012-10-28T11:09:00Z</time>
      </trkpt>
      <trkpt lat="47.25656" lon="-1.70025">
        <ele>67.1</ele>
        <time>2012-10-28T11:09:05Z</time>
      </trkpt>
      <trkpt lat="47.25654" lon="-1.70026">
        <ele>67</ele>
        <time>2012-10-28T11:09:06Z</time>
      </trkpt>
      <trkpt lat="47.25652" lon="-1.70027">
        <ele>67</ele>
        <time>2012-10-28T11:09:07Z</time>
      </trkpt>
      <trkpt lat="47.2565" lon="-1.70028">
        <ele>67</ele>
        <time>2012-10-28T11:09:08Z</time>
      </trkpt>
      <trkpt lat="47.25637" lon="-1.70031">
        <ele>67.8</ele>
        <time>2012-10-28T11:09:14Z</time>
      </trkpt>
      <trkpt lat="47.25635" lon="-1.70032">
        <ele>67.7</ele>
        <time>2012-10-28T11:09:15Z</time>
      </trkpt>
      <trkpt lat="47.25624" lon="-1.70038">
        <ele>68.4</ele>
        <time>2012-10-28T11:09:21Z</time>
      </trkpt>
      <trkpt lat="47.25615" lon="-1.70041">
        <ele>68.8</ele>
        <time>2012-10-28T11:09:25Z</time>
      </trkpt>
      <trkpt lat="47.2561" lon="-1.70041">
        <ele>68.6</ele>
        <time>2012-10-28T11:09:27Z</time>
      </trkpt>
      <trkpt lat="47.25608" lon="-1.70041">
        <ele>68.8</ele>
        <time>2012-10-28T11:09:28Z</time>
      </trkpt>
      <trkpt lat="47.25606" lon="-1.70043">
        <ele>69</ele>
        <time>2012-10-28T11:09:29Z</time>
      </trkpt>
      <trkpt lat="47.25604" lon="-1.70043">
        <ele>69</ele>
        <time>2012-10-28T11:09:30Z</time>
      </trkpt>
      <trkpt lat="47.25602" lon="-1.70043">
        <ele>68.9</ele>
        <time>2012-10-28T11:09:31Z</time>
      </trkpt>
      <trkpt lat="47.25597" lon="-1.70044">
        <ele>69.2</ele>
        <time>2012-10-28T11:09:33Z</time>
      </trkpt>
      <trkpt lat="47.25576" lon="-1.70048">
        <ele>68.1</ele>
        <time>2012-10-28T11:09:43Z</time>
      </trkpt>
      <trkpt lat="47.25535" lon="-1.70058">
        <ele>67.8</ele>
        <time>2012-10-28T11:09:56Z</time>
      </trkpt>
      <trkpt lat="47.25532" lon="-1.7006">
        <ele>67.5</ele>
        <time>2012-10-28T11:09:57Z</time>
      </trkpt>
      <trkpt lat="47.25515" lon="-1.70071">
        <ele>66.3</ele>
        <time>2012-10-28T11:10:03Z</time>
      </trkpt>
      <trkpt lat="47.25512" lon="-1.70074">
        <ele>66.1</ele>
        <time>2012-10-28T11:10:04Z</time>
      </trkpt>
      <trkpt lat="47.25492" lon="-1.7009">
        <ele>66.3</ele>
        <time>2012-10-28T11:10:11Z</time>
      </trkpt>
      <trkpt lat="47.25479" lon="-1.70099">
        <ele>65.8</ele>
        <time>2012-10-28T11:10:16Z</time>
      </trkpt>
      <trkpt lat="47.25477" lon="-1.701">
        <ele>65.9</ele>
        <time>2012-10-28T11:10:17Z</time>
      </trkpt>
      <trkpt lat="47.25476" lon="-1.701">
        <ele>65.9</ele>
        <time>2012-10-28T11:10:18Z</time>
      </trkpt>
      <trkpt lat="47.25471" lon="-1.70102">
        <ele>65.9</ele>
        <time>2012-10-28T11:10:21Z</time>
      </trkpt>
      <trkpt lat="47.2547" lon="-1.70103">
        <ele>66</ele>
        <time>2012-10-28T11:10:22Z</time>
      </trkpt>
      <trkpt lat="47.25463" lon="-1.70104">
        <ele>65.8</ele>
        <time>2012-10-28T11:10:26Z</time>
      </trkpt>
      <trkpt lat="47.25446" lon="-1.70109">
        <ele>65</ele>
        <time>2012-10-28T11:10:32Z</time>
      </trkpt>
      <trkpt lat="47.25444" lon="-1.70108">
        <ele>65.2</ele>
        <time>2012-10-28T11:10:33Z</time>
      </trkpt>
      <trkpt lat="47.25442" lon="-1.70105">
        <ele>65.3</ele>
        <time>2012-10-28T11:10:34Z</time>
      </trkpt>
      <trkpt lat="47.25435" lon="-1.70099">
        <ele>65.7</ele>
        <time>2012-10-28T11:10:37Z</time>
      </trkpt>
      <trkpt lat="47.25432" lon="-1.70098">
        <ele>65.8</ele>
        <time>2012-10-28T11:10:38Z</time>
      </trkpt>
      <trkpt lat="47.25429" lon="-1.70097">
        <ele>66.1</ele>
        <time>2012-10-28T11:10:39Z</time>
      </trkpt>
      <trkpt lat="47.25414" lon="-1.70092">
        <ele>65.5</ele>
        <time>2012-10-28T11:10:44Z</time>
      </trkpt>
      <trkpt lat="47.254" lon="-1.70088">
        <ele>65.1</ele>
        <time>2012-10-28T11:10:49Z</time>
      </trkpt>
      <trkpt lat="47.25398" lon="-1.70087">
        <ele>65.1</ele>
        <time>2012-10-28T11:10:50Z</time>
      </trkpt>
      <trkpt lat="47.25379" lon="-1.70077">
        <ele>65.4</ele>
        <time>2012-10-28T11:10:57Z</time>
      </trkpt>
      <trkpt lat="47.25377" lon="-1.70074">
        <ele>65.5</ele>
        <time>2012-10-28T11:10:58Z</time>
      </trkpt>
      <trkpt lat="47.25375" lon="-1.7007">
        <ele>65.6</ele>
        <time>2012-10-28T11:10:59Z</time>
      </trkpt>
      <trkpt lat="47.25374" lon="-1.70065">
        <ele>65.5</ele>
        <time>2012-10-28T11:11:00Z</time>
      </trkpt>
      <trkpt lat="47.25368" lon="-1.70027">
        <ele>65.2</ele>
        <time>2012-10-28T11:11:08Z</time>
      </trkpt>
      <trkpt lat="47.25367" lon="-1.70022">
        <ele>65.3</ele>
        <time>2012-10-28T11:11:09Z</time>
      </trkpt>
      <trkpt lat="47.25368" lon="-1.70016">
        <ele>65</ele>
        <time>2012-10-28T11:11:10Z</time>
      </trkpt>
      <trkpt lat="47.2537" lon="-1.69989">
        <ele>63.5</ele>
        <time>2012-10-28T11:11:14Z</time>
      </trkpt>
      <trkpt lat="47.25369" lon="-1.6998">
        <ele>63.2</ele>
        <time>2012-10-28T11:11:15Z</time>
      </trkpt>
      <trkpt lat="47.25368" lon="-1.69972">
        <ele>62.9</ele>
        <time>2012-10-28T11:11:16Z</time>
      </trkpt>
      <trkpt lat="47.25367" lon="-1.69964">
        <ele>62.6</ele>
        <time>2012-10-28T11:11:17Z</time>
      </trkpt>
      <trkpt lat="47.25365" lon="-1.69957">
        <ele>62.4</ele>
        <time>2012-10-28T11:11:18Z</time>
      </trkpt>
      <trkpt lat="47.25361" lon="-1.69942">
        <ele>61.7</ele>
        <time>2012-10-28T11:11:20Z</time>
      </trkpt>
      <trkpt lat="47.25361" lon="-1.69935">
        <ele>61.5</ele>
        <time>2012-10-28T11:11:21Z</time>
      </trkpt>
      <trkpt lat="47.25362" lon="-1.69927">
        <ele>61.5</ele>
        <time>2012-10-28T11:11:22Z</time>
      </trkpt>
      <trkpt lat="47.25364" lon="-1.69921">
        <ele>61.6</ele>
        <time>2012-10-28T11:11:23Z</time>
      </trkpt>
      <trkpt lat="47.25367" lon="-1.69916">
        <ele>61.2</ele>
        <time>2012-10-28T11:11:24Z</time>
      </trkpt>
      <trkpt lat="47.2537" lon="-1.69912">
        <ele>61</ele>
        <time>2012-10-28T11:11:25Z</time>
      </trkpt>
      <trkpt lat="47.25372" lon="-1.69909">
        <ele>60.3</ele>
        <time>2012-10-28T11:11:26Z</time>
      </trkpt>
      <trkpt lat="47.25382" lon="-1.69898">
        <ele>59.5</ele>
        <time>2012-10-28T11:11:29Z</time>
      </trkpt>
      <trkpt lat="47.25385" lon="-1.69893">
        <ele>59.5</ele>
        <time>2012-10-28T11:11:30Z</time>
      </trkpt>
      <trkpt lat="47.25396" lon="-1.69875">
        <ele>59.8</ele>
        <time>2012-10-28T11:11:34Z</time>
      </trkpt>
      <trkpt lat="47.254" lon="-1.69865">
        <ele>59.5</ele>
        <time>2012-10-28T11:11:36Z</time>
      </trkpt>
      <trkpt lat="47.25407" lon="-1.69848">
        <ele>58.4</ele>
        <time>2012-10-28T11:11:39Z</time>
      </trkpt>
      <trkpt lat="47.25418" lon="-1.69823">
        <ele>58.7</ele>
        <time>2012-10-28T11:11:44Z</time>
      </trkpt>
      <trkpt lat="47.2542" lon="-1.69819">
        <ele>58.8</ele>
        <time>2012-10-28T11:11:45Z</time>
      </trkpt>
      <trkpt lat="47.25425" lon="-1.69812">
        <ele>58.9</ele>
        <time>2012-10-28T11:11:47Z</time>
      </trkpt>
      <trkpt lat="47.2543" lon="-1.69806">
        <ele>58.7</ele>
        <time>2012-10-28T11:11:49Z</time>
      </trkpt>
      <trkpt lat="47.25432" lon="-1.69804">
        <ele>58.7</ele>
        <time>2012-10-28T11:11:50Z</time>
      </trkpt>
      <trkpt lat="47.25438" lon="-1.69801">
        <ele>58.6</ele>
        <time>2012-10-28T11:11:52Z</time>
      </trkpt>
      <trkpt lat="47.25448" lon="-1.69797">
        <ele>58.3</ele>
        <time>2012-10-28T11:11:56Z</time>
      </trkpt>
      <trkpt lat="47.25465" lon="-1.6979">
        <ele>58.9</ele>
        <time>2012-10-28T11:12:03Z</time>
      </trkpt>
      <trkpt lat="47.25467" lon="-1.69789">
        <ele>58.9</ele>
        <time>2012-10-28T11:12:04Z</time>
      </trkpt>
      <trkpt lat="47.25533" lon="-1.69768">
        <ele>62.7</ele>
        <time>2012-10-28T11:12:32Z</time>
      </trkpt>
      <trkpt lat="47.25536" lon="-1.69766">
        <ele>62.7</ele>
        <time>2012-10-28T11:12:33Z</time>
      </trkpt>
      <trkpt lat="47.25538" lon="-1.69763">
        <ele>62.6</ele>
        <time>2012-10-28T11:12:34Z</time>
      </trkpt>
      <trkpt lat="47.25541" lon="-1.6976">
        <ele>62.3</ele>
        <time>2012-10-28T11:12:35Z</time>
      </trkpt>
      <trkpt lat="47.25553" lon="-1.69742">
        <ele>62</ele>
        <time>2012-10-28T11:12:39Z</time>
      </trkpt>
      <trkpt lat="47.25567" lon="-1.69716">
        <ele>60.5</ele>
        <time>2012-10-28T11:12:44Z</time>
      </trkpt>
      <trkpt lat="47.25579" lon="-1.69693">
        <ele>60.6</ele>
        <time>2012-10-28T11:12:48Z</time>
      </trkpt>
      <trkpt lat="47.25581" lon="-1.69687">
        <ele>60.1</ele>
        <time>2012-10-28T11:12:49Z</time>
      </trkpt>
      <trkpt lat="47.25581" lon="-1.6968">
        <ele>59.8</ele>
        <time>2012-10-28T11:12:50Z</time>
      </trkpt>
      <trkpt lat="47.25579" lon="-1.69676">
        <ele>59.5</ele>
        <time>2012-10-28T11:12:51Z</time>
      </trkpt>
      <trkpt lat="47.25576" lon="-1.69673">
        <ele>59.2</ele>
        <time>2012-10-28T11:12:52Z</time>
      </trkpt>
      <trkpt lat="47.25572" lon="-1.69672">
        <ele>59</ele>
        <time>2012-10-28T11:12:53Z</time>
      </trkpt>
      <trkpt lat="47.25568" lon="-1.69671">
        <ele>59.1</ele>
        <time>2012-10-28T11:12:54Z</time>
      </trkpt>
      <trkpt lat="47.25511" lon="-1.6966">
        <ele>58.1</ele>
        <time>2012-10-28T11:13:05Z</time>
      </trkpt>
      <trkpt lat="47.25506" lon="-1.69657">
        <ele>57.4</ele>
        <time>2012-10-28T11:13:06Z</time>
      </trkpt>
      <trkpt lat="47.25437" lon="-1.69614">
        <ele>55.6</ele>
        <time>2012-10-28T11:13:20Z</time>
      </trkpt>
      <trkpt lat="47.25434" lon="-1.69611">
        <ele>55.8</ele>
        <time>2012-10-28T11:13:21Z</time>
      </trkpt>
      <trkpt lat="47.25432" lon="-1.69606">
        <ele>55.9</ele>
        <time>2012-10-28T11:13:22Z</time>
      </trkpt>
      <trkpt lat="47.25432" lon="-1.69601">
        <ele>55.8</ele>
        <time>2012-10-28T11:13:23Z</time>
      </trkpt>
      <trkpt lat="47.25433" lon="-1.69596">
        <ele>55.8</ele>
        <time>2012-10-28T11:13:24Z</time>
      </trkpt>
      <trkpt lat="47.25435" lon="-1.69592">
        <ele>55.7</ele>
        <time>2012-10-28T11:13:25Z</time>
      </trkpt>
      <trkpt lat="47.25463" lon="-1.69506">
        <ele>55.9</ele>
        <time>2012-10-28T11:13:41Z</time>
      </trkpt>
      <trkpt lat="47.25469" lon="-1.69482">
        <ele>55.2</ele>
        <time>2012-10-28T11:13:46Z</time>
      </trkpt>
      <trkpt lat="47.2547" lon="-1.69477">
        <ele>55</ele>
        <time>2012-10-28T11:13:47Z</time>
      </trkpt>
      <trkpt lat="47.25473" lon="-1.69459">
        <ele>54.5</ele>
        <time>2012-10-28T11:13:52Z</time>
      </trkpt>
      <trkpt lat="47.25474" lon="-1.69456">
        <ele>54.3</ele>
        <time>2012-10-28T11:13:53Z</time>
      </trkpt>
      <trkpt lat="47.25476" lon="-1.69452">
        <ele>54</ele>
        <time>2012-10-28T11:13:55Z</time>
      </trkpt>
      <trkpt lat="47.25477" lon="-1.69451">
        <ele>54</ele>
        <time>2012-10-28T11:13:56Z</time>
      </trkpt>
      <trkpt lat="47.25478" lon="-1.69449">
        <ele>54</ele>
        <time>2012-10-28T11:13:57Z</time>
      </trkpt>
      <trkpt lat="47.25494" lon="-1.69433">
        <ele>54.4</ele>
        <time>2012-10-28T11:14:04Z</time>
      </trkpt>
      <trkpt lat="47.25502" lon="-1.69426">
        <ele>54</ele>
        <time>2012-10-28T11:14:07Z</time>
      </trkpt>
      <trkpt lat="47.25505" lon="-1.69424">
        <ele>54</ele>
        <time>2012-10-28T11:14:08Z</time>
      </trkpt>
      <trkpt lat="47.25526" lon="-1.69406">
        <ele>52.2</ele>
        <time>2012-10-28T11:14:14Z</time>
      </trkpt>
      <trkpt lat="47.25533" lon="-1.69398">
        <ele>52</ele>
        <time>2012-10-28T11:14:16Z</time>
      </trkpt>
      <trkpt lat="47.25544" lon="-1.69387">
        <ele>51.5</ele>
        <time>2012-10-28T11:14:19Z</time>
      </trkpt>
      <trkpt lat="47.25547" lon="-1.69381">
        <ele>51.1</ele>
        <time>2012-10-28T11:14:20Z</time>
      </trkpt>
      <trkpt lat="47.25549" lon="-1.69376">
        <ele>50.8</ele>
        <time>2012-10-28T11:14:21Z</time>
      </trkpt>
      <trkpt lat="47.25553" lon="-1.69366">
        <ele>51.8</ele>
        <time>2012-10-28T11:14:23Z</time>
      </trkpt>
      <trkpt lat="47.25556" lon="-1.69361">
        <ele>51.7</ele>
        <time>2012-10-28T11:14:24Z</time>
      </trkpt>
      <trkpt lat="47.25562" lon="-1.69352">
        <ele>51.6</ele>
        <time>2012-10-28T11:14:26Z</time>
      </trkpt>
      <trkpt lat="47.25564" lon="-1.69347">
        <ele>51.6</ele>
        <time>2012-10-28T11:14:27Z</time>
      </trkpt>
      <trkpt lat="47.25565" lon="-1.69342">
        <ele>51.7</ele>
        <time>2012-10-28T11:14:28Z</time>
      </trkpt>
      <trkpt lat="47.25565" lon="-1.69337">
        <ele>51.8</ele>
        <time>2012-10-28T11:14:29Z</time>
      </trkpt>
      <trkpt lat="47.25565" lon="-1.69332">
        <ele>51.9</ele>
        <time>2012-10-28T11:14:30Z</time>
      </trkpt>
      <trkpt lat="47.25565" lon="-1.69327">
        <ele>52</ele>
        <time>2012-10-28T11:14:31Z</time>
      </trkpt>
      <trkpt lat="47.25565" lon="-1.69319">
        <ele>52.1</ele>
        <time>2012-10-28T11:14:33Z</time>
      </trkpt>
      <trkpt lat="47.25565" lon="-1.69314">
        <ele>52</ele>
        <time>2012-10-28T11:14:34Z</time>
      </trkpt>
      <trkpt lat="47.25565" lon="-1.69309">
        <ele>52</ele>
        <time>2012-10-28T11:14:35Z</time>
      </trkpt>
      <trkpt lat="47.25569" lon="-1.69269">
        <ele>51.2</ele>
        <time>2012-10-28T11:14:43Z</time>
      </trkpt>
      <trkpt lat="47.2557" lon="-1.69262">
        <ele>51</ele>
        <time>2012-10-28T11:14:45Z</time>
      </trkpt>
      <trkpt lat="47.2557" lon="-1.69261">
        <ele>50.8</ele>
        <time>2012-10-28T11:14:46Z</time>
      </trkpt>
      <trkpt lat="47.2557" lon="-1.6926">
        <ele>50.7</ele>
        <time>2012-10-28T11:14:47Z</time>
      </trkpt>
      <trkpt lat="47.2557" lon="-1.6926">
        <ele>50.6</ele>
        <time>2012-10-28T11:14:48Z</time>
      </trkpt>
      <trkpt lat="47.25571" lon="-1.69258">
        <ele>50.9</ele>
        <time>2012-10-28T11:14:50Z</time>
      </trkpt>
      <trkpt lat="47.25571" lon="-1.69256">
        <ele>51.2</ele>
        <time>2012-10-28T11:14:52Z</time>
      </trkpt>
      <trkpt lat="47.25571" lon="-1.69255">
        <ele>51.1</ele>
        <time>2012-10-28T11:14:53Z</time>
      </trkpt>
      <trkpt lat="47.25571" lon="-1.69255">
        <ele>51</ele>
        <time>2012-10-28T11:14:54Z</time>
      </trkpt>
      <trkpt lat="47.25571" lon="-1.69253">
        <ele>51.1</ele>
        <time>2012-10-28T11:14:55Z</time>
      </trkpt>
      <trkpt lat="47.25572" lon="-1.69252">
        <ele>51.1</ele>
        <time>2012-10-28T11:14:56Z</time>
      </trkpt>
      <trkpt lat="47.25572" lon="-1.69252">
        <ele>51.2</ele>
        <time>2012-10-28T11:14:57Z</time>
      </trkpt>
      <trkpt lat="47.25572" lon="-1.69252">
        <ele>51.3</ele>
        <time>2012-10-28T11:14:58Z</time>
      </trkpt>
      <trkpt lat="47.25572" lon="-1.6925">
        <ele>51.4</ele>
        <time>2012-10-28T11:15:00Z</time>
      </trkpt>
      <trkpt lat="47.25572" lon="-1.69248">
        <ele>51.4</ele>
        <time>2012-10-28T11:15:01Z</time>
      </trkpt>
      <trkpt lat="47.25573" lon="-1.69239">
        <ele>51</ele>
        <time>2012-10-28T11:15:04Z</time>
      </trkpt>
      <trkpt lat="47.25574" lon="-1.69227">
        <ele>51.1</ele>
        <time>2012-10-28T11:15:08Z</time>
      </trkpt>
      <trkpt lat="47.25573" lon="-1.69223">
        <ele>51</ele>
        <time>2012-10-28T11:15:09Z</time>
      </trkpt>
      <trkpt lat="47.25573" lon="-1.69213">
        <ele>50.8</ele>
        <time>2012-10-28T11:15:11Z</time>
      </trkpt>
      <trkpt lat="47.25572" lon="-1.69209">
        <ele>50.8</ele>
        <time>2012-10-28T11:15:12Z</time>
      </trkpt>
      <trkpt lat="47.25562" lon="-1.69171">
        <ele>50.5</ele>
        <time>2012-10-28T11:15:20Z</time>
      </trkpt>
      <trkpt lat="47.25561" lon="-1.69167">
        <ele>51</ele>
        <time>2012-10-28T11:15:21Z</time>
      </trkpt>
      <trkpt lat="47.25557" lon="-1.69157">
        <ele>51.6</ele>
        <time>2012-10-28T11:15:23Z</time>
      </trkpt>
      <trkpt lat="47.25556" lon="-1.69151">
        <ele>51.3</ele>
        <time>2012-10-28T11:15:24Z</time>
      </trkpt>
      <trkpt lat="47.25555" lon="-1.69145">
        <ele>51.1</ele>
        <time>2012-10-28T11:15:25Z</time>
      </trkpt>
      <trkpt lat="47.25555" lon="-1.69138">
        <ele>51</ele>
        <time>2012-10-28T11:15:26Z</time>
      </trkpt>
      <trkpt lat="47.25555" lon="-1.69074">
        <ele>49.3</ele>
        <time>2012-10-28T11:15:35Z</time>
      </trkpt>
      <trkpt lat="47.25556" lon="-1.69068">
        <ele>49.2</ele>
        <time>2012-10-28T11:15:36Z</time>
      </trkpt>
      <trkpt lat="47.25557" lon="-1.69063">
        <ele>49</ele>
        <time>2012-10-28T11:15:37Z</time>
      </trkpt>
      <trkpt lat="47.25565" lon="-1.69035">
        <ele>49.4</ele>
        <time>2012-10-28T11:15:42Z</time>
      </trkpt>
      <trkpt lat="47.25567" lon="-1.6903">
        <ele>49.2</ele>
        <time>2012-10-28T11:15:43Z</time>
      </trkpt>
      <trkpt lat="47.25572" lon="-1.6902">
        <ele>49.2</ele>
        <time>2012-10-28T11:15:45Z</time>
      </trkpt>
      <trkpt lat="47.25575" lon="-1.69015">
        <ele>49.3</ele>
        <time>2012-10-28T11:15:46Z</time>
      </trkpt>
      <trkpt lat="47.25584" lon="-1.69003">
        <ele>49.9</ele>
        <time>2012-10-28T11:15:49Z</time>
      </trkpt>
      <trkpt lat="47.25597" lon="-1.68986">
        <ele>50.2</ele>
        <time>2012-10-28T11:15:53Z</time>
      </trkpt>
      <trkpt lat="47.256" lon="-1.68982">
        <ele>50</ele>
        <time>2012-10-28T11:15:54Z</time>
      </trkpt>
      <trkpt lat="47.25678" lon="-1.68901">
        <ele>48</ele>
        <time>2012-10-28T11:16:13Z</time>
      </trkpt>
      <trkpt lat="47.25684" lon="-1.68893">
        <ele>49</ele>
        <time>2012-10-28T11:16:15Z</time>
      </trkpt>
      <trkpt lat="47.25686" lon="-1.68887">
        <ele>48.4</ele>
        <time>2012-10-28T11:16:16Z</time>
      </trkpt>
      <trkpt lat="47.25687" lon="-1.68881">
        <ele>47.9</ele>
        <time>2012-10-28T11:16:17Z</time>
      </trkpt>
      <trkpt lat="47.25687" lon="-1.68875">
        <ele>48.2</ele>
        <time>2012-10-28T11:16:18Z</time>
      </trkpt>
      <trkpt lat="47.2569" lon="-1.68872">
        <ele>48.3</ele>
        <time>2012-10-28T11:16:19Z</time>
      </trkpt>
      <trkpt lat="47.25694" lon="-1.68868">
        <ele>48.4</ele>
        <time>2012-10-28T11:16:20Z</time>
      </trkpt>
      <trkpt lat="47.25697" lon="-1.68863">
        <ele>48.2</ele>
        <time>2012-10-28T11:16:21Z</time>
      </trkpt>
      <trkpt lat="47.25699" lon="-1.68857">
        <ele>48</ele>
        <time>2012-10-28T11:16:22Z</time>
      </trkpt>
      <trkpt lat="47.257" lon="-1.68852">
        <ele>47.8</ele>
        <time>2012-10-28T11:16:23Z</time>
      </trkpt>
      <trkpt lat="47.257" lon="-1.68847">
        <ele>47.8</ele>
        <time>2012-10-28T11:16:24Z</time>
      </trkpt>
      <trkpt lat="47.25701" lon="-1.68842">
        <ele>48.1</ele>
        <time>2012-10-28T11:16:25Z</time>
      </trkpt>
      <trkpt lat="47.257" lon="-1.68838">
        <ele>48.4</ele>
        <time>2012-10-28T11:16:26Z</time>
      </trkpt>
      <trkpt lat="47.25698" lon="-1.68836">
        <ele>48.6</ele>
        <time>2012-10-28T11:16:27Z</time>
      </trkpt>
      <trkpt lat="47.25696" lon="-1.68833">
        <ele>48.7</ele>
        <time>2012-10-28T11:16:28Z</time>
      </trkpt>
      <trkpt lat="47.25694" lon="-1.6883">
        <ele>48.8</ele>
        <time>2012-10-28T11:16:29Z</time>
      </trkpt>
      <trkpt lat="47.25694" lon="-1.68826">
        <ele>49.1</ele>
        <time>2012-10-28T11:16:30Z</time>
      </trkpt>
      <trkpt lat="47.25685" lon="-1.68786">
        <ele>50.4</ele>
        <time>2012-10-28T11:16:40Z</time>
      </trkpt>
      <trkpt lat="47.25683" lon="-1.68783">
        <ele>50.5</ele>
        <time>2012-10-28T11:16:41Z</time>
      </trkpt>
      <trkpt lat="47.25678" lon="-1.68767">
        <ele>50.8</ele>
        <time>2012-10-28T11:16:45Z</time>
      </trkpt>
      <trkpt lat="47.25663" lon="-1.68706">
        <ele>51.5</ele>
        <time>2012-10-28T11:16:56Z</time>
      </trkpt>
      <trkpt lat="47.25662" lon="-1.687">
        <ele>51.3</ele>
        <time>2012-10-28T11:16:57Z</time>
      </trkpt>
      <trkpt lat="47.25659" lon="-1.6868">
        <ele>50.8</ele>
        <time>2012-10-28T11:17:00Z</time>
      </trkpt>
      <trkpt lat="47.25658" lon="-1.68674">
        <ele>51.2</ele>
        <time>2012-10-28T11:17:01Z</time>
      </trkpt>
      <trkpt lat="47.25658" lon="-1.68667">
        <ele>51.4</ele>
        <time>2012-10-28T11:17:02Z</time>
      </trkpt>
      <trkpt lat="47.25659" lon="-1.6866">
        <ele>50.9</ele>
        <time>2012-10-28T11:17:03Z</time>
      </trkpt>
      <trkpt lat="47.25659" lon="-1.68653">
        <ele>50.5</ele>
        <time>2012-10-28T11:17:04Z</time>
      </trkpt>
      <trkpt lat="47.25675" lon="-1.68508">
        <ele>49</ele>
        <time>2012-10-28T11:17:27Z</time>
      </trkpt>
      <trkpt lat="47.25675" lon="-1.68501">
        <ele>49</ele>
        <time>2012-10-28T11:17:28Z</time>
      </trkpt>
      <trkpt lat="47.25678" lon="-1.68466">
        <ele>47.8</ele>
        <time>2012-10-28T11:17:34Z</time>
      </trkpt>
      <trkpt lat="47.25677" lon="-1.68461">
        <ele>47.8</ele>
        <time>2012-10-28T11:17:35Z</time>
      </trkpt>
      <trkpt lat="47.25678" lon="-1.68456">
        <ele>47.6</ele>
        <time>2012-10-28T11:17:36Z</time>
      </trkpt>
      <trkpt lat="47.25678" lon="-1.68438">
        <ele>46.6</ele>
        <time>2012-10-28T11:17:41Z</time>
      </trkpt>
      <trkpt lat="47.25678" lon="-1.68435">
        <ele>46.5</ele>
        <time>2012-10-28T11:17:42Z</time>
      </trkpt>
      <trkpt lat="47.25681" lon="-1.68424">
        <ele>46.6</ele>
        <time>2012-10-28T11:17:46Z</time>
      </trkpt>
      <trkpt lat="47.25682" lon="-1.68419">
        <ele>47.1</ele>
        <time>2012-10-28T11:17:48Z</time>
      </trkpt>
      <trkpt lat="47.25682" lon="-1.68416">
        <ele>47.3</ele>
        <time>2012-10-28T11:17:49Z</time>
      </trkpt>
      <trkpt lat="47.25684" lon="-1.68392">
        <ele>47.5</ele>
        <time>2012-10-28T11:17:55Z</time>
      </trkpt>
      <trkpt lat="47.25684" lon="-1.68385">
        <ele>47.4</ele>
        <time>2012-10-28T11:17:57Z</time>
      </trkpt>
      <trkpt lat="47.25683" lon="-1.68382">
        <ele>47.1</ele>
        <time>2012-10-28T11:17:58Z</time>
      </trkpt>
      <trkpt lat="47.25682" lon="-1.68376">
        <ele>46.9</ele>
        <time>2012-10-28T11:18:00Z</time>
      </trkpt>
      <trkpt lat="47.25681" lon="-1.68373">
        <ele>47</ele>
        <time>2012-10-28T11:18:01Z</time>
      </trkpt>
      <trkpt lat="47.2568" lon="-1.68371">
        <ele>47.1</ele>
        <time>2012-10-28T11:18:02Z</time>
      </trkpt>
      <trkpt lat="47.25675" lon="-1.68362">
        <ele>48.4</ele>
        <time>2012-10-28T11:18:06Z</time>
      </trkpt>
      <trkpt lat="47.25675" lon="-1.68358">
        <ele>48.9</ele>
        <time>2012-10-28T11:18:07Z</time>
      </trkpt>
      <trkpt lat="47.25674" lon="-1.68354">
        <ele>49.3</ele>
        <time>2012-10-28T11:18:08Z</time>
      </trkpt>
      <trkpt lat="47.25675" lon="-1.68352">
        <ele>49.6</ele>
        <time>2012-10-28T11:18:09Z</time>
      </trkpt>
      <trkpt lat="47.25675" lon="-1.68349">
        <ele>49.9</ele>
        <time>2012-10-28T11:18:10Z</time>
      </trkpt>
      <trkpt lat="47.25675" lon="-1.68345">
        <ele>50.1</ele>
        <time>2012-10-28T11:18:11Z</time>
      </trkpt>
      <trkpt lat="47.25675" lon="-1.6833">
        <ele>50.9</ele>
        <time>2012-10-28T11:18:16Z</time>
      </trkpt>
      <trkpt lat="47.25675" lon="-1.68327">
        <ele>50.9</ele>
        <time>2012-10-28T11:18:17Z</time>
      </trkpt>
      <trkpt lat="47.25674" lon="-1.68324">
        <ele>50.9</ele>
        <time>2012-10-28T11:18:18Z</time>
      </trkpt>
      <trkpt lat="47.25673" lon="-1.68321">
        <ele>50.6</ele>
        <time>2012-10-28T11:18:19Z</time>
      </trkpt>
      <trkpt lat="47.25671" lon="-1.68315">
        <ele>50.2</ele>
        <time>2012-10-28T11:18:21Z</time>
      </trkpt>
      <trkpt lat="47.2567" lon="-1.68312">
        <ele>50.4</ele>
        <time>2012-10-28T11:18:22Z</time>
      </trkpt>
      <trkpt lat="47.2566" lon="-1.68294">
        <ele>50.7</ele>
        <time>2012-10-28T11:18:29Z</time>
      </trkpt>
      <trkpt lat="47.25659" lon="-1.68292">
        <ele>50.8</ele>
        <time>2012-10-28T11:18:30Z</time>
      </trkpt>
      <trkpt lat="47.25655" lon="-1.68283">
        <ele>50.9</ele>
        <time>2012-10-28T11:18:33Z</time>
      </trkpt>
      <trkpt lat="47.25654" lon="-1.68273">
        <ele>51.2</ele>
        <time>2012-10-28T11:18:36Z</time>
      </trkpt>
      <trkpt lat="47.25653" lon="-1.68269">
        <ele>51.2</ele>
        <time>2012-10-28T11:18:37Z</time>
      </trkpt>
      <trkpt lat="47.25652" lon="-1.68265">
        <ele>50.9</ele>
        <time>2012-10-28T11:18:38Z</time>
      </trkpt>
      <trkpt lat="47.2565" lon="-1.68261">
        <ele>50.6</ele>
        <time>2012-10-28T11:18:39Z</time>
      </trkpt>
      <trkpt lat="47.25646" lon="-1.68253">
        <ele>50.8</ele>
        <time>2012-10-28T11:18:41Z</time>
      </trkpt>
      <trkpt lat="47.25644" lon="-1.68249">
        <ele>51</ele>
        <time>2012-10-28T11:18:42Z</time>
      </trkpt>
      <trkpt lat="47.25642" lon="-1.68244">
        <ele>51.3</ele>
        <time>2012-10-28T11:18:43Z</time>
      </trkpt>
      <trkpt lat="47.25638" lon="-1.6823">
        <ele>50.7</ele>
        <time>2012-10-28T11:18:46Z</time>
      </trkpt>
      <trkpt lat="47.25636" lon="-1.68226">
        <ele>50.4</ele>
        <time>2012-10-28T11:18:47Z</time>
      </trkpt>
      <trkpt lat="47.25628" lon="-1.68208">
        <ele>50.5</ele>
        <time>2012-10-28T11:18:51Z</time>
      </trkpt>
      <trkpt lat="47.25627" lon="-1.68202">
        <ele>50.7</ele>
        <time>2012-10-28T11:18:52Z</time>
      </trkpt>
      <trkpt lat="47.25623" lon="-1.68186">
        <ele>50.8</ele>
        <time>2012-10-28T11:18:55Z</time>
      </trkpt>
      <trkpt lat="47.25623" lon="-1.68181">
        <ele>50.6</ele>
        <time>2012-10-28T11:18:56Z</time>
      </trkpt>
      <trkpt lat="47.25622" lon="-1.68176">
        <ele>50.4</ele>
        <time>2012-10-28T11:18:57Z</time>
      </trkpt>
      <trkpt lat="47.25621" lon="-1.68172">
        <ele>50.3</ele>
        <time>2012-10-28T11:18:58Z</time>
      </trkpt>
      <trkpt lat="47.25618" lon="-1.68161">
        <ele>50.3</ele>
        <time>2012-10-28T11:19:00Z</time>
      </trkpt>
      <trkpt lat="47.25615" lon="-1.68146">
        <ele>49.7</ele>
        <time>2012-10-28T11:19:03Z</time>
      </trkpt>
      <trkpt lat="47.25615" lon="-1.68141">
        <ele>50</ele>
        <time>2012-10-28T11:19:04Z</time>
      </trkpt>
      <trkpt lat="47.25615" lon="-1.68136">
        <ele>50.2</ele>
        <time>2012-10-28T11:19:05Z</time>
      </trkpt>
      <trkpt lat="47.25606" lon="-1.68022">
        <ele>50</ele>
        <time>2012-10-28T11:19:26Z</time>
      </trkpt>
      <trkpt lat="47.25605" lon="-1.68017">
        <ele>49.8</ele>
        <time>2012-10-28T11:19:27Z</time>
      </trkpt>
      <trkpt lat="47.25602" lon="-1.67997">
        <ele>49.1</ele>
        <time>2012-10-28T11:19:31Z</time>
      </trkpt>
      <trkpt lat="47.25602" lon="-1.67993">
        <ele>48.9</ele>
        <time>2012-10-28T11:19:32Z</time>
      </trkpt>
      <trkpt lat="47.256" lon="-1.67965">
        <ele>49</ele>
        <time>2012-10-28T11:19:37Z</time>
      </trkpt>
      <trkpt lat="47.25598" lon="-1.67909">
        <ele>47.9</ele>
        <time>2012-10-28T11:19:46Z</time>
      </trkpt>
      <trkpt lat="47.25598" lon="-1.67893">
        <ele>47.8</ele>
        <time>2012-10-28T11:19:49Z</time>
      </trkpt>
      <trkpt lat="47.25597" lon="-1.67887">
        <ele>47.4</ele>
        <time>2012-10-28T11:19:50Z</time>
      </trkpt>
      <trkpt lat="47.25595" lon="-1.67882">
        <ele>47.1</ele>
        <time>2012-10-28T11:19:51Z</time>
      </trkpt>
      <trkpt lat="47.25592" lon="-1.67878">
        <ele>47.3</ele>
        <time>2012-10-28T11:19:52Z</time>
      </trkpt>
      <trkpt lat="47.25589" lon="-1.67875">
        <ele>47.5</ele>
        <time>2012-10-28T11:19:53Z</time>
      </trkpt>
      <trkpt lat="47.25585" lon="-1.67871">
        <ele>47.5</ele>
        <time>2012-10-28T11:19:54Z</time>
      </trkpt>
      <trkpt lat="47.25578" lon="-1.67863">
        <ele>47</ele>
        <time>2012-10-28T11:19:56Z</time>
      </trkpt>
      <trkpt lat="47.25575" lon="-1.67858">
        <ele>46.6</ele>
        <time>2012-10-28T11:19:57Z</time>
      </trkpt>
      <trkpt lat="47.25574" lon="-1.67851">
        <ele>46.3</ele>
        <time>2012-10-28T11:19:58Z</time>
      </trkpt>
      <trkpt lat="47.25567" lon="-1.6781">
        <ele>44.8</ele>
        <time>2012-10-28T11:20:04Z</time>
      </trkpt>
      <trkpt lat="47.25564" lon="-1.67804">
        <ele>44.9</ele>
        <time>2012-10-28T11:20:05Z</time>
      </trkpt>
      <trkpt lat="47.2556" lon="-1.678">
        <ele>44.5</ele>
        <time>2012-10-28T11:20:06Z</time>
      </trkpt>
      <trkpt lat="47.25556" lon="-1.67797">
        <ele>44.2</ele>
        <time>2012-10-28T11:20:07Z</time>
      </trkpt>
      <trkpt lat="47.25554" lon="-1.67792">
        <ele>44.2</ele>
        <time>2012-10-28T11:20:08Z</time>
      </trkpt>
      <trkpt lat="47.25553" lon="-1.67786">
        <ele>44.3</ele>
        <time>2012-10-28T11:20:09Z</time>
      </trkpt>
      <trkpt lat="47.25554" lon="-1.6778">
        <ele>44.3</ele>
        <time>2012-10-28T11:20:10Z</time>
      </trkpt>
      <trkpt lat="47.25555" lon="-1.67775">
        <ele>43.6</ele>
        <time>2012-10-28T11:20:11Z</time>
      </trkpt>
      <trkpt lat="47.25555" lon="-1.67769">
        <ele>43.1</ele>
        <time>2012-10-28T11:20:12Z</time>
      </trkpt>
      <trkpt lat="47.25554" lon="-1.67689">
        <ele>42.5</ele>
        <time>2012-10-28T11:20:24Z</time>
      </trkpt>
      <trkpt lat="47.25553" lon="-1.67682">
        <ele>42.6</ele>
        <time>2012-10-28T11:20:25Z</time>
      </trkpt>
      <trkpt lat="47.25552" lon="-1.67676">
        <ele>42.6</ele>
        <time>2012-10-28T11:20:26Z</time>
      </trkpt>
      <trkpt lat="47.25549" lon="-1.6767">
        <ele>42.9</ele>
        <time>2012-10-28T11:20:27Z</time>
      </trkpt>
      <trkpt lat="47.25543" lon="-1.6765">
        <ele>43</ele>
        <time>2012-10-28T11:20:30Z</time>
      </trkpt>
      <trkpt lat="47.25542" lon="-1.67643">
        <ele>42.8</ele>
        <time>2012-10-28T11:20:31Z</time>
      </trkpt>
      <trkpt lat="47.25515" lon="-1.67493">
        <ele>45.6</ele>
        <time>2012-10-28T11:20:57Z</time>
      </trkpt>
      <trkpt lat="47.25514" lon="-1.67486">
        <ele>45.6</ele>
        <time>2012-10-28T11:20:58Z</time>
      </trkpt>
      <trkpt lat="47.25507" lon="-1.67429">
        <ele>45.8</ele>
        <time>2012-10-28T11:21:08Z</time>
      </trkpt>
      <trkpt lat="47.25504" lon="-1.67408">
        <ele>46.3</ele>
        <time>2012-10-28T11:21:13Z</time>
      </trkpt>
      <trkpt lat="47.25503" lon="-1.67405">
        <ele>46.4</ele>
        <time>2012-10-28T11:21:14Z</time>
      </trkpt>
      <trkpt lat="47.25501" lon="-1.67402">
        <ele>46.4</ele>
        <time>2012-10-28T11:21:15Z</time>
      </trkpt>
      <trkpt lat="47.255" lon="-1.67398">
        <ele>46.5</ele>
        <time>2012-10-28T11:21:16Z</time>
      </trkpt>
      <trkpt lat="47.25498" lon="-1.67395">
        <ele>47.1</ele>
        <time>2012-10-28T11:21:17Z</time>
      </trkpt>
      <trkpt lat="47.25495" lon="-1.67393">
        <ele>47.6</ele>
        <time>2012-10-28T11:21:18Z</time>
      </trkpt>
      <trkpt lat="47.25471" lon="-1.67368">
        <ele>47.6</ele>
        <time>2012-10-28T11:21:27Z</time>
      </trkpt>
      <trkpt lat="47.2547" lon="-1.67366">
        <ele>47.7</ele>
        <time>2012-10-28T11:21:28Z</time>
      </trkpt>
      <trkpt lat="47.25469" lon="-1.67365">
        <ele>47.9</ele>
        <time>2012-10-28T11:21:29Z</time>
      </trkpt>
      <trkpt lat="47.25469" lon="-1.67364">
        <ele>48</ele>
        <time>2012-10-28T11:21:30Z</time>
      </trkpt>
      <trkpt lat="47.25469" lon="-1.67363">
        <ele>47.8</ele>
        <time>2012-10-28T11:21:31Z</time>
      </trkpt>
      <trkpt lat="47.25469" lon="-1.67362">
        <ele>47.5</ele>
        <time>2012-10-28T11:21:32Z</time>
      </trkpt>
      <trkpt lat="47.25469" lon="-1.67361">
        <ele>47.4</ele>
        <time>2012-10-28T11:21:33Z</time>
      </trkpt>
      <trkpt lat="47.25469" lon="-1.67361">
        <ele>47.2</ele>
        <time>2012-10-28T11:21:34Z</time>
      </trkpt>
      <trkpt lat="47.25469" lon="-1.6736">
        <ele>47.1</ele>
        <time>2012-10-28T11:21:35Z</time>
      </trkpt>
      <trkpt lat="47.25468" lon="-1.6736">
        <ele>46.8</ele>
        <time>2012-10-28T11:21:36Z</time>
      </trkpt>
      <trkpt lat="47.25468" lon="-1.67359">
        <ele>46.7</ele>
        <time>2012-10-28T11:21:37Z</time>
      </trkpt>
      <trkpt lat="47.25468" lon="-1.67358">
        <ele>46.9</ele>
        <time>2012-10-28T11:21:38Z</time>
      </trkpt>
      <trkpt lat="47.25468" lon="-1.67358">
        <ele>47.1</ele>
        <time>2012-10-28T11:21:39Z</time>
      </trkpt>
      <trkpt lat="47.25468" lon="-1.67357">
        <ele>47.2</ele>
        <time>2012-10-28T11:21:40Z</time>
      </trkpt>
      <trkpt lat="47.25468" lon="-1.67357">
        <ele>47</ele>
        <time>2012-10-28T11:21:41Z</time>
      </trkpt>
      <trkpt lat="47.25468" lon="-1.67356">
        <ele>46.8</ele>
        <time>2012-10-28T11:21:42Z</time>
      </trkpt>
      <trkpt lat="47.25468" lon="-1.67356">
        <ele>46.8</ele>
        <time>2012-10-28T11:21:43Z</time>
      </trkpt>
      <trkpt lat="47.25468" lon="-1.67355">
        <ele>46.9</ele>
        <time>2012-10-28T11:21:44Z</time>
      </trkpt>
      <trkpt lat="47.25468" lon="-1.67354">
        <ele>46.9</ele>
        <time>2012-10-28T11:21:45Z</time>
      </trkpt>
      <trkpt lat="47.25467" lon="-1.67354">
        <ele>46.7</ele>
        <time>2012-10-28T11:21:46Z</time>
      </trkpt>
      <trkpt lat="47.25467" lon="-1.67353">
        <ele>46.5</ele>
        <time>2012-10-28T11:21:47Z</time>
      </trkpt>
      <trkpt lat="47.25467" lon="-1.67352">
        <ele>46.7</ele>
        <time>2012-10-28T11:21:48Z</time>
      </trkpt>
      <trkpt lat="47.25467" lon="-1.67352">
        <ele>46.8</ele>
        <time>2012-10-28T11:21:49Z</time>
      </trkpt>
      <trkpt lat="47.25467" lon="-1.67351">
        <ele>46.9</ele>
        <time>2012-10-28T11:21:50Z</time>
      </trkpt>
      <trkpt lat="47.25467" lon="-1.6735">
        <ele>47</ele>
        <time>2012-10-28T11:21:51Z</time>
      </trkpt>
      <trkpt lat="47.25467" lon="-1.67349">
        <ele>47.1</ele>
        <time>2012-10-28T11:21:52Z</time>
      </trkpt>
      <trkpt lat="47.25467" lon="-1.67349">
        <ele>47.3</ele>
        <time>2012-10-28T11:21:53Z</time>
      </trkpt>
      <trkpt lat="47.25467" lon="-1.67348">
        <ele>47.4</ele>
        <time>2012-10-28T11:21:54Z</time>
      </trkpt>
      <trkpt lat="47.25466" lon="-1.67347">
        <ele>47.1</ele>
        <time>2012-10-28T11:21:55Z</time>
      </trkpt>
      <trkpt lat="47.25466" lon="-1.67346">
        <ele>46.8</ele>
        <time>2012-10-28T11:21:56Z</time>
      </trkpt>
      <trkpt lat="47.25466" lon="-1.67346">
        <ele>46.6</ele>
        <time>2012-10-28T11:21:57Z</time>
      </trkpt>
      <trkpt lat="47.25466" lon="-1.67345">
        <ele>46.8</ele>
        <time>2012-10-28T11:21:58Z</time>
      </trkpt>
      <trkpt lat="47.25466" lon="-1.67344">
        <ele>47</ele>
        <time>2012-10-28T11:21:59Z</time>
      </trkpt>
      <trkpt lat="47.25466" lon="-1.67343">
        <ele>46.9</ele>
        <time>2012-10-28T11:22:00Z</time>
      </trkpt>
      <trkpt lat="47.25466" lon="-1.67342">
        <ele>46.9</ele>
        <time>2012-10-28T11:22:01Z</time>
      </trkpt>
      <trkpt lat="47.25466" lon="-1.67341">
        <ele>46.7</ele>
        <time>2012-10-28T11:22:02Z</time>
      </trkpt>
      <trkpt lat="47.25466" lon="-1.6734">
        <ele>46.6</ele>
        <time>2012-10-28T11:22:03Z</time>
      </trkpt>
      <trkpt lat="47.25466" lon="-1.67339">
        <ele>46.4</ele>
        <time>2012-10-28T11:22:04Z</time>
      </trkpt>
      <trkpt lat="47.25465" lon="-1.67339">
        <ele>46.8</ele>
        <time>2012-10-28T11:22:05Z</time>
      </trkpt>
      <trkpt lat="47.25465" lon="-1.67338">
        <ele>47.1</ele>
        <time>2012-10-28T11:22:06Z</time>
      </trkpt>
      <trkpt lat="47.25465" lon="-1.67337">
        <ele>47.2</ele>
        <time>2012-10-28T11:22:07Z</time>
      </trkpt>
      <trkpt lat="47.25465" lon="-1.67336">
        <ele>47.3</ele>
        <time>2012-10-28T11:22:08Z</time>
      </trkpt>
      <trkpt lat="47.25465" lon="-1.67335">
        <ele>47</ele>
        <time>2012-10-28T11:22:09Z</time>
      </trkpt>
      <trkpt lat="47.25465" lon="-1.67335">
        <ele>46.8</ele>
        <time>2012-10-28T11:22:10Z</time>
      </trkpt>
      <trkpt lat="47.25465" lon="-1.67334">
        <ele>46.6</ele>
        <time>2012-10-28T11:22:11Z</time>
      </trkpt>
      <trkpt lat="47.25465" lon="-1.67333">
        <ele>46.9</ele>
        <time>2012-10-28T11:22:12Z</time>
      </trkpt>
      <trkpt lat="47.25465" lon="-1.67333">
        <ele>47</ele>
        <time>2012-10-28T11:22:13Z</time>
      </trkpt>
      <trkpt lat="47.25465" lon="-1.67332">
        <ele>46.9</ele>
        <time>2012-10-28T11:22:14Z</time>
      </trkpt>
      <trkpt lat="47.25465" lon="-1.67332">
        <ele>46.8</ele>
        <time>2012-10-28T11:22:15Z</time>
      </trkpt>
      <trkpt lat="47.25464" lon="-1.67331">
        <ele>46.8</ele>
        <time>2012-10-28T11:22:16Z</time>
      </trkpt>
      <trkpt lat="47.25464" lon="-1.67331">
        <ele>46.8</ele>
        <time>2012-10-28T11:22:17Z</time>
      </trkpt>
      <trkpt lat="47.25464" lon="-1.6733">
        <ele>46.8</ele>
        <time>2012-10-28T11:22:18Z</time>
      </trkpt>
      <trkpt lat="47.25464" lon="-1.6733">
        <ele>46.5</ele>
        <time>2012-10-28T11:22:19Z</time>
      </trkpt>
      <trkpt lat="47.25464" lon="-1.67329">
        <ele>46.2</ele>
        <time>2012-10-28T11:22:20Z</time>
      </trkpt>
      <trkpt lat="47.25464" lon="-1.67329">
        <ele>46.4</ele>
        <time>2012-10-28T11:22:21Z</time>
      </trkpt>
      <trkpt lat="47.25464" lon="-1.67328">
        <ele>46.6</ele>
        <time>2012-10-28T11:22:22Z</time>
      </trkpt>
      <trkpt lat="47.25464" lon="-1.67328">
        <ele>46.7</ele>
        <time>2012-10-28T11:22:23Z</time>
      </trkpt>
      <trkpt lat="47.25464" lon="-1.67327">
        <ele>46.6</ele>
        <time>2012-10-28T11:22:24Z</time>
      </trkpt>
      <trkpt lat="47.25464" lon="-1.67327">
        <ele>46.6</ele>
        <time>2012-10-28T11:22:25Z</time>
      </trkpt>
      <trkpt lat="47.25464" lon="-1.67327">
        <ele>46.8</ele>
        <time>2012-10-28T11:22:26Z</time>
      </trkpt>
      <trkpt lat="47.25464" lon="-1.67326">
        <ele>47</ele>
        <time>2012-10-28T11:22:27Z</time>
      </trkpt>
      <trkpt lat="47.25463" lon="-1.67326">
        <ele>47.1</ele>
        <time>2012-10-28T11:22:28Z</time>
      </trkpt>
      <trkpt lat="47.25463" lon="-1.67326">
        <ele>47.3</ele>
        <time>2012-10-28T11:22:29Z</time>
      </trkpt>
      <trkpt lat="47.25463" lon="-1.67325">
        <ele>47.4</ele>
        <time>2012-10-28T11:22:30Z</time>
      </trkpt>
      <trkpt lat="47.25463" lon="-1.67325">
        <ele>47.4</ele>
        <time>2012-10-28T11:22:31Z</time>
      </trkpt>
      <trkpt lat="47.25463" lon="-1.67325">
        <ele>47.3</ele>
        <time>2012-10-28T11:22:32Z</time>
      </trkpt>
      <trkpt lat="47.25463" lon="-1.67324">
        <ele>47.2</ele>
        <time>2012-10-28T11:22:33Z</time>
      </trkpt>
      <trkpt lat="47.25463" lon="-1.67324">
        <ele>47</ele>
        <time>2012-10-28T11:22:34Z</time>
      </trkpt>
      <trkpt lat="47.25463" lon="-1.67324">
        <ele>47</ele>
        <time>2012-10-28T11:22:35Z</time>
      </trkpt>
      <trkpt lat="47.25463" lon="-1.67324">
        <ele>46.9</ele>
        <time>2012-10-28T11:22:36Z</time>
      </trkpt>
      <trkpt lat="47.25463" lon="-1.67323">
        <ele>46.9</ele>
        <time>2012-10-28T11:22:37Z</time>
      </trkpt>
      <trkpt lat="47.25463" lon="-1.67323">
        <ele>47.1</ele>
        <time>2012-10-28T11:22:38Z</time>
      </trkpt>
      <trkpt lat="47.25463" lon="-1.67323">
        <ele>47.3</ele>
        <time>2012-10-28T11:22:39Z</time>
      </trkpt>
      <trkpt lat="47.25463" lon="-1.67323">
        <ele>47.4</ele>
        <time>2012-10-28T11:22:40Z</time>
      </trkpt>
      <trkpt lat="47.25463" lon="-1.67323">
        <ele>47.4</ele>
        <time>2012-10-28T11:22:41Z</time>
      </trkpt>
      <trkpt lat="47.25463" lon="-1.67322">
        <ele>47.5</ele>
        <time>2012-10-28T11:22:42Z</time>
      </trkpt>
      <trkpt lat="47.25463" lon="-1.67322">
        <ele>47.5</ele>
        <time>2012-10-28T11:22:43Z</time>
      </trkpt>
      <trkpt lat="47.25463" lon="-1.67322">
        <ele>47.5</ele>
        <time>2012-10-28T11:22:44Z</time>
      </trkpt>
      <trkpt lat="47.25463" lon="-1.67322">
        <ele>47.5</ele>
        <time>2012-10-28T11:22:45Z</time>
      </trkpt>
      <trkpt lat="47.25463" lon="-1.67322">
        <ele>47.5</ele>
        <time>2012-10-28T11:22:46Z</time>
      </trkpt>
      <trkpt lat="47.25463" lon="-1.67322">
        <ele>47.5</ele>
        <time>2012-10-28T11:22:47Z</time>
      </trkpt>
      <trkpt lat="47.25463" lon="-1.67322">
        <ele>47.5</ele>
        <time>2012-10-28T11:22:48Z</time>
      </trkpt>
      <trkpt lat="47.25463" lon="-1.67322">
        <ele>47.5</ele>
        <time>2012-10-28T11:22:49Z</time>
      </trkpt>
      <trkpt lat="47.25463" lon="-1.67322">
        <ele>47.3</ele>
        <time>2012-10-28T11:22:50Z</time>
      </trkpt>
      <trkpt lat="47.25463" lon="-1.67322">
        <ele>47.1</ele>
        <time>2012-10-28T11:22:51Z</time>
      </trkpt>
      <trkpt lat="47.25463" lon="-1.67322">
        <ele>47.1</ele>
        <time>2012-10-28T11:22:52Z</time>
      </trkpt>
      <trkpt lat="47.25463" lon="-1.67322">
        <ele>47.1</ele>
        <time>2012-10-28T11:22:53Z</time>
      </trkpt>
      <trkpt lat="47.25463" lon="-1.67322">
        <ele>47.1</ele>
        <time>2012-10-28T11:22:54Z</time>
      </trkpt>
      <trkpt lat="47.25463" lon="-1.67322">
        <ele>47.1</ele>
        <time>2012-10-28T11:22:55Z</time>
      </trkpt>
      <trkpt lat="47.25463" lon="-1.67322">
        <ele>47.1</ele>
        <time>2012-10-28T11:22:56Z</time>
      </trkpt>
      <trkpt lat="47.25463" lon="-1.67322">
        <ele>46.7</ele>
        <time>2012-10-28T11:22:57Z</time>
      </trkpt>
      <trkpt lat="47.25463" lon="-1.67322">
        <ele>46.3</ele>
        <time>2012-10-28T11:22:58Z</time>
      </trkpt>
      <trkpt lat="47.25463" lon="-1.67322">
        <ele>46.3</ele>
        <time>2012-10-28T11:22:59Z</time>
      </trkpt>
      <trkpt lat="47.25463" lon="-1.67322">
        <ele>46.3</ele>
        <time>2012-10-28T11:23:00Z</time>
      </trkpt>
      <trkpt lat="47.25463" lon="-1.67322">
        <ele>46.3</ele>
        <time>2012-10-28T11:23:01Z</time>
      </trkpt>
      <trkpt lat="47.25463" lon="-1.67323">
        <ele>46.3</ele>
        <time>2012-10-28T11:23:02Z</time>
      </trkpt>
      <trkpt lat="47.25463" lon="-1.67323">
        <ele>46.2</ele>
        <time>2012-10-28T11:23:03Z</time>
      </trkpt>
      <trkpt lat="47.25463" lon="-1.67323">
        <ele>46.4</ele>
        <time>2012-10-28T11:23:04Z</time>
      </trkpt>
      <trkpt lat="47.25463" lon="-1.67323">
        <ele>46.5</ele>
        <time>2012-10-28T11:23:05Z</time>
      </trkpt>
      <trkpt lat="47.25463" lon="-1.67323">
        <ele>46.3</ele>
        <time>2012-10-28T11:23:06Z</time>
      </trkpt>
      <trkpt lat="47.25463" lon="-1.67324">
        <ele>46.2</ele>
        <time>2012-10-28T11:23:07Z</time>
      </trkpt>
      <trkpt lat="47.25463" lon="-1.67324">
        <ele>46.1</ele>
        <time>2012-10-28T11:23:08Z</time>
      </trkpt>
      <trkpt lat="47.25463" lon="-1.67325">
        <ele>46.1</ele>
        <time>2012-10-28T11:23:09Z</time>
      </trkpt>
      <trkpt lat="47.25463" lon="-1.67325">
        <ele>46.2</ele>
        <time>2012-10-28T11:23:10Z</time>
      </trkpt>
      <trkpt lat="47.25463" lon="-1.67326">
        <ele>46.3</ele>
        <time>2012-10-28T11:23:11Z</time>
      </trkpt>
      <trkpt lat="47.25463" lon="-1.67326">
        <ele>46.4</ele>
        <time>2012-10-28T11:23:12Z</time>
      </trkpt>
      <trkpt lat="47.25463" lon="-1.67327">
        <ele>46.9</ele>
        <time>2012-10-28T11:23:13Z</time>
      </trkpt>
      <trkpt lat="47.25463" lon="-1.67327">
        <ele>47.2</ele>
        <time>2012-10-28T11:23:14Z</time>
      </trkpt>
      <trkpt lat="47.25463" lon="-1.67328">
        <ele>47.5</ele>
        <time>2012-10-28T11:23:15Z</time>
      </trkpt>
      <trkpt lat="47.25463" lon="-1.67329">
        <ele>47.1</ele>
        <time>2012-10-28T11:23:16Z</time>
      </trkpt>
      <trkpt lat="47.25463" lon="-1.67329">
        <ele>46.8</ele>
        <time>2012-10-28T11:23:17Z</time>
      </trkpt>
      <trkpt lat="47.25463" lon="-1.6733">
        <ele>46.6</ele>
        <time>2012-10-28T11:23:18Z</time>
      </trkpt>
      <trkpt lat="47.25463" lon="-1.6733">
        <ele>46.5</ele>
        <time>2012-10-28T11:23:19Z</time>
      </trkpt>
      <trkpt lat="47.25463" lon="-1.67331">
        <ele>46.3</ele>
        <time>2012-10-28T11:23:20Z</time>
      </trkpt>
      <trkpt lat="47.25463" lon="-1.67332">
        <ele>46.6</ele>
        <time>2012-10-28T11:23:21Z</time>
      </trkpt>
      <trkpt lat="47.25463" lon="-1.67332">
        <ele>46.8</ele>
        <time>2012-10-28T11:23:22Z</time>
      </trkpt>
      <trkpt lat="47.25463" lon="-1.67333">
        <ele>47</ele>
        <time>2012-10-28T11:23:23Z</time>
      </trkpt>
      <trkpt lat="47.25464" lon="-1.67338">
        <ele>47.1</ele>
        <time>2012-10-28T11:23:24Z</time>
      </trkpt>
      <trkpt lat="47.25464" lon="-1.67339">
        <ele>47.3</ele>
        <time>2012-10-28T11:23:25Z</time>
      </trkpt>
      <trkpt lat="47.25464" lon="-1.6734">
        <ele>47.4</ele>
        <time>2012-10-28T11:23:26Z</time>
      </trkpt>
      <trkpt lat="47.25464" lon="-1.6734">
        <ele>47.6</ele>
        <time>2012-10-28T11:23:27Z</time>
      </trkpt>
      <trkpt lat="47.25464" lon="-1.6734">
        <ele>47.8</ele>
        <time>2012-10-28T11:23:28Z</time>
      </trkpt>
      <trkpt lat="47.25464" lon="-1.6734">
        <ele>47.9</ele>
        <time>2012-10-28T11:23:29Z</time>
      </trkpt>
      <trkpt lat="47.25464" lon="-1.6734">
        <ele>47.5</ele>
        <time>2012-10-28T11:23:30Z</time>
      </trkpt>
      <trkpt lat="47.25464" lon="-1.6734">
        <ele>47.2</ele>
        <time>2012-10-28T11:23:31Z</time>
      </trkpt>
      <trkpt lat="47.25464" lon="-1.6734">
        <ele>47.1</ele>
        <time>2012-10-28T11:23:32Z</time>
      </trkpt>
      <trkpt lat="47.25464" lon="-1.67341">
        <ele>47.1</ele>
        <time>2012-10-28T11:23:33Z</time>
      </trkpt>
      <trkpt lat="47.25464" lon="-1.67341">
        <ele>47.1</ele>
        <time>2012-10-28T11:23:34Z</time>
      </trkpt>
      <trkpt lat="47.25464" lon="-1.6734">
        <ele>47.2</ele>
        <time>2012-10-28T11:23:35Z</time>
      </trkpt>
      <trkpt lat="47.25464" lon="-1.6734">
        <ele>47.3</ele>
        <time>2012-10-28T11:23:36Z</time>
      </trkpt>
      <trkpt lat="47.25464" lon="-1.67339">
        <ele>47.1</ele>
        <time>2012-10-28T11:23:37Z</time>
      </trkpt>
      <trkpt lat="47.25464" lon="-1.67339">
        <ele>47</ele>
        <time>2012-10-28T11:23:38Z</time>
      </trkpt>
      <trkpt lat="47.25464" lon="-1.67339">
        <ele>46.9</ele>
        <time>2012-10-28T11:23:39Z</time>
      </trkpt>
      <trkpt lat="47.25464" lon="-1.67339">
        <ele>46.9</ele>
        <time>2012-10-28T11:23:40Z</time>
      </trkpt>
      <trkpt lat="47.25464" lon="-1.6734">
        <ele>46.8</ele>
        <time>2012-10-28T11:23:41Z</time>
      </trkpt>
      <trkpt lat="47.25463" lon="-1.67339">
        <ele>46.7</ele>
        <time>2012-10-28T11:23:42Z</time>
      </trkpt>
      <trkpt lat="47.25463" lon="-1.67338">
        <ele>46.6</ele>
        <time>2012-10-28T11:23:43Z</time>
      </trkpt>
      <trkpt lat="47.25463" lon="-1.67338">
        <ele>47</ele>
        <time>2012-10-28T11:23:44Z</time>
      </trkpt>
      <trkpt lat="47.25463" lon="-1.67338">
        <ele>47.3</ele>
        <time>2012-10-28T11:23:45Z</time>
      </trkpt>
      <trkpt lat="47.25463" lon="-1.67339">
        <ele>47.5</ele>
        <time>2012-10-28T11:23:46Z</time>
      </trkpt>
      <trkpt lat="47.25463" lon="-1.67339">
        <ele>47.7</ele>
        <time>2012-10-28T11:23:47Z</time>
      </trkpt>
      <trkpt lat="47.25463" lon="-1.67339">
        <ele>47.9</ele>
        <time>2012-10-28T11:23:48Z</time>
      </trkpt>
      <trkpt lat="47.25462" lon="-1.67339">
        <ele>47.8</ele>
        <time>2012-10-28T11:23:49Z</time>
      </trkpt>
      <trkpt lat="47.25454" lon="-1.67327">
        <ele>47.5</ele>
        <time>2012-10-28T11:23:56Z</time>
      </trkpt>
      <trkpt lat="47.25452" lon="-1.67325">
        <ele>47.8</ele>
        <time>2012-10-28T11:23:57Z</time>
      </trkpt>
      <trkpt lat="47.25449" lon="-1.67326">
        <ele>48.1</ele>
        <time>2012-10-28T11:23:58Z</time>
      </trkpt>
      <trkpt lat="47.25446" lon="-1.67329">
        <ele>47.8</ele>
        <time>2012-10-28T11:23:59Z</time>
      </trkpt>
      <trkpt lat="47.25435" lon="-1.67335">
        <ele>48</ele>
        <time>2012-10-28T11:24:02Z</time>
      </trkpt>
      <trkpt lat="47.25431" lon="-1.67337">
        <ele>47.7</ele>
        <time>2012-10-28T11:24:03Z</time>
      </trkpt>
      <trkpt lat="47.25425" lon="-1.67344">
        <ele>47.4</ele>
        <time>2012-10-28T11:24:05Z</time>
      </trkpt>
      <trkpt lat="47.25423" lon="-1.6735">
        <ele>47.2</ele>
        <time>2012-10-28T11:24:06Z</time>
      </trkpt>
      <trkpt lat="47.25423" lon="-1.67357">
        <ele>47</ele>
        <time>2012-10-28T11:24:07Z</time>
      </trkpt>
      <trkpt lat="47.25423" lon="-1.67365">
        <ele>46.5</ele>
        <time>2012-10-28T11:24:08Z</time>
      </trkpt>
      <trkpt lat="47.25427" lon="-1.67418">
        <ele>43.6</ele>
        <time>2012-10-28T11:24:15Z</time>
      </trkpt>
      <trkpt lat="47.25427" lon="-1.67424">
        <ele>43.1</ele>
        <time>2012-10-28T11:24:16Z</time>
      </trkpt>
      <trkpt lat="47.25425" lon="-1.67427">
        <ele>42.8</ele>
        <time>2012-10-28T11:24:17Z</time>
      </trkpt>
      <trkpt lat="47.25421" lon="-1.6743">
        <ele>42</ele>
        <time>2012-10-28T11:24:18Z</time>
      </trkpt>
      <trkpt lat="47.25417" lon="-1.67431">
        <ele>41.5</ele>
        <time>2012-10-28T11:24:19Z</time>
      </trkpt>
      <trkpt lat="47.25413" lon="-1.67431">
        <ele>41.1</ele>
        <time>2012-10-28T11:24:20Z</time>
      </trkpt>
      <trkpt lat="47.25409" lon="-1.67431">
        <ele>40.8</ele>
        <time>2012-10-28T11:24:21Z</time>
      </trkpt>
      <trkpt lat="47.25404" lon="-1.67431">
        <ele>40.3</ele>
        <time>2012-10-28T11:24:22Z</time>
      </trkpt>
      <trkpt lat="47.25401" lon="-1.67429">
        <ele>39.9</ele>
        <time>2012-10-28T11:24:23Z</time>
      </trkpt>
      <trkpt lat="47.25397" lon="-1.67426">
        <ele>39.6</ele>
        <time>2012-10-28T11:24:24Z</time>
      </trkpt>
      <trkpt lat="47.25394" lon="-1.67426">
        <ele>39.7</ele>
        <time>2012-10-28T11:24:25Z</time>
      </trkpt>
      <trkpt lat="47.25392" lon="-1.67426">
        <ele>39.7</ele>
        <time>2012-10-28T11:24:26Z</time>
      </trkpt>
      <trkpt lat="47.25389" lon="-1.67426">
        <ele>39.7</ele>
        <time>2012-10-28T11:24:27Z</time>
      </trkpt>
      <trkpt lat="47.25387" lon="-1.67427">
        <ele>39.6</ele>
        <time>2012-10-28T11:24:28Z</time>
      </trkpt>
      <trkpt lat="47.25385" lon="-1.67429">
        <ele>39.6</ele>
        <time>2012-10-28T11:24:29Z</time>
      </trkpt>
      <trkpt lat="47.2538" lon="-1.67433">
        <ele>39.4</ele>
        <time>2012-10-28T11:24:31Z</time>
      </trkpt>
      <trkpt lat="47.25376" lon="-1.67434">
        <ele>39.5</ele>
        <time>2012-10-28T11:24:32Z</time>
      </trkpt>
      <trkpt lat="47.25373" lon="-1.67435">
        <ele>39.6</ele>
        <time>2012-10-28T11:24:33Z</time>
      </trkpt>
      <trkpt lat="47.25366" lon="-1.6744">
        <ele>40</ele>
        <time>2012-10-28T11:24:36Z</time>
      </trkpt>
      <trkpt lat="47.25364" lon="-1.6744">
        <ele>39.9</ele>
        <time>2012-10-28T11:24:37Z</time>
      </trkpt>
      <trkpt lat="47.25362" lon="-1.67439">
        <ele>39.9</ele>
        <time>2012-10-28T11:24:38Z</time>
      </trkpt>
      <trkpt lat="47.25361" lon="-1.67437">
        <ele>39.8</ele>
        <time>2012-10-28T11:24:39Z</time>
      </trkpt>
      <trkpt lat="47.25362" lon="-1.67435">
        <ele>39.8</ele>
        <time>2012-10-28T11:24:40Z</time>
      </trkpt>
      <trkpt lat="47.25363" lon="-1.67432">
        <ele>40.1</ele>
        <time>2012-10-28T11:24:41Z</time>
      </trkpt>
      <trkpt lat="47.25369" lon="-1.6742">
        <ele>41</ele>
        <time>2012-10-28T11:24:45Z</time>
      </trkpt>
      <trkpt lat="47.25371" lon="-1.67416">
        <ele>41.1</ele>
        <time>2012-10-28T11:24:46Z</time>
      </trkpt>
      <trkpt lat="47.25378" lon="-1.67405">
        <ele>40.8</ele>
        <time>2012-10-28T11:24:49Z</time>
      </trkpt>
      <trkpt lat="47.2538" lon="-1.674">
        <ele>40.7</ele>
        <time>2012-10-28T11:24:50Z</time>
      </trkpt>
      <trkpt lat="47.25381" lon="-1.67395">
        <ele>40.9</ele>
        <time>2012-10-28T11:24:51Z</time>
      </trkpt>
      <trkpt lat="47.25382" lon="-1.6739">
        <ele>41</ele>
        <time>2012-10-28T11:24:52Z</time>
      </trkpt>
      <trkpt lat="47.25382" lon="-1.67385">
        <ele>41.2</ele>
        <time>2012-10-28T11:24:53Z</time>
      </trkpt>
      <trkpt lat="47.25382" lon="-1.6738">
        <ele>41.4</ele>
        <time>2012-10-28T11:24:54Z</time>
      </trkpt>
      <trkpt lat="47.25381" lon="-1.67376">
        <ele>41.5</ele>
        <time>2012-10-28T11:24:55Z</time>
      </trkpt>
      <trkpt lat="47.25379" lon="-1.67362">
        <ele>41.9</ele>
        <time>2012-10-28T11:24:58Z</time>
      </trkpt>
      <trkpt lat="47.25378" lon="-1.67354">
        <ele>42.5</ele>
        <time>2012-10-28T11:25:00Z</time>
      </trkpt>
      <trkpt lat="47.25377" lon="-1.67351">
        <ele>42.9</ele>
        <time>2012-10-28T11:25:01Z</time>
      </trkpt>
      <trkpt lat="47.25376" lon="-1.67347">
        <ele>43.2</ele>
        <time>2012-10-28T11:25:02Z</time>
      </trkpt>
      <trkpt lat="47.25376" lon="-1.67344">
        <ele>43.1</ele>
        <time>2012-10-28T11:25:03Z</time>
      </trkpt>
      <trkpt lat="47.25375" lon="-1.6734">
        <ele>43.1</ele>
        <time>2012-10-28T11:25:04Z</time>
      </trkpt>
      <trkpt lat="47.25373" lon="-1.67329">
        <ele>44.2</ele>
        <time>2012-10-28T11:25:07Z</time>
      </trkpt>
      <trkpt lat="47.2537" lon="-1.67317">
        <ele>44.9</ele>
        <time>2012-10-28T11:25:11Z</time>
      </trkpt>
      <trkpt lat="47.2537" lon="-1.67314">
        <ele>44.9</ele>
        <time>2012-10-28T11:25:12Z</time>
      </trkpt>
      <trkpt lat="47.25369" lon="-1.67304">
        <ele>45.5</ele>
        <time>2012-10-28T11:25:15Z</time>
      </trkpt>
      <trkpt lat="47.25369" lon="-1.67301">
        <ele>45.7</ele>
        <time>2012-10-28T11:25:16Z</time>
      </trkpt>
      <trkpt lat="47.25363" lon="-1.67261">
        <ele>47.1</ele>
        <time>2012-10-28T11:25:28Z</time>
      </trkpt>
      <trkpt lat="47.25362" lon="-1.67252">
        <ele>48</ele>
        <time>2012-10-28T11:25:31Z</time>
      </trkpt>
      <trkpt lat="47.25348" lon="-1.6706">
        <ele>48.7</ele>
        <time>2012-10-28T11:26:12Z</time>
      </trkpt>
      <trkpt lat="47.25347" lon="-1.67054">
        <ele>48.5</ele>
        <time>2012-10-28T11:26:13Z</time>
      </trkpt>
      <trkpt lat="47.25345" lon="-1.66988">
        <ele>49.1</ele>
        <time>2012-10-28T11:26:24Z</time>
      </trkpt>
      <trkpt lat="47.25344" lon="-1.66983">
        <ele>48.9</ele>
        <time>2012-10-28T11:26:25Z</time>
      </trkpt>
      <trkpt lat="47.25343" lon="-1.66972">
        <ele>49</ele>
        <time>2012-10-28T11:26:27Z</time>
      </trkpt>
      <trkpt lat="47.25343" lon="-1.66967">
        <ele>49.1</ele>
        <time>2012-10-28T11:26:28Z</time>
      </trkpt>
      <trkpt lat="47.25343" lon="-1.66962">
        <ele>49.2</ele>
        <time>2012-10-28T11:26:29Z</time>
      </trkpt>
      <trkpt lat="47.25343" lon="-1.66956">
        <ele>49.2</ele>
        <time>2012-10-28T11:26:30Z</time>
      </trkpt>
      <trkpt lat="47.2534" lon="-1.66902">
        <ele>48.7</ele>
        <time>2012-10-28T11:26:39Z</time>
      </trkpt>
      <trkpt lat="47.25339" lon="-1.66881">
        <ele>49.3</ele>
        <time>2012-10-28T11:26:43Z</time>
      </trkpt>
      <trkpt lat="47.25338" lon="-1.66876">
        <ele>49.3</ele>
        <time>2012-10-28T11:26:44Z</time>
      </trkpt>
      <trkpt lat="47.25337" lon="-1.66871">
        <ele>49.6</ele>
        <time>2012-10-28T11:26:45Z</time>
      </trkpt>
      <trkpt lat="47.25337" lon="-1.66863">
        <ele>49.7</ele>
        <time>2012-10-28T11:26:47Z</time>
      </trkpt>
      <trkpt lat="47.25337" lon="-1.66859">
        <ele>49.7</ele>
        <time>2012-10-28T11:26:48Z</time>
      </trkpt>
      <trkpt lat="47.25337" lon="-1.66854">
        <ele>49.5</ele>
        <time>2012-10-28T11:26:49Z</time>
      </trkpt>
      <trkpt lat="47.25338" lon="-1.66818">
        <ele>49.6</ele>
        <time>2012-10-28T11:26:55Z</time>
      </trkpt>
      <trkpt lat="47.25338" lon="-1.66801">
        <ele>49.6</ele>
        <time>2012-10-28T11:26:58Z</time>
      </trkpt>
      <trkpt lat="47.25334" lon="-1.66566">
        <ele>45.3</ele>
        <time>2012-10-28T11:27:29Z</time>
      </trkpt>
      <trkpt lat="47.25333" lon="-1.66559">
        <ele>45.1</ele>
        <time>2012-10-28T11:27:30Z</time>
      </trkpt>
      <trkpt lat="47.25328" lon="-1.66512">
        <ele>43.6</ele>
        <time>2012-10-28T11:27:36Z</time>
      </trkpt>
      <trkpt lat="47.25327" lon="-1.6648">
        <ele>40.5</ele>
        <time>2012-10-28T11:27:40Z</time>
      </trkpt>
      <trkpt lat="47.25324" lon="-1.66306">
        <ele>44.9</ele>
        <time>2012-10-28T11:28:13Z</time>
      </trkpt>
      <trkpt lat="47.25322" lon="-1.66218">
        <ele>44.5</ele>
        <time>2012-10-28T11:28:28Z</time>
      </trkpt>
      <trkpt lat="47.25322" lon="-1.66208">
        <ele>44.7</ele>
        <time>2012-10-28T11:28:30Z</time>
      </trkpt>
      <trkpt lat="47.25322" lon="-1.66203">
        <ele>44.8</ele>
        <time>2012-10-28T11:28:31Z</time>
      </trkpt>
      <trkpt lat="47.25324" lon="-1.66136">
        <ele>45.6</ele>
        <time>2012-10-28T11:28:46Z</time>
      </trkpt>
      <trkpt lat="47.25323" lon="-1.66132">
        <ele>45.6</ele>
        <time>2012-10-28T11:28:47Z</time>
      </trkpt>
      <trkpt lat="47.25321" lon="-1.66129">
        <ele>45.9</ele>
        <time>2012-10-28T11:28:48Z</time>
      </trkpt>
      <trkpt lat="47.25321" lon="-1.66126">
        <ele>46.2</ele>
        <time>2012-10-28T11:28:49Z</time>
      </trkpt>
      <trkpt lat="47.2532" lon="-1.66124">
        <ele>46.1</ele>
        <time>2012-10-28T11:28:50Z</time>
      </trkpt>
      <trkpt lat="47.2532" lon="-1.66121">
        <ele>46.1</ele>
        <time>2012-10-28T11:28:51Z</time>
      </trkpt>
      <trkpt lat="47.25321" lon="-1.66118">
        <ele>46.1</ele>
        <time>2012-10-28T11:28:52Z</time>
      </trkpt>
      <trkpt lat="47.25321" lon="-1.66116">
        <ele>46</ele>
        <time>2012-10-28T11:28:53Z</time>
      </trkpt>
      <trkpt lat="47.25324" lon="-1.6611">
        <ele>46</ele>
        <time>2012-10-28T11:28:55Z</time>
      </trkpt>
      <trkpt lat="47.25324" lon="-1.66107">
        <ele>46</ele>
        <time>2012-10-28T11:28:56Z</time>
      </trkpt>
      <trkpt lat="47.25324" lon="-1.66104">
        <ele>46.1</ele>
        <time>2012-10-28T11:28:57Z</time>
      </trkpt>
      <trkpt lat="47.25323" lon="-1.66101">
        <ele>45.9</ele>
        <time>2012-10-28T11:28:58Z</time>
      </trkpt>
      <trkpt lat="47.25323" lon="-1.66098">
        <ele>45.8</ele>
        <time>2012-10-28T11:28:59Z</time>
      </trkpt>
      <trkpt lat="47.25322" lon="-1.66095">
        <ele>46.4</ele>
        <time>2012-10-28T11:29:00Z</time>
      </trkpt>
      <trkpt lat="47.2532" lon="-1.66089">
        <ele>46.7</ele>
        <time>2012-10-28T11:29:02Z</time>
      </trkpt>
      <trkpt lat="47.25318" lon="-1.66087">
        <ele>46.6</ele>
        <time>2012-10-28T11:29:03Z</time>
      </trkpt>
      <trkpt lat="47.25297" lon="-1.66051">
        <ele>47.7</ele>
        <time>2012-10-28T11:29:14Z</time>
      </trkpt>
      <trkpt lat="47.2528" lon="-1.6602">
        <ele>48</ele>
        <time>2012-10-28T11:29:22Z</time>
      </trkpt>
      <trkpt lat="47.25278" lon="-1.66016">
        <ele>48.2</ele>
        <time>2012-10-28T11:29:23Z</time>
      </trkpt>
      <trkpt lat="47.25248" lon="-1.65948">
        <ele>46.8</ele>
        <time>2012-10-28T11:29:38Z</time>
      </trkpt>
      <trkpt lat="47.25247" lon="-1.65943">
        <ele>46.7</ele>
        <time>2012-10-28T11:29:39Z</time>
      </trkpt>
      <trkpt lat="47.25212" lon="-1.65822">
        <ele>44.4</ele>
        <time>2012-10-28T11:30:01Z</time>
      </trkpt>
      <trkpt lat="47.25209" lon="-1.65816">
        <ele>44.5</ele>
        <time>2012-10-28T11:30:02Z</time>
      </trkpt>
      <trkpt lat="47.25202" lon="-1.65797">
        <ele>44.7</ele>
        <time>2012-10-28T11:30:05Z</time>
      </trkpt>
      <trkpt lat="47.25192" lon="-1.65763">
        <ele>44.2</ele>
        <time>2012-10-28T11:30:10Z</time>
      </trkpt>
      <trkpt lat="47.25185" lon="-1.65738">
        <ele>44.1</ele>
        <time>2012-10-28T11:30:14Z</time>
      </trkpt>
      <trkpt lat="47.25184" lon="-1.65732">
        <ele>44.1</ele>
        <time>2012-10-28T11:30:15Z</time>
      </trkpt>
      <trkpt lat="47.25181" lon="-1.6572">
        <ele>44.2</ele>
        <time>2012-10-28T11:30:17Z</time>
      </trkpt>
      <trkpt lat="47.25178" lon="-1.65716">
        <ele>43.9</ele>
        <time>2012-10-28T11:30:18Z</time>
      </trkpt>
      <trkpt lat="47.25174" lon="-1.65712">
        <ele>43.7</ele>
        <time>2012-10-28T11:30:19Z</time>
      </trkpt>
      <trkpt lat="47.25169" lon="-1.65709">
        <ele>43.6</ele>
        <time>2012-10-28T11:30:20Z</time>
      </trkpt>
      <trkpt lat="47.25164" lon="-1.65707">
        <ele>43.6</ele>
        <time>2012-10-28T11:30:21Z</time>
      </trkpt>
      <trkpt lat="47.25148" lon="-1.65703">
        <ele>43.5</ele>
        <time>2012-10-28T11:30:24Z</time>
      </trkpt>
      <trkpt lat="47.25142" lon="-1.657">
        <ele>42.6</ele>
        <time>2012-10-28T11:30:25Z</time>
      </trkpt>
      <trkpt lat="47.25123" lon="-1.6569">
        <ele>40.6</ele>
        <time>2012-10-28T11:30:28Z</time>
      </trkpt>
      <trkpt lat="47.25085" lon="-1.65671">
        <ele>38.3</ele>
        <time>2012-10-28T11:30:34Z</time>
      </trkpt>
      <trkpt lat="47.2508" lon="-1.65667">
        <ele>37.6</ele>
        <time>2012-10-28T11:30:35Z</time>
      </trkpt>
      <trkpt lat="47.25076" lon="-1.65662">
        <ele>37.1</ele>
        <time>2012-10-28T11:30:36Z</time>
      </trkpt>
      <trkpt lat="47.25073" lon="-1.65655">
        <ele>36.9</ele>
        <time>2012-10-28T11:30:37Z</time>
      </trkpt>
      <trkpt lat="47.25071" lon="-1.65646">
        <ele>36.7</ele>
        <time>2012-10-28T11:30:38Z</time>
      </trkpt>
      <trkpt lat="47.25071" lon="-1.65637">
        <ele>36.6</ele>
        <time>2012-10-28T11:30:39Z</time>
      </trkpt>
      <trkpt lat="47.25072" lon="-1.65629">
        <ele>35.8</ele>
        <time>2012-10-28T11:30:40Z</time>
      </trkpt>
      <trkpt lat="47.25074" lon="-1.65621">
        <ele>35.2</ele>
        <time>2012-10-28T11:30:41Z</time>
      </trkpt>
      <trkpt lat="47.25077" lon="-1.65605">
        <ele>34.1</ele>
        <time>2012-10-28T11:30:43Z</time>
      </trkpt>
      <trkpt lat="47.25081" lon="-1.65581">
        <ele>33.5</ele>
        <time>2012-10-28T11:30:46Z</time>
      </trkpt>
      <trkpt lat="47.25083" lon="-1.65574">
        <ele>34.1</ele>
        <time>2012-10-28T11:30:47Z</time>
      </trkpt>
      <trkpt lat="47.25094" lon="-1.65539">
        <ele>35.5</ele>
        <time>2012-10-28T11:30:54Z</time>
      </trkpt>
      <trkpt lat="47.25096" lon="-1.6553">
        <ele>36.2</ele>
        <time>2012-10-28T11:30:56Z</time>
      </trkpt>
      <trkpt lat="47.25099" lon="-1.65513">
        <ele>36.7</ele>
        <time>2012-10-28T11:31:00Z</time>
      </trkpt>
      <trkpt lat="47.25099" lon="-1.65509">
        <ele>37.3</ele>
        <time>2012-10-28T11:31:01Z</time>
      </trkpt>
      <trkpt lat="47.25106" lon="-1.65446">
        <ele>39.9</ele>
        <time>2012-10-28T11:31:17Z</time>
      </trkpt>
      <trkpt lat="47.25107" lon="-1.65442">
        <ele>40.1</ele>
        <time>2012-10-28T11:31:18Z</time>
      </trkpt>
      <trkpt lat="47.25111" lon="-1.6543">
        <ele>40.9</ele>
        <time>2012-10-28T11:31:21Z</time>
      </trkpt>
      <trkpt lat="47.25112" lon="-1.65427">
        <ele>40.9</ele>
        <time>2012-10-28T11:31:22Z</time>
      </trkpt>
      <trkpt lat="47.25116" lon="-1.6542">
        <ele>40.8</ele>
        <time>2012-10-28T11:31:24Z</time>
      </trkpt>
      <trkpt lat="47.25128" lon="-1.65394">
        <ele>42.2</ele>
        <time>2012-10-28T11:31:32Z</time>
      </trkpt>
      <trkpt lat="47.25129" lon="-1.65391">
        <ele>42</ele>
        <time>2012-10-28T11:31:33Z</time>
      </trkpt>
      <trkpt lat="47.25132" lon="-1.65381">
        <ele>42.7</ele>
        <time>2012-10-28T11:31:36Z</time>
      </trkpt>
      <trkpt lat="47.25134" lon="-1.65371">
        <ele>42.3</ele>
        <time>2012-10-28T11:31:39Z</time>
      </trkpt>
      <trkpt lat="47.25138" lon="-1.65356">
        <ele>43.4</ele>
        <time>2012-10-28T11:31:44Z</time>
      </trkpt>
      <trkpt lat="47.25139" lon="-1.65354">
        <ele>43.4</ele>
        <time>2012-10-28T11:31:45Z</time>
      </trkpt>
      <trkpt lat="47.25143" lon="-1.65338">
        <ele>43.6</ele>
        <time>2012-10-28T11:31:50Z</time>
      </trkpt>
      <trkpt lat="47.25144" lon="-1.65335">
        <ele>43.9</ele>
        <time>2012-10-28T11:31:51Z</time>
      </trkpt>
      <trkpt lat="47.25145" lon="-1.65332">
        <ele>44.2</ele>
        <time>2012-10-28T11:31:52Z</time>
      </trkpt>
      <trkpt lat="47.25154" lon="-1.65296">
        <ele>46.1</ele>
        <time>2012-10-28T11:32:04Z</time>
      </trkpt>
      <trkpt lat="47.25154" lon="-1.65292">
        <ele>46.3</ele>
        <time>2012-10-28T11:32:05Z</time>
      </trkpt>
      <trkpt lat="47.25155" lon="-1.65286">
        <ele>46.5</ele>
        <time>2012-10-28T11:32:07Z</time>
      </trkpt>
      <trkpt lat="47.25157" lon="-1.65267">
        <ele>46.3</ele>
        <time>2012-10-28T11:32:13Z</time>
      </trkpt>
      <trkpt lat="47.25157" lon="-1.65263">
        <ele>46.6</ele>
        <time>2012-10-28T11:32:14Z</time>
      </trkpt>
      <trkpt lat="47.25156" lon="-1.65255">
        <ele>47</ele>
        <time>2012-10-28T11:32:16Z</time>
      </trkpt>
      <trkpt lat="47.25156" lon="-1.65252">
        <ele>47.1</ele>
        <time>2012-10-28T11:32:17Z</time>
      </trkpt>
      <trkpt lat="47.25153" lon="-1.65236">
        <ele>47.2</ele>
        <time>2012-10-28T11:32:21Z</time>
      </trkpt>
      <trkpt lat="47.25152" lon="-1.65232">
        <ele>47.2</ele>
        <time>2012-10-28T11:32:22Z</time>
      </trkpt>
      <trkpt lat="47.25149" lon="-1.65222">
        <ele>47.8</ele>
        <time>2012-10-28T11:32:25Z</time>
      </trkpt>
      <trkpt lat="47.25149" lon="-1.65219">
        <ele>48.1</ele>
        <time>2012-10-28T11:32:26Z</time>
      </trkpt>
      <trkpt lat="47.25148" lon="-1.65216">
        <ele>48.3</ele>
        <time>2012-10-28T11:32:27Z</time>
      </trkpt>
      <trkpt lat="47.25148" lon="-1.65212">
        <ele>48.4</ele>
        <time>2012-10-28T11:32:28Z</time>
      </trkpt>
      <trkpt lat="47.25148" lon="-1.65209">
        <ele>48.6</ele>
        <time>2012-10-28T11:32:29Z</time>
      </trkpt>
      <trkpt lat="47.25149" lon="-1.65206">
        <ele>48.8</ele>
        <time>2012-10-28T11:32:30Z</time>
      </trkpt>
      <trkpt lat="47.25149" lon="-1.65203">
        <ele>49</ele>
        <time>2012-10-28T11:32:31Z</time>
      </trkpt>
      <trkpt lat="47.25151" lon="-1.65198">
        <ele>49.6</ele>
        <time>2012-10-28T11:32:33Z</time>
      </trkpt>
      <trkpt lat="47.25152" lon="-1.65195">
        <ele>49.8</ele>
        <time>2012-10-28T11:32:34Z</time>
      </trkpt>
      <trkpt lat="47.25153" lon="-1.65193">
        <ele>50</ele>
        <time>2012-10-28T11:32:35Z</time>
      </trkpt>
      <trkpt lat="47.25154" lon="-1.6519">
        <ele>49.8</ele>
        <time>2012-10-28T11:32:36Z</time>
      </trkpt>
      <trkpt lat="47.25156" lon="-1.65184">
        <ele>49.8</ele>
        <time>2012-10-28T11:32:38Z</time>
      </trkpt>
      <trkpt lat="47.25157" lon="-1.65178">
        <ele>50</ele>
        <time>2012-10-28T11:32:40Z</time>
      </trkpt>
      <trkpt lat="47.25157" lon="-1.65175">
        <ele>50.1</ele>
        <time>2012-10-28T11:32:41Z</time>
      </trkpt>
      <trkpt lat="47.25158" lon="-1.65169">
        <ele>50.1</ele>
        <time>2012-10-28T11:32:43Z</time>
      </trkpt>
      <trkpt lat="47.25159" lon="-1.65166">
        <ele>50</ele>
        <time>2012-10-28T11:32:44Z</time>
      </trkpt>
      <trkpt lat="47.2517" lon="-1.65122">
        <ele>51.1</ele>
        <time>2012-10-28T11:32:56Z</time>
      </trkpt>
      <trkpt lat="47.2517" lon="-1.65118">
        <ele>51.2</ele>
        <time>2012-10-28T11:32:57Z</time>
      </trkpt>
      <trkpt lat="47.2517" lon="-1.65099">
        <ele>51.8</ele>
        <time>2012-10-28T11:33:01Z</time>
      </trkpt>
      <trkpt lat="47.25171" lon="-1.64989">
        <ele>51.6</ele>
        <time>2012-10-28T11:33:23Z</time>
      </trkpt>
      <trkpt lat="47.25172" lon="-1.64983">
        <ele>51.7</ele>
        <time>2012-10-28T11:33:24Z</time>
      </trkpt>
      <trkpt lat="47.25173" lon="-1.64973">
        <ele>52.2</ele>
        <time>2012-10-28T11:33:26Z</time>
      </trkpt>
      <trkpt lat="47.25173" lon="-1.64968">
        <ele>52.5</ele>
        <time>2012-10-28T11:33:27Z</time>
      </trkpt>
      <trkpt lat="47.25172" lon="-1.64963">
        <ele>52.1</ele>
        <time>2012-10-28T11:33:28Z</time>
      </trkpt>
      <trkpt lat="47.2517" lon="-1.64945">
        <ele>51</ele>
        <time>2012-10-28T11:33:32Z</time>
      </trkpt>
      <trkpt lat="47.25169" lon="-1.64941">
        <ele>50.9</ele>
        <time>2012-10-28T11:33:33Z</time>
      </trkpt>
      <trkpt lat="47.25165" lon="-1.64921">
        <ele>51</ele>
        <time>2012-10-28T11:33:37Z</time>
      </trkpt>
      <trkpt lat="47.25161" lon="-1.64901">
        <ele>50.8</ele>
        <time>2012-10-28T11:33:41Z</time>
      </trkpt>
      <trkpt lat="47.25159" lon="-1.64895">
        <ele>50.7</ele>
        <time>2012-10-28T11:33:42Z</time>
      </trkpt>
      <trkpt lat="47.25155" lon="-1.6489">
        <ele>50.5</ele>
        <time>2012-10-28T11:33:43Z</time>
      </trkpt>
      <trkpt lat="47.25151" lon="-1.64886">
        <ele>50.5</ele>
        <time>2012-10-28T11:33:44Z</time>
      </trkpt>
      <trkpt lat="47.25112" lon="-1.64851">
        <ele>47.2</ele>
        <time>2012-10-28T11:33:54Z</time>
      </trkpt>
      <trkpt lat="47.25089" lon="-1.64834">
        <ele>45.7</ele>
        <time>2012-10-28T11:34:00Z</time>
      </trkpt>
      <trkpt lat="47.25087" lon="-1.6483">
        <ele>45</ele>
        <time>2012-10-28T11:34:01Z</time>
      </trkpt>
      <trkpt lat="47.25087" lon="-1.64825">
        <ele>44.5</ele>
        <time>2012-10-28T11:34:02Z</time>
      </trkpt>
      <trkpt lat="47.25087" lon="-1.64821">
        <ele>44.1</ele>
        <time>2012-10-28T11:34:03Z</time>
      </trkpt>
      <trkpt lat="47.25088" lon="-1.64808">
        <ele>44.6</ele>
        <time>2012-10-28T11:34:06Z</time>
      </trkpt>
      <trkpt lat="47.25089" lon="-1.64803">
        <ele>44.8</ele>
        <time>2012-10-28T11:34:07Z</time>
      </trkpt>
      <trkpt lat="47.2509" lon="-1.64794">
        <ele>45</ele>
        <time>2012-10-28T11:34:09Z</time>
      </trkpt>
      <trkpt lat="47.25091" lon="-1.64789">
        <ele>45.1</ele>
        <time>2012-10-28T11:34:10Z</time>
      </trkpt>
      <trkpt lat="47.25093" lon="-1.6475">
        <ele>46.5</ele>
        <time>2012-10-28T11:34:19Z</time>
      </trkpt>
      <trkpt lat="47.251" lon="-1.64673">
        <ele>48.8</ele>
        <time>2012-10-28T11:34:34Z</time>
      </trkpt>
      <trkpt lat="47.25101" lon="-1.64668">
        <ele>48.8</ele>
        <time>2012-10-28T11:34:35Z</time>
      </trkpt>
      <trkpt lat="47.25102" lon="-1.64662">
        <ele>48.7</ele>
        <time>2012-10-28T11:34:36Z</time>
      </trkpt>
      <trkpt lat="47.25103" lon="-1.64657">
        <ele>49.4</ele>
        <time>2012-10-28T11:34:37Z</time>
      </trkpt>
      <trkpt lat="47.25105" lon="-1.64629">
        <ele>50.1</ele>
        <time>2012-10-28T11:34:42Z</time>
      </trkpt>
      <trkpt lat="47.25105" lon="-1.64623">
        <ele>49.9</ele>
        <time>2012-10-28T11:34:43Z</time>
      </trkpt>
      <trkpt lat="47.25103" lon="-1.64588">
        <ele>49.7</ele>
        <time>2012-10-28T11:34:49Z</time>
      </trkpt>
      <trkpt lat="47.251" lon="-1.64546">
        <ele>49.9</ele>
        <time>2012-10-28T11:34:57Z</time>
      </trkpt>
      <trkpt lat="47.25098" lon="-1.64542">
        <ele>49.8</ele>
        <time>2012-10-28T11:34:58Z</time>
      </trkpt>
      <trkpt lat="47.25097" lon="-1.64538">
        <ele>49.8</ele>
        <time>2012-10-28T11:34:59Z</time>
      </trkpt>
      <trkpt lat="47.25095" lon="-1.64537">
        <ele>49.8</ele>
        <time>2012-10-28T11:35:00Z</time>
      </trkpt>
      <trkpt lat="47.25092" lon="-1.64537">
        <ele>49.7</ele>
        <time>2012-10-28T11:35:01Z</time>
      </trkpt>
      <trkpt lat="47.25089" lon="-1.64538">
        <ele>49.6</ele>
        <time>2012-10-28T11:35:02Z</time>
      </trkpt>
      <trkpt lat="47.25086" lon="-1.64541">
        <ele>49.7</ele>
        <time>2012-10-28T11:35:03Z</time>
      </trkpt>
      <trkpt lat="47.25078" lon="-1.64547">
        <ele>49.8</ele>
        <time>2012-10-28T11:35:05Z</time>
      </trkpt>
      <trkpt lat="47.24999" lon="-1.64615">
        <ele>44.6</ele>
        <time>2012-10-28T11:35:19Z</time>
      </trkpt>
      <trkpt lat="47.24991" lon="-1.64619">
        <ele>44</ele>
        <time>2012-10-28T11:35:20Z</time>
      </trkpt>
      <trkpt lat="47.24976" lon="-1.64626">
        <ele>42.8</ele>
        <time>2012-10-28T11:35:22Z</time>
      </trkpt>
      <trkpt lat="47.2495" lon="-1.64632">
        <ele>41.4</ele>
        <time>2012-10-28T11:35:25Z</time>
      </trkpt>
      <trkpt lat="47.24915" lon="-1.64637">
        <ele>39</ele>
        <time>2012-10-28T11:35:29Z</time>
      </trkpt>
      <trkpt lat="47.24815" lon="-1.64649">
        <ele>32.2</ele>
        <time>2012-10-28T11:35:41Z</time>
      </trkpt>
      <trkpt lat="47.24814" lon="-1.64649">
        <ele>31.9</ele>
        <time>2012-10-28T11:35:42Z</time>
      </trkpt>
      <trkpt lat="47.24813" lon="-1.64648">
        <ele>31.9</ele>
        <time>2012-10-28T11:35:43Z</time>
      </trkpt>
      <trkpt lat="47.24813" lon="-1.64647">
        <ele>31.8</ele>
        <time>2012-10-28T11:35:44Z</time>
      </trkpt>
      <trkpt lat="47.24814" lon="-1.64646">
        <ele>31.8</ele>
        <time>2012-10-28T11:35:45Z</time>
      </trkpt>
      <trkpt lat="47.24815" lon="-1.64646">
        <ele>31.9</ele>
        <time>2012-10-28T11:35:46Z</time>
      </trkpt>
      <trkpt lat="47.24816" lon="-1.64645">
        <ele>32</ele>
        <time>2012-10-28T11:35:47Z</time>
      </trkpt>
      <trkpt lat="47.24816" lon="-1.64643">
        <ele>32.2</ele>
        <time>2012-10-28T11:35:48Z</time>
      </trkpt>
      <trkpt lat="47.24816" lon="-1.64639">
        <ele>32.3</ele>
        <time>2012-10-28T11:35:49Z</time>
      </trkpt>
      <trkpt lat="47.24813" lon="-1.64631">
        <ele>32</ele>
        <time>2012-10-28T11:35:51Z</time>
      </trkpt>
      <trkpt lat="47.24813" lon="-1.64628">
        <ele>31.9</ele>
        <time>2012-10-28T11:35:52Z</time>
      </trkpt>
      <trkpt lat="47.24814" lon="-1.64625">
        <ele>31.4</ele>
        <time>2012-10-28T11:35:53Z</time>
      </trkpt>
      <trkpt lat="47.24814" lon="-1.64621">
        <ele>31</ele>
        <time>2012-10-28T11:35:54Z</time>
      </trkpt>
      <trkpt lat="47.24814" lon="-1.64618">
        <ele>30.9</ele>
        <time>2012-10-28T11:35:55Z</time>
      </trkpt>
      <trkpt lat="47.24813" lon="-1.64615">
        <ele>30.8</ele>
        <time>2012-10-28T11:35:56Z</time>
      </trkpt>
      <trkpt lat="47.24811" lon="-1.64613">
        <ele>30.7</ele>
        <time>2012-10-28T11:35:57Z</time>
      </trkpt>
      <trkpt lat="47.2481" lon="-1.64612">
        <ele>31.1</ele>
        <time>2012-10-28T11:35:58Z</time>
      </trkpt>
      <trkpt lat="47.24808" lon="-1.6461">
        <ele>31.3</ele>
        <time>2012-10-28T11:35:59Z</time>
      </trkpt>
      <trkpt lat="47.24806" lon="-1.64609">
        <ele>31.6</ele>
        <time>2012-10-28T11:36:00Z</time>
      </trkpt>
      <trkpt lat="47.24804" lon="-1.64609">
        <ele>31.9</ele>
        <time>2012-10-28T11:36:01Z</time>
      </trkpt>
      <trkpt lat="47.24801" lon="-1.6461">
        <ele>31.9</ele>
        <time>2012-10-28T11:36:02Z</time>
      </trkpt>
      <trkpt lat="47.24798" lon="-1.6461">
        <ele>32</ele>
        <time>2012-10-28T11:36:03Z</time>
      </trkpt>
      <trkpt lat="47.24795" lon="-1.6461">
        <ele>32</ele>
        <time>2012-10-28T11:36:04Z</time>
      </trkpt>
      <trkpt lat="47.24785" lon="-1.64609">
        <ele>32.2</ele>
        <time>2012-10-28T11:36:07Z</time>
      </trkpt>
      <trkpt lat="47.24782" lon="-1.64609">
        <ele>32.2</ele>
        <time>2012-10-28T11:36:08Z</time>
      </trkpt>
      <trkpt lat="47.24776" lon="-1.64612">
        <ele>32</ele>
        <time>2012-10-28T11:36:10Z</time>
      </trkpt>
      <trkpt lat="47.24772" lon="-1.64614">
        <ele>31.9</ele>
        <time>2012-10-28T11:36:11Z</time>
      </trkpt>
      <trkpt lat="47.24758" lon="-1.64624">
        <ele>32</ele>
        <time>2012-10-28T11:36:14Z</time>
      </trkpt>
      <trkpt lat="47.24753" lon="-1.64626">
        <ele>31.9</ele>
        <time>2012-10-28T11:36:15Z</time>
      </trkpt>
      <trkpt lat="47.24748" lon="-1.64627">
        <ele>31.8</ele>
        <time>2012-10-28T11:36:16Z</time>
      </trkpt>
      <trkpt lat="47.24743" lon="-1.64626">
        <ele>31.3</ele>
        <time>2012-10-28T11:36:17Z</time>
      </trkpt>
      <trkpt lat="47.2472" lon="-1.64622">
        <ele>30.4</ele>
        <time>2012-10-28T11:36:22Z</time>
      </trkpt>
      <trkpt lat="47.24716" lon="-1.64619">
        <ele>30.4</ele>
        <time>2012-10-28T11:36:23Z</time>
      </trkpt>
      <trkpt lat="47.24712" lon="-1.64617">
        <ele>30.1</ele>
        <time>2012-10-28T11:36:24Z</time>
      </trkpt>
      <trkpt lat="47.24708" lon="-1.64613">
        <ele>29.8</ele>
        <time>2012-10-28T11:36:25Z</time>
      </trkpt>
      <trkpt lat="47.24701" lon="-1.64606">
        <ele>29.3</ele>
        <time>2012-10-28T11:36:27Z</time>
      </trkpt>
      <trkpt lat="47.24681" lon="-1.64582">
        <ele>29.3</ele>
        <time>2012-10-28T11:36:33Z</time>
      </trkpt>
      <trkpt lat="47.24648" lon="-1.64542">
        <ele>29.6</ele>
        <time>2012-10-28T11:36:44Z</time>
      </trkpt>
      <trkpt lat="47.24646" lon="-1.64538">
        <ele>29.6</ele>
        <time>2012-10-28T11:36:45Z</time>
      </trkpt>
      <trkpt lat="47.24645" lon="-1.64534">
        <ele>29.6</ele>
        <time>2012-10-28T11:36:46Z</time>
      </trkpt>
      <trkpt lat="47.24644" lon="-1.64529">
        <ele>29.5</ele>
        <time>2012-10-28T11:36:47Z</time>
      </trkpt>
      <trkpt lat="47.24643" lon="-1.64524">
        <ele>29.5</ele>
        <time>2012-10-28T11:36:48Z</time>
      </trkpt>
      <trkpt lat="47.24644" lon="-1.64514">
        <ele>29.3</ele>
        <time>2012-10-28T11:36:50Z</time>
      </trkpt>
      <trkpt lat="47.24645" lon="-1.64478">
        <ele>28</ele>
        <time>2012-10-28T11:36:57Z</time>
      </trkpt>
      <trkpt lat="47.24646" lon="-1.64473">
        <ele>27.9</ele>
        <time>2012-10-28T11:36:58Z</time>
      </trkpt>
      <trkpt lat="47.24648" lon="-1.64452">
        <ele>29</ele>
        <time>2012-10-28T11:37:02Z</time>
      </trkpt>
      <trkpt lat="47.24648" lon="-1.64446">
        <ele>29.1</ele>
        <time>2012-10-28T11:37:03Z</time>
      </trkpt>
      <trkpt lat="47.24647" lon="-1.64427">
        <ele>29.8</ele>
        <time>2012-10-28T11:37:07Z</time>
      </trkpt>
      <trkpt lat="47.24647" lon="-1.64423">
        <ele>29.9</ele>
        <time>2012-10-28T11:37:08Z</time>
      </trkpt>
      <trkpt lat="47.24646" lon="-1.64418">
        <ele>30.2</ele>
        <time>2012-10-28T11:37:09Z</time>
      </trkpt>
      <trkpt lat="47.24644" lon="-1.6441">
        <ele>30.9</ele>
        <time>2012-10-28T11:37:11Z</time>
      </trkpt>
      <trkpt lat="47.24641" lon="-1.64401">
        <ele>30.8</ele>
        <time>2012-10-28T11:37:13Z</time>
      </trkpt>
      <trkpt lat="47.24639" lon="-1.64398">
        <ele>30.4</ele>
        <time>2012-10-28T11:37:14Z</time>
      </trkpt>
      <trkpt lat="47.24636" lon="-1.64392">
        <ele>30.4</ele>
        <time>2012-10-28T11:37:16Z</time>
      </trkpt>
      <trkpt lat="47.24625" lon="-1.64375">
        <ele>30.5</ele>
        <time>2012-10-28T11:37:21Z</time>
      </trkpt>
      <trkpt lat="47.24623" lon="-1.64371">
        <ele>30.2</ele>
        <time>2012-10-28T11:37:22Z</time>
      </trkpt>
      <trkpt lat="47.24616" lon="-1.64353">
        <ele>29.6</ele>
        <time>2012-10-28T11:37:26Z</time>
      </trkpt>
      <trkpt lat="47.24585" lon="-1.64273">
        <ele>29.8</ele>
        <time>2012-10-28T11:37:44Z</time>
      </trkpt>
      <trkpt lat="47.24573" lon="-1.64233">
        <ele>31.2</ele>
        <time>2012-10-28T11:37:53Z</time>
      </trkpt>
      <trkpt lat="47.2457" lon="-1.64229">
        <ele>31.2</ele>
        <time>2012-10-28T11:37:54Z</time>
      </trkpt>
      <trkpt lat="47.24567" lon="-1.64225">
        <ele>31.3</ele>
        <time>2012-10-28T11:37:55Z</time>
      </trkpt>
      <trkpt lat="47.2456" lon="-1.64213">
        <ele>31.1</ele>
        <time>2012-10-28T11:37:58Z</time>
      </trkpt>
      <trkpt lat="47.24555" lon="-1.64204">
        <ele>30.9</ele>
        <time>2012-10-28T11:38:00Z</time>
      </trkpt>
      <trkpt lat="47.24551" lon="-1.64195">
        <ele>30.9</ele>
        <time>2012-10-28T11:38:02Z</time>
      </trkpt>
      <trkpt lat="47.24529" lon="-1.64142">
        <ele>31</ele>
        <time>2012-10-28T11:38:12Z</time>
      </trkpt>
      <trkpt lat="47.24526" lon="-1.64137">
        <ele>30.9</ele>
        <time>2012-10-28T11:38:13Z</time>
      </trkpt>
      <trkpt lat="47.24523" lon="-1.64132">
        <ele>30.9</ele>
        <time>2012-10-28T11:38:14Z</time>
      </trkpt>
      <trkpt lat="47.2452" lon="-1.64126">
        <ele>30.8</ele>
        <time>2012-10-28T11:38:15Z</time>
      </trkpt>
      <trkpt lat="47.24507" lon="-1.64094">
        <ele>30.1</ele>
        <time>2012-10-28T11:38:20Z</time>
      </trkpt>
      <trkpt lat="47.24475" lon="-1.6402">
        <ele>26.8</ele>
        <time>2012-10-28T11:38:32Z</time>
      </trkpt>
      <trkpt lat="47.24473" lon="-1.64013">
        <ele>27</ele>
        <time>2012-10-28T11:38:33Z</time>
      </trkpt>
      <trkpt lat="47.24456" lon="-1.63957">
        <ele>26.7</ele>
        <time>2012-10-28T11:38:41Z</time>
      </trkpt>
      <trkpt lat="47.24426" lon="-1.63872">
        <ele>26.1</ele>
        <time>2012-10-28T11:38:54Z</time>
      </trkpt>
      <trkpt lat="47.24425" lon="-1.63866">
        <ele>26.3</ele>
        <time>2012-10-28T11:38:55Z</time>
      </trkpt>
      <trkpt lat="47.24425" lon="-1.6386">
        <ele>26.5</ele>
        <time>2012-10-28T11:38:56Z</time>
      </trkpt>
      <trkpt lat="47.24427" lon="-1.63854">
        <ele>26.6</ele>
        <time>2012-10-28T11:38:57Z</time>
      </trkpt>
      <trkpt lat="47.24428" lon="-1.63848">
        <ele>26.1</ele>
        <time>2012-10-28T11:38:58Z</time>
      </trkpt>
      <trkpt lat="47.24435" lon="-1.63828">
        <ele>25.4</ele>
        <time>2012-10-28T11:39:02Z</time>
      </trkpt>
      <trkpt lat="47.2444" lon="-1.63809">
        <ele>26.8</ele>
        <time>2012-10-28T11:39:07Z</time>
      </trkpt>
      <trkpt lat="47.2444" lon="-1.63805">
        <ele>26.8</ele>
        <time>2012-10-28T11:39:08Z</time>
      </trkpt>
      <trkpt lat="47.2444" lon="-1.638">
        <ele>26.8</ele>
        <time>2012-10-28T11:39:09Z</time>
      </trkpt>
      <trkpt lat="47.24439" lon="-1.63792">
        <ele>27.5</ele>
        <time>2012-10-28T11:39:11Z</time>
      </trkpt>
      <trkpt lat="47.24438" lon="-1.63785">
        <ele>27.8</ele>
        <time>2012-10-28T11:39:13Z</time>
      </trkpt>
      <trkpt lat="47.24438" lon="-1.63781">
        <ele>28.6</ele>
        <time>2012-10-28T11:39:14Z</time>
      </trkpt>
      <trkpt lat="47.24438" lon="-1.63776">
        <ele>29.2</ele>
        <time>2012-10-28T11:39:15Z</time>
      </trkpt>
      <trkpt lat="47.24437" lon="-1.63768">
        <ele>29.7</ele>
        <time>2012-10-28T11:39:17Z</time>
      </trkpt>
      <trkpt lat="47.24436" lon="-1.63764">
        <ele>29.8</ele>
        <time>2012-10-28T11:39:18Z</time>
      </trkpt>
      <trkpt lat="47.24435" lon="-1.63762">
        <ele>29.9</ele>
        <time>2012-10-28T11:39:19Z</time>
      </trkpt>
      <trkpt lat="47.24433" lon="-1.63759">
        <ele>29.9</ele>
        <time>2012-10-28T11:39:20Z</time>
      </trkpt>
      <trkpt lat="47.24428" lon="-1.63755">
        <ele>30.3</ele>
        <time>2012-10-28T11:39:22Z</time>
      </trkpt>
      <trkpt lat="47.24423" lon="-1.6375">
        <ele>30.7</ele>
        <time>2012-10-28T11:39:24Z</time>
      </trkpt>
      <trkpt lat="47.2442" lon="-1.63748">
        <ele>30.7</ele>
        <time>2012-10-28T11:39:25Z</time>
      </trkpt>
      <trkpt lat="47.24416" lon="-1.63746">
        <ele>30.8</ele>
        <time>2012-10-28T11:39:26Z</time>
      </trkpt>
      <trkpt lat="47.24413" lon="-1.63745">
        <ele>30.8</ele>
        <time>2012-10-28T11:39:27Z</time>
      </trkpt>
      <trkpt lat="47.24411" lon="-1.63745">
        <ele>30.8</ele>
        <time>2012-10-28T11:39:28Z</time>
      </trkpt>
      <trkpt lat="47.24409" lon="-1.63746">
        <ele>30.4</ele>
        <time>2012-10-28T11:39:29Z</time>
      </trkpt>
      <trkpt lat="47.24407" lon="-1.63747">
        <ele>30</ele>
        <time>2012-10-28T11:39:30Z</time>
      </trkpt>
      <trkpt lat="47.24406" lon="-1.63749">
        <ele>29.9</ele>
        <time>2012-10-28T11:39:31Z</time>
      </trkpt>
      <trkpt lat="47.24405" lon="-1.63751">
        <ele>29.9</ele>
        <time>2012-10-28T11:39:32Z</time>
      </trkpt>
      <trkpt lat="47.24404" lon="-1.63752">
        <ele>30</ele>
        <time>2012-10-28T11:39:33Z</time>
      </trkpt>
      <trkpt lat="47.24404" lon="-1.63755">
        <ele>30.1</ele>
        <time>2012-10-28T11:39:34Z</time>
      </trkpt>
      <trkpt lat="47.24403" lon="-1.6376">
        <ele>30.2</ele>
        <time>2012-10-28T11:39:36Z</time>
      </trkpt>
      <trkpt lat="47.24402" lon="-1.63764">
        <ele>30.2</ele>
        <time>2012-10-28T11:39:37Z</time>
      </trkpt>
      <trkpt lat="47.24382" lon="-1.63855">
        <ele>28.3</ele>
        <time>2012-10-28T11:39:53Z</time>
      </trkpt>
      <trkpt lat="47.2438" lon="-1.63861">
        <ele>28.4</ele>
        <time>2012-10-28T11:39:54Z</time>
      </trkpt>
      <trkpt lat="47.24378" lon="-1.63866">
        <ele>28.5</ele>
        <time>2012-10-28T11:39:55Z</time>
      </trkpt>
      <trkpt lat="47.24368" lon="-1.63885">
        <ele>29</ele>
        <time>2012-10-28T11:39:59Z</time>
      </trkpt>
      <trkpt lat="47.24356" lon="-1.63903">
        <ele>29.2</ele>
        <time>2012-10-28T11:40:03Z</time>
      </trkpt>
      <trkpt lat="47.24336" lon="-1.63933">
        <ele>30.3</ele>
        <time>2012-10-28T11:40:10Z</time>
      </trkpt>
      <trkpt lat="47.24326" lon="-1.63944">
        <ele>30.2</ele>
        <time>2012-10-28T11:40:13Z</time>
      </trkpt>
      <trkpt lat="47.24322" lon="-1.63948">
        <ele>30.8</ele>
        <time>2012-10-28T11:40:14Z</time>
      </trkpt>
      <trkpt lat="47.24315" lon="-1.63954">
        <ele>31.2</ele>
        <time>2012-10-28T11:40:16Z</time>
      </trkpt>
      <trkpt lat="47.24311" lon="-1.63957">
        <ele>31.1</ele>
        <time>2012-10-28T11:40:17Z</time>
      </trkpt>
      <trkpt lat="47.24307" lon="-1.63958">
        <ele>31</ele>
        <time>2012-10-28T11:40:18Z</time>
      </trkpt>
      <trkpt lat="47.24303" lon="-1.63957">
        <ele>31</ele>
        <time>2012-10-28T11:40:19Z</time>
      </trkpt>
      <trkpt lat="47.24299" lon="-1.63955">
        <ele>31</ele>
        <time>2012-10-28T11:40:20Z</time>
      </trkpt>
      <trkpt lat="47.24295" lon="-1.63953">
        <ele>31.3</ele>
        <time>2012-10-28T11:40:21Z</time>
      </trkpt>
      <trkpt lat="47.24292" lon="-1.63949">
        <ele>31.5</ele>
        <time>2012-10-28T11:40:22Z</time>
      </trkpt>
      <trkpt lat="47.24288" lon="-1.63944">
        <ele>31.7</ele>
        <time>2012-10-28T11:40:23Z</time>
      </trkpt>
      <trkpt lat="47.24277" lon="-1.63924">
        <ele>31.7</ele>
        <time>2012-10-28T11:40:27Z</time>
      </trkpt>
      <trkpt lat="47.24269" lon="-1.63909">
        <ele>32.6</ele>
        <time>2012-10-28T11:40:30Z</time>
      </trkpt>
      <trkpt lat="47.24259" lon="-1.63888">
        <ele>32.9</ele>
        <time>2012-10-28T11:40:34Z</time>
      </trkpt>
      <trkpt lat="47.24244" lon="-1.63847">
        <ele>32.3</ele>
        <time>2012-10-28T11:40:41Z</time>
      </trkpt>
      <trkpt lat="47.24242" lon="-1.6384">
        <ele>32.1</ele>
        <time>2012-10-28T11:40:42Z</time>
      </trkpt>
      <trkpt lat="47.2424" lon="-1.63832">
        <ele>32</ele>
        <time>2012-10-28T11:40:43Z</time>
      </trkpt>
      <trkpt lat="47.2423" lon="-1.63782">
        <ele>30.8</ele>
        <time>2012-10-28T11:40:49Z</time>
      </trkpt>
      <trkpt lat="47.24228" lon="-1.63765">
        <ele>30.6</ele>
        <time>2012-10-28T11:40:51Z</time>
      </trkpt>
      <trkpt lat="47.24227" lon="-1.6375">
        <ele>29.5</ele>
        <time>2012-10-28T11:40:53Z</time>
      </trkpt>
      <trkpt lat="47.24226" lon="-1.63734">
        <ele>29.9</ele>
        <time>2012-10-28T11:40:55Z</time>
      </trkpt>
      <trkpt lat="47.24215" lon="-1.63649">
        <ele>31.3</ele>
        <time>2012-10-28T11:41:08Z</time>
      </trkpt>
      <trkpt lat="47.24209" lon="-1.63616">
        <ele>32.1</ele>
        <time>2012-10-28T11:41:14Z</time>
      </trkpt>
      <trkpt lat="47.24205" lon="-1.63601">
        <ele>32.8</ele>
        <time>2012-10-28T11:41:17Z</time>
      </trkpt>
      <trkpt lat="47.24204" lon="-1.63596">
        <ele>32.8</ele>
        <time>2012-10-28T11:41:18Z</time>
      </trkpt>
      <trkpt lat="47.24197" lon="-1.63571">
        <ele>33</ele>
        <time>2012-10-28T11:41:23Z</time>
      </trkpt>
      <trkpt lat="47.24176" lon="-1.63508">
        <ele>34</ele>
        <time>2012-10-28T11:41:35Z</time>
      </trkpt>
      <trkpt lat="47.2415" lon="-1.63429">
        <ele>32.1</ele>
        <time>2012-10-28T11:41:48Z</time>
      </trkpt>
      <trkpt lat="47.24146" lon="-1.63416">
        <ele>31.8</ele>
        <time>2012-10-28T11:41:50Z</time>
      </trkpt>
      <trkpt lat="47.24144" lon="-1.63411">
        <ele>31.9</ele>
        <time>2012-10-28T11:41:51Z</time>
      </trkpt>
      <trkpt lat="47.2414" lon="-1.63407">
        <ele>31.9</ele>
        <time>2012-10-28T11:41:52Z</time>
      </trkpt>
      <trkpt lat="47.24136" lon="-1.63404">
        <ele>31.5</ele>
        <time>2012-10-28T11:41:53Z</time>
      </trkpt>
      <trkpt lat="47.24132" lon="-1.63403">
        <ele>31.3</ele>
        <time>2012-10-28T11:41:54Z</time>
      </trkpt>
      <trkpt lat="47.24127" lon="-1.63403">
        <ele>31.1</ele>
        <time>2012-10-28T11:41:55Z</time>
      </trkpt>
      <trkpt lat="47.24123" lon="-1.63404">
        <ele>30.8</ele>
        <time>2012-10-28T11:41:56Z</time>
      </trkpt>
      <trkpt lat="47.24119" lon="-1.63405">
        <ele>30.6</ele>
        <time>2012-10-28T11:41:57Z</time>
      </trkpt>
      <trkpt lat="47.24115" lon="-1.63407">
        <ele>30.8</ele>
        <time>2012-10-28T11:41:58Z</time>
      </trkpt>
      <trkpt lat="47.24096" lon="-1.63419">
        <ele>31.1</ele>
        <time>2012-10-28T11:42:03Z</time>
      </trkpt>
      <trkpt lat="47.24092" lon="-1.63421">
        <ele>31.4</ele>
        <time>2012-10-28T11:42:04Z</time>
      </trkpt>
      <trkpt lat="47.2408" lon="-1.63424">
        <ele>32.3</ele>
        <time>2012-10-28T11:42:07Z</time>
      </trkpt>
      <trkpt lat="47.24076" lon="-1.63424">
        <ele>32.9</ele>
        <time>2012-10-28T11:42:08Z</time>
      </trkpt>
      <trkpt lat="47.24026" lon="-1.63419">
        <ele>33.3</ele>
        <time>2012-10-28T11:42:20Z</time>
      </trkpt>
      <trkpt lat="47.24022" lon="-1.6342">
        <ele>33.5</ele>
        <time>2012-10-28T11:42:21Z</time>
      </trkpt>
      <trkpt lat="47.24004" lon="-1.63424">
        <ele>33</ele>
        <time>2012-10-28T11:42:25Z</time>
      </trkpt>
      <trkpt lat="47.24" lon="-1.63426">
        <ele>32.9</ele>
        <time>2012-10-28T11:42:26Z</time>
      </trkpt>
      <trkpt lat="47.23951" lon="-1.63459">
        <ele>34.9</ele>
        <time>2012-10-28T11:42:40Z</time>
      </trkpt>
      <trkpt lat="47.23947" lon="-1.6346">
        <ele>35</ele>
        <time>2012-10-28T11:42:41Z</time>
      </trkpt>
      <trkpt lat="47.23939" lon="-1.63463">
        <ele>35.3</ele>
        <time>2012-10-28T11:42:43Z</time>
      </trkpt>
      <trkpt lat="47.23935" lon="-1.63463">
        <ele>35.4</ele>
        <time>2012-10-28T11:42:44Z</time>
      </trkpt>
      <trkpt lat="47.23927" lon="-1.63463">
        <ele>35.7</ele>
        <time>2012-10-28T11:42:46Z</time>
      </trkpt>
      <trkpt lat="47.23923" lon="-1.63463">
        <ele>35.9</ele>
        <time>2012-10-28T11:42:47Z</time>
      </trkpt>
      <trkpt lat="47.23915" lon="-1.63461">
        <ele>36.3</ele>
        <time>2012-10-28T11:42:49Z</time>
      </trkpt>
      <trkpt lat="47.23912" lon="-1.6346">
        <ele>36.6</ele>
        <time>2012-10-28T11:42:50Z</time>
      </trkpt>
      <trkpt lat="47.23905" lon="-1.63456">
        <ele>36.9</ele>
        <time>2012-10-28T11:42:53Z</time>
      </trkpt>
      <trkpt lat="47.23903" lon="-1.63453">
        <ele>36.9</ele>
        <time>2012-10-28T11:42:54Z</time>
      </trkpt>
      <trkpt lat="47.23902" lon="-1.63451">
        <ele>37</ele>
        <time>2012-10-28T11:42:55Z</time>
      </trkpt>
      <trkpt lat="47.23902" lon="-1.63448">
        <ele>37</ele>
        <time>2012-10-28T11:42:56Z</time>
      </trkpt>
      <trkpt lat="47.23902" lon="-1.63443">
        <ele>37.2</ele>
        <time>2012-10-28T11:42:58Z</time>
      </trkpt>
      <trkpt lat="47.23902" lon="-1.63442">
        <ele>37.3</ele>
        <time>2012-10-28T11:42:59Z</time>
      </trkpt>
      <trkpt lat="47.23901" lon="-1.63442">
        <ele>36.8</ele>
        <time>2012-10-28T11:43:01Z</time>
      </trkpt>
      <trkpt lat="47.23901" lon="-1.63442">
        <ele>37.3</ele>
        <time>2012-10-28T11:43:02Z</time>
      </trkpt>
      <trkpt lat="47.23901" lon="-1.63442">
        <ele>37.6</ele>
        <time>2012-10-28T11:43:03Z</time>
      </trkpt>
      <trkpt lat="47.23901" lon="-1.63441">
        <ele>37.8</ele>
        <time>2012-10-28T11:43:04Z</time>
      </trkpt>
      <trkpt lat="47.23901" lon="-1.63441">
        <ele>37.5</ele>
        <time>2012-10-28T11:43:05Z</time>
      </trkpt>
      <trkpt lat="47.23901" lon="-1.63441">
        <ele>37.3</ele>
        <time>2012-10-28T11:43:06Z</time>
      </trkpt>
      <trkpt lat="47.23901" lon="-1.63441">
        <ele>37.2</ele>
        <time>2012-10-28T11:43:07Z</time>
      </trkpt>
      <trkpt lat="47.23901" lon="-1.63441">
        <ele>37.1</ele>
        <time>2012-10-28T11:43:08Z</time>
      </trkpt>
      <trkpt lat="47.239" lon="-1.63441">
        <ele>36.9</ele>
        <time>2012-10-28T11:43:09Z</time>
      </trkpt>
      <trkpt lat="47.239" lon="-1.63441">
        <ele>36.8</ele>
        <time>2012-10-28T11:43:10Z</time>
      </trkpt>
      <trkpt lat="47.239" lon="-1.63441">
        <ele>36.7</ele>
        <time>2012-10-28T11:43:11Z</time>
      </trkpt>
      <trkpt lat="47.239" lon="-1.63441">
        <ele>36.5</ele>
        <time>2012-10-28T11:43:12Z</time>
      </trkpt>
      <trkpt lat="47.239" lon="-1.6344">
        <ele>36.3</ele>
        <time>2012-10-28T11:43:13Z</time>
      </trkpt>
      <trkpt lat="47.23899" lon="-1.63436">
        <ele>37.1</ele>
        <time>2012-10-28T11:43:22Z</time>
      </trkpt>
      <trkpt lat="47.23899" lon="-1.63436">
        <ele>37.1</ele>
        <time>2012-10-28T11:43:23Z</time>
      </trkpt>
    </trkseg>
  </trk>
</gpx>